<?xml version="1.0" encoding="UTF-8" standalone="no" ?>
<gpx xmlns="http://www.topografix.com/GPX/1/1" xmlns:xsi="http://www.w3.org/2001/XMLSchema-instance" xsi:schemaLocation="http://www.topografix.com/GPX/1/1 http://www.topografix.com/GPX/1/1/gpx.xsd" version="1.1" creator="VisuGPX - https://www.visugpx.com">
  <metadata>
    <name>Dolomites jour 8</name>
    <desc><![CDATA[DE Bormio à Chur, par les cols.]]></desc>
  </metadata>
  <trk>
    <name><![CDATA[Jour 8 - 03/08/2012]]></name>
    <trkseg>
      <trkpt lat="46.44361" lon="10.3607">
        <ele>1195.06</ele>
        <time>2012-08-03T06:18:22Z</time>
      </trkpt>
      <trkpt lat="46.44359" lon="10.36064">
        <ele>1194.58</ele>
        <time>2012-08-03T06:18:55Z</time>
      </trkpt>
      <trkpt lat="46.44358" lon="10.36054">
        <ele>1194.58</ele>
        <time>2012-08-03T06:19:26Z</time>
      </trkpt>
      <trkpt lat="46.44359" lon="10.36053">
        <ele>1194.58</ele>
        <time>2012-08-03T06:19:49Z</time>
      </trkpt>
      <trkpt lat="46.44349" lon="10.36053">
        <ele>1194.09</ele>
        <time>2012-08-03T06:20:18Z</time>
      </trkpt>
      <trkpt lat="46.44352" lon="10.36049">
        <ele>1195.06</ele>
        <time>2012-08-03T06:20:32Z</time>
      </trkpt>
      <trkpt lat="46.44353" lon="10.36043">
        <ele>1194.09</ele>
        <time>2012-08-03T06:20:52Z</time>
      </trkpt>
      <trkpt lat="46.44353" lon="10.36042">
        <ele>1196.02</ele>
        <time>2012-08-03T06:21:00Z</time>
      </trkpt>
      <trkpt lat="46.44352" lon="10.36042">
        <ele>1192.17</ele>
        <time>2012-08-03T06:21:06Z</time>
      </trkpt>
      <trkpt lat="46.44352" lon="10.36043">
        <ele>1195.54</ele>
        <time>2012-08-03T06:21:08Z</time>
      </trkpt>
      <trkpt lat="46.4435" lon="10.36043">
        <ele>1195.06</ele>
        <time>2012-08-03T06:21:29Z</time>
      </trkpt>
      <trkpt lat="46.44348" lon="10.36044">
        <ele>1195.54</ele>
        <time>2012-08-03T06:21:37Z</time>
      </trkpt>
      <trkpt lat="46.4435" lon="10.36043">
        <ele>1195.06</ele>
        <time>2012-08-03T06:21:47Z</time>
      </trkpt>
      <trkpt lat="46.44351" lon="10.36054">
        <ele>1196.02</ele>
        <time>2012-08-03T06:22:04Z</time>
      </trkpt>
      <trkpt lat="46.44352" lon="10.36056">
        <ele>1192.17</ele>
        <time>2012-08-03T06:22:08Z</time>
      </trkpt>
      <trkpt lat="46.44353" lon="10.36056">
        <ele>1195.54</ele>
        <time>2012-08-03T06:22:09Z</time>
      </trkpt>
      <trkpt lat="46.44354" lon="10.36062">
        <ele>1195.06</ele>
        <time>2012-08-03T06:22:32Z</time>
      </trkpt>
      <trkpt lat="46.44355" lon="10.3606">
        <ele>1194.58</ele>
        <time>2012-08-03T06:22:58Z</time>
      </trkpt>
      <trkpt lat="46.44355" lon="10.36059">
        <ele>1193.13</ele>
        <time>2012-08-03T06:23:00Z</time>
      </trkpt>
      <trkpt lat="46.44355" lon="10.36059">
        <ele>1196.02</ele>
        <time>2012-08-03T06:23:06Z</time>
      </trkpt>
      <trkpt lat="46.44354" lon="10.36057">
        <ele>1195.54</ele>
        <time>2012-08-03T06:23:20Z</time>
      </trkpt>
      <trkpt lat="46.44353" lon="10.36054">
        <ele>1193.61</ele>
        <time>2012-08-03T06:23:41Z</time>
      </trkpt>
      <trkpt lat="46.44353" lon="10.36054">
        <ele>1195.54</ele>
        <time>2012-08-03T06:24:08Z</time>
      </trkpt>
      <trkpt lat="46.44354" lon="10.36053">
        <ele>1194.58</ele>
        <time>2012-08-03T06:24:16Z</time>
      </trkpt>
      <trkpt lat="46.44358" lon="10.36056">
        <ele>1195.06</ele>
        <time>2012-08-03T06:24:39Z</time>
      </trkpt>
      <trkpt lat="46.44361" lon="10.36053">
        <ele>1192.65</ele>
        <time>2012-08-03T06:24:55Z</time>
      </trkpt>
      <trkpt lat="46.4436" lon="10.36053">
        <ele>1191.69</ele>
        <time>2012-08-03T06:25:03Z</time>
      </trkpt>
      <trkpt lat="46.4436" lon="10.36053">
        <ele>1196.5</ele>
        <time>2012-08-03T06:25:04Z</time>
      </trkpt>
      <trkpt lat="46.44358" lon="10.36054">
        <ele>1194.09</ele>
        <time>2012-08-03T06:25:10Z</time>
      </trkpt>
      <trkpt lat="46.44358" lon="10.36053">
        <ele>1192.65</ele>
        <time>2012-08-03T06:25:15Z</time>
      </trkpt>
      <trkpt lat="46.44358" lon="10.36052">
        <ele>1195.54</ele>
        <time>2012-08-03T06:25:16Z</time>
      </trkpt>
      <trkpt lat="46.44358" lon="10.36051">
        <ele>1196.02</ele>
        <time>2012-08-03T06:25:21Z</time>
      </trkpt>
      <trkpt lat="46.44357" lon="10.36048">
        <ele>1192.65</ele>
        <time>2012-08-03T06:25:31Z</time>
      </trkpt>
      <trkpt lat="46.44357" lon="10.36047">
        <ele>1196.02</ele>
        <time>2012-08-03T06:25:34Z</time>
      </trkpt>
      <trkpt lat="46.44355" lon="10.36053">
        <ele>1195.54</ele>
        <time>2012-08-03T06:26:04Z</time>
      </trkpt>
      <trkpt lat="46.44359" lon="10.36051">
        <ele>1194.09</ele>
        <time>2012-08-03T06:26:21Z</time>
      </trkpt>
      <trkpt lat="46.4436" lon="10.3605">
        <ele>1195.54</ele>
        <time>2012-08-03T06:26:23Z</time>
      </trkpt>
      <trkpt lat="46.4436" lon="10.36054">
        <ele>1194.58</ele>
        <time>2012-08-03T06:26:42Z</time>
      </trkpt>
      <trkpt lat="46.44344" lon="10.36032">
        <ele>1189.29</ele>
        <time>2012-08-03T07:37:33Z</time>
      </trkpt>
      <trkpt lat="46.44355" lon="10.36027">
        <ele>1189.77</ele>
        <time>2012-08-03T07:37:37Z</time>
      </trkpt>
      <trkpt lat="46.4436" lon="10.3603">
        <ele>1189.77</ele>
        <time>2012-08-03T07:37:38Z</time>
      </trkpt>
      <trkpt lat="46.44383" lon="10.36042">
        <ele>1191.21</ele>
        <time>2012-08-03T07:37:41Z</time>
      </trkpt>
      <trkpt lat="46.44508" lon="10.36108">
        <ele>1194.09</ele>
        <time>2012-08-03T07:37:54Z</time>
      </trkpt>
      <trkpt lat="46.44611" lon="10.36138">
        <ele>1195.06</ele>
        <time>2012-08-03T07:38:03Z</time>
      </trkpt>
      <trkpt lat="46.44656" lon="10.36132">
        <ele>1192.17</ele>
        <time>2012-08-03T07:38:07Z</time>
      </trkpt>
      <trkpt lat="46.44691" lon="10.36126">
        <ele>1188.33</ele>
        <time>2012-08-03T07:38:10Z</time>
      </trkpt>
      <trkpt lat="46.44738" lon="10.36118">
        <ele>1184.96</ele>
        <time>2012-08-03T07:38:14Z</time>
      </trkpt>
      <trkpt lat="46.44783" lon="10.3611">
        <ele>1181.6</ele>
        <time>2012-08-03T07:38:18Z</time>
      </trkpt>
      <trkpt lat="46.44839" lon="10.361">
        <ele>1178.23</ele>
        <time>2012-08-03T07:38:23Z</time>
      </trkpt>
      <trkpt lat="46.44869" lon="10.361">
        <ele>1176.31</ele>
        <time>2012-08-03T07:38:26Z</time>
      </trkpt>
      <trkpt lat="46.44879" lon="10.36103">
        <ele>1175.35</ele>
        <time>2012-08-03T07:38:27Z</time>
      </trkpt>
      <trkpt lat="46.44889" lon="10.36106">
        <ele>1175.35</ele>
        <time>2012-08-03T07:38:28Z</time>
      </trkpt>
      <trkpt lat="46.44929" lon="10.36127">
        <ele>1172.47</ele>
        <time>2012-08-03T07:38:32Z</time>
      </trkpt>
      <trkpt lat="46.44948" lon="10.36141">
        <ele>1171.5</ele>
        <time>2012-08-03T07:38:34Z</time>
      </trkpt>
      <trkpt lat="46.44956" lon="10.3615">
        <ele>1171.02</ele>
        <time>2012-08-03T07:38:35Z</time>
      </trkpt>
      <trkpt lat="46.4497" lon="10.36166">
        <ele>1170.06</ele>
        <time>2012-08-03T07:38:37Z</time>
      </trkpt>
      <trkpt lat="46.44975" lon="10.36177">
        <ele>1169.58</ele>
        <time>2012-08-03T07:38:38Z</time>
      </trkpt>
      <trkpt lat="46.44978" lon="10.36189">
        <ele>1170.06</ele>
        <time>2012-08-03T07:38:39Z</time>
      </trkpt>
      <trkpt lat="46.44977" lon="10.36202">
        <ele>1169.58</ele>
        <time>2012-08-03T07:38:40Z</time>
      </trkpt>
      <trkpt lat="46.44972" lon="10.36213">
        <ele>1170.06</ele>
        <time>2012-08-03T07:38:41Z</time>
      </trkpt>
      <trkpt lat="46.44966" lon="10.36222">
        <ele>1170.06</ele>
        <time>2012-08-03T07:38:42Z</time>
      </trkpt>
      <trkpt lat="46.44957" lon="10.36226">
        <ele>1170.06</ele>
        <time>2012-08-03T07:38:43Z</time>
      </trkpt>
      <trkpt lat="46.44947" lon="10.36224">
        <ele>1170.54</ele>
        <time>2012-08-03T07:38:44Z</time>
      </trkpt>
      <trkpt lat="46.44939" lon="10.36217">
        <ele>1170.54</ele>
        <time>2012-08-03T07:38:45Z</time>
      </trkpt>
      <trkpt lat="46.44933" lon="10.36207">
        <ele>1170.54</ele>
        <time>2012-08-03T07:38:46Z</time>
      </trkpt>
      <trkpt lat="46.44929" lon="10.36195">
        <ele>1171.02</ele>
        <time>2012-08-03T07:38:47Z</time>
      </trkpt>
      <trkpt lat="46.44929" lon="10.36182">
        <ele>1171.02</ele>
        <time>2012-08-03T07:38:48Z</time>
      </trkpt>
      <trkpt lat="46.44933" lon="10.3617">
        <ele>1170.54</ele>
        <time>2012-08-03T07:38:49Z</time>
      </trkpt>
      <trkpt lat="46.4494" lon="10.36159">
        <ele>1170.54</ele>
        <time>2012-08-03T07:38:50Z</time>
      </trkpt>
      <trkpt lat="46.44949" lon="10.36149">
        <ele>1171.5</ele>
        <time>2012-08-03T07:38:51Z</time>
      </trkpt>
      <trkpt lat="46.44961" lon="10.3614">
        <ele>1171.5</ele>
        <time>2012-08-03T07:38:52Z</time>
      </trkpt>
      <trkpt lat="46.45041" lon="10.36086">
        <ele>1171.5</ele>
        <time>2012-08-03T07:38:57Z</time>
      </trkpt>
      <trkpt lat="46.45102" lon="10.36061">
        <ele>1168.62</ele>
        <time>2012-08-03T07:39:01Z</time>
      </trkpt>
      <trkpt lat="46.45116" lon="10.36057">
        <ele>1168.14</ele>
        <time>2012-08-03T07:39:02Z</time>
      </trkpt>
      <trkpt lat="46.45246" lon="10.3603">
        <ele>1166.22</ele>
        <time>2012-08-03T07:39:11Z</time>
      </trkpt>
      <trkpt lat="46.45368" lon="10.36009">
        <ele>1166.22</ele>
        <time>2012-08-03T07:39:21Z</time>
      </trkpt>
      <trkpt lat="46.45499" lon="10.35985">
        <ele>1167.66</ele>
        <time>2012-08-03T07:39:30Z</time>
      </trkpt>
      <trkpt lat="46.45515" lon="10.35982">
        <ele>1168.14</ele>
        <time>2012-08-03T07:39:31Z</time>
      </trkpt>
      <trkpt lat="46.4553" lon="10.3598">
        <ele>1168.62</ele>
        <time>2012-08-03T07:39:32Z</time>
      </trkpt>
      <trkpt lat="46.45718" lon="10.35946">
        <ele>1171.02</ele>
        <time>2012-08-03T07:39:45Z</time>
      </trkpt>
      <trkpt lat="46.4582" lon="10.35927">
        <ele>1173.91</ele>
        <time>2012-08-03T07:39:53Z</time>
      </trkpt>
      <trkpt lat="46.45967" lon="10.35902">
        <ele>1173.43</ele>
        <time>2012-08-03T07:40:06Z</time>
      </trkpt>
      <trkpt lat="46.45991" lon="10.35904">
        <ele>1173.43</ele>
        <time>2012-08-03T07:40:08Z</time>
      </trkpt>
      <trkpt lat="46.46002" lon="10.35907">
        <ele>1173.43</ele>
        <time>2012-08-03T07:40:09Z</time>
      </trkpt>
      <trkpt lat="46.46013" lon="10.3591">
        <ele>1173.43</ele>
        <time>2012-08-03T07:40:10Z</time>
      </trkpt>
      <trkpt lat="46.46022" lon="10.35915">
        <ele>1173.43</ele>
        <time>2012-08-03T07:40:11Z</time>
      </trkpt>
      <trkpt lat="46.46031" lon="10.35919">
        <ele>1173.43</ele>
        <time>2012-08-03T07:40:12Z</time>
      </trkpt>
      <trkpt lat="46.46039" lon="10.35925">
        <ele>1173.91</ele>
        <time>2012-08-03T07:40:13Z</time>
      </trkpt>
      <trkpt lat="46.46047" lon="10.35931">
        <ele>1173.91</ele>
        <time>2012-08-03T07:40:14Z</time>
      </trkpt>
      <trkpt lat="46.46101" lon="10.36005">
        <ele>1175.35</ele>
        <time>2012-08-03T07:40:24Z</time>
      </trkpt>
      <trkpt lat="46.46124" lon="10.36052">
        <ele>1175.83</ele>
        <time>2012-08-03T07:40:33Z</time>
      </trkpt>
      <trkpt lat="46.46156" lon="10.3612">
        <ele>1179.19</ele>
        <time>2012-08-03T07:40:41Z</time>
      </trkpt>
      <trkpt lat="46.46235" lon="10.36277">
        <ele>1182.08</ele>
        <time>2012-08-03T07:40:56Z</time>
      </trkpt>
      <trkpt lat="46.46304" lon="10.36416">
        <ele>1185.44</ele>
        <time>2012-08-03T07:41:07Z</time>
      </trkpt>
      <trkpt lat="46.46354" lon="10.36515">
        <ele>1185.92</ele>
        <time>2012-08-03T07:41:17Z</time>
      </trkpt>
      <trkpt lat="46.46408" lon="10.36624">
        <ele>1188.81</ele>
        <time>2012-08-03T07:41:28Z</time>
      </trkpt>
      <trkpt lat="46.46461" lon="10.36725">
        <ele>1189.29</ele>
        <time>2012-08-03T07:47:51Z</time>
      </trkpt>
      <trkpt lat="46.46462" lon="10.36727">
        <ele>1188.81</ele>
        <time>2012-08-03T07:47:53Z</time>
      </trkpt>
      <trkpt lat="46.46464" lon="10.36727">
        <ele>1189.29</ele>
        <time>2012-08-03T07:47:59Z</time>
      </trkpt>
      <trkpt lat="46.46461" lon="10.36719">
        <ele>1189.77</ele>
        <time>2012-08-03T07:48:02Z</time>
      </trkpt>
      <trkpt lat="46.46455" lon="10.36702">
        <ele>1188.81</ele>
        <time>2012-08-03T07:48:04Z</time>
      </trkpt>
      <trkpt lat="46.46389" lon="10.3658">
        <ele>1189.77</ele>
        <time>2012-08-03T07:48:16Z</time>
      </trkpt>
      <trkpt lat="46.46308" lon="10.36417">
        <ele>1187.37</ele>
        <time>2012-08-03T07:48:29Z</time>
      </trkpt>
      <trkpt lat="46.46246" lon="10.36292">
        <ele>1184.96</ele>
        <time>2012-08-03T07:48:38Z</time>
      </trkpt>
      <trkpt lat="46.46145" lon="10.36087">
        <ele>1181.12</ele>
        <time>2012-08-03T07:48:52Z</time>
      </trkpt>
      <trkpt lat="46.46048" lon="10.35928">
        <ele>1178.71</ele>
        <time>2012-08-03T07:49:04Z</time>
      </trkpt>
      <trkpt lat="46.46003" lon="10.35901">
        <ele>1178.23</ele>
        <time>2012-08-03T07:49:08Z</time>
      </trkpt>
      <trkpt lat="46.45992" lon="10.35899">
        <ele>1177.27</ele>
        <time>2012-08-03T07:49:09Z</time>
      </trkpt>
      <trkpt lat="46.45981" lon="10.35897">
        <ele>1176.79</ele>
        <time>2012-08-03T07:49:10Z</time>
      </trkpt>
      <trkpt lat="46.45971" lon="10.35897">
        <ele>1176.31</ele>
        <time>2012-08-03T07:49:11Z</time>
      </trkpt>
      <trkpt lat="46.45962" lon="10.35897">
        <ele>1175.83</ele>
        <time>2012-08-03T07:49:12Z</time>
      </trkpt>
      <trkpt lat="46.45939" lon="10.35899">
        <ele>1175.35</ele>
        <time>2012-08-03T07:49:15Z</time>
      </trkpt>
      <trkpt lat="46.45934" lon="10.35896">
        <ele>1174.87</ele>
        <time>2012-08-03T07:49:16Z</time>
      </trkpt>
      <trkpt lat="46.45931" lon="10.35891">
        <ele>1174.87</ele>
        <time>2012-08-03T07:49:17Z</time>
      </trkpt>
      <trkpt lat="46.45928" lon="10.35883">
        <ele>1174.87</ele>
        <time>2012-08-03T07:49:18Z</time>
      </trkpt>
      <trkpt lat="46.45926" lon="10.35873">
        <ele>1174.39</ele>
        <time>2012-08-03T07:49:19Z</time>
      </trkpt>
      <trkpt lat="46.45907" lon="10.35798">
        <ele>1173.43</ele>
        <time>2012-08-03T07:49:26Z</time>
      </trkpt>
      <trkpt lat="46.45902" lon="10.35788">
        <ele>1173.43</ele>
        <time>2012-08-03T07:49:27Z</time>
      </trkpt>
      <trkpt lat="46.45896" lon="10.35779">
        <ele>1173.43</ele>
        <time>2012-08-03T07:49:28Z</time>
      </trkpt>
      <trkpt lat="46.4589" lon="10.35771">
        <ele>1173.43</ele>
        <time>2012-08-03T07:49:29Z</time>
      </trkpt>
      <trkpt lat="46.45883" lon="10.35765">
        <ele>1172.95</ele>
        <time>2012-08-03T07:49:30Z</time>
      </trkpt>
      <trkpt lat="46.45876" lon="10.35761">
        <ele>1173.43</ele>
        <time>2012-08-03T07:49:31Z</time>
      </trkpt>
      <trkpt lat="46.45868" lon="10.35758">
        <ele>1173.91</ele>
        <time>2012-08-03T07:49:32Z</time>
      </trkpt>
      <trkpt lat="46.4586" lon="10.35756">
        <ele>1174.39</ele>
        <time>2012-08-03T07:49:33Z</time>
      </trkpt>
      <trkpt lat="46.45819" lon="10.35735">
        <ele>1175.83</ele>
        <time>2012-08-03T07:49:38Z</time>
      </trkpt>
      <trkpt lat="46.45812" lon="10.35728">
        <ele>1177.27</ele>
        <time>2012-08-03T07:49:39Z</time>
      </trkpt>
      <trkpt lat="46.45804" lon="10.35719">
        <ele>1177.75</ele>
        <time>2012-08-03T07:49:40Z</time>
      </trkpt>
      <trkpt lat="46.45798" lon="10.35709">
        <ele>1178.23</ele>
        <time>2012-08-03T07:49:41Z</time>
      </trkpt>
      <trkpt lat="46.45792" lon="10.35699">
        <ele>1179.67</ele>
        <time>2012-08-03T07:49:42Z</time>
      </trkpt>
      <trkpt lat="46.45785" lon="10.35689">
        <ele>1180.64</ele>
        <time>2012-08-03T07:49:43Z</time>
      </trkpt>
      <trkpt lat="46.45777" lon="10.35681">
        <ele>1181.12</ele>
        <time>2012-08-03T07:49:44Z</time>
      </trkpt>
      <trkpt lat="46.45768" lon="10.35675">
        <ele>1182.08</ele>
        <time>2012-08-03T07:49:45Z</time>
      </trkpt>
      <trkpt lat="46.45759" lon="10.3567">
        <ele>1183.04</ele>
        <time>2012-08-03T07:49:46Z</time>
      </trkpt>
      <trkpt lat="46.45749" lon="10.35666">
        <ele>1183.04</ele>
        <time>2012-08-03T07:49:47Z</time>
      </trkpt>
      <trkpt lat="46.45723" lon="10.35655">
        <ele>1185.44</ele>
        <time>2012-08-03T07:49:50Z</time>
      </trkpt>
      <trkpt lat="46.45704" lon="10.35642">
        <ele>1185.92</ele>
        <time>2012-08-03T07:49:55Z</time>
      </trkpt>
      <trkpt lat="46.45704" lon="10.35637">
        <ele>1185.92</ele>
        <time>2012-08-03T07:49:56Z</time>
      </trkpt>
      <trkpt lat="46.45705" lon="10.35633">
        <ele>1186.4</ele>
        <time>2012-08-03T07:49:57Z</time>
      </trkpt>
      <trkpt lat="46.45709" lon="10.35631">
        <ele>1187.37</ele>
        <time>2012-08-03T07:49:58Z</time>
      </trkpt>
      <trkpt lat="46.45714" lon="10.35629">
        <ele>1187.37</ele>
        <time>2012-08-03T07:49:59Z</time>
      </trkpt>
      <trkpt lat="46.45743" lon="10.35622">
        <ele>1190.25</ele>
        <time>2012-08-03T07:50:03Z</time>
      </trkpt>
      <trkpt lat="46.45762" lon="10.35615">
        <ele>1189.77</ele>
        <time>2012-08-03T07:50:06Z</time>
      </trkpt>
      <trkpt lat="46.45766" lon="10.35612">
        <ele>1190.25</ele>
        <time>2012-08-03T07:50:07Z</time>
      </trkpt>
      <trkpt lat="46.45767" lon="10.35608">
        <ele>1190.25</ele>
        <time>2012-08-03T07:50:08Z</time>
      </trkpt>
      <trkpt lat="46.45764" lon="10.35605">
        <ele>1190.25</ele>
        <time>2012-08-03T07:50:09Z</time>
      </trkpt>
      <trkpt lat="46.45759" lon="10.35603">
        <ele>1190.73</ele>
        <time>2012-08-03T07:50:10Z</time>
      </trkpt>
      <trkpt lat="46.45753" lon="10.35604">
        <ele>1191.69</ele>
        <time>2012-08-03T07:50:11Z</time>
      </trkpt>
      <trkpt lat="46.45745" lon="10.35606">
        <ele>1192.17</ele>
        <time>2012-08-03T07:50:12Z</time>
      </trkpt>
      <trkpt lat="46.45737" lon="10.35608">
        <ele>1192.65</ele>
        <time>2012-08-03T07:50:13Z</time>
      </trkpt>
      <trkpt lat="46.45729" lon="10.35609">
        <ele>1192.65</ele>
        <time>2012-08-03T07:50:14Z</time>
      </trkpt>
      <trkpt lat="46.45722" lon="10.35609">
        <ele>1193.13</ele>
        <time>2012-08-03T07:50:15Z</time>
      </trkpt>
      <trkpt lat="46.45717" lon="10.35607">
        <ele>1193.13</ele>
        <time>2012-08-03T07:50:16Z</time>
      </trkpt>
      <trkpt lat="46.45715" lon="10.35603">
        <ele>1193.61</ele>
        <time>2012-08-03T07:50:17Z</time>
      </trkpt>
      <trkpt lat="46.45717" lon="10.35595">
        <ele>1193.61</ele>
        <time>2012-08-03T07:50:19Z</time>
      </trkpt>
      <trkpt lat="46.45722" lon="10.35593">
        <ele>1194.58</ele>
        <time>2012-08-03T07:50:20Z</time>
      </trkpt>
      <trkpt lat="46.45727" lon="10.35589">
        <ele>1195.06</ele>
        <time>2012-08-03T07:50:21Z</time>
      </trkpt>
      <trkpt lat="46.45731" lon="10.35582">
        <ele>1196.02</ele>
        <time>2012-08-03T07:50:22Z</time>
      </trkpt>
      <trkpt lat="46.45736" lon="10.35574">
        <ele>1196.5</ele>
        <time>2012-08-03T07:50:23Z</time>
      </trkpt>
      <trkpt lat="46.45741" lon="10.35564">
        <ele>1197.94</ele>
        <time>2012-08-03T07:50:24Z</time>
      </trkpt>
      <trkpt lat="46.45751" lon="10.35545">
        <ele>1198.9</ele>
        <time>2012-08-03T07:50:26Z</time>
      </trkpt>
      <trkpt lat="46.45769" lon="10.35519">
        <ele>1200.82</ele>
        <time>2012-08-03T07:50:29Z</time>
      </trkpt>
      <trkpt lat="46.45774" lon="10.35514">
        <ele>1201.3</ele>
        <time>2012-08-03T07:50:30Z</time>
      </trkpt>
      <trkpt lat="46.45781" lon="10.35514">
        <ele>1201.79</ele>
        <time>2012-08-03T07:50:31Z</time>
      </trkpt>
      <trkpt lat="46.45788" lon="10.3552">
        <ele>1202.75</ele>
        <time>2012-08-03T07:50:32Z</time>
      </trkpt>
      <trkpt lat="46.45795" lon="10.35528">
        <ele>1203.23</ele>
        <time>2012-08-03T07:50:33Z</time>
      </trkpt>
      <trkpt lat="46.45803" lon="10.35537">
        <ele>1204.67</ele>
        <time>2012-08-03T07:50:34Z</time>
      </trkpt>
      <trkpt lat="46.45813" lon="10.35544">
        <ele>1206.11</ele>
        <time>2012-08-03T07:50:35Z</time>
      </trkpt>
      <trkpt lat="46.45823" lon="10.35548">
        <ele>1206.11</ele>
        <time>2012-08-03T07:50:36Z</time>
      </trkpt>
      <trkpt lat="46.45834" lon="10.35549">
        <ele>1207.55</ele>
        <time>2012-08-03T07:50:37Z</time>
      </trkpt>
      <trkpt lat="46.45844" lon="10.35546">
        <ele>1208.51</ele>
        <time>2012-08-03T07:50:38Z</time>
      </trkpt>
      <trkpt lat="46.45854" lon="10.35541">
        <ele>1209.48</ele>
        <time>2012-08-03T07:50:39Z</time>
      </trkpt>
      <trkpt lat="46.45864" lon="10.35533">
        <ele>1210.44</ele>
        <time>2012-08-03T07:50:40Z</time>
      </trkpt>
      <trkpt lat="46.45874" lon="10.35523">
        <ele>1211.4</ele>
        <time>2012-08-03T07:50:41Z</time>
      </trkpt>
      <trkpt lat="46.45884" lon="10.35514">
        <ele>1213.32</ele>
        <time>2012-08-03T07:50:42Z</time>
      </trkpt>
      <trkpt lat="46.45895" lon="10.35507">
        <ele>1213.8</ele>
        <time>2012-08-03T07:50:43Z</time>
      </trkpt>
      <trkpt lat="46.45906" lon="10.35502">
        <ele>1215.24</ele>
        <time>2012-08-03T07:50:44Z</time>
      </trkpt>
      <trkpt lat="46.4593" lon="10.35492">
        <ele>1217.65</ele>
        <time>2012-08-03T07:50:46Z</time>
      </trkpt>
      <trkpt lat="46.45971" lon="10.3547">
        <ele>1221.01</ele>
        <time>2012-08-03T07:50:50Z</time>
      </trkpt>
      <trkpt lat="46.45979" lon="10.3547">
        <ele>1221.97</ele>
        <time>2012-08-03T07:50:51Z</time>
      </trkpt>
      <trkpt lat="46.45987" lon="10.35472">
        <ele>1221.97</ele>
        <time>2012-08-03T07:50:52Z</time>
      </trkpt>
      <trkpt lat="46.45997" lon="10.35473">
        <ele>1222.93</ele>
        <time>2012-08-03T07:50:53Z</time>
      </trkpt>
      <trkpt lat="46.46007" lon="10.35473">
        <ele>1222.93</ele>
        <time>2012-08-03T07:50:54Z</time>
      </trkpt>
      <trkpt lat="46.46017" lon="10.35471">
        <ele>1224.38</ele>
        <time>2012-08-03T07:50:55Z</time>
      </trkpt>
      <trkpt lat="46.46027" lon="10.35468">
        <ele>1225.34</ele>
        <time>2012-08-03T07:50:56Z</time>
      </trkpt>
      <trkpt lat="46.46036" lon="10.35463">
        <ele>1225.82</ele>
        <time>2012-08-03T07:50:57Z</time>
      </trkpt>
      <trkpt lat="46.46043" lon="10.35456">
        <ele>1226.3</ele>
        <time>2012-08-03T07:50:58Z</time>
      </trkpt>
      <trkpt lat="46.46048" lon="10.35448">
        <ele>1226.3</ele>
        <time>2012-08-03T07:50:59Z</time>
      </trkpt>
      <trkpt lat="46.46053" lon="10.35441">
        <ele>1227.26</ele>
        <time>2012-08-03T07:51:00Z</time>
      </trkpt>
      <trkpt lat="46.46059" lon="10.35435">
        <ele>1227.26</ele>
        <time>2012-08-03T07:51:01Z</time>
      </trkpt>
      <trkpt lat="46.46064" lon="10.35432">
        <ele>1228.22</ele>
        <time>2012-08-03T07:51:02Z</time>
      </trkpt>
      <trkpt lat="46.4607" lon="10.35433">
        <ele>1229.18</ele>
        <time>2012-08-03T07:51:03Z</time>
      </trkpt>
      <trkpt lat="46.46078" lon="10.35438">
        <ele>1229.66</ele>
        <time>2012-08-03T07:51:04Z</time>
      </trkpt>
      <trkpt lat="46.46093" lon="10.35446">
        <ele>1231.11</ele>
        <time>2012-08-03T07:51:06Z</time>
      </trkpt>
      <trkpt lat="46.46101" lon="10.35446">
        <ele>1231.59</ele>
        <time>2012-08-03T07:51:07Z</time>
      </trkpt>
      <trkpt lat="46.46107" lon="10.35444">
        <ele>1232.55</ele>
        <time>2012-08-03T07:51:08Z</time>
      </trkpt>
      <trkpt lat="46.46119" lon="10.35436">
        <ele>1233.51</ele>
        <time>2012-08-03T07:51:10Z</time>
      </trkpt>
      <trkpt lat="46.4612" lon="10.35435">
        <ele>1233.99</ele>
        <time>2012-08-03T07:51:16Z</time>
      </trkpt>
      <trkpt lat="46.46117" lon="10.35437">
        <ele>1233.51</ele>
        <time>2012-08-03T07:51:19Z</time>
      </trkpt>
      <trkpt lat="46.46113" lon="10.35442">
        <ele>1233.03</ele>
        <time>2012-08-03T07:51:24Z</time>
      </trkpt>
      <trkpt lat="46.46109" lon="10.35446">
        <ele>1232.07</ele>
        <time>2012-08-03T07:51:37Z</time>
      </trkpt>
      <trkpt lat="46.4611" lon="10.35444">
        <ele>1233.03</ele>
        <time>2012-08-03T07:51:38Z</time>
      </trkpt>
      <trkpt lat="46.46117" lon="10.3543">
        <ele>1234.47</ele>
        <time>2012-08-03T07:51:40Z</time>
      </trkpt>
      <trkpt lat="46.46124" lon="10.35422">
        <ele>1235.43</ele>
        <time>2012-08-03T07:51:41Z</time>
      </trkpt>
      <trkpt lat="46.46132" lon="10.35414">
        <ele>1236.87</ele>
        <time>2012-08-03T07:51:42Z</time>
      </trkpt>
      <trkpt lat="46.46141" lon="10.35407">
        <ele>1238.32</ele>
        <time>2012-08-03T07:51:43Z</time>
      </trkpt>
      <trkpt lat="46.46151" lon="10.35402">
        <ele>1240.24</ele>
        <time>2012-08-03T07:51:44Z</time>
      </trkpt>
      <trkpt lat="46.46163" lon="10.35399">
        <ele>1241.2</ele>
        <time>2012-08-03T07:51:45Z</time>
      </trkpt>
      <trkpt lat="46.46175" lon="10.35398">
        <ele>1242.64</ele>
        <time>2012-08-03T07:51:46Z</time>
      </trkpt>
      <trkpt lat="46.46188" lon="10.35398">
        <ele>1243.6</ele>
        <time>2012-08-03T07:51:47Z</time>
      </trkpt>
      <trkpt lat="46.46201" lon="10.35402">
        <ele>1244.56</ele>
        <time>2012-08-03T07:51:48Z</time>
      </trkpt>
      <trkpt lat="46.46215" lon="10.35405">
        <ele>1245.53</ele>
        <time>2012-08-03T07:51:49Z</time>
      </trkpt>
      <trkpt lat="46.46229" lon="10.35408">
        <ele>1248.41</ele>
        <time>2012-08-03T07:51:50Z</time>
      </trkpt>
      <trkpt lat="46.46243" lon="10.35408">
        <ele>1249.37</ele>
        <time>2012-08-03T07:51:51Z</time>
      </trkpt>
      <trkpt lat="46.46256" lon="10.35405">
        <ele>1250.81</ele>
        <time>2012-08-03T07:51:52Z</time>
      </trkpt>
      <trkpt lat="46.4627" lon="10.35399">
        <ele>1252.25</ele>
        <time>2012-08-03T07:51:53Z</time>
      </trkpt>
      <trkpt lat="46.46284" lon="10.35393">
        <ele>1253.7</ele>
        <time>2012-08-03T07:51:54Z</time>
      </trkpt>
      <trkpt lat="46.46323" lon="10.35374">
        <ele>1257.54</ele>
        <time>2012-08-03T07:51:57Z</time>
      </trkpt>
      <trkpt lat="46.46336" lon="10.35365">
        <ele>1258.5</ele>
        <time>2012-08-03T07:51:58Z</time>
      </trkpt>
      <trkpt lat="46.46346" lon="10.35355">
        <ele>1258.98</ele>
        <time>2012-08-03T07:51:59Z</time>
      </trkpt>
      <trkpt lat="46.46353" lon="10.35344">
        <ele>1259.46</ele>
        <time>2012-08-03T07:52:00Z</time>
      </trkpt>
      <trkpt lat="46.46359" lon="10.35335">
        <ele>1259.46</ele>
        <time>2012-08-03T07:52:01Z</time>
      </trkpt>
      <trkpt lat="46.46365" lon="10.3533">
        <ele>1259.94</ele>
        <time>2012-08-03T07:52:02Z</time>
      </trkpt>
      <trkpt lat="46.46372" lon="10.3533">
        <ele>1260.91</ele>
        <time>2012-08-03T07:52:03Z</time>
      </trkpt>
      <trkpt lat="46.46381" lon="10.35333">
        <ele>1261.87</ele>
        <time>2012-08-03T07:52:04Z</time>
      </trkpt>
      <trkpt lat="46.4639" lon="10.3534">
        <ele>1263.31</ele>
        <time>2012-08-03T07:52:05Z</time>
      </trkpt>
      <trkpt lat="46.46399" lon="10.35352">
        <ele>1264.27</ele>
        <time>2012-08-03T07:52:06Z</time>
      </trkpt>
      <trkpt lat="46.46406" lon="10.35366">
        <ele>1265.23</ele>
        <time>2012-08-03T07:52:07Z</time>
      </trkpt>
      <trkpt lat="46.46415" lon="10.35378">
        <ele>1266.19</ele>
        <time>2012-08-03T07:52:08Z</time>
      </trkpt>
      <trkpt lat="46.46425" lon="10.35387">
        <ele>1266.67</ele>
        <time>2012-08-03T07:52:09Z</time>
      </trkpt>
      <trkpt lat="46.46437" lon="10.35392">
        <ele>1268.6</ele>
        <time>2012-08-03T07:52:10Z</time>
      </trkpt>
      <trkpt lat="46.46461" lon="10.354">
        <ele>1270.52</ele>
        <time>2012-08-03T07:52:12Z</time>
      </trkpt>
      <trkpt lat="46.46471" lon="10.35409">
        <ele>1271</ele>
        <time>2012-08-03T07:52:13Z</time>
      </trkpt>
      <trkpt lat="46.46478" lon="10.35419">
        <ele>1271.96</ele>
        <time>2012-08-03T07:52:14Z</time>
      </trkpt>
      <trkpt lat="46.46484" lon="10.35428">
        <ele>1271.96</ele>
        <time>2012-08-03T07:52:15Z</time>
      </trkpt>
      <trkpt lat="46.4649" lon="10.35433">
        <ele>1272.44</ele>
        <time>2012-08-03T07:52:16Z</time>
      </trkpt>
      <trkpt lat="46.46497" lon="10.35433">
        <ele>1272.44</ele>
        <time>2012-08-03T07:52:17Z</time>
      </trkpt>
      <trkpt lat="46.46505" lon="10.35428">
        <ele>1272.44</ele>
        <time>2012-08-03T07:52:18Z</time>
      </trkpt>
      <trkpt lat="46.46512" lon="10.35421">
        <ele>1272.44</ele>
        <time>2012-08-03T07:52:19Z</time>
      </trkpt>
      <trkpt lat="46.46516" lon="10.35414">
        <ele>1272.92</ele>
        <time>2012-08-03T07:52:20Z</time>
      </trkpt>
      <trkpt lat="46.46504" lon="10.35398">
        <ele>1274.85</ele>
        <time>2012-08-03T07:52:22Z</time>
      </trkpt>
      <trkpt lat="46.4649" lon="10.35389">
        <ele>1276.77</ele>
        <time>2012-08-03T07:52:23Z</time>
      </trkpt>
      <trkpt lat="46.46462" lon="10.3537">
        <ele>1279.17</ele>
        <time>2012-08-03T07:52:25Z</time>
      </trkpt>
      <trkpt lat="46.46442" lon="10.35357">
        <ele>1279.17</ele>
        <time>2012-08-03T07:52:27Z</time>
      </trkpt>
      <trkpt lat="46.46435" lon="10.35351">
        <ele>1279.17</ele>
        <time>2012-08-03T07:52:28Z</time>
      </trkpt>
      <trkpt lat="46.46433" lon="10.35342">
        <ele>1279.17</ele>
        <time>2012-08-03T07:52:29Z</time>
      </trkpt>
      <trkpt lat="46.46433" lon="10.35334">
        <ele>1279.65</ele>
        <time>2012-08-03T07:52:30Z</time>
      </trkpt>
      <trkpt lat="46.46436" lon="10.35329">
        <ele>1280.13</ele>
        <time>2012-08-03T07:52:31Z</time>
      </trkpt>
      <trkpt lat="46.4644" lon="10.35329">
        <ele>1280.13</ele>
        <time>2012-08-03T07:52:32Z</time>
      </trkpt>
      <trkpt lat="46.46446" lon="10.35334">
        <ele>1281.09</ele>
        <time>2012-08-03T07:52:33Z</time>
      </trkpt>
      <trkpt lat="46.46453" lon="10.35342">
        <ele>1282.06</ele>
        <time>2012-08-03T07:52:34Z</time>
      </trkpt>
      <trkpt lat="46.46462" lon="10.3535">
        <ele>1283.02</ele>
        <time>2012-08-03T07:52:35Z</time>
      </trkpt>
      <trkpt lat="46.46472" lon="10.35356">
        <ele>1284.94</ele>
        <time>2012-08-03T07:52:36Z</time>
      </trkpt>
      <trkpt lat="46.46484" lon="10.3536">
        <ele>1286.38</ele>
        <time>2012-08-03T07:52:37Z</time>
      </trkpt>
      <trkpt lat="46.46494" lon="10.35366">
        <ele>1286.86</ele>
        <time>2012-08-03T07:52:38Z</time>
      </trkpt>
      <trkpt lat="46.46504" lon="10.35375">
        <ele>1288.3</ele>
        <time>2012-08-03T07:52:39Z</time>
      </trkpt>
      <trkpt lat="46.46513" lon="10.35384">
        <ele>1288.78</ele>
        <time>2012-08-03T07:52:40Z</time>
      </trkpt>
      <trkpt lat="46.46523" lon="10.3539">
        <ele>1290.23</ele>
        <time>2012-08-03T07:52:41Z</time>
      </trkpt>
      <trkpt lat="46.46532" lon="10.35392">
        <ele>1290.71</ele>
        <time>2012-08-03T07:52:42Z</time>
      </trkpt>
      <trkpt lat="46.46539" lon="10.35392">
        <ele>1291.19</ele>
        <time>2012-08-03T07:52:43Z</time>
      </trkpt>
      <trkpt lat="46.46545" lon="10.35392">
        <ele>1290.71</ele>
        <time>2012-08-03T07:52:44Z</time>
      </trkpt>
      <trkpt lat="46.4655" lon="10.3539">
        <ele>1291.19</ele>
        <time>2012-08-03T07:52:45Z</time>
      </trkpt>
      <trkpt lat="46.46554" lon="10.35389">
        <ele>1291.67</ele>
        <time>2012-08-03T07:52:46Z</time>
      </trkpt>
      <trkpt lat="46.46558" lon="10.35387">
        <ele>1292.15</ele>
        <time>2012-08-03T07:52:47Z</time>
      </trkpt>
      <trkpt lat="46.46565" lon="10.35388">
        <ele>1292.63</ele>
        <time>2012-08-03T07:52:49Z</time>
      </trkpt>
      <trkpt lat="46.46567" lon="10.35389">
        <ele>1292.15</ele>
        <time>2012-08-03T07:52:50Z</time>
      </trkpt>
      <trkpt lat="46.46569" lon="10.3539">
        <ele>1292.63</ele>
        <time>2012-08-03T07:52:51Z</time>
      </trkpt>
      <trkpt lat="46.4657" lon="10.35389">
        <ele>1292.63</ele>
        <time>2012-08-03T07:53:04Z</time>
      </trkpt>
      <trkpt lat="46.46582" lon="10.3539">
        <ele>1295.03</ele>
        <time>2012-08-03T07:53:31Z</time>
      </trkpt>
      <trkpt lat="46.46588" lon="10.35391">
        <ele>1295.03</ele>
        <time>2012-08-03T07:53:32Z</time>
      </trkpt>
      <trkpt lat="46.46601" lon="10.35395">
        <ele>1296.48</ele>
        <time>2012-08-03T07:53:34Z</time>
      </trkpt>
      <trkpt lat="46.46625" lon="10.354">
        <ele>1299.84</ele>
        <time>2012-08-03T07:53:37Z</time>
      </trkpt>
      <trkpt lat="46.46652" lon="10.35404">
        <ele>1302.72</ele>
        <time>2012-08-03T07:53:40Z</time>
      </trkpt>
      <trkpt lat="46.46693" lon="10.35413">
        <ele>1306.57</ele>
        <time>2012-08-03T07:53:44Z</time>
      </trkpt>
      <trkpt lat="46.46731" lon="10.35421">
        <ele>1310.9</ele>
        <time>2012-08-03T07:53:48Z</time>
      </trkpt>
      <trkpt lat="46.4676" lon="10.35428">
        <ele>1314.26</ele>
        <time>2012-08-03T07:53:51Z</time>
      </trkpt>
      <trkpt lat="46.46802" lon="10.35439">
        <ele>1317.62</ele>
        <time>2012-08-03T07:53:55Z</time>
      </trkpt>
      <trkpt lat="46.46823" lon="10.35444">
        <ele>1320.99</ele>
        <time>2012-08-03T07:53:57Z</time>
      </trkpt>
      <trkpt lat="46.46855" lon="10.35454">
        <ele>1324.35</ele>
        <time>2012-08-03T07:54:00Z</time>
      </trkpt>
      <trkpt lat="46.46877" lon="10.35463">
        <ele>1327.24</ele>
        <time>2012-08-03T07:54:02Z</time>
      </trkpt>
      <trkpt lat="46.46911" lon="10.35471">
        <ele>1331.08</ele>
        <time>2012-08-03T07:54:05Z</time>
      </trkpt>
      <trkpt lat="46.46957" lon="10.35478">
        <ele>1333.97</ele>
        <time>2012-08-03T07:54:09Z</time>
      </trkpt>
      <trkpt lat="46.46968" lon="10.35482">
        <ele>1334.93</ele>
        <time>2012-08-03T07:54:10Z</time>
      </trkpt>
      <trkpt lat="46.47004" lon="10.35498">
        <ele>1337.81</ele>
        <time>2012-08-03T07:54:13Z</time>
      </trkpt>
      <trkpt lat="46.47043" lon="10.35512">
        <ele>1341.66</ele>
        <time>2012-08-03T07:54:16Z</time>
      </trkpt>
      <trkpt lat="46.47084" lon="10.35518">
        <ele>1345.5</ele>
        <time>2012-08-03T07:54:19Z</time>
      </trkpt>
      <trkpt lat="46.47111" lon="10.35524">
        <ele>1347.91</ele>
        <time>2012-08-03T07:54:21Z</time>
      </trkpt>
      <trkpt lat="46.47139" lon="10.35534">
        <ele>1351.75</ele>
        <time>2012-08-03T07:54:23Z</time>
      </trkpt>
      <trkpt lat="46.47166" lon="10.35541">
        <ele>1354.63</ele>
        <time>2012-08-03T07:54:25Z</time>
      </trkpt>
      <trkpt lat="46.4718" lon="10.35541">
        <ele>1356.56</ele>
        <time>2012-08-03T07:54:26Z</time>
      </trkpt>
      <trkpt lat="46.47222" lon="10.35537">
        <ele>1360.4</ele>
        <time>2012-08-03T07:54:29Z</time>
      </trkpt>
      <trkpt lat="46.47255" lon="10.35534">
        <ele>1363.29</ele>
        <time>2012-08-03T07:54:32Z</time>
      </trkpt>
      <trkpt lat="46.47262" lon="10.35534">
        <ele>1363.77</ele>
        <time>2012-08-03T07:54:33Z</time>
      </trkpt>
      <trkpt lat="46.47268" lon="10.35532">
        <ele>1363.77</ele>
        <time>2012-08-03T07:54:34Z</time>
      </trkpt>
      <trkpt lat="46.47273" lon="10.35528">
        <ele>1363.77</ele>
        <time>2012-08-03T07:54:35Z</time>
      </trkpt>
      <trkpt lat="46.47275" lon="10.35524">
        <ele>1364.25</ele>
        <time>2012-08-03T07:54:36Z</time>
      </trkpt>
      <trkpt lat="46.47273" lon="10.3552">
        <ele>1364.73</ele>
        <time>2012-08-03T07:54:37Z</time>
      </trkpt>
      <trkpt lat="46.47266" lon="10.35517">
        <ele>1365.21</ele>
        <time>2012-08-03T07:54:38Z</time>
      </trkpt>
      <trkpt lat="46.47256" lon="10.35516">
        <ele>1366.17</ele>
        <time>2012-08-03T07:54:39Z</time>
      </trkpt>
      <trkpt lat="46.47246" lon="10.35515">
        <ele>1367.13</ele>
        <time>2012-08-03T07:54:40Z</time>
      </trkpt>
      <trkpt lat="46.47237" lon="10.35514">
        <ele>1368.09</ele>
        <time>2012-08-03T07:54:41Z</time>
      </trkpt>
      <trkpt lat="46.47231" lon="10.35511">
        <ele>1368.57</ele>
        <time>2012-08-03T07:54:42Z</time>
      </trkpt>
      <trkpt lat="46.47231" lon="10.35495">
        <ele>1369.05</ele>
        <time>2012-08-03T07:54:45Z</time>
      </trkpt>
      <trkpt lat="46.47236" lon="10.35493">
        <ele>1370.02</ele>
        <time>2012-08-03T07:54:46Z</time>
      </trkpt>
      <trkpt lat="46.47244" lon="10.35492">
        <ele>1371.46</ele>
        <time>2012-08-03T07:54:47Z</time>
      </trkpt>
      <trkpt lat="46.47263" lon="10.3549">
        <ele>1374.82</ele>
        <time>2012-08-03T07:54:49Z</time>
      </trkpt>
      <trkpt lat="46.47297" lon="10.35485">
        <ele>1378.19</ele>
        <time>2012-08-03T07:54:52Z</time>
      </trkpt>
      <trkpt lat="46.4731" lon="10.35482">
        <ele>1379.15</ele>
        <time>2012-08-03T07:54:53Z</time>
      </trkpt>
      <trkpt lat="46.47321" lon="10.35478">
        <ele>1380.11</ele>
        <time>2012-08-03T07:54:54Z</time>
      </trkpt>
      <trkpt lat="46.47333" lon="10.35472">
        <ele>1381.07</ele>
        <time>2012-08-03T07:54:55Z</time>
      </trkpt>
      <trkpt lat="46.47368" lon="10.35453">
        <ele>1382.51</ele>
        <time>2012-08-03T07:54:58Z</time>
      </trkpt>
      <trkpt lat="46.47398" lon="10.35438">
        <ele>1383.96</ele>
        <time>2012-08-03T07:55:01Z</time>
      </trkpt>
      <trkpt lat="46.47406" lon="10.3543">
        <ele>1383.96</ele>
        <time>2012-08-03T07:55:02Z</time>
      </trkpt>
      <trkpt lat="46.47414" lon="10.35421">
        <ele>1384.92</ele>
        <time>2012-08-03T07:55:03Z</time>
      </trkpt>
      <trkpt lat="46.47423" lon="10.35413">
        <ele>1385.88</ele>
        <time>2012-08-03T07:55:04Z</time>
      </trkpt>
      <trkpt lat="46.47432" lon="10.35408">
        <ele>1386.36</ele>
        <time>2012-08-03T07:55:05Z</time>
      </trkpt>
      <trkpt lat="46.47443" lon="10.35405">
        <ele>1387.32</ele>
        <time>2012-08-03T07:55:06Z</time>
      </trkpt>
      <trkpt lat="46.47453" lon="10.35405">
        <ele>1389.24</ele>
        <time>2012-08-03T07:55:07Z</time>
      </trkpt>
      <trkpt lat="46.47463" lon="10.35404">
        <ele>1390.2</ele>
        <time>2012-08-03T07:55:08Z</time>
      </trkpt>
      <trkpt lat="46.47472" lon="10.35398">
        <ele>1391.17</ele>
        <time>2012-08-03T07:55:09Z</time>
      </trkpt>
      <trkpt lat="46.47481" lon="10.3539">
        <ele>1392.13</ele>
        <time>2012-08-03T07:55:10Z</time>
      </trkpt>
      <trkpt lat="46.47488" lon="10.3538">
        <ele>1394.05</ele>
        <time>2012-08-03T07:55:11Z</time>
      </trkpt>
      <trkpt lat="46.47495" lon="10.35367">
        <ele>1395.49</ele>
        <time>2012-08-03T07:55:12Z</time>
      </trkpt>
      <trkpt lat="46.47518" lon="10.3533">
        <ele>1399.82</ele>
        <time>2012-08-03T07:55:15Z</time>
      </trkpt>
      <trkpt lat="46.47545" lon="10.35293">
        <ele>1403.66</ele>
        <time>2012-08-03T07:55:18Z</time>
      </trkpt>
      <trkpt lat="46.47564" lon="10.35266">
        <ele>1407.51</ele>
        <time>2012-08-03T07:55:20Z</time>
      </trkpt>
      <trkpt lat="46.47591" lon="10.35228">
        <ele>1412.31</ele>
        <time>2012-08-03T07:55:23Z</time>
      </trkpt>
      <trkpt lat="46.47607" lon="10.352">
        <ele>1414.72</ele>
        <time>2012-08-03T07:55:25Z</time>
      </trkpt>
      <trkpt lat="46.47613" lon="10.35184">
        <ele>1415.68</ele>
        <time>2012-08-03T07:55:26Z</time>
      </trkpt>
      <trkpt lat="46.47624" lon="10.3515">
        <ele>1417.12</ele>
        <time>2012-08-03T07:55:28Z</time>
      </trkpt>
      <trkpt lat="46.4763" lon="10.35135">
        <ele>1418.08</ele>
        <time>2012-08-03T07:55:29Z</time>
      </trkpt>
      <trkpt lat="46.47637" lon="10.35121">
        <ele>1418.08</ele>
        <time>2012-08-03T07:55:30Z</time>
      </trkpt>
      <trkpt lat="46.47646" lon="10.3511">
        <ele>1419.04</ele>
        <time>2012-08-03T07:55:31Z</time>
      </trkpt>
      <trkpt lat="46.47656" lon="10.35099">
        <ele>1419.52</ele>
        <time>2012-08-03T07:55:32Z</time>
      </trkpt>
      <trkpt lat="46.47668" lon="10.35091">
        <ele>1419.52</ele>
        <time>2012-08-03T07:55:33Z</time>
      </trkpt>
      <trkpt lat="46.47679" lon="10.35083">
        <ele>1418.56</ele>
        <time>2012-08-03T07:55:34Z</time>
      </trkpt>
      <trkpt lat="46.4769" lon="10.35074">
        <ele>1418.56</ele>
        <time>2012-08-03T07:55:35Z</time>
      </trkpt>
      <trkpt lat="46.47699" lon="10.35063">
        <ele>1418.08</ele>
        <time>2012-08-03T07:55:36Z</time>
      </trkpt>
      <trkpt lat="46.47708" lon="10.35049">
        <ele>1417.6</ele>
        <time>2012-08-03T07:55:37Z</time>
      </trkpt>
      <trkpt lat="46.47715" lon="10.35033">
        <ele>1417.6</ele>
        <time>2012-08-03T07:55:38Z</time>
      </trkpt>
      <trkpt lat="46.47719" lon="10.35016">
        <ele>1417.12</ele>
        <time>2012-08-03T07:55:39Z</time>
      </trkpt>
      <trkpt lat="46.47721" lon="10.34997">
        <ele>1416.64</ele>
        <time>2012-08-03T07:55:40Z</time>
      </trkpt>
      <trkpt lat="46.47722" lon="10.34978">
        <ele>1417.12</ele>
        <time>2012-08-03T07:55:41Z</time>
      </trkpt>
      <trkpt lat="46.47721" lon="10.3496">
        <ele>1417.12</ele>
        <time>2012-08-03T07:55:42Z</time>
      </trkpt>
      <trkpt lat="46.47717" lon="10.34942">
        <ele>1416.64</ele>
        <time>2012-08-03T07:55:43Z</time>
      </trkpt>
      <trkpt lat="46.47711" lon="10.34924">
        <ele>1415.68</ele>
        <time>2012-08-03T07:55:44Z</time>
      </trkpt>
      <trkpt lat="46.47703" lon="10.34908">
        <ele>1415.2</ele>
        <time>2012-08-03T07:55:45Z</time>
      </trkpt>
      <trkpt lat="46.47695" lon="10.34894">
        <ele>1413.76</ele>
        <time>2012-08-03T07:55:46Z</time>
      </trkpt>
      <trkpt lat="46.47687" lon="10.34882">
        <ele>1411.35</ele>
        <time>2012-08-03T07:55:47Z</time>
      </trkpt>
      <trkpt lat="46.47681" lon="10.34869">
        <ele>1410.87</ele>
        <time>2012-08-03T07:55:48Z</time>
      </trkpt>
      <trkpt lat="46.47678" lon="10.34855">
        <ele>1408.95</ele>
        <time>2012-08-03T07:55:49Z</time>
      </trkpt>
      <trkpt lat="46.47679" lon="10.3484">
        <ele>1408.47</ele>
        <time>2012-08-03T07:55:50Z</time>
      </trkpt>
      <trkpt lat="46.47684" lon="10.34826">
        <ele>1407.99</ele>
        <time>2012-08-03T07:55:51Z</time>
      </trkpt>
      <trkpt lat="46.47692" lon="10.34811">
        <ele>1407.51</ele>
        <time>2012-08-03T07:55:52Z</time>
      </trkpt>
      <trkpt lat="46.477" lon="10.34795">
        <ele>1406.55</ele>
        <time>2012-08-03T07:55:53Z</time>
      </trkpt>
      <trkpt lat="46.47723" lon="10.34747">
        <ele>1402.7</ele>
        <time>2012-08-03T07:55:56Z</time>
      </trkpt>
      <trkpt lat="46.47729" lon="10.34729">
        <ele>1400.3</ele>
        <time>2012-08-03T07:55:57Z</time>
      </trkpt>
      <trkpt lat="46.47732" lon="10.34709">
        <ele>1398.86</ele>
        <time>2012-08-03T07:55:58Z</time>
      </trkpt>
      <trkpt lat="46.47746" lon="10.34652">
        <ele>1393.57</ele>
        <time>2012-08-03T07:56:01Z</time>
      </trkpt>
      <trkpt lat="46.47753" lon="10.34636">
        <ele>1392.61</ele>
        <time>2012-08-03T07:56:02Z</time>
      </trkpt>
      <trkpt lat="46.47756" lon="10.34618">
        <ele>1391.17</ele>
        <time>2012-08-03T07:56:03Z</time>
      </trkpt>
      <trkpt lat="46.47764" lon="10.34607">
        <ele>1390.68</ele>
        <time>2012-08-03T07:56:04Z</time>
      </trkpt>
      <trkpt lat="46.47773" lon="10.34599">
        <ele>1390.2</ele>
        <time>2012-08-03T07:56:05Z</time>
      </trkpt>
      <trkpt lat="46.47784" lon="10.34597">
        <ele>1390.2</ele>
        <time>2012-08-03T07:56:06Z</time>
      </trkpt>
      <trkpt lat="46.47796" lon="10.346">
        <ele>1390.2</ele>
        <time>2012-08-03T07:56:07Z</time>
      </trkpt>
      <trkpt lat="46.47809" lon="10.34603">
        <ele>1390.68</ele>
        <time>2012-08-03T07:56:08Z</time>
      </trkpt>
      <trkpt lat="46.47842" lon="10.34608">
        <ele>1388.76</ele>
        <time>2012-08-03T07:56:11Z</time>
      </trkpt>
      <trkpt lat="46.47861" lon="10.34604">
        <ele>1388.76</ele>
        <time>2012-08-03T07:56:13Z</time>
      </trkpt>
      <trkpt lat="46.47869" lon="10.34598">
        <ele>1388.76</ele>
        <time>2012-08-03T07:56:14Z</time>
      </trkpt>
      <trkpt lat="46.47885" lon="10.34579">
        <ele>1386.84</ele>
        <time>2012-08-03T07:56:16Z</time>
      </trkpt>
      <trkpt lat="46.47891" lon="10.34565">
        <ele>1386.84</ele>
        <time>2012-08-03T07:56:17Z</time>
      </trkpt>
      <trkpt lat="46.47899" lon="10.34555">
        <ele>1385.88</ele>
        <time>2012-08-03T07:56:18Z</time>
      </trkpt>
      <trkpt lat="46.47933" lon="10.34511">
        <ele>1382.51</ele>
        <time>2012-08-03T07:56:23Z</time>
      </trkpt>
      <trkpt lat="46.47934" lon="10.34494">
        <ele>1381.55</ele>
        <time>2012-08-03T07:56:24Z</time>
      </trkpt>
      <trkpt lat="46.47932" lon="10.34473">
        <ele>1381.07</ele>
        <time>2012-08-03T07:56:25Z</time>
      </trkpt>
      <trkpt lat="46.47929" lon="10.34451">
        <ele>1379.63</ele>
        <time>2012-08-03T07:56:26Z</time>
      </trkpt>
      <trkpt lat="46.47929" lon="10.34429">
        <ele>1378.19</ele>
        <time>2012-08-03T07:56:27Z</time>
      </trkpt>
      <trkpt lat="46.47931" lon="10.34407">
        <ele>1377.71</ele>
        <time>2012-08-03T07:56:28Z</time>
      </trkpt>
      <trkpt lat="46.47933" lon="10.34336">
        <ele>1373.38</ele>
        <time>2012-08-03T07:56:31Z</time>
      </trkpt>
      <trkpt lat="46.47933" lon="10.34312">
        <ele>1371.94</ele>
        <time>2012-08-03T07:56:32Z</time>
      </trkpt>
      <trkpt lat="46.47925" lon="10.34258">
        <ele>1367.61</ele>
        <time>2012-08-03T07:56:34Z</time>
      </trkpt>
      <trkpt lat="46.47921" lon="10.34183">
        <ele>1363.77</ele>
        <time>2012-08-03T07:56:37Z</time>
      </trkpt>
      <trkpt lat="46.4792" lon="10.34114">
        <ele>1359.92</ele>
        <time>2012-08-03T07:56:40Z</time>
      </trkpt>
      <trkpt lat="46.4792" lon="10.34049">
        <ele>1356.56</ele>
        <time>2012-08-03T07:56:43Z</time>
      </trkpt>
      <trkpt lat="46.47919" lon="10.33989">
        <ele>1353.19</ele>
        <time>2012-08-03T07:56:46Z</time>
      </trkpt>
      <trkpt lat="46.47925" lon="10.33905">
        <ele>1350.31</ele>
        <time>2012-08-03T07:56:50Z</time>
      </trkpt>
      <trkpt lat="46.47946" lon="10.33791">
        <ele>1346.94</ele>
        <time>2012-08-03T07:56:55Z</time>
      </trkpt>
      <trkpt lat="46.47964" lon="10.33702">
        <ele>1342.62</ele>
        <time>2012-08-03T07:56:59Z</time>
      </trkpt>
      <trkpt lat="46.47978" lon="10.33631">
        <ele>1338.77</ele>
        <time>2012-08-03T07:57:03Z</time>
      </trkpt>
      <trkpt lat="46.47983" lon="10.3362">
        <ele>1338.29</ele>
        <time>2012-08-03T07:57:04Z</time>
      </trkpt>
      <trkpt lat="46.4799" lon="10.3361">
        <ele>1337.33</ele>
        <time>2012-08-03T07:57:05Z</time>
      </trkpt>
      <trkpt lat="46.48" lon="10.33602">
        <ele>1337.81</ele>
        <time>2012-08-03T07:57:06Z</time>
      </trkpt>
      <trkpt lat="46.48009" lon="10.33592">
        <ele>1336.85</ele>
        <time>2012-08-03T07:57:07Z</time>
      </trkpt>
      <trkpt lat="46.48019" lon="10.33579">
        <ele>1336.37</ele>
        <time>2012-08-03T07:57:08Z</time>
      </trkpt>
      <trkpt lat="46.48028" lon="10.33563">
        <ele>1336.85</ele>
        <time>2012-08-03T07:57:09Z</time>
      </trkpt>
      <trkpt lat="46.48036" lon="10.33546">
        <ele>1334.93</ele>
        <time>2012-08-03T07:57:10Z</time>
      </trkpt>
      <trkpt lat="46.48044" lon="10.33528">
        <ele>1333.01</ele>
        <time>2012-08-03T07:57:11Z</time>
      </trkpt>
      <trkpt lat="46.4805" lon="10.3351">
        <ele>1331.56</ele>
        <time>2012-08-03T07:57:12Z</time>
      </trkpt>
      <trkpt lat="46.48055" lon="10.33491">
        <ele>1330.6</ele>
        <time>2012-08-03T07:57:13Z</time>
      </trkpt>
      <trkpt lat="46.48059" lon="10.33472">
        <ele>1329.16</ele>
        <time>2012-08-03T07:57:14Z</time>
      </trkpt>
      <trkpt lat="46.48061" lon="10.33451">
        <ele>1328.2</ele>
        <time>2012-08-03T07:57:15Z</time>
      </trkpt>
      <trkpt lat="46.48063" lon="10.33431">
        <ele>1326.76</ele>
        <time>2012-08-03T07:57:16Z</time>
      </trkpt>
      <trkpt lat="46.48065" lon="10.33413">
        <ele>1325.31</ele>
        <time>2012-08-03T07:57:17Z</time>
      </trkpt>
      <trkpt lat="46.48069" lon="10.33398">
        <ele>1324.35</ele>
        <time>2012-08-03T07:57:18Z</time>
      </trkpt>
      <trkpt lat="46.48075" lon="10.33386">
        <ele>1322.91</ele>
        <time>2012-08-03T07:57:19Z</time>
      </trkpt>
      <trkpt lat="46.48084" lon="10.33376">
        <ele>1322.43</ele>
        <time>2012-08-03T07:57:20Z</time>
      </trkpt>
      <trkpt lat="46.48095" lon="10.33368">
        <ele>1322.43</ele>
        <time>2012-08-03T07:57:21Z</time>
      </trkpt>
      <trkpt lat="46.48107" lon="10.33361">
        <ele>1321.95</ele>
        <time>2012-08-03T07:57:22Z</time>
      </trkpt>
      <trkpt lat="46.48119" lon="10.33355">
        <ele>1320.03</ele>
        <time>2012-08-03T07:57:23Z</time>
      </trkpt>
      <trkpt lat="46.48131" lon="10.33351">
        <ele>1319.55</ele>
        <time>2012-08-03T07:57:24Z</time>
      </trkpt>
      <trkpt lat="46.48144" lon="10.33349">
        <ele>1318.1</ele>
        <time>2012-08-03T07:57:25Z</time>
      </trkpt>
      <trkpt lat="46.48155" lon="10.33345">
        <ele>1316.66</ele>
        <time>2012-08-03T07:57:26Z</time>
      </trkpt>
      <trkpt lat="46.48165" lon="10.3334">
        <ele>1315.7</ele>
        <time>2012-08-03T07:57:27Z</time>
      </trkpt>
      <trkpt lat="46.48175" lon="10.33332">
        <ele>1315.22</ele>
        <time>2012-08-03T07:57:28Z</time>
      </trkpt>
      <trkpt lat="46.48184" lon="10.33322">
        <ele>1315.22</ele>
        <time>2012-08-03T07:57:29Z</time>
      </trkpt>
      <trkpt lat="46.48193" lon="10.33311">
        <ele>1314.74</ele>
        <time>2012-08-03T07:57:30Z</time>
      </trkpt>
      <trkpt lat="46.48202" lon="10.33296">
        <ele>1314.26</ele>
        <time>2012-08-03T07:57:31Z</time>
      </trkpt>
      <trkpt lat="46.48208" lon="10.33277">
        <ele>1313.3</ele>
        <time>2012-08-03T07:57:32Z</time>
      </trkpt>
      <trkpt lat="46.48213" lon="10.33257">
        <ele>1312.34</ele>
        <time>2012-08-03T07:57:33Z</time>
      </trkpt>
      <trkpt lat="46.48218" lon="10.33237">
        <ele>1311.86</ele>
        <time>2012-08-03T07:57:34Z</time>
      </trkpt>
      <trkpt lat="46.48223" lon="10.33218">
        <ele>1311.38</ele>
        <time>2012-08-03T07:57:35Z</time>
      </trkpt>
      <trkpt lat="46.48244" lon="10.33111">
        <ele>1309.45</ele>
        <time>2012-08-03T07:57:41Z</time>
      </trkpt>
      <trkpt lat="46.48245" lon="10.33096">
        <ele>1309.93</ele>
        <time>2012-08-03T07:57:42Z</time>
      </trkpt>
      <trkpt lat="46.48244" lon="10.33083">
        <ele>1309.93</ele>
        <time>2012-08-03T07:57:43Z</time>
      </trkpt>
      <trkpt lat="46.48242" lon="10.3307">
        <ele>1309.45</ele>
        <time>2012-08-03T07:57:44Z</time>
      </trkpt>
      <trkpt lat="46.48242" lon="10.3306">
        <ele>1308.97</ele>
        <time>2012-08-03T07:57:45Z</time>
      </trkpt>
      <trkpt lat="46.48244" lon="10.33051">
        <ele>1308.97</ele>
        <time>2012-08-03T07:57:46Z</time>
      </trkpt>
      <trkpt lat="46.48249" lon="10.33047">
        <ele>1308.49</ele>
        <time>2012-08-03T07:57:47Z</time>
      </trkpt>
      <trkpt lat="46.48253" lon="10.33045">
        <ele>1308.49</ele>
        <time>2012-08-03T07:57:48Z</time>
      </trkpt>
      <trkpt lat="46.48256" lon="10.33045">
        <ele>1308.49</ele>
        <time>2012-08-03T07:57:49Z</time>
      </trkpt>
      <trkpt lat="46.4826" lon="10.33044">
        <ele>1308.49</ele>
        <time>2012-08-03T07:57:59Z</time>
      </trkpt>
      <trkpt lat="46.4826" lon="10.33043">
        <ele>1308.49</ele>
        <time>2012-08-03T07:58:03Z</time>
      </trkpt>
      <trkpt lat="46.48268" lon="10.33036">
        <ele>1308.97</ele>
        <time>2012-08-03T07:58:05Z</time>
      </trkpt>
      <trkpt lat="46.48272" lon="10.33029">
        <ele>1309.45</ele>
        <time>2012-08-03T07:58:06Z</time>
      </trkpt>
      <trkpt lat="46.48276" lon="10.33018">
        <ele>1309.93</ele>
        <time>2012-08-03T07:58:07Z</time>
      </trkpt>
      <trkpt lat="46.48301" lon="10.3293">
        <ele>1312.34</ele>
        <time>2012-08-03T07:58:12Z</time>
      </trkpt>
      <trkpt lat="46.48309" lon="10.32912">
        <ele>1312.34</ele>
        <time>2012-08-03T07:58:13Z</time>
      </trkpt>
      <trkpt lat="46.48374" lon="10.32796">
        <ele>1310.41</ele>
        <time>2012-08-03T07:58:20Z</time>
      </trkpt>
      <trkpt lat="46.48433" lon="10.32683">
        <ele>1308.97</ele>
        <time>2012-08-03T07:58:27Z</time>
      </trkpt>
      <trkpt lat="46.48439" lon="10.32666">
        <ele>1308.97</ele>
        <time>2012-08-03T07:58:28Z</time>
      </trkpt>
      <trkpt lat="46.48477" lon="10.32509">
        <ele>1309.93</ele>
        <time>2012-08-03T07:58:38Z</time>
      </trkpt>
      <trkpt lat="46.48515" lon="10.323">
        <ele>1311.86</ele>
        <time>2012-08-03T07:58:52Z</time>
      </trkpt>
      <trkpt lat="46.48538" lon="10.32146">
        <ele>1313.3</ele>
        <time>2012-08-03T07:59:04Z</time>
      </trkpt>
      <trkpt lat="46.48556" lon="10.32026">
        <ele>1314.26</ele>
        <time>2012-08-03T07:59:16Z</time>
      </trkpt>
      <trkpt lat="46.48571" lon="10.31911">
        <ele>1316.66</ele>
        <time>2012-08-03T07:59:26Z</time>
      </trkpt>
      <trkpt lat="46.48597" lon="10.31713">
        <ele>1318.1</ele>
        <time>2012-08-03T07:59:40Z</time>
      </trkpt>
      <trkpt lat="46.48631" lon="10.31476">
        <ele>1321.47</ele>
        <time>2012-08-03T07:59:55Z</time>
      </trkpt>
      <trkpt lat="46.48631" lon="10.31462">
        <ele>1321.95</ele>
        <time>2012-08-03T07:59:56Z</time>
      </trkpt>
      <trkpt lat="46.48629" lon="10.31448">
        <ele>1321.95</ele>
        <time>2012-08-03T07:59:57Z</time>
      </trkpt>
      <trkpt lat="46.48623" lon="10.31435">
        <ele>1322.91</ele>
        <time>2012-08-03T07:59:58Z</time>
      </trkpt>
      <trkpt lat="46.48616" lon="10.31424">
        <ele>1322.43</ele>
        <time>2012-08-03T07:59:59Z</time>
      </trkpt>
      <trkpt lat="46.48608" lon="10.31414">
        <ele>1322.43</ele>
        <time>2012-08-03T08:00:00Z</time>
      </trkpt>
      <trkpt lat="46.48514" lon="10.31311">
        <ele>1321.47</ele>
        <time>2012-08-03T08:00:12Z</time>
      </trkpt>
      <trkpt lat="46.48471" lon="10.31257">
        <ele>1322.43</ele>
        <time>2012-08-03T08:00:18Z</time>
      </trkpt>
      <trkpt lat="46.48466" lon="10.31244">
        <ele>1322.43</ele>
        <time>2012-08-03T08:00:19Z</time>
      </trkpt>
      <trkpt lat="46.48464" lon="10.3123">
        <ele>1322.43</ele>
        <time>2012-08-03T08:00:20Z</time>
      </trkpt>
      <trkpt lat="46.48464" lon="10.31215">
        <ele>1322.91</ele>
        <time>2012-08-03T08:00:21Z</time>
      </trkpt>
      <trkpt lat="46.48465" lon="10.312">
        <ele>1322.91</ele>
        <time>2012-08-03T08:00:22Z</time>
      </trkpt>
      <trkpt lat="46.48467" lon="10.31187">
        <ele>1322.91</ele>
        <time>2012-08-03T08:00:23Z</time>
      </trkpt>
      <trkpt lat="46.4847" lon="10.31175">
        <ele>1322.91</ele>
        <time>2012-08-03T08:00:24Z</time>
      </trkpt>
      <trkpt lat="46.48474" lon="10.31162">
        <ele>1323.39</ele>
        <time>2012-08-03T08:00:25Z</time>
      </trkpt>
      <trkpt lat="46.48508" lon="10.31061">
        <ele>1324.83</ele>
        <time>2012-08-03T08:00:34Z</time>
      </trkpt>
      <trkpt lat="46.4856" lon="10.30953">
        <ele>1327.24</ele>
        <time>2012-08-03T08:00:44Z</time>
      </trkpt>
      <trkpt lat="46.48585" lon="10.30809">
        <ele>1329.16</ele>
        <time>2012-08-03T08:00:54Z</time>
      </trkpt>
      <trkpt lat="46.48618" lon="10.3061">
        <ele>1330.12</ele>
        <time>2012-08-03T08:01:06Z</time>
      </trkpt>
      <trkpt lat="46.48622" lon="10.30596">
        <ele>1331.08</ele>
        <time>2012-08-03T08:01:07Z</time>
      </trkpt>
      <trkpt lat="46.4868" lon="10.30441">
        <ele>1333.49</ele>
        <time>2012-08-03T08:01:18Z</time>
      </trkpt>
      <trkpt lat="46.48716" lon="10.30256">
        <ele>1335.41</ele>
        <time>2012-08-03T08:01:30Z</time>
      </trkpt>
      <trkpt lat="46.48746" lon="10.30127">
        <ele>1336.85</ele>
        <time>2012-08-03T08:01:40Z</time>
      </trkpt>
      <trkpt lat="46.48774" lon="10.30021">
        <ele>1338.29</ele>
        <time>2012-08-03T08:01:48Z</time>
      </trkpt>
      <trkpt lat="46.48775" lon="10.30008">
        <ele>1338.77</ele>
        <time>2012-08-03T08:01:49Z</time>
      </trkpt>
      <trkpt lat="46.48776" lon="10.29994">
        <ele>1338.77</ele>
        <time>2012-08-03T08:01:50Z</time>
      </trkpt>
      <trkpt lat="46.4877" lon="10.29914">
        <ele>1339.25</ele>
        <time>2012-08-03T08:01:58Z</time>
      </trkpt>
      <trkpt lat="46.48764" lon="10.29805">
        <ele>1341.18</ele>
        <time>2012-08-03T08:02:06Z</time>
      </trkpt>
      <trkpt lat="46.4877" lon="10.29746">
        <ele>1341.66</ele>
        <time>2012-08-03T08:02:10Z</time>
      </trkpt>
      <trkpt lat="46.48774" lon="10.29733">
        <ele>1342.14</ele>
        <time>2012-08-03T08:02:11Z</time>
      </trkpt>
      <trkpt lat="46.48781" lon="10.2972">
        <ele>1342.14</ele>
        <time>2012-08-03T08:02:12Z</time>
      </trkpt>
      <trkpt lat="46.48788" lon="10.29708">
        <ele>1343.1</ele>
        <time>2012-08-03T08:02:13Z</time>
      </trkpt>
      <trkpt lat="46.48796" lon="10.29699">
        <ele>1342.62</ele>
        <time>2012-08-03T08:02:14Z</time>
      </trkpt>
      <trkpt lat="46.48869" lon="10.29609">
        <ele>1343.58</ele>
        <time>2012-08-03T08:02:25Z</time>
      </trkpt>
      <trkpt lat="46.48875" lon="10.29603">
        <ele>1343.1</ele>
        <time>2012-08-03T08:02:26Z</time>
      </trkpt>
      <trkpt lat="46.4888" lon="10.29599">
        <ele>1343.58</ele>
        <time>2012-08-03T08:02:27Z</time>
      </trkpt>
      <trkpt lat="46.48888" lon="10.29593">
        <ele>1343.58</ele>
        <time>2012-08-03T08:02:29Z</time>
      </trkpt>
      <trkpt lat="46.48892" lon="10.29592">
        <ele>1343.58</ele>
        <time>2012-08-03T08:02:30Z</time>
      </trkpt>
      <trkpt lat="46.48903" lon="10.29587">
        <ele>1344.06</ele>
        <time>2012-08-03T08:02:33Z</time>
      </trkpt>
      <trkpt lat="46.48907" lon="10.29582">
        <ele>1343.58</ele>
        <time>2012-08-03T08:02:34Z</time>
      </trkpt>
      <trkpt lat="46.48911" lon="10.29578">
        <ele>1344.06</ele>
        <time>2012-08-03T08:02:35Z</time>
      </trkpt>
      <trkpt lat="46.48912" lon="10.29572">
        <ele>1344.06</ele>
        <time>2012-08-03T08:02:36Z</time>
      </trkpt>
      <trkpt lat="46.48912" lon="10.29566">
        <ele>1344.06</ele>
        <time>2012-08-03T08:02:37Z</time>
      </trkpt>
      <trkpt lat="46.48922" lon="10.29537">
        <ele>1345.02</ele>
        <time>2012-08-03T08:02:46Z</time>
      </trkpt>
      <trkpt lat="46.48925" lon="10.29534">
        <ele>1345.5</ele>
        <time>2012-08-03T08:02:47Z</time>
      </trkpt>
      <trkpt lat="46.48928" lon="10.29531">
        <ele>1345.5</ele>
        <time>2012-08-03T08:02:48Z</time>
      </trkpt>
      <trkpt lat="46.48931" lon="10.29529">
        <ele>1345.5</ele>
        <time>2012-08-03T08:02:49Z</time>
      </trkpt>
      <trkpt lat="46.48933" lon="10.29527">
        <ele>1345.98</ele>
        <time>2012-08-03T08:02:50Z</time>
      </trkpt>
      <trkpt lat="46.48936" lon="10.29525">
        <ele>1346.46</ele>
        <time>2012-08-03T08:02:51Z</time>
      </trkpt>
      <trkpt lat="46.48938" lon="10.29523">
        <ele>1345.98</ele>
        <time>2012-08-03T08:02:52Z</time>
      </trkpt>
      <trkpt lat="46.48941" lon="10.29521">
        <ele>1346.94</ele>
        <time>2012-08-03T08:02:53Z</time>
      </trkpt>
      <trkpt lat="46.48943" lon="10.29518">
        <ele>1346.94</ele>
        <time>2012-08-03T08:02:54Z</time>
      </trkpt>
      <trkpt lat="46.48944" lon="10.29515">
        <ele>1346.46</ele>
        <time>2012-08-03T08:02:55Z</time>
      </trkpt>
      <trkpt lat="46.48946" lon="10.29512">
        <ele>1347.43</ele>
        <time>2012-08-03T08:02:56Z</time>
      </trkpt>
      <trkpt lat="46.48948" lon="10.29509">
        <ele>1347.43</ele>
        <time>2012-08-03T08:02:57Z</time>
      </trkpt>
      <trkpt lat="46.48949" lon="10.29504">
        <ele>1347.91</ele>
        <time>2012-08-03T08:02:58Z</time>
      </trkpt>
      <trkpt lat="46.48948" lon="10.29496">
        <ele>1348.87</ele>
        <time>2012-08-03T08:02:59Z</time>
      </trkpt>
      <trkpt lat="46.48947" lon="10.29487">
        <ele>1348.87</ele>
        <time>2012-08-03T08:03:00Z</time>
      </trkpt>
      <trkpt lat="46.48945" lon="10.29467">
        <ele>1349.83</ele>
        <time>2012-08-03T08:03:02Z</time>
      </trkpt>
      <trkpt lat="46.4894" lon="10.29406">
        <ele>1353.67</ele>
        <time>2012-08-03T08:03:07Z</time>
      </trkpt>
      <trkpt lat="46.48941" lon="10.29341">
        <ele>1356.56</ele>
        <time>2012-08-03T08:03:12Z</time>
      </trkpt>
      <trkpt lat="46.48941" lon="10.29275">
        <ele>1359.92</ele>
        <time>2012-08-03T08:03:17Z</time>
      </trkpt>
      <trkpt lat="46.48942" lon="10.29237">
        <ele>1361.36</ele>
        <time>2012-08-03T08:03:20Z</time>
      </trkpt>
      <trkpt lat="46.48942" lon="10.29143">
        <ele>1364.73</ele>
        <time>2012-08-03T08:03:27Z</time>
      </trkpt>
      <trkpt lat="46.48946" lon="10.2904">
        <ele>1361.84</ele>
        <time>2012-08-03T08:03:35Z</time>
      </trkpt>
      <trkpt lat="46.48948" lon="10.2896">
        <ele>1365.69</ele>
        <time>2012-08-03T08:03:40Z</time>
      </trkpt>
      <trkpt lat="46.4895" lon="10.28908">
        <ele>1369.05</ele>
        <time>2012-08-03T08:03:43Z</time>
      </trkpt>
      <trkpt lat="46.48952" lon="10.28853">
        <ele>1372.9</ele>
        <time>2012-08-03T08:03:46Z</time>
      </trkpt>
      <trkpt lat="46.48957" lon="10.28782">
        <ele>1376.75</ele>
        <time>2012-08-03T08:03:50Z</time>
      </trkpt>
      <trkpt lat="46.48955" lon="10.28765">
        <ele>1377.71</ele>
        <time>2012-08-03T08:03:51Z</time>
      </trkpt>
      <trkpt lat="46.48951" lon="10.28749">
        <ele>1379.15</ele>
        <time>2012-08-03T08:03:52Z</time>
      </trkpt>
      <trkpt lat="46.48943" lon="10.28716">
        <ele>1380.11</ele>
        <time>2012-08-03T08:03:54Z</time>
      </trkpt>
      <trkpt lat="46.48942" lon="10.28699">
        <ele>1381.55</ele>
        <time>2012-08-03T08:03:55Z</time>
      </trkpt>
      <trkpt lat="46.48942" lon="10.28662">
        <ele>1384.92</ele>
        <time>2012-08-03T08:03:57Z</time>
      </trkpt>
      <trkpt lat="46.48941" lon="10.28644">
        <ele>1386.84</ele>
        <time>2012-08-03T08:03:58Z</time>
      </trkpt>
      <trkpt lat="46.48938" lon="10.28626">
        <ele>1388.28</ele>
        <time>2012-08-03T08:03:59Z</time>
      </trkpt>
      <trkpt lat="46.48933" lon="10.28609">
        <ele>1388.76</ele>
        <time>2012-08-03T08:04:00Z</time>
      </trkpt>
      <trkpt lat="46.48924" lon="10.28591">
        <ele>1390.68</ele>
        <time>2012-08-03T08:04:01Z</time>
      </trkpt>
      <trkpt lat="46.48915" lon="10.28574">
        <ele>1391.65</ele>
        <time>2012-08-03T08:04:02Z</time>
      </trkpt>
      <trkpt lat="46.48901" lon="10.28541">
        <ele>1393.09</ele>
        <time>2012-08-03T08:04:04Z</time>
      </trkpt>
      <trkpt lat="46.48895" lon="10.28525">
        <ele>1394.53</ele>
        <time>2012-08-03T08:04:05Z</time>
      </trkpt>
      <trkpt lat="46.48887" lon="10.2849">
        <ele>1397.41</ele>
        <time>2012-08-03T08:04:07Z</time>
      </trkpt>
      <trkpt lat="46.48884" lon="10.28472">
        <ele>1398.86</ele>
        <time>2012-08-03T08:04:08Z</time>
      </trkpt>
      <trkpt lat="46.48882" lon="10.28435">
        <ele>1401.26</ele>
        <time>2012-08-03T08:04:10Z</time>
      </trkpt>
      <trkpt lat="46.48883" lon="10.28416">
        <ele>1402.7</ele>
        <time>2012-08-03T08:04:11Z</time>
      </trkpt>
      <trkpt lat="46.4889" lon="10.28359">
        <ele>1406.07</ele>
        <time>2012-08-03T08:04:14Z</time>
      </trkpt>
      <trkpt lat="46.4889" lon="10.28339">
        <ele>1407.03</ele>
        <time>2012-08-03T08:04:15Z</time>
      </trkpt>
      <trkpt lat="46.48888" lon="10.2832">
        <ele>1408.47</ele>
        <time>2012-08-03T08:04:16Z</time>
      </trkpt>
      <trkpt lat="46.48885" lon="10.28301">
        <ele>1409.43</ele>
        <time>2012-08-03T08:04:17Z</time>
      </trkpt>
      <trkpt lat="46.4888" lon="10.28282">
        <ele>1410.87</ele>
        <time>2012-08-03T08:04:18Z</time>
      </trkpt>
      <trkpt lat="46.48874" lon="10.28263">
        <ele>1412.31</ele>
        <time>2012-08-03T08:04:19Z</time>
      </trkpt>
      <trkpt lat="46.48855" lon="10.28209">
        <ele>1415.2</ele>
        <time>2012-08-03T08:04:22Z</time>
      </trkpt>
      <trkpt lat="46.48838" lon="10.28162">
        <ele>1417.6</ele>
        <time>2012-08-03T08:04:25Z</time>
      </trkpt>
      <trkpt lat="46.48834" lon="10.28147">
        <ele>1418.08</ele>
        <time>2012-08-03T08:04:26Z</time>
      </trkpt>
      <trkpt lat="46.48832" lon="10.28131">
        <ele>1419.04</ele>
        <time>2012-08-03T08:04:27Z</time>
      </trkpt>
      <trkpt lat="46.48833" lon="10.28114">
        <ele>1420</ele>
        <time>2012-08-03T08:04:28Z</time>
      </trkpt>
      <trkpt lat="46.48835" lon="10.28097">
        <ele>1420.97</ele>
        <time>2012-08-03T08:04:29Z</time>
      </trkpt>
      <trkpt lat="46.48835" lon="10.2808">
        <ele>1421.93</ele>
        <time>2012-08-03T08:04:30Z</time>
      </trkpt>
      <trkpt lat="46.48832" lon="10.28064">
        <ele>1421.93</ele>
        <time>2012-08-03T08:04:31Z</time>
      </trkpt>
      <trkpt lat="46.48825" lon="10.28049">
        <ele>1422.89</ele>
        <time>2012-08-03T08:04:32Z</time>
      </trkpt>
      <trkpt lat="46.48815" lon="10.28037">
        <ele>1423.85</ele>
        <time>2012-08-03T08:04:33Z</time>
      </trkpt>
      <trkpt lat="46.48803" lon="10.28027">
        <ele>1425.29</ele>
        <time>2012-08-03T08:04:34Z</time>
      </trkpt>
      <trkpt lat="46.4879" lon="10.28018">
        <ele>1425.77</ele>
        <time>2012-08-03T08:04:35Z</time>
      </trkpt>
      <trkpt lat="46.48768" lon="10.28003">
        <ele>1427.21</ele>
        <time>2012-08-03T08:04:37Z</time>
      </trkpt>
      <trkpt lat="46.48759" lon="10.27994">
        <ele>1427.7</ele>
        <time>2012-08-03T08:04:38Z</time>
      </trkpt>
      <trkpt lat="46.48753" lon="10.27982">
        <ele>1429.14</ele>
        <time>2012-08-03T08:04:39Z</time>
      </trkpt>
      <trkpt lat="46.48748" lon="10.27967">
        <ele>1430.58</ele>
        <time>2012-08-03T08:04:40Z</time>
      </trkpt>
      <trkpt lat="46.48745" lon="10.2795">
        <ele>1432.02</ele>
        <time>2012-08-03T08:04:41Z</time>
      </trkpt>
      <trkpt lat="46.48744" lon="10.27932">
        <ele>1433.94</ele>
        <time>2012-08-03T08:04:42Z</time>
      </trkpt>
      <trkpt lat="46.48744" lon="10.27893">
        <ele>1435.87</ele>
        <time>2012-08-03T08:04:44Z</time>
      </trkpt>
      <trkpt lat="46.48746" lon="10.27874">
        <ele>1436.83</ele>
        <time>2012-08-03T08:04:45Z</time>
      </trkpt>
      <trkpt lat="46.48751" lon="10.27839">
        <ele>1437.79</ele>
        <time>2012-08-03T08:04:47Z</time>
      </trkpt>
      <trkpt lat="46.48752" lon="10.2782">
        <ele>1439.71</ele>
        <time>2012-08-03T08:04:48Z</time>
      </trkpt>
      <trkpt lat="46.48752" lon="10.27801">
        <ele>1440.67</ele>
        <time>2012-08-03T08:04:49Z</time>
      </trkpt>
      <trkpt lat="46.4875" lon="10.27783">
        <ele>1441.63</ele>
        <time>2012-08-03T08:04:50Z</time>
      </trkpt>
      <trkpt lat="46.48745" lon="10.27765">
        <ele>1442.6</ele>
        <time>2012-08-03T08:04:51Z</time>
      </trkpt>
      <trkpt lat="46.48739" lon="10.27747">
        <ele>1444.04</ele>
        <time>2012-08-03T08:04:52Z</time>
      </trkpt>
      <trkpt lat="46.48732" lon="10.2773">
        <ele>1445.96</ele>
        <time>2012-08-03T08:04:53Z</time>
      </trkpt>
      <trkpt lat="46.48724" lon="10.27715">
        <ele>1446.44</ele>
        <time>2012-08-03T08:04:54Z</time>
      </trkpt>
      <trkpt lat="46.48716" lon="10.27703">
        <ele>1447.4</ele>
        <time>2012-08-03T08:04:55Z</time>
      </trkpt>
      <trkpt lat="46.48708" lon="10.27689">
        <ele>1448.36</ele>
        <time>2012-08-03T08:04:56Z</time>
      </trkpt>
      <trkpt lat="46.48703" lon="10.27674">
        <ele>1450.29</ele>
        <time>2012-08-03T08:04:57Z</time>
      </trkpt>
      <trkpt lat="46.487" lon="10.27658">
        <ele>1451.73</ele>
        <time>2012-08-03T08:04:58Z</time>
      </trkpt>
      <trkpt lat="46.48698" lon="10.2764">
        <ele>1452.21</ele>
        <time>2012-08-03T08:04:59Z</time>
      </trkpt>
      <trkpt lat="46.48698" lon="10.27623">
        <ele>1453.65</ele>
        <time>2012-08-03T08:05:00Z</time>
      </trkpt>
      <trkpt lat="46.48694" lon="10.27592">
        <ele>1454.61</ele>
        <time>2012-08-03T08:05:02Z</time>
      </trkpt>
      <trkpt lat="46.48689" lon="10.27578">
        <ele>1455.57</ele>
        <time>2012-08-03T08:05:03Z</time>
      </trkpt>
      <trkpt lat="46.48681" lon="10.27567">
        <ele>1456.53</ele>
        <time>2012-08-03T08:05:04Z</time>
      </trkpt>
      <trkpt lat="46.48671" lon="10.27556">
        <ele>1457.98</ele>
        <time>2012-08-03T08:05:05Z</time>
      </trkpt>
      <trkpt lat="46.48661" lon="10.27545">
        <ele>1458.94</ele>
        <time>2012-08-03T08:05:06Z</time>
      </trkpt>
      <trkpt lat="46.48633" lon="10.27512">
        <ele>1462.78</ele>
        <time>2012-08-03T08:05:09Z</time>
      </trkpt>
      <trkpt lat="46.48624" lon="10.275">
        <ele>1463.74</ele>
        <time>2012-08-03T08:05:10Z</time>
      </trkpt>
      <trkpt lat="46.48617" lon="10.27487">
        <ele>1464.23</ele>
        <time>2012-08-03T08:05:11Z</time>
      </trkpt>
      <trkpt lat="46.48605" lon="10.27462">
        <ele>1465.19</ele>
        <time>2012-08-03T08:05:13Z</time>
      </trkpt>
      <trkpt lat="46.48601" lon="10.27449">
        <ele>1465.67</ele>
        <time>2012-08-03T08:05:14Z</time>
      </trkpt>
      <trkpt lat="46.48563" lon="10.2733">
        <ele>1467.11</ele>
        <time>2012-08-03T08:05:24Z</time>
      </trkpt>
      <trkpt lat="46.48524" lon="10.27207">
        <ele>1465.67</ele>
        <time>2012-08-03T08:05:34Z</time>
      </trkpt>
      <trkpt lat="46.48496" lon="10.2711">
        <ele>1467.11</ele>
        <time>2012-08-03T08:05:42Z</time>
      </trkpt>
      <trkpt lat="46.48494" lon="10.27099">
        <ele>1467.11</ele>
        <time>2012-08-03T08:05:43Z</time>
      </trkpt>
      <trkpt lat="46.48493" lon="10.27087">
        <ele>1468.07</ele>
        <time>2012-08-03T08:05:44Z</time>
      </trkpt>
      <trkpt lat="46.48492" lon="10.27034">
        <ele>1470.95</ele>
        <time>2012-08-03T08:05:48Z</time>
      </trkpt>
      <trkpt lat="46.48501" lon="10.26963">
        <ele>1474.32</ele>
        <time>2012-08-03T08:05:53Z</time>
      </trkpt>
      <trkpt lat="46.48502" lon="10.26948">
        <ele>1475.28</ele>
        <time>2012-08-03T08:05:54Z</time>
      </trkpt>
      <trkpt lat="46.48502" lon="10.26933">
        <ele>1475.76</ele>
        <time>2012-08-03T08:05:55Z</time>
      </trkpt>
      <trkpt lat="46.48501" lon="10.26918">
        <ele>1477.2</ele>
        <time>2012-08-03T08:05:56Z</time>
      </trkpt>
      <trkpt lat="46.48497" lon="10.26904">
        <ele>1477.68</ele>
        <time>2012-08-03T08:05:57Z</time>
      </trkpt>
      <trkpt lat="46.48491" lon="10.26889">
        <ele>1478.65</ele>
        <time>2012-08-03T08:05:58Z</time>
      </trkpt>
      <trkpt lat="46.48484" lon="10.26876">
        <ele>1479.61</ele>
        <time>2012-08-03T08:05:59Z</time>
      </trkpt>
      <trkpt lat="46.48478" lon="10.26861">
        <ele>1480.09</ele>
        <time>2012-08-03T08:06:00Z</time>
      </trkpt>
      <trkpt lat="46.48473" lon="10.26845">
        <ele>1481.05</ele>
        <time>2012-08-03T08:06:01Z</time>
      </trkpt>
      <trkpt lat="46.48458" lon="10.26795">
        <ele>1483.93</ele>
        <time>2012-08-03T08:06:04Z</time>
      </trkpt>
      <trkpt lat="46.48453" lon="10.26778">
        <ele>1483.93</ele>
        <time>2012-08-03T08:06:05Z</time>
      </trkpt>
      <trkpt lat="46.48449" lon="10.26761">
        <ele>1485.37</ele>
        <time>2012-08-03T08:06:06Z</time>
      </trkpt>
      <trkpt lat="46.48446" lon="10.26744">
        <ele>1486.34</ele>
        <time>2012-08-03T08:06:07Z</time>
      </trkpt>
      <trkpt lat="46.48445" lon="10.26726">
        <ele>1487.3</ele>
        <time>2012-08-03T08:06:08Z</time>
      </trkpt>
      <trkpt lat="46.48445" lon="10.26708">
        <ele>1487.78</ele>
        <time>2012-08-03T08:06:09Z</time>
      </trkpt>
      <trkpt lat="46.48446" lon="10.2669">
        <ele>1488.74</ele>
        <time>2012-08-03T08:06:10Z</time>
      </trkpt>
      <trkpt lat="46.48449" lon="10.26673">
        <ele>1489.22</ele>
        <time>2012-08-03T08:06:11Z</time>
      </trkpt>
      <trkpt lat="46.48454" lon="10.26657">
        <ele>1490.66</ele>
        <time>2012-08-03T08:06:12Z</time>
      </trkpt>
      <trkpt lat="46.48459" lon="10.26641">
        <ele>1491.14</ele>
        <time>2012-08-03T08:06:13Z</time>
      </trkpt>
      <trkpt lat="46.48475" lon="10.26573">
        <ele>1494.03</ele>
        <time>2012-08-03T08:06:17Z</time>
      </trkpt>
      <trkpt lat="46.4848" lon="10.26537">
        <ele>1495.95</ele>
        <time>2012-08-03T08:06:19Z</time>
      </trkpt>
      <trkpt lat="46.48485" lon="10.26522">
        <ele>1495.47</ele>
        <time>2012-08-03T08:06:20Z</time>
      </trkpt>
      <trkpt lat="46.48494" lon="10.26498">
        <ele>1496.43</ele>
        <time>2012-08-03T08:06:22Z</time>
      </trkpt>
      <trkpt lat="46.48496" lon="10.26486">
        <ele>1496.91</ele>
        <time>2012-08-03T08:06:23Z</time>
      </trkpt>
      <trkpt lat="46.48494" lon="10.26475">
        <ele>1497.87</ele>
        <time>2012-08-03T08:06:24Z</time>
      </trkpt>
      <trkpt lat="46.48489" lon="10.26465">
        <ele>1498.35</ele>
        <time>2012-08-03T08:06:25Z</time>
      </trkpt>
      <trkpt lat="46.48482" lon="10.26459">
        <ele>1498.83</ele>
        <time>2012-08-03T08:06:26Z</time>
      </trkpt>
      <trkpt lat="46.48472" lon="10.26457">
        <ele>1499.79</ele>
        <time>2012-08-03T08:06:27Z</time>
      </trkpt>
      <trkpt lat="46.48461" lon="10.26458">
        <ele>1500.76</ele>
        <time>2012-08-03T08:06:28Z</time>
      </trkpt>
      <trkpt lat="46.48414" lon="10.2646">
        <ele>1504.12</ele>
        <time>2012-08-03T08:06:32Z</time>
      </trkpt>
      <trkpt lat="46.48403" lon="10.26455">
        <ele>1505.08</ele>
        <time>2012-08-03T08:06:33Z</time>
      </trkpt>
      <trkpt lat="46.48391" lon="10.26446">
        <ele>1506.52</ele>
        <time>2012-08-03T08:06:34Z</time>
      </trkpt>
      <trkpt lat="46.4838" lon="10.26435">
        <ele>1507.48</ele>
        <time>2012-08-03T08:06:35Z</time>
      </trkpt>
      <trkpt lat="46.48369" lon="10.26425">
        <ele>1507.48</ele>
        <time>2012-08-03T08:06:36Z</time>
      </trkpt>
      <trkpt lat="46.48358" lon="10.26415">
        <ele>1508.93</ele>
        <time>2012-08-03T08:06:37Z</time>
      </trkpt>
      <trkpt lat="46.48347" lon="10.26407">
        <ele>1509.41</ele>
        <time>2012-08-03T08:06:38Z</time>
      </trkpt>
      <trkpt lat="46.48335" lon="10.26402">
        <ele>1510.37</ele>
        <time>2012-08-03T08:06:39Z</time>
      </trkpt>
      <trkpt lat="46.48322" lon="10.264">
        <ele>1510.85</ele>
        <time>2012-08-03T08:06:40Z</time>
      </trkpt>
      <trkpt lat="46.48237" lon="10.2637">
        <ele>1514.69</ele>
        <time>2012-08-03T08:06:47Z</time>
      </trkpt>
      <trkpt lat="46.48228" lon="10.26364">
        <ele>1515.18</ele>
        <time>2012-08-03T08:06:48Z</time>
      </trkpt>
      <trkpt lat="46.48192" lon="10.26338">
        <ele>1518.06</ele>
        <time>2012-08-03T08:06:51Z</time>
      </trkpt>
      <trkpt lat="46.48183" lon="10.26326">
        <ele>1519.02</ele>
        <time>2012-08-03T08:06:52Z</time>
      </trkpt>
      <trkpt lat="46.48175" lon="10.26313">
        <ele>1519.5</ele>
        <time>2012-08-03T08:06:53Z</time>
      </trkpt>
      <trkpt lat="46.48168" lon="10.26299">
        <ele>1520.94</ele>
        <time>2012-08-03T08:06:54Z</time>
      </trkpt>
      <trkpt lat="46.4816" lon="10.26288">
        <ele>1520.94</ele>
        <time>2012-08-03T08:06:55Z</time>
      </trkpt>
      <trkpt lat="46.48151" lon="10.26279">
        <ele>1522.39</ele>
        <time>2012-08-03T08:06:56Z</time>
      </trkpt>
      <trkpt lat="46.48141" lon="10.26273">
        <ele>1522.39</ele>
        <time>2012-08-03T08:06:57Z</time>
      </trkpt>
      <trkpt lat="46.48131" lon="10.26272">
        <ele>1523.35</ele>
        <time>2012-08-03T08:06:58Z</time>
      </trkpt>
      <trkpt lat="46.48121" lon="10.26275">
        <ele>1524.79</ele>
        <time>2012-08-03T08:06:59Z</time>
      </trkpt>
      <trkpt lat="46.48111" lon="10.26283">
        <ele>1525.75</ele>
        <time>2012-08-03T08:07:00Z</time>
      </trkpt>
      <trkpt lat="46.48102" lon="10.26294">
        <ele>1526.71</ele>
        <time>2012-08-03T08:07:01Z</time>
      </trkpt>
      <trkpt lat="46.48094" lon="10.26307">
        <ele>1527.67</ele>
        <time>2012-08-03T08:07:02Z</time>
      </trkpt>
      <trkpt lat="46.48086" lon="10.26321">
        <ele>1528.63</ele>
        <time>2012-08-03T08:07:03Z</time>
      </trkpt>
      <trkpt lat="46.48054" lon="10.26375">
        <ele>1531.52</ele>
        <time>2012-08-03T08:07:07Z</time>
      </trkpt>
      <trkpt lat="46.48044" lon="10.26384">
        <ele>1532.96</ele>
        <time>2012-08-03T08:07:08Z</time>
      </trkpt>
      <trkpt lat="46.48011" lon="10.26409">
        <ele>1536.32</ele>
        <time>2012-08-03T08:07:11Z</time>
      </trkpt>
      <trkpt lat="46.47989" lon="10.26421">
        <ele>1537.77</ele>
        <time>2012-08-03T08:07:13Z</time>
      </trkpt>
      <trkpt lat="46.47939" lon="10.26437">
        <ele>1542.09</ele>
        <time>2012-08-03T08:07:17Z</time>
      </trkpt>
      <trkpt lat="46.479" lon="10.26447">
        <ele>1545.46</ele>
        <time>2012-08-03T08:07:20Z</time>
      </trkpt>
      <trkpt lat="46.47847" lon="10.26462">
        <ele>1548.82</ele>
        <time>2012-08-03T08:07:24Z</time>
      </trkpt>
      <trkpt lat="46.47835" lon="10.26465">
        <ele>1549.78</ele>
        <time>2012-08-03T08:07:25Z</time>
      </trkpt>
      <trkpt lat="46.47822" lon="10.26465">
        <ele>1551.22</ele>
        <time>2012-08-03T08:07:26Z</time>
      </trkpt>
      <trkpt lat="46.47808" lon="10.26464">
        <ele>1552.67</ele>
        <time>2012-08-03T08:07:27Z</time>
      </trkpt>
      <trkpt lat="46.47754" lon="10.26453">
        <ele>1556.99</ele>
        <time>2012-08-03T08:07:31Z</time>
      </trkpt>
      <trkpt lat="46.47714" lon="10.26444">
        <ele>1560.84</ele>
        <time>2012-08-03T08:07:34Z</time>
      </trkpt>
      <trkpt lat="46.47674" lon="10.26434">
        <ele>1564.2</ele>
        <time>2012-08-03T08:07:37Z</time>
      </trkpt>
      <trkpt lat="46.47633" lon="10.26425">
        <ele>1568.53</ele>
        <time>2012-08-03T08:07:40Z</time>
      </trkpt>
      <trkpt lat="46.47582" lon="10.26427">
        <ele>1572.37</ele>
        <time>2012-08-03T08:07:44Z</time>
      </trkpt>
      <trkpt lat="46.47559" lon="10.2643">
        <ele>1573.82</ele>
        <time>2012-08-03T08:07:46Z</time>
      </trkpt>
      <trkpt lat="46.47548" lon="10.26428">
        <ele>1574.78</ele>
        <time>2012-08-03T08:07:47Z</time>
      </trkpt>
      <trkpt lat="46.47537" lon="10.26422">
        <ele>1575.74</ele>
        <time>2012-08-03T08:07:48Z</time>
      </trkpt>
      <trkpt lat="46.47527" lon="10.26414">
        <ele>1576.22</ele>
        <time>2012-08-03T08:07:49Z</time>
      </trkpt>
      <trkpt lat="46.47516" lon="10.26404">
        <ele>1577.18</ele>
        <time>2012-08-03T08:07:50Z</time>
      </trkpt>
      <trkpt lat="46.47505" lon="10.26395">
        <ele>1577.66</ele>
        <time>2012-08-03T08:07:51Z</time>
      </trkpt>
      <trkpt lat="46.47494" lon="10.26388">
        <ele>1578.62</ele>
        <time>2012-08-03T08:07:52Z</time>
      </trkpt>
      <trkpt lat="46.47482" lon="10.26382">
        <ele>1580.06</ele>
        <time>2012-08-03T08:07:53Z</time>
      </trkpt>
      <trkpt lat="46.47446" lon="10.26367">
        <ele>1582.47</ele>
        <time>2012-08-03T08:07:56Z</time>
      </trkpt>
      <trkpt lat="46.4741" lon="10.26353">
        <ele>1585.83</ele>
        <time>2012-08-03T08:07:59Z</time>
      </trkpt>
      <trkpt lat="46.47399" lon="10.26346">
        <ele>1586.31</ele>
        <time>2012-08-03T08:08:00Z</time>
      </trkpt>
      <trkpt lat="46.47389" lon="10.26335">
        <ele>1587.75</ele>
        <time>2012-08-03T08:08:01Z</time>
      </trkpt>
      <trkpt lat="46.47381" lon="10.26322">
        <ele>1588.72</ele>
        <time>2012-08-03T08:08:02Z</time>
      </trkpt>
      <trkpt lat="46.47375" lon="10.26306">
        <ele>1589.2</ele>
        <time>2012-08-03T08:08:03Z</time>
      </trkpt>
      <trkpt lat="46.47368" lon="10.26292">
        <ele>1590.64</ele>
        <time>2012-08-03T08:08:04Z</time>
      </trkpt>
      <trkpt lat="46.4736" lon="10.2628">
        <ele>1591.6</ele>
        <time>2012-08-03T08:08:05Z</time>
      </trkpt>
      <trkpt lat="46.47349" lon="10.2627">
        <ele>1592.08</ele>
        <time>2012-08-03T08:08:06Z</time>
      </trkpt>
      <trkpt lat="46.47338" lon="10.26262">
        <ele>1594</ele>
        <time>2012-08-03T08:08:07Z</time>
      </trkpt>
      <trkpt lat="46.47326" lon="10.26254">
        <ele>1594</ele>
        <time>2012-08-03T08:08:08Z</time>
      </trkpt>
      <trkpt lat="46.47315" lon="10.26247">
        <ele>1594.48</ele>
        <time>2012-08-03T08:08:09Z</time>
      </trkpt>
      <trkpt lat="46.47303" lon="10.26242">
        <ele>1595.45</ele>
        <time>2012-08-03T08:08:10Z</time>
      </trkpt>
      <trkpt lat="46.47291" lon="10.26238">
        <ele>1596.41</ele>
        <time>2012-08-03T08:08:11Z</time>
      </trkpt>
      <trkpt lat="46.47242" lon="10.26226">
        <ele>1599.29</ele>
        <time>2012-08-03T08:08:15Z</time>
      </trkpt>
      <trkpt lat="46.4723" lon="10.26221">
        <ele>1600.73</ele>
        <time>2012-08-03T08:08:16Z</time>
      </trkpt>
      <trkpt lat="46.47219" lon="10.26212">
        <ele>1601.21</ele>
        <time>2012-08-03T08:08:17Z</time>
      </trkpt>
      <trkpt lat="46.47209" lon="10.26201">
        <ele>1602.66</ele>
        <time>2012-08-03T08:08:18Z</time>
      </trkpt>
      <trkpt lat="46.47189" lon="10.26178">
        <ele>1604.58</ele>
        <time>2012-08-03T08:08:20Z</time>
      </trkpt>
      <trkpt lat="46.47177" lon="10.26169">
        <ele>1605.06</ele>
        <time>2012-08-03T08:08:21Z</time>
      </trkpt>
      <trkpt lat="46.47165" lon="10.26163">
        <ele>1606.02</ele>
        <time>2012-08-03T08:08:22Z</time>
      </trkpt>
      <trkpt lat="46.47114" lon="10.26136">
        <ele>1609.38</ele>
        <time>2012-08-03T08:08:26Z</time>
      </trkpt>
      <trkpt lat="46.47071" lon="10.26107">
        <ele>1612.27</ele>
        <time>2012-08-03T08:08:30Z</time>
      </trkpt>
      <trkpt lat="46.47061" lon="10.26101">
        <ele>1613.23</ele>
        <time>2012-08-03T08:08:31Z</time>
      </trkpt>
      <trkpt lat="46.47024" lon="10.26085">
        <ele>1616.11</ele>
        <time>2012-08-03T08:08:34Z</time>
      </trkpt>
      <trkpt lat="46.47005" lon="10.26073">
        <ele>1617.07</ele>
        <time>2012-08-03T08:08:36Z</time>
      </trkpt>
      <trkpt lat="46.46956" lon="10.2603">
        <ele>1620.92</ele>
        <time>2012-08-03T08:08:41Z</time>
      </trkpt>
      <trkpt lat="46.46937" lon="10.2601">
        <ele>1622.36</ele>
        <time>2012-08-03T08:08:43Z</time>
      </trkpt>
      <trkpt lat="46.46929" lon="10.25998">
        <ele>1623.8</ele>
        <time>2012-08-03T08:08:44Z</time>
      </trkpt>
      <trkpt lat="46.46922" lon="10.25985">
        <ele>1624.77</ele>
        <time>2012-08-03T08:08:45Z</time>
      </trkpt>
      <trkpt lat="46.46916" lon="10.25971">
        <ele>1625.25</ele>
        <time>2012-08-03T08:08:46Z</time>
      </trkpt>
      <trkpt lat="46.4691" lon="10.25957">
        <ele>1626.21</ele>
        <time>2012-08-03T08:08:47Z</time>
      </trkpt>
      <trkpt lat="46.46887" lon="10.25899">
        <ele>1630.05</ele>
        <time>2012-08-03T08:08:51Z</time>
      </trkpt>
      <trkpt lat="46.46862" lon="10.25846">
        <ele>1632.94</ele>
        <time>2012-08-03T08:08:55Z</time>
      </trkpt>
      <trkpt lat="46.46853" lon="10.25836">
        <ele>1634.38</ele>
        <time>2012-08-03T08:08:56Z</time>
      </trkpt>
      <trkpt lat="46.46843" lon="10.2583">
        <ele>1635.34</ele>
        <time>2012-08-03T08:08:57Z</time>
      </trkpt>
      <trkpt lat="46.46833" lon="10.25828">
        <ele>1636.3</ele>
        <time>2012-08-03T08:08:58Z</time>
      </trkpt>
      <trkpt lat="46.46822" lon="10.2583">
        <ele>1636.78</ele>
        <time>2012-08-03T08:08:59Z</time>
      </trkpt>
      <trkpt lat="46.46813" lon="10.25833">
        <ele>1637.26</ele>
        <time>2012-08-03T08:09:00Z</time>
      </trkpt>
      <trkpt lat="46.46803" lon="10.25836">
        <ele>1637.74</ele>
        <time>2012-08-03T08:09:01Z</time>
      </trkpt>
      <trkpt lat="46.46794" lon="10.25839">
        <ele>1638.7</ele>
        <time>2012-08-03T08:09:02Z</time>
      </trkpt>
      <trkpt lat="46.46784" lon="10.2584">
        <ele>1639.67</ele>
        <time>2012-08-03T08:09:03Z</time>
      </trkpt>
      <trkpt lat="46.46775" lon="10.2584">
        <ele>1640.15</ele>
        <time>2012-08-03T08:09:04Z</time>
      </trkpt>
      <trkpt lat="46.46765" lon="10.25838">
        <ele>1640.63</ele>
        <time>2012-08-03T08:09:05Z</time>
      </trkpt>
      <trkpt lat="46.46756" lon="10.25834">
        <ele>1641.11</ele>
        <time>2012-08-03T08:09:06Z</time>
      </trkpt>
      <trkpt lat="46.46747" lon="10.25829">
        <ele>1642.07</ele>
        <time>2012-08-03T08:09:07Z</time>
      </trkpt>
      <trkpt lat="46.46738" lon="10.25822">
        <ele>1643.51</ele>
        <time>2012-08-03T08:09:08Z</time>
      </trkpt>
      <trkpt lat="46.4673" lon="10.25814">
        <ele>1643.51</ele>
        <time>2012-08-03T08:09:09Z</time>
      </trkpt>
      <trkpt lat="46.46722" lon="10.25805">
        <ele>1643.99</ele>
        <time>2012-08-03T08:09:10Z</time>
      </trkpt>
      <trkpt lat="46.46695" lon="10.25777">
        <ele>1646.4</ele>
        <time>2012-08-03T08:09:13Z</time>
      </trkpt>
      <trkpt lat="46.4667" lon="10.25757">
        <ele>1647.36</ele>
        <time>2012-08-03T08:09:16Z</time>
      </trkpt>
      <trkpt lat="46.46661" lon="10.25748">
        <ele>1648.8</ele>
        <time>2012-08-03T08:09:17Z</time>
      </trkpt>
      <trkpt lat="46.46622" lon="10.25704">
        <ele>1654.09</ele>
        <time>2012-08-03T08:09:21Z</time>
      </trkpt>
      <trkpt lat="46.46584" lon="10.25664">
        <ele>1657.93</ele>
        <time>2012-08-03T08:09:24Z</time>
      </trkpt>
      <trkpt lat="46.46529" lon="10.25613">
        <ele>1660.81</ele>
        <time>2012-08-03T08:09:28Z</time>
      </trkpt>
      <trkpt lat="46.46469" lon="10.2556">
        <ele>1664.18</ele>
        <time>2012-08-03T08:09:33Z</time>
      </trkpt>
      <trkpt lat="46.46431" lon="10.25529">
        <ele>1665.14</ele>
        <time>2012-08-03T08:09:38Z</time>
      </trkpt>
      <trkpt lat="46.46424" lon="10.25525">
        <ele>1666.1</ele>
        <time>2012-08-03T08:09:40Z</time>
      </trkpt>
      <trkpt lat="46.46393" lon="10.25516">
        <ele>1667.54</ele>
        <time>2012-08-03T08:09:48Z</time>
      </trkpt>
      <trkpt lat="46.46386" lon="10.2551">
        <ele>1668.02</ele>
        <time>2012-08-03T08:09:50Z</time>
      </trkpt>
      <trkpt lat="46.46382" lon="10.25506">
        <ele>1668.99</ele>
        <time>2012-08-03T08:09:51Z</time>
      </trkpt>
      <trkpt lat="46.46371" lon="10.25489">
        <ele>1669.95</ele>
        <time>2012-08-03T08:09:58Z</time>
      </trkpt>
      <trkpt lat="46.46369" lon="10.25484">
        <ele>1670.43</ele>
        <time>2012-08-03T08:09:59Z</time>
      </trkpt>
      <trkpt lat="46.46368" lon="10.25477">
        <ele>1670.91</ele>
        <time>2012-08-03T08:10:00Z</time>
      </trkpt>
      <trkpt lat="46.46366" lon="10.25471">
        <ele>1670.91</ele>
        <time>2012-08-03T08:10:01Z</time>
      </trkpt>
      <trkpt lat="46.46365" lon="10.25464">
        <ele>1671.39</ele>
        <time>2012-08-03T08:10:02Z</time>
      </trkpt>
      <trkpt lat="46.46365" lon="10.25458">
        <ele>1671.87</ele>
        <time>2012-08-03T08:10:03Z</time>
      </trkpt>
      <trkpt lat="46.46365" lon="10.2545">
        <ele>1672.35</ele>
        <time>2012-08-03T08:10:04Z</time>
      </trkpt>
      <trkpt lat="46.46365" lon="10.25442">
        <ele>1672.83</ele>
        <time>2012-08-03T08:10:05Z</time>
      </trkpt>
      <trkpt lat="46.46365" lon="10.25434">
        <ele>1672.83</ele>
        <time>2012-08-03T08:10:06Z</time>
      </trkpt>
      <trkpt lat="46.46367" lon="10.2542">
        <ele>1674.27</ele>
        <time>2012-08-03T08:10:08Z</time>
      </trkpt>
      <trkpt lat="46.4637" lon="10.25414">
        <ele>1674.75</ele>
        <time>2012-08-03T08:10:09Z</time>
      </trkpt>
      <trkpt lat="46.46374" lon="10.25412">
        <ele>1674.75</ele>
        <time>2012-08-03T08:10:10Z</time>
      </trkpt>
      <trkpt lat="46.46378" lon="10.25413">
        <ele>1675.23</ele>
        <time>2012-08-03T08:10:11Z</time>
      </trkpt>
      <trkpt lat="46.46381" lon="10.25418">
        <ele>1675.72</ele>
        <time>2012-08-03T08:10:12Z</time>
      </trkpt>
      <trkpt lat="46.46382" lon="10.25425">
        <ele>1676.2</ele>
        <time>2012-08-03T08:10:13Z</time>
      </trkpt>
      <trkpt lat="46.46381" lon="10.25435">
        <ele>1676.68</ele>
        <time>2012-08-03T08:10:14Z</time>
      </trkpt>
      <trkpt lat="46.46379" lon="10.25444">
        <ele>1676.68</ele>
        <time>2012-08-03T08:10:15Z</time>
      </trkpt>
      <trkpt lat="46.46379" lon="10.25454">
        <ele>1677.16</ele>
        <time>2012-08-03T08:10:16Z</time>
      </trkpt>
      <trkpt lat="46.46381" lon="10.25464">
        <ele>1677.64</ele>
        <time>2012-08-03T08:10:17Z</time>
      </trkpt>
      <trkpt lat="46.46385" lon="10.25472">
        <ele>1678.6</ele>
        <time>2012-08-03T08:10:18Z</time>
      </trkpt>
      <trkpt lat="46.46391" lon="10.25479">
        <ele>1679.08</ele>
        <time>2012-08-03T08:10:19Z</time>
      </trkpt>
      <trkpt lat="46.46397" lon="10.25485">
        <ele>1680.04</ele>
        <time>2012-08-03T08:10:20Z</time>
      </trkpt>
      <trkpt lat="46.46406" lon="10.2549">
        <ele>1681</ele>
        <time>2012-08-03T08:10:21Z</time>
      </trkpt>
      <trkpt lat="46.46417" lon="10.25494">
        <ele>1682.44</ele>
        <time>2012-08-03T08:10:22Z</time>
      </trkpt>
      <trkpt lat="46.46431" lon="10.25497">
        <ele>1683.89</ele>
        <time>2012-08-03T08:10:23Z</time>
      </trkpt>
      <trkpt lat="46.46478" lon="10.25508">
        <ele>1687.25</ele>
        <time>2012-08-03T08:10:26Z</time>
      </trkpt>
      <trkpt lat="46.46488" lon="10.25511">
        <ele>1687.73</ele>
        <time>2012-08-03T08:10:27Z</time>
      </trkpt>
      <trkpt lat="46.46562" lon="10.25531">
        <ele>1691.1</ele>
        <time>2012-08-03T08:10:32Z</time>
      </trkpt>
      <trkpt lat="46.46602" lon="10.25554">
        <ele>1693.02</ele>
        <time>2012-08-03T08:10:37Z</time>
      </trkpt>
      <trkpt lat="46.46643" lon="10.25582">
        <ele>1695.9</ele>
        <time>2012-08-03T08:10:42Z</time>
      </trkpt>
      <trkpt lat="46.46651" lon="10.25587">
        <ele>1696.86</ele>
        <time>2012-08-03T08:10:43Z</time>
      </trkpt>
      <trkpt lat="46.46659" lon="10.25589">
        <ele>1698.31</ele>
        <time>2012-08-03T08:10:44Z</time>
      </trkpt>
      <trkpt lat="46.46668" lon="10.25589">
        <ele>1699.27</ele>
        <time>2012-08-03T08:10:45Z</time>
      </trkpt>
      <trkpt lat="46.46692" lon="10.25587">
        <ele>1702.63</ele>
        <time>2012-08-03T08:10:47Z</time>
      </trkpt>
      <trkpt lat="46.46754" lon="10.25588">
        <ele>1705.52</ele>
        <time>2012-08-03T08:10:54Z</time>
      </trkpt>
      <trkpt lat="46.46786" lon="10.25587">
        <ele>1708.88</ele>
        <time>2012-08-03T08:10:59Z</time>
      </trkpt>
      <trkpt lat="46.46793" lon="10.25585">
        <ele>1708.88</ele>
        <time>2012-08-03T08:11:00Z</time>
      </trkpt>
      <trkpt lat="46.468" lon="10.25582">
        <ele>1709.84</ele>
        <time>2012-08-03T08:11:01Z</time>
      </trkpt>
      <trkpt lat="46.46807" lon="10.25579">
        <ele>1710.32</ele>
        <time>2012-08-03T08:11:02Z</time>
      </trkpt>
      <trkpt lat="46.46845" lon="10.25553">
        <ele>1713.21</ele>
        <time>2012-08-03T08:11:07Z</time>
      </trkpt>
      <trkpt lat="46.46854" lon="10.25551">
        <ele>1714.65</ele>
        <time>2012-08-03T08:11:08Z</time>
      </trkpt>
      <trkpt lat="46.46864" lon="10.25552">
        <ele>1715.61</ele>
        <time>2012-08-03T08:11:09Z</time>
      </trkpt>
      <trkpt lat="46.46902" lon="10.25564">
        <ele>1719.94</ele>
        <time>2012-08-03T08:11:12Z</time>
      </trkpt>
      <trkpt lat="46.46979" lon="10.25599">
        <ele>1722.34</ele>
        <time>2012-08-03T08:11:19Z</time>
      </trkpt>
      <trkpt lat="46.47019" lon="10.25635">
        <ele>1725.7</ele>
        <time>2012-08-03T08:11:25Z</time>
      </trkpt>
      <trkpt lat="46.47023" lon="10.25643">
        <ele>1725.22</ele>
        <time>2012-08-03T08:11:26Z</time>
      </trkpt>
      <trkpt lat="46.47027" lon="10.25651">
        <ele>1726.67</ele>
        <time>2012-08-03T08:11:27Z</time>
      </trkpt>
      <trkpt lat="46.4703" lon="10.2566">
        <ele>1726.67</ele>
        <time>2012-08-03T08:11:28Z</time>
      </trkpt>
      <trkpt lat="46.47032" lon="10.25669">
        <ele>1726.67</ele>
        <time>2012-08-03T08:11:29Z</time>
      </trkpt>
      <trkpt lat="46.47034" lon="10.2568">
        <ele>1727.63</ele>
        <time>2012-08-03T08:11:30Z</time>
      </trkpt>
      <trkpt lat="46.47047" lon="10.25719">
        <ele>1729.55</ele>
        <time>2012-08-03T08:11:34Z</time>
      </trkpt>
      <trkpt lat="46.47051" lon="10.25727">
        <ele>1729.55</ele>
        <time>2012-08-03T08:11:35Z</time>
      </trkpt>
      <trkpt lat="46.47055" lon="10.25734">
        <ele>1730.03</ele>
        <time>2012-08-03T08:11:36Z</time>
      </trkpt>
      <trkpt lat="46.4708" lon="10.25756">
        <ele>1731.47</ele>
        <time>2012-08-03T08:11:43Z</time>
      </trkpt>
      <trkpt lat="46.47084" lon="10.25756">
        <ele>1730.99</ele>
        <time>2012-08-03T08:11:44Z</time>
      </trkpt>
      <trkpt lat="46.47088" lon="10.25754">
        <ele>1730.99</ele>
        <time>2012-08-03T08:11:45Z</time>
      </trkpt>
      <trkpt lat="46.47091" lon="10.25751">
        <ele>1731.47</ele>
        <time>2012-08-03T08:11:46Z</time>
      </trkpt>
      <trkpt lat="46.47093" lon="10.25745">
        <ele>1731.47</ele>
        <time>2012-08-03T08:11:47Z</time>
      </trkpt>
      <trkpt lat="46.47093" lon="10.25739">
        <ele>1731.95</ele>
        <time>2012-08-03T08:11:48Z</time>
      </trkpt>
      <trkpt lat="46.4709" lon="10.25733">
        <ele>1732.43</ele>
        <time>2012-08-03T08:11:49Z</time>
      </trkpt>
      <trkpt lat="46.47086" lon="10.2573">
        <ele>1731.95</ele>
        <time>2012-08-03T08:11:50Z</time>
      </trkpt>
      <trkpt lat="46.4708" lon="10.25728">
        <ele>1732.91</ele>
        <time>2012-08-03T08:11:51Z</time>
      </trkpt>
      <trkpt lat="46.47075" lon="10.25727">
        <ele>1732.43</ele>
        <time>2012-08-03T08:11:52Z</time>
      </trkpt>
      <trkpt lat="46.47071" lon="10.25724">
        <ele>1732.43</ele>
        <time>2012-08-03T08:11:53Z</time>
      </trkpt>
      <trkpt lat="46.47067" lon="10.25721">
        <ele>1732.91</ele>
        <time>2012-08-03T08:11:54Z</time>
      </trkpt>
      <trkpt lat="46.47063" lon="10.25716">
        <ele>1733.39</ele>
        <time>2012-08-03T08:11:55Z</time>
      </trkpt>
      <trkpt lat="46.4706" lon="10.25709">
        <ele>1734.36</ele>
        <time>2012-08-03T08:11:56Z</time>
      </trkpt>
      <trkpt lat="46.47057" lon="10.25702">
        <ele>1734.84</ele>
        <time>2012-08-03T08:11:57Z</time>
      </trkpt>
      <trkpt lat="46.47055" lon="10.25692">
        <ele>1734.84</ele>
        <time>2012-08-03T08:11:58Z</time>
      </trkpt>
      <trkpt lat="46.47052" lon="10.25679">
        <ele>1737.24</ele>
        <time>2012-08-03T08:11:59Z</time>
      </trkpt>
      <trkpt lat="46.47043" lon="10.25633">
        <ele>1738.2</ele>
        <time>2012-08-03T08:12:02Z</time>
      </trkpt>
      <trkpt lat="46.4704" lon="10.2562">
        <ele>1738.68</ele>
        <time>2012-08-03T08:12:03Z</time>
      </trkpt>
      <trkpt lat="46.47029" lon="10.25591">
        <ele>1740.12</ele>
        <time>2012-08-03T08:12:06Z</time>
      </trkpt>
      <trkpt lat="46.46996" lon="10.25537">
        <ele>1743.49</ele>
        <time>2012-08-03T08:12:15Z</time>
      </trkpt>
      <trkpt lat="46.46991" lon="10.25533">
        <ele>1743.97</ele>
        <time>2012-08-03T08:12:16Z</time>
      </trkpt>
      <trkpt lat="46.46984" lon="10.25528">
        <ele>1744.45</ele>
        <time>2012-08-03T08:12:17Z</time>
      </trkpt>
      <trkpt lat="46.46978" lon="10.25525">
        <ele>1744.45</ele>
        <time>2012-08-03T08:12:18Z</time>
      </trkpt>
      <trkpt lat="46.46971" lon="10.25523">
        <ele>1745.41</ele>
        <time>2012-08-03T08:12:19Z</time>
      </trkpt>
      <trkpt lat="46.46964" lon="10.25522">
        <ele>1745.89</ele>
        <time>2012-08-03T08:12:20Z</time>
      </trkpt>
      <trkpt lat="46.46955" lon="10.2552">
        <ele>1746.37</ele>
        <time>2012-08-03T08:12:21Z</time>
      </trkpt>
      <trkpt lat="46.46946" lon="10.25518">
        <ele>1747.33</ele>
        <time>2012-08-03T08:12:22Z</time>
      </trkpt>
      <trkpt lat="46.46938" lon="10.25514">
        <ele>1747.81</ele>
        <time>2012-08-03T08:12:23Z</time>
      </trkpt>
      <trkpt lat="46.46929" lon="10.25509">
        <ele>1747.81</ele>
        <time>2012-08-03T08:12:24Z</time>
      </trkpt>
      <trkpt lat="46.4692" lon="10.25503">
        <ele>1748.78</ele>
        <time>2012-08-03T08:12:25Z</time>
      </trkpt>
      <trkpt lat="46.46912" lon="10.25497">
        <ele>1749.26</ele>
        <time>2012-08-03T08:12:26Z</time>
      </trkpt>
      <trkpt lat="46.46904" lon="10.25488">
        <ele>1749.74</ele>
        <time>2012-08-03T08:12:27Z</time>
      </trkpt>
      <trkpt lat="46.46874" lon="10.25453">
        <ele>1752.62</ele>
        <time>2012-08-03T08:12:31Z</time>
      </trkpt>
      <trkpt lat="46.46852" lon="10.25433">
        <ele>1754.54</ele>
        <time>2012-08-03T08:12:34Z</time>
      </trkpt>
      <trkpt lat="46.46844" lon="10.25431">
        <ele>1754.54</ele>
        <time>2012-08-03T08:12:35Z</time>
      </trkpt>
      <trkpt lat="46.46836" lon="10.25432">
        <ele>1755.5</ele>
        <time>2012-08-03T08:12:36Z</time>
      </trkpt>
      <trkpt lat="46.46829" lon="10.25434">
        <ele>1755.99</ele>
        <time>2012-08-03T08:12:37Z</time>
      </trkpt>
      <trkpt lat="46.46821" lon="10.25436">
        <ele>1756.47</ele>
        <time>2012-08-03T08:12:38Z</time>
      </trkpt>
      <trkpt lat="46.46814" lon="10.25438">
        <ele>1756.95</ele>
        <time>2012-08-03T08:12:39Z</time>
      </trkpt>
      <trkpt lat="46.46806" lon="10.25437">
        <ele>1757.91</ele>
        <time>2012-08-03T08:12:40Z</time>
      </trkpt>
      <trkpt lat="46.46798" lon="10.25434">
        <ele>1758.39</ele>
        <time>2012-08-03T08:12:41Z</time>
      </trkpt>
      <trkpt lat="46.46791" lon="10.2543">
        <ele>1759.35</ele>
        <time>2012-08-03T08:12:42Z</time>
      </trkpt>
      <trkpt lat="46.46785" lon="10.25426">
        <ele>1759.83</ele>
        <time>2012-08-03T08:12:43Z</time>
      </trkpt>
      <trkpt lat="46.46755" lon="10.25406">
        <ele>1762.23</ele>
        <time>2012-08-03T08:12:47Z</time>
      </trkpt>
      <trkpt lat="46.4671" lon="10.25387">
        <ele>1765.6</ele>
        <time>2012-08-03T08:12:52Z</time>
      </trkpt>
      <trkpt lat="46.46682" lon="10.25373">
        <ele>1768.48</ele>
        <time>2012-08-03T08:12:55Z</time>
      </trkpt>
      <trkpt lat="46.46673" lon="10.25366">
        <ele>1768.96</ele>
        <time>2012-08-03T08:12:56Z</time>
      </trkpt>
      <trkpt lat="46.46665" lon="10.25356">
        <ele>1769.92</ele>
        <time>2012-08-03T08:12:57Z</time>
      </trkpt>
      <trkpt lat="46.46658" lon="10.25345">
        <ele>1770.89</ele>
        <time>2012-08-03T08:12:58Z</time>
      </trkpt>
      <trkpt lat="46.46652" lon="10.25334">
        <ele>1771.37</ele>
        <time>2012-08-03T08:12:59Z</time>
      </trkpt>
      <trkpt lat="46.46646" lon="10.25324">
        <ele>1772.33</ele>
        <time>2012-08-03T08:13:00Z</time>
      </trkpt>
      <trkpt lat="46.46639" lon="10.25315">
        <ele>1772.81</ele>
        <time>2012-08-03T08:13:01Z</time>
      </trkpt>
      <trkpt lat="46.46594" lon="10.25273">
        <ele>1776.17</ele>
        <time>2012-08-03T08:13:08Z</time>
      </trkpt>
      <trkpt lat="46.46562" lon="10.25231">
        <ele>1780.02</ele>
        <time>2012-08-03T08:13:13Z</time>
      </trkpt>
      <trkpt lat="46.46539" lon="10.2519">
        <ele>1782.9</ele>
        <time>2012-08-03T08:13:17Z</time>
      </trkpt>
      <trkpt lat="46.46526" lon="10.25156">
        <ele>1785.31</ele>
        <time>2012-08-03T08:13:20Z</time>
      </trkpt>
      <trkpt lat="46.46518" lon="10.25145">
        <ele>1787.23</ele>
        <time>2012-08-03T08:13:21Z</time>
      </trkpt>
      <trkpt lat="46.46509" lon="10.25135">
        <ele>1788.67</ele>
        <time>2012-08-03T08:13:22Z</time>
      </trkpt>
      <trkpt lat="46.465" lon="10.25127">
        <ele>1789.15</ele>
        <time>2012-08-03T08:13:23Z</time>
      </trkpt>
      <trkpt lat="46.4649" lon="10.25121">
        <ele>1789.15</ele>
        <time>2012-08-03T08:13:24Z</time>
      </trkpt>
      <trkpt lat="46.46482" lon="10.25117">
        <ele>1790.11</ele>
        <time>2012-08-03T08:13:25Z</time>
      </trkpt>
      <trkpt lat="46.46467" lon="10.25108">
        <ele>1791.07</ele>
        <time>2012-08-03T08:13:27Z</time>
      </trkpt>
      <trkpt lat="46.46459" lon="10.25102">
        <ele>1791.07</ele>
        <time>2012-08-03T08:13:28Z</time>
      </trkpt>
      <trkpt lat="46.46453" lon="10.25095">
        <ele>1792.52</ele>
        <time>2012-08-03T08:13:29Z</time>
      </trkpt>
      <trkpt lat="46.46446" lon="10.25086">
        <ele>1793</ele>
        <time>2012-08-03T08:13:30Z</time>
      </trkpt>
      <trkpt lat="46.4644" lon="10.25077">
        <ele>1794.44</ele>
        <time>2012-08-03T08:13:31Z</time>
      </trkpt>
      <trkpt lat="46.46434" lon="10.25066">
        <ele>1794.92</ele>
        <time>2012-08-03T08:13:32Z</time>
      </trkpt>
      <trkpt lat="46.46428" lon="10.25054">
        <ele>1796.36</ele>
        <time>2012-08-03T08:13:33Z</time>
      </trkpt>
      <trkpt lat="46.46407" lon="10.25013">
        <ele>1800.21</ele>
        <time>2012-08-03T08:13:36Z</time>
      </trkpt>
      <trkpt lat="46.46401" lon="10.25">
        <ele>1800.21</ele>
        <time>2012-08-03T08:13:37Z</time>
      </trkpt>
      <trkpt lat="46.46366" lon="10.24934">
        <ele>1803.09</ele>
        <time>2012-08-03T08:13:45Z</time>
      </trkpt>
      <trkpt lat="46.46356" lon="10.24921">
        <ele>1805.01</ele>
        <time>2012-08-03T08:13:48Z</time>
      </trkpt>
      <trkpt lat="46.4635" lon="10.24914">
        <ele>1805.01</ele>
        <time>2012-08-03T08:13:50Z</time>
      </trkpt>
      <trkpt lat="46.46344" lon="10.2491">
        <ele>1805.97</ele>
        <time>2012-08-03T08:13:51Z</time>
      </trkpt>
      <trkpt lat="46.46337" lon="10.24904">
        <ele>1807.9</ele>
        <time>2012-08-03T08:13:52Z</time>
      </trkpt>
      <trkpt lat="46.46303" lon="10.24875">
        <ele>1813.66</ele>
        <time>2012-08-03T08:13:55Z</time>
      </trkpt>
      <trkpt lat="46.46273" lon="10.24848">
        <ele>1817.99</ele>
        <time>2012-08-03T08:13:57Z</time>
      </trkpt>
      <trkpt lat="46.46241" lon="10.24822">
        <ele>1819.91</ele>
        <time>2012-08-03T08:13:59Z</time>
      </trkpt>
      <trkpt lat="46.46195" lon="10.2479">
        <ele>1823.76</ele>
        <time>2012-08-03T08:14:02Z</time>
      </trkpt>
      <trkpt lat="46.46182" lon="10.24778">
        <ele>1825.2</ele>
        <time>2012-08-03T08:14:03Z</time>
      </trkpt>
      <trkpt lat="46.4617" lon="10.24763">
        <ele>1826.16</ele>
        <time>2012-08-03T08:14:04Z</time>
      </trkpt>
      <trkpt lat="46.46159" lon="10.24746">
        <ele>1828.08</ele>
        <time>2012-08-03T08:14:05Z</time>
      </trkpt>
      <trkpt lat="46.4615" lon="10.24727">
        <ele>1829.05</ele>
        <time>2012-08-03T08:14:06Z</time>
      </trkpt>
      <trkpt lat="46.46142" lon="10.24707">
        <ele>1829.53</ele>
        <time>2012-08-03T08:14:07Z</time>
      </trkpt>
      <trkpt lat="46.46134" lon="10.24687">
        <ele>1830.97</ele>
        <time>2012-08-03T08:14:08Z</time>
      </trkpt>
      <trkpt lat="46.46113" lon="10.24628">
        <ele>1834.33</ele>
        <time>2012-08-03T08:14:11Z</time>
      </trkpt>
      <trkpt lat="46.46091" lon="10.24566">
        <ele>1838.66</ele>
        <time>2012-08-03T08:14:14Z</time>
      </trkpt>
      <trkpt lat="46.46067" lon="10.24504">
        <ele>1842.02</ele>
        <time>2012-08-03T08:14:17Z</time>
      </trkpt>
      <trkpt lat="46.46056" lon="10.24485">
        <ele>1844.43</ele>
        <time>2012-08-03T08:14:18Z</time>
      </trkpt>
      <trkpt lat="46.46021" lon="10.24429">
        <ele>1848.27</ele>
        <time>2012-08-03T08:14:21Z</time>
      </trkpt>
      <trkpt lat="46.45986" lon="10.24372">
        <ele>1851.64</ele>
        <time>2012-08-03T08:14:24Z</time>
      </trkpt>
      <trkpt lat="46.45964" lon="10.24331">
        <ele>1855</ele>
        <time>2012-08-03T08:14:26Z</time>
      </trkpt>
      <trkpt lat="46.45932" lon="10.24274">
        <ele>1857.89</ele>
        <time>2012-08-03T08:14:29Z</time>
      </trkpt>
      <trkpt lat="46.45888" lon="10.24196">
        <ele>1859.33</ele>
        <time>2012-08-03T08:14:35Z</time>
      </trkpt>
      <trkpt lat="46.45885" lon="10.24186">
        <ele>1859.81</ele>
        <time>2012-08-03T08:14:36Z</time>
      </trkpt>
      <trkpt lat="46.45885" lon="10.24175">
        <ele>1860.29</ele>
        <time>2012-08-03T08:14:37Z</time>
      </trkpt>
      <trkpt lat="46.45888" lon="10.24165">
        <ele>1860.29</ele>
        <time>2012-08-03T08:14:38Z</time>
      </trkpt>
      <trkpt lat="46.45894" lon="10.24161">
        <ele>1860.77</ele>
        <time>2012-08-03T08:14:39Z</time>
      </trkpt>
      <trkpt lat="46.45901" lon="10.2416">
        <ele>1860.77</ele>
        <time>2012-08-03T08:14:40Z</time>
      </trkpt>
      <trkpt lat="46.45908" lon="10.24165">
        <ele>1861.73</ele>
        <time>2012-08-03T08:14:41Z</time>
      </trkpt>
      <trkpt lat="46.45915" lon="10.24174">
        <ele>1863.17</ele>
        <time>2012-08-03T08:14:42Z</time>
      </trkpt>
      <trkpt lat="46.45925" lon="10.24186">
        <ele>1865.09</ele>
        <time>2012-08-03T08:14:43Z</time>
      </trkpt>
      <trkpt lat="46.45964" lon="10.24235">
        <ele>1869.42</ele>
        <time>2012-08-03T08:14:46Z</time>
      </trkpt>
      <trkpt lat="46.45997" lon="10.24266">
        <ele>1872.79</ele>
        <time>2012-08-03T08:14:48Z</time>
      </trkpt>
      <trkpt lat="46.4605" lon="10.24312">
        <ele>1878.07</ele>
        <time>2012-08-03T08:14:51Z</time>
      </trkpt>
      <trkpt lat="46.46104" lon="10.2436">
        <ele>1881.92</ele>
        <time>2012-08-03T08:14:54Z</time>
      </trkpt>
      <trkpt lat="46.46178" lon="10.24424">
        <ele>1886.72</ele>
        <time>2012-08-03T08:14:58Z</time>
      </trkpt>
      <trkpt lat="46.46231" lon="10.24471">
        <ele>1890.57</ele>
        <time>2012-08-03T08:15:01Z</time>
      </trkpt>
      <trkpt lat="46.46284" lon="10.24517">
        <ele>1893.93</ele>
        <time>2012-08-03T08:15:04Z</time>
      </trkpt>
      <trkpt lat="46.46303" lon="10.24529">
        <ele>1894.42</ele>
        <time>2012-08-03T08:15:05Z</time>
      </trkpt>
      <trkpt lat="46.46342" lon="10.2455">
        <ele>1897.78</ele>
        <time>2012-08-03T08:15:07Z</time>
      </trkpt>
      <trkpt lat="46.46402" lon="10.24577">
        <ele>1900.66</ele>
        <time>2012-08-03T08:15:10Z</time>
      </trkpt>
      <trkpt lat="46.46423" lon="10.24582">
        <ele>1903.07</ele>
        <time>2012-08-03T08:15:11Z</time>
      </trkpt>
      <trkpt lat="46.46443" lon="10.24584">
        <ele>1903.07</ele>
        <time>2012-08-03T08:15:12Z</time>
      </trkpt>
      <trkpt lat="46.46463" lon="10.24588">
        <ele>1904.51</ele>
        <time>2012-08-03T08:15:13Z</time>
      </trkpt>
      <trkpt lat="46.46481" lon="10.24598">
        <ele>1905.47</ele>
        <time>2012-08-03T08:15:14Z</time>
      </trkpt>
      <trkpt lat="46.46498" lon="10.24613">
        <ele>1906.91</ele>
        <time>2012-08-03T08:15:15Z</time>
      </trkpt>
      <trkpt lat="46.46514" lon="10.24631">
        <ele>1908.35</ele>
        <time>2012-08-03T08:15:16Z</time>
      </trkpt>
      <trkpt lat="46.46529" lon="10.24649">
        <ele>1910.28</ele>
        <time>2012-08-03T08:15:17Z</time>
      </trkpt>
      <trkpt lat="46.46544" lon="10.24664">
        <ele>1911.24</ele>
        <time>2012-08-03T08:15:18Z</time>
      </trkpt>
      <trkpt lat="46.46559" lon="10.24676">
        <ele>1911.24</ele>
        <time>2012-08-03T08:15:19Z</time>
      </trkpt>
      <trkpt lat="46.46575" lon="10.24682">
        <ele>1912.2</ele>
        <time>2012-08-03T08:15:20Z</time>
      </trkpt>
      <trkpt lat="46.46593" lon="10.24684">
        <ele>1913.64</ele>
        <time>2012-08-03T08:15:21Z</time>
      </trkpt>
      <trkpt lat="46.46611" lon="10.24681">
        <ele>1915.56</ele>
        <time>2012-08-03T08:15:22Z</time>
      </trkpt>
      <trkpt lat="46.46629" lon="10.24676">
        <ele>1916.04</ele>
        <time>2012-08-03T08:15:23Z</time>
      </trkpt>
      <trkpt lat="46.46647" lon="10.2467">
        <ele>1917.97</ele>
        <time>2012-08-03T08:15:24Z</time>
      </trkpt>
      <trkpt lat="46.46665" lon="10.24665">
        <ele>1919.89</ele>
        <time>2012-08-03T08:15:25Z</time>
      </trkpt>
      <trkpt lat="46.46684" lon="10.24664">
        <ele>1920.37</ele>
        <time>2012-08-03T08:15:26Z</time>
      </trkpt>
      <trkpt lat="46.46703" lon="10.24666">
        <ele>1922.29</ele>
        <time>2012-08-03T08:15:27Z</time>
      </trkpt>
      <trkpt lat="46.46721" lon="10.24671">
        <ele>1923.25</ele>
        <time>2012-08-03T08:15:28Z</time>
      </trkpt>
      <trkpt lat="46.46738" lon="10.24679">
        <ele>1924.22</ele>
        <time>2012-08-03T08:15:29Z</time>
      </trkpt>
      <trkpt lat="46.46754" lon="10.24692">
        <ele>1925.66</ele>
        <time>2012-08-03T08:15:30Z</time>
      </trkpt>
      <trkpt lat="46.46768" lon="10.24709">
        <ele>1927.58</ele>
        <time>2012-08-03T08:15:31Z</time>
      </trkpt>
      <trkpt lat="46.4678" lon="10.2473">
        <ele>1929.02</ele>
        <time>2012-08-03T08:15:32Z</time>
      </trkpt>
      <trkpt lat="46.46788" lon="10.24754">
        <ele>1930.95</ele>
        <time>2012-08-03T08:15:33Z</time>
      </trkpt>
      <trkpt lat="46.46794" lon="10.24778">
        <ele>1931.43</ele>
        <time>2012-08-03T08:15:34Z</time>
      </trkpt>
      <trkpt lat="46.46807" lon="10.24822">
        <ele>1931.91</ele>
        <time>2012-08-03T08:15:36Z</time>
      </trkpt>
      <trkpt lat="46.46816" lon="10.24842">
        <ele>1933.83</ele>
        <time>2012-08-03T08:15:37Z</time>
      </trkpt>
      <trkpt lat="46.46827" lon="10.24861">
        <ele>1934.79</ele>
        <time>2012-08-03T08:15:38Z</time>
      </trkpt>
      <trkpt lat="46.46868" lon="10.24916">
        <ele>1938.16</ele>
        <time>2012-08-03T08:15:41Z</time>
      </trkpt>
      <trkpt lat="46.46883" lon="10.24932">
        <ele>1939.6</ele>
        <time>2012-08-03T08:15:42Z</time>
      </trkpt>
      <trkpt lat="46.469" lon="10.24946">
        <ele>1940.56</ele>
        <time>2012-08-03T08:15:43Z</time>
      </trkpt>
      <trkpt lat="46.46917" lon="10.24958">
        <ele>1941.52</ele>
        <time>2012-08-03T08:15:44Z</time>
      </trkpt>
      <trkpt lat="46.46954" lon="10.24978">
        <ele>1944.88</ele>
        <time>2012-08-03T08:15:46Z</time>
      </trkpt>
      <trkpt lat="46.47011" lon="10.25008">
        <ele>1948.73</ele>
        <time>2012-08-03T08:15:49Z</time>
      </trkpt>
      <trkpt lat="46.47047" lon="10.25031">
        <ele>1951.61</ele>
        <time>2012-08-03T08:15:51Z</time>
      </trkpt>
      <trkpt lat="46.47063" lon="10.25046">
        <ele>1952.57</ele>
        <time>2012-08-03T08:15:52Z</time>
      </trkpt>
      <trkpt lat="46.47095" lon="10.25079">
        <ele>1954.98</ele>
        <time>2012-08-03T08:15:54Z</time>
      </trkpt>
      <trkpt lat="46.47112" lon="10.25091">
        <ele>1957.38</ele>
        <time>2012-08-03T08:15:55Z</time>
      </trkpt>
      <trkpt lat="46.4713" lon="10.25101">
        <ele>1958.82</ele>
        <time>2012-08-03T08:15:56Z</time>
      </trkpt>
      <trkpt lat="46.47184" lon="10.25135">
        <ele>1963.15</ele>
        <time>2012-08-03T08:15:59Z</time>
      </trkpt>
      <trkpt lat="46.47199" lon="10.25151">
        <ele>1964.11</ele>
        <time>2012-08-03T08:16:00Z</time>
      </trkpt>
      <trkpt lat="46.47231" lon="10.25185">
        <ele>1968.44</ele>
        <time>2012-08-03T08:16:02Z</time>
      </trkpt>
      <trkpt lat="46.4728" lon="10.25226">
        <ele>1971.8</ele>
        <time>2012-08-03T08:16:05Z</time>
      </trkpt>
      <trkpt lat="46.47297" lon="10.25237">
        <ele>1972.76</ele>
        <time>2012-08-03T08:16:06Z</time>
      </trkpt>
      <trkpt lat="46.47315" lon="10.25246">
        <ele>1974.2</ele>
        <time>2012-08-03T08:16:07Z</time>
      </trkpt>
      <trkpt lat="46.47334" lon="10.25252">
        <ele>1975.65</ele>
        <time>2012-08-03T08:16:08Z</time>
      </trkpt>
      <trkpt lat="46.47353" lon="10.25259">
        <ele>1977.57</ele>
        <time>2012-08-03T08:16:09Z</time>
      </trkpt>
      <trkpt lat="46.4737" lon="10.25267">
        <ele>1978.53</ele>
        <time>2012-08-03T08:16:10Z</time>
      </trkpt>
      <trkpt lat="46.474" lon="10.25277">
        <ele>1978.05</ele>
        <time>2012-08-03T08:16:12Z</time>
      </trkpt>
      <trkpt lat="46.47414" lon="10.25277">
        <ele>1979.49</ele>
        <time>2012-08-03T08:16:13Z</time>
      </trkpt>
      <trkpt lat="46.47429" lon="10.25272">
        <ele>1980.93</ele>
        <time>2012-08-03T08:16:14Z</time>
      </trkpt>
      <trkpt lat="46.47445" lon="10.25264">
        <ele>1982.86</ele>
        <time>2012-08-03T08:16:15Z</time>
      </trkpt>
      <trkpt lat="46.4746" lon="10.25255">
        <ele>1984.3</ele>
        <time>2012-08-03T08:16:16Z</time>
      </trkpt>
      <trkpt lat="46.47476" lon="10.25244">
        <ele>1985.74</ele>
        <time>2012-08-03T08:16:17Z</time>
      </trkpt>
      <trkpt lat="46.47525" lon="10.25211">
        <ele>1989.1</ele>
        <time>2012-08-03T08:16:20Z</time>
      </trkpt>
      <trkpt lat="46.47577" lon="10.25184">
        <ele>1993.43</ele>
        <time>2012-08-03T08:16:23Z</time>
      </trkpt>
      <trkpt lat="46.47594" lon="10.25178">
        <ele>1993.43</ele>
        <time>2012-08-03T08:16:24Z</time>
      </trkpt>
      <trkpt lat="46.47624" lon="10.25165">
        <ele>1994.87</ele>
        <time>2012-08-03T08:16:26Z</time>
      </trkpt>
      <trkpt lat="46.47636" lon="10.25156">
        <ele>1995.83</ele>
        <time>2012-08-03T08:16:27Z</time>
      </trkpt>
      <trkpt lat="46.47647" lon="10.25143">
        <ele>1997.76</ele>
        <time>2012-08-03T08:16:28Z</time>
      </trkpt>
      <trkpt lat="46.47682" lon="10.251">
        <ele>1999.68</ele>
        <time>2012-08-03T08:16:31Z</time>
      </trkpt>
      <trkpt lat="46.47696" lon="10.25089">
        <ele>2001.6</ele>
        <time>2012-08-03T08:16:32Z</time>
      </trkpt>
      <trkpt lat="46.4774" lon="10.2506">
        <ele>2005.93</ele>
        <time>2012-08-03T08:16:35Z</time>
      </trkpt>
      <trkpt lat="46.47754" lon="10.25045">
        <ele>2006.89</ele>
        <time>2012-08-03T08:16:36Z</time>
      </trkpt>
      <trkpt lat="46.47765" lon="10.25027">
        <ele>2009.29</ele>
        <time>2012-08-03T08:16:37Z</time>
      </trkpt>
      <trkpt lat="46.47772" lon="10.25004">
        <ele>2010.73</ele>
        <time>2012-08-03T08:16:38Z</time>
      </trkpt>
      <trkpt lat="46.47778" lon="10.2498">
        <ele>2012.18</ele>
        <time>2012-08-03T08:16:39Z</time>
      </trkpt>
      <trkpt lat="46.47781" lon="10.24955">
        <ele>2013.14</ele>
        <time>2012-08-03T08:16:40Z</time>
      </trkpt>
      <trkpt lat="46.47783" lon="10.24927">
        <ele>2015.06</ele>
        <time>2012-08-03T08:16:41Z</time>
      </trkpt>
      <trkpt lat="46.47793" lon="10.24855">
        <ele>2017.46</ele>
        <time>2012-08-03T08:16:44Z</time>
      </trkpt>
      <trkpt lat="46.47798" lon="10.24833">
        <ele>2019.87</ele>
        <time>2012-08-03T08:16:45Z</time>
      </trkpt>
      <trkpt lat="46.47805" lon="10.24811">
        <ele>2020.83</ele>
        <time>2012-08-03T08:16:46Z</time>
      </trkpt>
      <trkpt lat="46.47814" lon="10.24792">
        <ele>2021.79</ele>
        <time>2012-08-03T08:16:47Z</time>
      </trkpt>
      <trkpt lat="46.47825" lon="10.24775">
        <ele>2022.75</ele>
        <time>2012-08-03T08:16:48Z</time>
      </trkpt>
      <trkpt lat="46.47838" lon="10.2476">
        <ele>2023.71</ele>
        <time>2012-08-03T08:16:49Z</time>
      </trkpt>
      <trkpt lat="46.47852" lon="10.24749">
        <ele>2026.12</ele>
        <time>2012-08-03T08:16:50Z</time>
      </trkpt>
      <trkpt lat="46.47868" lon="10.24739">
        <ele>2027.56</ele>
        <time>2012-08-03T08:16:51Z</time>
      </trkpt>
      <trkpt lat="46.47884" lon="10.24732">
        <ele>2028.52</ele>
        <time>2012-08-03T08:16:52Z</time>
      </trkpt>
      <trkpt lat="46.47914" lon="10.24719">
        <ele>2029.48</ele>
        <time>2012-08-03T08:16:54Z</time>
      </trkpt>
      <trkpt lat="46.47927" lon="10.2471">
        <ele>2029.96</ele>
        <time>2012-08-03T08:16:55Z</time>
      </trkpt>
      <trkpt lat="46.47938" lon="10.24698">
        <ele>2030.92</ele>
        <time>2012-08-03T08:16:56Z</time>
      </trkpt>
      <trkpt lat="46.47947" lon="10.24682">
        <ele>2031.4</ele>
        <time>2012-08-03T08:16:57Z</time>
      </trkpt>
      <trkpt lat="46.47955" lon="10.24662">
        <ele>2033.33</ele>
        <time>2012-08-03T08:16:58Z</time>
      </trkpt>
      <trkpt lat="46.47963" lon="10.24643">
        <ele>2035.25</ele>
        <time>2012-08-03T08:16:59Z</time>
      </trkpt>
      <trkpt lat="46.47973" lon="10.24626">
        <ele>2035.25</ele>
        <time>2012-08-03T08:17:00Z</time>
      </trkpt>
      <trkpt lat="46.47985" lon="10.2461">
        <ele>2037.17</ele>
        <time>2012-08-03T08:17:01Z</time>
      </trkpt>
      <trkpt lat="46.48022" lon="10.24562">
        <ele>2041.5</ele>
        <time>2012-08-03T08:17:04Z</time>
      </trkpt>
      <trkpt lat="46.48051" lon="10.24506">
        <ele>2045.34</ele>
        <time>2012-08-03T08:17:07Z</time>
      </trkpt>
      <trkpt lat="46.48073" lon="10.24449">
        <ele>2047.75</ele>
        <time>2012-08-03T08:17:10Z</time>
      </trkpt>
      <trkpt lat="46.48082" lon="10.24436">
        <ele>2048.71</ele>
        <time>2012-08-03T08:17:11Z</time>
      </trkpt>
      <trkpt lat="46.48093" lon="10.24424">
        <ele>2049.19</ele>
        <time>2012-08-03T08:17:12Z</time>
      </trkpt>
      <trkpt lat="46.48101" lon="10.24411">
        <ele>2050.15</ele>
        <time>2012-08-03T08:17:13Z</time>
      </trkpt>
      <trkpt lat="46.48108" lon="10.24393">
        <ele>2051.59</ele>
        <time>2012-08-03T08:17:14Z</time>
      </trkpt>
      <trkpt lat="46.48114" lon="10.24373">
        <ele>2053.51</ele>
        <time>2012-08-03T08:17:15Z</time>
      </trkpt>
      <trkpt lat="46.4812" lon="10.24352">
        <ele>2054.96</ele>
        <time>2012-08-03T08:17:16Z</time>
      </trkpt>
      <trkpt lat="46.48129" lon="10.24308">
        <ele>2057.36</ele>
        <time>2012-08-03T08:17:18Z</time>
      </trkpt>
      <trkpt lat="46.48131" lon="10.24284">
        <ele>2058.8</ele>
        <time>2012-08-03T08:17:19Z</time>
      </trkpt>
      <trkpt lat="46.48132" lon="10.2426">
        <ele>2060.72</ele>
        <time>2012-08-03T08:17:20Z</time>
      </trkpt>
      <trkpt lat="46.48132" lon="10.24234">
        <ele>2062.65</ele>
        <time>2012-08-03T08:17:21Z</time>
      </trkpt>
      <trkpt lat="46.48131" lon="10.24209">
        <ele>2063.13</ele>
        <time>2012-08-03T08:17:22Z</time>
      </trkpt>
      <trkpt lat="46.48127" lon="10.24134">
        <ele>2067.45</ele>
        <time>2012-08-03T08:17:25Z</time>
      </trkpt>
      <trkpt lat="46.48126" lon="10.2403">
        <ele>2069.86</ele>
        <time>2012-08-03T08:17:30Z</time>
      </trkpt>
      <trkpt lat="46.48127" lon="10.24025">
        <ele>2073.7</ele>
        <time>2012-08-03T08:17:34Z</time>
      </trkpt>
      <trkpt lat="46.48127" lon="10.24017">
        <ele>2077.55</ele>
        <time>2012-08-03T08:17:38Z</time>
      </trkpt>
      <trkpt lat="46.48127" lon="10.24011">
        <ele>2080.43</ele>
        <time>2012-08-03T08:17:41Z</time>
      </trkpt>
      <trkpt lat="46.48128" lon="10.24004">
        <ele>2083.79</ele>
        <time>2012-08-03T08:17:45Z</time>
      </trkpt>
      <trkpt lat="46.48135" lon="10.24006">
        <ele>2084.76</ele>
        <time>2012-08-03T08:17:46Z</time>
      </trkpt>
      <trkpt lat="46.48136" lon="10.24003">
        <ele>2086.2</ele>
        <time>2012-08-03T08:17:49Z</time>
      </trkpt>
      <trkpt lat="46.48266" lon="10.23571">
        <ele>2086.2</ele>
        <time>2012-08-03T08:17:50Z</time>
      </trkpt>
      <trkpt lat="46.48285" lon="10.23505">
        <ele>2087.64</ele>
        <time>2012-08-03T08:17:53Z</time>
      </trkpt>
      <trkpt lat="46.483" lon="10.23448">
        <ele>2090.04</ele>
        <time>2012-08-03T08:17:57Z</time>
      </trkpt>
      <trkpt lat="46.48341" lon="10.23531">
        <ele>2090.52</ele>
        <time>2012-08-03T08:17:58Z</time>
      </trkpt>
      <trkpt lat="46.48365" lon="10.23505">
        <ele>2091.49</ele>
        <time>2012-08-03T08:18:00Z</time>
      </trkpt>
      <trkpt lat="46.48369" lon="10.23487">
        <ele>2091.49</ele>
        <time>2012-08-03T08:18:01Z</time>
      </trkpt>
      <trkpt lat="46.48372" lon="10.23469">
        <ele>2093.41</ele>
        <time>2012-08-03T08:18:02Z</time>
      </trkpt>
      <trkpt lat="46.48377" lon="10.23433">
        <ele>2094.37</ele>
        <time>2012-08-03T08:18:04Z</time>
      </trkpt>
      <trkpt lat="46.48386" lon="10.23403">
        <ele>2096.29</ele>
        <time>2012-08-03T08:18:06Z</time>
      </trkpt>
      <trkpt lat="46.48394" lon="10.23367">
        <ele>2097.25</ele>
        <time>2012-08-03T08:18:08Z</time>
      </trkpt>
      <trkpt lat="46.4842" lon="10.23264">
        <ele>2100.14</ele>
        <time>2012-08-03T08:18:14Z</time>
      </trkpt>
      <trkpt lat="46.48452" lon="10.23118">
        <ele>2103.98</ele>
        <time>2012-08-03T08:18:21Z</time>
      </trkpt>
      <trkpt lat="46.48412" lon="10.22999">
        <ele>2106.39</ele>
        <time>2012-08-03T08:18:28Z</time>
      </trkpt>
      <trkpt lat="46.48391" lon="10.22983">
        <ele>2106.39</ele>
        <time>2012-08-03T08:18:29Z</time>
      </trkpt>
      <trkpt lat="46.48429" lon="10.22889">
        <ele>2109.27</ele>
        <time>2012-08-03T08:18:34Z</time>
      </trkpt>
      <trkpt lat="46.48448" lon="10.2284">
        <ele>2110.71</ele>
        <time>2012-08-03T08:18:37Z</time>
      </trkpt>
      <trkpt lat="46.4845" lon="10.22823">
        <ele>2110.71</ele>
        <time>2012-08-03T08:18:38Z</time>
      </trkpt>
      <trkpt lat="46.4845" lon="10.22804">
        <ele>2111.19</ele>
        <time>2012-08-03T08:18:39Z</time>
      </trkpt>
      <trkpt lat="46.48448" lon="10.22786">
        <ele>2111.19</ele>
        <time>2012-08-03T08:18:40Z</time>
      </trkpt>
      <trkpt lat="46.48444" lon="10.22767">
        <ele>2113.12</ele>
        <time>2012-08-03T08:18:41Z</time>
      </trkpt>
      <trkpt lat="46.48438" lon="10.22748">
        <ele>2115.04</ele>
        <time>2012-08-03T08:18:42Z</time>
      </trkpt>
      <trkpt lat="46.48432" lon="10.22729">
        <ele>2116</ele>
        <time>2012-08-03T08:18:43Z</time>
      </trkpt>
      <trkpt lat="46.48411" lon="10.22662">
        <ele>2118.88</ele>
        <time>2012-08-03T08:18:46Z</time>
      </trkpt>
      <trkpt lat="46.484" lon="10.22617">
        <ele>2121.29</ele>
        <time>2012-08-03T08:18:48Z</time>
      </trkpt>
      <trkpt lat="46.48398" lon="10.22592">
        <ele>2122.73</ele>
        <time>2012-08-03T08:18:49Z</time>
      </trkpt>
      <trkpt lat="46.48399" lon="10.22567">
        <ele>2124.17</ele>
        <time>2012-08-03T08:18:50Z</time>
      </trkpt>
      <trkpt lat="46.48403" lon="10.22519">
        <ele>2126.09</ele>
        <time>2012-08-03T08:18:52Z</time>
      </trkpt>
      <trkpt lat="46.48403" lon="10.22495">
        <ele>2128.02</ele>
        <time>2012-08-03T08:18:53Z</time>
      </trkpt>
      <trkpt lat="46.484" lon="10.22471">
        <ele>2128.98</ele>
        <time>2012-08-03T08:18:54Z</time>
      </trkpt>
      <trkpt lat="46.48393" lon="10.22448">
        <ele>2130.9</ele>
        <time>2012-08-03T08:18:55Z</time>
      </trkpt>
      <trkpt lat="46.48386" lon="10.22424">
        <ele>2131.86</ele>
        <time>2012-08-03T08:18:56Z</time>
      </trkpt>
      <trkpt lat="46.4837" lon="10.22377">
        <ele>2135.23</ele>
        <time>2012-08-03T08:18:58Z</time>
      </trkpt>
      <trkpt lat="46.48356" lon="10.22324">
        <ele>2139.07</ele>
        <time>2012-08-03T08:19:00Z</time>
      </trkpt>
      <trkpt lat="46.48341" lon="10.22217">
        <ele>2140.99</ele>
        <time>2012-08-03T08:19:05Z</time>
      </trkpt>
      <trkpt lat="46.48343" lon="10.22201">
        <ele>2140.99</ele>
        <time>2012-08-03T08:19:06Z</time>
      </trkpt>
      <trkpt lat="46.48348" lon="10.22187">
        <ele>2141.95</ele>
        <time>2012-08-03T08:19:07Z</time>
      </trkpt>
      <trkpt lat="46.48356" lon="10.22177">
        <ele>2142.44</ele>
        <time>2012-08-03T08:19:08Z</time>
      </trkpt>
      <trkpt lat="46.48366" lon="10.2217">
        <ele>2143.88</ele>
        <time>2012-08-03T08:19:09Z</time>
      </trkpt>
      <trkpt lat="46.48377" lon="10.22169">
        <ele>2144.84</ele>
        <time>2012-08-03T08:19:10Z</time>
      </trkpt>
      <trkpt lat="46.48391" lon="10.22172">
        <ele>2147.24</ele>
        <time>2012-08-03T08:19:11Z</time>
      </trkpt>
      <trkpt lat="46.48405" lon="10.22176">
        <ele>2148.68</ele>
        <time>2012-08-03T08:19:12Z</time>
      </trkpt>
      <trkpt lat="46.48433" lon="10.22181">
        <ele>2150.61</ele>
        <time>2012-08-03T08:19:14Z</time>
      </trkpt>
      <trkpt lat="46.48448" lon="10.22179">
        <ele>2153.01</ele>
        <time>2012-08-03T08:19:15Z</time>
      </trkpt>
      <trkpt lat="46.48463" lon="10.22176">
        <ele>2153.97</ele>
        <time>2012-08-03T08:19:16Z</time>
      </trkpt>
      <trkpt lat="46.48511" lon="10.22163">
        <ele>2157.34</ele>
        <time>2012-08-03T08:19:19Z</time>
      </trkpt>
      <trkpt lat="46.48574" lon="10.22146">
        <ele>2160.7</ele>
        <time>2012-08-03T08:19:24Z</time>
      </trkpt>
      <trkpt lat="46.48578" lon="10.22143">
        <ele>2164.55</ele>
        <time>2012-08-03T08:19:28Z</time>
      </trkpt>
      <trkpt lat="46.48582" lon="10.22141">
        <ele>2168.39</ele>
        <time>2012-08-03T08:19:31Z</time>
      </trkpt>
      <trkpt lat="46.48741" lon="10.22096">
        <ele>2171.27</ele>
        <time>2012-08-03T08:19:36Z</time>
      </trkpt>
      <trkpt lat="46.48748" lon="10.22087">
        <ele>2171.76</ele>
        <time>2012-08-03T08:19:37Z</time>
      </trkpt>
      <trkpt lat="46.48758" lon="10.22083">
        <ele>2172.24</ele>
        <time>2012-08-03T08:19:38Z</time>
      </trkpt>
      <trkpt lat="46.4877" lon="10.2208">
        <ele>2173.2</ele>
        <time>2012-08-03T08:19:39Z</time>
      </trkpt>
      <trkpt lat="46.48782" lon="10.22077">
        <ele>2174.64</ele>
        <time>2012-08-03T08:19:40Z</time>
      </trkpt>
      <trkpt lat="46.48794" lon="10.22072">
        <ele>2176.08</ele>
        <time>2012-08-03T08:19:41Z</time>
      </trkpt>
      <trkpt lat="46.48805" lon="10.22062">
        <ele>2178</ele>
        <time>2012-08-03T08:19:42Z</time>
      </trkpt>
      <trkpt lat="46.48838" lon="10.22038">
        <ele>2180.41</ele>
        <time>2012-08-03T08:19:45Z</time>
      </trkpt>
      <trkpt lat="46.48846" lon="10.22026">
        <ele>2181.37</ele>
        <time>2012-08-03T08:19:46Z</time>
      </trkpt>
      <trkpt lat="46.48856" lon="10.22009">
        <ele>2183.29</ele>
        <time>2012-08-03T08:19:47Z</time>
      </trkpt>
      <trkpt lat="46.48864" lon="10.2199">
        <ele>2183.77</ele>
        <time>2012-08-03T08:19:48Z</time>
      </trkpt>
      <trkpt lat="46.48871" lon="10.2197">
        <ele>2185.69</ele>
        <time>2012-08-03T08:19:49Z</time>
      </trkpt>
      <trkpt lat="46.48892" lon="10.21913">
        <ele>2187.62</ele>
        <time>2012-08-03T08:19:52Z</time>
      </trkpt>
      <trkpt lat="46.48901" lon="10.21897">
        <ele>2188.58</ele>
        <time>2012-08-03T08:19:53Z</time>
      </trkpt>
      <trkpt lat="46.48919" lon="10.2187">
        <ele>2189.54</ele>
        <time>2012-08-03T08:19:55Z</time>
      </trkpt>
      <trkpt lat="46.48941" lon="10.21833">
        <ele>2191.46</ele>
        <time>2012-08-03T08:19:58Z</time>
      </trkpt>
      <trkpt lat="46.48946" lon="10.2182">
        <ele>2192.42</ele>
        <time>2012-08-03T08:19:59Z</time>
      </trkpt>
      <trkpt lat="46.48954" lon="10.21793">
        <ele>2194.35</ele>
        <time>2012-08-03T08:20:01Z</time>
      </trkpt>
      <trkpt lat="46.48956" lon="10.21779">
        <ele>2194.83</ele>
        <time>2012-08-03T08:20:02Z</time>
      </trkpt>
      <trkpt lat="46.4896" lon="10.21732">
        <ele>2197.71</ele>
        <time>2012-08-03T08:20:05Z</time>
      </trkpt>
      <trkpt lat="46.48964" lon="10.21672">
        <ele>2201.08</ele>
        <time>2012-08-03T08:20:09Z</time>
      </trkpt>
      <trkpt lat="46.48967" lon="10.21659">
        <ele>2201.08</ele>
        <time>2012-08-03T08:20:10Z</time>
      </trkpt>
      <trkpt lat="46.48972" lon="10.21647">
        <ele>2202.04</ele>
        <time>2012-08-03T08:20:11Z</time>
      </trkpt>
      <trkpt lat="46.48978" lon="10.21636">
        <ele>2203</ele>
        <time>2012-08-03T08:20:12Z</time>
      </trkpt>
      <trkpt lat="46.48985" lon="10.21627">
        <ele>2203</ele>
        <time>2012-08-03T08:20:13Z</time>
      </trkpt>
      <trkpt lat="46.48992" lon="10.21619">
        <ele>2203.96</ele>
        <time>2012-08-03T08:20:14Z</time>
      </trkpt>
      <trkpt lat="46.49" lon="10.21612">
        <ele>2204.92</ele>
        <time>2012-08-03T08:20:15Z</time>
      </trkpt>
      <trkpt lat="46.49009" lon="10.21604">
        <ele>2205.88</ele>
        <time>2012-08-03T08:20:16Z</time>
      </trkpt>
      <trkpt lat="46.49018" lon="10.21598">
        <ele>2205.88</ele>
        <time>2012-08-03T08:20:17Z</time>
      </trkpt>
      <trkpt lat="46.49065" lon="10.21565">
        <ele>2208.77</ele>
        <time>2012-08-03T08:20:22Z</time>
      </trkpt>
      <trkpt lat="46.49116" lon="10.21528">
        <ele>2211.65</ele>
        <time>2012-08-03T08:20:27Z</time>
      </trkpt>
      <trkpt lat="46.49171" lon="10.2148">
        <ele>2215.5</ele>
        <time>2012-08-03T08:20:32Z</time>
      </trkpt>
      <trkpt lat="46.49191" lon="10.21454">
        <ele>2216.46</ele>
        <time>2012-08-03T08:20:34Z</time>
      </trkpt>
      <trkpt lat="46.492" lon="10.21439">
        <ele>2217.42</ele>
        <time>2012-08-03T08:20:35Z</time>
      </trkpt>
      <trkpt lat="46.49224" lon="10.21394">
        <ele>2220.78</ele>
        <time>2012-08-03T08:20:38Z</time>
      </trkpt>
      <trkpt lat="46.49248" lon="10.2135">
        <ele>2223.67</ele>
        <time>2012-08-03T08:20:41Z</time>
      </trkpt>
      <trkpt lat="46.49289" lon="10.21275">
        <ele>2227.51</ele>
        <time>2012-08-03T08:20:46Z</time>
      </trkpt>
      <trkpt lat="46.49316" lon="10.21231">
        <ele>2230.88</ele>
        <time>2012-08-03T08:20:49Z</time>
      </trkpt>
      <trkpt lat="46.49347" lon="10.21171">
        <ele>2233.76</ele>
        <time>2012-08-03T08:20:53Z</time>
      </trkpt>
      <trkpt lat="46.49377" lon="10.21112">
        <ele>2237.61</ele>
        <time>2012-08-03T08:20:57Z</time>
      </trkpt>
      <trkpt lat="46.49404" lon="10.21061">
        <ele>2240.01</ele>
        <time>2012-08-03T08:21:01Z</time>
      </trkpt>
      <trkpt lat="46.49415" lon="10.21045">
        <ele>2240.97</ele>
        <time>2012-08-03T08:21:03Z</time>
      </trkpt>
      <trkpt lat="46.49435" lon="10.21017">
        <ele>2242.89</ele>
        <time>2012-08-03T08:21:07Z</time>
      </trkpt>
      <trkpt lat="46.49447" lon="10.20999">
        <ele>2243.37</ele>
        <time>2012-08-03T08:21:14Z</time>
      </trkpt>
      <trkpt lat="46.49448" lon="10.20999">
        <ele>2243.85</ele>
        <time>2012-08-03T08:21:31Z</time>
      </trkpt>
      <trkpt lat="46.49448" lon="10.21">
        <ele>2244.33</ele>
        <time>2012-08-03T08:21:53Z</time>
      </trkpt>
      <trkpt lat="46.49449" lon="10.21">
        <ele>2245.3</ele>
        <time>2012-08-03T08:22:27Z</time>
      </trkpt>
      <trkpt lat="46.49448" lon="10.20999">
        <ele>2245.3</ele>
        <time>2012-08-03T08:22:58Z</time>
      </trkpt>
      <trkpt lat="46.49448" lon="10.20999">
        <ele>2245.78</ele>
        <time>2012-08-03T08:23:23Z</time>
      </trkpt>
      <trkpt lat="46.49448" lon="10.20999">
        <ele>2246.74</ele>
        <time>2012-08-03T08:23:53Z</time>
      </trkpt>
      <trkpt lat="46.49449" lon="10.20999">
        <ele>2247.22</ele>
        <time>2012-08-03T08:24:23Z</time>
      </trkpt>
      <trkpt lat="46.4945" lon="10.21">
        <ele>2247.22</ele>
        <time>2012-08-03T08:24:49Z</time>
      </trkpt>
      <trkpt lat="46.49452" lon="10.20995">
        <ele>2248.18</ele>
        <time>2012-08-03T08:24:59Z</time>
      </trkpt>
      <trkpt lat="46.49455" lon="10.20987">
        <ele>2249.14</ele>
        <time>2012-08-03T08:25:00Z</time>
      </trkpt>
      <trkpt lat="46.49459" lon="10.20976">
        <ele>2250.1</ele>
        <time>2012-08-03T08:25:01Z</time>
      </trkpt>
      <trkpt lat="46.49476" lon="10.20933">
        <ele>2252.03</ele>
        <time>2012-08-03T08:25:05Z</time>
      </trkpt>
      <trkpt lat="46.4948" lon="10.20925">
        <ele>2252.51</ele>
        <time>2012-08-03T08:25:06Z</time>
      </trkpt>
      <trkpt lat="46.49486" lon="10.20918">
        <ele>2252.99</ele>
        <time>2012-08-03T08:25:07Z</time>
      </trkpt>
      <trkpt lat="46.49503" lon="10.20897">
        <ele>2254.43</ele>
        <time>2012-08-03T08:25:10Z</time>
      </trkpt>
      <trkpt lat="46.49555" lon="10.20844">
        <ele>2257.79</ele>
        <time>2012-08-03T08:25:16Z</time>
      </trkpt>
      <trkpt lat="46.49567" lon="10.20834">
        <ele>2258.75</ele>
        <time>2012-08-03T08:25:17Z</time>
      </trkpt>
      <trkpt lat="46.4958" lon="10.20827">
        <ele>2257.79</ele>
        <time>2012-08-03T08:25:18Z</time>
      </trkpt>
      <trkpt lat="46.4966" lon="10.20767">
        <ele>2257.31</ele>
        <time>2012-08-03T08:25:26Z</time>
      </trkpt>
      <trkpt lat="46.49671" lon="10.20759">
        <ele>2257.31</ele>
        <time>2012-08-03T08:25:27Z</time>
      </trkpt>
      <trkpt lat="46.49737" lon="10.20717">
        <ele>2254.43</ele>
        <time>2012-08-03T08:25:32Z</time>
      </trkpt>
      <trkpt lat="46.49782" lon="10.20695">
        <ele>2250.1</ele>
        <time>2012-08-03T08:25:35Z</time>
      </trkpt>
      <trkpt lat="46.49821" lon="10.20675">
        <ele>2247.22</ele>
        <time>2012-08-03T08:25:38Z</time>
      </trkpt>
      <trkpt lat="46.49835" lon="10.20671">
        <ele>2246.74</ele>
        <time>2012-08-03T08:25:39Z</time>
      </trkpt>
      <trkpt lat="46.4985" lon="10.2067">
        <ele>2245.78</ele>
        <time>2012-08-03T08:25:40Z</time>
      </trkpt>
      <trkpt lat="46.49893" lon="10.20664">
        <ele>2242.89</ele>
        <time>2012-08-03T08:25:43Z</time>
      </trkpt>
      <trkpt lat="46.49906" lon="10.2066">
        <ele>2241.45</ele>
        <time>2012-08-03T08:25:44Z</time>
      </trkpt>
      <trkpt lat="46.4994" lon="10.2065">
        <ele>2238.57</ele>
        <time>2012-08-03T08:25:47Z</time>
      </trkpt>
      <trkpt lat="46.49956" lon="10.20647">
        <ele>2237.13</ele>
        <time>2012-08-03T08:25:49Z</time>
      </trkpt>
      <trkpt lat="46.49962" lon="10.20643">
        <ele>2237.13</ele>
        <time>2012-08-03T08:25:50Z</time>
      </trkpt>
      <trkpt lat="46.49964" lon="10.20636">
        <ele>2237.13</ele>
        <time>2012-08-03T08:25:51Z</time>
      </trkpt>
      <trkpt lat="46.49962" lon="10.20629">
        <ele>2237.13</ele>
        <time>2012-08-03T08:25:52Z</time>
      </trkpt>
      <trkpt lat="46.49955" lon="10.20624">
        <ele>2237.61</ele>
        <time>2012-08-03T08:25:53Z</time>
      </trkpt>
      <trkpt lat="46.49946" lon="10.20626">
        <ele>2237.61</ele>
        <time>2012-08-03T08:25:54Z</time>
      </trkpt>
      <trkpt lat="46.49934" lon="10.20631">
        <ele>2237.13</ele>
        <time>2012-08-03T08:25:55Z</time>
      </trkpt>
      <trkpt lat="46.49883" lon="10.20644">
        <ele>2234.72</ele>
        <time>2012-08-03T08:25:59Z</time>
      </trkpt>
      <trkpt lat="46.4983" lon="10.20643">
        <ele>2230.88</ele>
        <time>2012-08-03T08:26:03Z</time>
      </trkpt>
      <trkpt lat="46.49819" lon="10.20644">
        <ele>2230.88</ele>
        <time>2012-08-03T08:26:04Z</time>
      </trkpt>
      <trkpt lat="46.49799" lon="10.20641">
        <ele>2227.51</ele>
        <time>2012-08-03T08:26:06Z</time>
      </trkpt>
      <trkpt lat="46.49792" lon="10.20636">
        <ele>2226.07</ele>
        <time>2012-08-03T08:26:07Z</time>
      </trkpt>
      <trkpt lat="46.49786" lon="10.20627">
        <ele>2225.59</ele>
        <time>2012-08-03T08:26:08Z</time>
      </trkpt>
      <trkpt lat="46.49783" lon="10.20613">
        <ele>2225.11</ele>
        <time>2012-08-03T08:26:09Z</time>
      </trkpt>
      <trkpt lat="46.49784" lon="10.20598">
        <ele>2224.63</ele>
        <time>2012-08-03T08:26:10Z</time>
      </trkpt>
      <trkpt lat="46.49791" lon="10.20585">
        <ele>2224.63</ele>
        <time>2012-08-03T08:26:11Z</time>
      </trkpt>
      <trkpt lat="46.49803" lon="10.20575">
        <ele>2224.15</ele>
        <time>2012-08-03T08:26:12Z</time>
      </trkpt>
      <trkpt lat="46.49817" lon="10.20569">
        <ele>2223.67</ele>
        <time>2012-08-03T08:26:13Z</time>
      </trkpt>
      <trkpt lat="46.49877" lon="10.2054">
        <ele>2220.3</ele>
        <time>2012-08-03T08:26:17Z</time>
      </trkpt>
      <trkpt lat="46.49938" lon="10.20501">
        <ele>2216.46</ele>
        <time>2012-08-03T08:26:21Z</time>
      </trkpt>
      <trkpt lat="46.49953" lon="10.20487">
        <ele>2215.5</ele>
        <time>2012-08-03T08:26:22Z</time>
      </trkpt>
      <trkpt lat="46.49967" lon="10.20472">
        <ele>2214.05</ele>
        <time>2012-08-03T08:26:23Z</time>
      </trkpt>
      <trkpt lat="46.4998" lon="10.20455">
        <ele>2213.09</ele>
        <time>2012-08-03T08:26:24Z</time>
      </trkpt>
      <trkpt lat="46.49992" lon="10.20437">
        <ele>2211.65</ele>
        <time>2012-08-03T08:26:25Z</time>
      </trkpt>
      <trkpt lat="46.50004" lon="10.20419">
        <ele>2210.69</ele>
        <time>2012-08-03T08:26:26Z</time>
      </trkpt>
      <trkpt lat="46.50025" lon="10.20387">
        <ele>2206.84</ele>
        <time>2012-08-03T08:26:28Z</time>
      </trkpt>
      <trkpt lat="46.5006" lon="10.20347">
        <ele>2203.48</ele>
        <time>2012-08-03T08:26:31Z</time>
      </trkpt>
      <trkpt lat="46.50073" lon="10.20335">
        <ele>2203.96</ele>
        <time>2012-08-03T08:26:32Z</time>
      </trkpt>
      <trkpt lat="46.50152" lon="10.20279">
        <ele>2199.63</ele>
        <time>2012-08-03T08:26:37Z</time>
      </trkpt>
      <trkpt lat="46.50215" lon="10.20234">
        <ele>2195.31</ele>
        <time>2012-08-03T08:26:41Z</time>
      </trkpt>
      <trkpt lat="46.50265" lon="10.20204">
        <ele>2191.46</ele>
        <time>2012-08-03T08:26:44Z</time>
      </trkpt>
      <trkpt lat="46.50302" lon="10.20185">
        <ele>2187.14</ele>
        <time>2012-08-03T08:26:46Z</time>
      </trkpt>
      <trkpt lat="46.5032" lon="10.20176">
        <ele>2180.89</ele>
        <time>2012-08-03T08:26:47Z</time>
      </trkpt>
      <trkpt lat="46.50339" lon="10.20168">
        <ele>2187.62</ele>
        <time>2012-08-03T08:26:48Z</time>
      </trkpt>
      <trkpt lat="46.50377" lon="10.20154">
        <ele>2183.77</ele>
        <time>2012-08-03T08:26:50Z</time>
      </trkpt>
      <trkpt lat="46.50452" lon="10.20116">
        <ele>2179.93</ele>
        <time>2012-08-03T08:26:54Z</time>
      </trkpt>
      <trkpt lat="46.50531" lon="10.20064">
        <ele>2176.08</ele>
        <time>2012-08-03T08:26:58Z</time>
      </trkpt>
      <trkpt lat="46.50593" lon="10.20023">
        <ele>2172.72</ele>
        <time>2012-08-03T08:27:01Z</time>
      </trkpt>
      <trkpt lat="46.50656" lon="10.19984">
        <ele>2169.35</ele>
        <time>2012-08-03T08:27:04Z</time>
      </trkpt>
      <trkpt lat="46.50697" lon="10.19962">
        <ele>2165.51</ele>
        <time>2012-08-03T08:27:06Z</time>
      </trkpt>
      <trkpt lat="46.50753" lon="10.19931">
        <ele>2162.62</ele>
        <time>2012-08-03T08:27:09Z</time>
      </trkpt>
      <trkpt lat="46.508" lon="10.199">
        <ele>2158.3</ele>
        <time>2012-08-03T08:27:12Z</time>
      </trkpt>
      <trkpt lat="46.50815" lon="10.19888">
        <ele>2157.82</ele>
        <time>2012-08-03T08:27:13Z</time>
      </trkpt>
      <trkpt lat="46.50829" lon="10.19873">
        <ele>2156.37</ele>
        <time>2012-08-03T08:27:14Z</time>
      </trkpt>
      <trkpt lat="46.50843" lon="10.19857">
        <ele>2156.37</ele>
        <time>2012-08-03T08:27:15Z</time>
      </trkpt>
      <trkpt lat="46.5087" lon="10.19825">
        <ele>2153.01</ele>
        <time>2012-08-03T08:27:17Z</time>
      </trkpt>
      <trkpt lat="46.509" lon="10.19796">
        <ele>2150.13</ele>
        <time>2012-08-03T08:27:19Z</time>
      </trkpt>
      <trkpt lat="46.50951" lon="10.1976">
        <ele>2145.8</ele>
        <time>2012-08-03T08:27:22Z</time>
      </trkpt>
      <trkpt lat="46.50984" lon="10.19738">
        <ele>2142.44</ele>
        <time>2012-08-03T08:27:24Z</time>
      </trkpt>
      <trkpt lat="46.51015" lon="10.19713">
        <ele>2139.07</ele>
        <time>2012-08-03T08:27:26Z</time>
      </trkpt>
      <trkpt lat="46.5103" lon="10.19696">
        <ele>2138.11</ele>
        <time>2012-08-03T08:27:27Z</time>
      </trkpt>
      <trkpt lat="46.51044" lon="10.19676">
        <ele>2137.63</ele>
        <time>2012-08-03T08:27:28Z</time>
      </trkpt>
      <trkpt lat="46.5107" lon="10.19635">
        <ele>2133.3</ele>
        <time>2012-08-03T08:27:30Z</time>
      </trkpt>
      <trkpt lat="46.51099" lon="10.19598">
        <ele>2129.46</ele>
        <time>2012-08-03T08:27:32Z</time>
      </trkpt>
      <trkpt lat="46.51116" lon="10.19583">
        <ele>2128.5</ele>
        <time>2012-08-03T08:27:33Z</time>
      </trkpt>
      <trkpt lat="46.5115" lon="10.19557">
        <ele>2124.65</ele>
        <time>2012-08-03T08:27:35Z</time>
      </trkpt>
      <trkpt lat="46.51203" lon="10.19517">
        <ele>2120.32</ele>
        <time>2012-08-03T08:27:38Z</time>
      </trkpt>
      <trkpt lat="46.51237" lon="10.19489">
        <ele>2116.96</ele>
        <time>2012-08-03T08:27:40Z</time>
      </trkpt>
      <trkpt lat="46.51267" lon="10.19455">
        <ele>2113.12</ele>
        <time>2012-08-03T08:27:42Z</time>
      </trkpt>
      <trkpt lat="46.5128" lon="10.19434">
        <ele>2112.15</ele>
        <time>2012-08-03T08:27:43Z</time>
      </trkpt>
      <trkpt lat="46.51304" lon="10.19388">
        <ele>2107.83</ele>
        <time>2012-08-03T08:27:45Z</time>
      </trkpt>
      <trkpt lat="46.51341" lon="10.1932">
        <ele>2103.5</ele>
        <time>2012-08-03T08:27:48Z</time>
      </trkpt>
      <trkpt lat="46.51355" lon="10.19298">
        <ele>2102.06</ele>
        <time>2012-08-03T08:27:49Z</time>
      </trkpt>
      <trkpt lat="46.51371" lon="10.19278">
        <ele>2100.14</ele>
        <time>2012-08-03T08:27:50Z</time>
      </trkpt>
      <trkpt lat="46.51419" lon="10.19225">
        <ele>2096.77</ele>
        <time>2012-08-03T08:27:53Z</time>
      </trkpt>
      <trkpt lat="46.51452" lon="10.19193">
        <ele>2093.41</ele>
        <time>2012-08-03T08:27:55Z</time>
      </trkpt>
      <trkpt lat="46.51485" lon="10.19161">
        <ele>2088.6</ele>
        <time>2012-08-03T08:27:57Z</time>
      </trkpt>
      <trkpt lat="46.51499" lon="10.19144">
        <ele>2087.64</ele>
        <time>2012-08-03T08:27:58Z</time>
      </trkpt>
      <trkpt lat="46.51512" lon="10.19125">
        <ele>2086.68</ele>
        <time>2012-08-03T08:27:59Z</time>
      </trkpt>
      <trkpt lat="46.51544" lon="10.19069">
        <ele>2082.35</ele>
        <time>2012-08-03T08:28:02Z</time>
      </trkpt>
      <trkpt lat="46.51557" lon="10.19053">
        <ele>2080.91</ele>
        <time>2012-08-03T08:28:03Z</time>
      </trkpt>
      <trkpt lat="46.51572" lon="10.19041">
        <ele>2079.95</ele>
        <time>2012-08-03T08:28:04Z</time>
      </trkpt>
      <trkpt lat="46.51601" lon="10.19021">
        <ele>2077.55</ele>
        <time>2012-08-03T08:28:06Z</time>
      </trkpt>
      <trkpt lat="46.51624" lon="10.19001">
        <ele>2073.22</ele>
        <time>2012-08-03T08:28:08Z</time>
      </trkpt>
      <trkpt lat="46.51633" lon="10.18988">
        <ele>2072.26</ele>
        <time>2012-08-03T08:28:09Z</time>
      </trkpt>
      <trkpt lat="46.5164" lon="10.18972">
        <ele>2072.26</ele>
        <time>2012-08-03T08:28:10Z</time>
      </trkpt>
      <trkpt lat="46.51643" lon="10.18952">
        <ele>2071.3</ele>
        <time>2012-08-03T08:28:11Z</time>
      </trkpt>
      <trkpt lat="46.51643" lon="10.18929">
        <ele>2070.82</ele>
        <time>2012-08-03T08:28:12Z</time>
      </trkpt>
      <trkpt lat="46.51641" lon="10.18906">
        <ele>2069.86</ele>
        <time>2012-08-03T08:28:13Z</time>
      </trkpt>
      <trkpt lat="46.51637" lon="10.18859">
        <ele>2065.53</ele>
        <time>2012-08-03T08:28:15Z</time>
      </trkpt>
      <trkpt lat="46.51636" lon="10.18815">
        <ele>2062.17</ele>
        <time>2012-08-03T08:28:17Z</time>
      </trkpt>
      <trkpt lat="46.51638" lon="10.18793">
        <ele>2061.2</ele>
        <time>2012-08-03T08:28:18Z</time>
      </trkpt>
      <trkpt lat="46.51642" lon="10.18773">
        <ele>2060.72</ele>
        <time>2012-08-03T08:28:19Z</time>
      </trkpt>
      <trkpt lat="46.51648" lon="10.18755">
        <ele>2057.84</ele>
        <time>2012-08-03T08:28:20Z</time>
      </trkpt>
      <trkpt lat="46.51656" lon="10.18737">
        <ele>2057.36</ele>
        <time>2012-08-03T08:28:21Z</time>
      </trkpt>
      <trkpt lat="46.51665" lon="10.18722">
        <ele>2055.92</ele>
        <time>2012-08-03T08:28:22Z</time>
      </trkpt>
      <trkpt lat="46.51674" lon="10.18709">
        <ele>2054.47</ele>
        <time>2012-08-03T08:28:23Z</time>
      </trkpt>
      <trkpt lat="46.51684" lon="10.18697">
        <ele>2053.51</ele>
        <time>2012-08-03T08:28:24Z</time>
      </trkpt>
      <trkpt lat="46.5172" lon="10.18649">
        <ele>2049.19</ele>
        <time>2012-08-03T08:28:28Z</time>
      </trkpt>
      <trkpt lat="46.51755" lon="10.186">
        <ele>2045.82</ele>
        <time>2012-08-03T08:28:32Z</time>
      </trkpt>
      <trkpt lat="46.51801" lon="10.18523">
        <ele>2041.98</ele>
        <time>2012-08-03T08:28:38Z</time>
      </trkpt>
      <trkpt lat="46.51818" lon="10.18486">
        <ele>2038.13</ele>
        <time>2012-08-03T08:28:41Z</time>
      </trkpt>
      <trkpt lat="46.51821" lon="10.18477">
        <ele>2037.17</ele>
        <time>2012-08-03T08:28:42Z</time>
      </trkpt>
      <trkpt lat="46.51824" lon="10.18468">
        <ele>2037.17</ele>
        <time>2012-08-03T08:28:43Z</time>
      </trkpt>
      <trkpt lat="46.51825" lon="10.1846">
        <ele>2036.69</ele>
        <time>2012-08-03T08:28:44Z</time>
      </trkpt>
      <trkpt lat="46.51825" lon="10.18452">
        <ele>2035.73</ele>
        <time>2012-08-03T08:28:45Z</time>
      </trkpt>
      <trkpt lat="46.51824" lon="10.18443">
        <ele>2035.25</ele>
        <time>2012-08-03T08:28:46Z</time>
      </trkpt>
      <trkpt lat="46.51822" lon="10.18434">
        <ele>2035.25</ele>
        <time>2012-08-03T08:28:47Z</time>
      </trkpt>
      <trkpt lat="46.51818" lon="10.18426">
        <ele>2034.29</ele>
        <time>2012-08-03T08:28:48Z</time>
      </trkpt>
      <trkpt lat="46.51812" lon="10.18418">
        <ele>2033.81</ele>
        <time>2012-08-03T08:28:49Z</time>
      </trkpt>
      <trkpt lat="46.51805" lon="10.18411">
        <ele>2033.33</ele>
        <time>2012-08-03T08:28:50Z</time>
      </trkpt>
      <trkpt lat="46.51797" lon="10.18405">
        <ele>2032.84</ele>
        <time>2012-08-03T08:28:51Z</time>
      </trkpt>
      <trkpt lat="46.51788" lon="10.18399">
        <ele>2031.88</ele>
        <time>2012-08-03T08:28:52Z</time>
      </trkpt>
      <trkpt lat="46.51779" lon="10.18392">
        <ele>2031.88</ele>
        <time>2012-08-03T08:28:53Z</time>
      </trkpt>
      <trkpt lat="46.5177" lon="10.18383">
        <ele>2030.92</ele>
        <time>2012-08-03T08:28:54Z</time>
      </trkpt>
      <trkpt lat="46.51762" lon="10.18371">
        <ele>2030.44</ele>
        <time>2012-08-03T08:28:55Z</time>
      </trkpt>
      <trkpt lat="46.51756" lon="10.18355">
        <ele>2029.96</ele>
        <time>2012-08-03T08:28:56Z</time>
      </trkpt>
      <trkpt lat="46.51752" lon="10.18338">
        <ele>2029</ele>
        <time>2012-08-03T08:28:57Z</time>
      </trkpt>
      <trkpt lat="46.51752" lon="10.18319">
        <ele>2028.52</ele>
        <time>2012-08-03T08:28:58Z</time>
      </trkpt>
      <trkpt lat="46.51754" lon="10.183">
        <ele>2027.08</ele>
        <time>2012-08-03T08:28:59Z</time>
      </trkpt>
      <trkpt lat="46.51756" lon="10.18283">
        <ele>2026.12</ele>
        <time>2012-08-03T08:29:00Z</time>
      </trkpt>
      <trkpt lat="46.51757" lon="10.18267">
        <ele>2025.15</ele>
        <time>2012-08-03T08:29:01Z</time>
      </trkpt>
      <trkpt lat="46.51755" lon="10.18251">
        <ele>2025.15</ele>
        <time>2012-08-03T08:29:02Z</time>
      </trkpt>
      <trkpt lat="46.51751" lon="10.18236">
        <ele>2023.71</ele>
        <time>2012-08-03T08:29:03Z</time>
      </trkpt>
      <trkpt lat="46.51744" lon="10.18221">
        <ele>2022.27</ele>
        <time>2012-08-03T08:29:04Z</time>
      </trkpt>
      <trkpt lat="46.51735" lon="10.18208">
        <ele>2021.31</ele>
        <time>2012-08-03T08:29:05Z</time>
      </trkpt>
      <trkpt lat="46.51725" lon="10.18196">
        <ele>2020.35</ele>
        <time>2012-08-03T08:29:06Z</time>
      </trkpt>
      <trkpt lat="46.51686" lon="10.18144">
        <ele>2016.98</ele>
        <time>2012-08-03T08:29:10Z</time>
      </trkpt>
      <trkpt lat="46.51665" lon="10.18122">
        <ele>2015.54</ele>
        <time>2012-08-03T08:29:12Z</time>
      </trkpt>
      <trkpt lat="46.51654" lon="10.18112">
        <ele>2014.1</ele>
        <time>2012-08-03T08:29:13Z</time>
      </trkpt>
      <trkpt lat="46.51632" lon="10.18095">
        <ele>2011.7</ele>
        <time>2012-08-03T08:29:15Z</time>
      </trkpt>
      <trkpt lat="46.51623" lon="10.18083">
        <ele>2011.22</ele>
        <time>2012-08-03T08:29:16Z</time>
      </trkpt>
      <trkpt lat="46.51616" lon="10.18068">
        <ele>2010.73</ele>
        <time>2012-08-03T08:29:17Z</time>
      </trkpt>
      <trkpt lat="46.51613" lon="10.1805">
        <ele>2010.73</ele>
        <time>2012-08-03T08:29:18Z</time>
      </trkpt>
      <trkpt lat="46.51612" lon="10.18031">
        <ele>2010.73</ele>
        <time>2012-08-03T08:29:19Z</time>
      </trkpt>
      <trkpt lat="46.51615" lon="10.18013">
        <ele>2010.25</ele>
        <time>2012-08-03T08:29:20Z</time>
      </trkpt>
      <trkpt lat="46.5162" lon="10.17995">
        <ele>2009.77</ele>
        <time>2012-08-03T08:29:21Z</time>
      </trkpt>
      <trkpt lat="46.51628" lon="10.17979">
        <ele>2009.77</ele>
        <time>2012-08-03T08:29:22Z</time>
      </trkpt>
      <trkpt lat="46.51637" lon="10.17965">
        <ele>2009.29</ele>
        <time>2012-08-03T08:29:23Z</time>
      </trkpt>
      <trkpt lat="46.51647" lon="10.17954">
        <ele>2009.29</ele>
        <time>2012-08-03T08:29:24Z</time>
      </trkpt>
      <trkpt lat="46.51657" lon="10.17947">
        <ele>2010.25</ele>
        <time>2012-08-03T08:29:25Z</time>
      </trkpt>
      <trkpt lat="46.51669" lon="10.17942">
        <ele>2009.77</ele>
        <time>2012-08-03T08:29:26Z</time>
      </trkpt>
      <trkpt lat="46.51683" lon="10.17936">
        <ele>2010.73</ele>
        <time>2012-08-03T08:29:27Z</time>
      </trkpt>
      <trkpt lat="46.51715" lon="10.17923">
        <ele>2013.62</ele>
        <time>2012-08-03T08:29:32Z</time>
      </trkpt>
      <trkpt lat="46.51716" lon="10.17923">
        <ele>2016.98</ele>
        <time>2012-08-03T08:29:39Z</time>
      </trkpt>
      <trkpt lat="46.51708" lon="10.17925">
        <ele>2020.35</ele>
        <time>2012-08-03T08:29:42Z</time>
      </trkpt>
      <trkpt lat="46.51922" lon="10.17894">
        <ele>2022.27</ele>
        <time>2012-08-03T08:29:45Z</time>
      </trkpt>
      <trkpt lat="46.51935" lon="10.17899">
        <ele>2023.23</ele>
        <time>2012-08-03T08:29:46Z</time>
      </trkpt>
      <trkpt lat="46.51947" lon="10.17902">
        <ele>2023.23</ele>
        <time>2012-08-03T08:29:47Z</time>
      </trkpt>
      <trkpt lat="46.51957" lon="10.17902">
        <ele>2023.71</ele>
        <time>2012-08-03T08:29:48Z</time>
      </trkpt>
      <trkpt lat="46.51968" lon="10.17901">
        <ele>2024.67</ele>
        <time>2012-08-03T08:29:49Z</time>
      </trkpt>
      <trkpt lat="46.51979" lon="10.179">
        <ele>2025.15</ele>
        <time>2012-08-03T08:29:50Z</time>
      </trkpt>
      <trkpt lat="46.5199" lon="10.17898">
        <ele>2025.15</ele>
        <time>2012-08-03T08:29:51Z</time>
      </trkpt>
      <trkpt lat="46.52001" lon="10.17895">
        <ele>2026.12</ele>
        <time>2012-08-03T08:29:52Z</time>
      </trkpt>
      <trkpt lat="46.52036" lon="10.1788">
        <ele>2027.56</ele>
        <time>2012-08-03T08:29:56Z</time>
      </trkpt>
      <trkpt lat="46.52061" lon="10.17867">
        <ele>2029</ele>
        <time>2012-08-03T08:29:59Z</time>
      </trkpt>
      <trkpt lat="46.5209" lon="10.17856">
        <ele>2030.92</ele>
        <time>2012-08-03T08:30:02Z</time>
      </trkpt>
      <trkpt lat="46.521" lon="10.17854">
        <ele>2031.88</ele>
        <time>2012-08-03T08:30:03Z</time>
      </trkpt>
      <trkpt lat="46.52112" lon="10.17854">
        <ele>2033.81</ele>
        <time>2012-08-03T08:30:04Z</time>
      </trkpt>
      <trkpt lat="46.52124" lon="10.17854">
        <ele>2034.29</ele>
        <time>2012-08-03T08:30:05Z</time>
      </trkpt>
      <trkpt lat="46.52136" lon="10.17852">
        <ele>2034.77</ele>
        <time>2012-08-03T08:30:06Z</time>
      </trkpt>
      <trkpt lat="46.52147" lon="10.17846">
        <ele>2036.69</ele>
        <time>2012-08-03T08:30:07Z</time>
      </trkpt>
      <trkpt lat="46.52158" lon="10.17838">
        <ele>2037.17</ele>
        <time>2012-08-03T08:30:08Z</time>
      </trkpt>
      <trkpt lat="46.52168" lon="10.17827">
        <ele>2037.65</ele>
        <time>2012-08-03T08:30:09Z</time>
      </trkpt>
      <trkpt lat="46.5219" lon="10.17807">
        <ele>2039.09</ele>
        <time>2012-08-03T08:30:11Z</time>
      </trkpt>
      <trkpt lat="46.52201" lon="10.17799">
        <ele>2040.05</ele>
        <time>2012-08-03T08:30:12Z</time>
      </trkpt>
      <trkpt lat="46.52213" lon="10.17794">
        <ele>2041.02</ele>
        <time>2012-08-03T08:30:13Z</time>
      </trkpt>
      <trkpt lat="46.52226" lon="10.17791">
        <ele>2042.46</ele>
        <time>2012-08-03T08:30:14Z</time>
      </trkpt>
      <trkpt lat="46.52239" lon="10.17789">
        <ele>2042.94</ele>
        <time>2012-08-03T08:30:15Z</time>
      </trkpt>
      <trkpt lat="46.52252" lon="10.17786">
        <ele>2043.9</ele>
        <time>2012-08-03T08:30:16Z</time>
      </trkpt>
      <trkpt lat="46.52264" lon="10.1778">
        <ele>2044.86</ele>
        <time>2012-08-03T08:30:17Z</time>
      </trkpt>
      <trkpt lat="46.52276" lon="10.17772">
        <ele>2045.34</ele>
        <time>2012-08-03T08:30:18Z</time>
      </trkpt>
      <trkpt lat="46.52287" lon="10.17763">
        <ele>2045.82</ele>
        <time>2012-08-03T08:30:19Z</time>
      </trkpt>
      <trkpt lat="46.52298" lon="10.17753">
        <ele>2046.78</ele>
        <time>2012-08-03T08:30:20Z</time>
      </trkpt>
      <trkpt lat="46.5231" lon="10.17744">
        <ele>2047.75</ele>
        <time>2012-08-03T08:30:21Z</time>
      </trkpt>
      <trkpt lat="46.52322" lon="10.17737">
        <ele>2048.71</ele>
        <time>2012-08-03T08:30:22Z</time>
      </trkpt>
      <trkpt lat="46.52336" lon="10.17732">
        <ele>2049.19</ele>
        <time>2012-08-03T08:30:23Z</time>
      </trkpt>
      <trkpt lat="46.52374" lon="10.17716">
        <ele>2052.07</ele>
        <time>2012-08-03T08:30:26Z</time>
      </trkpt>
      <trkpt lat="46.52386" lon="10.17708">
        <ele>2052.55</ele>
        <time>2012-08-03T08:30:27Z</time>
      </trkpt>
      <trkpt lat="46.52433" lon="10.17679">
        <ele>2056.4</ele>
        <time>2012-08-03T08:30:31Z</time>
      </trkpt>
      <trkpt lat="46.52481" lon="10.17654">
        <ele>2059.28</ele>
        <time>2012-08-03T08:30:35Z</time>
      </trkpt>
      <trkpt lat="46.52515" lon="10.17629">
        <ele>2061.68</ele>
        <time>2012-08-03T08:30:38Z</time>
      </trkpt>
      <trkpt lat="46.52559" lon="10.17599">
        <ele>2064.57</ele>
        <time>2012-08-03T08:30:42Z</time>
      </trkpt>
      <trkpt lat="46.52617" lon="10.17576">
        <ele>2067.45</ele>
        <time>2012-08-03T08:30:49Z</time>
      </trkpt>
      <trkpt lat="46.5263" lon="10.17571">
        <ele>2068.41</ele>
        <time>2012-08-03T08:30:51Z</time>
      </trkpt>
      <trkpt lat="46.52657" lon="10.17555">
        <ele>2070.82</ele>
        <time>2012-08-03T08:30:55Z</time>
      </trkpt>
      <trkpt lat="46.52664" lon="10.17548">
        <ele>2071.78</ele>
        <time>2012-08-03T08:30:56Z</time>
      </trkpt>
      <trkpt lat="46.52671" lon="10.17539">
        <ele>2072.26</ele>
        <time>2012-08-03T08:30:57Z</time>
      </trkpt>
      <trkpt lat="46.52678" lon="10.17529">
        <ele>2073.22</ele>
        <time>2012-08-03T08:30:58Z</time>
      </trkpt>
      <trkpt lat="46.52684" lon="10.17517">
        <ele>2074.18</ele>
        <time>2012-08-03T08:30:59Z</time>
      </trkpt>
      <trkpt lat="46.52691" lon="10.17504">
        <ele>2075.14</ele>
        <time>2012-08-03T08:31:00Z</time>
      </trkpt>
      <trkpt lat="46.52698" lon="10.17491">
        <ele>2076.1</ele>
        <time>2012-08-03T08:31:01Z</time>
      </trkpt>
      <trkpt lat="46.52706" lon="10.17481">
        <ele>2077.07</ele>
        <time>2012-08-03T08:31:02Z</time>
      </trkpt>
      <trkpt lat="46.52714" lon="10.17473">
        <ele>2077.55</ele>
        <time>2012-08-03T08:31:03Z</time>
      </trkpt>
      <trkpt lat="46.52722" lon="10.17469">
        <ele>2078.03</ele>
        <time>2012-08-03T08:31:04Z</time>
      </trkpt>
      <trkpt lat="46.52728" lon="10.17467">
        <ele>2078.51</ele>
        <time>2012-08-03T08:31:05Z</time>
      </trkpt>
      <trkpt lat="46.52735" lon="10.17466">
        <ele>2078.99</ele>
        <time>2012-08-03T08:31:06Z</time>
      </trkpt>
      <trkpt lat="46.52757" lon="10.17464">
        <ele>2081.39</ele>
        <time>2012-08-03T08:31:09Z</time>
      </trkpt>
      <trkpt lat="46.52775" lon="10.17461">
        <ele>2082.83</ele>
        <time>2012-08-03T08:31:11Z</time>
      </trkpt>
      <trkpt lat="46.52784" lon="10.17457">
        <ele>2084.28</ele>
        <time>2012-08-03T08:31:12Z</time>
      </trkpt>
      <trkpt lat="46.52794" lon="10.1745">
        <ele>2084.76</ele>
        <time>2012-08-03T08:31:13Z</time>
      </trkpt>
      <trkpt lat="46.52803" lon="10.17441">
        <ele>2085.24</ele>
        <time>2012-08-03T08:31:14Z</time>
      </trkpt>
      <trkpt lat="46.52813" lon="10.17431">
        <ele>2086.68</ele>
        <time>2012-08-03T08:31:15Z</time>
      </trkpt>
      <trkpt lat="46.52842" lon="10.17396">
        <ele>2090.04</ele>
        <time>2012-08-03T08:31:18Z</time>
      </trkpt>
      <trkpt lat="46.52873" lon="10.17358">
        <ele>2093.41</ele>
        <time>2012-08-03T08:31:21Z</time>
      </trkpt>
      <trkpt lat="46.52921" lon="10.17319">
        <ele>2096.77</ele>
        <time>2012-08-03T08:31:25Z</time>
      </trkpt>
      <trkpt lat="46.52958" lon="10.17292">
        <ele>2100.62</ele>
        <time>2012-08-03T08:31:28Z</time>
      </trkpt>
      <trkpt lat="46.52996" lon="10.1727">
        <ele>2104.46</ele>
        <time>2012-08-03T08:31:31Z</time>
      </trkpt>
      <trkpt lat="46.53039" lon="10.17256">
        <ele>2107.83</ele>
        <time>2012-08-03T08:31:34Z</time>
      </trkpt>
      <trkpt lat="46.53068" lon="10.17244">
        <ele>2109.75</ele>
        <time>2012-08-03T08:31:36Z</time>
      </trkpt>
      <trkpt lat="46.53081" lon="10.17235">
        <ele>2110.71</ele>
        <time>2012-08-03T08:31:37Z</time>
      </trkpt>
      <trkpt lat="46.53093" lon="10.17223">
        <ele>2112.15</ele>
        <time>2012-08-03T08:31:38Z</time>
      </trkpt>
      <trkpt lat="46.53104" lon="10.17209">
        <ele>2113.6</ele>
        <time>2012-08-03T08:31:39Z</time>
      </trkpt>
      <trkpt lat="46.53114" lon="10.17192">
        <ele>2115.04</ele>
        <time>2012-08-03T08:31:40Z</time>
      </trkpt>
      <trkpt lat="46.53123" lon="10.17173">
        <ele>2116</ele>
        <time>2012-08-03T08:31:41Z</time>
      </trkpt>
      <trkpt lat="46.53131" lon="10.17155">
        <ele>2117.44</ele>
        <time>2012-08-03T08:31:42Z</time>
      </trkpt>
      <trkpt lat="46.53149" lon="10.17122">
        <ele>2118.88</ele>
        <time>2012-08-03T08:31:44Z</time>
      </trkpt>
      <trkpt lat="46.53159" lon="10.17109">
        <ele>2119.84</ele>
        <time>2012-08-03T08:31:45Z</time>
      </trkpt>
      <trkpt lat="46.53171" lon="10.17099">
        <ele>2120.81</ele>
        <time>2012-08-03T08:31:46Z</time>
      </trkpt>
      <trkpt lat="46.53184" lon="10.17093">
        <ele>2122.25</ele>
        <time>2012-08-03T08:31:47Z</time>
      </trkpt>
      <trkpt lat="46.53197" lon="10.17091">
        <ele>2123.21</ele>
        <time>2012-08-03T08:31:48Z</time>
      </trkpt>
      <trkpt lat="46.53211" lon="10.17091">
        <ele>2124.65</ele>
        <time>2012-08-03T08:31:49Z</time>
      </trkpt>
      <trkpt lat="46.53225" lon="10.17095">
        <ele>2125.61</ele>
        <time>2012-08-03T08:31:50Z</time>
      </trkpt>
      <trkpt lat="46.53238" lon="10.17101">
        <ele>2126.57</ele>
        <time>2012-08-03T08:31:51Z</time>
      </trkpt>
      <trkpt lat="46.5325" lon="10.17111">
        <ele>2128.5</ele>
        <time>2012-08-03T08:31:52Z</time>
      </trkpt>
      <trkpt lat="46.53261" lon="10.17122">
        <ele>2129.46</ele>
        <time>2012-08-03T08:31:53Z</time>
      </trkpt>
      <trkpt lat="46.53271" lon="10.17132">
        <ele>2129.94</ele>
        <time>2012-08-03T08:31:54Z</time>
      </trkpt>
      <trkpt lat="46.53282" lon="10.1714">
        <ele>2130.42</ele>
        <time>2012-08-03T08:31:55Z</time>
      </trkpt>
      <trkpt lat="46.53294" lon="10.17145">
        <ele>2131.38</ele>
        <time>2012-08-03T08:31:56Z</time>
      </trkpt>
      <trkpt lat="46.53307" lon="10.17146">
        <ele>2132.34</ele>
        <time>2012-08-03T08:31:57Z</time>
      </trkpt>
      <trkpt lat="46.5332" lon="10.17145">
        <ele>2133.3</ele>
        <time>2012-08-03T08:31:58Z</time>
      </trkpt>
      <trkpt lat="46.53334" lon="10.17142">
        <ele>2134.74</ele>
        <time>2012-08-03T08:31:59Z</time>
      </trkpt>
      <trkpt lat="46.53377" lon="10.17133">
        <ele>2137.63</ele>
        <time>2012-08-03T08:32:02Z</time>
      </trkpt>
      <trkpt lat="46.53421" lon="10.17124">
        <ele>2141.47</ele>
        <time>2012-08-03T08:32:05Z</time>
      </trkpt>
      <trkpt lat="46.53436" lon="10.17121">
        <ele>2141.47</ele>
        <time>2012-08-03T08:32:06Z</time>
      </trkpt>
      <trkpt lat="46.53479" lon="10.17111">
        <ele>2145.32</ele>
        <time>2012-08-03T08:32:09Z</time>
      </trkpt>
      <trkpt lat="46.53519" lon="10.17094">
        <ele>2147.24</ele>
        <time>2012-08-03T08:32:12Z</time>
      </trkpt>
      <trkpt lat="46.53566" lon="10.1705">
        <ele>2150.61</ele>
        <time>2012-08-03T08:32:16Z</time>
      </trkpt>
      <trkpt lat="46.53601" lon="10.17015">
        <ele>2153.97</ele>
        <time>2012-08-03T08:32:19Z</time>
      </trkpt>
      <trkpt lat="46.53624" lon="10.16992">
        <ele>2157.34</ele>
        <time>2012-08-03T08:32:21Z</time>
      </trkpt>
      <trkpt lat="46.53671" lon="10.16945">
        <ele>2161.18</ele>
        <time>2012-08-03T08:32:25Z</time>
      </trkpt>
      <trkpt lat="46.53705" lon="10.16907">
        <ele>2164.06</ele>
        <time>2012-08-03T08:32:28Z</time>
      </trkpt>
      <trkpt lat="46.53737" lon="10.16866">
        <ele>2167.91</ele>
        <time>2012-08-03T08:32:31Z</time>
      </trkpt>
      <trkpt lat="46.53759" lon="10.1684">
        <ele>2171.27</ele>
        <time>2012-08-03T08:32:33Z</time>
      </trkpt>
      <trkpt lat="46.53781" lon="10.16813">
        <ele>2174.64</ele>
        <time>2012-08-03T08:32:35Z</time>
      </trkpt>
      <trkpt lat="46.53803" lon="10.16785">
        <ele>2178</ele>
        <time>2012-08-03T08:32:37Z</time>
      </trkpt>
      <trkpt lat="46.53823" lon="10.16756">
        <ele>2180.89</ele>
        <time>2012-08-03T08:32:39Z</time>
      </trkpt>
      <trkpt lat="46.5383" lon="10.1674">
        <ele>2181.37</ele>
        <time>2012-08-03T08:32:40Z</time>
      </trkpt>
      <trkpt lat="46.53835" lon="10.16723">
        <ele>2182.81</ele>
        <time>2012-08-03T08:32:41Z</time>
      </trkpt>
      <trkpt lat="46.53837" lon="10.16704">
        <ele>2184.73</ele>
        <time>2012-08-03T08:32:42Z</time>
      </trkpt>
      <trkpt lat="46.53837" lon="10.16686">
        <ele>2185.69</ele>
        <time>2012-08-03T08:32:43Z</time>
      </trkpt>
      <trkpt lat="46.53836" lon="10.16668">
        <ele>2187.14</ele>
        <time>2012-08-03T08:32:44Z</time>
      </trkpt>
      <trkpt lat="46.53835" lon="10.16651">
        <ele>2188.58</ele>
        <time>2012-08-03T08:32:45Z</time>
      </trkpt>
      <trkpt lat="46.53833" lon="10.16636">
        <ele>2189.06</ele>
        <time>2012-08-03T08:32:46Z</time>
      </trkpt>
      <trkpt lat="46.53829" lon="10.16623">
        <ele>2190.02</ele>
        <time>2012-08-03T08:32:47Z</time>
      </trkpt>
      <trkpt lat="46.53819" lon="10.16596">
        <ele>2189.06</ele>
        <time>2012-08-03T08:32:49Z</time>
      </trkpt>
      <trkpt lat="46.53816" lon="10.1658">
        <ele>2188.58</ele>
        <time>2012-08-03T08:32:50Z</time>
      </trkpt>
      <trkpt lat="46.53815" lon="10.16564">
        <ele>2188.58</ele>
        <time>2012-08-03T08:32:51Z</time>
      </trkpt>
      <trkpt lat="46.53817" lon="10.16547">
        <ele>2188.1</ele>
        <time>2012-08-03T08:32:52Z</time>
      </trkpt>
      <trkpt lat="46.53821" lon="10.16529">
        <ele>2188.1</ele>
        <time>2012-08-03T08:32:53Z</time>
      </trkpt>
      <trkpt lat="46.53842" lon="10.16419">
        <ele>2183.77</ele>
        <time>2012-08-03T08:32:59Z</time>
      </trkpt>
      <trkpt lat="46.53843" lon="10.16399">
        <ele>2182.81</ele>
        <time>2012-08-03T08:33:00Z</time>
      </trkpt>
      <trkpt lat="46.53842" lon="10.16378">
        <ele>2182.33</ele>
        <time>2012-08-03T08:33:01Z</time>
      </trkpt>
      <trkpt lat="46.53839" lon="10.16358">
        <ele>2180.89</ele>
        <time>2012-08-03T08:33:02Z</time>
      </trkpt>
      <trkpt lat="46.53835" lon="10.16339">
        <ele>2179.93</ele>
        <time>2012-08-03T08:33:03Z</time>
      </trkpt>
      <trkpt lat="46.53825" lon="10.163">
        <ele>2178.48</ele>
        <time>2012-08-03T08:33:05Z</time>
      </trkpt>
      <trkpt lat="46.53818" lon="10.1628">
        <ele>2178</ele>
        <time>2012-08-03T08:33:06Z</time>
      </trkpt>
      <trkpt lat="46.53797" lon="10.16224">
        <ele>2174.64</ele>
        <time>2012-08-03T08:33:09Z</time>
      </trkpt>
      <trkpt lat="46.53793" lon="10.16204">
        <ele>2173.2</ele>
        <time>2012-08-03T08:33:10Z</time>
      </trkpt>
      <trkpt lat="46.5379" lon="10.16184">
        <ele>2172.72</ele>
        <time>2012-08-03T08:33:11Z</time>
      </trkpt>
      <trkpt lat="46.53788" lon="10.16163">
        <ele>2172.24</ele>
        <time>2012-08-03T08:33:12Z</time>
      </trkpt>
      <trkpt lat="46.53788" lon="10.1614">
        <ele>2170.79</ele>
        <time>2012-08-03T08:33:13Z</time>
      </trkpt>
      <trkpt lat="46.5379" lon="10.16118">
        <ele>2169.35</ele>
        <time>2012-08-03T08:33:14Z</time>
      </trkpt>
      <trkpt lat="46.53794" lon="10.16096">
        <ele>2168.87</ele>
        <time>2012-08-03T08:33:15Z</time>
      </trkpt>
      <trkpt lat="46.53798" lon="10.16075">
        <ele>2167.91</ele>
        <time>2012-08-03T08:33:16Z</time>
      </trkpt>
      <trkpt lat="46.53806" lon="10.16036">
        <ele>2165.03</ele>
        <time>2012-08-03T08:33:18Z</time>
      </trkpt>
      <trkpt lat="46.53808" lon="10.16016">
        <ele>2164.06</ele>
        <time>2012-08-03T08:33:19Z</time>
      </trkpt>
      <trkpt lat="46.53806" lon="10.15996">
        <ele>2163.58</ele>
        <time>2012-08-03T08:33:20Z</time>
      </trkpt>
      <trkpt lat="46.538" lon="10.15976">
        <ele>2162.62</ele>
        <time>2012-08-03T08:33:21Z</time>
      </trkpt>
      <trkpt lat="46.53792" lon="10.15955">
        <ele>2161.66</ele>
        <time>2012-08-03T08:33:22Z</time>
      </trkpt>
      <trkpt lat="46.53783" lon="10.15935">
        <ele>2162.14</ele>
        <time>2012-08-03T08:33:23Z</time>
      </trkpt>
      <trkpt lat="46.53775" lon="10.15914">
        <ele>2160.22</ele>
        <time>2012-08-03T08:33:24Z</time>
      </trkpt>
      <trkpt lat="46.53769" lon="10.15892">
        <ele>2159.26</ele>
        <time>2012-08-03T08:33:25Z</time>
      </trkpt>
      <trkpt lat="46.53765" lon="10.1587">
        <ele>2158.3</ele>
        <time>2012-08-03T08:33:26Z</time>
      </trkpt>
      <trkpt lat="46.53756" lon="10.15808">
        <ele>2155.41</ele>
        <time>2012-08-03T08:33:29Z</time>
      </trkpt>
      <trkpt lat="46.53752" lon="10.15789">
        <ele>2154.93</ele>
        <time>2012-08-03T08:33:30Z</time>
      </trkpt>
      <trkpt lat="46.53746" lon="10.1577">
        <ele>2153.97</ele>
        <time>2012-08-03T08:33:31Z</time>
      </trkpt>
      <trkpt lat="46.53717" lon="10.15698">
        <ele>2149.65</ele>
        <time>2012-08-03T08:33:35Z</time>
      </trkpt>
      <trkpt lat="46.53684" lon="10.15625">
        <ele>2145.8</ele>
        <time>2012-08-03T08:33:39Z</time>
      </trkpt>
      <trkpt lat="46.53661" lon="10.15573">
        <ele>2141.95</ele>
        <time>2012-08-03T08:33:42Z</time>
      </trkpt>
      <trkpt lat="46.53645" lon="10.15542">
        <ele>2140.51</ele>
        <time>2012-08-03T08:33:44Z</time>
      </trkpt>
      <trkpt lat="46.53635" lon="10.15528">
        <ele>2139.55</ele>
        <time>2012-08-03T08:33:45Z</time>
      </trkpt>
      <trkpt lat="46.53624" lon="10.15517">
        <ele>2138.59</ele>
        <time>2012-08-03T08:33:46Z</time>
      </trkpt>
      <trkpt lat="46.53611" lon="10.15509">
        <ele>2137.15</ele>
        <time>2012-08-03T08:33:47Z</time>
      </trkpt>
      <trkpt lat="46.53597" lon="10.15505">
        <ele>2136.19</ele>
        <time>2012-08-03T08:33:48Z</time>
      </trkpt>
      <trkpt lat="46.53582" lon="10.15504">
        <ele>2135.71</ele>
        <time>2012-08-03T08:33:49Z</time>
      </trkpt>
      <trkpt lat="46.53567" lon="10.15506">
        <ele>2135.23</ele>
        <time>2012-08-03T08:33:50Z</time>
      </trkpt>
      <trkpt lat="46.53552" lon="10.15508">
        <ele>2133.78</ele>
        <time>2012-08-03T08:33:51Z</time>
      </trkpt>
      <trkpt lat="46.53523" lon="10.1551">
        <ele>2131.86</ele>
        <time>2012-08-03T08:33:53Z</time>
      </trkpt>
      <trkpt lat="46.53509" lon="10.15507">
        <ele>2130.42</ele>
        <time>2012-08-03T08:33:54Z</time>
      </trkpt>
      <trkpt lat="46.53495" lon="10.15502">
        <ele>2129.46</ele>
        <time>2012-08-03T08:33:55Z</time>
      </trkpt>
      <trkpt lat="46.53481" lon="10.15495">
        <ele>2128.5</ele>
        <time>2012-08-03T08:33:56Z</time>
      </trkpt>
      <trkpt lat="46.53468" lon="10.15485">
        <ele>2128.02</ele>
        <time>2012-08-03T08:33:57Z</time>
      </trkpt>
      <trkpt lat="46.53455" lon="10.15473">
        <ele>2127.05</ele>
        <time>2012-08-03T08:33:58Z</time>
      </trkpt>
      <trkpt lat="46.53415" lon="10.15439">
        <ele>2123.21</ele>
        <time>2012-08-03T08:34:01Z</time>
      </trkpt>
      <trkpt lat="46.53377" lon="10.15409">
        <ele>2119.84</ele>
        <time>2012-08-03T08:34:04Z</time>
      </trkpt>
      <trkpt lat="46.53364" lon="10.15403">
        <ele>2119.36</ele>
        <time>2012-08-03T08:34:05Z</time>
      </trkpt>
      <trkpt lat="46.53351" lon="10.15401">
        <ele>2118.4</ele>
        <time>2012-08-03T08:34:06Z</time>
      </trkpt>
      <trkpt lat="46.53337" lon="10.15403">
        <ele>2117.92</ele>
        <time>2012-08-03T08:34:07Z</time>
      </trkpt>
      <trkpt lat="46.53324" lon="10.1541">
        <ele>2117.44</ele>
        <time>2012-08-03T08:34:08Z</time>
      </trkpt>
      <trkpt lat="46.53311" lon="10.15417">
        <ele>2116.48</ele>
        <time>2012-08-03T08:34:09Z</time>
      </trkpt>
      <trkpt lat="46.53299" lon="10.15423">
        <ele>2115.52</ele>
        <time>2012-08-03T08:34:10Z</time>
      </trkpt>
      <trkpt lat="46.53287" lon="10.15426">
        <ele>2115.04</ele>
        <time>2012-08-03T08:34:11Z</time>
      </trkpt>
      <trkpt lat="46.53274" lon="10.15424">
        <ele>2114.08</ele>
        <time>2012-08-03T08:34:12Z</time>
      </trkpt>
      <trkpt lat="46.53263" lon="10.15419">
        <ele>2113.12</ele>
        <time>2012-08-03T08:34:13Z</time>
      </trkpt>
      <trkpt lat="46.53252" lon="10.15411">
        <ele>2112.63</ele>
        <time>2012-08-03T08:34:14Z</time>
      </trkpt>
      <trkpt lat="46.53241" lon="10.15404">
        <ele>2112.15</ele>
        <time>2012-08-03T08:34:15Z</time>
      </trkpt>
      <trkpt lat="46.53229" lon="10.15399">
        <ele>2111.67</ele>
        <time>2012-08-03T08:34:16Z</time>
      </trkpt>
      <trkpt lat="46.53217" lon="10.15397">
        <ele>2110.23</ele>
        <time>2012-08-03T08:34:17Z</time>
      </trkpt>
      <trkpt lat="46.53204" lon="10.15396">
        <ele>2110.23</ele>
        <time>2012-08-03T08:34:18Z</time>
      </trkpt>
      <trkpt lat="46.53192" lon="10.15391">
        <ele>2109.27</ele>
        <time>2012-08-03T08:34:19Z</time>
      </trkpt>
      <trkpt lat="46.5318" lon="10.15383">
        <ele>2107.83</ele>
        <time>2012-08-03T08:34:20Z</time>
      </trkpt>
      <trkpt lat="46.53168" lon="10.15376">
        <ele>2106.87</ele>
        <time>2012-08-03T08:34:21Z</time>
      </trkpt>
      <trkpt lat="46.53156" lon="10.15371">
        <ele>2106.87</ele>
        <time>2012-08-03T08:34:22Z</time>
      </trkpt>
      <trkpt lat="46.53143" lon="10.15369">
        <ele>2105.42</ele>
        <time>2012-08-03T08:34:23Z</time>
      </trkpt>
      <trkpt lat="46.5313" lon="10.15369">
        <ele>2104.46</ele>
        <time>2012-08-03T08:34:24Z</time>
      </trkpt>
      <trkpt lat="46.53118" lon="10.15367">
        <ele>2103.98</ele>
        <time>2012-08-03T08:34:25Z</time>
      </trkpt>
      <trkpt lat="46.53106" lon="10.15361">
        <ele>2103.02</ele>
        <time>2012-08-03T08:34:26Z</time>
      </trkpt>
      <trkpt lat="46.53096" lon="10.1535">
        <ele>2102.54</ele>
        <time>2012-08-03T08:34:27Z</time>
      </trkpt>
      <trkpt lat="46.53086" lon="10.15339">
        <ele>2101.58</ele>
        <time>2012-08-03T08:34:28Z</time>
      </trkpt>
      <trkpt lat="46.53076" lon="10.15332">
        <ele>2100.14</ele>
        <time>2012-08-03T08:34:29Z</time>
      </trkpt>
      <trkpt lat="46.53066" lon="10.15328">
        <ele>2099.18</ele>
        <time>2012-08-03T08:34:30Z</time>
      </trkpt>
      <trkpt lat="46.53057" lon="10.15325">
        <ele>2098.21</ele>
        <time>2012-08-03T08:34:31Z</time>
      </trkpt>
      <trkpt lat="46.5305" lon="10.15318">
        <ele>2097.73</ele>
        <time>2012-08-03T08:34:32Z</time>
      </trkpt>
      <trkpt lat="46.53045" lon="10.15308">
        <ele>2096.77</ele>
        <time>2012-08-03T08:34:33Z</time>
      </trkpt>
      <trkpt lat="46.53044" lon="10.15296">
        <ele>2096.29</ele>
        <time>2012-08-03T08:34:34Z</time>
      </trkpt>
      <trkpt lat="46.53047" lon="10.15285">
        <ele>2096.29</ele>
        <time>2012-08-03T08:34:35Z</time>
      </trkpt>
      <trkpt lat="46.53052" lon="10.15274">
        <ele>2095.33</ele>
        <time>2012-08-03T08:34:36Z</time>
      </trkpt>
      <trkpt lat="46.53059" lon="10.15263">
        <ele>2095.33</ele>
        <time>2012-08-03T08:34:37Z</time>
      </trkpt>
      <trkpt lat="46.53064" lon="10.15251">
        <ele>2094.37</ele>
        <time>2012-08-03T08:34:38Z</time>
      </trkpt>
      <trkpt lat="46.53068" lon="10.15237">
        <ele>2093.89</ele>
        <time>2012-08-03T08:34:39Z</time>
      </trkpt>
      <trkpt lat="46.53071" lon="10.15222">
        <ele>2092.93</ele>
        <time>2012-08-03T08:34:40Z</time>
      </trkpt>
      <trkpt lat="46.53072" lon="10.15206">
        <ele>2092.45</ele>
        <time>2012-08-03T08:34:41Z</time>
      </trkpt>
      <trkpt lat="46.53071" lon="10.15188">
        <ele>2091.97</ele>
        <time>2012-08-03T08:34:42Z</time>
      </trkpt>
      <trkpt lat="46.53069" lon="10.1517">
        <ele>2091.97</ele>
        <time>2012-08-03T08:34:43Z</time>
      </trkpt>
      <trkpt lat="46.53063" lon="10.15151">
        <ele>2091.49</ele>
        <time>2012-08-03T08:34:44Z</time>
      </trkpt>
      <trkpt lat="46.53056" lon="10.15132">
        <ele>2090.52</ele>
        <time>2012-08-03T08:34:45Z</time>
      </trkpt>
      <trkpt lat="46.53047" lon="10.15112">
        <ele>2090.04</ele>
        <time>2012-08-03T08:34:46Z</time>
      </trkpt>
      <trkpt lat="46.53029" lon="10.15073">
        <ele>2087.16</ele>
        <time>2012-08-03T08:34:48Z</time>
      </trkpt>
      <trkpt lat="46.53008" lon="10.15011">
        <ele>2083.79</ele>
        <time>2012-08-03T08:34:51Z</time>
      </trkpt>
      <trkpt lat="46.52993" lon="10.1495">
        <ele>2079.47</ele>
        <time>2012-08-03T08:34:54Z</time>
      </trkpt>
      <trkpt lat="46.52986" lon="10.14929">
        <ele>2078.99</ele>
        <time>2012-08-03T08:34:55Z</time>
      </trkpt>
      <trkpt lat="46.52977" lon="10.14909">
        <ele>2078.51</ele>
        <time>2012-08-03T08:34:56Z</time>
      </trkpt>
      <trkpt lat="46.52952" lon="10.14864">
        <ele>2079.95</ele>
        <time>2012-08-03T08:34:58Z</time>
      </trkpt>
      <trkpt lat="46.52941" lon="10.14838">
        <ele>2077.55</ele>
        <time>2012-08-03T08:34:59Z</time>
      </trkpt>
      <trkpt lat="46.52923" lon="10.14785">
        <ele>2073.22</ele>
        <time>2012-08-03T08:35:01Z</time>
      </trkpt>
      <trkpt lat="46.52912" lon="10.14733">
        <ele>2069.86</ele>
        <time>2012-08-03T08:35:03Z</time>
      </trkpt>
      <trkpt lat="46.52904" lon="10.14682">
        <ele>2066.01</ele>
        <time>2012-08-03T08:35:05Z</time>
      </trkpt>
      <trkpt lat="46.52898" lon="10.14657">
        <ele>2065.05</ele>
        <time>2012-08-03T08:35:06Z</time>
      </trkpt>
      <trkpt lat="46.52888" lon="10.14632">
        <ele>2064.09</ele>
        <time>2012-08-03T08:35:07Z</time>
      </trkpt>
      <trkpt lat="46.5287" lon="10.14584">
        <ele>2060.72</ele>
        <time>2012-08-03T08:35:09Z</time>
      </trkpt>
      <trkpt lat="46.52864" lon="10.14559">
        <ele>2059.28</ele>
        <time>2012-08-03T08:35:10Z</time>
      </trkpt>
      <trkpt lat="46.52855" lon="10.1451">
        <ele>2055.92</ele>
        <time>2012-08-03T08:35:12Z</time>
      </trkpt>
      <trkpt lat="46.52848" lon="10.14486">
        <ele>2055.44</ele>
        <time>2012-08-03T08:35:13Z</time>
      </trkpt>
      <trkpt lat="46.52839" lon="10.14463">
        <ele>2054.47</ele>
        <time>2012-08-03T08:35:14Z</time>
      </trkpt>
      <trkpt lat="46.52808" lon="10.14399">
        <ele>2051.11</ele>
        <time>2012-08-03T08:35:17Z</time>
      </trkpt>
      <trkpt lat="46.52784" lon="10.14361">
        <ele>2046.78</ele>
        <time>2012-08-03T08:35:19Z</time>
      </trkpt>
      <trkpt lat="46.5275" lon="10.14308">
        <ele>2042.94</ele>
        <time>2012-08-03T08:35:22Z</time>
      </trkpt>
      <trkpt lat="46.52738" lon="10.1429">
        <ele>2042.94</ele>
        <time>2012-08-03T08:35:23Z</time>
      </trkpt>
      <trkpt lat="46.527" lon="10.14235">
        <ele>2038.61</ele>
        <time>2012-08-03T08:35:26Z</time>
      </trkpt>
      <trkpt lat="46.52666" lon="10.14177">
        <ele>2034.77</ele>
        <time>2012-08-03T08:35:29Z</time>
      </trkpt>
      <trkpt lat="46.52647" lon="10.14138">
        <ele>2030.92</ele>
        <time>2012-08-03T08:35:31Z</time>
      </trkpt>
      <trkpt lat="46.52623" lon="10.14079">
        <ele>2027.56</ele>
        <time>2012-08-03T08:35:34Z</time>
      </trkpt>
      <trkpt lat="46.52612" lon="10.14061">
        <ele>2027.08</ele>
        <time>2012-08-03T08:35:35Z</time>
      </trkpt>
      <trkpt lat="46.52574" lon="10.14014">
        <ele>2023.71</ele>
        <time>2012-08-03T08:35:38Z</time>
      </trkpt>
      <trkpt lat="46.52529" lon="10.13977">
        <ele>2019.87</ele>
        <time>2012-08-03T08:35:41Z</time>
      </trkpt>
      <trkpt lat="46.5248" lon="10.13954">
        <ele>2015.54</ele>
        <time>2012-08-03T08:35:44Z</time>
      </trkpt>
      <trkpt lat="46.52466" lon="10.13945">
        <ele>2013.62</ele>
        <time>2012-08-03T08:35:45Z</time>
      </trkpt>
      <trkpt lat="46.52442" lon="10.13925">
        <ele>2010.25</ele>
        <time>2012-08-03T08:35:47Z</time>
      </trkpt>
      <trkpt lat="46.52432" lon="10.13918">
        <ele>2008.81</ele>
        <time>2012-08-03T08:35:48Z</time>
      </trkpt>
      <trkpt lat="46.52417" lon="10.13907">
        <ele>2006.89</ele>
        <time>2012-08-03T08:35:50Z</time>
      </trkpt>
      <trkpt lat="46.52414" lon="10.139">
        <ele>2005.45</ele>
        <time>2012-08-03T08:35:51Z</time>
      </trkpt>
      <trkpt lat="46.52415" lon="10.13892">
        <ele>2005.45</ele>
        <time>2012-08-03T08:35:52Z</time>
      </trkpt>
      <trkpt lat="46.52418" lon="10.13886">
        <ele>2004.97</ele>
        <time>2012-08-03T08:35:53Z</time>
      </trkpt>
      <trkpt lat="46.52424" lon="10.13884">
        <ele>2004.49</ele>
        <time>2012-08-03T08:35:54Z</time>
      </trkpt>
      <trkpt lat="46.52432" lon="10.13888">
        <ele>2004.97</ele>
        <time>2012-08-03T08:35:55Z</time>
      </trkpt>
      <trkpt lat="46.52442" lon="10.13896">
        <ele>2004.97</ele>
        <time>2012-08-03T08:35:56Z</time>
      </trkpt>
      <trkpt lat="46.52453" lon="10.13906">
        <ele>2004.49</ele>
        <time>2012-08-03T08:35:57Z</time>
      </trkpt>
      <trkpt lat="46.52466" lon="10.13915">
        <ele>2004.01</ele>
        <time>2012-08-03T08:35:58Z</time>
      </trkpt>
      <trkpt lat="46.5248" lon="10.13919">
        <ele>2002.56</ele>
        <time>2012-08-03T08:35:59Z</time>
      </trkpt>
      <trkpt lat="46.52495" lon="10.13918">
        <ele>2002.08</ele>
        <time>2012-08-03T08:36:00Z</time>
      </trkpt>
      <trkpt lat="46.52509" lon="10.13912">
        <ele>2002.08</ele>
        <time>2012-08-03T08:36:01Z</time>
      </trkpt>
      <trkpt lat="46.52523" lon="10.13906">
        <ele>2000.16</ele>
        <time>2012-08-03T08:36:02Z</time>
      </trkpt>
      <trkpt lat="46.52538" lon="10.13902">
        <ele>1999.2</ele>
        <time>2012-08-03T08:36:03Z</time>
      </trkpt>
      <trkpt lat="46.52553" lon="10.13902">
        <ele>1997.76</ele>
        <time>2012-08-03T08:36:04Z</time>
      </trkpt>
      <trkpt lat="46.52569" lon="10.13905">
        <ele>1997.28</ele>
        <time>2012-08-03T08:36:05Z</time>
      </trkpt>
      <trkpt lat="46.52583" lon="10.13911">
        <ele>1995.83</ele>
        <time>2012-08-03T08:36:06Z</time>
      </trkpt>
      <trkpt lat="46.52598" lon="10.13919">
        <ele>1994.39</ele>
        <time>2012-08-03T08:36:07Z</time>
      </trkpt>
      <trkpt lat="46.52613" lon="10.13928">
        <ele>1993.43</ele>
        <time>2012-08-03T08:36:08Z</time>
      </trkpt>
      <trkpt lat="46.5266" lon="10.13959">
        <ele>1990.07</ele>
        <time>2012-08-03T08:36:11Z</time>
      </trkpt>
      <trkpt lat="46.52717" lon="10.14014">
        <ele>1986.7</ele>
        <time>2012-08-03T08:36:15Z</time>
      </trkpt>
      <trkpt lat="46.52755" lon="10.1406">
        <ele>1983.34</ele>
        <time>2012-08-03T08:36:18Z</time>
      </trkpt>
      <trkpt lat="46.52782" lon="10.14091">
        <ele>1980.93</ele>
        <time>2012-08-03T08:36:20Z</time>
      </trkpt>
      <trkpt lat="46.52798" lon="10.14101">
        <ele>1979.49</ele>
        <time>2012-08-03T08:36:21Z</time>
      </trkpt>
      <trkpt lat="46.52844" lon="10.14128">
        <ele>1975.65</ele>
        <time>2012-08-03T08:36:24Z</time>
      </trkpt>
      <trkpt lat="46.52858" lon="10.1414">
        <ele>1975.17</ele>
        <time>2012-08-03T08:36:25Z</time>
      </trkpt>
      <trkpt lat="46.52872" lon="10.14154">
        <ele>1974.2</ele>
        <time>2012-08-03T08:36:26Z</time>
      </trkpt>
      <trkpt lat="46.52914" lon="10.142">
        <ele>1970.84</ele>
        <time>2012-08-03T08:36:29Z</time>
      </trkpt>
      <trkpt lat="46.52943" lon="10.14225">
        <ele>1967.96</ele>
        <time>2012-08-03T08:36:31Z</time>
      </trkpt>
      <trkpt lat="46.52972" lon="10.14244">
        <ele>1964.59</ele>
        <time>2012-08-03T08:36:33Z</time>
      </trkpt>
      <trkpt lat="46.52986" lon="10.14257">
        <ele>1964.11</ele>
        <time>2012-08-03T08:36:34Z</time>
      </trkpt>
      <trkpt lat="46.52998" lon="10.14273">
        <ele>1963.15</ele>
        <time>2012-08-03T08:36:35Z</time>
      </trkpt>
      <trkpt lat="46.5301" lon="10.14291">
        <ele>1962.19</ele>
        <time>2012-08-03T08:36:36Z</time>
      </trkpt>
      <trkpt lat="46.53022" lon="10.14309">
        <ele>1961.71</ele>
        <time>2012-08-03T08:36:37Z</time>
      </trkpt>
      <trkpt lat="46.53058" lon="10.1436">
        <ele>1957.86</ele>
        <time>2012-08-03T08:36:40Z</time>
      </trkpt>
      <trkpt lat="46.53082" lon="10.14386">
        <ele>1955.94</ele>
        <time>2012-08-03T08:36:42Z</time>
      </trkpt>
      <trkpt lat="46.53096" lon="10.14395">
        <ele>1954.98</ele>
        <time>2012-08-03T08:36:43Z</time>
      </trkpt>
      <trkpt lat="46.5311" lon="10.14402">
        <ele>1953.54</ele>
        <time>2012-08-03T08:36:44Z</time>
      </trkpt>
      <trkpt lat="46.53123" lon="10.14408">
        <ele>1952.57</ele>
        <time>2012-08-03T08:36:45Z</time>
      </trkpt>
      <trkpt lat="46.53136" lon="10.14418">
        <ele>1952.57</ele>
        <time>2012-08-03T08:36:46Z</time>
      </trkpt>
      <trkpt lat="46.53146" lon="10.14432">
        <ele>1951.61</ele>
        <time>2012-08-03T08:36:47Z</time>
      </trkpt>
      <trkpt lat="46.53155" lon="10.1445">
        <ele>1950.17</ele>
        <time>2012-08-03T08:36:48Z</time>
      </trkpt>
      <trkpt lat="46.53163" lon="10.14467">
        <ele>1950.17</ele>
        <time>2012-08-03T08:36:49Z</time>
      </trkpt>
      <trkpt lat="46.53174" lon="10.14481">
        <ele>1948.73</ele>
        <time>2012-08-03T08:36:50Z</time>
      </trkpt>
      <trkpt lat="46.53185" lon="10.14494">
        <ele>1948.25</ele>
        <time>2012-08-03T08:36:51Z</time>
      </trkpt>
      <trkpt lat="46.53195" lon="10.14506">
        <ele>1947.29</ele>
        <time>2012-08-03T08:36:52Z</time>
      </trkpt>
      <trkpt lat="46.53204" lon="10.14518">
        <ele>1944.88</ele>
        <time>2012-08-03T08:36:53Z</time>
      </trkpt>
      <trkpt lat="46.53211" lon="10.1453">
        <ele>1944.4</ele>
        <time>2012-08-03T08:36:54Z</time>
      </trkpt>
      <trkpt lat="46.53215" lon="10.14542">
        <ele>1942.96</ele>
        <time>2012-08-03T08:36:55Z</time>
      </trkpt>
      <trkpt lat="46.53219" lon="10.14553">
        <ele>1942.96</ele>
        <time>2012-08-03T08:36:56Z</time>
      </trkpt>
      <trkpt lat="46.53224" lon="10.14562">
        <ele>1942.96</ele>
        <time>2012-08-03T08:36:57Z</time>
      </trkpt>
      <trkpt lat="46.5323" lon="10.14566">
        <ele>1941.52</ele>
        <time>2012-08-03T08:36:58Z</time>
      </trkpt>
      <trkpt lat="46.53236" lon="10.14565">
        <ele>1941.04</ele>
        <time>2012-08-03T08:36:59Z</time>
      </trkpt>
      <trkpt lat="46.53241" lon="10.14558">
        <ele>1941.04</ele>
        <time>2012-08-03T08:37:00Z</time>
      </trkpt>
      <trkpt lat="46.53242" lon="10.14547">
        <ele>1941.04</ele>
        <time>2012-08-03T08:37:01Z</time>
      </trkpt>
      <trkpt lat="46.5324" lon="10.14534">
        <ele>1941.52</ele>
        <time>2012-08-03T08:37:02Z</time>
      </trkpt>
      <trkpt lat="46.53234" lon="10.14517">
        <ele>1941.04</ele>
        <time>2012-08-03T08:37:03Z</time>
      </trkpt>
      <trkpt lat="46.53226" lon="10.14499">
        <ele>1941.04</ele>
        <time>2012-08-03T08:37:04Z</time>
      </trkpt>
      <trkpt lat="46.53207" lon="10.14441">
        <ele>1937.19</ele>
        <time>2012-08-03T08:37:07Z</time>
      </trkpt>
      <trkpt lat="46.53193" lon="10.14399">
        <ele>1935.27</ele>
        <time>2012-08-03T08:37:09Z</time>
      </trkpt>
      <trkpt lat="46.53156" lon="10.14327">
        <ele>1931.43</ele>
        <time>2012-08-03T08:37:13Z</time>
      </trkpt>
      <trkpt lat="46.53145" lon="10.14313">
        <ele>1929.98</ele>
        <time>2012-08-03T08:37:14Z</time>
      </trkpt>
      <trkpt lat="46.53122" lon="10.14288">
        <ele>1927.58</ele>
        <time>2012-08-03T08:37:16Z</time>
      </trkpt>
      <trkpt lat="46.53113" lon="10.14273">
        <ele>1926.62</ele>
        <time>2012-08-03T08:37:17Z</time>
      </trkpt>
      <trkpt lat="46.53106" lon="10.14254">
        <ele>1926.14</ele>
        <time>2012-08-03T08:37:18Z</time>
      </trkpt>
      <trkpt lat="46.53102" lon="10.14233">
        <ele>1924.22</ele>
        <time>2012-08-03T08:37:19Z</time>
      </trkpt>
      <trkpt lat="46.53099" lon="10.14212">
        <ele>1923.74</ele>
        <time>2012-08-03T08:37:20Z</time>
      </trkpt>
      <trkpt lat="46.53091" lon="10.14173">
        <ele>1920.85</ele>
        <time>2012-08-03T08:37:22Z</time>
      </trkpt>
      <trkpt lat="46.53084" lon="10.14154">
        <ele>1919.89</ele>
        <time>2012-08-03T08:37:23Z</time>
      </trkpt>
      <trkpt lat="46.53075" lon="10.14137">
        <ele>1919.41</ele>
        <time>2012-08-03T08:37:24Z</time>
      </trkpt>
      <trkpt lat="46.53063" lon="10.14121">
        <ele>1917.97</ele>
        <time>2012-08-03T08:37:25Z</time>
      </trkpt>
      <trkpt lat="46.53052" lon="10.14106">
        <ele>1917.01</ele>
        <time>2012-08-03T08:37:26Z</time>
      </trkpt>
      <trkpt lat="46.53041" lon="10.14091">
        <ele>1915.56</ele>
        <time>2012-08-03T08:37:27Z</time>
      </trkpt>
      <trkpt lat="46.53031" lon="10.14074">
        <ele>1914.6</ele>
        <time>2012-08-03T08:37:28Z</time>
      </trkpt>
      <trkpt lat="46.53023" lon="10.14056">
        <ele>1913.64</ele>
        <time>2012-08-03T08:37:29Z</time>
      </trkpt>
      <trkpt lat="46.53" lon="10.13998">
        <ele>1910.28</ele>
        <time>2012-08-03T08:37:32Z</time>
      </trkpt>
      <trkpt lat="46.52978" lon="10.13941">
        <ele>1906.91</ele>
        <time>2012-08-03T08:37:35Z</time>
      </trkpt>
      <trkpt lat="46.5297" lon="10.13925">
        <ele>1905.47</ele>
        <time>2012-08-03T08:37:36Z</time>
      </trkpt>
      <trkpt lat="46.52961" lon="10.1391">
        <ele>1904.99</ele>
        <time>2012-08-03T08:37:37Z</time>
      </trkpt>
      <trkpt lat="46.52933" lon="10.13864">
        <ele>1902.11</ele>
        <time>2012-08-03T08:37:40Z</time>
      </trkpt>
      <trkpt lat="46.52926" lon="10.13847">
        <ele>1901.14</ele>
        <time>2012-08-03T08:37:41Z</time>
      </trkpt>
      <trkpt lat="46.5291" lon="10.13801">
        <ele>1897.78</ele>
        <time>2012-08-03T08:37:44Z</time>
      </trkpt>
      <trkpt lat="46.52896" lon="10.13753">
        <ele>1894.42</ele>
        <time>2012-08-03T08:37:48Z</time>
      </trkpt>
      <trkpt lat="46.52874" lon="10.13674">
        <ele>1891.53</ele>
        <time>2012-08-03T08:37:54Z</time>
      </trkpt>
      <trkpt lat="46.52868" lon="10.13664">
        <ele>1891.53</ele>
        <time>2012-08-03T08:37:55Z</time>
      </trkpt>
      <trkpt lat="46.52861" lon="10.13656">
        <ele>1891.53</ele>
        <time>2012-08-03T08:37:56Z</time>
      </trkpt>
      <trkpt lat="46.52855" lon="10.13651">
        <ele>1890.57</ele>
        <time>2012-08-03T08:37:57Z</time>
      </trkpt>
      <trkpt lat="46.5285" lon="10.13648">
        <ele>1890.09</ele>
        <time>2012-08-03T08:37:58Z</time>
      </trkpt>
      <trkpt lat="46.52829" lon="10.13627">
        <ele>1888.17</ele>
        <time>2012-08-03T08:38:09Z</time>
      </trkpt>
      <trkpt lat="46.52804" lon="10.13594">
        <ele>1888.65</ele>
        <time>2012-08-03T08:38:17Z</time>
      </trkpt>
      <trkpt lat="46.52786" lon="10.13569">
        <ele>1888.17</ele>
        <time>2012-08-03T08:38:27Z</time>
      </trkpt>
      <trkpt lat="46.52783" lon="10.13567">
        <ele>1888.65</ele>
        <time>2012-08-03T08:38:49Z</time>
      </trkpt>
      <trkpt lat="46.52769" lon="10.1355">
        <ele>1888.17</ele>
        <time>2012-08-03T08:39:02Z</time>
      </trkpt>
      <trkpt lat="46.52727" lon="10.13504">
        <ele>1888.65</ele>
        <time>2012-08-03T08:39:13Z</time>
      </trkpt>
      <trkpt lat="46.52653" lon="10.13414">
        <ele>1887.69</ele>
        <time>2012-08-03T08:39:21Z</time>
      </trkpt>
      <trkpt lat="46.52576" lon="10.13341">
        <ele>1884.32</ele>
        <time>2012-08-03T08:39:27Z</time>
      </trkpt>
      <trkpt lat="46.52562" lon="10.13332">
        <ele>1884.32</ele>
        <time>2012-08-03T08:39:28Z</time>
      </trkpt>
      <trkpt lat="46.52484" lon="10.13281">
        <ele>1880.96</ele>
        <time>2012-08-03T08:39:33Z</time>
      </trkpt>
      <trkpt lat="46.52453" lon="10.1326">
        <ele>1879.51</ele>
        <time>2012-08-03T08:39:35Z</time>
      </trkpt>
      <trkpt lat="46.52379" lon="10.13201">
        <ele>1875.19</ele>
        <time>2012-08-03T08:39:40Z</time>
      </trkpt>
      <trkpt lat="46.52336" lon="10.13161">
        <ele>1873.75</ele>
        <time>2012-08-03T08:39:43Z</time>
      </trkpt>
      <trkpt lat="46.52323" lon="10.13146">
        <ele>1872.79</ele>
        <time>2012-08-03T08:39:44Z</time>
      </trkpt>
      <trkpt lat="46.52311" lon="10.1313">
        <ele>1872.3</ele>
        <time>2012-08-03T08:39:45Z</time>
      </trkpt>
      <trkpt lat="46.52278" lon="10.13085">
        <ele>1870.86</ele>
        <time>2012-08-03T08:39:48Z</time>
      </trkpt>
      <trkpt lat="46.5221" lon="10.13027">
        <ele>1866.54</ele>
        <time>2012-08-03T08:39:53Z</time>
      </trkpt>
      <trkpt lat="46.52182" lon="10.13007">
        <ele>1863.65</ele>
        <time>2012-08-03T08:39:56Z</time>
      </trkpt>
      <trkpt lat="46.52167" lon="10.12996">
        <ele>1862.69</ele>
        <time>2012-08-03T08:39:58Z</time>
      </trkpt>
      <trkpt lat="46.52119" lon="10.12961">
        <ele>1859.33</ele>
        <time>2012-08-03T08:40:06Z</time>
      </trkpt>
      <trkpt lat="46.52057" lon="10.12929">
        <ele>1857.4</ele>
        <time>2012-08-03T08:40:19Z</time>
      </trkpt>
      <trkpt lat="46.51983" lon="10.129">
        <ele>1857.4</ele>
        <time>2012-08-03T08:40:24Z</time>
      </trkpt>
      <trkpt lat="46.5193" lon="10.1288">
        <ele>1853.56</ele>
        <time>2012-08-03T08:40:27Z</time>
      </trkpt>
      <trkpt lat="46.51901" lon="10.12868">
        <ele>1850.19</ele>
        <time>2012-08-03T08:40:29Z</time>
      </trkpt>
      <trkpt lat="46.51878" lon="10.12854">
        <ele>1848.27</ele>
        <time>2012-08-03T08:40:31Z</time>
      </trkpt>
      <trkpt lat="46.51867" lon="10.12845">
        <ele>1847.31</ele>
        <time>2012-08-03T08:40:32Z</time>
      </trkpt>
      <trkpt lat="46.51857" lon="10.12834">
        <ele>1846.83</ele>
        <time>2012-08-03T08:40:33Z</time>
      </trkpt>
      <trkpt lat="46.51847" lon="10.1282">
        <ele>1846.83</ele>
        <time>2012-08-03T08:40:34Z</time>
      </trkpt>
      <trkpt lat="46.51838" lon="10.12804">
        <ele>1846.83</ele>
        <time>2012-08-03T08:40:35Z</time>
      </trkpt>
      <trkpt lat="46.51831" lon="10.12785">
        <ele>1847.79</ele>
        <time>2012-08-03T08:40:36Z</time>
      </trkpt>
      <trkpt lat="46.51826" lon="10.12762">
        <ele>1848.27</ele>
        <time>2012-08-03T08:40:37Z</time>
      </trkpt>
      <trkpt lat="46.51823" lon="10.12737">
        <ele>1848.75</ele>
        <time>2012-08-03T08:40:38Z</time>
      </trkpt>
      <trkpt lat="46.51823" lon="10.12711">
        <ele>1849.23</ele>
        <time>2012-08-03T08:40:39Z</time>
      </trkpt>
      <trkpt lat="46.51825" lon="10.12687">
        <ele>1848.75</ele>
        <time>2012-08-03T08:40:40Z</time>
      </trkpt>
      <trkpt lat="46.51827" lon="10.12664">
        <ele>1848.27</ele>
        <time>2012-08-03T08:40:41Z</time>
      </trkpt>
      <trkpt lat="46.51834" lon="10.12595">
        <ele>1844.91</ele>
        <time>2012-08-03T08:40:45Z</time>
      </trkpt>
      <trkpt lat="46.51835" lon="10.12583">
        <ele>1844.43</ele>
        <time>2012-08-03T08:40:46Z</time>
      </trkpt>
      <trkpt lat="46.51842" lon="10.12528">
        <ele>1844.43</ele>
        <time>2012-08-03T08:40:54Z</time>
      </trkpt>
      <trkpt lat="46.51844" lon="10.12524">
        <ele>1845.39</ele>
        <time>2012-08-03T08:40:59Z</time>
      </trkpt>
      <trkpt lat="46.51847" lon="10.12519">
        <ele>1845.87</ele>
        <time>2012-08-03T08:41:00Z</time>
      </trkpt>
      <trkpt lat="46.51852" lon="10.12515">
        <ele>1845.39</ele>
        <time>2012-08-03T08:41:01Z</time>
      </trkpt>
      <trkpt lat="46.51857" lon="10.12513">
        <ele>1845.87</ele>
        <time>2012-08-03T08:41:02Z</time>
      </trkpt>
      <trkpt lat="46.51862" lon="10.12512">
        <ele>1845.87</ele>
        <time>2012-08-03T08:41:03Z</time>
      </trkpt>
      <trkpt lat="46.51867" lon="10.12511">
        <ele>1846.35</ele>
        <time>2012-08-03T08:41:04Z</time>
      </trkpt>
      <trkpt lat="46.51873" lon="10.12511">
        <ele>1845.87</ele>
        <time>2012-08-03T08:41:05Z</time>
      </trkpt>
      <trkpt lat="46.519" lon="10.12511">
        <ele>1846.83</ele>
        <time>2012-08-03T08:41:09Z</time>
      </trkpt>
      <trkpt lat="46.5198" lon="10.12517">
        <ele>1847.79</ele>
        <time>2012-08-03T08:41:19Z</time>
      </trkpt>
      <trkpt lat="46.51989" lon="10.12522">
        <ele>1848.27</ele>
        <time>2012-08-03T08:41:20Z</time>
      </trkpt>
      <trkpt lat="46.51997" lon="10.12529">
        <ele>1848.75</ele>
        <time>2012-08-03T08:41:21Z</time>
      </trkpt>
      <trkpt lat="46.52005" lon="10.12538">
        <ele>1849.23</ele>
        <time>2012-08-03T08:41:22Z</time>
      </trkpt>
      <trkpt lat="46.52012" lon="10.12549">
        <ele>1849.71</ele>
        <time>2012-08-03T08:41:23Z</time>
      </trkpt>
      <trkpt lat="46.52019" lon="10.1256">
        <ele>1849.71</ele>
        <time>2012-08-03T08:41:24Z</time>
      </trkpt>
      <trkpt lat="46.52026" lon="10.12572">
        <ele>1849.71</ele>
        <time>2012-08-03T08:41:25Z</time>
      </trkpt>
      <trkpt lat="46.52102" lon="10.12682">
        <ele>1851.64</ele>
        <time>2012-08-03T08:41:34Z</time>
      </trkpt>
      <trkpt lat="46.52141" lon="10.12716">
        <ele>1851.64</ele>
        <time>2012-08-03T08:41:38Z</time>
      </trkpt>
      <trkpt lat="46.52151" lon="10.1272">
        <ele>1851.64</ele>
        <time>2012-08-03T08:41:39Z</time>
      </trkpt>
      <trkpt lat="46.52162" lon="10.12721">
        <ele>1851.64</ele>
        <time>2012-08-03T08:41:40Z</time>
      </trkpt>
      <trkpt lat="46.52172" lon="10.12722">
        <ele>1851.64</ele>
        <time>2012-08-03T08:41:41Z</time>
      </trkpt>
      <trkpt lat="46.52184" lon="10.12722">
        <ele>1852.12</ele>
        <time>2012-08-03T08:41:42Z</time>
      </trkpt>
      <trkpt lat="46.52254" lon="10.12722">
        <ele>1854.52</ele>
        <time>2012-08-03T08:41:48Z</time>
      </trkpt>
      <trkpt lat="46.52279" lon="10.12722">
        <ele>1855.48</ele>
        <time>2012-08-03T08:41:50Z</time>
      </trkpt>
      <trkpt lat="46.52291" lon="10.12723">
        <ele>1855.96</ele>
        <time>2012-08-03T08:41:51Z</time>
      </trkpt>
      <trkpt lat="46.52304" lon="10.12726">
        <ele>1856.44</ele>
        <time>2012-08-03T08:41:52Z</time>
      </trkpt>
      <trkpt lat="46.52316" lon="10.12733">
        <ele>1856.44</ele>
        <time>2012-08-03T08:41:53Z</time>
      </trkpt>
      <trkpt lat="46.52326" lon="10.12742">
        <ele>1856.92</ele>
        <time>2012-08-03T08:41:54Z</time>
      </trkpt>
      <trkpt lat="46.52336" lon="10.12753">
        <ele>1857.4</ele>
        <time>2012-08-03T08:41:55Z</time>
      </trkpt>
      <trkpt lat="46.52409" lon="10.12827">
        <ele>1858.37</ele>
        <time>2012-08-03T08:42:04Z</time>
      </trkpt>
      <trkpt lat="46.52418" lon="10.12832">
        <ele>1858.37</ele>
        <time>2012-08-03T08:42:05Z</time>
      </trkpt>
      <trkpt lat="46.52427" lon="10.12836">
        <ele>1858.37</ele>
        <time>2012-08-03T08:42:06Z</time>
      </trkpt>
      <trkpt lat="46.52435" lon="10.12838">
        <ele>1857.89</ele>
        <time>2012-08-03T08:42:07Z</time>
      </trkpt>
      <trkpt lat="46.52481" lon="10.12842">
        <ele>1855.96</ele>
        <time>2012-08-03T08:42:15Z</time>
      </trkpt>
      <trkpt lat="46.52497" lon="10.12841">
        <ele>1855.96</ele>
        <time>2012-08-03T08:42:25Z</time>
      </trkpt>
      <trkpt lat="46.52498" lon="10.12839">
        <ele>1855.96</ele>
        <time>2012-08-03T08:42:28Z</time>
      </trkpt>
      <trkpt lat="46.52499" lon="10.12836">
        <ele>1855.96</ele>
        <time>2012-08-03T08:42:29Z</time>
      </trkpt>
      <trkpt lat="46.525" lon="10.12831">
        <ele>1855.96</ele>
        <time>2012-08-03T08:42:30Z</time>
      </trkpt>
      <trkpt lat="46.52499" lon="10.12825">
        <ele>1855.96</ele>
        <time>2012-08-03T08:42:31Z</time>
      </trkpt>
      <trkpt lat="46.52498" lon="10.12818">
        <ele>1856.44</ele>
        <time>2012-08-03T08:42:32Z</time>
      </trkpt>
      <trkpt lat="46.52498" lon="10.12809">
        <ele>1857.4</ele>
        <time>2012-08-03T08:42:33Z</time>
      </trkpt>
      <trkpt lat="46.52498" lon="10.128">
        <ele>1857.4</ele>
        <time>2012-08-03T08:42:34Z</time>
      </trkpt>
      <trkpt lat="46.52497" lon="10.12753">
        <ele>1860.77</ele>
        <time>2012-08-03T08:42:39Z</time>
      </trkpt>
      <trkpt lat="46.52497" lon="10.12734">
        <ele>1861.73</ele>
        <time>2012-08-03T08:42:46Z</time>
      </trkpt>
      <trkpt lat="46.52497" lon="10.12723">
        <ele>1862.69</ele>
        <time>2012-08-03T08:42:54Z</time>
      </trkpt>
      <trkpt lat="46.52495" lon="10.12704">
        <ele>1863.65</ele>
        <time>2012-08-03T08:43:03Z</time>
      </trkpt>
      <trkpt lat="46.52493" lon="10.127">
        <ele>1863.65</ele>
        <time>2012-08-03T08:43:04Z</time>
      </trkpt>
      <trkpt lat="46.52489" lon="10.12698">
        <ele>1863.65</ele>
        <time>2012-08-03T08:43:05Z</time>
      </trkpt>
      <trkpt lat="46.52485" lon="10.12697">
        <ele>1864.13</ele>
        <time>2012-08-03T08:43:06Z</time>
      </trkpt>
      <trkpt lat="46.52481" lon="10.12697">
        <ele>1864.13</ele>
        <time>2012-08-03T08:43:07Z</time>
      </trkpt>
      <trkpt lat="46.52441" lon="10.12691">
        <ele>1864.61</ele>
        <time>2012-08-03T08:43:17Z</time>
      </trkpt>
      <trkpt lat="46.52437" lon="10.12691">
        <ele>1864.13</ele>
        <time>2012-08-03T08:43:18Z</time>
      </trkpt>
      <trkpt lat="46.52422" lon="10.12695">
        <ele>1865.09</ele>
        <time>2012-08-03T08:43:21Z</time>
      </trkpt>
      <trkpt lat="46.52418" lon="10.12695">
        <ele>1864.61</ele>
        <time>2012-08-03T08:43:22Z</time>
      </trkpt>
      <trkpt lat="46.52414" lon="10.12694">
        <ele>1864.61</ele>
        <time>2012-08-03T08:43:23Z</time>
      </trkpt>
      <trkpt lat="46.52356" lon="10.12679">
        <ele>1863.65</ele>
        <time>2012-08-03T08:43:33Z</time>
      </trkpt>
      <trkpt lat="46.52342" lon="10.12675">
        <ele>1863.17</ele>
        <time>2012-08-03T08:43:35Z</time>
      </trkpt>
      <trkpt lat="46.52317" lon="10.12665">
        <ele>1863.17</ele>
        <time>2012-08-03T08:43:39Z</time>
      </trkpt>
      <trkpt lat="46.52257" lon="10.1263">
        <ele>1861.25</ele>
        <time>2012-08-03T08:43:50Z</time>
      </trkpt>
      <trkpt lat="46.52227" lon="10.12607">
        <ele>1859.81</ele>
        <time>2012-08-03T08:44:00Z</time>
      </trkpt>
      <trkpt lat="46.52187" lon="10.12574">
        <ele>1860.29</ele>
        <time>2012-08-03T08:44:12Z</time>
      </trkpt>
      <trkpt lat="46.52171" lon="10.12563">
        <ele>1860.29</ele>
        <time>2012-08-03T08:44:16Z</time>
      </trkpt>
      <trkpt lat="46.52127" lon="10.12527">
        <ele>1856.92</ele>
        <time>2012-08-03T08:44:25Z</time>
      </trkpt>
      <trkpt lat="46.52121" lon="10.12523">
        <ele>1860.29</ele>
        <time>2012-08-03T08:44:26Z</time>
      </trkpt>
      <trkpt lat="46.521" lon="10.12506">
        <ele>1860.29</ele>
        <time>2012-08-03T08:44:30Z</time>
      </trkpt>
      <trkpt lat="46.5208" lon="10.12488">
        <ele>1855.96</ele>
        <time>2012-08-03T08:44:35Z</time>
      </trkpt>
      <trkpt lat="46.52076" lon="10.12484">
        <ele>1860.29</ele>
        <time>2012-08-03T08:44:36Z</time>
      </trkpt>
      <trkpt lat="46.52059" lon="10.12469">
        <ele>1856.44</ele>
        <time>2012-08-03T08:44:40Z</time>
      </trkpt>
      <trkpt lat="46.52055" lon="10.12464">
        <ele>1860.29</ele>
        <time>2012-08-03T08:44:41Z</time>
      </trkpt>
      <trkpt lat="46.51978" lon="10.12403">
        <ele>1859.81</ele>
        <time>2012-08-03T08:44:55Z</time>
      </trkpt>
      <trkpt lat="46.51961" lon="10.12394">
        <ele>1860.29</ele>
        <time>2012-08-03T08:44:58Z</time>
      </trkpt>
      <trkpt lat="46.51956" lon="10.12391">
        <ele>1864.61</ele>
        <time>2012-08-03T08:44:59Z</time>
      </trkpt>
      <trkpt lat="46.51951" lon="10.12387">
        <ele>1858.37</ele>
        <time>2012-08-03T08:45:00Z</time>
      </trkpt>
      <trkpt lat="46.51905" lon="10.12367">
        <ele>1860.29</ele>
        <time>2012-08-03T08:45:09Z</time>
      </trkpt>
      <trkpt lat="46.51816" lon="10.12321">
        <ele>1860.29</ele>
        <time>2012-08-03T08:45:23Z</time>
      </trkpt>
      <trkpt lat="46.51761" lon="10.12292">
        <ele>1859.81</ele>
        <time>2012-08-03T08:45:35Z</time>
      </trkpt>
      <trkpt lat="46.51706" lon="10.12263">
        <ele>1859.33</ele>
        <time>2012-08-03T08:45:49Z</time>
      </trkpt>
      <trkpt lat="46.51635" lon="10.12223">
        <ele>1859.33</ele>
        <time>2012-08-03T08:46:02Z</time>
      </trkpt>
      <trkpt lat="46.51562" lon="10.1218">
        <ele>1861.73</ele>
        <time>2012-08-03T08:46:12Z</time>
      </trkpt>
      <trkpt lat="46.51511" lon="10.12151">
        <ele>1861.25</ele>
        <time>2012-08-03T08:46:20Z</time>
      </trkpt>
      <trkpt lat="46.51477" lon="10.12139">
        <ele>1860.77</ele>
        <time>2012-08-03T08:46:25Z</time>
      </trkpt>
      <trkpt lat="46.51401" lon="10.12112">
        <ele>1859.33</ele>
        <time>2012-08-03T08:46:35Z</time>
      </trkpt>
      <trkpt lat="46.51394" lon="10.12106">
        <ele>1858.85</ele>
        <time>2012-08-03T08:46:36Z</time>
      </trkpt>
      <trkpt lat="46.51362" lon="10.1208">
        <ele>1857.89</ele>
        <time>2012-08-03T08:46:40Z</time>
      </trkpt>
      <trkpt lat="46.51339" lon="10.12068">
        <ele>1856.44</ele>
        <time>2012-08-03T08:46:43Z</time>
      </trkpt>
      <trkpt lat="46.51331" lon="10.12066">
        <ele>1856.44</ele>
        <time>2012-08-03T08:46:44Z</time>
      </trkpt>
      <trkpt lat="46.51324" lon="10.12066">
        <ele>1855.96</ele>
        <time>2012-08-03T08:46:45Z</time>
      </trkpt>
      <trkpt lat="46.51316" lon="10.12066">
        <ele>1855.96</ele>
        <time>2012-08-03T08:46:46Z</time>
      </trkpt>
      <trkpt lat="46.51309" lon="10.12067">
        <ele>1856.44</ele>
        <time>2012-08-03T08:46:47Z</time>
      </trkpt>
      <trkpt lat="46.513" lon="10.12068">
        <ele>1856.44</ele>
        <time>2012-08-03T08:46:48Z</time>
      </trkpt>
      <trkpt lat="46.51198" lon="10.12089">
        <ele>1859.81</ele>
        <time>2012-08-03T08:47:01Z</time>
      </trkpt>
      <trkpt lat="46.5111" lon="10.12113">
        <ele>1863.17</ele>
        <time>2012-08-03T08:47:11Z</time>
      </trkpt>
      <trkpt lat="46.51012" lon="10.12102">
        <ele>1863.17</ele>
        <time>2012-08-03T08:47:22Z</time>
      </trkpt>
      <trkpt lat="46.51005" lon="10.12098">
        <ele>1862.69</ele>
        <time>2012-08-03T08:47:23Z</time>
      </trkpt>
      <trkpt lat="46.51001" lon="10.12093">
        <ele>1863.17</ele>
        <time>2012-08-03T08:47:24Z</time>
      </trkpt>
      <trkpt lat="46.50997" lon="10.12088">
        <ele>1863.17</ele>
        <time>2012-08-03T08:47:25Z</time>
      </trkpt>
      <trkpt lat="46.50993" lon="10.12086">
        <ele>1862.69</ele>
        <time>2012-08-03T08:47:26Z</time>
      </trkpt>
      <trkpt lat="46.50992" lon="10.12085">
        <ele>1862.69</ele>
        <time>2012-08-03T08:47:33Z</time>
      </trkpt>
      <trkpt lat="46.50989" lon="10.12085">
        <ele>1862.69</ele>
        <time>2012-08-03T08:47:48Z</time>
      </trkpt>
      <trkpt lat="46.50985" lon="10.12087">
        <ele>1862.21</ele>
        <time>2012-08-03T08:47:49Z</time>
      </trkpt>
      <trkpt lat="46.5098" lon="10.12089">
        <ele>1861.73</ele>
        <time>2012-08-03T08:47:50Z</time>
      </trkpt>
      <trkpt lat="46.50973" lon="10.12088">
        <ele>1861.25</ele>
        <time>2012-08-03T08:47:51Z</time>
      </trkpt>
      <trkpt lat="46.50965" lon="10.12085">
        <ele>1861.73</ele>
        <time>2012-08-03T08:47:52Z</time>
      </trkpt>
      <trkpt lat="46.50956" lon="10.12081">
        <ele>1861.73</ele>
        <time>2012-08-03T08:47:53Z</time>
      </trkpt>
      <trkpt lat="46.50829" lon="10.12012">
        <ele>1862.21</ele>
        <time>2012-08-03T08:48:05Z</time>
      </trkpt>
      <trkpt lat="46.5067" lon="10.1193">
        <ele>1863.65</ele>
        <time>2012-08-03T08:48:19Z</time>
      </trkpt>
      <trkpt lat="46.50511" lon="10.11868">
        <ele>1867.02</ele>
        <time>2012-08-03T08:48:35Z</time>
      </trkpt>
      <trkpt lat="46.50432" lon="10.11838">
        <ele>1868.94</ele>
        <time>2012-08-03T08:48:42Z</time>
      </trkpt>
      <trkpt lat="46.50323" lon="10.11796">
        <ele>1872.3</ele>
        <time>2012-08-03T08:48:52Z</time>
      </trkpt>
      <trkpt lat="46.50313" lon="10.11793">
        <ele>1872.3</ele>
        <time>2012-08-03T08:48:53Z</time>
      </trkpt>
      <trkpt lat="46.50302" lon="10.11792">
        <ele>1872.3</ele>
        <time>2012-08-03T08:48:54Z</time>
      </trkpt>
      <trkpt lat="46.50279" lon="10.11789">
        <ele>1872.79</ele>
        <time>2012-08-03T08:48:56Z</time>
      </trkpt>
      <trkpt lat="46.50266" lon="10.11785">
        <ele>1872.79</ele>
        <time>2012-08-03T08:48:57Z</time>
      </trkpt>
      <trkpt lat="46.50104" lon="10.11734">
        <ele>1873.75</ele>
        <time>2012-08-03T08:49:10Z</time>
      </trkpt>
      <trkpt lat="46.4996" lon="10.11692">
        <ele>1876.63</ele>
        <time>2012-08-03T08:49:22Z</time>
      </trkpt>
      <trkpt lat="46.49771" lon="10.11639">
        <ele>1879.51</ele>
        <time>2012-08-03T08:49:38Z</time>
      </trkpt>
      <trkpt lat="46.49638" lon="10.11601">
        <ele>1882.88</ele>
        <time>2012-08-03T08:49:49Z</time>
      </trkpt>
      <trkpt lat="46.49548" lon="10.11575">
        <ele>1886.24</ele>
        <time>2012-08-03T08:49:56Z</time>
      </trkpt>
      <trkpt lat="46.49396" lon="10.11533">
        <ele>1887.21</ele>
        <time>2012-08-03T08:50:09Z</time>
      </trkpt>
      <trkpt lat="46.49219" lon="10.11483">
        <ele>1888.65</ele>
        <time>2012-08-03T08:50:22Z</time>
      </trkpt>
      <trkpt lat="46.49032" lon="10.11424">
        <ele>1890.57</ele>
        <time>2012-08-03T08:50:36Z</time>
      </trkpt>
      <trkpt lat="46.48937" lon="10.11341">
        <ele>1894.42</ele>
        <time>2012-08-03T08:50:44Z</time>
      </trkpt>
      <trkpt lat="46.48882" lon="10.1127">
        <ele>1896.82</ele>
        <time>2012-08-03T08:50:49Z</time>
      </trkpt>
      <trkpt lat="46.48805" lon="10.11169">
        <ele>1896.34</ele>
        <time>2012-08-03T08:50:56Z</time>
      </trkpt>
      <trkpt lat="46.48751" lon="10.11101">
        <ele>1897.3</ele>
        <time>2012-08-03T08:51:02Z</time>
      </trkpt>
      <trkpt lat="46.48623" lon="10.10938">
        <ele>1901.14</ele>
        <time>2012-08-03T08:51:16Z</time>
      </trkpt>
      <trkpt lat="46.48503" lon="10.10784">
        <ele>1903.55</ele>
        <time>2012-08-03T08:51:29Z</time>
      </trkpt>
      <trkpt lat="46.4848" lon="10.10755">
        <ele>1903.55</ele>
        <time>2012-08-03T08:51:32Z</time>
      </trkpt>
      <trkpt lat="46.48476" lon="10.10746">
        <ele>1903.07</ele>
        <time>2012-08-03T08:51:33Z</time>
      </trkpt>
      <trkpt lat="46.48473" lon="10.10738">
        <ele>1903.07</ele>
        <time>2012-08-03T08:51:34Z</time>
      </trkpt>
      <trkpt lat="46.48471" lon="10.10731">
        <ele>1903.07</ele>
        <time>2012-08-03T08:51:35Z</time>
      </trkpt>
      <trkpt lat="46.4847" lon="10.10726">
        <ele>1903.07</ele>
        <time>2012-08-03T08:51:36Z</time>
      </trkpt>
      <trkpt lat="46.48471" lon="10.1072">
        <ele>1903.07</ele>
        <time>2012-08-03T08:51:45Z</time>
      </trkpt>
      <trkpt lat="46.48458" lon="10.107">
        <ele>1904.03</ele>
        <time>2012-08-03T08:51:55Z</time>
      </trkpt>
      <trkpt lat="46.4844" lon="10.10681">
        <ele>1904.03</ele>
        <time>2012-08-03T08:52:05Z</time>
      </trkpt>
      <trkpt lat="46.4844" lon="10.10682">
        <ele>1904.03</ele>
        <time>2012-08-03T08:52:08Z</time>
      </trkpt>
      <trkpt lat="46.48437" lon="10.10682">
        <ele>1904.51</ele>
        <time>2012-08-03T08:52:09Z</time>
      </trkpt>
      <trkpt lat="46.48433" lon="10.10683">
        <ele>1904.51</ele>
        <time>2012-08-03T08:52:10Z</time>
      </trkpt>
      <trkpt lat="46.48427" lon="10.10683">
        <ele>1904.51</ele>
        <time>2012-08-03T08:52:11Z</time>
      </trkpt>
      <trkpt lat="46.48421" lon="10.10679">
        <ele>1904.51</ele>
        <time>2012-08-03T08:52:12Z</time>
      </trkpt>
      <trkpt lat="46.48415" lon="10.10672">
        <ele>1904.99</ele>
        <time>2012-08-03T08:52:13Z</time>
      </trkpt>
      <trkpt lat="46.48408" lon="10.10662">
        <ele>1905.95</ele>
        <time>2012-08-03T08:52:14Z</time>
      </trkpt>
      <trkpt lat="46.48361" lon="10.10604">
        <ele>1909.8</ele>
        <time>2012-08-03T08:52:19Z</time>
      </trkpt>
      <trkpt lat="46.4835" lon="10.10589">
        <ele>1909.8</ele>
        <time>2012-08-03T08:52:20Z</time>
      </trkpt>
      <trkpt lat="46.48287" lon="10.10508">
        <ele>1913.16</ele>
        <time>2012-08-03T08:52:25Z</time>
      </trkpt>
      <trkpt lat="46.48189" lon="10.10385">
        <ele>1915.08</ele>
        <time>2012-08-03T08:52:33Z</time>
      </trkpt>
      <trkpt lat="46.48125" lon="10.10305">
        <ele>1918.45</ele>
        <time>2012-08-03T08:52:38Z</time>
      </trkpt>
      <trkpt lat="46.48069" lon="10.10252">
        <ele>1922.29</ele>
        <time>2012-08-03T08:52:42Z</time>
      </trkpt>
      <trkpt lat="46.48039" lon="10.10228">
        <ele>1923.25</ele>
        <time>2012-08-03T08:52:44Z</time>
      </trkpt>
      <trkpt lat="46.4796" lon="10.10179">
        <ele>1926.62</ele>
        <time>2012-08-03T08:52:49Z</time>
      </trkpt>
      <trkpt lat="46.47944" lon="10.10171">
        <ele>1926.62</ele>
        <time>2012-08-03T08:52:50Z</time>
      </trkpt>
      <trkpt lat="46.47895" lon="10.10141">
        <ele>1924.7</ele>
        <time>2012-08-03T08:52:54Z</time>
      </trkpt>
      <trkpt lat="46.47887" lon="10.1013">
        <ele>1924.7</ele>
        <time>2012-08-03T08:52:55Z</time>
      </trkpt>
      <trkpt lat="46.4788" lon="10.10116">
        <ele>1925.18</ele>
        <time>2012-08-03T08:52:56Z</time>
      </trkpt>
      <trkpt lat="46.47876" lon="10.10099">
        <ele>1925.66</ele>
        <time>2012-08-03T08:52:57Z</time>
      </trkpt>
      <trkpt lat="46.47871" lon="10.1008">
        <ele>1926.62</ele>
        <time>2012-08-03T08:52:58Z</time>
      </trkpt>
      <trkpt lat="46.47846" lon="10.09971">
        <ele>1930.46</ele>
        <time>2012-08-03T08:53:03Z</time>
      </trkpt>
      <trkpt lat="46.47829" lon="10.09901">
        <ele>1933.35</ele>
        <time>2012-08-03T08:53:06Z</time>
      </trkpt>
      <trkpt lat="46.47801" lon="10.09784">
        <ele>1937.19</ele>
        <time>2012-08-03T08:53:11Z</time>
      </trkpt>
      <trkpt lat="46.47785" lon="10.09719">
        <ele>1939.12</ele>
        <time>2012-08-03T08:53:14Z</time>
      </trkpt>
      <trkpt lat="46.47778" lon="10.09701">
        <ele>1939.6</ele>
        <time>2012-08-03T08:53:15Z</time>
      </trkpt>
      <trkpt lat="46.47769" lon="10.09684">
        <ele>1940.56</ele>
        <time>2012-08-03T08:53:16Z</time>
      </trkpt>
      <trkpt lat="46.47758" lon="10.0967">
        <ele>1942</ele>
        <time>2012-08-03T08:53:17Z</time>
      </trkpt>
      <trkpt lat="46.47745" lon="10.09658">
        <ele>1942.96</ele>
        <time>2012-08-03T08:53:18Z</time>
      </trkpt>
      <trkpt lat="46.47731" lon="10.09646">
        <ele>1943.92</ele>
        <time>2012-08-03T08:53:19Z</time>
      </trkpt>
      <trkpt lat="46.47673" lon="10.09598">
        <ele>1947.77</ele>
        <time>2012-08-03T08:53:23Z</time>
      </trkpt>
      <trkpt lat="46.47628" lon="10.09561">
        <ele>1949.69</ele>
        <time>2012-08-03T08:53:26Z</time>
      </trkpt>
      <trkpt lat="46.47567" lon="10.09515">
        <ele>1953.54</ele>
        <time>2012-08-03T08:53:30Z</time>
      </trkpt>
      <trkpt lat="46.47551" lon="10.09508">
        <ele>1954.02</ele>
        <time>2012-08-03T08:53:31Z</time>
      </trkpt>
      <trkpt lat="46.47534" lon="10.09503">
        <ele>1954.5</ele>
        <time>2012-08-03T08:53:32Z</time>
      </trkpt>
      <trkpt lat="46.47444" lon="10.0948">
        <ele>1957.86</ele>
        <time>2012-08-03T08:53:37Z</time>
      </trkpt>
      <trkpt lat="46.47426" lon="10.09475">
        <ele>1957.86</ele>
        <time>2012-08-03T08:53:38Z</time>
      </trkpt>
      <trkpt lat="46.4736" lon="10.09461">
        <ele>1958.34</ele>
        <time>2012-08-03T08:53:42Z</time>
      </trkpt>
      <trkpt lat="46.47345" lon="10.09461">
        <ele>1958.82</ele>
        <time>2012-08-03T08:53:43Z</time>
      </trkpt>
      <trkpt lat="46.4733" lon="10.09466">
        <ele>1958.82</ele>
        <time>2012-08-03T08:53:44Z</time>
      </trkpt>
      <trkpt lat="46.47315" lon="10.09473">
        <ele>1959.78</ele>
        <time>2012-08-03T08:53:45Z</time>
      </trkpt>
      <trkpt lat="46.47301" lon="10.0948">
        <ele>1959.78</ele>
        <time>2012-08-03T08:53:46Z</time>
      </trkpt>
      <trkpt lat="46.47216" lon="10.09524">
        <ele>1960.75</ele>
        <time>2012-08-03T08:53:52Z</time>
      </trkpt>
      <trkpt lat="46.47201" lon="10.09528">
        <ele>1961.71</ele>
        <time>2012-08-03T08:53:53Z</time>
      </trkpt>
      <trkpt lat="46.47092" lon="10.09546">
        <ele>1964.59</ele>
        <time>2012-08-03T08:54:01Z</time>
      </trkpt>
      <trkpt lat="46.46997" lon="10.09554">
        <ele>1966.03</ele>
        <time>2012-08-03T08:54:08Z</time>
      </trkpt>
      <trkpt lat="46.46984" lon="10.09549">
        <ele>1966.51</ele>
        <time>2012-08-03T08:54:09Z</time>
      </trkpt>
      <trkpt lat="46.46971" lon="10.09541">
        <ele>1966.51</ele>
        <time>2012-08-03T08:54:10Z</time>
      </trkpt>
      <trkpt lat="46.46904" lon="10.09491">
        <ele>1966.99</ele>
        <time>2012-08-03T08:54:16Z</time>
      </trkpt>
      <trkpt lat="46.46895" lon="10.09479">
        <ele>1967.48</ele>
        <time>2012-08-03T08:54:17Z</time>
      </trkpt>
      <trkpt lat="46.46886" lon="10.09465">
        <ele>1968.44</ele>
        <time>2012-08-03T08:54:18Z</time>
      </trkpt>
      <trkpt lat="46.46878" lon="10.09449">
        <ele>1968.92</ele>
        <time>2012-08-03T08:54:19Z</time>
      </trkpt>
      <trkpt lat="46.46871" lon="10.09433">
        <ele>1968.92</ele>
        <time>2012-08-03T08:54:20Z</time>
      </trkpt>
      <trkpt lat="46.46821" lon="10.09326">
        <ele>1971.8</ele>
        <time>2012-08-03T08:54:27Z</time>
      </trkpt>
      <trkpt lat="46.46786" lon="10.09257">
        <ele>1973.72</ele>
        <time>2012-08-03T08:54:32Z</time>
      </trkpt>
      <trkpt lat="46.46776" lon="10.09247">
        <ele>1974.2</ele>
        <time>2012-08-03T08:54:33Z</time>
      </trkpt>
      <trkpt lat="46.46766" lon="10.09239">
        <ele>1975.65</ele>
        <time>2012-08-03T08:54:34Z</time>
      </trkpt>
      <trkpt lat="46.46755" lon="10.09232">
        <ele>1975.65</ele>
        <time>2012-08-03T08:54:35Z</time>
      </trkpt>
      <trkpt lat="46.46744" lon="10.09225">
        <ele>1976.61</ele>
        <time>2012-08-03T08:54:36Z</time>
      </trkpt>
      <trkpt lat="46.46722" lon="10.0921">
        <ele>1977.57</ele>
        <time>2012-08-03T08:54:38Z</time>
      </trkpt>
      <trkpt lat="46.46657" lon="10.09161">
        <ele>1980.93</ele>
        <time>2012-08-03T08:54:44Z</time>
      </trkpt>
      <trkpt lat="46.46628" lon="10.0913">
        <ele>1982.38</ele>
        <time>2012-08-03T08:54:47Z</time>
      </trkpt>
      <trkpt lat="46.46619" lon="10.09118">
        <ele>1983.34</ele>
        <time>2012-08-03T08:54:48Z</time>
      </trkpt>
      <trkpt lat="46.46587" lon="10.09062">
        <ele>1987.18</ele>
        <time>2012-08-03T08:54:52Z</time>
      </trkpt>
      <trkpt lat="46.46578" lon="10.0905">
        <ele>1987.66</ele>
        <time>2012-08-03T08:54:53Z</time>
      </trkpt>
      <trkpt lat="46.46568" lon="10.0904">
        <ele>1988.14</ele>
        <time>2012-08-03T08:54:54Z</time>
      </trkpt>
      <trkpt lat="46.46557" lon="10.09033">
        <ele>1988.14</ele>
        <time>2012-08-03T08:54:55Z</time>
      </trkpt>
      <trkpt lat="46.46503" lon="10.08996">
        <ele>1991.99</ele>
        <time>2012-08-03T08:55:00Z</time>
      </trkpt>
      <trkpt lat="46.4645" lon="10.08954">
        <ele>1995.35</ele>
        <time>2012-08-03T08:55:05Z</time>
      </trkpt>
      <trkpt lat="46.46422" lon="10.08925">
        <ele>1997.76</ele>
        <time>2012-08-03T08:55:08Z</time>
      </trkpt>
      <trkpt lat="46.46385" lon="10.08883">
        <ele>2001.12</ele>
        <time>2012-08-03T08:55:12Z</time>
      </trkpt>
      <trkpt lat="46.46356" lon="10.08849">
        <ele>2004.49</ele>
        <time>2012-08-03T08:55:15Z</time>
      </trkpt>
      <trkpt lat="46.46346" lon="10.08838">
        <ele>2004.49</ele>
        <time>2012-08-03T08:55:16Z</time>
      </trkpt>
      <trkpt lat="46.46329" lon="10.08816">
        <ele>2005.45</ele>
        <time>2012-08-03T08:55:18Z</time>
      </trkpt>
      <trkpt lat="46.46322" lon="10.08802">
        <ele>2006.89</ele>
        <time>2012-08-03T08:55:19Z</time>
      </trkpt>
      <trkpt lat="46.46316" lon="10.08788">
        <ele>2007.37</ele>
        <time>2012-08-03T08:55:20Z</time>
      </trkpt>
      <trkpt lat="46.46291" lon="10.08729">
        <ele>2010.25</ele>
        <time>2012-08-03T08:55:24Z</time>
      </trkpt>
      <trkpt lat="46.4628" lon="10.08698">
        <ele>2012.66</ele>
        <time>2012-08-03T08:55:26Z</time>
      </trkpt>
      <trkpt lat="46.46277" lon="10.08682">
        <ele>2013.14</ele>
        <time>2012-08-03T08:55:27Z</time>
      </trkpt>
      <trkpt lat="46.46274" lon="10.08665">
        <ele>2013.62</ele>
        <time>2012-08-03T08:55:28Z</time>
      </trkpt>
      <trkpt lat="46.46273" lon="10.08647">
        <ele>2014.1</ele>
        <time>2012-08-03T08:55:29Z</time>
      </trkpt>
      <trkpt lat="46.46272" lon="10.0863">
        <ele>2015.06</ele>
        <time>2012-08-03T08:55:30Z</time>
      </trkpt>
      <trkpt lat="46.46269" lon="10.08598">
        <ele>2016.5</ele>
        <time>2012-08-03T08:55:32Z</time>
      </trkpt>
      <trkpt lat="46.46267" lon="10.08583">
        <ele>2016.98</ele>
        <time>2012-08-03T08:55:33Z</time>
      </trkpt>
      <trkpt lat="46.46262" lon="10.08568">
        <ele>2017.94</ele>
        <time>2012-08-03T08:55:34Z</time>
      </trkpt>
      <trkpt lat="46.46256" lon="10.08555">
        <ele>2018.43</ele>
        <time>2012-08-03T08:55:35Z</time>
      </trkpt>
      <trkpt lat="46.46251" lon="10.08542">
        <ele>2018.91</ele>
        <time>2012-08-03T08:55:36Z</time>
      </trkpt>
      <trkpt lat="46.46247" lon="10.08529">
        <ele>2020.35</ele>
        <time>2012-08-03T08:55:37Z</time>
      </trkpt>
      <trkpt lat="46.46244" lon="10.08515">
        <ele>2020.83</ele>
        <time>2012-08-03T08:55:38Z</time>
      </trkpt>
      <trkpt lat="46.46244" lon="10.085">
        <ele>2021.31</ele>
        <time>2012-08-03T08:55:39Z</time>
      </trkpt>
      <trkpt lat="46.46247" lon="10.08485">
        <ele>2021.31</ele>
        <time>2012-08-03T08:55:40Z</time>
      </trkpt>
      <trkpt lat="46.4625" lon="10.08468">
        <ele>2023.23</ele>
        <time>2012-08-03T08:55:41Z</time>
      </trkpt>
      <trkpt lat="46.46256" lon="10.08428">
        <ele>2027.08</ele>
        <time>2012-08-03T08:55:43Z</time>
      </trkpt>
      <trkpt lat="46.46265" lon="10.08357">
        <ele>2031.4</ele>
        <time>2012-08-03T08:55:46Z</time>
      </trkpt>
      <trkpt lat="46.46269" lon="10.08334">
        <ele>2031.88</ele>
        <time>2012-08-03T08:55:47Z</time>
      </trkpt>
      <trkpt lat="46.46274" lon="10.08294">
        <ele>2032.36</ele>
        <time>2012-08-03T08:55:49Z</time>
      </trkpt>
      <trkpt lat="46.46273" lon="10.08276">
        <ele>2032.84</ele>
        <time>2012-08-03T08:55:50Z</time>
      </trkpt>
      <trkpt lat="46.46268" lon="10.08257">
        <ele>2034.29</ele>
        <time>2012-08-03T08:55:51Z</time>
      </trkpt>
      <trkpt lat="46.46262" lon="10.08238">
        <ele>2035.25</ele>
        <time>2012-08-03T08:55:52Z</time>
      </trkpt>
      <trkpt lat="46.46255" lon="10.08219">
        <ele>2036.69</ele>
        <time>2012-08-03T08:55:53Z</time>
      </trkpt>
      <trkpt lat="46.46236" lon="10.08158">
        <ele>2040.05</ele>
        <time>2012-08-03T08:55:56Z</time>
      </trkpt>
      <trkpt lat="46.46215" lon="10.08094">
        <ele>2043.9</ele>
        <time>2012-08-03T08:55:59Z</time>
      </trkpt>
      <trkpt lat="46.46175" lon="10.07998">
        <ele>2047.26</ele>
        <time>2012-08-03T08:56:04Z</time>
      </trkpt>
      <trkpt lat="46.46164" lon="10.07961">
        <ele>2048.23</ele>
        <time>2012-08-03T08:56:06Z</time>
      </trkpt>
      <trkpt lat="46.4616" lon="10.07943">
        <ele>2048.71</ele>
        <time>2012-08-03T08:56:07Z</time>
      </trkpt>
      <trkpt lat="46.46158" lon="10.07924">
        <ele>2049.67</ele>
        <time>2012-08-03T08:56:08Z</time>
      </trkpt>
      <trkpt lat="46.46159" lon="10.07904">
        <ele>2050.63</ele>
        <time>2012-08-03T08:56:09Z</time>
      </trkpt>
      <trkpt lat="46.46162" lon="10.07882">
        <ele>2052.07</ele>
        <time>2012-08-03T08:56:10Z</time>
      </trkpt>
      <trkpt lat="46.46165" lon="10.0786">
        <ele>2053.03</ele>
        <time>2012-08-03T08:56:11Z</time>
      </trkpt>
      <trkpt lat="46.46172" lon="10.07813">
        <ele>2055.92</ele>
        <time>2012-08-03T08:56:13Z</time>
      </trkpt>
      <trkpt lat="46.4618" lon="10.0774">
        <ele>2059.76</ele>
        <time>2012-08-03T08:56:16Z</time>
      </trkpt>
      <trkpt lat="46.46178" lon="10.07715">
        <ele>2060.72</ele>
        <time>2012-08-03T08:56:17Z</time>
      </trkpt>
      <trkpt lat="46.46175" lon="10.0769">
        <ele>2062.17</ele>
        <time>2012-08-03T08:56:18Z</time>
      </trkpt>
      <trkpt lat="46.46167" lon="10.07638">
        <ele>2065.53</ele>
        <time>2012-08-03T08:56:20Z</time>
      </trkpt>
      <trkpt lat="46.46159" lon="10.07585">
        <ele>2069.38</ele>
        <time>2012-08-03T08:56:22Z</time>
      </trkpt>
      <trkpt lat="46.46151" lon="10.07503">
        <ele>2073.22</ele>
        <time>2012-08-03T08:56:25Z</time>
      </trkpt>
      <trkpt lat="46.46147" lon="10.07452">
        <ele>2074.18</ele>
        <time>2012-08-03T08:56:27Z</time>
      </trkpt>
      <trkpt lat="46.46146" lon="10.07404">
        <ele>2076.1</ele>
        <time>2012-08-03T08:56:29Z</time>
      </trkpt>
      <trkpt lat="46.4615" lon="10.07361">
        <ele>2076.59</ele>
        <time>2012-08-03T08:56:31Z</time>
      </trkpt>
      <trkpt lat="46.46154" lon="10.07341">
        <ele>2077.55</ele>
        <time>2012-08-03T08:56:32Z</time>
      </trkpt>
      <trkpt lat="46.46162" lon="10.07322">
        <ele>2078.51</ele>
        <time>2012-08-03T08:56:33Z</time>
      </trkpt>
      <trkpt lat="46.46172" lon="10.07304">
        <ele>2081.39</ele>
        <time>2012-08-03T08:56:34Z</time>
      </trkpt>
      <trkpt lat="46.46182" lon="10.07286">
        <ele>2082.35</ele>
        <time>2012-08-03T08:56:35Z</time>
      </trkpt>
      <trkpt lat="46.46191" lon="10.07267">
        <ele>2082.35</ele>
        <time>2012-08-03T08:56:36Z</time>
      </trkpt>
      <trkpt lat="46.46198" lon="10.07246">
        <ele>2083.31</ele>
        <time>2012-08-03T08:56:37Z</time>
      </trkpt>
      <trkpt lat="46.46201" lon="10.07224">
        <ele>2084.76</ele>
        <time>2012-08-03T08:56:38Z</time>
      </trkpt>
      <trkpt lat="46.46202" lon="10.07201">
        <ele>2085.72</ele>
        <time>2012-08-03T08:56:39Z</time>
      </trkpt>
      <trkpt lat="46.46201" lon="10.07178">
        <ele>2086.68</ele>
        <time>2012-08-03T08:56:40Z</time>
      </trkpt>
      <trkpt lat="46.46198" lon="10.07154">
        <ele>2088.6</ele>
        <time>2012-08-03T08:56:41Z</time>
      </trkpt>
      <trkpt lat="46.46193" lon="10.07131">
        <ele>2089.56</ele>
        <time>2012-08-03T08:56:42Z</time>
      </trkpt>
      <trkpt lat="46.46187" lon="10.07107">
        <ele>2090.52</ele>
        <time>2012-08-03T08:56:43Z</time>
      </trkpt>
      <trkpt lat="46.46171" lon="10.07036">
        <ele>2094.85</ele>
        <time>2012-08-03T08:56:46Z</time>
      </trkpt>
      <trkpt lat="46.4616" lon="10.06987">
        <ele>2098.21</ele>
        <time>2012-08-03T08:56:48Z</time>
      </trkpt>
      <trkpt lat="46.46146" lon="10.06917">
        <ele>2100.14</ele>
        <time>2012-08-03T08:56:51Z</time>
      </trkpt>
      <trkpt lat="46.46143" lon="10.06893">
        <ele>2101.58</ele>
        <time>2012-08-03T08:56:52Z</time>
      </trkpt>
      <trkpt lat="46.46142" lon="10.06869">
        <ele>2103.02</ele>
        <time>2012-08-03T08:56:53Z</time>
      </trkpt>
      <trkpt lat="46.46142" lon="10.0679">
        <ele>2106.39</ele>
        <time>2012-08-03T08:56:56Z</time>
      </trkpt>
      <trkpt lat="46.46142" lon="10.06711">
        <ele>2109.27</ele>
        <time>2012-08-03T08:56:59Z</time>
      </trkpt>
      <trkpt lat="46.46142" lon="10.06639">
        <ele>2110.71</ele>
        <time>2012-08-03T08:57:02Z</time>
      </trkpt>
      <trkpt lat="46.4614" lon="10.06593">
        <ele>2112.63</ele>
        <time>2012-08-03T08:57:04Z</time>
      </trkpt>
      <trkpt lat="46.46135" lon="10.0657">
        <ele>2113.6</ele>
        <time>2012-08-03T08:57:05Z</time>
      </trkpt>
      <trkpt lat="46.46128" lon="10.06548">
        <ele>2114.56</ele>
        <time>2012-08-03T08:57:06Z</time>
      </trkpt>
      <trkpt lat="46.46119" lon="10.06528">
        <ele>2116</ele>
        <time>2012-08-03T08:57:07Z</time>
      </trkpt>
      <trkpt lat="46.46109" lon="10.06507">
        <ele>2116.48</ele>
        <time>2012-08-03T08:57:08Z</time>
      </trkpt>
      <trkpt lat="46.46089" lon="10.06468">
        <ele>2120.32</ele>
        <time>2012-08-03T08:57:10Z</time>
      </trkpt>
      <trkpt lat="46.46073" lon="10.06426">
        <ele>2123.21</ele>
        <time>2012-08-03T08:57:12Z</time>
      </trkpt>
      <trkpt lat="46.46068" lon="10.06404">
        <ele>2124.17</ele>
        <time>2012-08-03T08:57:13Z</time>
      </trkpt>
      <trkpt lat="46.46057" lon="10.06334">
        <ele>2127.53</ele>
        <time>2012-08-03T08:57:16Z</time>
      </trkpt>
      <trkpt lat="46.46056" lon="10.06309">
        <ele>2130.9</ele>
        <time>2012-08-03T08:57:17Z</time>
      </trkpt>
      <trkpt lat="46.46054" lon="10.06285">
        <ele>2130.42</ele>
        <time>2012-08-03T08:57:18Z</time>
      </trkpt>
      <trkpt lat="46.4605" lon="10.06212">
        <ele>2133.3</ele>
        <time>2012-08-03T08:57:21Z</time>
      </trkpt>
      <trkpt lat="46.46048" lon="10.06188">
        <ele>2137.15</ele>
        <time>2012-08-03T08:57:22Z</time>
      </trkpt>
      <trkpt lat="46.46046" lon="10.06166">
        <ele>2135.71</ele>
        <time>2012-08-03T08:57:23Z</time>
      </trkpt>
      <trkpt lat="46.46042" lon="10.06143">
        <ele>2136.67</ele>
        <time>2012-08-03T08:57:24Z</time>
      </trkpt>
      <trkpt lat="46.46034" lon="10.06122">
        <ele>2138.11</ele>
        <time>2012-08-03T08:57:25Z</time>
      </trkpt>
      <trkpt lat="46.46025" lon="10.06102">
        <ele>2139.55</ele>
        <time>2012-08-03T08:57:26Z</time>
      </trkpt>
      <trkpt lat="46.46004" lon="10.06063">
        <ele>2142.92</ele>
        <time>2012-08-03T08:57:28Z</time>
      </trkpt>
      <trkpt lat="46.45973" lon="10.06003">
        <ele>2148.68</ele>
        <time>2012-08-03T08:57:31Z</time>
      </trkpt>
      <trkpt lat="46.45932" lon="10.05923">
        <ele>2152.53</ele>
        <time>2012-08-03T08:57:35Z</time>
      </trkpt>
      <trkpt lat="46.45892" lon="10.05845">
        <ele>2155.89</ele>
        <time>2012-08-03T08:57:39Z</time>
      </trkpt>
      <trkpt lat="46.45881" lon="10.05829">
        <ele>2157.82</ele>
        <time>2012-08-03T08:57:40Z</time>
      </trkpt>
      <trkpt lat="46.45868" lon="10.05815">
        <ele>2158.78</ele>
        <time>2012-08-03T08:57:41Z</time>
      </trkpt>
      <trkpt lat="46.45826" lon="10.05777">
        <ele>2162.14</ele>
        <time>2012-08-03T08:57:44Z</time>
      </trkpt>
      <trkpt lat="46.45798" lon="10.05752">
        <ele>2165.03</ele>
        <time>2012-08-03T08:57:46Z</time>
      </trkpt>
      <trkpt lat="46.45783" lon="10.05741">
        <ele>2165.99</ele>
        <time>2012-08-03T08:57:47Z</time>
      </trkpt>
      <trkpt lat="46.45751" lon="10.05722">
        <ele>2169.35</ele>
        <time>2012-08-03T08:57:49Z</time>
      </trkpt>
      <trkpt lat="46.45717" lon="10.05703">
        <ele>2172.72</ele>
        <time>2012-08-03T08:57:53Z</time>
      </trkpt>
      <trkpt lat="46.45647" lon="10.05692">
        <ele>2176.08</ele>
        <time>2012-08-03T08:57:56Z</time>
      </trkpt>
      <trkpt lat="46.45615" lon="10.05726">
        <ele>2179.45</ele>
        <time>2012-08-03T08:57:59Z</time>
      </trkpt>
      <trkpt lat="46.45602" lon="10.05733">
        <ele>2180.41</ele>
        <time>2012-08-03T08:58:00Z</time>
      </trkpt>
      <trkpt lat="46.45588" lon="10.05738">
        <ele>2182.33</ele>
        <time>2012-08-03T08:58:01Z</time>
      </trkpt>
      <trkpt lat="46.45542" lon="10.05751">
        <ele>2187.14</ele>
        <time>2012-08-03T08:58:04Z</time>
      </trkpt>
      <trkpt lat="46.45526" lon="10.05756">
        <ele>2186.66</ele>
        <time>2012-08-03T08:58:05Z</time>
      </trkpt>
      <trkpt lat="46.45514" lon="10.05755">
        <ele>2187.62</ele>
        <time>2012-08-03T08:58:06Z</time>
      </trkpt>
      <trkpt lat="46.45509" lon="10.05744">
        <ele>2188.58</ele>
        <time>2012-08-03T08:58:07Z</time>
      </trkpt>
      <trkpt lat="46.45476" lon="10.05717">
        <ele>2191.94</ele>
        <time>2012-08-03T08:58:10Z</time>
      </trkpt>
      <trkpt lat="46.45463" lon="10.05712">
        <ele>2192.9</ele>
        <time>2012-08-03T08:58:11Z</time>
      </trkpt>
      <trkpt lat="46.4417" lon="10.05393">
        <ele>2263.08</ele>
        <time>2012-08-03T09:11:10Z</time>
      </trkpt>
      <trkpt lat="46.44149" lon="10.05482">
        <ele>2263.08</ele>
        <time>2012-08-03T09:11:12Z</time>
      </trkpt>
      <trkpt lat="46.44135" lon="10.05602">
        <ele>2267.41</ele>
        <time>2012-08-03T09:11:29Z</time>
      </trkpt>
      <trkpt lat="46.44137" lon="10.05601">
        <ele>2272.21</ele>
        <time>2012-08-03T09:11:31Z</time>
      </trkpt>
      <trkpt lat="46.44138" lon="10.056">
        <ele>2275.1</ele>
        <time>2012-08-03T09:11:33Z</time>
      </trkpt>
      <trkpt lat="46.44136" lon="10.05597">
        <ele>2278.94</ele>
        <time>2012-08-03T09:11:37Z</time>
      </trkpt>
      <trkpt lat="46.44135" lon="10.05596">
        <ele>2283.75</ele>
        <time>2012-08-03T09:11:40Z</time>
      </trkpt>
      <trkpt lat="46.44135" lon="10.05596">
        <ele>2288.56</ele>
        <time>2012-08-03T09:11:43Z</time>
      </trkpt>
      <trkpt lat="46.44135" lon="10.05596">
        <ele>2292.4</ele>
        <time>2012-08-03T09:11:46Z</time>
      </trkpt>
      <trkpt lat="46.44133" lon="10.05597">
        <ele>2296.25</ele>
        <time>2012-08-03T09:11:49Z</time>
      </trkpt>
      <trkpt lat="46.44134" lon="10.05598">
        <ele>2300.09</ele>
        <time>2012-08-03T09:11:52Z</time>
      </trkpt>
      <trkpt lat="46.44135" lon="10.05598">
        <ele>2300.09</ele>
        <time>2012-08-03T09:11:53Z</time>
      </trkpt>
      <trkpt lat="46.44135" lon="10.056">
        <ele>2304.42</ele>
        <time>2012-08-03T09:11:56Z</time>
      </trkpt>
      <trkpt lat="46.44135" lon="10.05602">
        <ele>2307.78</ele>
        <time>2012-08-03T09:12:01Z</time>
      </trkpt>
      <trkpt lat="46.44135" lon="10.05604">
        <ele>2311.15</ele>
        <time>2012-08-03T09:12:05Z</time>
      </trkpt>
      <trkpt lat="46.44134" lon="10.05604">
        <ele>2311.63</ele>
        <time>2012-08-03T09:12:06Z</time>
      </trkpt>
      <trkpt lat="46.44125" lon="10.05603">
        <ele>2314.99</ele>
        <time>2012-08-03T09:12:10Z</time>
      </trkpt>
      <trkpt lat="46.44122" lon="10.05605">
        <ele>2315.47</ele>
        <time>2012-08-03T09:12:11Z</time>
      </trkpt>
      <trkpt lat="46.44118" lon="10.05607">
        <ele>2315.95</ele>
        <time>2012-08-03T09:12:12Z</time>
      </trkpt>
      <trkpt lat="46.44115" lon="10.0561">
        <ele>2316.43</ele>
        <time>2012-08-03T09:12:13Z</time>
      </trkpt>
      <trkpt lat="46.44111" lon="10.05612">
        <ele>2316.91</ele>
        <time>2012-08-03T09:12:14Z</time>
      </trkpt>
      <trkpt lat="46.44106" lon="10.05614">
        <ele>2317.88</ele>
        <time>2012-08-03T09:12:16Z</time>
      </trkpt>
      <trkpt lat="46.44095" lon="10.05618">
        <ele>2320.76</ele>
        <time>2012-08-03T09:12:18Z</time>
      </trkpt>
      <trkpt lat="46.44087" lon="10.05617">
        <ele>2321.24</ele>
        <time>2012-08-03T09:12:19Z</time>
      </trkpt>
      <trkpt lat="46.44079" lon="10.05613">
        <ele>2322.2</ele>
        <time>2012-08-03T09:12:20Z</time>
      </trkpt>
      <trkpt lat="46.4407" lon="10.05608">
        <ele>2322.68</ele>
        <time>2012-08-03T09:12:21Z</time>
      </trkpt>
      <trkpt lat="46.4406" lon="10.05602">
        <ele>2321.72</ele>
        <time>2012-08-03T09:12:22Z</time>
      </trkpt>
      <trkpt lat="46.44011" lon="10.05569">
        <ele>2317.88</ele>
        <time>2012-08-03T09:12:27Z</time>
      </trkpt>
      <trkpt lat="46.44002" lon="10.05562">
        <ele>2317.4</ele>
        <time>2012-08-03T09:12:28Z</time>
      </trkpt>
      <trkpt lat="46.43992" lon="10.05555">
        <ele>2316.43</ele>
        <time>2012-08-03T09:12:29Z</time>
      </trkpt>
      <trkpt lat="46.43982" lon="10.05548">
        <ele>2314.99</ele>
        <time>2012-08-03T09:12:30Z</time>
      </trkpt>
      <trkpt lat="46.43942" lon="10.05524">
        <ele>2311.15</ele>
        <time>2012-08-03T09:12:34Z</time>
      </trkpt>
      <trkpt lat="46.43933" lon="10.05515">
        <ele>2310.19</ele>
        <time>2012-08-03T09:12:35Z</time>
      </trkpt>
      <trkpt lat="46.43915" lon="10.05493">
        <ele>2307.3</ele>
        <time>2012-08-03T09:12:37Z</time>
      </trkpt>
      <trkpt lat="46.43907" lon="10.05481">
        <ele>2303.94</ele>
        <time>2012-08-03T09:12:38Z</time>
      </trkpt>
      <trkpt lat="46.43897" lon="10.0547">
        <ele>2303.46</ele>
        <time>2012-08-03T09:12:39Z</time>
      </trkpt>
      <trkpt lat="46.43887" lon="10.0546">
        <ele>2302.49</ele>
        <time>2012-08-03T09:12:40Z</time>
      </trkpt>
      <trkpt lat="46.43849" lon="10.05429">
        <ele>2300.57</ele>
        <time>2012-08-03T09:12:43Z</time>
      </trkpt>
      <trkpt lat="46.43821" lon="10.05408">
        <ele>2297.21</ele>
        <time>2012-08-03T09:12:45Z</time>
      </trkpt>
      <trkpt lat="46.43752" lon="10.0535">
        <ele>2291.92</ele>
        <time>2012-08-03T09:12:50Z</time>
      </trkpt>
      <trkpt lat="46.43723" lon="10.0533">
        <ele>2287.59</ele>
        <time>2012-08-03T09:12:52Z</time>
      </trkpt>
      <trkpt lat="46.4368" lon="10.05303">
        <ele>2283.75</ele>
        <time>2012-08-03T09:12:55Z</time>
      </trkpt>
      <trkpt lat="46.43642" lon="10.05285">
        <ele>2278.94</ele>
        <time>2012-08-03T09:12:58Z</time>
      </trkpt>
      <trkpt lat="46.43623" lon="10.05276">
        <ele>2275.58</ele>
        <time>2012-08-03T09:13:00Z</time>
      </trkpt>
      <trkpt lat="46.43617" lon="10.05269">
        <ele>2274.62</ele>
        <time>2012-08-03T09:13:01Z</time>
      </trkpt>
      <trkpt lat="46.43611" lon="10.05259">
        <ele>2273.66</ele>
        <time>2012-08-03T09:13:02Z</time>
      </trkpt>
      <trkpt lat="46.43597" lon="10.05233">
        <ele>2272.21</ele>
        <time>2012-08-03T09:13:04Z</time>
      </trkpt>
      <trkpt lat="46.43584" lon="10.05222">
        <ele>2272.21</ele>
        <time>2012-08-03T09:13:05Z</time>
      </trkpt>
      <trkpt lat="46.43573" lon="10.05216">
        <ele>2270.77</ele>
        <time>2012-08-03T09:13:06Z</time>
      </trkpt>
      <trkpt lat="46.4352" lon="10.05194">
        <ele>2266.93</ele>
        <time>2012-08-03T09:13:10Z</time>
      </trkpt>
      <trkpt lat="46.43508" lon="10.05185">
        <ele>2265.48</ele>
        <time>2012-08-03T09:13:11Z</time>
      </trkpt>
      <trkpt lat="46.43498" lon="10.05175">
        <ele>2263.56</ele>
        <time>2012-08-03T09:13:12Z</time>
      </trkpt>
      <trkpt lat="46.43488" lon="10.05164">
        <ele>2261.64</ele>
        <time>2012-08-03T09:13:13Z</time>
      </trkpt>
      <trkpt lat="46.43482" lon="10.05154">
        <ele>2259.72</ele>
        <time>2012-08-03T09:13:14Z</time>
      </trkpt>
      <trkpt lat="46.43477" lon="10.05144">
        <ele>2258.27</ele>
        <time>2012-08-03T09:13:15Z</time>
      </trkpt>
      <trkpt lat="46.43475" lon="10.05134">
        <ele>2257.79</ele>
        <time>2012-08-03T09:13:16Z</time>
      </trkpt>
      <trkpt lat="46.43477" lon="10.05122">
        <ele>2257.31</ele>
        <time>2012-08-03T09:13:17Z</time>
      </trkpt>
      <trkpt lat="46.43481" lon="10.05109">
        <ele>2255.39</ele>
        <time>2012-08-03T09:13:18Z</time>
      </trkpt>
      <trkpt lat="46.43485" lon="10.05094">
        <ele>2253.95</ele>
        <time>2012-08-03T09:13:19Z</time>
      </trkpt>
      <trkpt lat="46.43486" lon="10.05078">
        <ele>2253.47</ele>
        <time>2012-08-03T09:13:20Z</time>
      </trkpt>
      <trkpt lat="46.43485" lon="10.05063">
        <ele>2252.51</ele>
        <time>2012-08-03T09:13:21Z</time>
      </trkpt>
      <trkpt lat="46.43481" lon="10.05049">
        <ele>2252.03</ele>
        <time>2012-08-03T09:13:22Z</time>
      </trkpt>
      <trkpt lat="46.43474" lon="10.05035">
        <ele>2251.54</ele>
        <time>2012-08-03T09:13:23Z</time>
      </trkpt>
      <trkpt lat="46.43464" lon="10.05023">
        <ele>2250.58</ele>
        <time>2012-08-03T09:13:24Z</time>
      </trkpt>
      <trkpt lat="46.43452" lon="10.05011">
        <ele>2249.14</ele>
        <time>2012-08-03T09:13:25Z</time>
      </trkpt>
      <trkpt lat="46.43428" lon="10.04988">
        <ele>2245.78</ele>
        <time>2012-08-03T09:13:27Z</time>
      </trkpt>
      <trkpt lat="46.43391" lon="10.04961">
        <ele>2241.45</ele>
        <time>2012-08-03T09:13:30Z</time>
      </trkpt>
      <trkpt lat="46.43371" lon="10.04945">
        <ele>2236.64</ele>
        <time>2012-08-03T09:13:32Z</time>
      </trkpt>
      <trkpt lat="46.43364" lon="10.0494">
        <ele>2235.2</ele>
        <time>2012-08-03T09:13:33Z</time>
      </trkpt>
      <trkpt lat="46.43358" lon="10.04939">
        <ele>2234.24</ele>
        <time>2012-08-03T09:13:34Z</time>
      </trkpt>
      <trkpt lat="46.43353" lon="10.04948">
        <ele>2232.8</ele>
        <time>2012-08-03T09:13:36Z</time>
      </trkpt>
      <trkpt lat="46.43354" lon="10.04957">
        <ele>2232.8</ele>
        <time>2012-08-03T09:13:37Z</time>
      </trkpt>
      <trkpt lat="46.43357" lon="10.04965">
        <ele>2232.8</ele>
        <time>2012-08-03T09:13:38Z</time>
      </trkpt>
      <trkpt lat="46.43362" lon="10.04973">
        <ele>2233.28</ele>
        <time>2012-08-03T09:13:39Z</time>
      </trkpt>
      <trkpt lat="46.43371" lon="10.04983">
        <ele>2232.8</ele>
        <time>2012-08-03T09:13:40Z</time>
      </trkpt>
      <trkpt lat="46.4338" lon="10.04995">
        <ele>2233.28</ele>
        <time>2012-08-03T09:13:41Z</time>
      </trkpt>
      <trkpt lat="46.43388" lon="10.0501">
        <ele>2231.84</ele>
        <time>2012-08-03T09:13:42Z</time>
      </trkpt>
      <trkpt lat="46.43394" lon="10.05026">
        <ele>2230.88</ele>
        <time>2012-08-03T09:13:43Z</time>
      </trkpt>
      <trkpt lat="46.43399" lon="10.05044">
        <ele>2229.92</ele>
        <time>2012-08-03T09:13:44Z</time>
      </trkpt>
      <trkpt lat="46.43402" lon="10.05063">
        <ele>2228.47</ele>
        <time>2012-08-03T09:13:45Z</time>
      </trkpt>
      <trkpt lat="46.43403" lon="10.05083">
        <ele>2226.07</ele>
        <time>2012-08-03T09:13:46Z</time>
      </trkpt>
      <trkpt lat="46.43403" lon="10.05101">
        <ele>2225.11</ele>
        <time>2012-08-03T09:13:47Z</time>
      </trkpt>
      <trkpt lat="46.43401" lon="10.05118">
        <ele>2223.67</ele>
        <time>2012-08-03T09:13:48Z</time>
      </trkpt>
      <trkpt lat="46.43397" lon="10.05134">
        <ele>2221.74</ele>
        <time>2012-08-03T09:13:49Z</time>
      </trkpt>
      <trkpt lat="46.43392" lon="10.05147">
        <ele>2219.82</ele>
        <time>2012-08-03T09:13:50Z</time>
      </trkpt>
      <trkpt lat="46.43385" lon="10.05157">
        <ele>2219.82</ele>
        <time>2012-08-03T09:13:51Z</time>
      </trkpt>
      <trkpt lat="46.43376" lon="10.05161">
        <ele>2218.86</ele>
        <time>2012-08-03T09:13:52Z</time>
      </trkpt>
      <trkpt lat="46.43365" lon="10.05161">
        <ele>2217.42</ele>
        <time>2012-08-03T09:13:53Z</time>
      </trkpt>
      <trkpt lat="46.43352" lon="10.05159">
        <ele>2217.42</ele>
        <time>2012-08-03T09:13:54Z</time>
      </trkpt>
      <trkpt lat="46.43338" lon="10.05155">
        <ele>2216.46</ele>
        <time>2012-08-03T09:13:55Z</time>
      </trkpt>
      <trkpt lat="46.43306" lon="10.0515">
        <ele>2215.01</ele>
        <time>2012-08-03T09:13:57Z</time>
      </trkpt>
      <trkpt lat="46.43288" lon="10.05152">
        <ele>2214.05</ele>
        <time>2012-08-03T09:13:58Z</time>
      </trkpt>
      <trkpt lat="46.43269" lon="10.05155">
        <ele>2213.09</ele>
        <time>2012-08-03T09:13:59Z</time>
      </trkpt>
      <trkpt lat="46.43251" lon="10.0516">
        <ele>2209.25</ele>
        <time>2012-08-03T09:14:00Z</time>
      </trkpt>
      <trkpt lat="46.43215" lon="10.05172">
        <ele>2203.96</ele>
        <time>2012-08-03T09:14:02Z</time>
      </trkpt>
      <trkpt lat="46.43198" lon="10.05182">
        <ele>2202.52</ele>
        <time>2012-08-03T09:14:03Z</time>
      </trkpt>
      <trkpt lat="46.43165" lon="10.05203">
        <ele>2197.23</ele>
        <time>2012-08-03T09:14:05Z</time>
      </trkpt>
      <trkpt lat="46.43132" lon="10.05221">
        <ele>2193.39</ele>
        <time>2012-08-03T09:14:07Z</time>
      </trkpt>
      <trkpt lat="46.43114" lon="10.05228">
        <ele>2190.98</ele>
        <time>2012-08-03T09:14:08Z</time>
      </trkpt>
      <trkpt lat="46.43096" lon="10.05231">
        <ele>2189.06</ele>
        <time>2012-08-03T09:14:09Z</time>
      </trkpt>
      <trkpt lat="46.43078" lon="10.05231">
        <ele>2186.66</ele>
        <time>2012-08-03T09:14:10Z</time>
      </trkpt>
      <trkpt lat="46.4302" lon="10.05227">
        <ele>2180.89</ele>
        <time>2012-08-03T09:14:13Z</time>
      </trkpt>
      <trkpt lat="46.42982" lon="10.05226">
        <ele>2176.56</ele>
        <time>2012-08-03T09:14:15Z</time>
      </trkpt>
      <trkpt lat="46.42946" lon="10.05222">
        <ele>2171.76</ele>
        <time>2012-08-03T09:14:17Z</time>
      </trkpt>
      <trkpt lat="46.42909" lon="10.05222">
        <ele>2166.95</ele>
        <time>2012-08-03T09:14:19Z</time>
      </trkpt>
      <trkpt lat="46.4287" lon="10.05229">
        <ele>2162.14</ele>
        <time>2012-08-03T09:14:21Z</time>
      </trkpt>
      <trkpt lat="46.42834" lon="10.05243">
        <ele>2158.3</ele>
        <time>2012-08-03T09:14:23Z</time>
      </trkpt>
      <trkpt lat="46.428" lon="10.05259">
        <ele>2153.97</ele>
        <time>2012-08-03T09:14:25Z</time>
      </trkpt>
      <trkpt lat="46.42783" lon="10.05264">
        <ele>2151.09</ele>
        <time>2012-08-03T09:14:26Z</time>
      </trkpt>
      <trkpt lat="46.42766" lon="10.05263">
        <ele>2150.61</ele>
        <time>2012-08-03T09:14:27Z</time>
      </trkpt>
      <trkpt lat="46.42749" lon="10.05256">
        <ele>2150.13</ele>
        <time>2012-08-03T09:14:28Z</time>
      </trkpt>
      <trkpt lat="46.42734" lon="10.05245">
        <ele>2148.2</ele>
        <time>2012-08-03T09:14:29Z</time>
      </trkpt>
      <trkpt lat="46.42718" lon="10.05234">
        <ele>2148.2</ele>
        <time>2012-08-03T09:14:30Z</time>
      </trkpt>
      <trkpt lat="46.42702" lon="10.05225">
        <ele>2147.24</ele>
        <time>2012-08-03T09:14:31Z</time>
      </trkpt>
      <trkpt lat="46.42685" lon="10.05218">
        <ele>2145.8</ele>
        <time>2012-08-03T09:14:32Z</time>
      </trkpt>
      <trkpt lat="46.42639" lon="10.05201">
        <ele>2141.47</ele>
        <time>2012-08-03T09:14:35Z</time>
      </trkpt>
      <trkpt lat="46.42583" lon="10.05179">
        <ele>2137.15</ele>
        <time>2012-08-03T09:14:39Z</time>
      </trkpt>
      <trkpt lat="46.42569" lon="10.05177">
        <ele>2135.71</ele>
        <time>2012-08-03T09:14:40Z</time>
      </trkpt>
      <trkpt lat="46.42555" lon="10.05177">
        <ele>2134.74</ele>
        <time>2012-08-03T09:14:41Z</time>
      </trkpt>
      <trkpt lat="46.42541" lon="10.05179">
        <ele>2132.82</ele>
        <time>2012-08-03T09:14:42Z</time>
      </trkpt>
      <trkpt lat="46.42526" lon="10.05183">
        <ele>2130.9</ele>
        <time>2012-08-03T09:14:43Z</time>
      </trkpt>
      <trkpt lat="46.42511" lon="10.05189">
        <ele>2129.94</ele>
        <time>2012-08-03T09:14:44Z</time>
      </trkpt>
      <trkpt lat="46.42496" lon="10.05196">
        <ele>2128.02</ele>
        <time>2012-08-03T09:14:45Z</time>
      </trkpt>
      <trkpt lat="46.42481" lon="10.05206">
        <ele>2126.57</ele>
        <time>2012-08-03T09:14:46Z</time>
      </trkpt>
      <trkpt lat="46.42453" lon="10.05226">
        <ele>2123.21</ele>
        <time>2012-08-03T09:14:48Z</time>
      </trkpt>
      <trkpt lat="46.42428" lon="10.05248">
        <ele>2118.4</ele>
        <time>2012-08-03T09:14:50Z</time>
      </trkpt>
      <trkpt lat="46.42407" lon="10.05264">
        <ele>2114.56</ele>
        <time>2012-08-03T09:14:52Z</time>
      </trkpt>
      <trkpt lat="46.42396" lon="10.05268">
        <ele>2113.12</ele>
        <time>2012-08-03T09:14:53Z</time>
      </trkpt>
      <trkpt lat="46.42386" lon="10.05268">
        <ele>2111.67</ele>
        <time>2012-08-03T09:14:54Z</time>
      </trkpt>
      <trkpt lat="46.42375" lon="10.05265">
        <ele>2110.71</ele>
        <time>2012-08-03T09:14:55Z</time>
      </trkpt>
      <trkpt lat="46.42365" lon="10.05259">
        <ele>2109.75</ele>
        <time>2012-08-03T09:14:56Z</time>
      </trkpt>
      <trkpt lat="46.42356" lon="10.0525">
        <ele>2108.31</ele>
        <time>2012-08-03T09:14:57Z</time>
      </trkpt>
      <trkpt lat="46.42349" lon="10.05238">
        <ele>2106.87</ele>
        <time>2012-08-03T09:14:58Z</time>
      </trkpt>
      <trkpt lat="46.42343" lon="10.05226">
        <ele>2105.42</ele>
        <time>2012-08-03T09:14:59Z</time>
      </trkpt>
      <trkpt lat="46.42338" lon="10.05212">
        <ele>2104.46</ele>
        <time>2012-08-03T09:15:00Z</time>
      </trkpt>
      <trkpt lat="46.42336" lon="10.05197">
        <ele>2103.5</ele>
        <time>2012-08-03T09:15:01Z</time>
      </trkpt>
      <trkpt lat="46.42334" lon="10.05181">
        <ele>2102.54</ele>
        <time>2012-08-03T09:15:02Z</time>
      </trkpt>
      <trkpt lat="46.42331" lon="10.05165">
        <ele>2101.58</ele>
        <time>2012-08-03T09:15:03Z</time>
      </trkpt>
      <trkpt lat="46.42328" lon="10.0515">
        <ele>2101.1</ele>
        <time>2012-08-03T09:15:04Z</time>
      </trkpt>
      <trkpt lat="46.42322" lon="10.05138">
        <ele>2100.62</ele>
        <time>2012-08-03T09:15:05Z</time>
      </trkpt>
      <trkpt lat="46.42314" lon="10.05129">
        <ele>2101.58</ele>
        <time>2012-08-03T09:15:06Z</time>
      </trkpt>
      <trkpt lat="46.42304" lon="10.05124">
        <ele>2102.06</ele>
        <time>2012-08-03T09:15:07Z</time>
      </trkpt>
      <trkpt lat="46.42293" lon="10.05121">
        <ele>2102.54</ele>
        <time>2012-08-03T09:15:08Z</time>
      </trkpt>
      <trkpt lat="46.42282" lon="10.05117">
        <ele>2103.02</ele>
        <time>2012-08-03T09:15:09Z</time>
      </trkpt>
      <trkpt lat="46.42233" lon="10.05092">
        <ele>2106.39</ele>
        <time>2012-08-03T09:15:13Z</time>
      </trkpt>
      <trkpt lat="46.42219" lon="10.05088">
        <ele>2105.91</ele>
        <time>2012-08-03T09:15:14Z</time>
      </trkpt>
      <trkpt lat="46.42204" lon="10.05087">
        <ele>2106.87</ele>
        <time>2012-08-03T09:15:15Z</time>
      </trkpt>
      <trkpt lat="46.42079" lon="10.05097">
        <ele>2102.54</ele>
        <time>2012-08-03T09:15:23Z</time>
      </trkpt>
      <trkpt lat="46.42008" lon="10.05103">
        <ele>2098.7</ele>
        <time>2012-08-03T09:15:27Z</time>
      </trkpt>
      <trkpt lat="46.41976" lon="10.05111">
        <ele>2094.37</ele>
        <time>2012-08-03T09:15:29Z</time>
      </trkpt>
      <trkpt lat="46.41949" lon="10.05113">
        <ele>2091.49</ele>
        <time>2012-08-03T09:15:31Z</time>
      </trkpt>
      <trkpt lat="46.41935" lon="10.05109">
        <ele>2091</ele>
        <time>2012-08-03T09:15:32Z</time>
      </trkpt>
      <trkpt lat="46.41919" lon="10.05104">
        <ele>2090.04</ele>
        <time>2012-08-03T09:15:33Z</time>
      </trkpt>
      <trkpt lat="46.41903" lon="10.05102">
        <ele>2090.52</ele>
        <time>2012-08-03T09:15:34Z</time>
      </trkpt>
      <trkpt lat="46.41887" lon="10.05102">
        <ele>2089.08</ele>
        <time>2012-08-03T09:15:35Z</time>
      </trkpt>
      <trkpt lat="46.41871" lon="10.05103">
        <ele>2087.64</ele>
        <time>2012-08-03T09:15:36Z</time>
      </trkpt>
      <trkpt lat="46.41856" lon="10.05101">
        <ele>2086.2</ele>
        <time>2012-08-03T09:15:37Z</time>
      </trkpt>
      <trkpt lat="46.41842" lon="10.05094">
        <ele>2085.24</ele>
        <time>2012-08-03T09:15:38Z</time>
      </trkpt>
      <trkpt lat="46.41827" lon="10.05087">
        <ele>2084.28</ele>
        <time>2012-08-03T09:15:39Z</time>
      </trkpt>
      <trkpt lat="46.41811" lon="10.05082">
        <ele>2083.79</ele>
        <time>2012-08-03T09:15:40Z</time>
      </trkpt>
      <trkpt lat="46.41795" lon="10.0508">
        <ele>2083.79</ele>
        <time>2012-08-03T09:15:41Z</time>
      </trkpt>
      <trkpt lat="46.41779" lon="10.0508">
        <ele>2082.83</ele>
        <time>2012-08-03T09:15:42Z</time>
      </trkpt>
      <trkpt lat="46.41763" lon="10.05083">
        <ele>2082.35</ele>
        <time>2012-08-03T09:15:43Z</time>
      </trkpt>
      <trkpt lat="46.41747" lon="10.05087">
        <ele>2081.87</ele>
        <time>2012-08-03T09:15:44Z</time>
      </trkpt>
      <trkpt lat="46.41731" lon="10.05093">
        <ele>2081.39</ele>
        <time>2012-08-03T09:15:45Z</time>
      </trkpt>
      <trkpt lat="46.41689" lon="10.05107">
        <ele>2076.59</ele>
        <time>2012-08-03T09:15:48Z</time>
      </trkpt>
      <trkpt lat="46.41677" lon="10.05108">
        <ele>2075.14</ele>
        <time>2012-08-03T09:15:49Z</time>
      </trkpt>
      <trkpt lat="46.41666" lon="10.05105">
        <ele>2074.18</ele>
        <time>2012-08-03T09:15:50Z</time>
      </trkpt>
      <trkpt lat="46.41656" lon="10.05096">
        <ele>2074.18</ele>
        <time>2012-08-03T09:15:51Z</time>
      </trkpt>
      <trkpt lat="46.41646" lon="10.05084">
        <ele>2074.18</ele>
        <time>2012-08-03T09:15:52Z</time>
      </trkpt>
      <trkpt lat="46.41636" lon="10.05074">
        <ele>2073.7</ele>
        <time>2012-08-03T09:15:53Z</time>
      </trkpt>
      <trkpt lat="46.41624" lon="10.05067">
        <ele>2073.22</ele>
        <time>2012-08-03T09:15:54Z</time>
      </trkpt>
      <trkpt lat="46.41611" lon="10.05065">
        <ele>2073.7</ele>
        <time>2012-08-03T09:15:55Z</time>
      </trkpt>
      <trkpt lat="46.41597" lon="10.05067">
        <ele>2073.22</ele>
        <time>2012-08-03T09:15:56Z</time>
      </trkpt>
      <trkpt lat="46.41586" lon="10.05068">
        <ele>2072.26</ele>
        <time>2012-08-03T09:15:57Z</time>
      </trkpt>
      <trkpt lat="46.41575" lon="10.05064">
        <ele>2070.82</ele>
        <time>2012-08-03T09:15:58Z</time>
      </trkpt>
      <trkpt lat="46.41567" lon="10.05056">
        <ele>2070.34</ele>
        <time>2012-08-03T09:15:59Z</time>
      </trkpt>
      <trkpt lat="46.41559" lon="10.05044">
        <ele>2069.86</ele>
        <time>2012-08-03T09:16:00Z</time>
      </trkpt>
      <trkpt lat="46.41551" lon="10.05035">
        <ele>2068.89</ele>
        <time>2012-08-03T09:16:01Z</time>
      </trkpt>
      <trkpt lat="46.4154" lon="10.0503">
        <ele>2069.38</ele>
        <time>2012-08-03T09:16:02Z</time>
      </trkpt>
      <trkpt lat="46.41527" lon="10.05026">
        <ele>2070.34</ele>
        <time>2012-08-03T09:16:03Z</time>
      </trkpt>
      <trkpt lat="46.41514" lon="10.05022">
        <ele>2071.3</ele>
        <time>2012-08-03T09:16:04Z</time>
      </trkpt>
      <trkpt lat="46.415" lon="10.05018">
        <ele>2070.82</ele>
        <time>2012-08-03T09:16:05Z</time>
      </trkpt>
      <trkpt lat="46.41487" lon="10.05015">
        <ele>2070.82</ele>
        <time>2012-08-03T09:16:06Z</time>
      </trkpt>
      <trkpt lat="46.41474" lon="10.05016">
        <ele>2071.3</ele>
        <time>2012-08-03T09:16:07Z</time>
      </trkpt>
      <trkpt lat="46.41462" lon="10.05017">
        <ele>2070.34</ele>
        <time>2012-08-03T09:16:08Z</time>
      </trkpt>
      <trkpt lat="46.41451" lon="10.05014">
        <ele>2070.34</ele>
        <time>2012-08-03T09:16:09Z</time>
      </trkpt>
      <trkpt lat="46.4144" lon="10.05007">
        <ele>2070.82</ele>
        <time>2012-08-03T09:16:10Z</time>
      </trkpt>
      <trkpt lat="46.41431" lon="10.04995">
        <ele>2071.3</ele>
        <time>2012-08-03T09:16:11Z</time>
      </trkpt>
      <trkpt lat="46.41424" lon="10.04983">
        <ele>2071.78</ele>
        <time>2012-08-03T09:16:12Z</time>
      </trkpt>
      <trkpt lat="46.41415" lon="10.04973">
        <ele>2071.78</ele>
        <time>2012-08-03T09:16:13Z</time>
      </trkpt>
      <trkpt lat="46.41404" lon="10.04966">
        <ele>2073.22</ele>
        <time>2012-08-03T09:16:14Z</time>
      </trkpt>
      <trkpt lat="46.41392" lon="10.04964">
        <ele>2073.7</ele>
        <time>2012-08-03T09:16:15Z</time>
      </trkpt>
      <trkpt lat="46.41379" lon="10.04967">
        <ele>2074.66</ele>
        <time>2012-08-03T09:16:16Z</time>
      </trkpt>
      <trkpt lat="46.41365" lon="10.04973">
        <ele>2075.62</ele>
        <time>2012-08-03T09:16:17Z</time>
      </trkpt>
      <trkpt lat="46.41352" lon="10.04981">
        <ele>2076.1</ele>
        <time>2012-08-03T09:16:18Z</time>
      </trkpt>
      <trkpt lat="46.41338" lon="10.04987">
        <ele>2076.1</ele>
        <time>2012-08-03T09:16:19Z</time>
      </trkpt>
      <trkpt lat="46.41313" lon="10.04995">
        <ele>2076.1</ele>
        <time>2012-08-03T09:16:21Z</time>
      </trkpt>
      <trkpt lat="46.41301" lon="10.04994">
        <ele>2075.62</ele>
        <time>2012-08-03T09:16:22Z</time>
      </trkpt>
      <trkpt lat="46.4129" lon="10.04988">
        <ele>2076.1</ele>
        <time>2012-08-03T09:16:23Z</time>
      </trkpt>
      <trkpt lat="46.41278" lon="10.04984">
        <ele>2075.62</ele>
        <time>2012-08-03T09:16:24Z</time>
      </trkpt>
      <trkpt lat="46.41267" lon="10.04985">
        <ele>2075.14</ele>
        <time>2012-08-03T09:16:25Z</time>
      </trkpt>
      <trkpt lat="46.41257" lon="10.04992">
        <ele>2075.62</ele>
        <time>2012-08-03T09:16:26Z</time>
      </trkpt>
      <trkpt lat="46.41248" lon="10.05003">
        <ele>2075.62</ele>
        <time>2012-08-03T09:16:27Z</time>
      </trkpt>
      <trkpt lat="46.4124" lon="10.05015">
        <ele>2075.14</ele>
        <time>2012-08-03T09:16:28Z</time>
      </trkpt>
      <trkpt lat="46.41225" lon="10.05037">
        <ele>2074.18</ele>
        <time>2012-08-03T09:16:30Z</time>
      </trkpt>
      <trkpt lat="46.41217" lon="10.05044">
        <ele>2073.22</ele>
        <time>2012-08-03T09:16:31Z</time>
      </trkpt>
      <trkpt lat="46.41209" lon="10.05047">
        <ele>2072.74</ele>
        <time>2012-08-03T09:16:32Z</time>
      </trkpt>
      <trkpt lat="46.41202" lon="10.05047">
        <ele>2072.26</ele>
        <time>2012-08-03T09:16:33Z</time>
      </trkpt>
      <trkpt lat="46.41196" lon="10.05045">
        <ele>2071.78</ele>
        <time>2012-08-03T09:16:34Z</time>
      </trkpt>
      <trkpt lat="46.41192" lon="10.05043">
        <ele>2071.3</ele>
        <time>2012-08-03T09:16:35Z</time>
      </trkpt>
      <trkpt lat="46.41188" lon="10.05042">
        <ele>2070.82</ele>
        <time>2012-08-03T09:16:36Z</time>
      </trkpt>
      <trkpt lat="46.41174" lon="10.05044">
        <ele>2070.34</ele>
        <time>2012-08-03T09:16:44Z</time>
      </trkpt>
      <trkpt lat="46.41168" lon="10.05049">
        <ele>2070.82</ele>
        <time>2012-08-03T09:16:49Z</time>
      </trkpt>
      <trkpt lat="46.41163" lon="10.05052">
        <ele>2070.34</ele>
        <time>2012-08-03T09:16:50Z</time>
      </trkpt>
      <trkpt lat="46.4115" lon="10.05064">
        <ele>2070.34</ele>
        <time>2012-08-03T09:16:53Z</time>
      </trkpt>
      <trkpt lat="46.41145" lon="10.05065">
        <ele>2070.82</ele>
        <time>2012-08-03T09:16:54Z</time>
      </trkpt>
      <trkpt lat="46.41138" lon="10.05064">
        <ele>2071.3</ele>
        <time>2012-08-03T09:16:55Z</time>
      </trkpt>
      <trkpt lat="46.41131" lon="10.05059">
        <ele>2072.26</ele>
        <time>2012-08-03T09:16:56Z</time>
      </trkpt>
      <trkpt lat="46.41123" lon="10.05053">
        <ele>2072.74</ele>
        <time>2012-08-03T09:16:57Z</time>
      </trkpt>
      <trkpt lat="46.41113" lon="10.05044">
        <ele>2073.7</ele>
        <time>2012-08-03T09:16:58Z</time>
      </trkpt>
      <trkpt lat="46.41091" lon="10.05022">
        <ele>2076.1</ele>
        <time>2012-08-03T09:17:01Z</time>
      </trkpt>
      <trkpt lat="46.41086" lon="10.05014">
        <ele>2076.59</ele>
        <time>2012-08-03T09:17:02Z</time>
      </trkpt>
      <trkpt lat="46.41081" lon="10.05005">
        <ele>2077.55</ele>
        <time>2012-08-03T09:17:03Z</time>
      </trkpt>
      <trkpt lat="46.41078" lon="10.04994">
        <ele>2078.51</ele>
        <time>2012-08-03T09:17:04Z</time>
      </trkpt>
      <trkpt lat="46.41076" lon="10.04982">
        <ele>2079.47</ele>
        <time>2012-08-03T09:17:05Z</time>
      </trkpt>
      <trkpt lat="46.41075" lon="10.04969">
        <ele>2079.95</ele>
        <time>2012-08-03T09:17:06Z</time>
      </trkpt>
      <trkpt lat="46.41076" lon="10.04956">
        <ele>2080.43</ele>
        <time>2012-08-03T09:17:07Z</time>
      </trkpt>
      <trkpt lat="46.41079" lon="10.04945">
        <ele>2081.39</ele>
        <time>2012-08-03T09:17:08Z</time>
      </trkpt>
      <trkpt lat="46.41083" lon="10.04935">
        <ele>2081.87</ele>
        <time>2012-08-03T09:17:09Z</time>
      </trkpt>
      <trkpt lat="46.41087" lon="10.04926">
        <ele>2083.31</ele>
        <time>2012-08-03T09:17:10Z</time>
      </trkpt>
      <trkpt lat="46.41092" lon="10.04917">
        <ele>2084.28</ele>
        <time>2012-08-03T09:17:11Z</time>
      </trkpt>
      <trkpt lat="46.41099" lon="10.04908">
        <ele>2085.24</ele>
        <time>2012-08-03T09:17:12Z</time>
      </trkpt>
      <trkpt lat="46.41106" lon="10.04901">
        <ele>2085.72</ele>
        <time>2012-08-03T09:17:13Z</time>
      </trkpt>
      <trkpt lat="46.41113" lon="10.04894">
        <ele>2086.68</ele>
        <time>2012-08-03T09:17:14Z</time>
      </trkpt>
      <trkpt lat="46.41121" lon="10.04887">
        <ele>2088.12</ele>
        <time>2012-08-03T09:17:15Z</time>
      </trkpt>
      <trkpt lat="46.41154" lon="10.04857">
        <ele>2091.97</ele>
        <time>2012-08-03T09:17:19Z</time>
      </trkpt>
      <trkpt lat="46.41195" lon="10.04819">
        <ele>2096.29</ele>
        <time>2012-08-03T09:17:24Z</time>
      </trkpt>
      <trkpt lat="46.41221" lon="10.04796">
        <ele>2098.7</ele>
        <time>2012-08-03T09:17:27Z</time>
      </trkpt>
      <trkpt lat="46.41235" lon="10.04783">
        <ele>2099.66</ele>
        <time>2012-08-03T09:17:29Z</time>
      </trkpt>
      <trkpt lat="46.41241" lon="10.04779">
        <ele>2100.62</ele>
        <time>2012-08-03T09:17:30Z</time>
      </trkpt>
      <trkpt lat="46.41248" lon="10.04777">
        <ele>2100.62</ele>
        <time>2012-08-03T09:17:31Z</time>
      </trkpt>
      <trkpt lat="46.41255" lon="10.0478">
        <ele>2101.58</ele>
        <time>2012-08-03T09:17:32Z</time>
      </trkpt>
      <trkpt lat="46.41262" lon="10.04786">
        <ele>2102.54</ele>
        <time>2012-08-03T09:17:33Z</time>
      </trkpt>
      <trkpt lat="46.41268" lon="10.04796">
        <ele>2103.98</ele>
        <time>2012-08-03T09:17:34Z</time>
      </trkpt>
      <trkpt lat="46.41274" lon="10.04807">
        <ele>2104.94</ele>
        <time>2012-08-03T09:17:35Z</time>
      </trkpt>
      <trkpt lat="46.41279" lon="10.04818">
        <ele>2106.39</ele>
        <time>2012-08-03T09:17:36Z</time>
      </trkpt>
      <trkpt lat="46.41289" lon="10.04839">
        <ele>2107.35</ele>
        <time>2012-08-03T09:17:38Z</time>
      </trkpt>
      <trkpt lat="46.41294" lon="10.04846">
        <ele>2107.83</ele>
        <time>2012-08-03T09:17:39Z</time>
      </trkpt>
      <trkpt lat="46.413" lon="10.0485">
        <ele>2108.31</ele>
        <time>2012-08-03T09:17:40Z</time>
      </trkpt>
      <trkpt lat="46.41306" lon="10.0485">
        <ele>2109.27</ele>
        <time>2012-08-03T09:17:41Z</time>
      </trkpt>
      <trkpt lat="46.41313" lon="10.04846">
        <ele>2109.75</ele>
        <time>2012-08-03T09:17:42Z</time>
      </trkpt>
      <trkpt lat="46.41318" lon="10.04838">
        <ele>2110.23</ele>
        <time>2012-08-03T09:17:43Z</time>
      </trkpt>
      <trkpt lat="46.4132" lon="10.04828">
        <ele>2110.71</ele>
        <time>2012-08-03T09:17:44Z</time>
      </trkpt>
      <trkpt lat="46.4132" lon="10.04817">
        <ele>2111.19</ele>
        <time>2012-08-03T09:17:45Z</time>
      </trkpt>
      <trkpt lat="46.41318" lon="10.04807">
        <ele>2112.63</ele>
        <time>2012-08-03T09:17:46Z</time>
      </trkpt>
      <trkpt lat="46.41315" lon="10.04796">
        <ele>2113.12</ele>
        <time>2012-08-03T09:17:47Z</time>
      </trkpt>
      <trkpt lat="46.41311" lon="10.04786">
        <ele>2114.08</ele>
        <time>2012-08-03T09:17:48Z</time>
      </trkpt>
      <trkpt lat="46.41308" lon="10.04777">
        <ele>2114.08</ele>
        <time>2012-08-03T09:17:49Z</time>
      </trkpt>
      <trkpt lat="46.41306" lon="10.04768">
        <ele>2115.04</ele>
        <time>2012-08-03T09:17:50Z</time>
      </trkpt>
      <trkpt lat="46.41307" lon="10.04759">
        <ele>2115.04</ele>
        <time>2012-08-03T09:17:51Z</time>
      </trkpt>
      <trkpt lat="46.41312" lon="10.04752">
        <ele>2115.52</ele>
        <time>2012-08-03T09:17:52Z</time>
      </trkpt>
      <trkpt lat="46.4132" lon="10.04748">
        <ele>2116.96</ele>
        <time>2012-08-03T09:17:53Z</time>
      </trkpt>
      <trkpt lat="46.41329" lon="10.04746">
        <ele>2117.92</ele>
        <time>2012-08-03T09:17:54Z</time>
      </trkpt>
      <trkpt lat="46.41357" lon="10.04742">
        <ele>2120.81</ele>
        <time>2012-08-03T09:17:57Z</time>
      </trkpt>
      <trkpt lat="46.41385" lon="10.04738">
        <ele>2122.73</ele>
        <time>2012-08-03T09:18:00Z</time>
      </trkpt>
      <trkpt lat="46.41392" lon="10.04734">
        <ele>2123.69</ele>
        <time>2012-08-03T09:18:01Z</time>
      </trkpt>
      <trkpt lat="46.41397" lon="10.04727">
        <ele>2124.17</ele>
        <time>2012-08-03T09:18:02Z</time>
      </trkpt>
      <trkpt lat="46.414" lon="10.04717">
        <ele>2125.13</ele>
        <time>2012-08-03T09:18:03Z</time>
      </trkpt>
      <trkpt lat="46.41401" lon="10.04706">
        <ele>2126.09</ele>
        <time>2012-08-03T09:18:04Z</time>
      </trkpt>
      <trkpt lat="46.41399" lon="10.04695">
        <ele>2127.53</ele>
        <time>2012-08-03T09:18:05Z</time>
      </trkpt>
      <trkpt lat="46.41395" lon="10.04684">
        <ele>2128.98</ele>
        <time>2012-08-03T09:18:06Z</time>
      </trkpt>
      <trkpt lat="46.41385" lon="10.04676">
        <ele>2131.38</ele>
        <time>2012-08-03T09:18:07Z</time>
      </trkpt>
      <trkpt lat="46.41372" lon="10.0467">
        <ele>2132.34</ele>
        <time>2012-08-03T09:18:08Z</time>
      </trkpt>
      <trkpt lat="46.41353" lon="10.04669">
        <ele>2133.3</ele>
        <time>2012-08-03T09:18:09Z</time>
      </trkpt>
      <trkpt lat="46.41338" lon="10.04667">
        <ele>2134.74</ele>
        <time>2012-08-03T09:18:10Z</time>
      </trkpt>
      <trkpt lat="46.41321" lon="10.04663">
        <ele>2135.71</ele>
        <time>2012-08-03T09:18:11Z</time>
      </trkpt>
      <trkpt lat="46.41308" lon="10.04655">
        <ele>2137.15</ele>
        <time>2012-08-03T09:18:12Z</time>
      </trkpt>
      <trkpt lat="46.41299" lon="10.04643">
        <ele>2138.11</ele>
        <time>2012-08-03T09:18:13Z</time>
      </trkpt>
      <trkpt lat="46.41294" lon="10.04626">
        <ele>2139.55</ele>
        <time>2012-08-03T09:18:14Z</time>
      </trkpt>
      <trkpt lat="46.4129" lon="10.04608">
        <ele>2140.99</ele>
        <time>2012-08-03T09:18:15Z</time>
      </trkpt>
      <trkpt lat="46.41284" lon="10.04554">
        <ele>2143.4</ele>
        <time>2012-08-03T09:18:18Z</time>
      </trkpt>
      <trkpt lat="46.41287" lon="10.0454">
        <ele>2144.84</ele>
        <time>2012-08-03T09:18:19Z</time>
      </trkpt>
      <trkpt lat="46.41295" lon="10.0453">
        <ele>2145.8</ele>
        <time>2012-08-03T09:18:20Z</time>
      </trkpt>
      <trkpt lat="46.41306" lon="10.04524">
        <ele>2147.24</ele>
        <time>2012-08-03T09:18:21Z</time>
      </trkpt>
      <trkpt lat="46.41318" lon="10.04521">
        <ele>2148.2</ele>
        <time>2012-08-03T09:18:22Z</time>
      </trkpt>
      <trkpt lat="46.41342" lon="10.04511">
        <ele>2151.09</ele>
        <time>2012-08-03T09:18:24Z</time>
      </trkpt>
      <trkpt lat="46.41352" lon="10.04503">
        <ele>2152.05</ele>
        <time>2012-08-03T09:18:25Z</time>
      </trkpt>
      <trkpt lat="46.41359" lon="10.04492">
        <ele>2152.53</ele>
        <time>2012-08-03T09:18:26Z</time>
      </trkpt>
      <trkpt lat="46.41363" lon="10.04476">
        <ele>2153.49</ele>
        <time>2012-08-03T09:18:27Z</time>
      </trkpt>
      <trkpt lat="46.41364" lon="10.04458">
        <ele>2154.93</ele>
        <time>2012-08-03T09:18:28Z</time>
      </trkpt>
      <trkpt lat="46.41363" lon="10.04438">
        <ele>2155.89</ele>
        <time>2012-08-03T09:18:29Z</time>
      </trkpt>
      <trkpt lat="46.41363" lon="10.04378">
        <ele>2159.26</ele>
        <time>2012-08-03T09:18:32Z</time>
      </trkpt>
      <trkpt lat="46.41366" lon="10.04357">
        <ele>2160.22</ele>
        <time>2012-08-03T09:18:33Z</time>
      </trkpt>
      <trkpt lat="46.41371" lon="10.04337">
        <ele>2161.66</ele>
        <time>2012-08-03T09:18:34Z</time>
      </trkpt>
      <trkpt lat="46.41383" lon="10.04298">
        <ele>2165.03</ele>
        <time>2012-08-03T09:18:36Z</time>
      </trkpt>
      <trkpt lat="46.41388" lon="10.04278">
        <ele>2166.47</ele>
        <time>2012-08-03T09:18:37Z</time>
      </trkpt>
      <trkpt lat="46.41391" lon="10.04257">
        <ele>2166.95</ele>
        <time>2012-08-03T09:18:38Z</time>
      </trkpt>
      <trkpt lat="46.41392" lon="10.04236">
        <ele>2168.87</ele>
        <time>2012-08-03T09:18:39Z</time>
      </trkpt>
      <trkpt lat="46.41389" lon="10.04177">
        <ele>2171.76</ele>
        <time>2012-08-03T09:18:42Z</time>
      </trkpt>
      <trkpt lat="46.41384" lon="10.04161">
        <ele>2172.24</ele>
        <time>2012-08-03T09:18:43Z</time>
      </trkpt>
      <trkpt lat="46.41375" lon="10.04146">
        <ele>2173.68</ele>
        <time>2012-08-03T09:18:44Z</time>
      </trkpt>
      <trkpt lat="46.41364" lon="10.04135">
        <ele>2174.64</ele>
        <time>2012-08-03T09:18:45Z</time>
      </trkpt>
      <trkpt lat="46.41352" lon="10.04126">
        <ele>2176.08</ele>
        <time>2012-08-03T09:18:46Z</time>
      </trkpt>
      <trkpt lat="46.41338" lon="10.04118">
        <ele>2178.48</ele>
        <time>2012-08-03T09:18:47Z</time>
      </trkpt>
      <trkpt lat="46.41313" lon="10.04099">
        <ele>2181.37</ele>
        <time>2012-08-03T09:18:49Z</time>
      </trkpt>
      <trkpt lat="46.413" lon="10.0409">
        <ele>2181.85</ele>
        <time>2012-08-03T09:18:50Z</time>
      </trkpt>
      <trkpt lat="46.41279" lon="10.04073">
        <ele>2182.33</ele>
        <time>2012-08-03T09:18:52Z</time>
      </trkpt>
      <trkpt lat="46.4127" lon="10.04061">
        <ele>2183.77</ele>
        <time>2012-08-03T09:18:53Z</time>
      </trkpt>
      <trkpt lat="46.41263" lon="10.04045">
        <ele>2184.25</ele>
        <time>2012-08-03T09:18:54Z</time>
      </trkpt>
      <trkpt lat="46.41259" lon="10.04026">
        <ele>2186.18</ele>
        <time>2012-08-03T09:18:55Z</time>
      </trkpt>
      <trkpt lat="46.41257" lon="10.04006">
        <ele>2188.1</ele>
        <time>2012-08-03T09:18:56Z</time>
      </trkpt>
      <trkpt lat="46.41256" lon="10.03985">
        <ele>2189.06</ele>
        <time>2012-08-03T09:18:57Z</time>
      </trkpt>
      <trkpt lat="46.41254" lon="10.03965">
        <ele>2189.54</ele>
        <time>2012-08-03T09:18:58Z</time>
      </trkpt>
      <trkpt lat="46.41249" lon="10.03947">
        <ele>2190.98</ele>
        <time>2012-08-03T09:18:59Z</time>
      </trkpt>
      <trkpt lat="46.4124" lon="10.03931">
        <ele>2192.9</ele>
        <time>2012-08-03T09:19:00Z</time>
      </trkpt>
      <trkpt lat="46.41218" lon="10.03906">
        <ele>2194.83</ele>
        <time>2012-08-03T09:19:02Z</time>
      </trkpt>
      <trkpt lat="46.41209" lon="10.0389">
        <ele>2195.79</ele>
        <time>2012-08-03T09:19:03Z</time>
      </trkpt>
      <trkpt lat="46.41204" lon="10.03872">
        <ele>2197.23</ele>
        <time>2012-08-03T09:19:04Z</time>
      </trkpt>
      <trkpt lat="46.41203" lon="10.03851">
        <ele>2197.71</ele>
        <time>2012-08-03T09:19:05Z</time>
      </trkpt>
      <trkpt lat="46.41207" lon="10.03832">
        <ele>2199.15</ele>
        <time>2012-08-03T09:19:06Z</time>
      </trkpt>
      <trkpt lat="46.41215" lon="10.03815">
        <ele>2201.08</ele>
        <time>2012-08-03T09:19:07Z</time>
      </trkpt>
      <trkpt lat="46.41227" lon="10.03802">
        <ele>2202.04</ele>
        <time>2012-08-03T09:19:08Z</time>
      </trkpt>
      <trkpt lat="46.4124" lon="10.03796">
        <ele>2203</ele>
        <time>2012-08-03T09:19:09Z</time>
      </trkpt>
      <trkpt lat="46.41255" lon="10.03798">
        <ele>2204.44</ele>
        <time>2012-08-03T09:19:10Z</time>
      </trkpt>
      <trkpt lat="46.4127" lon="10.03807">
        <ele>2206.36</ele>
        <time>2012-08-03T09:19:11Z</time>
      </trkpt>
      <trkpt lat="46.41285" lon="10.03819">
        <ele>2209.25</ele>
        <time>2012-08-03T09:19:12Z</time>
      </trkpt>
      <trkpt lat="46.41299" lon="10.03834">
        <ele>2210.69</ele>
        <time>2012-08-03T09:19:13Z</time>
      </trkpt>
      <trkpt lat="46.41312" lon="10.03851">
        <ele>2211.17</ele>
        <time>2012-08-03T09:19:14Z</time>
      </trkpt>
      <trkpt lat="46.41342" lon="10.03882">
        <ele>2215.01</ele>
        <time>2012-08-03T09:19:16Z</time>
      </trkpt>
      <trkpt lat="46.41357" lon="10.03895">
        <ele>2216.46</ele>
        <time>2012-08-03T09:19:17Z</time>
      </trkpt>
      <trkpt lat="46.41374" lon="10.03906">
        <ele>2218.86</ele>
        <time>2012-08-03T09:19:18Z</time>
      </trkpt>
      <trkpt lat="46.41391" lon="10.03915">
        <ele>2220.3</ele>
        <time>2012-08-03T09:19:19Z</time>
      </trkpt>
      <trkpt lat="46.41443" lon="10.03937">
        <ele>2224.63</ele>
        <time>2012-08-03T09:19:22Z</time>
      </trkpt>
      <trkpt lat="46.41478" lon="10.03955">
        <ele>2228.47</ele>
        <time>2012-08-03T09:19:24Z</time>
      </trkpt>
      <trkpt lat="46.41494" lon="10.03967">
        <ele>2230.4</ele>
        <time>2012-08-03T09:19:25Z</time>
      </trkpt>
      <trkpt lat="46.41509" lon="10.03982">
        <ele>2231.84</ele>
        <time>2012-08-03T09:19:26Z</time>
      </trkpt>
      <trkpt lat="46.41523" lon="10.03999">
        <ele>2232.32</ele>
        <time>2012-08-03T09:19:27Z</time>
      </trkpt>
      <trkpt lat="46.41535" lon="10.04015">
        <ele>2233.28</ele>
        <time>2012-08-03T09:19:28Z</time>
      </trkpt>
      <trkpt lat="46.41544" lon="10.04031">
        <ele>2233.76</ele>
        <time>2012-08-03T09:19:29Z</time>
      </trkpt>
      <trkpt lat="46.41566" lon="10.04065">
        <ele>2234.24</ele>
        <time>2012-08-03T09:19:32Z</time>
      </trkpt>
      <trkpt lat="46.41573" lon="10.0407">
        <ele>2234.24</ele>
        <time>2012-08-03T09:19:33Z</time>
      </trkpt>
      <trkpt lat="46.41581" lon="10.0407">
        <ele>2234.24</ele>
        <time>2012-08-03T09:19:34Z</time>
      </trkpt>
      <trkpt lat="46.41587" lon="10.04063">
        <ele>2233.76</ele>
        <time>2012-08-03T09:19:35Z</time>
      </trkpt>
      <trkpt lat="46.4159" lon="10.04051">
        <ele>2234.24</ele>
        <time>2012-08-03T09:19:36Z</time>
      </trkpt>
      <trkpt lat="46.4159" lon="10.04038">
        <ele>2234.72</ele>
        <time>2012-08-03T09:19:37Z</time>
      </trkpt>
      <trkpt lat="46.41586" lon="10.04026">
        <ele>2235.68</ele>
        <time>2012-08-03T09:19:38Z</time>
      </trkpt>
      <trkpt lat="46.41579" lon="10.04013">
        <ele>2236.64</ele>
        <time>2012-08-03T09:19:39Z</time>
      </trkpt>
      <trkpt lat="46.41569" lon="10.04">
        <ele>2236.16</ele>
        <time>2012-08-03T09:19:40Z</time>
      </trkpt>
      <trkpt lat="46.41556" lon="10.03986">
        <ele>2237.13</ele>
        <time>2012-08-03T09:19:41Z</time>
      </trkpt>
      <trkpt lat="46.41545" lon="10.03969">
        <ele>2239.53</ele>
        <time>2012-08-03T09:19:42Z</time>
      </trkpt>
      <trkpt lat="46.41535" lon="10.03951">
        <ele>2240.97</ele>
        <time>2012-08-03T09:19:43Z</time>
      </trkpt>
      <trkpt lat="46.41525" lon="10.03932">
        <ele>2242.41</ele>
        <time>2012-08-03T09:19:44Z</time>
      </trkpt>
      <trkpt lat="46.41506" lon="10.03893">
        <ele>2245.78</ele>
        <time>2012-08-03T09:19:46Z</time>
      </trkpt>
      <trkpt lat="46.41496" lon="10.03874">
        <ele>2247.7</ele>
        <time>2012-08-03T09:19:47Z</time>
      </trkpt>
      <trkpt lat="46.41484" lon="10.03857">
        <ele>2249.14</ele>
        <time>2012-08-03T09:19:48Z</time>
      </trkpt>
      <trkpt lat="46.41471" lon="10.03843">
        <ele>2250.58</ele>
        <time>2012-08-03T09:19:49Z</time>
      </trkpt>
      <trkpt lat="46.41459" lon="10.03829">
        <ele>2251.54</ele>
        <time>2012-08-03T09:19:50Z</time>
      </trkpt>
      <trkpt lat="46.41448" lon="10.03814">
        <ele>2252.99</ele>
        <time>2012-08-03T09:19:51Z</time>
      </trkpt>
      <trkpt lat="46.41441" lon="10.03798">
        <ele>2253.95</ele>
        <time>2012-08-03T09:19:52Z</time>
      </trkpt>
      <trkpt lat="46.41436" lon="10.03781">
        <ele>2254.91</ele>
        <time>2012-08-03T09:19:53Z</time>
      </trkpt>
      <trkpt lat="46.41433" lon="10.03763">
        <ele>2255.87</ele>
        <time>2012-08-03T09:19:54Z</time>
      </trkpt>
      <trkpt lat="46.41432" lon="10.03744">
        <ele>2257.79</ele>
        <time>2012-08-03T09:19:55Z</time>
      </trkpt>
      <trkpt lat="46.41432" lon="10.03726">
        <ele>2259.24</ele>
        <time>2012-08-03T09:19:56Z</time>
      </trkpt>
      <trkpt lat="46.4143" lon="10.03706">
        <ele>2261.16</ele>
        <time>2012-08-03T09:19:57Z</time>
      </trkpt>
      <trkpt lat="46.41426" lon="10.03686">
        <ele>2262.6</ele>
        <time>2012-08-03T09:19:58Z</time>
      </trkpt>
      <trkpt lat="46.41419" lon="10.03665">
        <ele>2265</ele>
        <time>2012-08-03T09:19:59Z</time>
      </trkpt>
      <trkpt lat="46.4141" lon="10.03646">
        <ele>2265.96</ele>
        <time>2012-08-03T09:20:00Z</time>
      </trkpt>
      <trkpt lat="46.41399" lon="10.03628">
        <ele>2267.89</ele>
        <time>2012-08-03T09:20:01Z</time>
      </trkpt>
      <trkpt lat="46.4138" lon="10.03589">
        <ele>2270.77</ele>
        <time>2012-08-03T09:20:03Z</time>
      </trkpt>
      <trkpt lat="46.41354" lon="10.03532">
        <ele>2276.06</ele>
        <time>2012-08-03T09:20:06Z</time>
      </trkpt>
      <trkpt lat="46.41345" lon="10.03517">
        <ele>2277.02</ele>
        <time>2012-08-03T09:20:07Z</time>
      </trkpt>
      <trkpt lat="46.41335" lon="10.03503">
        <ele>2277.98</ele>
        <time>2012-08-03T09:20:08Z</time>
      </trkpt>
      <trkpt lat="46.41324" lon="10.03492">
        <ele>2279.42</ele>
        <time>2012-08-03T09:20:09Z</time>
      </trkpt>
      <trkpt lat="46.41313" lon="10.03483">
        <ele>2279.9</ele>
        <time>2012-08-03T09:20:10Z</time>
      </trkpt>
      <trkpt lat="46.41302" lon="10.03476">
        <ele>2281.35</ele>
        <time>2012-08-03T09:20:11Z</time>
      </trkpt>
      <trkpt lat="46.41291" lon="10.0347">
        <ele>2281.83</ele>
        <time>2012-08-03T09:20:12Z</time>
      </trkpt>
      <trkpt lat="46.41269" lon="10.03455">
        <ele>2283.75</ele>
        <time>2012-08-03T09:20:14Z</time>
      </trkpt>
      <trkpt lat="46.41259" lon="10.03445">
        <ele>2285.19</ele>
        <time>2012-08-03T09:20:15Z</time>
      </trkpt>
      <trkpt lat="46.4125" lon="10.03432">
        <ele>2286.15</ele>
        <time>2012-08-03T09:20:16Z</time>
      </trkpt>
      <trkpt lat="46.41243" lon="10.03416">
        <ele>2288.08</ele>
        <time>2012-08-03T09:20:17Z</time>
      </trkpt>
      <trkpt lat="46.41237" lon="10.03399">
        <ele>2289.04</ele>
        <time>2012-08-03T09:20:18Z</time>
      </trkpt>
      <trkpt lat="46.41232" lon="10.03382">
        <ele>2290.96</ele>
        <time>2012-08-03T09:20:19Z</time>
      </trkpt>
      <trkpt lat="46.41224" lon="10.03365">
        <ele>2292.88</ele>
        <time>2012-08-03T09:20:20Z</time>
      </trkpt>
      <trkpt lat="46.41215" lon="10.03348">
        <ele>2294.8</ele>
        <time>2012-08-03T09:20:21Z</time>
      </trkpt>
      <trkpt lat="46.41204" lon="10.03332">
        <ele>2296.73</ele>
        <time>2012-08-03T09:20:22Z</time>
      </trkpt>
      <trkpt lat="46.41191" lon="10.03317">
        <ele>2298.65</ele>
        <time>2012-08-03T09:20:23Z</time>
      </trkpt>
      <trkpt lat="46.41178" lon="10.03304">
        <ele>2300.09</ele>
        <time>2012-08-03T09:20:24Z</time>
      </trkpt>
      <trkpt lat="46.41167" lon="10.0329">
        <ele>2301.05</ele>
        <time>2012-08-03T09:20:25Z</time>
      </trkpt>
      <trkpt lat="46.41157" lon="10.03273">
        <ele>2302.49</ele>
        <time>2012-08-03T09:20:26Z</time>
      </trkpt>
      <trkpt lat="46.4115" lon="10.03256">
        <ele>2303.94</ele>
        <time>2012-08-03T09:20:27Z</time>
      </trkpt>
      <trkpt lat="46.41146" lon="10.03236">
        <ele>2304.9</ele>
        <time>2012-08-03T09:20:28Z</time>
      </trkpt>
      <trkpt lat="46.41145" lon="10.03216">
        <ele>2305.86</ele>
        <time>2012-08-03T09:20:29Z</time>
      </trkpt>
      <trkpt lat="46.41147" lon="10.03195">
        <ele>2307.3</ele>
        <time>2012-08-03T09:20:30Z</time>
      </trkpt>
      <trkpt lat="46.41149" lon="10.03173">
        <ele>2309.22</ele>
        <time>2012-08-03T09:20:31Z</time>
      </trkpt>
      <trkpt lat="46.41149" lon="10.03151">
        <ele>2310.19</ele>
        <time>2012-08-03T09:20:32Z</time>
      </trkpt>
      <trkpt lat="46.41146" lon="10.03128">
        <ele>2311.63</ele>
        <time>2012-08-03T09:20:33Z</time>
      </trkpt>
      <trkpt lat="46.41139" lon="10.03084">
        <ele>2314.51</ele>
        <time>2012-08-03T09:20:35Z</time>
      </trkpt>
      <trkpt lat="46.41137" lon="10.03061">
        <ele>2315.47</ele>
        <time>2012-08-03T09:20:36Z</time>
      </trkpt>
      <trkpt lat="46.41138" lon="10.03039">
        <ele>2316.91</ele>
        <time>2012-08-03T09:20:37Z</time>
      </trkpt>
      <trkpt lat="46.41143" lon="10.03017">
        <ele>2318.36</ele>
        <time>2012-08-03T09:20:38Z</time>
      </trkpt>
      <trkpt lat="46.41148" lon="10.02997">
        <ele>2319.32</ele>
        <time>2012-08-03T09:20:39Z</time>
      </trkpt>
      <trkpt lat="46.41152" lon="10.02978">
        <ele>2320.28</ele>
        <time>2012-08-03T09:20:40Z</time>
      </trkpt>
      <trkpt lat="46.41153" lon="10.02959">
        <ele>2320.76</ele>
        <time>2012-08-03T09:20:41Z</time>
      </trkpt>
      <trkpt lat="46.41151" lon="10.0294">
        <ele>2322.2</ele>
        <time>2012-08-03T09:20:42Z</time>
      </trkpt>
      <trkpt lat="46.41146" lon="10.02923">
        <ele>2323.16</ele>
        <time>2012-08-03T09:20:43Z</time>
      </trkpt>
      <trkpt lat="46.41139" lon="10.02908">
        <ele>2324.61</ele>
        <time>2012-08-03T09:20:44Z</time>
      </trkpt>
      <trkpt lat="46.41132" lon="10.02892">
        <ele>2326.05</ele>
        <time>2012-08-03T09:20:45Z</time>
      </trkpt>
      <trkpt lat="46.41107" lon="10.02832">
        <ele>2329.41</ele>
        <time>2012-08-03T09:20:49Z</time>
      </trkpt>
      <trkpt lat="46.4109" lon="10.02751">
        <ele>2329.41</ele>
        <time>2012-08-03T09:20:57Z</time>
      </trkpt>
      <trkpt lat="46.41089" lon="10.02746">
        <ele>2329.89</ele>
        <time>2012-08-03T09:20:58Z</time>
      </trkpt>
      <trkpt lat="46.41086" lon="10.02742">
        <ele>2329.89</ele>
        <time>2012-08-03T09:20:59Z</time>
      </trkpt>
      <trkpt lat="46.41074" lon="10.02735">
        <ele>2329.89</ele>
        <time>2012-08-03T09:50:52Z</time>
      </trkpt>
      <trkpt lat="46.41073" lon="10.02737">
        <ele>2329.89</ele>
        <time>2012-08-03T09:50:53Z</time>
      </trkpt>
      <trkpt lat="46.41073" lon="10.02739">
        <ele>2331.33</ele>
        <time>2012-08-03T09:51:20Z</time>
      </trkpt>
      <trkpt lat="46.41074" lon="10.02743">
        <ele>2332.3</ele>
        <time>2012-08-03T09:51:49Z</time>
      </trkpt>
      <trkpt lat="46.41074" lon="10.02743">
        <ele>2331.81</ele>
        <time>2012-08-03T09:52:23Z</time>
      </trkpt>
      <trkpt lat="46.41074" lon="10.02742">
        <ele>2331.81</ele>
        <time>2012-08-03T09:52:55Z</time>
      </trkpt>
      <trkpt lat="46.41072" lon="10.02744">
        <ele>2332.3</ele>
        <time>2012-08-03T09:53:23Z</time>
      </trkpt>
      <trkpt lat="46.41073" lon="10.02744">
        <ele>2331.81</ele>
        <time>2012-08-03T09:54:03Z</time>
      </trkpt>
      <trkpt lat="46.41073" lon="10.02745">
        <ele>2331.81</ele>
        <time>2012-08-03T09:54:38Z</time>
      </trkpt>
      <trkpt lat="46.41073" lon="10.02745">
        <ele>2331.81</ele>
        <time>2012-08-03T09:55:23Z</time>
      </trkpt>
      <trkpt lat="46.41072" lon="10.02744">
        <ele>2330.85</ele>
        <time>2012-08-03T09:55:58Z</time>
      </trkpt>
      <trkpt lat="46.41073" lon="10.02743">
        <ele>2331.33</ele>
        <time>2012-08-03T09:56:17Z</time>
      </trkpt>
      <trkpt lat="46.41073" lon="10.02746">
        <ele>2330.85</ele>
        <time>2012-08-03T09:56:29Z</time>
      </trkpt>
      <trkpt lat="46.41085" lon="10.02751">
        <ele>2331.33</ele>
        <time>2012-08-03T09:56:38Z</time>
      </trkpt>
      <trkpt lat="46.41084" lon="10.02751">
        <ele>2331.33</ele>
        <time>2012-08-03T09:56:40Z</time>
      </trkpt>
      <trkpt lat="46.41088" lon="10.02717">
        <ele>2330.85</ele>
        <time>2012-08-03T09:56:51Z</time>
      </trkpt>
      <trkpt lat="46.41086" lon="10.0271">
        <ele>2331.33</ele>
        <time>2012-08-03T09:57:06Z</time>
      </trkpt>
      <trkpt lat="46.41084" lon="10.02704">
        <ele>2330.85</ele>
        <time>2012-08-03T09:57:07Z</time>
      </trkpt>
      <trkpt lat="46.41083" lon="10.02697">
        <ele>2331.33</ele>
        <time>2012-08-03T09:57:08Z</time>
      </trkpt>
      <trkpt lat="46.41072" lon="10.02624">
        <ele>2328.45</ele>
        <time>2012-08-03T09:57:14Z</time>
      </trkpt>
      <trkpt lat="46.41067" lon="10.02567">
        <ele>2326.53</ele>
        <time>2012-08-03T09:57:17Z</time>
      </trkpt>
      <trkpt lat="46.41067" lon="10.02497">
        <ele>2323.64</ele>
        <time>2012-08-03T09:57:20Z</time>
      </trkpt>
      <trkpt lat="46.41069" lon="10.02428">
        <ele>2319.32</ele>
        <time>2012-08-03T09:57:23Z</time>
      </trkpt>
      <trkpt lat="46.41073" lon="10.02344">
        <ele>2315.47</ele>
        <time>2012-08-03T09:57:27Z</time>
      </trkpt>
      <trkpt lat="46.41076" lon="10.02266">
        <ele>2313.55</ele>
        <time>2012-08-03T09:57:31Z</time>
      </trkpt>
      <trkpt lat="46.41081" lon="10.0223">
        <ele>2313.55</ele>
        <time>2012-08-03T09:57:33Z</time>
      </trkpt>
      <trkpt lat="46.41085" lon="10.02213">
        <ele>2313.07</ele>
        <time>2012-08-03T09:57:34Z</time>
      </trkpt>
      <trkpt lat="46.4109" lon="10.02197">
        <ele>2312.59</ele>
        <time>2012-08-03T09:57:35Z</time>
      </trkpt>
      <trkpt lat="46.41098" lon="10.02182">
        <ele>2312.59</ele>
        <time>2012-08-03T09:57:36Z</time>
      </trkpt>
      <trkpt lat="46.41106" lon="10.02169">
        <ele>2312.59</ele>
        <time>2012-08-03T09:57:37Z</time>
      </trkpt>
      <trkpt lat="46.41116" lon="10.02157">
        <ele>2312.11</ele>
        <time>2012-08-03T09:57:38Z</time>
      </trkpt>
      <trkpt lat="46.41126" lon="10.02147">
        <ele>2312.59</ele>
        <time>2012-08-03T09:57:39Z</time>
      </trkpt>
      <trkpt lat="46.41138" lon="10.0214">
        <ele>2312.11</ele>
        <time>2012-08-03T09:57:40Z</time>
      </trkpt>
      <trkpt lat="46.41151" lon="10.02134">
        <ele>2311.15</ele>
        <time>2012-08-03T09:57:41Z</time>
      </trkpt>
      <trkpt lat="46.41164" lon="10.02131">
        <ele>2311.15</ele>
        <time>2012-08-03T09:57:42Z</time>
      </trkpt>
      <trkpt lat="46.41178" lon="10.02131">
        <ele>2310.67</ele>
        <time>2012-08-03T09:57:43Z</time>
      </trkpt>
      <trkpt lat="46.41193" lon="10.02134">
        <ele>2310.19</ele>
        <time>2012-08-03T09:57:44Z</time>
      </trkpt>
      <trkpt lat="46.41208" lon="10.02139">
        <ele>2309.7</ele>
        <time>2012-08-03T09:57:45Z</time>
      </trkpt>
      <trkpt lat="46.41223" lon="10.02145">
        <ele>2309.22</ele>
        <time>2012-08-03T09:57:46Z</time>
      </trkpt>
      <trkpt lat="46.41239" lon="10.02148">
        <ele>2307.78</ele>
        <time>2012-08-03T09:57:47Z</time>
      </trkpt>
      <trkpt lat="46.41254" lon="10.02146">
        <ele>2307.78</ele>
        <time>2012-08-03T09:57:48Z</time>
      </trkpt>
      <trkpt lat="46.4127" lon="10.0214">
        <ele>2307.3</ele>
        <time>2012-08-03T09:57:49Z</time>
      </trkpt>
      <trkpt lat="46.41285" lon="10.0213">
        <ele>2306.34</ele>
        <time>2012-08-03T09:57:50Z</time>
      </trkpt>
      <trkpt lat="46.41326" lon="10.021">
        <ele>2304.9</ele>
        <time>2012-08-03T09:57:53Z</time>
      </trkpt>
      <trkpt lat="46.41339" lon="10.02092">
        <ele>2304.42</ele>
        <time>2012-08-03T09:57:54Z</time>
      </trkpt>
      <trkpt lat="46.41353" lon="10.02086">
        <ele>2302.98</ele>
        <time>2012-08-03T09:57:55Z</time>
      </trkpt>
      <trkpt lat="46.41366" lon="10.02084">
        <ele>2303.46</ele>
        <time>2012-08-03T09:57:56Z</time>
      </trkpt>
      <trkpt lat="46.41395" lon="10.02082">
        <ele>2303.46</ele>
        <time>2012-08-03T09:57:58Z</time>
      </trkpt>
      <trkpt lat="46.41409" lon="10.02078">
        <ele>2302.98</ele>
        <time>2012-08-03T09:57:59Z</time>
      </trkpt>
      <trkpt lat="46.41438" lon="10.02069">
        <ele>2302.98</ele>
        <time>2012-08-03T09:58:01Z</time>
      </trkpt>
      <trkpt lat="46.41453" lon="10.02068">
        <ele>2302.98</ele>
        <time>2012-08-03T09:58:02Z</time>
      </trkpt>
      <trkpt lat="46.41468" lon="10.02071">
        <ele>2303.94</ele>
        <time>2012-08-03T09:58:03Z</time>
      </trkpt>
      <trkpt lat="46.41546" lon="10.02081">
        <ele>2302.01</ele>
        <time>2012-08-03T09:58:08Z</time>
      </trkpt>
      <trkpt lat="46.41561" lon="10.02081">
        <ele>2301.05</ele>
        <time>2012-08-03T09:58:09Z</time>
      </trkpt>
      <trkpt lat="46.41575" lon="10.02083">
        <ele>2301.05</ele>
        <time>2012-08-03T09:58:10Z</time>
      </trkpt>
      <trkpt lat="46.41591" lon="10.02087">
        <ele>2299.61</ele>
        <time>2012-08-03T09:58:11Z</time>
      </trkpt>
      <trkpt lat="46.41605" lon="10.02093">
        <ele>2299.13</ele>
        <time>2012-08-03T09:58:12Z</time>
      </trkpt>
      <trkpt lat="46.41619" lon="10.021">
        <ele>2298.65</ele>
        <time>2012-08-03T09:58:13Z</time>
      </trkpt>
      <trkpt lat="46.41632" lon="10.02106">
        <ele>2297.69</ele>
        <time>2012-08-03T09:58:14Z</time>
      </trkpt>
      <trkpt lat="46.41644" lon="10.02108">
        <ele>2296.73</ele>
        <time>2012-08-03T09:58:15Z</time>
      </trkpt>
      <trkpt lat="46.41654" lon="10.02105">
        <ele>2294.32</ele>
        <time>2012-08-03T09:58:16Z</time>
      </trkpt>
      <trkpt lat="46.41663" lon="10.02098">
        <ele>2293.84</ele>
        <time>2012-08-03T09:58:17Z</time>
      </trkpt>
      <trkpt lat="46.4167" lon="10.02086">
        <ele>2293.36</ele>
        <time>2012-08-03T09:58:18Z</time>
      </trkpt>
      <trkpt lat="46.41674" lon="10.0207">
        <ele>2293.36</ele>
        <time>2012-08-03T09:58:19Z</time>
      </trkpt>
      <trkpt lat="46.41674" lon="10.02052">
        <ele>2293.36</ele>
        <time>2012-08-03T09:58:20Z</time>
      </trkpt>
      <trkpt lat="46.4167" lon="10.02034">
        <ele>2292.88</ele>
        <time>2012-08-03T09:58:21Z</time>
      </trkpt>
      <trkpt lat="46.41664" lon="10.02017">
        <ele>2292.4</ele>
        <time>2012-08-03T09:58:22Z</time>
      </trkpt>
      <trkpt lat="46.41656" lon="10.01999">
        <ele>2291.92</ele>
        <time>2012-08-03T09:58:23Z</time>
      </trkpt>
      <trkpt lat="46.41647" lon="10.01981">
        <ele>2292.4</ele>
        <time>2012-08-03T09:58:24Z</time>
      </trkpt>
      <trkpt lat="46.4161" lon="10.01901">
        <ele>2288.08</ele>
        <time>2012-08-03T09:58:28Z</time>
      </trkpt>
      <trkpt lat="46.41592" lon="10.0186">
        <ele>2287.11</ele>
        <time>2012-08-03T09:58:30Z</time>
      </trkpt>
      <trkpt lat="46.41565" lon="10.01774">
        <ele>2283.75</ele>
        <time>2012-08-03T09:58:34Z</time>
      </trkpt>
      <trkpt lat="46.41555" lon="10.01729">
        <ele>2283.27</ele>
        <time>2012-08-03T09:58:36Z</time>
      </trkpt>
      <trkpt lat="46.41553" lon="10.01705">
        <ele>2282.31</ele>
        <time>2012-08-03T09:58:37Z</time>
      </trkpt>
      <trkpt lat="46.41555" lon="10.01557">
        <ele>2279.9</ele>
        <time>2012-08-03T09:58:43Z</time>
      </trkpt>
      <trkpt lat="46.41559" lon="10.01487">
        <ele>2277.98</ele>
        <time>2012-08-03T09:58:46Z</time>
      </trkpt>
      <trkpt lat="46.41564" lon="10.01465">
        <ele>2277.5</ele>
        <time>2012-08-03T09:58:47Z</time>
      </trkpt>
      <trkpt lat="46.4157" lon="10.01443">
        <ele>2277.02</ele>
        <time>2012-08-03T09:58:48Z</time>
      </trkpt>
      <trkpt lat="46.41595" lon="10.01381">
        <ele>2275.58</ele>
        <time>2012-08-03T09:58:51Z</time>
      </trkpt>
      <trkpt lat="46.41606" lon="10.01366">
        <ele>2275.1</ele>
        <time>2012-08-03T09:58:52Z</time>
      </trkpt>
      <trkpt lat="46.41619" lon="10.01357">
        <ele>2273.66</ele>
        <time>2012-08-03T09:58:53Z</time>
      </trkpt>
      <trkpt lat="46.41634" lon="10.0135">
        <ele>2274.14</ele>
        <time>2012-08-03T09:58:54Z</time>
      </trkpt>
      <trkpt lat="46.41738" lon="10.01266">
        <ele>2269.33</ele>
        <time>2012-08-03T09:59:01Z</time>
      </trkpt>
      <trkpt lat="46.41751" lon="10.01252">
        <ele>2269.33</ele>
        <time>2012-08-03T09:59:02Z</time>
      </trkpt>
      <trkpt lat="46.41764" lon="10.01238">
        <ele>2268.37</ele>
        <time>2012-08-03T09:59:03Z</time>
      </trkpt>
      <trkpt lat="46.41775" lon="10.0122">
        <ele>2267.89</ele>
        <time>2012-08-03T09:59:04Z</time>
      </trkpt>
      <trkpt lat="46.41784" lon="10.01199">
        <ele>2266.45</ele>
        <time>2012-08-03T09:59:05Z</time>
      </trkpt>
      <trkpt lat="46.4179" lon="10.01176">
        <ele>2266.45</ele>
        <time>2012-08-03T09:59:06Z</time>
      </trkpt>
      <trkpt lat="46.41794" lon="10.0115">
        <ele>2265</ele>
        <time>2012-08-03T09:59:07Z</time>
      </trkpt>
      <trkpt lat="46.41797" lon="10.01124">
        <ele>2264.52</ele>
        <time>2012-08-03T09:59:08Z</time>
      </trkpt>
      <trkpt lat="46.41798" lon="10.01098">
        <ele>2263.08</ele>
        <time>2012-08-03T09:59:09Z</time>
      </trkpt>
      <trkpt lat="46.41798" lon="10.01072">
        <ele>2262.6</ele>
        <time>2012-08-03T09:59:10Z</time>
      </trkpt>
      <trkpt lat="46.41796" lon="10.01047">
        <ele>2261.16</ele>
        <time>2012-08-03T09:59:11Z</time>
      </trkpt>
      <trkpt lat="46.41794" lon="10.01002">
        <ele>2257.79</ele>
        <time>2012-08-03T09:59:13Z</time>
      </trkpt>
      <trkpt lat="46.41795" lon="10.00981">
        <ele>2256.83</ele>
        <time>2012-08-03T09:59:14Z</time>
      </trkpt>
      <trkpt lat="46.41799" lon="10.0096">
        <ele>2256.35</ele>
        <time>2012-08-03T09:59:15Z</time>
      </trkpt>
      <trkpt lat="46.41806" lon="10.0094">
        <ele>2255.87</ele>
        <time>2012-08-03T09:59:16Z</time>
      </trkpt>
      <trkpt lat="46.41855" lon="10.0085">
        <ele>2256.35</ele>
        <time>2012-08-03T09:59:20Z</time>
      </trkpt>
      <trkpt lat="46.41871" lon="10.0083">
        <ele>2254.91</ele>
        <time>2012-08-03T09:59:21Z</time>
      </trkpt>
      <trkpt lat="46.41901" lon="10.00792">
        <ele>2252.51</ele>
        <time>2012-08-03T09:59:23Z</time>
      </trkpt>
      <trkpt lat="46.41914" lon="10.0077">
        <ele>2251.54</ele>
        <time>2012-08-03T09:59:24Z</time>
      </trkpt>
      <trkpt lat="46.41926" lon="10.00744">
        <ele>2251.06</ele>
        <time>2012-08-03T09:59:25Z</time>
      </trkpt>
      <trkpt lat="46.41936" lon="10.00714">
        <ele>2250.58</ele>
        <time>2012-08-03T09:59:26Z</time>
      </trkpt>
      <trkpt lat="46.41944" lon="10.0068">
        <ele>2249.62</ele>
        <time>2012-08-03T09:59:27Z</time>
      </trkpt>
      <trkpt lat="46.4195" lon="10.00645">
        <ele>2247.7</ele>
        <time>2012-08-03T09:59:28Z</time>
      </trkpt>
      <trkpt lat="46.41954" lon="10.00612">
        <ele>2245.78</ele>
        <time>2012-08-03T09:59:29Z</time>
      </trkpt>
      <trkpt lat="46.41965" lon="10.00518">
        <ele>2241.93</ele>
        <time>2012-08-03T09:59:32Z</time>
      </trkpt>
      <trkpt lat="46.41976" lon="10.00461">
        <ele>2239.53</ele>
        <time>2012-08-03T09:59:34Z</time>
      </trkpt>
      <trkpt lat="46.41984" lon="10.00436">
        <ele>2238.57</ele>
        <time>2012-08-03T09:59:35Z</time>
      </trkpt>
      <trkpt lat="46.41994" lon="10.00411">
        <ele>2236.64</ele>
        <time>2012-08-03T09:59:36Z</time>
      </trkpt>
      <trkpt lat="46.42006" lon="10.00386">
        <ele>2236.16</ele>
        <time>2012-08-03T09:59:37Z</time>
      </trkpt>
      <trkpt lat="46.4202" lon="10.00364">
        <ele>2235.2</ele>
        <time>2012-08-03T09:59:38Z</time>
      </trkpt>
      <trkpt lat="46.42036" lon="10.00345">
        <ele>2233.76</ele>
        <time>2012-08-03T09:59:39Z</time>
      </trkpt>
      <trkpt lat="46.42054" lon="10.00328">
        <ele>2232.32</ele>
        <time>2012-08-03T09:59:40Z</time>
      </trkpt>
      <trkpt lat="46.42074" lon="10.00313">
        <ele>2230.88</ele>
        <time>2012-08-03T09:59:41Z</time>
      </trkpt>
      <trkpt lat="46.42095" lon="10.003">
        <ele>2229.43</ele>
        <time>2012-08-03T09:59:42Z</time>
      </trkpt>
      <trkpt lat="46.42162" lon="10.0026">
        <ele>2225.11</ele>
        <time>2012-08-03T09:59:45Z</time>
      </trkpt>
      <trkpt lat="46.42208" lon="10.00233">
        <ele>2220.78</ele>
        <time>2012-08-03T09:59:47Z</time>
      </trkpt>
      <trkpt lat="46.42254" lon="10.00205">
        <ele>2217.42</ele>
        <time>2012-08-03T09:59:49Z</time>
      </trkpt>
      <trkpt lat="46.42277" lon="10.0019">
        <ele>2214.05</ele>
        <time>2012-08-03T09:59:50Z</time>
      </trkpt>
      <trkpt lat="46.423" lon="10.00173">
        <ele>2210.69</ele>
        <time>2012-08-03T09:59:51Z</time>
      </trkpt>
      <trkpt lat="46.42366" lon="10.00113">
        <ele>2206.36</ele>
        <time>2012-08-03T09:59:54Z</time>
      </trkpt>
      <trkpt lat="46.42412" lon="10.00073">
        <ele>2203.48</ele>
        <time>2012-08-03T09:59:56Z</time>
      </trkpt>
      <trkpt lat="46.42461" lon="10.00038">
        <ele>2200.11</ele>
        <time>2012-08-03T09:59:58Z</time>
      </trkpt>
      <trkpt lat="46.42509" lon="10.00008">
        <ele>2195.79</ele>
        <time>2012-08-03T10:00:00Z</time>
      </trkpt>
      <trkpt lat="46.42553" lon="9.99979">
        <ele>2189.06</ele>
        <time>2012-08-03T10:00:02Z</time>
      </trkpt>
      <trkpt lat="46.42595" lon="9.99952">
        <ele>2184.25</ele>
        <time>2012-08-03T10:00:04Z</time>
      </trkpt>
      <trkpt lat="46.42634" lon="9.99929">
        <ele>2178.97</ele>
        <time>2012-08-03T10:00:06Z</time>
      </trkpt>
      <trkpt lat="46.42653" lon="9.99921">
        <ele>2177.52</ele>
        <time>2012-08-03T10:00:07Z</time>
      </trkpt>
      <trkpt lat="46.42673" lon="9.99917">
        <ele>2176.56</ele>
        <time>2012-08-03T10:00:08Z</time>
      </trkpt>
      <trkpt lat="46.42692" lon="9.99916">
        <ele>2175.12</ele>
        <time>2012-08-03T10:00:09Z</time>
      </trkpt>
      <trkpt lat="46.42712" lon="9.99917">
        <ele>2175.12</ele>
        <time>2012-08-03T10:00:10Z</time>
      </trkpt>
      <trkpt lat="46.42748" lon="9.9992">
        <ele>2170.31</ele>
        <time>2012-08-03T10:00:12Z</time>
      </trkpt>
      <trkpt lat="46.42783" lon="9.99922">
        <ele>2167.43</ele>
        <time>2012-08-03T10:00:14Z</time>
      </trkpt>
      <trkpt lat="46.42803" lon="9.99921">
        <ele>2167.91</ele>
        <time>2012-08-03T10:00:15Z</time>
      </trkpt>
      <trkpt lat="46.42921" lon="9.99928">
        <ele>2164.06</ele>
        <time>2012-08-03T10:00:20Z</time>
      </trkpt>
      <trkpt lat="46.42994" lon="9.99914">
        <ele>2160.22</ele>
        <time>2012-08-03T10:00:23Z</time>
      </trkpt>
      <trkpt lat="46.43059" lon="9.99893">
        <ele>2155.89</ele>
        <time>2012-08-03T10:00:26Z</time>
      </trkpt>
      <trkpt lat="46.43098" lon="9.99876">
        <ele>2153.97</ele>
        <time>2012-08-03T10:00:28Z</time>
      </trkpt>
      <trkpt lat="46.43116" lon="9.99862">
        <ele>2153.49</ele>
        <time>2012-08-03T10:00:29Z</time>
      </trkpt>
      <trkpt lat="46.43132" lon="9.99846">
        <ele>2152.05</ele>
        <time>2012-08-03T10:00:30Z</time>
      </trkpt>
      <trkpt lat="46.43146" lon="9.99828">
        <ele>2150.61</ele>
        <time>2012-08-03T10:00:31Z</time>
      </trkpt>
      <trkpt lat="46.43161" lon="9.99814">
        <ele>2149.65</ele>
        <time>2012-08-03T10:00:32Z</time>
      </trkpt>
      <trkpt lat="46.43177" lon="9.99804">
        <ele>2149.65</ele>
        <time>2012-08-03T10:00:33Z</time>
      </trkpt>
      <trkpt lat="46.43196" lon="9.998">
        <ele>2149.16</ele>
        <time>2012-08-03T10:00:34Z</time>
      </trkpt>
      <trkpt lat="46.43214" lon="9.99799">
        <ele>2149.65</ele>
        <time>2012-08-03T10:00:35Z</time>
      </trkpt>
      <trkpt lat="46.43246" lon="9.99793">
        <ele>2146.76</ele>
        <time>2012-08-03T10:00:37Z</time>
      </trkpt>
      <trkpt lat="46.43259" lon="9.99785">
        <ele>2146.76</ele>
        <time>2012-08-03T10:00:38Z</time>
      </trkpt>
      <trkpt lat="46.43272" lon="9.99772">
        <ele>2145.8</ele>
        <time>2012-08-03T10:00:39Z</time>
      </trkpt>
      <trkpt lat="46.43283" lon="9.99754">
        <ele>2146.28</ele>
        <time>2012-08-03T10:00:40Z</time>
      </trkpt>
      <trkpt lat="46.43293" lon="9.99735">
        <ele>2145.8</ele>
        <time>2012-08-03T10:00:41Z</time>
      </trkpt>
      <trkpt lat="46.43305" lon="9.99718">
        <ele>2145.8</ele>
        <time>2012-08-03T10:00:42Z</time>
      </trkpt>
      <trkpt lat="46.43317" lon="9.99704">
        <ele>2144.36</ele>
        <time>2012-08-03T10:00:43Z</time>
      </trkpt>
      <trkpt lat="46.43332" lon="9.99694">
        <ele>2144.36</ele>
        <time>2012-08-03T10:00:44Z</time>
      </trkpt>
      <trkpt lat="46.43347" lon="9.99687">
        <ele>2143.4</ele>
        <time>2012-08-03T10:00:45Z</time>
      </trkpt>
      <trkpt lat="46.43362" lon="9.99684">
        <ele>2142.44</ele>
        <time>2012-08-03T10:00:46Z</time>
      </trkpt>
      <trkpt lat="46.43377" lon="9.99681">
        <ele>2141.95</ele>
        <time>2012-08-03T10:00:47Z</time>
      </trkpt>
      <trkpt lat="46.43402" lon="9.99675">
        <ele>2139.55</ele>
        <time>2012-08-03T10:00:49Z</time>
      </trkpt>
      <trkpt lat="46.43414" lon="9.99669">
        <ele>2138.59</ele>
        <time>2012-08-03T10:00:50Z</time>
      </trkpt>
      <trkpt lat="46.43424" lon="9.99661">
        <ele>2138.11</ele>
        <time>2012-08-03T10:00:51Z</time>
      </trkpt>
      <trkpt lat="46.43464" lon="9.9962">
        <ele>2134.26</ele>
        <time>2012-08-03T10:00:55Z</time>
      </trkpt>
      <trkpt lat="46.43498" lon="9.99594">
        <ele>2130.9</ele>
        <time>2012-08-03T10:01:00Z</time>
      </trkpt>
      <trkpt lat="46.43559" lon="9.99553">
        <ele>2127.53</ele>
        <time>2012-08-03T10:01:08Z</time>
      </trkpt>
      <trkpt lat="46.43568" lon="9.99547">
        <ele>2127.53</ele>
        <time>2012-08-03T10:01:09Z</time>
      </trkpt>
      <trkpt lat="46.43576" lon="9.9954">
        <ele>2127.05</ele>
        <time>2012-08-03T10:01:10Z</time>
      </trkpt>
      <trkpt lat="46.43586" lon="9.99531">
        <ele>2127.05</ele>
        <time>2012-08-03T10:01:11Z</time>
      </trkpt>
      <trkpt lat="46.43595" lon="9.9952">
        <ele>2126.57</ele>
        <time>2012-08-03T10:01:12Z</time>
      </trkpt>
      <trkpt lat="46.43603" lon="9.99508">
        <ele>2125.61</ele>
        <time>2012-08-03T10:01:13Z</time>
      </trkpt>
      <trkpt lat="46.43609" lon="9.99496">
        <ele>2124.17</ele>
        <time>2012-08-03T10:01:14Z</time>
      </trkpt>
      <trkpt lat="46.43615" lon="9.99484">
        <ele>2123.69</ele>
        <time>2012-08-03T10:01:15Z</time>
      </trkpt>
      <trkpt lat="46.4362" lon="9.99472">
        <ele>2123.69</ele>
        <time>2012-08-03T10:01:16Z</time>
      </trkpt>
      <trkpt lat="46.43666" lon="9.99363">
        <ele>2120.32</ele>
        <time>2012-08-03T10:01:24Z</time>
      </trkpt>
      <trkpt lat="46.43684" lon="9.99317">
        <ele>2116.48</ele>
        <time>2012-08-03T10:01:27Z</time>
      </trkpt>
      <trkpt lat="46.43693" lon="9.99294">
        <ele>2116</ele>
        <time>2012-08-03T10:01:29Z</time>
      </trkpt>
      <trkpt lat="46.43742" lon="9.99205">
        <ele>2115.04</ele>
        <time>2012-08-03T10:01:35Z</time>
      </trkpt>
      <trkpt lat="46.43832" lon="9.99068">
        <ele>2111.67</ele>
        <time>2012-08-03T10:01:42Z</time>
      </trkpt>
      <trkpt lat="46.43919" lon="9.9893">
        <ele>2108.31</ele>
        <time>2012-08-03T10:01:49Z</time>
      </trkpt>
      <trkpt lat="46.44045" lon="9.98689">
        <ele>2104.94</ele>
        <time>2012-08-03T10:02:01Z</time>
      </trkpt>
      <trkpt lat="46.44063" lon="9.98653">
        <ele>2103.02</ele>
        <time>2012-08-03T10:02:03Z</time>
      </trkpt>
      <trkpt lat="46.44073" lon="9.98639">
        <ele>2101.58</ele>
        <time>2012-08-03T10:02:04Z</time>
      </trkpt>
      <trkpt lat="46.44085" lon="9.98627">
        <ele>2101.58</ele>
        <time>2012-08-03T10:02:05Z</time>
      </trkpt>
      <trkpt lat="46.44099" lon="9.98618">
        <ele>2101.1</ele>
        <time>2012-08-03T10:02:06Z</time>
      </trkpt>
      <trkpt lat="46.44113" lon="9.98611">
        <ele>2100.62</ele>
        <time>2012-08-03T10:02:07Z</time>
      </trkpt>
      <trkpt lat="46.44128" lon="9.98605">
        <ele>2100.62</ele>
        <time>2012-08-03T10:02:08Z</time>
      </trkpt>
      <trkpt lat="46.44171" lon="9.98584">
        <ele>2099.18</ele>
        <time>2012-08-03T10:02:11Z</time>
      </trkpt>
      <trkpt lat="46.44184" lon="9.98572">
        <ele>2099.18</ele>
        <time>2012-08-03T10:02:12Z</time>
      </trkpt>
      <trkpt lat="46.44194" lon="9.98557">
        <ele>2098.7</ele>
        <time>2012-08-03T10:02:13Z</time>
      </trkpt>
      <trkpt lat="46.44202" lon="9.98539">
        <ele>2098.7</ele>
        <time>2012-08-03T10:02:14Z</time>
      </trkpt>
      <trkpt lat="46.44208" lon="9.98519">
        <ele>2097.73</ele>
        <time>2012-08-03T10:02:15Z</time>
      </trkpt>
      <trkpt lat="46.44212" lon="9.98498">
        <ele>2098.7</ele>
        <time>2012-08-03T10:02:16Z</time>
      </trkpt>
      <trkpt lat="46.44215" lon="9.98475">
        <ele>2100.62</ele>
        <time>2012-08-03T10:02:17Z</time>
      </trkpt>
      <trkpt lat="46.44216" lon="9.98453">
        <ele>2099.66</ele>
        <time>2012-08-03T10:02:18Z</time>
      </trkpt>
      <trkpt lat="46.44217" lon="9.9843">
        <ele>2098.7</ele>
        <time>2012-08-03T10:02:19Z</time>
      </trkpt>
      <trkpt lat="46.4422" lon="9.98385">
        <ele>2097.73</ele>
        <time>2012-08-03T10:02:21Z</time>
      </trkpt>
      <trkpt lat="46.44241" lon="9.98172">
        <ele>2098.21</ele>
        <time>2012-08-03T10:02:32Z</time>
      </trkpt>
      <trkpt lat="46.44269" lon="9.97978">
        <ele>2094.37</ele>
        <time>2012-08-03T10:02:42Z</time>
      </trkpt>
      <trkpt lat="46.44276" lon="9.97933">
        <ele>2093.41</ele>
        <time>2012-08-03T10:02:44Z</time>
      </trkpt>
      <trkpt lat="46.44292" lon="9.97844">
        <ele>2090.04</ele>
        <time>2012-08-03T10:02:48Z</time>
      </trkpt>
      <trkpt lat="46.44293" lon="9.97822">
        <ele>2088.6</ele>
        <time>2012-08-03T10:02:49Z</time>
      </trkpt>
      <trkpt lat="46.44293" lon="9.978">
        <ele>2089.08</ele>
        <time>2012-08-03T10:02:50Z</time>
      </trkpt>
      <trkpt lat="46.44272" lon="9.97649">
        <ele>2085.72</ele>
        <time>2012-08-03T10:02:57Z</time>
      </trkpt>
      <trkpt lat="46.4427" lon="9.97626">
        <ele>2085.24</ele>
        <time>2012-08-03T10:02:58Z</time>
      </trkpt>
      <trkpt lat="46.4427" lon="9.97602">
        <ele>2084.28</ele>
        <time>2012-08-03T10:02:59Z</time>
      </trkpt>
      <trkpt lat="46.44272" lon="9.97578">
        <ele>2083.31</ele>
        <time>2012-08-03T10:03:00Z</time>
      </trkpt>
      <trkpt lat="46.44277" lon="9.97552">
        <ele>2083.31</ele>
        <time>2012-08-03T10:03:01Z</time>
      </trkpt>
      <trkpt lat="46.44284" lon="9.97525">
        <ele>2083.79</ele>
        <time>2012-08-03T10:03:02Z</time>
      </trkpt>
      <trkpt lat="46.44293" lon="9.97497">
        <ele>2083.31</ele>
        <time>2012-08-03T10:03:03Z</time>
      </trkpt>
      <trkpt lat="46.44302" lon="9.97469">
        <ele>2084.28</ele>
        <time>2012-08-03T10:03:04Z</time>
      </trkpt>
      <trkpt lat="46.44325" lon="9.97414">
        <ele>2081.39</ele>
        <time>2012-08-03T10:03:06Z</time>
      </trkpt>
      <trkpt lat="46.44338" lon="9.9739">
        <ele>2081.39</ele>
        <time>2012-08-03T10:03:07Z</time>
      </trkpt>
      <trkpt lat="46.44352" lon="9.97369">
        <ele>2080.91</ele>
        <time>2012-08-03T10:03:08Z</time>
      </trkpt>
      <trkpt lat="46.44407" lon="9.97298">
        <ele>2076.59</ele>
        <time>2012-08-03T10:03:12Z</time>
      </trkpt>
      <trkpt lat="46.44456" lon="9.97212">
        <ele>2072.26</ele>
        <time>2012-08-03T10:03:17Z</time>
      </trkpt>
      <trkpt lat="46.44482" lon="9.97134">
        <ele>2070.34</ele>
        <time>2012-08-03T10:03:21Z</time>
      </trkpt>
      <trkpt lat="46.44496" lon="9.9707">
        <ele>2068.41</ele>
        <time>2012-08-03T10:03:24Z</time>
      </trkpt>
      <trkpt lat="46.44506" lon="9.97004">
        <ele>2066.97</ele>
        <time>2012-08-03T10:03:27Z</time>
      </trkpt>
      <trkpt lat="46.44518" lon="9.96938">
        <ele>2065.05</ele>
        <time>2012-08-03T10:03:30Z</time>
      </trkpt>
      <trkpt lat="46.44525" lon="9.96917">
        <ele>2065.05</ele>
        <time>2012-08-03T10:03:31Z</time>
      </trkpt>
      <trkpt lat="46.44533" lon="9.96896">
        <ele>2065.05</ele>
        <time>2012-08-03T10:03:32Z</time>
      </trkpt>
      <trkpt lat="46.44542" lon="9.96875">
        <ele>2064.57</ele>
        <time>2012-08-03T10:03:33Z</time>
      </trkpt>
      <trkpt lat="46.44552" lon="9.96855">
        <ele>2065.05</ele>
        <time>2012-08-03T10:03:34Z</time>
      </trkpt>
      <trkpt lat="46.44652" lon="9.9667">
        <ele>2062.65</ele>
        <time>2012-08-03T10:03:44Z</time>
      </trkpt>
      <trkpt lat="46.44668" lon="9.96627">
        <ele>2062.65</ele>
        <time>2012-08-03T10:03:46Z</time>
      </trkpt>
      <trkpt lat="46.44675" lon="9.96601">
        <ele>2064.09</ele>
        <time>2012-08-03T10:03:47Z</time>
      </trkpt>
      <trkpt lat="46.44736" lon="9.96344">
        <ele>2064.09</ele>
        <time>2012-08-03T10:03:56Z</time>
      </trkpt>
      <trkpt lat="46.44814" lon="9.96">
        <ele>2060.72</ele>
        <time>2012-08-03T10:04:08Z</time>
      </trkpt>
      <trkpt lat="46.4484" lon="9.95886">
        <ele>2057.84</ele>
        <time>2012-08-03T10:04:12Z</time>
      </trkpt>
      <trkpt lat="46.44872" lon="9.95739">
        <ele>2053.99</ele>
        <time>2012-08-03T10:04:17Z</time>
      </trkpt>
      <trkpt lat="46.44891" lon="9.95683">
        <ele>2053.03</ele>
        <time>2012-08-03T10:04:19Z</time>
      </trkpt>
      <trkpt lat="46.44903" lon="9.95657">
        <ele>2052.07</ele>
        <time>2012-08-03T10:04:20Z</time>
      </trkpt>
      <trkpt lat="46.44916" lon="9.95633">
        <ele>2051.59</ele>
        <time>2012-08-03T10:04:21Z</time>
      </trkpt>
      <trkpt lat="46.45027" lon="9.95448">
        <ele>2048.23</ele>
        <time>2012-08-03T10:04:29Z</time>
      </trkpt>
      <trkpt lat="46.45042" lon="9.95427">
        <ele>2048.23</ele>
        <time>2012-08-03T10:04:30Z</time>
      </trkpt>
      <trkpt lat="46.45183" lon="9.95287">
        <ele>2045.82</ele>
        <time>2012-08-03T10:04:38Z</time>
      </trkpt>
      <trkpt lat="46.45215" lon="9.95255">
        <ele>2042.94</ele>
        <time>2012-08-03T10:04:40Z</time>
      </trkpt>
      <trkpt lat="46.45228" lon="9.95237">
        <ele>2042.46</ele>
        <time>2012-08-03T10:04:41Z</time>
      </trkpt>
      <trkpt lat="46.45239" lon="9.95217">
        <ele>2041.98</ele>
        <time>2012-08-03T10:04:42Z</time>
      </trkpt>
      <trkpt lat="46.45248" lon="9.95196">
        <ele>2041.02</ele>
        <time>2012-08-03T10:04:43Z</time>
      </trkpt>
      <trkpt lat="46.45255" lon="9.95173">
        <ele>2041.02</ele>
        <time>2012-08-03T10:04:44Z</time>
      </trkpt>
      <trkpt lat="46.4526" lon="9.95149">
        <ele>2040.54</ele>
        <time>2012-08-03T10:04:45Z</time>
      </trkpt>
      <trkpt lat="46.45261" lon="9.95125">
        <ele>2040.05</ele>
        <time>2012-08-03T10:04:46Z</time>
      </trkpt>
      <trkpt lat="46.45259" lon="9.951">
        <ele>2040.05</ele>
        <time>2012-08-03T10:04:47Z</time>
      </trkpt>
      <trkpt lat="46.45254" lon="9.95076">
        <ele>2038.61</ele>
        <time>2012-08-03T10:04:48Z</time>
      </trkpt>
      <trkpt lat="46.4525" lon="9.95055">
        <ele>2038.13</ele>
        <time>2012-08-03T10:04:49Z</time>
      </trkpt>
      <trkpt lat="46.45245" lon="9.95016">
        <ele>2034.77</ele>
        <time>2012-08-03T10:04:51Z</time>
      </trkpt>
      <trkpt lat="46.45246" lon="9.94998">
        <ele>2034.29</ele>
        <time>2012-08-03T10:04:52Z</time>
      </trkpt>
      <trkpt lat="46.45251" lon="9.94979">
        <ele>2033.33</ele>
        <time>2012-08-03T10:04:53Z</time>
      </trkpt>
      <trkpt lat="46.45259" lon="9.94962">
        <ele>2033.33</ele>
        <time>2012-08-03T10:04:54Z</time>
      </trkpt>
      <trkpt lat="46.45271" lon="9.94947">
        <ele>2032.84</ele>
        <time>2012-08-03T10:04:55Z</time>
      </trkpt>
      <trkpt lat="46.45284" lon="9.94931">
        <ele>2032.84</ele>
        <time>2012-08-03T10:04:56Z</time>
      </trkpt>
      <trkpt lat="46.45296" lon="9.94911">
        <ele>2031.4</ele>
        <time>2012-08-03T10:04:57Z</time>
      </trkpt>
      <trkpt lat="46.45306" lon="9.94888">
        <ele>2031.4</ele>
        <time>2012-08-03T10:04:58Z</time>
      </trkpt>
      <trkpt lat="46.45315" lon="9.94862">
        <ele>2030.92</ele>
        <time>2012-08-03T10:04:59Z</time>
      </trkpt>
      <trkpt lat="46.45323" lon="9.94835">
        <ele>2029</ele>
        <time>2012-08-03T10:05:00Z</time>
      </trkpt>
      <trkpt lat="46.45347" lon="9.94752">
        <ele>2024.67</ele>
        <time>2012-08-03T10:05:03Z</time>
      </trkpt>
      <trkpt lat="46.45362" lon="9.94705">
        <ele>2019.39</ele>
        <time>2012-08-03T10:05:05Z</time>
      </trkpt>
      <trkpt lat="46.45379" lon="9.94665">
        <ele>2016.02</ele>
        <time>2012-08-03T10:05:07Z</time>
      </trkpt>
      <trkpt lat="46.45391" lon="9.94648">
        <ele>2015.54</ele>
        <time>2012-08-03T10:05:08Z</time>
      </trkpt>
      <trkpt lat="46.45405" lon="9.94632">
        <ele>2014.1</ele>
        <time>2012-08-03T10:05:09Z</time>
      </trkpt>
      <trkpt lat="46.45421" lon="9.94618">
        <ele>2013.62</ele>
        <time>2012-08-03T10:05:10Z</time>
      </trkpt>
      <trkpt lat="46.45439" lon="9.94604">
        <ele>2012.18</ele>
        <time>2012-08-03T10:05:11Z</time>
      </trkpt>
      <trkpt lat="46.45473" lon="9.94573">
        <ele>2009.29</ele>
        <time>2012-08-03T10:05:13Z</time>
      </trkpt>
      <trkpt lat="46.45488" lon="9.94553">
        <ele>2008.33</ele>
        <time>2012-08-03T10:05:14Z</time>
      </trkpt>
      <trkpt lat="46.45501" lon="9.94533">
        <ele>2006.89</ele>
        <time>2012-08-03T10:05:15Z</time>
      </trkpt>
      <trkpt lat="46.45525" lon="9.94496">
        <ele>2002.56</ele>
        <time>2012-08-03T10:05:17Z</time>
      </trkpt>
      <trkpt lat="46.45539" lon="9.94481">
        <ele>2001.12</ele>
        <time>2012-08-03T10:05:18Z</time>
      </trkpt>
      <trkpt lat="46.45555" lon="9.94471">
        <ele>1999.68</ele>
        <time>2012-08-03T10:05:19Z</time>
      </trkpt>
      <trkpt lat="46.45572" lon="9.94465">
        <ele>1997.28</ele>
        <time>2012-08-03T10:05:20Z</time>
      </trkpt>
      <trkpt lat="46.45587" lon="9.94459">
        <ele>1995.35</ele>
        <time>2012-08-03T10:05:21Z</time>
      </trkpt>
      <trkpt lat="46.45602" lon="9.94452">
        <ele>1993.91</ele>
        <time>2012-08-03T10:05:22Z</time>
      </trkpt>
      <trkpt lat="46.45615" lon="9.94443">
        <ele>1992.47</ele>
        <time>2012-08-03T10:05:23Z</time>
      </trkpt>
      <trkpt lat="46.45627" lon="9.9443">
        <ele>1991.03</ele>
        <time>2012-08-03T10:05:24Z</time>
      </trkpt>
      <trkpt lat="46.45637" lon="9.94414">
        <ele>1990.55</ele>
        <time>2012-08-03T10:05:25Z</time>
      </trkpt>
      <trkpt lat="46.45647" lon="9.94393">
        <ele>1990.55</ele>
        <time>2012-08-03T10:05:26Z</time>
      </trkpt>
      <trkpt lat="46.45656" lon="9.94372">
        <ele>1989.1</ele>
        <time>2012-08-03T10:05:27Z</time>
      </trkpt>
      <trkpt lat="46.45673" lon="9.94334">
        <ele>1986.22</ele>
        <time>2012-08-03T10:05:29Z</time>
      </trkpt>
      <trkpt lat="46.45682" lon="9.94318">
        <ele>1983.82</ele>
        <time>2012-08-03T10:05:30Z</time>
      </trkpt>
      <trkpt lat="46.45692" lon="9.94304">
        <ele>1982.38</ele>
        <time>2012-08-03T10:05:31Z</time>
      </trkpt>
      <trkpt lat="46.45703" lon="9.94294">
        <ele>1980.45</ele>
        <time>2012-08-03T10:05:32Z</time>
      </trkpt>
      <trkpt lat="46.45715" lon="9.94288">
        <ele>1979.49</ele>
        <time>2012-08-03T10:05:33Z</time>
      </trkpt>
      <trkpt lat="46.45727" lon="9.94283">
        <ele>1978.53</ele>
        <time>2012-08-03T10:05:34Z</time>
      </trkpt>
      <trkpt lat="46.45738" lon="9.94275">
        <ele>1978.05</ele>
        <time>2012-08-03T10:05:35Z</time>
      </trkpt>
      <trkpt lat="46.4575" lon="9.94263">
        <ele>1978.05</ele>
        <time>2012-08-03T10:05:36Z</time>
      </trkpt>
      <trkpt lat="46.45762" lon="9.94251">
        <ele>1977.09</ele>
        <time>2012-08-03T10:05:37Z</time>
      </trkpt>
      <trkpt lat="46.45773" lon="9.94244">
        <ele>1975.17</ele>
        <time>2012-08-03T10:05:38Z</time>
      </trkpt>
      <trkpt lat="46.45786" lon="9.94242">
        <ele>1973.24</ele>
        <time>2012-08-03T10:05:39Z</time>
      </trkpt>
      <trkpt lat="46.45797" lon="9.94241">
        <ele>1971.8</ele>
        <time>2012-08-03T10:05:40Z</time>
      </trkpt>
      <trkpt lat="46.45806" lon="9.9424">
        <ele>1970.36</ele>
        <time>2012-08-03T10:05:41Z</time>
      </trkpt>
      <trkpt lat="46.45812" lon="9.94236">
        <ele>1969.4</ele>
        <time>2012-08-03T10:05:42Z</time>
      </trkpt>
      <trkpt lat="46.45817" lon="9.94228">
        <ele>1968.92</ele>
        <time>2012-08-03T10:05:43Z</time>
      </trkpt>
      <trkpt lat="46.45819" lon="9.94218">
        <ele>1968.92</ele>
        <time>2012-08-03T10:05:44Z</time>
      </trkpt>
      <trkpt lat="46.4582" lon="9.94209">
        <ele>1968.92</ele>
        <time>2012-08-03T10:05:45Z</time>
      </trkpt>
      <trkpt lat="46.45816" lon="9.94201">
        <ele>1969.4</ele>
        <time>2012-08-03T10:05:46Z</time>
      </trkpt>
      <trkpt lat="46.4581" lon="9.94193">
        <ele>1968.92</ele>
        <time>2012-08-03T10:05:47Z</time>
      </trkpt>
      <trkpt lat="46.45802" lon="9.94188">
        <ele>1967.96</ele>
        <time>2012-08-03T10:05:48Z</time>
      </trkpt>
      <trkpt lat="46.45789" lon="9.94186">
        <ele>1966.99</ele>
        <time>2012-08-03T10:05:49Z</time>
      </trkpt>
      <trkpt lat="46.4577" lon="9.94189">
        <ele>1966.99</ele>
        <time>2012-08-03T10:05:50Z</time>
      </trkpt>
      <trkpt lat="46.45754" lon="9.94196">
        <ele>1965.07</ele>
        <time>2012-08-03T10:05:51Z</time>
      </trkpt>
      <trkpt lat="46.45739" lon="9.94207">
        <ele>1963.15</ele>
        <time>2012-08-03T10:05:52Z</time>
      </trkpt>
      <trkpt lat="46.45721" lon="9.94222">
        <ele>1960.27</ele>
        <time>2012-08-03T10:05:54Z</time>
      </trkpt>
      <trkpt lat="46.45693" lon="9.94234">
        <ele>1958.82</ele>
        <time>2012-08-03T10:05:55Z</time>
      </trkpt>
      <trkpt lat="46.45686" lon="9.94237">
        <ele>1958.34</ele>
        <time>2012-08-03T10:05:56Z</time>
      </trkpt>
      <trkpt lat="46.45679" lon="9.94235">
        <ele>1957.38</ele>
        <time>2012-08-03T10:05:57Z</time>
      </trkpt>
      <trkpt lat="46.45675" lon="9.94228">
        <ele>1955.94</ele>
        <time>2012-08-03T10:05:58Z</time>
      </trkpt>
      <trkpt lat="46.45674" lon="9.94219">
        <ele>1955.94</ele>
        <time>2012-08-03T10:05:59Z</time>
      </trkpt>
      <trkpt lat="46.45675" lon="9.9421">
        <ele>1956.42</ele>
        <time>2012-08-03T10:06:00Z</time>
      </trkpt>
      <trkpt lat="46.4568" lon="9.94199">
        <ele>1956.42</ele>
        <time>2012-08-03T10:06:01Z</time>
      </trkpt>
      <trkpt lat="46.45717" lon="9.94149">
        <ele>1955.46</ele>
        <time>2012-08-03T10:06:04Z</time>
      </trkpt>
      <trkpt lat="46.45731" lon="9.94134">
        <ele>1954.02</ele>
        <time>2012-08-03T10:06:05Z</time>
      </trkpt>
      <trkpt lat="46.45747" lon="9.94121">
        <ele>1953.06</ele>
        <time>2012-08-03T10:06:06Z</time>
      </trkpt>
      <trkpt lat="46.45764" lon="9.94115">
        <ele>1951.61</ele>
        <time>2012-08-03T10:06:07Z</time>
      </trkpt>
      <trkpt lat="46.4578" lon="9.94114">
        <ele>1949.69</ele>
        <time>2012-08-03T10:06:08Z</time>
      </trkpt>
      <trkpt lat="46.45796" lon="9.94119">
        <ele>1948.25</ele>
        <time>2012-08-03T10:06:09Z</time>
      </trkpt>
      <trkpt lat="46.4581" lon="9.94122">
        <ele>1946.81</ele>
        <time>2012-08-03T10:06:10Z</time>
      </trkpt>
      <trkpt lat="46.45824" lon="9.94119">
        <ele>1946.33</ele>
        <time>2012-08-03T10:06:11Z</time>
      </trkpt>
      <trkpt lat="46.45836" lon="9.94109">
        <ele>1945.85</ele>
        <time>2012-08-03T10:06:12Z</time>
      </trkpt>
      <trkpt lat="46.45849" lon="9.94095">
        <ele>1946.33</ele>
        <time>2012-08-03T10:06:13Z</time>
      </trkpt>
      <trkpt lat="46.45862" lon="9.9408">
        <ele>1944.88</ele>
        <time>2012-08-03T10:06:14Z</time>
      </trkpt>
      <trkpt lat="46.45875" lon="9.94066">
        <ele>1944.4</ele>
        <time>2012-08-03T10:06:15Z</time>
      </trkpt>
      <trkpt lat="46.4589" lon="9.94053">
        <ele>1943.44</ele>
        <time>2012-08-03T10:06:16Z</time>
      </trkpt>
      <trkpt lat="46.45907" lon="9.94041">
        <ele>1942.48</ele>
        <time>2012-08-03T10:06:17Z</time>
      </trkpt>
      <trkpt lat="46.45924" lon="9.94034">
        <ele>1941.52</ele>
        <time>2012-08-03T10:06:18Z</time>
      </trkpt>
      <trkpt lat="46.45959" lon="9.94021">
        <ele>1939.12</ele>
        <time>2012-08-03T10:06:20Z</time>
      </trkpt>
      <trkpt lat="46.45975" lon="9.94011">
        <ele>1938.16</ele>
        <time>2012-08-03T10:06:21Z</time>
      </trkpt>
      <trkpt lat="46.4602" lon="9.93978">
        <ele>1933.35</ele>
        <time>2012-08-03T10:06:24Z</time>
      </trkpt>
      <trkpt lat="46.46045" lon="9.93953">
        <ele>1930.46</ele>
        <time>2012-08-03T10:06:26Z</time>
      </trkpt>
      <trkpt lat="46.46076" lon="9.93922">
        <ele>1926.14</ele>
        <time>2012-08-03T10:06:29Z</time>
      </trkpt>
      <trkpt lat="46.46109" lon="9.93894">
        <ele>1922.77</ele>
        <time>2012-08-03T10:06:32Z</time>
      </trkpt>
      <trkpt lat="46.4613" lon="9.93875">
        <ele>1921.81</ele>
        <time>2012-08-03T10:06:34Z</time>
      </trkpt>
      <trkpt lat="46.46139" lon="9.93862">
        <ele>1921.33</ele>
        <time>2012-08-03T10:06:35Z</time>
      </trkpt>
      <trkpt lat="46.46146" lon="9.93844">
        <ele>1920.85</ele>
        <time>2012-08-03T10:06:36Z</time>
      </trkpt>
      <trkpt lat="46.46196" lon="9.93718">
        <ele>1920.85</ele>
        <time>2012-08-03T10:06:41Z</time>
      </trkpt>
      <trkpt lat="46.46206" lon="9.93688">
        <ele>1918.45</ele>
        <time>2012-08-03T10:06:42Z</time>
      </trkpt>
      <trkpt lat="46.46225" lon="9.9363">
        <ele>1914.6</ele>
        <time>2012-08-03T10:06:44Z</time>
      </trkpt>
      <trkpt lat="46.46246" lon="9.9358">
        <ele>1909.8</ele>
        <time>2012-08-03T10:06:46Z</time>
      </trkpt>
      <trkpt lat="46.46273" lon="9.93534">
        <ele>1907.87</ele>
        <time>2012-08-03T10:06:48Z</time>
      </trkpt>
      <trkpt lat="46.46289" lon="9.93514">
        <ele>1907.39</ele>
        <time>2012-08-03T10:06:49Z</time>
      </trkpt>
      <trkpt lat="46.46306" lon="9.93495">
        <ele>1905.95</ele>
        <time>2012-08-03T10:06:50Z</time>
      </trkpt>
      <trkpt lat="46.46322" lon="9.93477">
        <ele>1905.95</ele>
        <time>2012-08-03T10:06:51Z</time>
      </trkpt>
      <trkpt lat="46.4645" lon="9.93317">
        <ele>1903.07</ele>
        <time>2012-08-03T10:06:59Z</time>
      </trkpt>
      <trkpt lat="46.46486" lon="9.93284">
        <ele>1902.59</ele>
        <time>2012-08-03T10:07:01Z</time>
      </trkpt>
      <trkpt lat="46.46558" lon="9.93226">
        <ele>1900.18</ele>
        <time>2012-08-03T10:07:05Z</time>
      </trkpt>
      <trkpt lat="46.46573" lon="9.93204">
        <ele>1900.18</ele>
        <time>2012-08-03T10:07:06Z</time>
      </trkpt>
      <trkpt lat="46.46698" lon="9.93035">
        <ele>1897.78</ele>
        <time>2012-08-03T10:07:14Z</time>
      </trkpt>
      <trkpt lat="46.46781" lon="9.92943">
        <ele>1893.93</ele>
        <time>2012-08-03T10:07:19Z</time>
      </trkpt>
      <trkpt lat="46.46927" lon="9.92828">
        <ele>1890.09</ele>
        <time>2012-08-03T10:07:27Z</time>
      </trkpt>
      <trkpt lat="46.46966" lon="9.928">
        <ele>1890.09</ele>
        <time>2012-08-03T10:07:29Z</time>
      </trkpt>
      <trkpt lat="46.47343" lon="9.92484">
        <ele>1887.69</ele>
        <time>2012-08-03T10:07:49Z</time>
      </trkpt>
      <trkpt lat="46.47361" lon="9.92467">
        <ele>1877.11</ele>
        <time>2012-08-03T10:07:50Z</time>
      </trkpt>
      <trkpt lat="46.47377" lon="9.92449">
        <ele>1877.11</ele>
        <time>2012-08-03T10:07:51Z</time>
      </trkpt>
      <trkpt lat="46.47393" lon="9.9243">
        <ele>1876.15</ele>
        <time>2012-08-03T10:07:52Z</time>
      </trkpt>
      <trkpt lat="46.47406" lon="9.92407">
        <ele>1875.19</ele>
        <time>2012-08-03T10:07:53Z</time>
      </trkpt>
      <trkpt lat="46.4742" lon="9.92384">
        <ele>1873.75</ele>
        <time>2012-08-03T10:07:54Z</time>
      </trkpt>
      <trkpt lat="46.47435" lon="9.92364">
        <ele>1872.79</ele>
        <time>2012-08-03T10:07:55Z</time>
      </trkpt>
      <trkpt lat="46.47451" lon="9.92346">
        <ele>1872.79</ele>
        <time>2012-08-03T10:07:56Z</time>
      </trkpt>
      <trkpt lat="46.4747" lon="9.92332">
        <ele>1872.79</ele>
        <time>2012-08-03T10:07:57Z</time>
      </trkpt>
      <trkpt lat="46.4749" lon="9.92321">
        <ele>1871.82</ele>
        <time>2012-08-03T10:07:58Z</time>
      </trkpt>
      <trkpt lat="46.47511" lon="9.92314">
        <ele>1871.34</ele>
        <time>2012-08-03T10:07:59Z</time>
      </trkpt>
      <trkpt lat="46.47532" lon="9.9231">
        <ele>1871.34</ele>
        <time>2012-08-03T10:08:00Z</time>
      </trkpt>
      <trkpt lat="46.47619" lon="9.92283">
        <ele>1869.9</ele>
        <time>2012-08-03T10:08:04Z</time>
      </trkpt>
      <trkpt lat="46.47736" lon="9.92185">
        <ele>1867.5</ele>
        <time>2012-08-03T10:08:10Z</time>
      </trkpt>
      <trkpt lat="46.47774" lon="9.92148">
        <ele>1866.06</ele>
        <time>2012-08-03T10:08:12Z</time>
      </trkpt>
      <trkpt lat="46.47885" lon="9.92033">
        <ele>1863.17</ele>
        <time>2012-08-03T10:08:18Z</time>
      </trkpt>
      <trkpt lat="46.47902" lon="9.92012">
        <ele>1863.65</ele>
        <time>2012-08-03T10:08:19Z</time>
      </trkpt>
      <trkpt lat="46.47918" lon="9.91989">
        <ele>1862.69</ele>
        <time>2012-08-03T10:08:20Z</time>
      </trkpt>
      <trkpt lat="46.47932" lon="9.91964">
        <ele>1862.69</ele>
        <time>2012-08-03T10:08:21Z</time>
      </trkpt>
      <trkpt lat="46.47945" lon="9.91938">
        <ele>1861.73</ele>
        <time>2012-08-03T10:08:22Z</time>
      </trkpt>
      <trkpt lat="46.47958" lon="9.9191">
        <ele>1861.73</ele>
        <time>2012-08-03T10:08:23Z</time>
      </trkpt>
      <trkpt lat="46.48029" lon="9.91751">
        <ele>1858.37</ele>
        <time>2012-08-03T10:08:29Z</time>
      </trkpt>
      <trkpt lat="46.48068" lon="9.91665">
        <ele>1854.52</ele>
        <time>2012-08-03T10:08:33Z</time>
      </trkpt>
      <trkpt lat="46.48076" lon="9.91646">
        <ele>1854.52</ele>
        <time>2012-08-03T10:08:34Z</time>
      </trkpt>
      <trkpt lat="46.48188" lon="9.91459">
        <ele>1853.08</ele>
        <time>2012-08-03T10:08:45Z</time>
      </trkpt>
      <trkpt lat="46.48344" lon="9.9123">
        <ele>1849.71</ele>
        <time>2012-08-03T10:08:59Z</time>
      </trkpt>
      <trkpt lat="46.48486" lon="9.91015">
        <ele>1848.75</ele>
        <time>2012-08-03T10:09:12Z</time>
      </trkpt>
      <trkpt lat="46.48597" lon="9.90801">
        <ele>1845.39</ele>
        <time>2012-08-03T10:09:24Z</time>
      </trkpt>
      <trkpt lat="46.48615" lon="9.90766">
        <ele>1844.43</ele>
        <time>2012-08-03T10:09:26Z</time>
      </trkpt>
      <trkpt lat="46.4867" lon="9.90657">
        <ele>1840.1</ele>
        <time>2012-08-03T10:09:32Z</time>
      </trkpt>
      <trkpt lat="46.48679" lon="9.90639">
        <ele>1840.58</ele>
        <time>2012-08-03T10:09:33Z</time>
      </trkpt>
      <trkpt lat="46.48755" lon="9.90497">
        <ele>1836.74</ele>
        <time>2012-08-03T10:09:41Z</time>
      </trkpt>
      <trkpt lat="46.48864" lon="9.90382">
        <ele>1835.29</ele>
        <time>2012-08-03T10:09:50Z</time>
      </trkpt>
      <trkpt lat="46.48877" lon="9.90371">
        <ele>1829.05</ele>
        <time>2012-08-03T10:09:51Z</time>
      </trkpt>
      <trkpt lat="46.48917" lon="9.90337">
        <ele>1825.68</ele>
        <time>2012-08-03T10:09:54Z</time>
      </trkpt>
      <trkpt lat="46.48955" lon="9.90299">
        <ele>1822.32</ele>
        <time>2012-08-03T10:09:57Z</time>
      </trkpt>
      <trkpt lat="46.48985" lon="9.90264">
        <ele>1817.51</ele>
        <time>2012-08-03T10:10:00Z</time>
      </trkpt>
      <trkpt lat="46.49005" lon="9.90239">
        <ele>1813.66</ele>
        <time>2012-08-03T10:10:03Z</time>
      </trkpt>
      <trkpt lat="46.4901" lon="9.90231">
        <ele>1812.7</ele>
        <time>2012-08-03T10:10:04Z</time>
      </trkpt>
      <trkpt lat="46.49015" lon="9.90223">
        <ele>1811.74</ele>
        <time>2012-08-03T10:10:05Z</time>
      </trkpt>
      <trkpt lat="46.49019" lon="9.90214">
        <ele>1811.74</ele>
        <time>2012-08-03T10:10:06Z</time>
      </trkpt>
      <trkpt lat="46.49063" lon="9.90126">
        <ele>1809.82</ele>
        <time>2012-08-03T10:10:13Z</time>
      </trkpt>
      <trkpt lat="46.49109" lon="9.89994">
        <ele>1806.94</ele>
        <time>2012-08-03T10:10:19Z</time>
      </trkpt>
      <trkpt lat="46.49122" lon="9.89948">
        <ele>1805.01</ele>
        <time>2012-08-03T10:10:21Z</time>
      </trkpt>
      <trkpt lat="46.49137" lon="9.89883">
        <ele>1803.57</ele>
        <time>2012-08-03T10:10:24Z</time>
      </trkpt>
      <trkpt lat="46.49153" lon="9.89822">
        <ele>1800.21</ele>
        <time>2012-08-03T10:10:27Z</time>
      </trkpt>
      <trkpt lat="46.4916" lon="9.89802">
        <ele>1800.21</ele>
        <time>2012-08-03T10:10:28Z</time>
      </trkpt>
      <trkpt lat="46.49167" lon="9.89784">
        <ele>1798.76</ele>
        <time>2012-08-03T10:10:29Z</time>
      </trkpt>
      <trkpt lat="46.49175" lon="9.89767">
        <ele>1798.76</ele>
        <time>2012-08-03T10:10:30Z</time>
      </trkpt>
      <trkpt lat="46.49192" lon="9.89733">
        <ele>1797.32</ele>
        <time>2012-08-03T10:10:32Z</time>
      </trkpt>
      <trkpt lat="46.49228" lon="9.89674">
        <ele>1795.4</ele>
        <time>2012-08-03T10:10:36Z</time>
      </trkpt>
      <trkpt lat="46.49329" lon="9.89561">
        <ele>1792.03</ele>
        <time>2012-08-03T10:10:44Z</time>
      </trkpt>
      <trkpt lat="46.49404" lon="9.89485">
        <ele>1790.59</ele>
        <time>2012-08-03T10:10:49Z</time>
      </trkpt>
      <trkpt lat="46.49434" lon="9.89453">
        <ele>1789.15</ele>
        <time>2012-08-03T10:10:51Z</time>
      </trkpt>
      <trkpt lat="46.49572" lon="9.89312">
        <ele>1786.27</ele>
        <time>2012-08-03T10:11:00Z</time>
      </trkpt>
      <trkpt lat="46.498" lon="9.89084">
        <ele>1782.9</ele>
        <time>2012-08-03T10:11:14Z</time>
      </trkpt>
      <trkpt lat="46.49945" lon="9.88969">
        <ele>1779.06</ele>
        <time>2012-08-03T10:11:22Z</time>
      </trkpt>
      <trkpt lat="46.50176" lon="9.88835">
        <ele>1780.02</ele>
        <time>2012-08-03T10:11:35Z</time>
      </trkpt>
      <trkpt lat="46.50379" lon="9.88712">
        <ele>1780.98</ele>
        <time>2012-08-03T10:11:48Z</time>
      </trkpt>
      <trkpt lat="46.50526" lon="9.88639">
        <ele>1778.58</ele>
        <time>2012-08-03T10:11:57Z</time>
      </trkpt>
      <trkpt lat="46.50571" lon="9.8862">
        <ele>1775.21</ele>
        <time>2012-08-03T10:12:00Z</time>
      </trkpt>
      <trkpt lat="46.50585" lon="9.8861">
        <ele>1775.21</ele>
        <time>2012-08-03T10:12:01Z</time>
      </trkpt>
      <trkpt lat="46.506" lon="9.88598">
        <ele>1775.21</ele>
        <time>2012-08-03T10:12:02Z</time>
      </trkpt>
      <trkpt lat="46.50614" lon="9.88584">
        <ele>1775.21</ele>
        <time>2012-08-03T10:12:03Z</time>
      </trkpt>
      <trkpt lat="46.50674" lon="9.88516">
        <ele>1773.29</ele>
        <time>2012-08-03T10:12:07Z</time>
      </trkpt>
      <trkpt lat="46.50762" lon="9.88402">
        <ele>1769.92</ele>
        <time>2012-08-03T10:12:13Z</time>
      </trkpt>
      <trkpt lat="46.50817" lon="9.88303">
        <ele>1766.56</ele>
        <time>2012-08-03T10:12:18Z</time>
      </trkpt>
      <trkpt lat="46.50876" lon="9.8818">
        <ele>1764.64</ele>
        <time>2012-08-03T10:12:24Z</time>
      </trkpt>
      <trkpt lat="46.50935" lon="9.88084">
        <ele>1760.79</ele>
        <time>2012-08-03T10:12:29Z</time>
      </trkpt>
      <trkpt lat="46.51002" lon="9.88009">
        <ele>1756.95</ele>
        <time>2012-08-03T10:12:34Z</time>
      </trkpt>
      <trkpt lat="46.51051" lon="9.87967">
        <ele>1752.62</ele>
        <time>2012-08-03T10:12:38Z</time>
      </trkpt>
      <trkpt lat="46.51061" lon="9.87959">
        <ele>1752.62</ele>
        <time>2012-08-03T10:12:39Z</time>
      </trkpt>
      <trkpt lat="46.51121" lon="9.87913">
        <ele>1749.74</ele>
        <time>2012-08-03T10:12:47Z</time>
      </trkpt>
      <trkpt lat="46.51142" lon="9.87899">
        <ele>1750.22</ele>
        <time>2012-08-03T10:12:51Z</time>
      </trkpt>
      <trkpt lat="46.51146" lon="9.87895">
        <ele>1750.7</ele>
        <time>2012-08-03T10:12:52Z</time>
      </trkpt>
      <trkpt lat="46.51149" lon="9.87888">
        <ele>1750.22</ele>
        <time>2012-08-03T10:12:53Z</time>
      </trkpt>
      <trkpt lat="46.51152" lon="9.87882">
        <ele>1751.18</ele>
        <time>2012-08-03T10:12:54Z</time>
      </trkpt>
      <trkpt lat="46.51152" lon="9.87877">
        <ele>1751.18</ele>
        <time>2012-08-03T10:12:55Z</time>
      </trkpt>
      <trkpt lat="46.51153" lon="9.87872">
        <ele>1751.18</ele>
        <time>2012-08-03T10:12:56Z</time>
      </trkpt>
      <trkpt lat="46.51152" lon="9.87868">
        <ele>1750.7</ele>
        <time>2012-08-03T10:12:57Z</time>
      </trkpt>
      <trkpt lat="46.51151" lon="9.87844">
        <ele>1750.7</ele>
        <time>2012-08-03T10:13:00Z</time>
      </trkpt>
      <trkpt lat="46.51147" lon="9.87801">
        <ele>1752.14</ele>
        <time>2012-08-03T10:13:04Z</time>
      </trkpt>
      <trkpt lat="46.51145" lon="9.87751">
        <ele>1752.62</ele>
        <time>2012-08-03T10:13:08Z</time>
      </trkpt>
      <trkpt lat="46.5114" lon="9.87645">
        <ele>1751.18</ele>
        <time>2012-08-03T10:13:15Z</time>
      </trkpt>
      <trkpt lat="46.51144" lon="9.87626">
        <ele>1750.22</ele>
        <time>2012-08-03T10:13:16Z</time>
      </trkpt>
      <trkpt lat="46.51199" lon="9.87406">
        <ele>1747.81</ele>
        <time>2012-08-03T10:13:27Z</time>
      </trkpt>
      <trkpt lat="46.51201" lon="9.87253">
        <ele>1746.85</ele>
        <time>2012-08-03T10:13:34Z</time>
      </trkpt>
      <trkpt lat="46.51149" lon="9.87055">
        <ele>1745.41</ele>
        <time>2012-08-03T10:13:43Z</time>
      </trkpt>
      <trkpt lat="46.51131" lon="9.86989">
        <ele>1743.97</ele>
        <time>2012-08-03T10:13:46Z</time>
      </trkpt>
      <trkpt lat="46.51054" lon="9.86681">
        <ele>1744.93</ele>
        <time>2012-08-03T10:13:59Z</time>
      </trkpt>
      <trkpt lat="46.50971" lon="9.86297">
        <ele>1746.85</ele>
        <time>2012-08-03T10:14:15Z</time>
      </trkpt>
      <trkpt lat="46.50874" lon="9.86053">
        <ele>1745.41</ele>
        <time>2012-08-03T10:14:26Z</time>
      </trkpt>
      <trkpt lat="46.50743" lon="9.85863">
        <ele>1746.85</ele>
        <time>2012-08-03T10:14:36Z</time>
      </trkpt>
      <trkpt lat="46.50594" lon="9.8571">
        <ele>1747.81</ele>
        <time>2012-08-03T10:14:46Z</time>
      </trkpt>
      <trkpt lat="46.50489" lon="9.85609">
        <ele>1750.7</ele>
        <time>2012-08-03T10:14:53Z</time>
      </trkpt>
      <trkpt lat="46.50441" lon="9.85562">
        <ele>1752.14</ele>
        <time>2012-08-03T10:14:56Z</time>
      </trkpt>
      <trkpt lat="46.50298" lon="9.85422">
        <ele>1755.5</ele>
        <time>2012-08-03T10:15:05Z</time>
      </trkpt>
      <trkpt lat="46.50223" lon="9.85349">
        <ele>1759.35</ele>
        <time>2012-08-03T10:15:10Z</time>
      </trkpt>
      <trkpt lat="46.50193" lon="9.85321">
        <ele>1760.31</ele>
        <time>2012-08-03T10:15:12Z</time>
      </trkpt>
      <trkpt lat="46.50164" lon="9.85293">
        <ele>1761.27</ele>
        <time>2012-08-03T10:15:14Z</time>
      </trkpt>
      <trkpt lat="46.50127" lon="9.85255">
        <ele>1763.68</ele>
        <time>2012-08-03T10:15:17Z</time>
      </trkpt>
      <trkpt lat="46.50102" lon="9.85223">
        <ele>1765.6</ele>
        <time>2012-08-03T10:15:19Z</time>
      </trkpt>
      <trkpt lat="46.50091" lon="9.8521">
        <ele>1767.04</ele>
        <time>2012-08-03T10:15:20Z</time>
      </trkpt>
      <trkpt lat="46.50072" lon="9.85185">
        <ele>1768.48</ele>
        <time>2012-08-03T10:15:22Z</time>
      </trkpt>
      <trkpt lat="46.50056" lon="9.85169">
        <ele>1769.92</ele>
        <time>2012-08-03T10:15:23Z</time>
      </trkpt>
      <trkpt lat="46.50043" lon="9.85153">
        <ele>1769.92</ele>
        <time>2012-08-03T10:15:24Z</time>
      </trkpt>
      <trkpt lat="46.50012" lon="9.85103">
        <ele>1772.81</ele>
        <time>2012-08-03T10:15:27Z</time>
      </trkpt>
      <trkpt lat="46.49982" lon="9.85054">
        <ele>1776.17</ele>
        <time>2012-08-03T10:15:30Z</time>
      </trkpt>
      <trkpt lat="46.49973" lon="9.85038">
        <ele>1776.17</ele>
        <time>2012-08-03T10:15:31Z</time>
      </trkpt>
      <trkpt lat="46.49936" lon="9.84981">
        <ele>1779.54</ele>
        <time>2012-08-03T10:15:35Z</time>
      </trkpt>
      <trkpt lat="46.49883" lon="9.8491">
        <ele>1782.42</ele>
        <time>2012-08-03T10:15:40Z</time>
      </trkpt>
      <trkpt lat="46.49855" lon="9.8487">
        <ele>1785.31</ele>
        <time>2012-08-03T10:15:43Z</time>
      </trkpt>
      <trkpt lat="46.49816" lon="9.84806">
        <ele>1787.71</ele>
        <time>2012-08-03T10:15:48Z</time>
      </trkpt>
      <trkpt lat="46.49766" lon="9.84706">
        <ele>1790.59</ele>
        <time>2012-08-03T10:15:55Z</time>
      </trkpt>
      <trkpt lat="46.4973" lon="9.84605">
        <ele>1788.67</ele>
        <time>2012-08-03T10:16:03Z</time>
      </trkpt>
      <trkpt lat="46.4971" lon="9.84526">
        <ele>1792.03</ele>
        <time>2012-08-03T10:16:10Z</time>
      </trkpt>
      <trkpt lat="46.49687" lon="9.84411">
        <ele>1790.59</ele>
        <time>2012-08-03T10:16:20Z</time>
      </trkpt>
      <trkpt lat="46.49688" lon="9.84403">
        <ele>1790.59</ele>
        <time>2012-08-03T10:16:21Z</time>
      </trkpt>
      <trkpt lat="46.49691" lon="9.84396">
        <ele>1790.59</ele>
        <time>2012-08-03T10:16:22Z</time>
      </trkpt>
      <trkpt lat="46.49696" lon="9.8439">
        <ele>1790.59</ele>
        <time>2012-08-03T10:16:23Z</time>
      </trkpt>
      <trkpt lat="46.49701" lon="9.84386">
        <ele>1790.59</ele>
        <time>2012-08-03T10:16:24Z</time>
      </trkpt>
      <trkpt lat="46.49709" lon="9.84385">
        <ele>1790.59</ele>
        <time>2012-08-03T10:16:25Z</time>
      </trkpt>
      <trkpt lat="46.49716" lon="9.84388">
        <ele>1790.59</ele>
        <time>2012-08-03T10:16:26Z</time>
      </trkpt>
      <trkpt lat="46.49722" lon="9.84392">
        <ele>1790.59</ele>
        <time>2012-08-03T10:16:27Z</time>
      </trkpt>
      <trkpt lat="46.49729" lon="9.84399">
        <ele>1788.67</ele>
        <time>2012-08-03T10:16:28Z</time>
      </trkpt>
      <trkpt lat="46.49735" lon="9.84408">
        <ele>1792.03</ele>
        <time>2012-08-03T10:16:29Z</time>
      </trkpt>
      <trkpt lat="46.49741" lon="9.84419">
        <ele>1792.52</ele>
        <time>2012-08-03T10:16:30Z</time>
      </trkpt>
      <trkpt lat="46.49758" lon="9.8445">
        <ele>1793.96</ele>
        <time>2012-08-03T10:16:33Z</time>
      </trkpt>
      <trkpt lat="46.4981" lon="9.84543">
        <ele>1796.84</ele>
        <time>2012-08-03T10:16:41Z</time>
      </trkpt>
      <trkpt lat="46.49824" lon="9.84568">
        <ele>1800.21</ele>
        <time>2012-08-03T10:16:43Z</time>
      </trkpt>
      <trkpt lat="46.49831" lon="9.8458">
        <ele>1798.76</ele>
        <time>2012-08-03T10:16:44Z</time>
      </trkpt>
      <trkpt lat="46.4985" lon="9.84617">
        <ele>1801.17</ele>
        <time>2012-08-03T10:16:47Z</time>
      </trkpt>
      <trkpt lat="46.49867" lon="9.84649">
        <ele>1802.13</ele>
        <time>2012-08-03T10:16:50Z</time>
      </trkpt>
      <trkpt lat="46.49874" lon="9.84655">
        <ele>1802.61</ele>
        <time>2012-08-03T10:16:51Z</time>
      </trkpt>
      <trkpt lat="46.49881" lon="9.84658">
        <ele>1802.13</ele>
        <time>2012-08-03T10:16:52Z</time>
      </trkpt>
      <trkpt lat="46.49888" lon="9.84656">
        <ele>1803.57</ele>
        <time>2012-08-03T10:16:53Z</time>
      </trkpt>
      <trkpt lat="46.49897" lon="9.84649">
        <ele>1803.57</ele>
        <time>2012-08-03T10:16:54Z</time>
      </trkpt>
      <trkpt lat="46.49901" lon="9.84643">
        <ele>1803.57</ele>
        <time>2012-08-03T10:16:55Z</time>
      </trkpt>
      <trkpt lat="46.49907" lon="9.84633">
        <ele>1804.53</ele>
        <time>2012-08-03T10:16:56Z</time>
      </trkpt>
      <trkpt lat="46.4991" lon="9.84622">
        <ele>1804.05</ele>
        <time>2012-08-03T10:16:57Z</time>
      </trkpt>
      <trkpt lat="46.49911" lon="9.84611">
        <ele>1806.45</ele>
        <time>2012-08-03T10:16:58Z</time>
      </trkpt>
      <trkpt lat="46.49911" lon="9.84599">
        <ele>1806.94</ele>
        <time>2012-08-03T10:16:59Z</time>
      </trkpt>
      <trkpt lat="46.49905" lon="9.84573">
        <ele>1807.9</ele>
        <time>2012-08-03T10:17:01Z</time>
      </trkpt>
      <trkpt lat="46.49902" lon="9.84562">
        <ele>1805.97</ele>
        <time>2012-08-03T10:17:02Z</time>
      </trkpt>
      <trkpt lat="46.49893" lon="9.84533">
        <ele>1809.34</ele>
        <time>2012-08-03T10:17:05Z</time>
      </trkpt>
      <trkpt lat="46.49875" lon="9.84464">
        <ele>1813.18</ele>
        <time>2012-08-03T10:17:11Z</time>
      </trkpt>
      <trkpt lat="46.49864" lon="9.84416">
        <ele>1817.03</ele>
        <time>2012-08-03T10:17:14Z</time>
      </trkpt>
      <trkpt lat="46.49836" lon="9.84339">
        <ele>1812.22</ele>
        <time>2012-08-03T10:17:19Z</time>
      </trkpt>
      <trkpt lat="46.49831" lon="9.84325">
        <ele>1821.35</ele>
        <time>2012-08-03T10:17:20Z</time>
      </trkpt>
      <trkpt lat="46.49804" lon="9.84224">
        <ele>1824.72</ele>
        <time>2012-08-03T10:17:27Z</time>
      </trkpt>
      <trkpt lat="46.49783" lon="9.8413">
        <ele>1828.56</ele>
        <time>2012-08-03T10:17:35Z</time>
      </trkpt>
      <trkpt lat="46.49766" lon="9.8406">
        <ele>1830.97</ele>
        <time>2012-08-03T10:17:42Z</time>
      </trkpt>
      <trkpt lat="46.49737" lon="9.83954">
        <ele>1834.33</ele>
        <time>2012-08-03T10:17:53Z</time>
      </trkpt>
      <trkpt lat="46.49739" lon="9.83944">
        <ele>1833.85</ele>
        <time>2012-08-03T10:18:00Z</time>
      </trkpt>
      <trkpt lat="46.4974" lon="9.83938">
        <ele>1833.85</ele>
        <time>2012-08-03T10:18:13Z</time>
      </trkpt>
      <trkpt lat="46.49739" lon="9.83937">
        <ele>1832.89</ele>
        <time>2012-08-03T10:18:20Z</time>
      </trkpt>
      <trkpt lat="46.49738" lon="9.83936">
        <ele>1834.33</ele>
        <time>2012-08-03T10:18:22Z</time>
      </trkpt>
      <trkpt lat="46.49736" lon="9.83936">
        <ele>1833.37</ele>
        <time>2012-08-03T10:18:46Z</time>
      </trkpt>
      <trkpt lat="46.49735" lon="9.83934">
        <ele>1834.33</ele>
        <time>2012-08-03T10:19:06Z</time>
      </trkpt>
      <trkpt lat="46.49729" lon="9.83923">
        <ele>1834.33</ele>
        <time>2012-08-03T10:19:14Z</time>
      </trkpt>
      <trkpt lat="46.49727" lon="9.83917">
        <ele>1832.89</ele>
        <time>2012-08-03T10:19:15Z</time>
      </trkpt>
      <trkpt lat="46.49723" lon="9.83892">
        <ele>1834.81</ele>
        <time>2012-08-03T10:19:19Z</time>
      </trkpt>
      <trkpt lat="46.49721" lon="9.8387">
        <ele>1834.81</ele>
        <time>2012-08-03T10:19:22Z</time>
      </trkpt>
      <trkpt lat="46.49719" lon="9.83854">
        <ele>1834.81</ele>
        <time>2012-08-03T10:19:24Z</time>
      </trkpt>
      <trkpt lat="46.49717" lon="9.83846">
        <ele>1834.81</ele>
        <time>2012-08-03T10:19:25Z</time>
      </trkpt>
      <trkpt lat="46.49713" lon="9.83809">
        <ele>1835.77</ele>
        <time>2012-08-03T10:19:34Z</time>
      </trkpt>
      <trkpt lat="46.49713" lon="9.83806">
        <ele>1836.26</ele>
        <time>2012-08-03T10:19:35Z</time>
      </trkpt>
      <trkpt lat="46.49712" lon="9.83804">
        <ele>1836.26</ele>
        <time>2012-08-03T10:19:38Z</time>
      </trkpt>
      <trkpt lat="46.49712" lon="9.83801">
        <ele>1836.26</ele>
        <time>2012-08-03T10:19:39Z</time>
      </trkpt>
      <trkpt lat="46.49714" lon="9.83798">
        <ele>1836.74</ele>
        <time>2012-08-03T10:19:40Z</time>
      </trkpt>
      <trkpt lat="46.49717" lon="9.83796">
        <ele>1836.74</ele>
        <time>2012-08-03T10:19:41Z</time>
      </trkpt>
      <trkpt lat="46.49721" lon="9.83794">
        <ele>1837.22</ele>
        <time>2012-08-03T10:19:42Z</time>
      </trkpt>
      <trkpt lat="46.49724" lon="9.83791">
        <ele>1837.22</ele>
        <time>2012-08-03T10:19:43Z</time>
      </trkpt>
      <trkpt lat="46.49726" lon="9.83786">
        <ele>1837.7</ele>
        <time>2012-08-03T10:19:44Z</time>
      </trkpt>
      <trkpt lat="46.49726" lon="9.83781">
        <ele>1837.7</ele>
        <time>2012-08-03T10:19:45Z</time>
      </trkpt>
      <trkpt lat="46.49726" lon="9.83775">
        <ele>1837.22</ele>
        <time>2012-08-03T10:19:46Z</time>
      </trkpt>
      <trkpt lat="46.49721" lon="9.83771">
        <ele>1837.22</ele>
        <time>2012-08-03T10:19:47Z</time>
      </trkpt>
      <trkpt lat="46.49715" lon="9.8377">
        <ele>1836.74</ele>
        <time>2012-08-03T10:19:48Z</time>
      </trkpt>
      <trkpt lat="46.4971" lon="9.83773">
        <ele>1836.74</ele>
        <time>2012-08-03T10:19:49Z</time>
      </trkpt>
      <trkpt lat="46.49707" lon="9.83779">
        <ele>1836.74</ele>
        <time>2012-08-03T10:19:50Z</time>
      </trkpt>
      <trkpt lat="46.49705" lon="9.83787">
        <ele>1837.22</ele>
        <time>2012-08-03T10:19:51Z</time>
      </trkpt>
      <trkpt lat="46.49703" lon="9.83796">
        <ele>1837.7</ele>
        <time>2012-08-03T10:19:52Z</time>
      </trkpt>
      <trkpt lat="46.49703" lon="9.83804">
        <ele>1837.22</ele>
        <time>2012-08-03T10:19:53Z</time>
      </trkpt>
      <trkpt lat="46.49703" lon="9.83811">
        <ele>1837.22</ele>
        <time>2012-08-03T10:19:54Z</time>
      </trkpt>
      <trkpt lat="46.49704" lon="9.83818">
        <ele>1836.74</ele>
        <time>2012-08-03T10:19:55Z</time>
      </trkpt>
      <trkpt lat="46.49704" lon="9.83825">
        <ele>1836.74</ele>
        <time>2012-08-03T10:19:56Z</time>
      </trkpt>
      <trkpt lat="46.49706" lon="9.83844">
        <ele>1835.29</ele>
        <time>2012-08-03T10:20:02Z</time>
      </trkpt>
      <trkpt lat="46.49705" lon="9.83846">
        <ele>1834.81</ele>
        <time>2012-08-03T10:20:03Z</time>
      </trkpt>
      <trkpt lat="46.49704" lon="9.8385">
        <ele>1835.29</ele>
        <time>2012-08-03T10:20:04Z</time>
      </trkpt>
      <trkpt lat="46.49703" lon="9.83856">
        <ele>1835.29</ele>
        <time>2012-08-03T10:20:05Z</time>
      </trkpt>
      <trkpt lat="46.49703" lon="9.83863">
        <ele>1835.29</ele>
        <time>2012-08-03T10:20:06Z</time>
      </trkpt>
      <trkpt lat="46.49701" lon="9.8387">
        <ele>1835.29</ele>
        <time>2012-08-03T10:20:07Z</time>
      </trkpt>
      <trkpt lat="46.497" lon="9.83878">
        <ele>1837.22</ele>
        <time>2012-08-03T10:20:08Z</time>
      </trkpt>
      <trkpt lat="46.49701" lon="9.83886">
        <ele>1835.29</ele>
        <time>2012-08-03T10:20:09Z</time>
      </trkpt>
      <trkpt lat="46.49701" lon="9.83894">
        <ele>1836.26</ele>
        <time>2012-08-03T10:20:10Z</time>
      </trkpt>
      <trkpt lat="46.49703" lon="9.83909">
        <ele>1834.81</ele>
        <time>2012-08-03T10:20:12Z</time>
      </trkpt>
      <trkpt lat="46.49705" lon="9.83917">
        <ele>1834.81</ele>
        <time>2012-08-03T10:20:13Z</time>
      </trkpt>
      <trkpt lat="46.49716" lon="9.83953">
        <ele>1831.93</ele>
        <time>2012-08-03T10:20:18Z</time>
      </trkpt>
      <trkpt lat="46.49726" lon="9.83984">
        <ele>1832.89</ele>
        <time>2012-08-03T10:20:23Z</time>
      </trkpt>
      <trkpt lat="46.49728" lon="9.8399">
        <ele>1832.41</ele>
        <time>2012-08-03T10:20:24Z</time>
      </trkpt>
      <trkpt lat="46.49736" lon="9.84012">
        <ele>1831.93</ele>
        <time>2012-08-03T10:20:27Z</time>
      </trkpt>
      <trkpt lat="46.49741" lon="9.8402">
        <ele>1831.45</ele>
        <time>2012-08-03T10:20:28Z</time>
      </trkpt>
      <trkpt lat="46.49777" lon="9.84129">
        <ele>1829.05</ele>
        <time>2012-08-03T10:20:41Z</time>
      </trkpt>
      <trkpt lat="46.49783" lon="9.8415">
        <ele>1827.6</ele>
        <time>2012-08-03T10:20:43Z</time>
      </trkpt>
      <trkpt lat="46.498" lon="9.84221">
        <ele>1824.72</ele>
        <time>2012-08-03T10:20:49Z</time>
      </trkpt>
      <trkpt lat="46.49818" lon="9.84298">
        <ele>1821.35</ele>
        <time>2012-08-03T10:20:55Z</time>
      </trkpt>
      <trkpt lat="46.49822" lon="9.8431">
        <ele>1821.35</ele>
        <time>2012-08-03T10:20:56Z</time>
      </trkpt>
      <trkpt lat="46.49838" lon="9.84379">
        <ele>1817.99</ele>
        <time>2012-08-03T10:21:01Z</time>
      </trkpt>
      <trkpt lat="46.49851" lon="9.84434">
        <ele>1814.63</ele>
        <time>2012-08-03T10:21:05Z</time>
      </trkpt>
      <trkpt lat="46.49866" lon="9.84489">
        <ele>1811.74</ele>
        <time>2012-08-03T10:21:09Z</time>
      </trkpt>
      <trkpt lat="46.49869" lon="9.84502">
        <ele>1810.78</ele>
        <time>2012-08-03T10:21:10Z</time>
      </trkpt>
      <trkpt lat="46.49887" lon="9.84574">
        <ele>1807.42</ele>
        <time>2012-08-03T10:21:15Z</time>
      </trkpt>
      <trkpt lat="46.49891" lon="9.84588">
        <ele>1807.9</ele>
        <time>2012-08-03T10:21:16Z</time>
      </trkpt>
      <trkpt lat="46.49903" lon="9.84639">
        <ele>1804.05</ele>
        <time>2012-08-03T10:21:20Z</time>
      </trkpt>
      <trkpt lat="46.49902" lon="9.84648">
        <ele>1803.09</ele>
        <time>2012-08-03T10:21:21Z</time>
      </trkpt>
      <trkpt lat="46.49899" lon="9.84655">
        <ele>1803.09</ele>
        <time>2012-08-03T10:21:22Z</time>
      </trkpt>
      <trkpt lat="46.49895" lon="9.84658">
        <ele>1802.61</ele>
        <time>2012-08-03T10:21:23Z</time>
      </trkpt>
      <trkpt lat="46.49888" lon="9.84655">
        <ele>1802.61</ele>
        <time>2012-08-03T10:21:24Z</time>
      </trkpt>
      <trkpt lat="46.4988" lon="9.84647">
        <ele>1802.13</ele>
        <time>2012-08-03T10:21:25Z</time>
      </trkpt>
      <trkpt lat="46.49874" lon="9.84636">
        <ele>1801.17</ele>
        <time>2012-08-03T10:21:26Z</time>
      </trkpt>
      <trkpt lat="46.49868" lon="9.84626">
        <ele>1800.69</ele>
        <time>2012-08-03T10:21:27Z</time>
      </trkpt>
      <trkpt lat="46.49863" lon="9.84617">
        <ele>1799.24</ele>
        <time>2012-08-03T10:21:28Z</time>
      </trkpt>
      <trkpt lat="46.4986" lon="9.84611">
        <ele>1798.76</ele>
        <time>2012-08-03T10:21:29Z</time>
      </trkpt>
      <trkpt lat="46.49857" lon="9.84607">
        <ele>1798.76</ele>
        <time>2012-08-03T10:21:30Z</time>
      </trkpt>
      <trkpt lat="46.49856" lon="9.84604">
        <ele>1799.24</ele>
        <time>2012-08-03T10:21:38Z</time>
      </trkpt>
      <trkpt lat="46.49856" lon="9.84603">
        <ele>1791.07</ele>
        <time>2012-08-03T10:21:46Z</time>
      </trkpt>
      <trkpt lat="46.49856" lon="9.84603">
        <ele>1802.13</ele>
        <time>2012-08-03T10:21:47Z</time>
      </trkpt>
      <trkpt lat="46.49856" lon="9.84603">
        <ele>1798.28</ele>
        <time>2012-08-03T10:21:48Z</time>
      </trkpt>
      <trkpt lat="46.49856" lon="9.84604">
        <ele>1797.32</ele>
        <time>2012-08-03T10:22:01Z</time>
      </trkpt>
      <trkpt lat="46.49854" lon="9.84602">
        <ele>1797.8</ele>
        <time>2012-08-03T10:22:30Z</time>
      </trkpt>
      <trkpt lat="46.49854" lon="9.84603">
        <ele>1797.8</ele>
        <time>2012-08-03T10:22:56Z</time>
      </trkpt>
      <trkpt lat="46.49854" lon="9.84603">
        <ele>1793.48</ele>
        <time>2012-08-03T10:22:59Z</time>
      </trkpt>
      <trkpt lat="46.49854" lon="9.84603">
        <ele>1797.8</ele>
        <time>2012-08-03T10:23:00Z</time>
      </trkpt>
      <trkpt lat="46.49854" lon="9.84603">
        <ele>1794.92</ele>
        <time>2012-08-03T10:23:01Z</time>
      </trkpt>
      <trkpt lat="46.49854" lon="9.84603">
        <ele>1797.8</ele>
        <time>2012-08-03T10:23:02Z</time>
      </trkpt>
      <trkpt lat="46.49854" lon="9.84603">
        <ele>1796.84</ele>
        <time>2012-08-03T10:23:33Z</time>
      </trkpt>
      <trkpt lat="46.49853" lon="9.84601">
        <ele>1797.32</ele>
        <time>2012-08-03T10:23:44Z</time>
      </trkpt>
      <trkpt lat="46.49845" lon="9.8459">
        <ele>1796.84</ele>
        <time>2012-08-03T10:23:46Z</time>
      </trkpt>
      <trkpt lat="46.49841" lon="9.84583">
        <ele>1796.84</ele>
        <time>2012-08-03T10:23:47Z</time>
      </trkpt>
      <trkpt lat="46.49836" lon="9.84574">
        <ele>1796.84</ele>
        <time>2012-08-03T10:23:48Z</time>
      </trkpt>
      <trkpt lat="46.49831" lon="9.84565">
        <ele>1796.36</ele>
        <time>2012-08-03T10:23:49Z</time>
      </trkpt>
      <trkpt lat="46.49825" lon="9.84555">
        <ele>1795.88</ele>
        <time>2012-08-03T10:23:50Z</time>
      </trkpt>
      <trkpt lat="46.49788" lon="9.8449">
        <ele>1793</ele>
        <time>2012-08-03T10:23:56Z</time>
      </trkpt>
      <trkpt lat="46.49782" lon="9.8448">
        <ele>1792.52</ele>
        <time>2012-08-03T10:23:57Z</time>
      </trkpt>
      <trkpt lat="46.49728" lon="9.84388">
        <ele>1790.11</ele>
        <time>2012-08-03T10:24:05Z</time>
      </trkpt>
      <trkpt lat="46.4972" lon="9.84381">
        <ele>1789.15</ele>
        <time>2012-08-03T10:24:06Z</time>
      </trkpt>
      <trkpt lat="46.49712" lon="9.84377">
        <ele>1789.15</ele>
        <time>2012-08-03T10:24:07Z</time>
      </trkpt>
      <trkpt lat="46.49705" lon="9.84376">
        <ele>1788.67</ele>
        <time>2012-08-03T10:24:08Z</time>
      </trkpt>
      <trkpt lat="46.49697" lon="9.84375">
        <ele>1788.67</ele>
        <time>2012-08-03T10:24:09Z</time>
      </trkpt>
      <trkpt lat="46.4969" lon="9.84375">
        <ele>1788.67</ele>
        <time>2012-08-03T10:24:10Z</time>
      </trkpt>
      <trkpt lat="46.49683" lon="9.84373">
        <ele>1788.67</ele>
        <time>2012-08-03T10:24:11Z</time>
      </trkpt>
      <trkpt lat="46.49677" lon="9.84372">
        <ele>1788.19</ele>
        <time>2012-08-03T10:24:12Z</time>
      </trkpt>
      <trkpt lat="46.49672" lon="9.84375">
        <ele>1788.19</ele>
        <time>2012-08-03T10:24:13Z</time>
      </trkpt>
      <trkpt lat="46.49668" lon="9.8438">
        <ele>1787.71</ele>
        <time>2012-08-03T10:24:14Z</time>
      </trkpt>
      <trkpt lat="46.49665" lon="9.84388">
        <ele>1787.71</ele>
        <time>2012-08-03T10:24:15Z</time>
      </trkpt>
      <trkpt lat="46.49665" lon="9.84396">
        <ele>1787.71</ele>
        <time>2012-08-03T10:24:16Z</time>
      </trkpt>
      <trkpt lat="46.49667" lon="9.84405">
        <ele>1788.19</ele>
        <time>2012-08-03T10:24:17Z</time>
      </trkpt>
      <trkpt lat="46.49671" lon="9.84415">
        <ele>1788.67</ele>
        <time>2012-08-03T10:24:18Z</time>
      </trkpt>
      <trkpt lat="46.49676" lon="9.84427">
        <ele>1788.67</ele>
        <time>2012-08-03T10:24:19Z</time>
      </trkpt>
      <trkpt lat="46.49715" lon="9.8457">
        <ele>1789.63</ele>
        <time>2012-08-03T10:24:28Z</time>
      </trkpt>
      <trkpt lat="46.49728" lon="9.84616">
        <ele>1787.23</ele>
        <time>2012-08-03T10:24:34Z</time>
      </trkpt>
      <trkpt lat="46.49729" lon="9.84619">
        <ele>1787.23</ele>
        <time>2012-08-03T10:24:35Z</time>
      </trkpt>
      <trkpt lat="46.49731" lon="9.84619">
        <ele>1787.23</ele>
        <time>2012-08-03T10:24:36Z</time>
      </trkpt>
      <trkpt lat="46.49734" lon="9.84618">
        <ele>1787.23</ele>
        <time>2012-08-03T10:24:37Z</time>
      </trkpt>
      <trkpt lat="46.49736" lon="9.84615">
        <ele>1787.71</ele>
        <time>2012-08-03T10:24:38Z</time>
      </trkpt>
      <trkpt lat="46.49739" lon="9.84612">
        <ele>1787.23</ele>
        <time>2012-08-03T10:24:39Z</time>
      </trkpt>
      <trkpt lat="46.4974" lon="9.84608">
        <ele>1787.23</ele>
        <time>2012-08-03T10:24:40Z</time>
      </trkpt>
      <trkpt lat="46.49741" lon="9.84603">
        <ele>1787.23</ele>
        <time>2012-08-03T10:24:41Z</time>
      </trkpt>
      <trkpt lat="46.49742" lon="9.846">
        <ele>1786.75</ele>
        <time>2012-08-03T10:24:48Z</time>
      </trkpt>
      <trkpt lat="46.49742" lon="9.84594">
        <ele>1803.09</ele>
        <time>2012-08-03T10:27:06Z</time>
      </trkpt>
      <trkpt lat="46.49742" lon="9.84595">
        <ele>1801.65</ele>
        <time>2012-08-03T10:27:07Z</time>
      </trkpt>
      <trkpt lat="46.49739" lon="9.84598">
        <ele>1798.76</ele>
        <time>2012-08-03T10:27:25Z</time>
      </trkpt>
      <trkpt lat="46.49739" lon="9.84598">
        <ele>1797.32</ele>
        <time>2012-08-03T10:27:27Z</time>
      </trkpt>
      <trkpt lat="46.49739" lon="9.84598">
        <ele>1793.96</ele>
        <time>2012-08-03T10:27:31Z</time>
      </trkpt>
      <trkpt lat="46.49739" lon="9.84598">
        <ele>1793.48</ele>
        <time>2012-08-03T10:27:32Z</time>
      </trkpt>
      <trkpt lat="46.49739" lon="9.84599">
        <ele>1790.11</ele>
        <time>2012-08-03T10:27:37Z</time>
      </trkpt>
      <trkpt lat="46.49738" lon="9.84597">
        <ele>1787.71</ele>
        <time>2012-08-03T10:27:42Z</time>
      </trkpt>
      <trkpt lat="46.49738" lon="9.84596">
        <ele>1786.27</ele>
        <time>2012-08-03T10:27:45Z</time>
      </trkpt>
      <trkpt lat="46.49732" lon="9.84586">
        <ele>1785.31</ele>
        <time>2012-08-03T10:27:49Z</time>
      </trkpt>
      <trkpt lat="46.49718" lon="9.84553">
        <ele>1782.9</ele>
        <time>2012-08-03T10:27:57Z</time>
      </trkpt>
      <trkpt lat="46.49718" lon="9.84552">
        <ele>1780.5</ele>
        <time>2012-08-03T10:28:07Z</time>
      </trkpt>
      <trkpt lat="46.49714" lon="9.84553">
        <ele>1780.02</ele>
        <time>2012-08-03T10:28:10Z</time>
      </trkpt>
      <trkpt lat="46.49713" lon="9.84555">
        <ele>1780.02</ele>
        <time>2012-08-03T10:28:11Z</time>
      </trkpt>
      <trkpt lat="46.49715" lon="9.84568">
        <ele>1780.02</ele>
        <time>2012-08-03T10:28:13Z</time>
      </trkpt>
      <trkpt lat="46.49718" lon="9.84576">
        <ele>1780.02</ele>
        <time>2012-08-03T10:28:14Z</time>
      </trkpt>
      <trkpt lat="46.49746" lon="9.8467">
        <ele>1776.65</ele>
        <time>2012-08-03T10:28:27Z</time>
      </trkpt>
      <trkpt lat="46.49751" lon="9.84683">
        <ele>1775.69</ele>
        <time>2012-08-03T10:28:34Z</time>
      </trkpt>
      <trkpt lat="46.49751" lon="9.84683">
        <ele>1775.21</ele>
        <time>2012-08-03T10:29:10Z</time>
      </trkpt>
      <trkpt lat="46.49759" lon="9.847">
        <ele>1774.73</ele>
        <time>2012-08-03T10:29:13Z</time>
      </trkpt>
      <trkpt lat="46.49805" lon="9.84792">
        <ele>1775.21</ele>
        <time>2012-08-03T10:29:20Z</time>
      </trkpt>
      <trkpt lat="46.49866" lon="9.84891">
        <ele>1772.33</ele>
        <time>2012-08-03T10:29:26Z</time>
      </trkpt>
      <trkpt lat="46.49917" lon="9.84967">
        <ele>1768.48</ele>
        <time>2012-08-03T10:29:30Z</time>
      </trkpt>
      <trkpt lat="46.49955" lon="9.85025">
        <ele>1765.12</ele>
        <time>2012-08-03T10:29:33Z</time>
      </trkpt>
      <trkpt lat="46.49993" lon="9.85082">
        <ele>1761.75</ele>
        <time>2012-08-03T10:29:36Z</time>
      </trkpt>
      <trkpt lat="46.50043" lon="9.8516">
        <ele>1758.39</ele>
        <time>2012-08-03T10:29:40Z</time>
      </trkpt>
      <trkpt lat="46.50055" lon="9.85181">
        <ele>1757.91</ele>
        <time>2012-08-03T10:29:41Z</time>
      </trkpt>
      <trkpt lat="46.50069" lon="9.85201">
        <ele>1757.43</ele>
        <time>2012-08-03T10:29:42Z</time>
      </trkpt>
      <trkpt lat="46.50119" lon="9.85254">
        <ele>1754.06</ele>
        <time>2012-08-03T10:29:45Z</time>
      </trkpt>
      <trkpt lat="46.50152" lon="9.85287">
        <ele>1749.74</ele>
        <time>2012-08-03T10:29:47Z</time>
      </trkpt>
      <trkpt lat="46.50169" lon="9.85302">
        <ele>1748.29</ele>
        <time>2012-08-03T10:29:48Z</time>
      </trkpt>
      <trkpt lat="46.50222" lon="9.85351">
        <ele>1746.37</ele>
        <time>2012-08-03T10:29:51Z</time>
      </trkpt>
      <trkpt lat="46.50286" lon="9.85414">
        <ele>1743.01</ele>
        <time>2012-08-03T10:29:55Z</time>
      </trkpt>
      <trkpt lat="46.50362" lon="9.85485">
        <ele>1739.64</ele>
        <time>2012-08-03T10:29:59Z</time>
      </trkpt>
      <trkpt lat="46.5054" lon="9.8566">
        <ele>1736.28</ele>
        <time>2012-08-03T10:30:10Z</time>
      </trkpt>
      <trkpt lat="46.50571" lon="9.85689">
        <ele>1735.32</ele>
        <time>2012-08-03T10:30:12Z</time>
      </trkpt>
      <trkpt lat="46.50649" lon="9.85761">
        <ele>1733.39</ele>
        <time>2012-08-03T10:30:17Z</time>
      </trkpt>
      <trkpt lat="46.50841" lon="9.85992">
        <ele>1731.47</ele>
        <time>2012-08-03T10:30:30Z</time>
      </trkpt>
      <trkpt lat="46.50943" lon="9.86207">
        <ele>1732.91</ele>
        <time>2012-08-03T10:30:39Z</time>
      </trkpt>
      <trkpt lat="46.51013" lon="9.86483">
        <ele>1732.43</ele>
        <time>2012-08-03T10:30:49Z</time>
      </trkpt>
      <trkpt lat="46.51089" lon="9.8684">
        <ele>1729.55</ele>
        <time>2012-08-03T10:31:02Z</time>
      </trkpt>
      <trkpt lat="46.51177" lon="9.87164">
        <ele>1730.99</ele>
        <time>2012-08-03T10:31:15Z</time>
      </trkpt>
      <trkpt lat="46.512" lon="9.87263">
        <ele>1731.95</ele>
        <time>2012-08-03T10:31:19Z</time>
      </trkpt>
      <trkpt lat="46.51203" lon="9.87288">
        <ele>1731.95</ele>
        <time>2012-08-03T10:31:20Z</time>
      </trkpt>
      <trkpt lat="46.51204" lon="9.87314">
        <ele>1731.95</ele>
        <time>2012-08-03T10:31:21Z</time>
      </trkpt>
      <trkpt lat="46.51204" lon="9.8734">
        <ele>1732.43</ele>
        <time>2012-08-03T10:31:22Z</time>
      </trkpt>
      <trkpt lat="46.51202" lon="9.87365">
        <ele>1732.91</ele>
        <time>2012-08-03T10:31:23Z</time>
      </trkpt>
      <trkpt lat="46.51199" lon="9.8739">
        <ele>1732.91</ele>
        <time>2012-08-03T10:31:24Z</time>
      </trkpt>
      <trkpt lat="46.51195" lon="9.87414">
        <ele>1733.39</ele>
        <time>2012-08-03T10:31:25Z</time>
      </trkpt>
      <trkpt lat="46.5119" lon="9.87437">
        <ele>1732.91</ele>
        <time>2012-08-03T10:31:26Z</time>
      </trkpt>
      <trkpt lat="46.51153" lon="9.87586">
        <ele>1733.88</ele>
        <time>2012-08-03T10:31:34Z</time>
      </trkpt>
      <trkpt lat="46.51136" lon="9.8767">
        <ele>1734.84</ele>
        <time>2012-08-03T10:31:40Z</time>
      </trkpt>
      <trkpt lat="46.51136" lon="9.87685">
        <ele>1735.32</ele>
        <time>2012-08-03T10:31:41Z</time>
      </trkpt>
      <trkpt lat="46.51137" lon="9.877">
        <ele>1735.8</ele>
        <time>2012-08-03T10:31:42Z</time>
      </trkpt>
      <trkpt lat="46.51138" lon="9.87714">
        <ele>1735.8</ele>
        <time>2012-08-03T10:31:43Z</time>
      </trkpt>
      <trkpt lat="46.5114" lon="9.87727">
        <ele>1735.8</ele>
        <time>2012-08-03T10:31:44Z</time>
      </trkpt>
      <trkpt lat="46.51146" lon="9.87805">
        <ele>1735.32</ele>
        <time>2012-08-03T10:31:53Z</time>
      </trkpt>
      <trkpt lat="46.51145" lon="9.87811">
        <ele>1735.32</ele>
        <time>2012-08-03T10:31:54Z</time>
      </trkpt>
      <trkpt lat="46.51143" lon="9.87817">
        <ele>1735.32</ele>
        <time>2012-08-03T10:31:55Z</time>
      </trkpt>
      <trkpt lat="46.51141" lon="9.87822">
        <ele>1734.84</ele>
        <time>2012-08-03T10:31:56Z</time>
      </trkpt>
      <trkpt lat="46.51138" lon="9.87828">
        <ele>1735.32</ele>
        <time>2012-08-03T10:31:57Z</time>
      </trkpt>
      <trkpt lat="46.51129" lon="9.87851">
        <ele>1734.84</ele>
        <time>2012-08-03T10:32:00Z</time>
      </trkpt>
      <trkpt lat="46.51127" lon="9.8786">
        <ele>1734.84</ele>
        <time>2012-08-03T10:32:01Z</time>
      </trkpt>
      <trkpt lat="46.51127" lon="9.87869">
        <ele>1734.84</ele>
        <time>2012-08-03T10:32:02Z</time>
      </trkpt>
      <trkpt lat="46.51129" lon="9.87878">
        <ele>1734.84</ele>
        <time>2012-08-03T10:32:03Z</time>
      </trkpt>
      <trkpt lat="46.51132" lon="9.87886">
        <ele>1734.84</ele>
        <time>2012-08-03T10:32:04Z</time>
      </trkpt>
      <trkpt lat="46.51136" lon="9.87891">
        <ele>1734.84</ele>
        <time>2012-08-03T10:32:05Z</time>
      </trkpt>
      <trkpt lat="46.51141" lon="9.87893">
        <ele>1735.32</ele>
        <time>2012-08-03T10:32:06Z</time>
      </trkpt>
      <trkpt lat="46.51148" lon="9.87894">
        <ele>1735.8</ele>
        <time>2012-08-03T10:32:07Z</time>
      </trkpt>
      <trkpt lat="46.51155" lon="9.87892">
        <ele>1735.32</ele>
        <time>2012-08-03T10:32:08Z</time>
      </trkpt>
      <trkpt lat="46.51162" lon="9.87888">
        <ele>1735.8</ele>
        <time>2012-08-03T10:32:09Z</time>
      </trkpt>
      <trkpt lat="46.51171" lon="9.87881">
        <ele>1736.28</ele>
        <time>2012-08-03T10:32:10Z</time>
      </trkpt>
      <trkpt lat="46.51199" lon="9.87859">
        <ele>1734.84</ele>
        <time>2012-08-03T10:32:13Z</time>
      </trkpt>
      <trkpt lat="46.5121" lon="9.87853">
        <ele>1734.84</ele>
        <time>2012-08-03T10:32:14Z</time>
      </trkpt>
      <trkpt lat="46.51333" lon="9.87805">
        <ele>1734.36</ele>
        <time>2012-08-03T10:32:23Z</time>
      </trkpt>
      <trkpt lat="46.51602" lon="9.87703">
        <ele>1732.43</ele>
        <time>2012-08-03T10:32:39Z</time>
      </trkpt>
      <trkpt lat="46.5162" lon="9.87696">
        <ele>1731.95</ele>
        <time>2012-08-03T10:32:40Z</time>
      </trkpt>
      <trkpt lat="46.51904" lon="9.87589">
        <ele>1729.07</ele>
        <time>2012-08-03T10:32:56Z</time>
      </trkpt>
      <trkpt lat="46.52162" lon="9.87492">
        <ele>1725.7</ele>
        <time>2012-08-03T10:33:10Z</time>
      </trkpt>
      <trkpt lat="46.52292" lon="9.87442">
        <ele>1723.78</ele>
        <time>2012-08-03T10:33:17Z</time>
      </trkpt>
      <trkpt lat="46.52517" lon="9.87355">
        <ele>1721.86</ele>
        <time>2012-08-03T10:33:29Z</time>
      </trkpt>
      <trkpt lat="46.52769" lon="9.87258">
        <ele>1718.49</ele>
        <time>2012-08-03T10:33:43Z</time>
      </trkpt>
      <trkpt lat="46.52784" lon="9.87252">
        <ele>1718.49</ele>
        <time>2012-08-03T10:33:44Z</time>
      </trkpt>
      <trkpt lat="46.52895" lon="9.87208">
        <ele>1715.61</ele>
        <time>2012-08-03T10:33:53Z</time>
      </trkpt>
      <trkpt lat="46.5293" lon="9.87192">
        <ele>1714.65</ele>
        <time>2012-08-03T10:33:59Z</time>
      </trkpt>
      <trkpt lat="46.52939" lon="9.87194">
        <ele>1714.65</ele>
        <time>2012-08-03T10:34:02Z</time>
      </trkpt>
      <trkpt lat="46.52944" lon="9.87196">
        <ele>1714.65</ele>
        <time>2012-08-03T10:34:03Z</time>
      </trkpt>
      <trkpt lat="46.5295" lon="9.87197">
        <ele>1715.13</ele>
        <time>2012-08-03T10:34:04Z</time>
      </trkpt>
      <trkpt lat="46.52956" lon="9.87196">
        <ele>1715.13</ele>
        <time>2012-08-03T10:34:05Z</time>
      </trkpt>
      <trkpt lat="46.52963" lon="9.87194">
        <ele>1715.13</ele>
        <time>2012-08-03T10:34:06Z</time>
      </trkpt>
      <trkpt lat="46.53005" lon="9.87181">
        <ele>1714.17</ele>
        <time>2012-08-03T10:34:13Z</time>
      </trkpt>
      <trkpt lat="46.53022" lon="9.87175">
        <ele>1713.69</ele>
        <time>2012-08-03T10:34:15Z</time>
      </trkpt>
      <trkpt lat="46.5303" lon="9.87176">
        <ele>1713.69</ele>
        <time>2012-08-03T10:34:16Z</time>
      </trkpt>
      <trkpt lat="46.53038" lon="9.87181">
        <ele>1713.21</ele>
        <time>2012-08-03T10:34:17Z</time>
      </trkpt>
      <trkpt lat="46.53044" lon="9.87189">
        <ele>1713.21</ele>
        <time>2012-08-03T10:34:18Z</time>
      </trkpt>
      <trkpt lat="46.5305" lon="9.87198">
        <ele>1713.21</ele>
        <time>2012-08-03T10:34:19Z</time>
      </trkpt>
      <trkpt lat="46.53054" lon="9.87208">
        <ele>1713.69</ele>
        <time>2012-08-03T10:34:20Z</time>
      </trkpt>
      <trkpt lat="46.53121" lon="9.87322">
        <ele>1714.17</ele>
        <time>2012-08-03T10:34:30Z</time>
      </trkpt>
      <trkpt lat="46.53152" lon="9.87388">
        <ele>1712.73</ele>
        <time>2012-08-03T10:34:36Z</time>
      </trkpt>
      <trkpt lat="46.53154" lon="9.87397">
        <ele>1712.73</ele>
        <time>2012-08-03T10:34:37Z</time>
      </trkpt>
      <trkpt lat="46.53157" lon="9.87414">
        <ele>1712.73</ele>
        <time>2012-08-03T10:34:39Z</time>
      </trkpt>
      <trkpt lat="46.53159" lon="9.8742">
        <ele>1712.25</ele>
        <time>2012-08-03T10:34:40Z</time>
      </trkpt>
      <trkpt lat="46.53163" lon="9.87424">
        <ele>1712.25</ele>
        <time>2012-08-03T10:34:41Z</time>
      </trkpt>
      <trkpt lat="46.53169" lon="9.87428">
        <ele>1712.73</ele>
        <time>2012-08-03T10:34:42Z</time>
      </trkpt>
      <trkpt lat="46.53176" lon="9.87433">
        <ele>1713.21</ele>
        <time>2012-08-03T10:34:43Z</time>
      </trkpt>
      <trkpt lat="46.53186" lon="9.87442">
        <ele>1714.65</ele>
        <time>2012-08-03T10:34:44Z</time>
      </trkpt>
      <trkpt lat="46.53196" lon="9.87454">
        <ele>1714.65</ele>
        <time>2012-08-03T10:34:45Z</time>
      </trkpt>
      <trkpt lat="46.53207" lon="9.87468">
        <ele>1715.13</ele>
        <time>2012-08-03T10:34:46Z</time>
      </trkpt>
      <trkpt lat="46.53289" lon="9.87598">
        <ele>1718.01</ele>
        <time>2012-08-03T10:34:53Z</time>
      </trkpt>
      <trkpt lat="46.53463" lon="9.87863">
        <ele>1718.01</ele>
        <time>2012-08-03T10:35:05Z</time>
      </trkpt>
      <trkpt lat="46.53689" lon="9.8819">
        <ele>1717.53</ele>
        <time>2012-08-03T10:35:20Z</time>
      </trkpt>
      <trkpt lat="46.53946" lon="9.88488">
        <ele>1717.05</ele>
        <time>2012-08-03T10:35:35Z</time>
      </trkpt>
      <trkpt lat="46.54142" lon="9.88692">
        <ele>1720.9</ele>
        <time>2012-08-03T10:35:46Z</time>
      </trkpt>
      <trkpt lat="46.54162" lon="9.88707">
        <ele>1720.9</ele>
        <time>2012-08-03T10:35:47Z</time>
      </trkpt>
      <trkpt lat="46.5433" lon="9.88793">
        <ele>1718.49</ele>
        <time>2012-08-03T10:35:55Z</time>
      </trkpt>
      <trkpt lat="46.54352" lon="9.888">
        <ele>1718.01</ele>
        <time>2012-08-03T10:35:56Z</time>
      </trkpt>
      <trkpt lat="46.54443" lon="9.88827">
        <ele>1716.57</ele>
        <time>2012-08-03T10:36:00Z</time>
      </trkpt>
      <trkpt lat="46.54673" lon="9.88917">
        <ele>1719.94</ele>
        <time>2012-08-03T10:36:11Z</time>
      </trkpt>
      <trkpt lat="46.54691" lon="9.88926">
        <ele>1718.97</ele>
        <time>2012-08-03T10:36:12Z</time>
      </trkpt>
      <trkpt lat="46.54936" lon="9.89059">
        <ele>1718.49</ele>
        <time>2012-08-03T10:36:26Z</time>
      </trkpt>
      <trkpt lat="46.5501" lon="9.89101">
        <ele>1716.09</ele>
        <time>2012-08-03T10:36:31Z</time>
      </trkpt>
      <trkpt lat="46.55119" lon="9.89162">
        <ele>1718.01</ele>
        <time>2012-08-03T10:36:39Z</time>
      </trkpt>
      <trkpt lat="46.55252" lon="9.89272">
        <ele>1717.53</ele>
        <time>2012-08-03T10:36:48Z</time>
      </trkpt>
      <trkpt lat="46.55378" lon="9.89439">
        <ele>1714.65</ele>
        <time>2012-08-03T10:36:57Z</time>
      </trkpt>
      <trkpt lat="46.55391" lon="9.8946">
        <ele>1714.65</ele>
        <time>2012-08-03T10:36:58Z</time>
      </trkpt>
      <trkpt lat="46.55522" lon="9.89676">
        <ele>1711.28</ele>
        <time>2012-08-03T10:37:08Z</time>
      </trkpt>
      <trkpt lat="46.55574" lon="9.89762">
        <ele>1707.92</ele>
        <time>2012-08-03T10:37:12Z</time>
      </trkpt>
      <trkpt lat="46.55821" lon="9.90171">
        <ele>1706.96</ele>
        <time>2012-08-03T10:37:30Z</time>
      </trkpt>
      <trkpt lat="46.56071" lon="9.90571">
        <ele>1705.04</ele>
        <time>2012-08-03T10:37:48Z</time>
      </trkpt>
      <trkpt lat="46.56148" lon="9.90662">
        <ele>1703.59</ele>
        <time>2012-08-03T10:37:53Z</time>
      </trkpt>
      <trkpt lat="46.56326" lon="9.90806">
        <ele>1704.07</ele>
        <time>2012-08-03T10:38:04Z</time>
      </trkpt>
      <trkpt lat="46.56516" lon="9.90934">
        <ele>1704.07</ele>
        <time>2012-08-03T10:38:15Z</time>
      </trkpt>
      <trkpt lat="46.56674" lon="9.91107">
        <ele>1706</ele>
        <time>2012-08-03T10:38:26Z</time>
      </trkpt>
      <trkpt lat="46.56688" lon="9.91124">
        <ele>1705.04</ele>
        <time>2012-08-03T10:38:27Z</time>
      </trkpt>
      <trkpt lat="46.56995" lon="9.91499">
        <ele>1702.63</ele>
        <time>2012-08-03T10:38:48Z</time>
      </trkpt>
      <trkpt lat="46.57278" lon="9.91843">
        <ele>1701.67</ele>
        <time>2012-08-03T10:39:07Z</time>
      </trkpt>
      <trkpt lat="46.57437" lon="9.92038">
        <ele>1700.23</ele>
        <time>2012-08-03T10:39:18Z</time>
      </trkpt>
      <trkpt lat="46.57651" lon="9.92301">
        <ele>1699.27</ele>
        <time>2012-08-03T10:39:33Z</time>
      </trkpt>
      <trkpt lat="46.57713" lon="9.92376">
        <ele>1697.83</ele>
        <time>2012-08-03T10:39:38Z</time>
      </trkpt>
      <trkpt lat="46.57788" lon="9.92454">
        <ele>1695.42</ele>
        <time>2012-08-03T10:39:46Z</time>
      </trkpt>
      <trkpt lat="46.57871" lon="9.92514">
        <ele>1694.46</ele>
        <time>2012-08-03T10:39:56Z</time>
      </trkpt>
      <trkpt lat="46.5789" lon="9.92529">
        <ele>1693.5</ele>
        <time>2012-08-03T10:39:59Z</time>
      </trkpt>
      <trkpt lat="46.57894" lon="9.92534">
        <ele>1693.5</ele>
        <time>2012-08-03T10:40:00Z</time>
      </trkpt>
      <trkpt lat="46.57897" lon="9.92538">
        <ele>1693.02</ele>
        <time>2012-08-03T10:40:01Z</time>
      </trkpt>
      <trkpt lat="46.57901" lon="9.92541">
        <ele>1693.02</ele>
        <time>2012-08-03T10:40:02Z</time>
      </trkpt>
      <trkpt lat="46.57905" lon="9.9254">
        <ele>1693.02</ele>
        <time>2012-08-03T10:40:03Z</time>
      </trkpt>
      <trkpt lat="46.57908" lon="9.92536">
        <ele>1693.02</ele>
        <time>2012-08-03T10:40:04Z</time>
      </trkpt>
      <trkpt lat="46.5791" lon="9.92533">
        <ele>1693.98</ele>
        <time>2012-08-03T10:40:05Z</time>
      </trkpt>
      <trkpt lat="46.57917" lon="9.92526">
        <ele>1694.46</ele>
        <time>2012-08-03T10:40:07Z</time>
      </trkpt>
      <trkpt lat="46.57926" lon="9.92522">
        <ele>1695.42</ele>
        <time>2012-08-03T10:40:09Z</time>
      </trkpt>
      <trkpt lat="46.57939" lon="9.92516">
        <ele>1697.34</ele>
        <time>2012-08-03T10:40:12Z</time>
      </trkpt>
      <trkpt lat="46.57944" lon="9.92515">
        <ele>1697.83</ele>
        <time>2012-08-03T10:40:13Z</time>
      </trkpt>
      <trkpt lat="46.57947" lon="9.92514">
        <ele>1697.83</ele>
        <time>2012-08-03T10:40:14Z</time>
      </trkpt>
      <trkpt lat="46.57951" lon="9.92514">
        <ele>1697.83</ele>
        <time>2012-08-03T10:40:15Z</time>
      </trkpt>
      <trkpt lat="46.57953" lon="9.92513">
        <ele>1698.31</ele>
        <time>2012-08-03T10:40:16Z</time>
      </trkpt>
      <trkpt lat="46.57955" lon="9.92515">
        <ele>1699.27</ele>
        <time>2012-08-03T10:40:26Z</time>
      </trkpt>
      <trkpt lat="46.57956" lon="9.92514">
        <ele>1699.27</ele>
        <time>2012-08-03T10:40:34Z</time>
      </trkpt>
      <trkpt lat="46.57956" lon="9.92511">
        <ele>1699.75</ele>
        <time>2012-08-03T10:40:35Z</time>
      </trkpt>
      <trkpt lat="46.57956" lon="9.92509">
        <ele>1699.27</ele>
        <time>2012-08-03T10:40:36Z</time>
      </trkpt>
      <trkpt lat="46.57955" lon="9.92507">
        <ele>1699.27</ele>
        <time>2012-08-03T10:40:37Z</time>
      </trkpt>
      <trkpt lat="46.5795" lon="9.92508">
        <ele>1698.79</ele>
        <time>2012-08-03T10:40:44Z</time>
      </trkpt>
      <trkpt lat="46.57951" lon="9.92509">
        <ele>1698.31</ele>
        <time>2012-08-03T10:41:05Z</time>
      </trkpt>
      <trkpt lat="46.57951" lon="9.92507">
        <ele>1698.31</ele>
        <time>2012-08-03T10:41:27Z</time>
      </trkpt>
      <trkpt lat="46.57831" lon="9.92691">
        <ele>1696.38</ele>
        <time>2012-08-03T10:47:09Z</time>
      </trkpt>
      <trkpt lat="46.57817" lon="9.92729">
        <ele>1697.34</ele>
        <time>2012-08-03T10:47:17Z</time>
      </trkpt>
      <trkpt lat="46.57829" lon="9.92723">
        <ele>1697.34</ele>
        <time>2012-08-03T10:47:22Z</time>
      </trkpt>
      <trkpt lat="46.57875" lon="9.92626">
        <ele>1696.38</ele>
        <time>2012-08-03T10:47:35Z</time>
      </trkpt>
      <trkpt lat="46.57883" lon="9.92611">
        <ele>1695.42</ele>
        <time>2012-08-03T10:47:37Z</time>
      </trkpt>
      <trkpt lat="46.57887" lon="9.92602">
        <ele>1695.9</ele>
        <time>2012-08-03T10:47:38Z</time>
      </trkpt>
      <trkpt lat="46.57902" lon="9.92557">
        <ele>1695.42</ele>
        <time>2012-08-03T10:47:46Z</time>
      </trkpt>
      <trkpt lat="46.57903" lon="9.92552">
        <ele>1695.42</ele>
        <time>2012-08-03T10:47:55Z</time>
      </trkpt>
      <trkpt lat="46.57907" lon="9.92535">
        <ele>1695.42</ele>
        <time>2012-08-03T10:48:00Z</time>
      </trkpt>
      <trkpt lat="46.5791" lon="9.92529">
        <ele>1696.38</ele>
        <time>2012-08-03T10:48:01Z</time>
      </trkpt>
      <trkpt lat="46.57914" lon="9.92524">
        <ele>1696.86</ele>
        <time>2012-08-03T10:48:02Z</time>
      </trkpt>
      <trkpt lat="46.57918" lon="9.92519">
        <ele>1697.83</ele>
        <time>2012-08-03T10:48:03Z</time>
      </trkpt>
      <trkpt lat="46.57922" lon="9.92514">
        <ele>1698.31</ele>
        <time>2012-08-03T10:48:04Z</time>
      </trkpt>
      <trkpt lat="46.57926" lon="9.9251">
        <ele>1699.75</ele>
        <time>2012-08-03T10:48:05Z</time>
      </trkpt>
      <trkpt lat="46.57932" lon="9.92506">
        <ele>1700.23</ele>
        <time>2012-08-03T10:48:06Z</time>
      </trkpt>
      <trkpt lat="46.57938" lon="9.92503">
        <ele>1701.19</ele>
        <time>2012-08-03T10:48:07Z</time>
      </trkpt>
      <trkpt lat="46.57945" lon="9.92501">
        <ele>1702.15</ele>
        <time>2012-08-03T10:48:08Z</time>
      </trkpt>
      <trkpt lat="46.57952" lon="9.92498">
        <ele>1702.15</ele>
        <time>2012-08-03T10:48:09Z</time>
      </trkpt>
      <trkpt lat="46.57958" lon="9.92494">
        <ele>1702.63</ele>
        <time>2012-08-03T10:48:10Z</time>
      </trkpt>
      <trkpt lat="46.57963" lon="9.92489">
        <ele>1703.59</ele>
        <time>2012-08-03T10:48:11Z</time>
      </trkpt>
      <trkpt lat="46.57968" lon="9.92483">
        <ele>1704.55</ele>
        <time>2012-08-03T10:48:12Z</time>
      </trkpt>
      <trkpt lat="46.57973" lon="9.92476">
        <ele>1705.04</ele>
        <time>2012-08-03T10:48:13Z</time>
      </trkpt>
      <trkpt lat="46.57977" lon="9.92469">
        <ele>1705.52</ele>
        <time>2012-08-03T10:48:14Z</time>
      </trkpt>
      <trkpt lat="46.5799" lon="9.92442">
        <ele>1708.88</ele>
        <time>2012-08-03T10:48:17Z</time>
      </trkpt>
      <trkpt lat="46.58002" lon="9.92398">
        <ele>1711.76</ele>
        <time>2012-08-03T10:48:21Z</time>
      </trkpt>
      <trkpt lat="46.58013" lon="9.92349">
        <ele>1715.13</ele>
        <time>2012-08-03T10:48:25Z</time>
      </trkpt>
      <trkpt lat="46.5802" lon="9.92309">
        <ele>1718.97</ele>
        <time>2012-08-03T10:48:28Z</time>
      </trkpt>
      <trkpt lat="46.58022" lon="9.92258">
        <ele>1722.82</ele>
        <time>2012-08-03T10:48:32Z</time>
      </trkpt>
      <trkpt lat="46.58021" lon="9.92244">
        <ele>1723.3</ele>
        <time>2012-08-03T10:48:33Z</time>
      </trkpt>
      <trkpt lat="46.58014" lon="9.92198">
        <ele>1727.15</ele>
        <time>2012-08-03T10:48:36Z</time>
      </trkpt>
      <trkpt lat="46.58006" lon="9.92152">
        <ele>1731.47</ele>
        <time>2012-08-03T10:48:39Z</time>
      </trkpt>
      <trkpt lat="46.57986" lon="9.92094">
        <ele>1735.8</ele>
        <time>2012-08-03T10:48:43Z</time>
      </trkpt>
      <trkpt lat="46.57964" lon="9.92037">
        <ele>1739.16</ele>
        <time>2012-08-03T10:48:47Z</time>
      </trkpt>
      <trkpt lat="46.57959" lon="9.92023">
        <ele>1740.6</ele>
        <time>2012-08-03T10:48:48Z</time>
      </trkpt>
      <trkpt lat="46.57957" lon="9.92009">
        <ele>1741.08</ele>
        <time>2012-08-03T10:48:49Z</time>
      </trkpt>
      <trkpt lat="46.57956" lon="9.91995">
        <ele>1742.05</ele>
        <time>2012-08-03T10:48:50Z</time>
      </trkpt>
      <trkpt lat="46.57959" lon="9.91982">
        <ele>1743.01</ele>
        <time>2012-08-03T10:48:51Z</time>
      </trkpt>
      <trkpt lat="46.57963" lon="9.91969">
        <ele>1744.93</ele>
        <time>2012-08-03T10:48:52Z</time>
      </trkpt>
      <trkpt lat="46.57969" lon="9.91958">
        <ele>1745.89</ele>
        <time>2012-08-03T10:48:53Z</time>
      </trkpt>
      <trkpt lat="46.57975" lon="9.9195">
        <ele>1746.85</ele>
        <time>2012-08-03T10:48:54Z</time>
      </trkpt>
      <trkpt lat="46.5798" lon="9.91946">
        <ele>1746.85</ele>
        <time>2012-08-03T10:48:55Z</time>
      </trkpt>
      <trkpt lat="46.57982" lon="9.91945">
        <ele>1746.85</ele>
        <time>2012-08-03T10:48:56Z</time>
      </trkpt>
      <trkpt lat="46.57987" lon="9.91943">
        <ele>1747.81</ele>
        <time>2012-08-03T10:49:06Z</time>
      </trkpt>
      <trkpt lat="46.57991" lon="9.91942">
        <ele>1748.29</ele>
        <time>2012-08-03T10:49:07Z</time>
      </trkpt>
      <trkpt lat="46.57997" lon="9.91942">
        <ele>1748.78</ele>
        <time>2012-08-03T10:49:08Z</time>
      </trkpt>
      <trkpt lat="46.58003" lon="9.91944">
        <ele>1749.26</ele>
        <time>2012-08-03T10:49:09Z</time>
      </trkpt>
      <trkpt lat="46.58016" lon="9.91949">
        <ele>1750.22</ele>
        <time>2012-08-03T10:49:11Z</time>
      </trkpt>
      <trkpt lat="46.58022" lon="9.91956">
        <ele>1750.7</ele>
        <time>2012-08-03T10:49:12Z</time>
      </trkpt>
      <trkpt lat="46.58028" lon="9.91965">
        <ele>1751.66</ele>
        <time>2012-08-03T10:49:13Z</time>
      </trkpt>
      <trkpt lat="46.58035" lon="9.91983">
        <ele>1752.62</ele>
        <time>2012-08-03T10:49:15Z</time>
      </trkpt>
      <trkpt lat="46.5804" lon="9.9199">
        <ele>1753.58</ele>
        <time>2012-08-03T10:49:16Z</time>
      </trkpt>
      <trkpt lat="46.58048" lon="9.91994">
        <ele>1754.54</ele>
        <time>2012-08-03T10:49:17Z</time>
      </trkpt>
      <trkpt lat="46.58057" lon="9.91997">
        <ele>1755.99</ele>
        <time>2012-08-03T10:49:18Z</time>
      </trkpt>
      <trkpt lat="46.58066" lon="9.92">
        <ele>1756.95</ele>
        <time>2012-08-03T10:49:19Z</time>
      </trkpt>
      <trkpt lat="46.58109" lon="9.92013">
        <ele>1760.79</ele>
        <time>2012-08-03T10:49:23Z</time>
      </trkpt>
      <trkpt lat="46.58133" lon="9.92021">
        <ele>1764.16</ele>
        <time>2012-08-03T10:49:25Z</time>
      </trkpt>
      <trkpt lat="46.58144" lon="9.92027">
        <ele>1765.6</ele>
        <time>2012-08-03T10:49:26Z</time>
      </trkpt>
      <trkpt lat="46.58156" lon="9.92034">
        <ele>1767.04</ele>
        <time>2012-08-03T10:49:27Z</time>
      </trkpt>
      <trkpt lat="46.58179" lon="9.92052">
        <ele>1770.41</ele>
        <time>2012-08-03T10:49:29Z</time>
      </trkpt>
      <trkpt lat="46.58211" lon="9.9208">
        <ele>1773.77</ele>
        <time>2012-08-03T10:49:32Z</time>
      </trkpt>
      <trkpt lat="46.58228" lon="9.921">
        <ele>1775.69</ele>
        <time>2012-08-03T10:49:34Z</time>
      </trkpt>
      <trkpt lat="46.58241" lon="9.92117">
        <ele>1776.65</ele>
        <time>2012-08-03T10:49:36Z</time>
      </trkpt>
      <trkpt lat="46.58247" lon="9.9212">
        <ele>1777.13</ele>
        <time>2012-08-03T10:49:37Z</time>
      </trkpt>
      <trkpt lat="46.58253" lon="9.92118">
        <ele>1777.61</ele>
        <time>2012-08-03T10:49:38Z</time>
      </trkpt>
      <trkpt lat="46.58257" lon="9.92112">
        <ele>1777.61</ele>
        <time>2012-08-03T10:49:39Z</time>
      </trkpt>
      <trkpt lat="46.5826" lon="9.92106">
        <ele>1779.06</ele>
        <time>2012-08-03T10:49:40Z</time>
      </trkpt>
      <trkpt lat="46.58261" lon="9.92098">
        <ele>1779.54</ele>
        <time>2012-08-03T10:49:41Z</time>
      </trkpt>
      <trkpt lat="46.58259" lon="9.92089">
        <ele>1781.46</ele>
        <time>2012-08-03T10:49:42Z</time>
      </trkpt>
      <trkpt lat="46.58257" lon="9.92077">
        <ele>1782.42</ele>
        <time>2012-08-03T10:49:43Z</time>
      </trkpt>
      <trkpt lat="46.58246" lon="9.92035">
        <ele>1786.75</ele>
        <time>2012-08-03T10:49:46Z</time>
      </trkpt>
      <trkpt lat="46.58231" lon="9.91983">
        <ele>1790.59</ele>
        <time>2012-08-03T10:49:49Z</time>
      </trkpt>
      <trkpt lat="46.58214" lon="9.91933">
        <ele>1794.44</ele>
        <time>2012-08-03T10:49:52Z</time>
      </trkpt>
      <trkpt lat="46.58204" lon="9.91898">
        <ele>1798.28</ele>
        <time>2012-08-03T10:49:54Z</time>
      </trkpt>
      <trkpt lat="46.58186" lon="9.9185">
        <ele>1801.17</ele>
        <time>2012-08-03T10:49:57Z</time>
      </trkpt>
      <trkpt lat="46.58178" lon="9.91837">
        <ele>1802.61</ele>
        <time>2012-08-03T10:49:58Z</time>
      </trkpt>
      <trkpt lat="46.58171" lon="9.91828">
        <ele>1802.61</ele>
        <time>2012-08-03T10:49:59Z</time>
      </trkpt>
      <trkpt lat="46.58163" lon="9.91817">
        <ele>1803.57</ele>
        <time>2012-08-03T10:50:00Z</time>
      </trkpt>
      <trkpt lat="46.58159" lon="9.91808">
        <ele>1804.53</ele>
        <time>2012-08-03T10:50:01Z</time>
      </trkpt>
      <trkpt lat="46.58158" lon="9.91798">
        <ele>1804.05</ele>
        <time>2012-08-03T10:50:02Z</time>
      </trkpt>
      <trkpt lat="46.58159" lon="9.91789">
        <ele>1805.01</ele>
        <time>2012-08-03T10:50:03Z</time>
      </trkpt>
      <trkpt lat="46.58161" lon="9.91781">
        <ele>1805.49</ele>
        <time>2012-08-03T10:50:04Z</time>
      </trkpt>
      <trkpt lat="46.58162" lon="9.91776">
        <ele>1805.49</ele>
        <time>2012-08-03T10:50:05Z</time>
      </trkpt>
      <trkpt lat="46.58164" lon="9.91775">
        <ele>1807.42</ele>
        <time>2012-08-03T10:50:06Z</time>
      </trkpt>
      <trkpt lat="46.58168" lon="9.91775">
        <ele>1807.9</ele>
        <time>2012-08-03T10:50:07Z</time>
      </trkpt>
      <trkpt lat="46.58173" lon="9.91778">
        <ele>1809.34</ele>
        <time>2012-08-03T10:50:08Z</time>
      </trkpt>
      <trkpt lat="46.58179" lon="9.91782">
        <ele>1810.78</ele>
        <time>2012-08-03T10:50:09Z</time>
      </trkpt>
      <trkpt lat="46.58186" lon="9.91788">
        <ele>1811.74</ele>
        <time>2012-08-03T10:50:10Z</time>
      </trkpt>
      <trkpt lat="46.58194" lon="9.91795">
        <ele>1812.22</ele>
        <time>2012-08-03T10:50:11Z</time>
      </trkpt>
      <trkpt lat="46.58203" lon="9.91804">
        <ele>1813.66</ele>
        <time>2012-08-03T10:50:12Z</time>
      </trkpt>
      <trkpt lat="46.58214" lon="9.91818">
        <ele>1814.15</ele>
        <time>2012-08-03T10:50:13Z</time>
      </trkpt>
      <trkpt lat="46.58262" lon="9.91881">
        <ele>1816.07</ele>
        <time>2012-08-03T10:50:17Z</time>
      </trkpt>
      <trkpt lat="46.58287" lon="9.91909">
        <ele>1816.55</ele>
        <time>2012-08-03T10:50:19Z</time>
      </trkpt>
      <trkpt lat="46.58295" lon="9.91915">
        <ele>1816.55</ele>
        <time>2012-08-03T10:50:20Z</time>
      </trkpt>
      <trkpt lat="46.58301" lon="9.91916">
        <ele>1817.03</ele>
        <time>2012-08-03T10:50:21Z</time>
      </trkpt>
      <trkpt lat="46.58307" lon="9.91912">
        <ele>1817.51</ele>
        <time>2012-08-03T10:50:22Z</time>
      </trkpt>
      <trkpt lat="46.5831" lon="9.91908">
        <ele>1817.99</ele>
        <time>2012-08-03T10:50:23Z</time>
      </trkpt>
      <trkpt lat="46.5831" lon="9.91901">
        <ele>1819.43</ele>
        <time>2012-08-03T10:50:24Z</time>
      </trkpt>
      <trkpt lat="46.58307" lon="9.91894">
        <ele>1819.91</ele>
        <time>2012-08-03T10:50:25Z</time>
      </trkpt>
      <trkpt lat="46.58303" lon="9.91884">
        <ele>1821.35</ele>
        <time>2012-08-03T10:50:26Z</time>
      </trkpt>
      <trkpt lat="46.58298" lon="9.9187">
        <ele>1823.28</ele>
        <time>2012-08-03T10:50:27Z</time>
      </trkpt>
      <trkpt lat="46.58293" lon="9.91854">
        <ele>1824.72</ele>
        <time>2012-08-03T10:50:28Z</time>
      </trkpt>
      <trkpt lat="46.58288" lon="9.91818">
        <ele>1828.56</ele>
        <time>2012-08-03T10:50:30Z</time>
      </trkpt>
      <trkpt lat="46.58279" lon="9.91762">
        <ele>1832.41</ele>
        <time>2012-08-03T10:50:33Z</time>
      </trkpt>
      <trkpt lat="46.58271" lon="9.91707">
        <ele>1836.26</ele>
        <time>2012-08-03T10:50:36Z</time>
      </trkpt>
      <trkpt lat="46.58263" lon="9.91676">
        <ele>1838.18</ele>
        <time>2012-08-03T10:50:38Z</time>
      </trkpt>
      <trkpt lat="46.58256" lon="9.91662">
        <ele>1838.66</ele>
        <time>2012-08-03T10:50:39Z</time>
      </trkpt>
      <trkpt lat="46.58243" lon="9.91639">
        <ele>1840.1</ele>
        <time>2012-08-03T10:50:41Z</time>
      </trkpt>
      <trkpt lat="46.58241" lon="9.91625">
        <ele>1840.58</ele>
        <time>2012-08-03T10:50:42Z</time>
      </trkpt>
      <trkpt lat="46.58241" lon="9.91609">
        <ele>1842.98</ele>
        <time>2012-08-03T10:50:43Z</time>
      </trkpt>
      <trkpt lat="46.58244" lon="9.91593">
        <ele>1844.43</ele>
        <time>2012-08-03T10:50:44Z</time>
      </trkpt>
      <trkpt lat="46.58247" lon="9.91576">
        <ele>1846.35</ele>
        <time>2012-08-03T10:50:45Z</time>
      </trkpt>
      <trkpt lat="46.58251" lon="9.91558">
        <ele>1847.79</ele>
        <time>2012-08-03T10:50:46Z</time>
      </trkpt>
      <trkpt lat="46.5826" lon="9.91522">
        <ele>1851.16</ele>
        <time>2012-08-03T10:50:48Z</time>
      </trkpt>
      <trkpt lat="46.58264" lon="9.91503">
        <ele>1852.6</ele>
        <time>2012-08-03T10:50:49Z</time>
      </trkpt>
      <trkpt lat="46.58265" lon="9.91482">
        <ele>1854.04</ele>
        <time>2012-08-03T10:50:50Z</time>
      </trkpt>
      <trkpt lat="46.58266" lon="9.91462">
        <ele>1855.48</ele>
        <time>2012-08-03T10:50:51Z</time>
      </trkpt>
      <trkpt lat="46.58265" lon="9.9144">
        <ele>1856.92</ele>
        <time>2012-08-03T10:50:52Z</time>
      </trkpt>
      <trkpt lat="46.58263" lon="9.91417">
        <ele>1859.33</ele>
        <time>2012-08-03T10:50:53Z</time>
      </trkpt>
      <trkpt lat="46.58257" lon="9.91393">
        <ele>1861.73</ele>
        <time>2012-08-03T10:50:54Z</time>
      </trkpt>
      <trkpt lat="46.58252" lon="9.91368">
        <ele>1864.61</ele>
        <time>2012-08-03T10:50:55Z</time>
      </trkpt>
      <trkpt lat="46.58244" lon="9.91343">
        <ele>1867.02</ele>
        <time>2012-08-03T10:50:56Z</time>
      </trkpt>
      <trkpt lat="46.5823" lon="9.91299">
        <ele>1868.46</ele>
        <time>2012-08-03T10:50:58Z</time>
      </trkpt>
      <trkpt lat="46.58226" lon="9.91278">
        <ele>1869.9</ele>
        <time>2012-08-03T10:50:59Z</time>
      </trkpt>
      <trkpt lat="46.58223" lon="9.91255">
        <ele>1871.34</ele>
        <time>2012-08-03T10:51:00Z</time>
      </trkpt>
      <trkpt lat="46.58222" lon="9.91231">
        <ele>1874.23</ele>
        <time>2012-08-03T10:51:01Z</time>
      </trkpt>
      <trkpt lat="46.58223" lon="9.91207">
        <ele>1875.19</ele>
        <time>2012-08-03T10:51:02Z</time>
      </trkpt>
      <trkpt lat="46.58225" lon="9.91183">
        <ele>1876.63</ele>
        <time>2012-08-03T10:51:03Z</time>
      </trkpt>
      <trkpt lat="46.58223" lon="9.91159">
        <ele>1879.03</ele>
        <time>2012-08-03T10:51:04Z</time>
      </trkpt>
      <trkpt lat="46.58219" lon="9.91135">
        <ele>1880.96</ele>
        <time>2012-08-03T10:51:05Z</time>
      </trkpt>
      <trkpt lat="46.58214" lon="9.91111">
        <ele>1883.36</ele>
        <time>2012-08-03T10:51:06Z</time>
      </trkpt>
      <trkpt lat="46.58201" lon="9.91063">
        <ele>1888.17</ele>
        <time>2012-08-03T10:51:08Z</time>
      </trkpt>
      <trkpt lat="46.58187" lon="9.91016">
        <ele>1892.01</ele>
        <time>2012-08-03T10:51:10Z</time>
      </trkpt>
      <trkpt lat="46.58179" lon="9.90996">
        <ele>1892.49</ele>
        <time>2012-08-03T10:51:11Z</time>
      </trkpt>
      <trkpt lat="46.58171" lon="9.90982">
        <ele>1892.49</ele>
        <time>2012-08-03T10:51:12Z</time>
      </trkpt>
      <trkpt lat="46.58165" lon="9.9097">
        <ele>1892.97</ele>
        <time>2012-08-03T10:51:13Z</time>
      </trkpt>
      <trkpt lat="46.58161" lon="9.9096">
        <ele>1893.45</ele>
        <time>2012-08-03T10:51:14Z</time>
      </trkpt>
      <trkpt lat="46.5816" lon="9.90949">
        <ele>1893.93</ele>
        <time>2012-08-03T10:51:15Z</time>
      </trkpt>
      <trkpt lat="46.58163" lon="9.9094">
        <ele>1894.42</ele>
        <time>2012-08-03T10:51:16Z</time>
      </trkpt>
      <trkpt lat="46.58168" lon="9.90935">
        <ele>1896.34</ele>
        <time>2012-08-03T10:51:17Z</time>
      </trkpt>
      <trkpt lat="46.58172" lon="9.90933">
        <ele>1897.78</ele>
        <time>2012-08-03T10:51:18Z</time>
      </trkpt>
      <trkpt lat="46.58176" lon="9.90935">
        <ele>1898.74</ele>
        <time>2012-08-03T10:51:19Z</time>
      </trkpt>
      <trkpt lat="46.58181" lon="9.90939">
        <ele>1900.18</ele>
        <time>2012-08-03T10:51:20Z</time>
      </trkpt>
      <trkpt lat="46.58188" lon="9.90946">
        <ele>1901.63</ele>
        <time>2012-08-03T10:51:21Z</time>
      </trkpt>
      <trkpt lat="46.58207" lon="9.90962">
        <ele>1904.99</ele>
        <time>2012-08-03T10:51:23Z</time>
      </trkpt>
      <trkpt lat="46.58227" lon="9.90982">
        <ele>1905.95</ele>
        <time>2012-08-03T10:51:25Z</time>
      </trkpt>
      <trkpt lat="46.58251" lon="9.91002">
        <ele>1907.87</ele>
        <time>2012-08-03T10:51:28Z</time>
      </trkpt>
      <trkpt lat="46.58257" lon="9.91002">
        <ele>1908.35</ele>
        <time>2012-08-03T10:51:29Z</time>
      </trkpt>
      <trkpt lat="46.58264" lon="9.91001">
        <ele>1908.83</ele>
        <time>2012-08-03T10:51:30Z</time>
      </trkpt>
      <trkpt lat="46.58269" lon="9.90996">
        <ele>1909.32</ele>
        <time>2012-08-03T10:51:31Z</time>
      </trkpt>
      <trkpt lat="46.58272" lon="9.9099">
        <ele>1910.76</ele>
        <time>2012-08-03T10:51:32Z</time>
      </trkpt>
      <trkpt lat="46.58272" lon="9.90982">
        <ele>1911.72</ele>
        <time>2012-08-03T10:51:33Z</time>
      </trkpt>
      <trkpt lat="46.5827" lon="9.90972">
        <ele>1913.16</ele>
        <time>2012-08-03T10:51:34Z</time>
      </trkpt>
      <trkpt lat="46.58266" lon="9.90958">
        <ele>1915.08</ele>
        <time>2012-08-03T10:51:35Z</time>
      </trkpt>
      <trkpt lat="46.58262" lon="9.90941">
        <ele>1916.04</ele>
        <time>2012-08-03T10:51:36Z</time>
      </trkpt>
      <trkpt lat="46.58261" lon="9.90925">
        <ele>1916.53</ele>
        <time>2012-08-03T10:51:37Z</time>
      </trkpt>
      <trkpt lat="46.58262" lon="9.9091">
        <ele>1917.01</ele>
        <time>2012-08-03T10:51:38Z</time>
      </trkpt>
      <trkpt lat="46.58265" lon="9.90879">
        <ele>1919.41</ele>
        <time>2012-08-03T10:51:40Z</time>
      </trkpt>
      <trkpt lat="46.58266" lon="9.90864">
        <ele>1920.85</ele>
        <time>2012-08-03T10:51:41Z</time>
      </trkpt>
      <trkpt lat="46.58266" lon="9.90834">
        <ele>1924.22</ele>
        <time>2012-08-03T10:51:43Z</time>
      </trkpt>
      <trkpt lat="46.58265" lon="9.90819">
        <ele>1924.7</ele>
        <time>2012-08-03T10:51:44Z</time>
      </trkpt>
      <trkpt lat="46.5826" lon="9.90776">
        <ele>1928.06</ele>
        <time>2012-08-03T10:51:47Z</time>
      </trkpt>
      <trkpt lat="46.58255" lon="9.90732">
        <ele>1930.95</ele>
        <time>2012-08-03T10:51:50Z</time>
      </trkpt>
      <trkpt lat="46.58254" lon="9.90718">
        <ele>1931.91</ele>
        <time>2012-08-03T10:51:51Z</time>
      </trkpt>
      <trkpt lat="46.58254" lon="9.90706">
        <ele>1933.35</ele>
        <time>2012-08-03T10:51:52Z</time>
      </trkpt>
      <trkpt lat="46.58257" lon="9.90695">
        <ele>1933.35</ele>
        <time>2012-08-03T10:51:53Z</time>
      </trkpt>
      <trkpt lat="46.58259" lon="9.90688">
        <ele>1934.79</ele>
        <time>2012-08-03T10:51:54Z</time>
      </trkpt>
      <trkpt lat="46.58261" lon="9.90684">
        <ele>1935.27</ele>
        <time>2012-08-03T10:51:55Z</time>
      </trkpt>
      <trkpt lat="46.58263" lon="9.90683">
        <ele>1935.75</ele>
        <time>2012-08-03T10:51:56Z</time>
      </trkpt>
      <trkpt lat="46.58265" lon="9.90683">
        <ele>1936.23</ele>
        <time>2012-08-03T10:51:57Z</time>
      </trkpt>
      <trkpt lat="46.58269" lon="9.90694">
        <ele>1936.71</ele>
        <time>2012-08-03T10:51:59Z</time>
      </trkpt>
      <trkpt lat="46.58268" lon="9.90703">
        <ele>1937.19</ele>
        <time>2012-08-03T10:52:00Z</time>
      </trkpt>
      <trkpt lat="46.58267" lon="9.90713">
        <ele>1937.67</ele>
        <time>2012-08-03T10:52:01Z</time>
      </trkpt>
      <trkpt lat="46.58267" lon="9.90725">
        <ele>1938.16</ele>
        <time>2012-08-03T10:52:02Z</time>
      </trkpt>
      <trkpt lat="46.58268" lon="9.90738">
        <ele>1938.64</ele>
        <time>2012-08-03T10:52:03Z</time>
      </trkpt>
      <trkpt lat="46.58271" lon="9.90753">
        <ele>1939.6</ele>
        <time>2012-08-03T10:52:04Z</time>
      </trkpt>
      <trkpt lat="46.58277" lon="9.90768">
        <ele>1941.04</ele>
        <time>2012-08-03T10:52:05Z</time>
      </trkpt>
      <trkpt lat="46.58283" lon="9.90784">
        <ele>1942.48</ele>
        <time>2012-08-03T10:52:06Z</time>
      </trkpt>
      <trkpt lat="46.58303" lon="9.90835">
        <ele>1946.81</ele>
        <time>2012-08-03T10:52:09Z</time>
      </trkpt>
      <trkpt lat="46.58318" lon="9.90882">
        <ele>1949.69</ele>
        <time>2012-08-03T10:52:12Z</time>
      </trkpt>
      <trkpt lat="46.58321" lon="9.90898">
        <ele>1950.65</ele>
        <time>2012-08-03T10:52:13Z</time>
      </trkpt>
      <trkpt lat="46.58323" lon="9.90915">
        <ele>1951.61</ele>
        <time>2012-08-03T10:52:14Z</time>
      </trkpt>
      <trkpt lat="46.58327" lon="9.90948">
        <ele>1953.54</ele>
        <time>2012-08-03T10:52:16Z</time>
      </trkpt>
      <trkpt lat="46.5833" lon="9.90965">
        <ele>1953.54</ele>
        <time>2012-08-03T10:52:17Z</time>
      </trkpt>
      <trkpt lat="46.58338" lon="9.90996">
        <ele>1956.42</ele>
        <time>2012-08-03T10:52:19Z</time>
      </trkpt>
      <trkpt lat="46.58339" lon="9.9101">
        <ele>1956.9</ele>
        <time>2012-08-03T10:52:20Z</time>
      </trkpt>
      <trkpt lat="46.58341" lon="9.91031">
        <ele>1957.86</ele>
        <time>2012-08-03T10:52:22Z</time>
      </trkpt>
      <trkpt lat="46.58343" lon="9.91038">
        <ele>1958.34</ele>
        <time>2012-08-03T10:52:23Z</time>
      </trkpt>
      <trkpt lat="46.58347" lon="9.91044">
        <ele>1958.82</ele>
        <time>2012-08-03T10:52:24Z</time>
      </trkpt>
      <trkpt lat="46.58351" lon="9.91048">
        <ele>1958.82</ele>
        <time>2012-08-03T10:52:25Z</time>
      </trkpt>
      <trkpt lat="46.58357" lon="9.91048">
        <ele>1959.3</ele>
        <time>2012-08-03T10:52:26Z</time>
      </trkpt>
      <trkpt lat="46.58367" lon="9.91043">
        <ele>1959.78</ele>
        <time>2012-08-03T10:52:28Z</time>
      </trkpt>
      <trkpt lat="46.58371" lon="9.91037">
        <ele>1959.78</ele>
        <time>2012-08-03T10:52:29Z</time>
      </trkpt>
      <trkpt lat="46.58372" lon="9.91027">
        <ele>1960.75</ele>
        <time>2012-08-03T10:52:30Z</time>
      </trkpt>
      <trkpt lat="46.58371" lon="9.91012">
        <ele>1962.67</ele>
        <time>2012-08-03T10:52:31Z</time>
      </trkpt>
      <trkpt lat="46.58365" lon="9.9099">
        <ele>1965.55</ele>
        <time>2012-08-03T10:52:32Z</time>
      </trkpt>
      <trkpt lat="46.58357" lon="9.9094">
        <ele>1969.4</ele>
        <time>2012-08-03T10:52:34Z</time>
      </trkpt>
      <trkpt lat="46.58347" lon="9.90829">
        <ele>1974.2</ele>
        <time>2012-08-03T10:52:39Z</time>
      </trkpt>
      <trkpt lat="46.58342" lon="9.90772">
        <ele>1978.05</ele>
        <time>2012-08-03T10:52:42Z</time>
      </trkpt>
      <trkpt lat="46.58336" lon="9.90735">
        <ele>1980.93</ele>
        <time>2012-08-03T10:52:44Z</time>
      </trkpt>
      <trkpt lat="46.58335" lon="9.90717">
        <ele>1982.38</ele>
        <time>2012-08-03T10:52:45Z</time>
      </trkpt>
      <trkpt lat="46.58336" lon="9.90698">
        <ele>1984.3</ele>
        <time>2012-08-03T10:52:46Z</time>
      </trkpt>
      <trkpt lat="46.58337" lon="9.90679">
        <ele>1985.74</ele>
        <time>2012-08-03T10:52:47Z</time>
      </trkpt>
      <trkpt lat="46.58347" lon="9.90619">
        <ele>1989.1</ele>
        <time>2012-08-03T10:52:50Z</time>
      </trkpt>
      <trkpt lat="46.58351" lon="9.906">
        <ele>1990.55</ele>
        <time>2012-08-03T10:52:51Z</time>
      </trkpt>
      <trkpt lat="46.58357" lon="9.90583">
        <ele>1991.99</ele>
        <time>2012-08-03T10:52:52Z</time>
      </trkpt>
      <trkpt lat="46.58364" lon="9.90566">
        <ele>1992.95</ele>
        <time>2012-08-03T10:52:53Z</time>
      </trkpt>
      <trkpt lat="46.58381" lon="9.90532">
        <ele>1997.28</ele>
        <time>2012-08-03T10:52:55Z</time>
      </trkpt>
      <trkpt lat="46.58399" lon="9.90495">
        <ele>2000.64</ele>
        <time>2012-08-03T10:52:57Z</time>
      </trkpt>
      <trkpt lat="46.58418" lon="9.90457">
        <ele>2004.01</ele>
        <time>2012-08-03T10:52:59Z</time>
      </trkpt>
      <trkpt lat="46.58438" lon="9.90419">
        <ele>2007.37</ele>
        <time>2012-08-03T10:53:01Z</time>
      </trkpt>
      <trkpt lat="46.58465" lon="9.90358">
        <ele>2011.7</ele>
        <time>2012-08-03T10:53:04Z</time>
      </trkpt>
      <trkpt lat="46.58479" lon="9.90315">
        <ele>2015.54</ele>
        <time>2012-08-03T10:53:06Z</time>
      </trkpt>
      <trkpt lat="46.58495" lon="9.90274">
        <ele>2019.39</ele>
        <time>2012-08-03T10:53:08Z</time>
      </trkpt>
      <trkpt lat="46.58512" lon="9.90235">
        <ele>2023.71</ele>
        <time>2012-08-03T10:53:10Z</time>
      </trkpt>
      <trkpt lat="46.5854" lon="9.90181">
        <ele>2027.56</ele>
        <time>2012-08-03T10:53:13Z</time>
      </trkpt>
      <trkpt lat="46.5855" lon="9.90165">
        <ele>2029.48</ele>
        <time>2012-08-03T10:53:14Z</time>
      </trkpt>
      <trkpt lat="46.58561" lon="9.90153">
        <ele>2031.88</ele>
        <time>2012-08-03T10:53:15Z</time>
      </trkpt>
      <trkpt lat="46.58573" lon="9.90144">
        <ele>2033.33</ele>
        <time>2012-08-03T10:53:16Z</time>
      </trkpt>
      <trkpt lat="46.58597" lon="9.90127">
        <ele>2034.77</ele>
        <time>2012-08-03T10:53:18Z</time>
      </trkpt>
      <trkpt lat="46.58606" lon="9.90115">
        <ele>2035.25</ele>
        <time>2012-08-03T10:53:19Z</time>
      </trkpt>
      <trkpt lat="46.58615" lon="9.90101">
        <ele>2037.17</ele>
        <time>2012-08-03T10:53:20Z</time>
      </trkpt>
      <trkpt lat="46.58621" lon="9.90085">
        <ele>2038.61</ele>
        <time>2012-08-03T10:53:21Z</time>
      </trkpt>
      <trkpt lat="46.58627" lon="9.90067">
        <ele>2041.02</ele>
        <time>2012-08-03T10:53:22Z</time>
      </trkpt>
      <trkpt lat="46.58632" lon="9.90049">
        <ele>2042.94</ele>
        <time>2012-08-03T10:53:23Z</time>
      </trkpt>
      <trkpt lat="46.58644" lon="9.90001">
        <ele>2045.34</ele>
        <time>2012-08-03T10:53:26Z</time>
      </trkpt>
      <trkpt lat="46.58646" lon="9.89987">
        <ele>2045.82</ele>
        <time>2012-08-03T10:53:27Z</time>
      </trkpt>
      <trkpt lat="46.58647" lon="9.89972">
        <ele>2048.23</ele>
        <time>2012-08-03T10:53:28Z</time>
      </trkpt>
      <trkpt lat="46.58651" lon="9.89921">
        <ele>2052.55</ele>
        <time>2012-08-03T10:53:31Z</time>
      </trkpt>
      <trkpt lat="46.58654" lon="9.89905">
        <ele>2053.51</ele>
        <time>2012-08-03T10:53:32Z</time>
      </trkpt>
      <trkpt lat="46.5866" lon="9.89879">
        <ele>2054.96</ele>
        <time>2012-08-03T10:53:34Z</time>
      </trkpt>
      <trkpt lat="46.58665" lon="9.89855">
        <ele>2055.92</ele>
        <time>2012-08-03T10:53:37Z</time>
      </trkpt>
      <trkpt lat="46.58669" lon="9.89812">
        <ele>2059.28</ele>
        <time>2012-08-03T10:53:43Z</time>
      </trkpt>
      <trkpt lat="46.58671" lon="9.89804">
        <ele>2059.76</ele>
        <time>2012-08-03T10:53:44Z</time>
      </trkpt>
      <trkpt lat="46.58675" lon="9.898">
        <ele>2059.76</ele>
        <time>2012-08-03T10:53:45Z</time>
      </trkpt>
      <trkpt lat="46.58679" lon="9.89801">
        <ele>2059.76</ele>
        <time>2012-08-03T10:53:46Z</time>
      </trkpt>
      <trkpt lat="46.58682" lon="9.89808">
        <ele>2059.76</ele>
        <time>2012-08-03T10:53:47Z</time>
      </trkpt>
      <trkpt lat="46.58683" lon="9.89819">
        <ele>2060.72</ele>
        <time>2012-08-03T10:53:48Z</time>
      </trkpt>
      <trkpt lat="46.58682" lon="9.89833">
        <ele>2061.68</ele>
        <time>2012-08-03T10:53:49Z</time>
      </trkpt>
      <trkpt lat="46.5868" lon="9.89849">
        <ele>2061.68</ele>
        <time>2012-08-03T10:53:50Z</time>
      </trkpt>
      <trkpt lat="46.58675" lon="9.89892">
        <ele>2064.57</ele>
        <time>2012-08-03T10:53:53Z</time>
      </trkpt>
      <trkpt lat="46.58676" lon="9.89903">
        <ele>2065.05</ele>
        <time>2012-08-03T10:53:54Z</time>
      </trkpt>
      <trkpt lat="46.58679" lon="9.89911">
        <ele>2066.01</ele>
        <time>2012-08-03T10:53:55Z</time>
      </trkpt>
      <trkpt lat="46.58685" lon="9.89915">
        <ele>2066.49</ele>
        <time>2012-08-03T10:53:56Z</time>
      </trkpt>
      <trkpt lat="46.58692" lon="9.89915">
        <ele>2067.45</ele>
        <time>2012-08-03T10:53:57Z</time>
      </trkpt>
      <trkpt lat="46.58701" lon="9.89911">
        <ele>2068.41</ele>
        <time>2012-08-03T10:53:58Z</time>
      </trkpt>
      <trkpt lat="46.58709" lon="9.89902">
        <ele>2069.86</ele>
        <time>2012-08-03T10:53:59Z</time>
      </trkpt>
      <trkpt lat="46.58716" lon="9.89889">
        <ele>2070.34</ele>
        <time>2012-08-03T10:54:00Z</time>
      </trkpt>
      <trkpt lat="46.58719" lon="9.8987">
        <ele>2071.3</ele>
        <time>2012-08-03T10:54:01Z</time>
      </trkpt>
      <trkpt lat="46.58727" lon="9.89811">
        <ele>2075.14</ele>
        <time>2012-08-03T10:54:04Z</time>
      </trkpt>
      <trkpt lat="46.58729" lon="9.8979">
        <ele>2077.07</ele>
        <time>2012-08-03T10:54:05Z</time>
      </trkpt>
      <trkpt lat="46.58741" lon="9.89739">
        <ele>2080.91</ele>
        <time>2012-08-03T10:54:08Z</time>
      </trkpt>
      <trkpt lat="46.58745" lon="9.89723">
        <ele>2082.83</ele>
        <time>2012-08-03T10:54:09Z</time>
      </trkpt>
      <trkpt lat="46.58761" lon="9.89672">
        <ele>2087.16</ele>
        <time>2012-08-03T10:54:12Z</time>
      </trkpt>
      <trkpt lat="46.58774" lon="9.89632">
        <ele>2091.49</ele>
        <time>2012-08-03T10:54:14Z</time>
      </trkpt>
      <trkpt lat="46.58785" lon="9.89589">
        <ele>2094.37</ele>
        <time>2012-08-03T10:54:16Z</time>
      </trkpt>
      <trkpt lat="46.58788" lon="9.89566">
        <ele>2095.81</ele>
        <time>2012-08-03T10:54:17Z</time>
      </trkpt>
      <trkpt lat="46.58792" lon="9.89524">
        <ele>2098.7</ele>
        <time>2012-08-03T10:54:19Z</time>
      </trkpt>
      <trkpt lat="46.58796" lon="9.89502">
        <ele>2101.1</ele>
        <time>2012-08-03T10:54:20Z</time>
      </trkpt>
      <trkpt lat="46.58808" lon="9.89457">
        <ele>2105.42</ele>
        <time>2012-08-03T10:54:22Z</time>
      </trkpt>
      <trkpt lat="46.58821" lon="9.89406">
        <ele>2110.23</ele>
        <time>2012-08-03T10:54:24Z</time>
      </trkpt>
      <trkpt lat="46.58834" lon="9.8935">
        <ele>2114.56</ele>
        <time>2012-08-03T10:54:26Z</time>
      </trkpt>
      <trkpt lat="46.58843" lon="9.89293">
        <ele>2117.92</ele>
        <time>2012-08-03T10:54:28Z</time>
      </trkpt>
      <trkpt lat="46.58845" lon="9.89268">
        <ele>2117.44</ele>
        <time>2012-08-03T10:54:29Z</time>
      </trkpt>
      <trkpt lat="46.58853" lon="9.89222">
        <ele>2120.32</ele>
        <time>2012-08-03T10:54:31Z</time>
      </trkpt>
      <trkpt lat="46.58861" lon="9.892">
        <ele>2121.77</ele>
        <time>2012-08-03T10:54:32Z</time>
      </trkpt>
      <trkpt lat="46.58878" lon="9.89157">
        <ele>2126.09</ele>
        <time>2012-08-03T10:54:34Z</time>
      </trkpt>
      <trkpt lat="46.58884" lon="9.89132">
        <ele>2128.02</ele>
        <time>2012-08-03T10:54:35Z</time>
      </trkpt>
      <trkpt lat="46.58887" lon="9.89105">
        <ele>2130.42</ele>
        <time>2012-08-03T10:54:36Z</time>
      </trkpt>
      <trkpt lat="46.58891" lon="9.89076">
        <ele>2133.3</ele>
        <time>2012-08-03T10:54:37Z</time>
      </trkpt>
      <trkpt lat="46.589" lon="9.88989">
        <ele>2138.59</ele>
        <time>2012-08-03T10:54:40Z</time>
      </trkpt>
      <trkpt lat="46.58911" lon="9.88908">
        <ele>2142.44</ele>
        <time>2012-08-03T10:54:43Z</time>
      </trkpt>
      <trkpt lat="46.58914" lon="9.88883">
        <ele>2143.88</ele>
        <time>2012-08-03T10:54:44Z</time>
      </trkpt>
      <trkpt lat="46.58915" lon="9.88857">
        <ele>2144.84</ele>
        <time>2012-08-03T10:54:45Z</time>
      </trkpt>
      <trkpt lat="46.58912" lon="9.8883">
        <ele>2147.24</ele>
        <time>2012-08-03T10:54:46Z</time>
      </trkpt>
      <trkpt lat="46.58906" lon="9.88775">
        <ele>2151.09</ele>
        <time>2012-08-03T10:54:48Z</time>
      </trkpt>
      <trkpt lat="46.58899" lon="9.88719">
        <ele>2155.41</ele>
        <time>2012-08-03T10:54:50Z</time>
      </trkpt>
      <trkpt lat="46.58887" lon="9.88644">
        <ele>2157.34</ele>
        <time>2012-08-03T10:54:53Z</time>
      </trkpt>
      <trkpt lat="46.58886" lon="9.88625">
        <ele>2157.82</ele>
        <time>2012-08-03T10:54:54Z</time>
      </trkpt>
      <trkpt lat="46.58887" lon="9.88607">
        <ele>2158.78</ele>
        <time>2012-08-03T10:54:55Z</time>
      </trkpt>
      <trkpt lat="46.5889" lon="9.88589">
        <ele>2160.22</ele>
        <time>2012-08-03T10:54:56Z</time>
      </trkpt>
      <trkpt lat="46.58896" lon="9.88572">
        <ele>2161.18</ele>
        <time>2012-08-03T10:54:57Z</time>
      </trkpt>
      <trkpt lat="46.58902" lon="9.88556">
        <ele>2161.66</ele>
        <time>2012-08-03T10:54:58Z</time>
      </trkpt>
      <trkpt lat="46.58907" lon="9.88539">
        <ele>2162.62</ele>
        <time>2012-08-03T10:54:59Z</time>
      </trkpt>
      <trkpt lat="46.5891" lon="9.88523">
        <ele>2163.58</ele>
        <time>2012-08-03T10:55:00Z</time>
      </trkpt>
      <trkpt lat="46.58911" lon="9.88506">
        <ele>2164.06</ele>
        <time>2012-08-03T10:55:01Z</time>
      </trkpt>
      <trkpt lat="46.5891" lon="9.8849">
        <ele>2164.55</ele>
        <time>2012-08-03T10:55:02Z</time>
      </trkpt>
      <trkpt lat="46.58907" lon="9.88475">
        <ele>2165.51</ele>
        <time>2012-08-03T10:55:03Z</time>
      </trkpt>
      <trkpt lat="46.58902" lon="9.8846">
        <ele>2166.95</ele>
        <time>2012-08-03T10:55:04Z</time>
      </trkpt>
      <trkpt lat="46.58895" lon="9.88446">
        <ele>2167.91</ele>
        <time>2012-08-03T10:55:05Z</time>
      </trkpt>
      <trkpt lat="46.58887" lon="9.88435">
        <ele>2169.35</ele>
        <time>2012-08-03T10:55:06Z</time>
      </trkpt>
      <trkpt lat="46.58878" lon="9.88426">
        <ele>2170.79</ele>
        <time>2012-08-03T10:55:07Z</time>
      </trkpt>
      <trkpt lat="46.58866" lon="9.88417">
        <ele>2171.76</ele>
        <time>2012-08-03T10:55:08Z</time>
      </trkpt>
      <trkpt lat="46.58844" lon="9.88399">
        <ele>2173.2</ele>
        <time>2012-08-03T10:55:10Z</time>
      </trkpt>
      <trkpt lat="46.58835" lon="9.88386">
        <ele>2174.16</ele>
        <time>2012-08-03T10:55:11Z</time>
      </trkpt>
      <trkpt lat="46.58829" lon="9.88369">
        <ele>2176.56</ele>
        <time>2012-08-03T10:55:12Z</time>
      </trkpt>
      <trkpt lat="46.58825" lon="9.88351">
        <ele>2178</ele>
        <time>2012-08-03T10:55:13Z</time>
      </trkpt>
      <trkpt lat="46.58823" lon="9.88333">
        <ele>2178.48</ele>
        <time>2012-08-03T10:55:14Z</time>
      </trkpt>
      <trkpt lat="46.58824" lon="9.88315">
        <ele>2180.89</ele>
        <time>2012-08-03T10:55:15Z</time>
      </trkpt>
      <trkpt lat="46.58826" lon="9.88297">
        <ele>2181.37</ele>
        <time>2012-08-03T10:55:16Z</time>
      </trkpt>
      <trkpt lat="46.58829" lon="9.88257">
        <ele>2186.18</ele>
        <time>2012-08-03T10:55:18Z</time>
      </trkpt>
      <trkpt lat="46.58833" lon="9.88213">
        <ele>2190.02</ele>
        <time>2012-08-03T10:55:20Z</time>
      </trkpt>
      <trkpt lat="46.58847" lon="9.88121">
        <ele>2194.83</ele>
        <time>2012-08-03T10:55:24Z</time>
      </trkpt>
      <trkpt lat="46.58855" lon="9.88048">
        <ele>2199.15</ele>
        <time>2012-08-03T10:55:27Z</time>
      </trkpt>
      <trkpt lat="46.58856" lon="9.88024">
        <ele>2200.59</ele>
        <time>2012-08-03T10:55:28Z</time>
      </trkpt>
      <trkpt lat="46.58854" lon="9.87975">
        <ele>2203.96</ele>
        <time>2012-08-03T10:55:30Z</time>
      </trkpt>
      <trkpt lat="46.58852" lon="9.87902">
        <ele>2208.29</ele>
        <time>2012-08-03T10:55:33Z</time>
      </trkpt>
      <trkpt lat="46.5885" lon="9.87832">
        <ele>2212.13</ele>
        <time>2012-08-03T10:55:36Z</time>
      </trkpt>
      <trkpt lat="46.58848" lon="9.87764">
        <ele>2215.5</ele>
        <time>2012-08-03T10:55:39Z</time>
      </trkpt>
      <trkpt lat="46.58845" lon="9.87687">
        <ele>2218.38</ele>
        <time>2012-08-03T10:55:43Z</time>
      </trkpt>
      <trkpt lat="46.58846" lon="9.87671">
        <ele>2218.38</ele>
        <time>2012-08-03T10:55:44Z</time>
      </trkpt>
      <trkpt lat="46.58848" lon="9.87655">
        <ele>2219.82</ele>
        <time>2012-08-03T10:55:45Z</time>
      </trkpt>
      <trkpt lat="46.58853" lon="9.87639">
        <ele>2221.26</ele>
        <time>2012-08-03T10:55:46Z</time>
      </trkpt>
      <trkpt lat="46.58859" lon="9.87625">
        <ele>2221.74</ele>
        <time>2012-08-03T10:55:47Z</time>
      </trkpt>
      <trkpt lat="46.58866" lon="9.87611">
        <ele>2223.19</ele>
        <time>2012-08-03T10:55:48Z</time>
      </trkpt>
      <trkpt lat="46.58874" lon="9.87597">
        <ele>2224.15</ele>
        <time>2012-08-03T10:55:49Z</time>
      </trkpt>
      <trkpt lat="46.5888" lon="9.8758">
        <ele>2225.59</ele>
        <time>2012-08-03T10:55:50Z</time>
      </trkpt>
      <trkpt lat="46.58884" lon="9.87562">
        <ele>2227.51</ele>
        <time>2012-08-03T10:55:51Z</time>
      </trkpt>
      <trkpt lat="46.58885" lon="9.87543">
        <ele>2228.95</ele>
        <time>2012-08-03T10:55:52Z</time>
      </trkpt>
      <trkpt lat="46.58884" lon="9.87525">
        <ele>2228.47</ele>
        <time>2012-08-03T10:55:53Z</time>
      </trkpt>
      <trkpt lat="46.58882" lon="9.87507">
        <ele>2229.92</ele>
        <time>2012-08-03T10:55:54Z</time>
      </trkpt>
      <trkpt lat="46.58879" lon="9.8749">
        <ele>2230.4</ele>
        <time>2012-08-03T10:55:55Z</time>
      </trkpt>
      <trkpt lat="46.58876" lon="9.87457">
        <ele>2232.32</ele>
        <time>2012-08-03T10:55:57Z</time>
      </trkpt>
      <trkpt lat="46.58876" lon="9.87441">
        <ele>2233.28</ele>
        <time>2012-08-03T10:55:58Z</time>
      </trkpt>
      <trkpt lat="46.58878" lon="9.87425">
        <ele>2234.72</ele>
        <time>2012-08-03T10:55:59Z</time>
      </trkpt>
      <trkpt lat="46.58881" lon="9.87354">
        <ele>2236.64</ele>
        <time>2012-08-03T10:56:03Z</time>
      </trkpt>
      <trkpt lat="46.5888" lon="9.87333">
        <ele>2238.09</ele>
        <time>2012-08-03T10:56:04Z</time>
      </trkpt>
      <trkpt lat="46.58872" lon="9.87261">
        <ele>2241.45</ele>
        <time>2012-08-03T10:56:07Z</time>
      </trkpt>
      <trkpt lat="46.58859" lon="9.87151">
        <ele>2244.33</ele>
        <time>2012-08-03T10:56:11Z</time>
      </trkpt>
      <trkpt lat="46.58807" lon="9.86932">
        <ele>2246.26</ele>
        <time>2012-08-03T10:56:19Z</time>
      </trkpt>
      <trkpt lat="46.58804" lon="9.86906">
        <ele>2247.7</ele>
        <time>2012-08-03T10:56:20Z</time>
      </trkpt>
      <trkpt lat="46.58803" lon="9.86879">
        <ele>2249.14</ele>
        <time>2012-08-03T10:56:21Z</time>
      </trkpt>
      <trkpt lat="46.58803" lon="9.86852">
        <ele>2250.58</ele>
        <time>2012-08-03T10:56:22Z</time>
      </trkpt>
      <trkpt lat="46.58805" lon="9.86825">
        <ele>2251.06</ele>
        <time>2012-08-03T10:56:23Z</time>
      </trkpt>
      <trkpt lat="46.58804" lon="9.86712">
        <ele>2253.95</ele>
        <time>2012-08-03T10:56:27Z</time>
      </trkpt>
      <trkpt lat="46.58761" lon="9.86511">
        <ele>2255.87</ele>
        <time>2012-08-03T10:56:34Z</time>
      </trkpt>
      <trkpt lat="46.58732" lon="9.86333">
        <ele>2259.72</ele>
        <time>2012-08-03T10:56:40Z</time>
      </trkpt>
      <trkpt lat="46.58724" lon="9.86276">
        <ele>2263.08</ele>
        <time>2012-08-03T10:56:42Z</time>
      </trkpt>
      <trkpt lat="46.58705" lon="9.86194">
        <ele>2267.89</ele>
        <time>2012-08-03T10:56:45Z</time>
      </trkpt>
      <trkpt lat="46.58684" lon="9.86115">
        <ele>2271.25</ele>
        <time>2012-08-03T10:56:48Z</time>
      </trkpt>
      <trkpt lat="46.58667" lon="9.86035">
        <ele>2275.1</ele>
        <time>2012-08-03T10:56:51Z</time>
      </trkpt>
      <trkpt lat="46.58662" lon="9.85983">
        <ele>2274.62</ele>
        <time>2012-08-03T10:56:53Z</time>
      </trkpt>
      <trkpt lat="46.58663" lon="9.85959">
        <ele>2274.14</ele>
        <time>2012-08-03T10:56:54Z</time>
      </trkpt>
      <trkpt lat="46.58667" lon="9.85938">
        <ele>2274.14</ele>
        <time>2012-08-03T10:56:55Z</time>
      </trkpt>
      <trkpt lat="46.58674" lon="9.85919">
        <ele>2275.58</ele>
        <time>2012-08-03T10:56:56Z</time>
      </trkpt>
      <trkpt lat="46.58685" lon="9.85903">
        <ele>2276.54</ele>
        <time>2012-08-03T10:56:57Z</time>
      </trkpt>
      <trkpt lat="46.58697" lon="9.85889">
        <ele>2277.5</ele>
        <time>2012-08-03T10:56:58Z</time>
      </trkpt>
      <trkpt lat="46.58708" lon="9.85874">
        <ele>2277.02</ele>
        <time>2012-08-03T10:56:59Z</time>
      </trkpt>
      <trkpt lat="46.58716" lon="9.85857">
        <ele>2277.98</ele>
        <time>2012-08-03T10:57:00Z</time>
      </trkpt>
      <trkpt lat="46.58721" lon="9.85839">
        <ele>2278.94</ele>
        <time>2012-08-03T10:57:01Z</time>
      </trkpt>
      <trkpt lat="46.58723" lon="9.8582">
        <ele>2279.42</ele>
        <time>2012-08-03T10:57:02Z</time>
      </trkpt>
      <trkpt lat="46.58722" lon="9.858">
        <ele>2281.35</ele>
        <time>2012-08-03T10:57:03Z</time>
      </trkpt>
      <trkpt lat="46.58717" lon="9.8578">
        <ele>2282.31</ele>
        <time>2012-08-03T10:57:04Z</time>
      </trkpt>
      <trkpt lat="46.5871" lon="9.85761">
        <ele>2283.27</ele>
        <time>2012-08-03T10:57:05Z</time>
      </trkpt>
      <trkpt lat="46.58703" lon="9.8574">
        <ele>2284.71</ele>
        <time>2012-08-03T10:57:06Z</time>
      </trkpt>
      <trkpt lat="46.58247" lon="9.83791">
        <ele>2288.08</ele>
        <time>2012-08-03T11:59:02Z</time>
      </trkpt>
      <trkpt lat="46.58247" lon="9.83791">
        <ele>2288.08</ele>
        <time>2012-08-03T11:59:03Z</time>
      </trkpt>
      <trkpt lat="46.58248" lon="9.83785">
        <ele>2291.44</ele>
        <time>2012-08-03T11:59:11Z</time>
      </trkpt>
      <trkpt lat="46.58247" lon="9.83785">
        <ele>2295.28</ele>
        <time>2012-08-03T11:59:15Z</time>
      </trkpt>
      <trkpt lat="46.58247" lon="9.83786">
        <ele>2296.25</ele>
        <time>2012-08-03T11:59:18Z</time>
      </trkpt>
      <trkpt lat="46.58247" lon="9.83785">
        <ele>2300.09</ele>
        <time>2012-08-03T11:59:25Z</time>
      </trkpt>
      <trkpt lat="46.58248" lon="9.83786">
        <ele>2302.98</ele>
        <time>2012-08-03T11:59:32Z</time>
      </trkpt>
      <trkpt lat="46.58248" lon="9.83787">
        <ele>2306.34</ele>
        <time>2012-08-03T11:59:42Z</time>
      </trkpt>
      <trkpt lat="46.58248" lon="9.83788">
        <ele>2309.22</ele>
        <time>2012-08-03T11:59:53Z</time>
      </trkpt>
      <trkpt lat="46.5825" lon="9.83789">
        <ele>2311.63</ele>
        <time>2012-08-03T12:00:16Z</time>
      </trkpt>
      <trkpt lat="46.58246" lon="9.83793">
        <ele>2313.07</ele>
        <time>2012-08-03T12:00:33Z</time>
      </trkpt>
      <trkpt lat="46.58248" lon="9.83793">
        <ele>2313.55</ele>
        <time>2012-08-03T12:00:38Z</time>
      </trkpt>
      <trkpt lat="46.58259" lon="9.83804">
        <ele>2313.07</ele>
        <time>2012-08-03T12:00:48Z</time>
      </trkpt>
      <trkpt lat="46.58258" lon="9.83805">
        <ele>2313.07</ele>
        <time>2012-08-03T12:01:05Z</time>
      </trkpt>
      <trkpt lat="46.58259" lon="9.83802">
        <ele>2314.03</ele>
        <time>2012-08-03T12:01:08Z</time>
      </trkpt>
      <trkpt lat="46.58253" lon="9.83784">
        <ele>2314.51</ele>
        <time>2012-08-03T12:01:12Z</time>
      </trkpt>
      <trkpt lat="46.5825" lon="9.8378">
        <ele>2314.51</ele>
        <time>2012-08-03T12:01:13Z</time>
      </trkpt>
      <trkpt lat="46.58246" lon="9.83777">
        <ele>2314.99</ele>
        <time>2012-08-03T12:01:14Z</time>
      </trkpt>
      <trkpt lat="46.58242" lon="9.83775">
        <ele>2315.47</ele>
        <time>2012-08-03T12:01:15Z</time>
      </trkpt>
      <trkpt lat="46.58238" lon="9.83773">
        <ele>2315.95</ele>
        <time>2012-08-03T12:01:16Z</time>
      </trkpt>
      <trkpt lat="46.58234" lon="9.83771">
        <ele>2315.95</ele>
        <time>2012-08-03T12:01:17Z</time>
      </trkpt>
      <trkpt lat="46.58205" lon="9.8376">
        <ele>2314.03</ele>
        <time>2012-08-03T12:01:22Z</time>
      </trkpt>
      <trkpt lat="46.58198" lon="9.83754">
        <ele>2314.51</ele>
        <time>2012-08-03T12:01:23Z</time>
      </trkpt>
      <trkpt lat="46.58191" lon="9.83745">
        <ele>2314.03</ele>
        <time>2012-08-03T12:01:24Z</time>
      </trkpt>
      <trkpt lat="46.58184" lon="9.83732">
        <ele>2313.07</ele>
        <time>2012-08-03T12:01:25Z</time>
      </trkpt>
      <trkpt lat="46.58179" lon="9.83716">
        <ele>2313.07</ele>
        <time>2012-08-03T12:01:26Z</time>
      </trkpt>
      <trkpt lat="46.58174" lon="9.83697">
        <ele>2312.11</ele>
        <time>2012-08-03T12:01:27Z</time>
      </trkpt>
      <trkpt lat="46.58153" lon="9.8362">
        <ele>2307.78</ele>
        <time>2012-08-03T12:01:31Z</time>
      </trkpt>
      <trkpt lat="46.58133" lon="9.83566">
        <ele>2304.42</ele>
        <time>2012-08-03T12:01:34Z</time>
      </trkpt>
      <trkpt lat="46.58105" lon="9.83511">
        <ele>2300.57</ele>
        <time>2012-08-03T12:01:37Z</time>
      </trkpt>
      <trkpt lat="46.58095" lon="9.83495">
        <ele>2299.13</ele>
        <time>2012-08-03T12:01:38Z</time>
      </trkpt>
      <trkpt lat="46.58084" lon="9.83481">
        <ele>2297.69</ele>
        <time>2012-08-03T12:01:39Z</time>
      </trkpt>
      <trkpt lat="46.58072" lon="9.83469">
        <ele>2296.25</ele>
        <time>2012-08-03T12:01:40Z</time>
      </trkpt>
      <trkpt lat="46.5806" lon="9.83458">
        <ele>2292.88</ele>
        <time>2012-08-03T12:01:41Z</time>
      </trkpt>
      <trkpt lat="46.58038" lon="9.83434">
        <ele>2290.96</ele>
        <time>2012-08-03T12:01:43Z</time>
      </trkpt>
      <trkpt lat="46.5803" lon="9.83417">
        <ele>2290.48</ele>
        <time>2012-08-03T12:01:44Z</time>
      </trkpt>
      <trkpt lat="46.58015" lon="9.83385">
        <ele>2286.63</ele>
        <time>2012-08-03T12:01:46Z</time>
      </trkpt>
      <trkpt lat="46.58009" lon="9.83362">
        <ele>2285.67</ele>
        <time>2012-08-03T12:01:47Z</time>
      </trkpt>
      <trkpt lat="46.58007" lon="9.83342">
        <ele>2284.23</ele>
        <time>2012-08-03T12:01:48Z</time>
      </trkpt>
      <trkpt lat="46.58008" lon="9.83321">
        <ele>2283.75</ele>
        <time>2012-08-03T12:01:49Z</time>
      </trkpt>
      <trkpt lat="46.58004" lon="9.83299">
        <ele>2283.75</ele>
        <time>2012-08-03T12:01:50Z</time>
      </trkpt>
      <trkpt lat="46.57999" lon="9.83276">
        <ele>2281.83</ele>
        <time>2012-08-03T12:01:51Z</time>
      </trkpt>
      <trkpt lat="46.57991" lon="9.83252">
        <ele>2279.9</ele>
        <time>2012-08-03T12:01:52Z</time>
      </trkpt>
      <trkpt lat="46.57987" lon="9.83229">
        <ele>2279.42</ele>
        <time>2012-08-03T12:01:53Z</time>
      </trkpt>
      <trkpt lat="46.57985" lon="9.83203">
        <ele>2277.98</ele>
        <time>2012-08-03T12:01:54Z</time>
      </trkpt>
      <trkpt lat="46.57978" lon="9.83142">
        <ele>2274.62</ele>
        <time>2012-08-03T12:01:56Z</time>
      </trkpt>
      <trkpt lat="46.57976" lon="9.83125">
        <ele>2273.66</ele>
        <time>2012-08-03T12:01:57Z</time>
      </trkpt>
      <trkpt lat="46.57965" lon="9.83047">
        <ele>2268.85</ele>
        <time>2012-08-03T12:02:00Z</time>
      </trkpt>
      <trkpt lat="46.57959" lon="9.83006">
        <ele>2264.04</ele>
        <time>2012-08-03T12:02:02Z</time>
      </trkpt>
      <trkpt lat="46.57955" lon="9.82975">
        <ele>2259.24</ele>
        <time>2012-08-03T12:02:04Z</time>
      </trkpt>
      <trkpt lat="46.5795" lon="9.82961">
        <ele>2258.75</ele>
        <time>2012-08-03T12:02:05Z</time>
      </trkpt>
      <trkpt lat="46.5794" lon="9.82949">
        <ele>2258.27</ele>
        <time>2012-08-03T12:02:06Z</time>
      </trkpt>
      <trkpt lat="46.57929" lon="9.82939">
        <ele>2258.27</ele>
        <time>2012-08-03T12:02:07Z</time>
      </trkpt>
      <trkpt lat="46.57914" lon="9.8293">
        <ele>2258.27</ele>
        <time>2012-08-03T12:02:08Z</time>
      </trkpt>
      <trkpt lat="46.57901" lon="9.82918">
        <ele>2257.79</ele>
        <time>2012-08-03T12:02:09Z</time>
      </trkpt>
      <trkpt lat="46.57889" lon="9.82903">
        <ele>2257.31</ele>
        <time>2012-08-03T12:02:10Z</time>
      </trkpt>
      <trkpt lat="46.57877" lon="9.82883">
        <ele>2256.83</ele>
        <time>2012-08-03T12:02:11Z</time>
      </trkpt>
      <trkpt lat="46.57866" lon="9.8286">
        <ele>2255.87</ele>
        <time>2012-08-03T12:02:12Z</time>
      </trkpt>
      <trkpt lat="46.57858" lon="9.82836">
        <ele>2255.87</ele>
        <time>2012-08-03T12:02:13Z</time>
      </trkpt>
      <trkpt lat="46.57852" lon="9.82809">
        <ele>2255.39</ele>
        <time>2012-08-03T12:02:14Z</time>
      </trkpt>
      <trkpt lat="46.57849" lon="9.82781">
        <ele>2253.95</ele>
        <time>2012-08-03T12:02:15Z</time>
      </trkpt>
      <trkpt lat="46.57849" lon="9.82751">
        <ele>2253.47</ele>
        <time>2012-08-03T12:02:16Z</time>
      </trkpt>
      <trkpt lat="46.5785" lon="9.82721">
        <ele>2252.99</ele>
        <time>2012-08-03T12:02:17Z</time>
      </trkpt>
      <trkpt lat="46.57864" lon="9.82567">
        <ele>2250.1</ele>
        <time>2012-08-03T12:02:22Z</time>
      </trkpt>
      <trkpt lat="46.57876" lon="9.82441">
        <ele>2244.33</ele>
        <time>2012-08-03T12:02:26Z</time>
      </trkpt>
      <trkpt lat="46.57883" lon="9.82361">
        <ele>2240.01</ele>
        <time>2012-08-03T12:02:29Z</time>
      </trkpt>
      <trkpt lat="46.57888" lon="9.8229">
        <ele>2236.64</ele>
        <time>2012-08-03T12:02:32Z</time>
      </trkpt>
      <trkpt lat="46.579" lon="9.82194">
        <ele>2233.28</ele>
        <time>2012-08-03T12:02:36Z</time>
      </trkpt>
      <trkpt lat="46.57907" lon="9.82129">
        <ele>2229.92</ele>
        <time>2012-08-03T12:02:39Z</time>
      </trkpt>
      <trkpt lat="46.5791" lon="9.82111">
        <ele>2229.43</ele>
        <time>2012-08-03T12:02:40Z</time>
      </trkpt>
      <trkpt lat="46.57915" lon="9.82093">
        <ele>2228.95</ele>
        <time>2012-08-03T12:02:41Z</time>
      </trkpt>
      <trkpt lat="46.57921" lon="9.82075">
        <ele>2227.99</ele>
        <time>2012-08-03T12:02:42Z</time>
      </trkpt>
      <trkpt lat="46.57932" lon="9.82046">
        <ele>2226.07</ele>
        <time>2012-08-03T12:02:44Z</time>
      </trkpt>
      <trkpt lat="46.57935" lon="9.82031">
        <ele>2225.11</ele>
        <time>2012-08-03T12:02:45Z</time>
      </trkpt>
      <trkpt lat="46.57936" lon="9.82016">
        <ele>2225.11</ele>
        <time>2012-08-03T12:02:46Z</time>
      </trkpt>
      <trkpt lat="46.57932" lon="9.81999">
        <ele>2225.59</ele>
        <time>2012-08-03T12:02:47Z</time>
      </trkpt>
      <trkpt lat="46.57926" lon="9.81981">
        <ele>2224.63</ele>
        <time>2012-08-03T12:02:48Z</time>
      </trkpt>
      <trkpt lat="46.57914" lon="9.8195">
        <ele>2223.67</ele>
        <time>2012-08-03T12:02:50Z</time>
      </trkpt>
      <trkpt lat="46.57911" lon="9.81934">
        <ele>2222.71</ele>
        <time>2012-08-03T12:02:51Z</time>
      </trkpt>
      <trkpt lat="46.5791" lon="9.81918">
        <ele>2221.74</ele>
        <time>2012-08-03T12:02:52Z</time>
      </trkpt>
      <trkpt lat="46.57912" lon="9.81901">
        <ele>2221.74</ele>
        <time>2012-08-03T12:02:53Z</time>
      </trkpt>
      <trkpt lat="46.57917" lon="9.81883">
        <ele>2221.26</ele>
        <time>2012-08-03T12:02:54Z</time>
      </trkpt>
      <trkpt lat="46.57924" lon="9.81864">
        <ele>2220.78</ele>
        <time>2012-08-03T12:02:55Z</time>
      </trkpt>
      <trkpt lat="46.57941" lon="9.81813">
        <ele>2217.9</ele>
        <time>2012-08-03T12:02:58Z</time>
      </trkpt>
      <trkpt lat="46.57943" lon="9.81799">
        <ele>2217.42</ele>
        <time>2012-08-03T12:02:59Z</time>
      </trkpt>
      <trkpt lat="46.57944" lon="9.81783">
        <ele>2216.94</ele>
        <time>2012-08-03T12:03:00Z</time>
      </trkpt>
      <trkpt lat="46.57942" lon="9.81765">
        <ele>2216.94</ele>
        <time>2012-08-03T12:03:01Z</time>
      </trkpt>
      <trkpt lat="46.57938" lon="9.81746">
        <ele>2216.46</ele>
        <time>2012-08-03T12:03:02Z</time>
      </trkpt>
      <trkpt lat="46.57924" lon="9.81686">
        <ele>2213.09</ele>
        <time>2012-08-03T12:03:05Z</time>
      </trkpt>
      <trkpt lat="46.57904" lon="9.81594">
        <ele>2208.77</ele>
        <time>2012-08-03T12:03:09Z</time>
      </trkpt>
      <trkpt lat="46.5789" lon="9.81529">
        <ele>2205.4</ele>
        <time>2012-08-03T12:03:12Z</time>
      </trkpt>
      <trkpt lat="46.57882" lon="9.81489">
        <ele>2202.04</ele>
        <time>2012-08-03T12:03:14Z</time>
      </trkpt>
      <trkpt lat="46.57878" lon="9.81472">
        <ele>2198.67</ele>
        <time>2012-08-03T12:03:15Z</time>
      </trkpt>
      <trkpt lat="46.57875" lon="9.81457">
        <ele>2197.71</ele>
        <time>2012-08-03T12:03:16Z</time>
      </trkpt>
      <trkpt lat="46.57869" lon="9.81445">
        <ele>2196.27</ele>
        <time>2012-08-03T12:03:17Z</time>
      </trkpt>
      <trkpt lat="46.5786" lon="9.81435">
        <ele>2195.79</ele>
        <time>2012-08-03T12:03:18Z</time>
      </trkpt>
      <trkpt lat="46.57849" lon="9.81427">
        <ele>2195.79</ele>
        <time>2012-08-03T12:03:19Z</time>
      </trkpt>
      <trkpt lat="46.57837" lon="9.81421">
        <ele>2194.83</ele>
        <time>2012-08-03T12:03:20Z</time>
      </trkpt>
      <trkpt lat="46.57826" lon="9.81416">
        <ele>2193.39</ele>
        <time>2012-08-03T12:03:21Z</time>
      </trkpt>
      <trkpt lat="46.57815" lon="9.81415">
        <ele>2191.94</ele>
        <time>2012-08-03T12:03:22Z</time>
      </trkpt>
      <trkpt lat="46.57804" lon="9.81414">
        <ele>2190.5</ele>
        <time>2012-08-03T12:03:23Z</time>
      </trkpt>
      <trkpt lat="46.57795" lon="9.81413">
        <ele>2189.54</ele>
        <time>2012-08-03T12:03:24Z</time>
      </trkpt>
      <trkpt lat="46.57786" lon="9.81409">
        <ele>2188.58</ele>
        <time>2012-08-03T12:03:25Z</time>
      </trkpt>
      <trkpt lat="46.57778" lon="9.81403">
        <ele>2187.62</ele>
        <time>2012-08-03T12:03:26Z</time>
      </trkpt>
      <trkpt lat="46.57771" lon="9.81394">
        <ele>2187.14</ele>
        <time>2012-08-03T12:03:27Z</time>
      </trkpt>
      <trkpt lat="46.57767" lon="9.81382">
        <ele>2186.66</ele>
        <time>2012-08-03T12:03:28Z</time>
      </trkpt>
      <trkpt lat="46.57764" lon="9.81368">
        <ele>2185.69</ele>
        <time>2012-08-03T12:03:29Z</time>
      </trkpt>
      <trkpt lat="46.57755" lon="9.81331">
        <ele>2182.81</ele>
        <time>2012-08-03T12:03:32Z</time>
      </trkpt>
      <trkpt lat="46.5775" lon="9.81322">
        <ele>2182.33</ele>
        <time>2012-08-03T12:03:33Z</time>
      </trkpt>
      <trkpt lat="46.57741" lon="9.81314">
        <ele>2182.33</ele>
        <time>2012-08-03T12:03:34Z</time>
      </trkpt>
      <trkpt lat="46.57731" lon="9.81308">
        <ele>2181.85</ele>
        <time>2012-08-03T12:03:35Z</time>
      </trkpt>
      <trkpt lat="46.57688" lon="9.81291">
        <ele>2178</ele>
        <time>2012-08-03T12:03:39Z</time>
      </trkpt>
      <trkpt lat="46.57679" lon="9.81285">
        <ele>2176.56</ele>
        <time>2012-08-03T12:03:40Z</time>
      </trkpt>
      <trkpt lat="46.57671" lon="9.81278">
        <ele>2175.6</ele>
        <time>2012-08-03T12:03:41Z</time>
      </trkpt>
      <trkpt lat="46.57664" lon="9.81268">
        <ele>2175.12</ele>
        <time>2012-08-03T12:03:42Z</time>
      </trkpt>
      <trkpt lat="46.5766" lon="9.81255">
        <ele>2174.16</ele>
        <time>2012-08-03T12:03:43Z</time>
      </trkpt>
      <trkpt lat="46.57657" lon="9.81241">
        <ele>2173.68</ele>
        <time>2012-08-03T12:03:44Z</time>
      </trkpt>
      <trkpt lat="46.57656" lon="9.81226">
        <ele>2172.72</ele>
        <time>2012-08-03T12:03:45Z</time>
      </trkpt>
      <trkpt lat="46.57653" lon="9.81211">
        <ele>2172.24</ele>
        <time>2012-08-03T12:03:46Z</time>
      </trkpt>
      <trkpt lat="46.57644" lon="9.8118">
        <ele>2170.31</ele>
        <time>2012-08-03T12:03:48Z</time>
      </trkpt>
      <trkpt lat="46.57633" lon="9.81152">
        <ele>2168.39</ele>
        <time>2012-08-03T12:03:50Z</time>
      </trkpt>
      <trkpt lat="46.5763" lon="9.81138">
        <ele>2166.95</ele>
        <time>2012-08-03T12:03:51Z</time>
      </trkpt>
      <trkpt lat="46.57629" lon="9.81109">
        <ele>2165.51</ele>
        <time>2012-08-03T12:03:53Z</time>
      </trkpt>
      <trkpt lat="46.57625" lon="9.81094">
        <ele>2165.03</ele>
        <time>2012-08-03T12:03:54Z</time>
      </trkpt>
      <trkpt lat="46.5762" lon="9.8108">
        <ele>2164.06</ele>
        <time>2012-08-03T12:03:55Z</time>
      </trkpt>
      <trkpt lat="46.57615" lon="9.81068">
        <ele>2162.62</ele>
        <time>2012-08-03T12:03:56Z</time>
      </trkpt>
      <trkpt lat="46.57613" lon="9.81055">
        <ele>2162.14</ele>
        <time>2012-08-03T12:03:57Z</time>
      </trkpt>
      <trkpt lat="46.57613" lon="9.81043">
        <ele>2160.22</ele>
        <time>2012-08-03T12:03:58Z</time>
      </trkpt>
      <trkpt lat="46.57616" lon="9.81031">
        <ele>2160.7</ele>
        <time>2012-08-03T12:03:59Z</time>
      </trkpt>
      <trkpt lat="46.57631" lon="9.80996">
        <ele>2158.78</ele>
        <time>2012-08-03T12:04:02Z</time>
      </trkpt>
      <trkpt lat="46.57641" lon="9.80954">
        <ele>2157.34</ele>
        <time>2012-08-03T12:04:04Z</time>
      </trkpt>
      <trkpt lat="46.57647" lon="9.80935">
        <ele>2155.41</ele>
        <time>2012-08-03T12:04:05Z</time>
      </trkpt>
      <trkpt lat="46.57664" lon="9.80884">
        <ele>2151.57</ele>
        <time>2012-08-03T12:04:08Z</time>
      </trkpt>
      <trkpt lat="46.57668" lon="9.80871">
        <ele>2150.61</ele>
        <time>2012-08-03T12:04:09Z</time>
      </trkpt>
      <trkpt lat="46.5767" lon="9.80859">
        <ele>2149.65</ele>
        <time>2012-08-03T12:04:10Z</time>
      </trkpt>
      <trkpt lat="46.57671" lon="9.80847">
        <ele>2148.68</ele>
        <time>2012-08-03T12:04:11Z</time>
      </trkpt>
      <trkpt lat="46.57669" lon="9.80836">
        <ele>2148.2</ele>
        <time>2012-08-03T12:04:12Z</time>
      </trkpt>
      <trkpt lat="46.57665" lon="9.80828">
        <ele>2147.24</ele>
        <time>2012-08-03T12:04:13Z</time>
      </trkpt>
      <trkpt lat="46.57659" lon="9.80823">
        <ele>2146.28</ele>
        <time>2012-08-03T12:04:14Z</time>
      </trkpt>
      <trkpt lat="46.57652" lon="9.80824">
        <ele>2145.8</ele>
        <time>2012-08-03T12:04:15Z</time>
      </trkpt>
      <trkpt lat="46.57644" lon="9.8083">
        <ele>2145.8</ele>
        <time>2012-08-03T12:04:16Z</time>
      </trkpt>
      <trkpt lat="46.57635" lon="9.80839">
        <ele>2145.32</ele>
        <time>2012-08-03T12:04:17Z</time>
      </trkpt>
      <trkpt lat="46.57628" lon="9.80847">
        <ele>2143.88</ele>
        <time>2012-08-03T12:04:18Z</time>
      </trkpt>
      <trkpt lat="46.57621" lon="9.80851">
        <ele>2142.44</ele>
        <time>2012-08-03T12:04:19Z</time>
      </trkpt>
      <trkpt lat="46.57614" lon="9.80852">
        <ele>2141.95</ele>
        <time>2012-08-03T12:04:20Z</time>
      </trkpt>
      <trkpt lat="46.57608" lon="9.80847">
        <ele>2140.99</ele>
        <time>2012-08-03T12:04:21Z</time>
      </trkpt>
      <trkpt lat="46.57604" lon="9.80838">
        <ele>2140.99</ele>
        <time>2012-08-03T12:04:22Z</time>
      </trkpt>
      <trkpt lat="46.57603" lon="9.80824">
        <ele>2140.03</ele>
        <time>2012-08-03T12:04:23Z</time>
      </trkpt>
      <trkpt lat="46.57604" lon="9.80809">
        <ele>2140.03</ele>
        <time>2012-08-03T12:04:24Z</time>
      </trkpt>
      <trkpt lat="46.57606" lon="9.80791">
        <ele>2140.03</ele>
        <time>2012-08-03T12:04:25Z</time>
      </trkpt>
      <trkpt lat="46.57611" lon="9.80773">
        <ele>2139.07</ele>
        <time>2012-08-03T12:04:26Z</time>
      </trkpt>
      <trkpt lat="46.57618" lon="9.80757">
        <ele>2138.11</ele>
        <time>2012-08-03T12:04:27Z</time>
      </trkpt>
      <trkpt lat="46.57625" lon="9.80741">
        <ele>2136.67</ele>
        <time>2012-08-03T12:04:28Z</time>
      </trkpt>
      <trkpt lat="46.57632" lon="9.80724">
        <ele>2135.71</ele>
        <time>2012-08-03T12:04:29Z</time>
      </trkpt>
      <trkpt lat="46.57643" lon="9.80691">
        <ele>2132.82</ele>
        <time>2012-08-03T12:04:31Z</time>
      </trkpt>
      <trkpt lat="46.57649" lon="9.80662">
        <ele>2130.42</ele>
        <time>2012-08-03T12:04:33Z</time>
      </trkpt>
      <trkpt lat="46.57651" lon="9.80647">
        <ele>2129.46</ele>
        <time>2012-08-03T12:04:34Z</time>
      </trkpt>
      <trkpt lat="46.57651" lon="9.80629">
        <ele>2128.98</ele>
        <time>2012-08-03T12:04:35Z</time>
      </trkpt>
      <trkpt lat="46.5765" lon="9.80576">
        <ele>2125.61</ele>
        <time>2012-08-03T12:04:38Z</time>
      </trkpt>
      <trkpt lat="46.5765" lon="9.80529">
        <ele>2121.77</ele>
        <time>2012-08-03T12:04:41Z</time>
      </trkpt>
      <trkpt lat="46.57649" lon="9.80517">
        <ele>2120.32</ele>
        <time>2012-08-03T12:04:42Z</time>
      </trkpt>
      <trkpt lat="46.57644" lon="9.80507">
        <ele>2119.36</ele>
        <time>2012-08-03T12:04:43Z</time>
      </trkpt>
      <trkpt lat="46.57636" lon="9.805">
        <ele>2119.36</ele>
        <time>2012-08-03T12:04:44Z</time>
      </trkpt>
      <trkpt lat="46.57626" lon="9.80496">
        <ele>2118.88</ele>
        <time>2012-08-03T12:04:45Z</time>
      </trkpt>
      <trkpt lat="46.57614" lon="9.80493">
        <ele>2117.92</ele>
        <time>2012-08-03T12:04:46Z</time>
      </trkpt>
      <trkpt lat="46.57603" lon="9.80488">
        <ele>2116.48</ele>
        <time>2012-08-03T12:04:47Z</time>
      </trkpt>
      <trkpt lat="46.57592" lon="9.80479">
        <ele>2116</ele>
        <time>2012-08-03T12:04:48Z</time>
      </trkpt>
      <trkpt lat="46.57583" lon="9.80465">
        <ele>2115.52</ele>
        <time>2012-08-03T12:04:49Z</time>
      </trkpt>
      <trkpt lat="46.57575" lon="9.80446">
        <ele>2115.04</ele>
        <time>2012-08-03T12:04:50Z</time>
      </trkpt>
      <trkpt lat="46.57569" lon="9.80425">
        <ele>2114.56</ele>
        <time>2012-08-03T12:04:51Z</time>
      </trkpt>
      <trkpt lat="46.57562" lon="9.80408">
        <ele>2112.63</ele>
        <time>2012-08-03T12:04:52Z</time>
      </trkpt>
      <trkpt lat="46.57555" lon="9.80394">
        <ele>2109.27</ele>
        <time>2012-08-03T12:04:53Z</time>
      </trkpt>
      <trkpt lat="46.5755" lon="9.8038">
        <ele>2107.83</ele>
        <time>2012-08-03T12:04:54Z</time>
      </trkpt>
      <trkpt lat="46.57547" lon="9.80366">
        <ele>2106.39</ele>
        <time>2012-08-03T12:04:55Z</time>
      </trkpt>
      <trkpt lat="46.57547" lon="9.80349">
        <ele>2105.42</ele>
        <time>2012-08-03T12:04:56Z</time>
      </trkpt>
      <trkpt lat="46.57551" lon="9.80331">
        <ele>2105.42</ele>
        <time>2012-08-03T12:04:57Z</time>
      </trkpt>
      <trkpt lat="46.57556" lon="9.80311">
        <ele>2104.94</ele>
        <time>2012-08-03T12:04:58Z</time>
      </trkpt>
      <trkpt lat="46.57563" lon="9.8029">
        <ele>2104.94</ele>
        <time>2012-08-03T12:04:59Z</time>
      </trkpt>
      <trkpt lat="46.57579" lon="9.8025">
        <ele>2101.58</ele>
        <time>2012-08-03T12:05:01Z</time>
      </trkpt>
      <trkpt lat="46.57606" lon="9.80197">
        <ele>2097.73</ele>
        <time>2012-08-03T12:05:04Z</time>
      </trkpt>
      <trkpt lat="46.57623" lon="9.80164">
        <ele>2092.93</ele>
        <time>2012-08-03T12:05:06Z</time>
      </trkpt>
      <trkpt lat="46.57636" lon="9.8014">
        <ele>2090.04</ele>
        <time>2012-08-03T12:05:08Z</time>
      </trkpt>
      <trkpt lat="46.57645" lon="9.80133">
        <ele>2089.56</ele>
        <time>2012-08-03T12:05:09Z</time>
      </trkpt>
      <trkpt lat="46.57655" lon="9.80131">
        <ele>2089.56</ele>
        <time>2012-08-03T12:05:10Z</time>
      </trkpt>
      <trkpt lat="46.57668" lon="9.80128">
        <ele>2090.52</ele>
        <time>2012-08-03T12:05:11Z</time>
      </trkpt>
      <trkpt lat="46.57681" lon="9.8012">
        <ele>2090.52</ele>
        <time>2012-08-03T12:05:12Z</time>
      </trkpt>
      <trkpt lat="46.57695" lon="9.80107">
        <ele>2090.52</ele>
        <time>2012-08-03T12:05:13Z</time>
      </trkpt>
      <trkpt lat="46.57712" lon="9.80094">
        <ele>2090.04</ele>
        <time>2012-08-03T12:05:14Z</time>
      </trkpt>
      <trkpt lat="46.57731" lon="9.80083">
        <ele>2089.56</ele>
        <time>2012-08-03T12:05:15Z</time>
      </trkpt>
      <trkpt lat="46.57749" lon="9.80075">
        <ele>2086.68</ele>
        <time>2012-08-03T12:05:16Z</time>
      </trkpt>
      <trkpt lat="46.5778" lon="9.80062">
        <ele>2081.87</ele>
        <time>2012-08-03T12:05:18Z</time>
      </trkpt>
      <trkpt lat="46.57793" lon="9.80059">
        <ele>2080.43</ele>
        <time>2012-08-03T12:05:19Z</time>
      </trkpt>
      <trkpt lat="46.57807" lon="9.80058">
        <ele>2079.95</ele>
        <time>2012-08-03T12:05:20Z</time>
      </trkpt>
      <trkpt lat="46.57823" lon="9.8006">
        <ele>2079.95</ele>
        <time>2012-08-03T12:05:21Z</time>
      </trkpt>
      <trkpt lat="46.57839" lon="9.80065">
        <ele>2078.03</ele>
        <time>2012-08-03T12:05:22Z</time>
      </trkpt>
      <trkpt lat="46.57855" lon="9.80071">
        <ele>2076.1</ele>
        <time>2012-08-03T12:05:23Z</time>
      </trkpt>
      <trkpt lat="46.57879" lon="9.80082">
        <ele>2071.3</ele>
        <time>2012-08-03T12:05:25Z</time>
      </trkpt>
      <trkpt lat="46.57889" lon="9.80092">
        <ele>2069.86</ele>
        <time>2012-08-03T12:05:26Z</time>
      </trkpt>
      <trkpt lat="46.57898" lon="9.80107">
        <ele>2069.38</ele>
        <time>2012-08-03T12:05:27Z</time>
      </trkpt>
      <trkpt lat="46.57904" lon="9.80126">
        <ele>2069.38</ele>
        <time>2012-08-03T12:05:28Z</time>
      </trkpt>
      <trkpt lat="46.57909" lon="9.80144">
        <ele>2066.49</ele>
        <time>2012-08-03T12:05:29Z</time>
      </trkpt>
      <trkpt lat="46.57916" lon="9.80159">
        <ele>2065.05</ele>
        <time>2012-08-03T12:05:30Z</time>
      </trkpt>
      <trkpt lat="46.57924" lon="9.80171">
        <ele>2063.61</ele>
        <time>2012-08-03T12:05:31Z</time>
      </trkpt>
      <trkpt lat="46.57934" lon="9.8018">
        <ele>2063.13</ele>
        <time>2012-08-03T12:05:32Z</time>
      </trkpt>
      <trkpt lat="46.57945" lon="9.80186">
        <ele>2062.17</ele>
        <time>2012-08-03T12:05:33Z</time>
      </trkpt>
      <trkpt lat="46.57957" lon="9.80189">
        <ele>2061.2</ele>
        <time>2012-08-03T12:05:34Z</time>
      </trkpt>
      <trkpt lat="46.57968" lon="9.80188">
        <ele>2060.24</ele>
        <time>2012-08-03T12:05:35Z</time>
      </trkpt>
      <trkpt lat="46.57979" lon="9.80182">
        <ele>2059.76</ele>
        <time>2012-08-03T12:05:36Z</time>
      </trkpt>
      <trkpt lat="46.5799" lon="9.80174">
        <ele>2058.32</ele>
        <time>2012-08-03T12:05:37Z</time>
      </trkpt>
      <trkpt lat="46.58" lon="9.80164">
        <ele>2057.36</ele>
        <time>2012-08-03T12:05:38Z</time>
      </trkpt>
      <trkpt lat="46.58031" lon="9.80135">
        <ele>2054.47</ele>
        <time>2012-08-03T12:05:41Z</time>
      </trkpt>
      <trkpt lat="46.58051" lon="9.80116">
        <ele>2052.55</ele>
        <time>2012-08-03T12:05:43Z</time>
      </trkpt>
      <trkpt lat="46.58095" lon="9.80073">
        <ele>2050.15</ele>
        <time>2012-08-03T12:05:47Z</time>
      </trkpt>
      <trkpt lat="46.58106" lon="9.8006">
        <ele>2049.67</ele>
        <time>2012-08-03T12:05:48Z</time>
      </trkpt>
      <trkpt lat="46.58135" lon="9.80023">
        <ele>2045.34</ele>
        <time>2012-08-03T12:05:51Z</time>
      </trkpt>
      <trkpt lat="46.58145" lon="9.80013">
        <ele>2044.38</ele>
        <time>2012-08-03T12:05:52Z</time>
      </trkpt>
      <trkpt lat="46.58168" lon="9.79993">
        <ele>2045.34</ele>
        <time>2012-08-03T12:05:54Z</time>
      </trkpt>
      <trkpt lat="46.58178" lon="9.7998">
        <ele>2043.42</ele>
        <time>2012-08-03T12:05:55Z</time>
      </trkpt>
      <trkpt lat="46.58202" lon="9.79944">
        <ele>2039.09</ele>
        <time>2012-08-03T12:05:58Z</time>
      </trkpt>
      <trkpt lat="46.58212" lon="9.79928">
        <ele>2035.73</ele>
        <time>2012-08-03T12:06:01Z</time>
      </trkpt>
      <trkpt lat="46.58214" lon="9.79926">
        <ele>2035.73</ele>
        <time>2012-08-03T12:06:02Z</time>
      </trkpt>
      <trkpt lat="46.58215" lon="9.79924">
        <ele>2035.25</ele>
        <time>2012-08-03T12:06:14Z</time>
      </trkpt>
      <trkpt lat="46.58215" lon="9.79926">
        <ele>2035.73</ele>
        <time>2012-08-03T12:06:42Z</time>
      </trkpt>
      <trkpt lat="46.58214" lon="9.79925">
        <ele>2034.29</ele>
        <time>2012-08-03T12:07:19Z</time>
      </trkpt>
      <trkpt lat="46.58214" lon="9.79923">
        <ele>2034.29</ele>
        <time>2012-08-03T12:07:31Z</time>
      </trkpt>
      <trkpt lat="46.58214" lon="9.79922">
        <ele>2034.29</ele>
        <time>2012-08-03T12:07:34Z</time>
      </trkpt>
      <trkpt lat="46.58217" lon="9.79918">
        <ele>2034.29</ele>
        <time>2012-08-03T12:07:35Z</time>
      </trkpt>
      <trkpt lat="46.58236" lon="9.79887">
        <ele>2032.84</ele>
        <time>2012-08-03T12:07:39Z</time>
      </trkpt>
      <trkpt lat="46.58245" lon="9.79871">
        <ele>2031.88</ele>
        <time>2012-08-03T12:07:41Z</time>
      </trkpt>
      <trkpt lat="46.58263" lon="9.79823">
        <ele>2029</ele>
        <time>2012-08-03T12:07:46Z</time>
      </trkpt>
      <trkpt lat="46.58265" lon="9.79812">
        <ele>2028.52</ele>
        <time>2012-08-03T12:07:47Z</time>
      </trkpt>
      <trkpt lat="46.58267" lon="9.79801">
        <ele>2028.04</ele>
        <time>2012-08-03T12:07:48Z</time>
      </trkpt>
      <trkpt lat="46.58268" lon="9.79789">
        <ele>2027.08</ele>
        <time>2012-08-03T12:07:49Z</time>
      </trkpt>
      <trkpt lat="46.58269" lon="9.79778">
        <ele>2026.12</ele>
        <time>2012-08-03T12:07:50Z</time>
      </trkpt>
      <trkpt lat="46.58268" lon="9.79768">
        <ele>2025.64</ele>
        <time>2012-08-03T12:07:51Z</time>
      </trkpt>
      <trkpt lat="46.58268" lon="9.79742">
        <ele>2023.71</ele>
        <time>2012-08-03T12:07:54Z</time>
      </trkpt>
      <trkpt lat="46.58266" lon="9.79728">
        <ele>2022.75</ele>
        <time>2012-08-03T12:07:58Z</time>
      </trkpt>
      <trkpt lat="46.58261" lon="9.7972">
        <ele>2021.79</ele>
        <time>2012-08-03T12:08:06Z</time>
      </trkpt>
      <trkpt lat="46.58263" lon="9.79721">
        <ele>2021.79</ele>
        <time>2012-08-03T12:08:24Z</time>
      </trkpt>
      <trkpt lat="46.58264" lon="9.79719">
        <ele>2021.79</ele>
        <time>2012-08-03T12:09:00Z</time>
      </trkpt>
      <trkpt lat="46.58264" lon="9.79717">
        <ele>2021.31</ele>
        <time>2012-08-03T12:09:40Z</time>
      </trkpt>
      <trkpt lat="46.58263" lon="9.79721">
        <ele>2021.31</ele>
        <time>2012-08-03T12:10:17Z</time>
      </trkpt>
      <trkpt lat="46.58261" lon="9.79722">
        <ele>2020.83</ele>
        <time>2012-08-03T12:10:58Z</time>
      </trkpt>
      <trkpt lat="46.58261" lon="9.79721">
        <ele>2021.31</ele>
        <time>2012-08-03T12:11:42Z</time>
      </trkpt>
      <trkpt lat="46.58262" lon="9.7972">
        <ele>2021.31</ele>
        <time>2012-08-03T12:12:15Z</time>
      </trkpt>
      <trkpt lat="46.58262" lon="9.79718">
        <ele>2021.79</ele>
        <time>2012-08-03T12:12:32Z</time>
      </trkpt>
      <trkpt lat="46.58262" lon="9.79718">
        <ele>2021.79</ele>
        <time>2012-08-03T12:12:45Z</time>
      </trkpt>
      <trkpt lat="46.58262" lon="9.7971">
        <ele>2021.31</ele>
        <time>2012-08-03T12:12:47Z</time>
      </trkpt>
      <trkpt lat="46.58262" lon="9.79704">
        <ele>2021.79</ele>
        <time>2012-08-03T12:12:48Z</time>
      </trkpt>
      <trkpt lat="46.58262" lon="9.79695">
        <ele>2021.31</ele>
        <time>2012-08-03T12:12:49Z</time>
      </trkpt>
      <trkpt lat="46.5826" lon="9.79686">
        <ele>2021.31</ele>
        <time>2012-08-03T12:12:50Z</time>
      </trkpt>
      <trkpt lat="46.58258" lon="9.79676">
        <ele>2020.35</ele>
        <time>2012-08-03T12:12:51Z</time>
      </trkpt>
      <trkpt lat="46.58256" lon="9.79664">
        <ele>2020.35</ele>
        <time>2012-08-03T12:12:52Z</time>
      </trkpt>
      <trkpt lat="46.58253" lon="9.79653">
        <ele>2019.87</ele>
        <time>2012-08-03T12:12:53Z</time>
      </trkpt>
      <trkpt lat="46.5825" lon="9.7963">
        <ele>2017.94</ele>
        <time>2012-08-03T12:12:55Z</time>
      </trkpt>
      <trkpt lat="46.5825" lon="9.79617">
        <ele>2017.46</ele>
        <time>2012-08-03T12:12:56Z</time>
      </trkpt>
      <trkpt lat="46.5825" lon="9.7958">
        <ele>2014.58</ele>
        <time>2012-08-03T12:12:59Z</time>
      </trkpt>
      <trkpt lat="46.58252" lon="9.79556">
        <ele>2013.62</ele>
        <time>2012-08-03T12:13:01Z</time>
      </trkpt>
      <trkpt lat="46.58262" lon="9.79496">
        <ele>2009.77</ele>
        <time>2012-08-03T12:13:06Z</time>
      </trkpt>
      <trkpt lat="46.58272" lon="9.79457">
        <ele>2006.41</ele>
        <time>2012-08-03T12:13:11Z</time>
      </trkpt>
      <trkpt lat="46.58273" lon="9.79451">
        <ele>2006.41</ele>
        <time>2012-08-03T12:13:12Z</time>
      </trkpt>
      <trkpt lat="46.58285" lon="9.79371">
        <ele>2004.01</ele>
        <time>2012-08-03T12:13:21Z</time>
      </trkpt>
      <trkpt lat="46.58285" lon="9.79339">
        <ele>2003.04</ele>
        <time>2012-08-03T12:13:23Z</time>
      </trkpt>
      <trkpt lat="46.58278" lon="9.79241">
        <ele>1999.2</ele>
        <time>2012-08-03T12:13:28Z</time>
      </trkpt>
      <trkpt lat="46.58277" lon="9.79204">
        <ele>1994.87</ele>
        <time>2012-08-03T12:13:30Z</time>
      </trkpt>
      <trkpt lat="46.58278" lon="9.79152">
        <ele>1991.51</ele>
        <time>2012-08-03T12:13:33Z</time>
      </trkpt>
      <trkpt lat="46.58278" lon="9.79089">
        <ele>1987.66</ele>
        <time>2012-08-03T12:13:37Z</time>
      </trkpt>
      <trkpt lat="46.58277" lon="9.79029">
        <ele>1984.3</ele>
        <time>2012-08-03T12:13:41Z</time>
      </trkpt>
      <trkpt lat="46.58278" lon="9.79014">
        <ele>1982.86</ele>
        <time>2012-08-03T12:13:42Z</time>
      </trkpt>
      <trkpt lat="46.5828" lon="9.78999">
        <ele>1982.86</ele>
        <time>2012-08-03T12:13:43Z</time>
      </trkpt>
      <trkpt lat="46.58285" lon="9.78936">
        <ele>1979.49</ele>
        <time>2012-08-03T12:13:47Z</time>
      </trkpt>
      <trkpt lat="46.58283" lon="9.78878">
        <ele>1975.65</ele>
        <time>2012-08-03T12:13:51Z</time>
      </trkpt>
      <trkpt lat="46.58279" lon="9.7882">
        <ele>1972.76</ele>
        <time>2012-08-03T12:13:55Z</time>
      </trkpt>
      <trkpt lat="46.58272" lon="9.78777">
        <ele>1970.84</ele>
        <time>2012-08-03T12:13:58Z</time>
      </trkpt>
      <trkpt lat="46.58263" lon="9.78718">
        <ele>1967.48</ele>
        <time>2012-08-03T12:14:02Z</time>
      </trkpt>
      <trkpt lat="46.58255" lon="9.78665">
        <ele>1964.59</ele>
        <time>2012-08-03T12:14:06Z</time>
      </trkpt>
      <trkpt lat="46.58252" lon="9.78653">
        <ele>1963.63</ele>
        <time>2012-08-03T12:14:07Z</time>
      </trkpt>
      <trkpt lat="46.58248" lon="9.78641">
        <ele>1963.15</ele>
        <time>2012-08-03T12:14:08Z</time>
      </trkpt>
      <trkpt lat="46.58242" lon="9.78618">
        <ele>1961.71</ele>
        <time>2012-08-03T12:14:10Z</time>
      </trkpt>
      <trkpt lat="46.58239" lon="9.78604">
        <ele>1961.71</ele>
        <time>2012-08-03T12:14:11Z</time>
      </trkpt>
      <trkpt lat="46.58238" lon="9.78589">
        <ele>1960.75</ele>
        <time>2012-08-03T12:14:12Z</time>
      </trkpt>
      <trkpt lat="46.58238" lon="9.78573">
        <ele>1960.27</ele>
        <time>2012-08-03T12:14:13Z</time>
      </trkpt>
      <trkpt lat="46.58243" lon="9.78529">
        <ele>1956.9</ele>
        <time>2012-08-03T12:14:16Z</time>
      </trkpt>
      <trkpt lat="46.58246" lon="9.78515">
        <ele>1955.94</ele>
        <time>2012-08-03T12:14:17Z</time>
      </trkpt>
      <trkpt lat="46.5825" lon="9.78502">
        <ele>1954.98</ele>
        <time>2012-08-03T12:14:18Z</time>
      </trkpt>
      <trkpt lat="46.58265" lon="9.78451">
        <ele>1951.13</ele>
        <time>2012-08-03T12:14:22Z</time>
      </trkpt>
      <trkpt lat="46.58274" lon="9.78411">
        <ele>1949.69</ele>
        <time>2012-08-03T12:14:25Z</time>
      </trkpt>
      <trkpt lat="46.58287" lon="9.7836">
        <ele>1946.81</ele>
        <time>2012-08-03T12:14:29Z</time>
      </trkpt>
      <trkpt lat="46.58289" lon="9.78346">
        <ele>1946.33</ele>
        <time>2012-08-03T12:14:30Z</time>
      </trkpt>
      <trkpt lat="46.58293" lon="9.78312">
        <ele>1942.96</ele>
        <time>2012-08-03T12:14:33Z</time>
      </trkpt>
      <trkpt lat="46.58296" lon="9.78302">
        <ele>1942.96</ele>
        <time>2012-08-03T12:14:34Z</time>
      </trkpt>
      <trkpt lat="46.583" lon="9.78293">
        <ele>1942.48</ele>
        <time>2012-08-03T12:14:35Z</time>
      </trkpt>
      <trkpt lat="46.58306" lon="9.78284">
        <ele>1941.52</ele>
        <time>2012-08-03T12:14:36Z</time>
      </trkpt>
      <trkpt lat="46.58312" lon="9.78276">
        <ele>1940.56</ele>
        <time>2012-08-03T12:14:37Z</time>
      </trkpt>
      <trkpt lat="46.58317" lon="9.78268">
        <ele>1939.6</ele>
        <time>2012-08-03T12:14:38Z</time>
      </trkpt>
      <trkpt lat="46.58321" lon="9.78261">
        <ele>1939.12</ele>
        <time>2012-08-03T12:14:39Z</time>
      </trkpt>
      <trkpt lat="46.58324" lon="9.78256">
        <ele>1937.67</ele>
        <time>2012-08-03T12:14:40Z</time>
      </trkpt>
      <trkpt lat="46.58326" lon="9.78252">
        <ele>1937.67</ele>
        <time>2012-08-03T12:14:41Z</time>
      </trkpt>
      <trkpt lat="46.58329" lon="9.78234">
        <ele>1937.19</ele>
        <time>2012-08-03T12:14:50Z</time>
      </trkpt>
      <trkpt lat="46.58337" lon="9.78209">
        <ele>1934.79</ele>
        <time>2012-08-03T12:14:54Z</time>
      </trkpt>
      <trkpt lat="46.58339" lon="9.78205">
        <ele>1933.83</ele>
        <time>2012-08-03T12:14:55Z</time>
      </trkpt>
      <trkpt lat="46.5834" lon="9.78203">
        <ele>1933.83</ele>
        <time>2012-08-03T12:14:56Z</time>
      </trkpt>
      <trkpt lat="46.58283" lon="9.78291">
        <ele>1942.48</ele>
        <time>2012-08-03T13:09:01Z</time>
      </trkpt>
      <trkpt lat="46.58313" lon="9.7826">
        <ele>1938.64</ele>
        <time>2012-08-03T13:09:09Z</time>
      </trkpt>
      <trkpt lat="46.58316" lon="9.78254">
        <ele>1935.27</ele>
        <time>2012-08-03T13:09:10Z</time>
      </trkpt>
      <trkpt lat="46.58317" lon="9.78249">
        <ele>1940.56</ele>
        <time>2012-08-03T13:09:11Z</time>
      </trkpt>
      <trkpt lat="46.58324" lon="9.78231">
        <ele>1937.19</ele>
        <time>2012-08-03T13:09:14Z</time>
      </trkpt>
      <trkpt lat="46.58327" lon="9.78224">
        <ele>1930.95</ele>
        <time>2012-08-03T13:09:15Z</time>
      </trkpt>
      <trkpt lat="46.5833" lon="9.78216">
        <ele>1929.5</ele>
        <time>2012-08-03T13:09:16Z</time>
      </trkpt>
      <trkpt lat="46.58334" lon="9.78209">
        <ele>1935.27</ele>
        <time>2012-08-03T13:09:17Z</time>
      </trkpt>
      <trkpt lat="46.58337" lon="9.78202">
        <ele>1933.35</ele>
        <time>2012-08-03T13:09:18Z</time>
      </trkpt>
      <trkpt lat="46.5834" lon="9.78197">
        <ele>1932.87</ele>
        <time>2012-08-03T13:09:19Z</time>
      </trkpt>
      <trkpt lat="46.58343" lon="9.78192">
        <ele>1931.43</ele>
        <time>2012-08-03T13:09:20Z</time>
      </trkpt>
      <trkpt lat="46.58351" lon="9.78179">
        <ele>1929.98</ele>
        <time>2012-08-03T13:09:23Z</time>
      </trkpt>
      <trkpt lat="46.58358" lon="9.78173">
        <ele>1926.62</ele>
        <time>2012-08-03T13:09:32Z</time>
      </trkpt>
      <trkpt lat="46.58357" lon="9.78171">
        <ele>1925.18</ele>
        <time>2012-08-03T13:09:44Z</time>
      </trkpt>
      <trkpt lat="46.58356" lon="9.78167">
        <ele>1925.66</ele>
        <time>2012-08-03T13:09:46Z</time>
      </trkpt>
      <trkpt lat="46.5836" lon="9.78161">
        <ele>1925.66</ele>
        <time>2012-08-03T13:09:47Z</time>
      </trkpt>
      <trkpt lat="46.58378" lon="9.78136">
        <ele>1922.29</ele>
        <time>2012-08-03T13:09:52Z</time>
      </trkpt>
      <trkpt lat="46.58388" lon="9.78118">
        <ele>1921.33</ele>
        <time>2012-08-03T13:10:00Z</time>
      </trkpt>
      <trkpt lat="46.58391" lon="9.78113">
        <ele>1921.33</ele>
        <time>2012-08-03T13:10:01Z</time>
      </trkpt>
      <trkpt lat="46.58394" lon="9.78107">
        <ele>1920.85</ele>
        <time>2012-08-03T13:10:02Z</time>
      </trkpt>
      <trkpt lat="46.58408" lon="9.78078">
        <ele>1917.49</ele>
        <time>2012-08-03T13:10:06Z</time>
      </trkpt>
      <trkpt lat="46.58414" lon="9.78071">
        <ele>1917.49</ele>
        <time>2012-08-03T13:10:07Z</time>
      </trkpt>
      <trkpt lat="46.58423" lon="9.78058">
        <ele>1916.53</ele>
        <time>2012-08-03T13:10:08Z</time>
      </trkpt>
      <trkpt lat="46.5843" lon="9.78047">
        <ele>1915.56</ele>
        <time>2012-08-03T13:10:09Z</time>
      </trkpt>
      <trkpt lat="46.58438" lon="9.78032">
        <ele>1915.08</ele>
        <time>2012-08-03T13:10:10Z</time>
      </trkpt>
      <trkpt lat="46.58444" lon="9.78018">
        <ele>1914.12</ele>
        <time>2012-08-03T13:10:11Z</time>
      </trkpt>
      <trkpt lat="46.5845" lon="9.78003">
        <ele>1913.64</ele>
        <time>2012-08-03T13:10:12Z</time>
      </trkpt>
      <trkpt lat="46.58453" lon="9.77987">
        <ele>1913.64</ele>
        <time>2012-08-03T13:10:13Z</time>
      </trkpt>
      <trkpt lat="46.58456" lon="9.77972">
        <ele>1912.2</ele>
        <time>2012-08-03T13:10:14Z</time>
      </trkpt>
      <trkpt lat="46.58459" lon="9.77957">
        <ele>1911.72</ele>
        <time>2012-08-03T13:10:15Z</time>
      </trkpt>
      <trkpt lat="46.58466" lon="9.77929">
        <ele>1910.28</ele>
        <time>2012-08-03T13:10:17Z</time>
      </trkpt>
      <trkpt lat="46.5847" lon="9.77918">
        <ele>1909.8</ele>
        <time>2012-08-03T13:10:18Z</time>
      </trkpt>
      <trkpt lat="46.58482" lon="9.77896">
        <ele>1907.39</ele>
        <time>2012-08-03T13:10:21Z</time>
      </trkpt>
      <trkpt lat="46.58487" lon="9.77893">
        <ele>1906.91</ele>
        <time>2012-08-03T13:10:22Z</time>
      </trkpt>
      <trkpt lat="46.58493" lon="9.77892">
        <ele>1907.39</ele>
        <time>2012-08-03T13:10:23Z</time>
      </trkpt>
      <trkpt lat="46.58499" lon="9.77896">
        <ele>1906.43</ele>
        <time>2012-08-03T13:10:24Z</time>
      </trkpt>
      <trkpt lat="46.58505" lon="9.77903">
        <ele>1906.43</ele>
        <time>2012-08-03T13:10:25Z</time>
      </trkpt>
      <trkpt lat="46.5851" lon="9.77913">
        <ele>1906.43</ele>
        <time>2012-08-03T13:10:26Z</time>
      </trkpt>
      <trkpt lat="46.58515" lon="9.77925">
        <ele>1906.43</ele>
        <time>2012-08-03T13:10:27Z</time>
      </trkpt>
      <trkpt lat="46.58518" lon="9.7794">
        <ele>1906.43</ele>
        <time>2012-08-03T13:10:28Z</time>
      </trkpt>
      <trkpt lat="46.58521" lon="9.77956">
        <ele>1905.47</ele>
        <time>2012-08-03T13:10:29Z</time>
      </trkpt>
      <trkpt lat="46.58523" lon="9.78005">
        <ele>1902.11</ele>
        <time>2012-08-03T13:10:32Z</time>
      </trkpt>
      <trkpt lat="46.58527" lon="9.78034">
        <ele>1900.18</ele>
        <time>2012-08-03T13:10:34Z</time>
      </trkpt>
      <trkpt lat="46.58541" lon="9.78097">
        <ele>1897.3</ele>
        <time>2012-08-03T13:10:39Z</time>
      </trkpt>
      <trkpt lat="46.58541" lon="9.7811">
        <ele>1896.82</ele>
        <time>2012-08-03T13:10:40Z</time>
      </trkpt>
      <trkpt lat="46.5854" lon="9.78123">
        <ele>1896.82</ele>
        <time>2012-08-03T13:10:41Z</time>
      </trkpt>
      <trkpt lat="46.58536" lon="9.78222">
        <ele>1892.97</ele>
        <time>2012-08-03T13:10:48Z</time>
      </trkpt>
      <trkpt lat="46.58533" lon="9.78236">
        <ele>1892.01</ele>
        <time>2012-08-03T13:10:49Z</time>
      </trkpt>
      <trkpt lat="46.58528" lon="9.78248">
        <ele>1891.53</ele>
        <time>2012-08-03T13:10:50Z</time>
      </trkpt>
      <trkpt lat="46.58519" lon="9.78276">
        <ele>1890.57</ele>
        <time>2012-08-03T13:10:52Z</time>
      </trkpt>
      <trkpt lat="46.58504" lon="9.78362">
        <ele>1886.72</ele>
        <time>2012-08-03T13:10:57Z</time>
      </trkpt>
      <trkpt lat="46.58504" lon="9.78378">
        <ele>1885.28</ele>
        <time>2012-08-03T13:10:58Z</time>
      </trkpt>
      <trkpt lat="46.58505" lon="9.78395">
        <ele>1884.32</ele>
        <time>2012-08-03T13:10:59Z</time>
      </trkpt>
      <trkpt lat="46.58507" lon="9.7841">
        <ele>1883.36</ele>
        <time>2012-08-03T13:11:00Z</time>
      </trkpt>
      <trkpt lat="46.58509" lon="9.78426">
        <ele>1882.4</ele>
        <time>2012-08-03T13:11:01Z</time>
      </trkpt>
      <trkpt lat="46.58515" lon="9.78469">
        <ele>1879.03</ele>
        <time>2012-08-03T13:11:04Z</time>
      </trkpt>
      <trkpt lat="46.58519" lon="9.78492">
        <ele>1876.63</ele>
        <time>2012-08-03T13:11:06Z</time>
      </trkpt>
      <trkpt lat="46.58522" lon="9.78499">
        <ele>1875.67</ele>
        <time>2012-08-03T13:11:07Z</time>
      </trkpt>
      <trkpt lat="46.58525" lon="9.78503">
        <ele>1875.67</ele>
        <time>2012-08-03T13:11:08Z</time>
      </trkpt>
      <trkpt lat="46.58527" lon="9.78504">
        <ele>1874.71</ele>
        <time>2012-08-03T13:11:09Z</time>
      </trkpt>
      <trkpt lat="46.58527" lon="9.785">
        <ele>1874.71</ele>
        <time>2012-08-03T13:11:10Z</time>
      </trkpt>
      <trkpt lat="46.58526" lon="9.78491">
        <ele>1875.19</ele>
        <time>2012-08-03T13:11:11Z</time>
      </trkpt>
      <trkpt lat="46.58518" lon="9.78435">
        <ele>1874.23</ele>
        <time>2012-08-03T13:11:15Z</time>
      </trkpt>
      <trkpt lat="46.58521" lon="9.78414">
        <ele>1873.75</ele>
        <time>2012-08-03T13:11:16Z</time>
      </trkpt>
      <trkpt lat="46.58527" lon="9.78393">
        <ele>1870.86</ele>
        <time>2012-08-03T13:11:17Z</time>
      </trkpt>
      <trkpt lat="46.58535" lon="9.78373">
        <ele>1869.42</ele>
        <time>2012-08-03T13:11:18Z</time>
      </trkpt>
      <trkpt lat="46.58543" lon="9.78355">
        <ele>1867.98</ele>
        <time>2012-08-03T13:11:19Z</time>
      </trkpt>
      <trkpt lat="46.58555" lon="9.78336">
        <ele>1866.54</ele>
        <time>2012-08-03T13:11:20Z</time>
      </trkpt>
      <trkpt lat="46.58562" lon="9.78328">
        <ele>1865.58</ele>
        <time>2012-08-03T13:11:21Z</time>
      </trkpt>
      <trkpt lat="46.5858" lon="9.78313">
        <ele>1864.13</ele>
        <time>2012-08-03T13:11:22Z</time>
      </trkpt>
      <trkpt lat="46.5859" lon="9.78302">
        <ele>1863.65</ele>
        <time>2012-08-03T13:11:23Z</time>
      </trkpt>
      <trkpt lat="46.58598" lon="9.78284">
        <ele>1863.17</ele>
        <time>2012-08-03T13:11:24Z</time>
      </trkpt>
      <trkpt lat="46.58604" lon="9.78264">
        <ele>1863.65</ele>
        <time>2012-08-03T13:11:25Z</time>
      </trkpt>
      <trkpt lat="46.58609" lon="9.78242">
        <ele>1861.73</ele>
        <time>2012-08-03T13:11:26Z</time>
      </trkpt>
      <trkpt lat="46.58614" lon="9.78222">
        <ele>1859.81</ele>
        <time>2012-08-03T13:11:27Z</time>
      </trkpt>
      <trkpt lat="46.58618" lon="9.78201">
        <ele>1857.89</ele>
        <time>2012-08-03T13:11:28Z</time>
      </trkpt>
      <trkpt lat="46.5862" lon="9.7818">
        <ele>1856.44</ele>
        <time>2012-08-03T13:11:29Z</time>
      </trkpt>
      <trkpt lat="46.5862" lon="9.78157">
        <ele>1855.96</ele>
        <time>2012-08-03T13:11:30Z</time>
      </trkpt>
      <trkpt lat="46.5862" lon="9.78111">
        <ele>1852.12</ele>
        <time>2012-08-03T13:11:32Z</time>
      </trkpt>
      <trkpt lat="46.58621" lon="9.78091">
        <ele>1850.19</ele>
        <time>2012-08-03T13:11:33Z</time>
      </trkpt>
      <trkpt lat="46.58624" lon="9.78073">
        <ele>1849.23</ele>
        <time>2012-08-03T13:11:34Z</time>
      </trkpt>
      <trkpt lat="46.58631" lon="9.78057">
        <ele>1847.31</ele>
        <time>2012-08-03T13:11:35Z</time>
      </trkpt>
      <trkpt lat="46.58641" lon="9.78042">
        <ele>1846.35</ele>
        <time>2012-08-03T13:11:36Z</time>
      </trkpt>
      <trkpt lat="46.58653" lon="9.78027">
        <ele>1845.87</ele>
        <time>2012-08-03T13:11:37Z</time>
      </trkpt>
      <trkpt lat="46.58666" lon="9.78014">
        <ele>1844.91</ele>
        <time>2012-08-03T13:11:38Z</time>
      </trkpt>
      <trkpt lat="46.58681" lon="9.78004">
        <ele>1843.95</ele>
        <time>2012-08-03T13:11:39Z</time>
      </trkpt>
      <trkpt lat="46.58728" lon="9.77986">
        <ele>1840.58</ele>
        <time>2012-08-03T13:11:42Z</time>
      </trkpt>
      <trkpt lat="46.58771" lon="9.77967">
        <ele>1838.66</ele>
        <time>2012-08-03T13:11:45Z</time>
      </trkpt>
      <trkpt lat="46.58784" lon="9.77958">
        <ele>1837.7</ele>
        <time>2012-08-03T13:11:46Z</time>
      </trkpt>
      <trkpt lat="46.58796" lon="9.77947">
        <ele>1835.77</ele>
        <time>2012-08-03T13:11:47Z</time>
      </trkpt>
      <trkpt lat="46.58807" lon="9.77935">
        <ele>1833.85</ele>
        <time>2012-08-03T13:11:48Z</time>
      </trkpt>
      <trkpt lat="46.58815" lon="9.77922">
        <ele>1832.89</ele>
        <time>2012-08-03T13:11:49Z</time>
      </trkpt>
      <trkpt lat="46.5882" lon="9.77909">
        <ele>1831.45</ele>
        <time>2012-08-03T13:11:50Z</time>
      </trkpt>
      <trkpt lat="46.58825" lon="9.77897">
        <ele>1830.01</ele>
        <time>2012-08-03T13:11:51Z</time>
      </trkpt>
      <trkpt lat="46.58831" lon="9.77886">
        <ele>1828.56</ele>
        <time>2012-08-03T13:11:52Z</time>
      </trkpt>
      <trkpt lat="46.58837" lon="9.77877">
        <ele>1828.56</ele>
        <time>2012-08-03T13:11:53Z</time>
      </trkpt>
      <trkpt lat="46.58848" lon="9.77869">
        <ele>1827.6</ele>
        <time>2012-08-03T13:11:54Z</time>
      </trkpt>
      <trkpt lat="46.58861" lon="9.77862">
        <ele>1826.64</ele>
        <time>2012-08-03T13:11:55Z</time>
      </trkpt>
      <trkpt lat="46.58875" lon="9.77854">
        <ele>1825.68</ele>
        <time>2012-08-03T13:11:56Z</time>
      </trkpt>
      <trkpt lat="46.58888" lon="9.77844">
        <ele>1824.24</ele>
        <time>2012-08-03T13:11:57Z</time>
      </trkpt>
      <trkpt lat="46.58898" lon="9.77832">
        <ele>1823.76</ele>
        <time>2012-08-03T13:11:58Z</time>
      </trkpt>
      <trkpt lat="46.58908" lon="9.77817">
        <ele>1823.28</ele>
        <time>2012-08-03T13:11:59Z</time>
      </trkpt>
      <trkpt lat="46.58926" lon="9.77785">
        <ele>1822.32</ele>
        <time>2012-08-03T13:12:01Z</time>
      </trkpt>
      <trkpt lat="46.58935" lon="9.77771">
        <ele>1821.35</ele>
        <time>2012-08-03T13:12:02Z</time>
      </trkpt>
      <trkpt lat="46.58952" lon="9.77748">
        <ele>1819.91</ele>
        <time>2012-08-03T13:12:04Z</time>
      </trkpt>
      <trkpt lat="46.58958" lon="9.77734">
        <ele>1819.91</ele>
        <time>2012-08-03T13:12:05Z</time>
      </trkpt>
      <trkpt lat="46.58975" lon="9.77677">
        <ele>1817.51</ele>
        <time>2012-08-03T13:12:09Z</time>
      </trkpt>
      <trkpt lat="46.58977" lon="9.77663">
        <ele>1817.03</ele>
        <time>2012-08-03T13:12:10Z</time>
      </trkpt>
      <trkpt lat="46.58977" lon="9.77649">
        <ele>1816.55</ele>
        <time>2012-08-03T13:12:11Z</time>
      </trkpt>
      <trkpt lat="46.58974" lon="9.77605">
        <ele>1815.11</ele>
        <time>2012-08-03T13:12:14Z</time>
      </trkpt>
      <trkpt lat="46.58974" lon="9.7759">
        <ele>1814.63</ele>
        <time>2012-08-03T13:12:15Z</time>
      </trkpt>
      <trkpt lat="46.58976" lon="9.77577">
        <ele>1813.66</ele>
        <time>2012-08-03T13:12:16Z</time>
      </trkpt>
      <trkpt lat="46.58979" lon="9.77565">
        <ele>1813.18</ele>
        <time>2012-08-03T13:12:17Z</time>
      </trkpt>
      <trkpt lat="46.58984" lon="9.77554">
        <ele>1812.22</ele>
        <time>2012-08-03T13:12:18Z</time>
      </trkpt>
      <trkpt lat="46.5899" lon="9.77546">
        <ele>1811.26</ele>
        <time>2012-08-03T13:12:19Z</time>
      </trkpt>
      <trkpt lat="46.58997" lon="9.77538">
        <ele>1811.26</ele>
        <time>2012-08-03T13:12:20Z</time>
      </trkpt>
      <trkpt lat="46.59039" lon="9.775">
        <ele>1810.3</ele>
        <time>2012-08-03T13:12:25Z</time>
      </trkpt>
      <trkpt lat="46.59048" lon="9.77493">
        <ele>1809.82</ele>
        <time>2012-08-03T13:12:26Z</time>
      </trkpt>
      <trkpt lat="46.59075" lon="9.77475">
        <ele>1807.42</ele>
        <time>2012-08-03T13:12:29Z</time>
      </trkpt>
      <trkpt lat="46.59082" lon="9.77466">
        <ele>1806.94</ele>
        <time>2012-08-03T13:12:30Z</time>
      </trkpt>
      <trkpt lat="46.59088" lon="9.77457">
        <ele>1806.45</ele>
        <time>2012-08-03T13:12:31Z</time>
      </trkpt>
      <trkpt lat="46.59116" lon="9.77374">
        <ele>1803.57</ele>
        <time>2012-08-03T13:12:39Z</time>
      </trkpt>
      <trkpt lat="46.5912" lon="9.77354">
        <ele>1802.61</ele>
        <time>2012-08-03T13:12:41Z</time>
      </trkpt>
      <trkpt lat="46.59135" lon="9.77309">
        <ele>1800.69</ele>
        <time>2012-08-03T13:12:45Z</time>
      </trkpt>
      <trkpt lat="46.59159" lon="9.77246">
        <ele>1799.24</ele>
        <time>2012-08-03T13:12:50Z</time>
      </trkpt>
      <trkpt lat="46.59163" lon="9.77231">
        <ele>1798.76</ele>
        <time>2012-08-03T13:12:51Z</time>
      </trkpt>
      <trkpt lat="46.59165" lon="9.77217">
        <ele>1798.28</ele>
        <time>2012-08-03T13:12:52Z</time>
      </trkpt>
      <trkpt lat="46.59164" lon="9.77078">
        <ele>1795.4</ele>
        <time>2012-08-03T13:13:01Z</time>
      </trkpt>
      <trkpt lat="46.5915" lon="9.77001">
        <ele>1792.52</ele>
        <time>2012-08-03T13:13:06Z</time>
      </trkpt>
      <trkpt lat="46.59144" lon="9.76954">
        <ele>1791.07</ele>
        <time>2012-08-03T13:13:09Z</time>
      </trkpt>
      <trkpt lat="46.59143" lon="9.76937">
        <ele>1790.59</ele>
        <time>2012-08-03T13:13:10Z</time>
      </trkpt>
      <trkpt lat="46.59143" lon="9.7692">
        <ele>1790.59</ele>
        <time>2012-08-03T13:13:11Z</time>
      </trkpt>
      <trkpt lat="46.59144" lon="9.76902">
        <ele>1790.59</ele>
        <time>2012-08-03T13:13:12Z</time>
      </trkpt>
      <trkpt lat="46.59146" lon="9.76885">
        <ele>1790.11</ele>
        <time>2012-08-03T13:13:13Z</time>
      </trkpt>
      <trkpt lat="46.59152" lon="9.76865">
        <ele>1789.63</ele>
        <time>2012-08-03T13:13:14Z</time>
      </trkpt>
      <trkpt lat="46.59159" lon="9.76846">
        <ele>1788.67</ele>
        <time>2012-08-03T13:13:15Z</time>
      </trkpt>
      <trkpt lat="46.5917" lon="9.76811">
        <ele>1786.75</ele>
        <time>2012-08-03T13:13:17Z</time>
      </trkpt>
      <trkpt lat="46.59179" lon="9.76774">
        <ele>1786.75</ele>
        <time>2012-08-03T13:13:19Z</time>
      </trkpt>
      <trkpt lat="46.59182" lon="9.76756">
        <ele>1785.79</ele>
        <time>2012-08-03T13:13:20Z</time>
      </trkpt>
      <trkpt lat="46.59184" lon="9.76738">
        <ele>1784.34</ele>
        <time>2012-08-03T13:13:21Z</time>
      </trkpt>
      <trkpt lat="46.59185" lon="9.76721">
        <ele>1784.34</ele>
        <time>2012-08-03T13:13:22Z</time>
      </trkpt>
      <trkpt lat="46.59183" lon="9.76703">
        <ele>1784.34</ele>
        <time>2012-08-03T13:13:23Z</time>
      </trkpt>
      <trkpt lat="46.59179" lon="9.76686">
        <ele>1783.86</ele>
        <time>2012-08-03T13:13:24Z</time>
      </trkpt>
      <trkpt lat="46.59174" lon="9.7667">
        <ele>1783.38</ele>
        <time>2012-08-03T13:13:25Z</time>
      </trkpt>
      <trkpt lat="46.59163" lon="9.76627">
        <ele>1781.94</ele>
        <time>2012-08-03T13:13:28Z</time>
      </trkpt>
      <trkpt lat="46.59162" lon="9.76614">
        <ele>1780.98</ele>
        <time>2012-08-03T13:13:29Z</time>
      </trkpt>
      <trkpt lat="46.59163" lon="9.76601">
        <ele>1780.98</ele>
        <time>2012-08-03T13:13:30Z</time>
      </trkpt>
      <trkpt lat="46.59166" lon="9.76589">
        <ele>1780.5</ele>
        <time>2012-08-03T13:13:31Z</time>
      </trkpt>
      <trkpt lat="46.59169" lon="9.76576">
        <ele>1780.02</ele>
        <time>2012-08-03T13:13:32Z</time>
      </trkpt>
      <trkpt lat="46.59174" lon="9.76563">
        <ele>1780.5</ele>
        <time>2012-08-03T13:13:33Z</time>
      </trkpt>
      <trkpt lat="46.59181" lon="9.7655">
        <ele>1779.54</ele>
        <time>2012-08-03T13:13:34Z</time>
      </trkpt>
      <trkpt lat="46.59188" lon="9.76538">
        <ele>1778.58</ele>
        <time>2012-08-03T13:13:35Z</time>
      </trkpt>
      <trkpt lat="46.59196" lon="9.76526">
        <ele>1777.61</ele>
        <time>2012-08-03T13:13:36Z</time>
      </trkpt>
      <trkpt lat="46.59205" lon="9.76516">
        <ele>1777.13</ele>
        <time>2012-08-03T13:13:37Z</time>
      </trkpt>
      <trkpt lat="46.59213" lon="9.76509">
        <ele>1775.21</ele>
        <time>2012-08-03T13:13:38Z</time>
      </trkpt>
      <trkpt lat="46.5923" lon="9.76496">
        <ele>1773.29</ele>
        <time>2012-08-03T13:13:41Z</time>
      </trkpt>
      <trkpt lat="46.5924" lon="9.76489">
        <ele>1773.29</ele>
        <time>2012-08-03T13:13:47Z</time>
      </trkpt>
      <trkpt lat="46.59254" lon="9.76481">
        <ele>1772.81</ele>
        <time>2012-08-03T13:13:50Z</time>
      </trkpt>
      <trkpt lat="46.5926" lon="9.76475">
        <ele>1773.29</ele>
        <time>2012-08-03T13:13:51Z</time>
      </trkpt>
      <trkpt lat="46.59265" lon="9.76467">
        <ele>1773.29</ele>
        <time>2012-08-03T13:13:52Z</time>
      </trkpt>
      <trkpt lat="46.59269" lon="9.76457">
        <ele>1773.29</ele>
        <time>2012-08-03T13:13:53Z</time>
      </trkpt>
      <trkpt lat="46.59273" lon="9.76445">
        <ele>1773.29</ele>
        <time>2012-08-03T13:13:54Z</time>
      </trkpt>
      <trkpt lat="46.59282" lon="9.76391">
        <ele>1772.81</ele>
        <time>2012-08-03T13:13:58Z</time>
      </trkpt>
      <trkpt lat="46.59282" lon="9.76376">
        <ele>1772.81</ele>
        <time>2012-08-03T13:13:59Z</time>
      </trkpt>
      <trkpt lat="46.5928" lon="9.76307">
        <ele>1772.81</ele>
        <time>2012-08-03T13:14:04Z</time>
      </trkpt>
      <trkpt lat="46.59282" lon="9.76295">
        <ele>1772.33</ele>
        <time>2012-08-03T13:14:05Z</time>
      </trkpt>
      <trkpt lat="46.59285" lon="9.76285">
        <ele>1772.81</ele>
        <time>2012-08-03T13:14:06Z</time>
      </trkpt>
      <trkpt lat="46.59288" lon="9.76275">
        <ele>1773.29</ele>
        <time>2012-08-03T13:14:07Z</time>
      </trkpt>
      <trkpt lat="46.59289" lon="9.76265">
        <ele>1773.29</ele>
        <time>2012-08-03T13:14:08Z</time>
      </trkpt>
      <trkpt lat="46.59289" lon="9.76257">
        <ele>1773.77</ele>
        <time>2012-08-03T13:14:09Z</time>
      </trkpt>
      <trkpt lat="46.59286" lon="9.7625">
        <ele>1773.77</ele>
        <time>2012-08-03T13:14:10Z</time>
      </trkpt>
      <trkpt lat="46.59282" lon="9.76244">
        <ele>1774.73</ele>
        <time>2012-08-03T13:14:11Z</time>
      </trkpt>
      <trkpt lat="46.59279" lon="9.76238">
        <ele>1774.25</ele>
        <time>2012-08-03T13:14:12Z</time>
      </trkpt>
      <trkpt lat="46.59277" lon="9.76231">
        <ele>1774.25</ele>
        <time>2012-08-03T13:14:13Z</time>
      </trkpt>
      <trkpt lat="46.59276" lon="9.76223">
        <ele>1773.77</ele>
        <time>2012-08-03T13:14:14Z</time>
      </trkpt>
      <trkpt lat="46.59277" lon="9.76214">
        <ele>1772.33</ele>
        <time>2012-08-03T13:14:15Z</time>
      </trkpt>
      <trkpt lat="46.59281" lon="9.76207">
        <ele>1772.33</ele>
        <time>2012-08-03T13:14:16Z</time>
      </trkpt>
      <trkpt lat="46.59286" lon="9.76202">
        <ele>1771.37</ele>
        <time>2012-08-03T13:14:17Z</time>
      </trkpt>
      <trkpt lat="46.59322" lon="9.76169">
        <ele>1767.52</ele>
        <time>2012-08-03T13:14:22Z</time>
      </trkpt>
      <trkpt lat="46.59331" lon="9.76163">
        <ele>1766.56</ele>
        <time>2012-08-03T13:14:23Z</time>
      </trkpt>
      <trkpt lat="46.5934" lon="9.7616">
        <ele>1765.6</ele>
        <time>2012-08-03T13:14:24Z</time>
      </trkpt>
      <trkpt lat="46.59347" lon="9.76158">
        <ele>1764.16</ele>
        <time>2012-08-03T13:14:25Z</time>
      </trkpt>
      <trkpt lat="46.594" lon="9.76151">
        <ele>1760.79</ele>
        <time>2012-08-03T13:14:29Z</time>
      </trkpt>
      <trkpt lat="46.59424" lon="9.76144">
        <ele>1756.95</ele>
        <time>2012-08-03T13:14:31Z</time>
      </trkpt>
      <trkpt lat="46.59434" lon="9.76139">
        <ele>1755.5</ele>
        <time>2012-08-03T13:14:32Z</time>
      </trkpt>
      <trkpt lat="46.59453" lon="9.76128">
        <ele>1753.1</ele>
        <time>2012-08-03T13:14:34Z</time>
      </trkpt>
      <trkpt lat="46.59463" lon="9.76127">
        <ele>1751.18</ele>
        <time>2012-08-03T13:14:35Z</time>
      </trkpt>
      <trkpt lat="46.59474" lon="9.76126">
        <ele>1750.22</ele>
        <time>2012-08-03T13:14:36Z</time>
      </trkpt>
      <trkpt lat="46.59484" lon="9.76124">
        <ele>1748.78</ele>
        <time>2012-08-03T13:14:37Z</time>
      </trkpt>
      <trkpt lat="46.59494" lon="9.7612">
        <ele>1747.81</ele>
        <time>2012-08-03T13:14:38Z</time>
      </trkpt>
      <trkpt lat="46.59504" lon="9.76116">
        <ele>1746.85</ele>
        <time>2012-08-03T13:14:39Z</time>
      </trkpt>
      <trkpt lat="46.59523" lon="9.76111">
        <ele>1744.45</ele>
        <time>2012-08-03T13:14:41Z</time>
      </trkpt>
      <trkpt lat="46.59532" lon="9.7611">
        <ele>1743.01</ele>
        <time>2012-08-03T13:14:42Z</time>
      </trkpt>
      <trkpt lat="46.59549" lon="9.76111">
        <ele>1741.08</ele>
        <time>2012-08-03T13:14:44Z</time>
      </trkpt>
      <trkpt lat="46.59556" lon="9.76108">
        <ele>1740.12</ele>
        <time>2012-08-03T13:14:45Z</time>
      </trkpt>
      <trkpt lat="46.59559" lon="9.76104">
        <ele>1740.12</ele>
        <time>2012-08-03T13:14:46Z</time>
      </trkpt>
      <trkpt lat="46.59559" lon="9.76099">
        <ele>1740.12</ele>
        <time>2012-08-03T13:14:47Z</time>
      </trkpt>
      <trkpt lat="46.59557" lon="9.76094">
        <ele>1739.64</ele>
        <time>2012-08-03T13:14:48Z</time>
      </trkpt>
      <trkpt lat="46.59553" lon="9.76092">
        <ele>1739.64</ele>
        <time>2012-08-03T13:14:49Z</time>
      </trkpt>
      <trkpt lat="46.59548" lon="9.76092">
        <ele>1739.16</ele>
        <time>2012-08-03T13:14:50Z</time>
      </trkpt>
      <trkpt lat="46.59542" lon="9.76092">
        <ele>1738.2</ele>
        <time>2012-08-03T13:14:51Z</time>
      </trkpt>
      <trkpt lat="46.59536" lon="9.7609">
        <ele>1737.72</ele>
        <time>2012-08-03T13:14:52Z</time>
      </trkpt>
      <trkpt lat="46.5953" lon="9.76086">
        <ele>1736.76</ele>
        <time>2012-08-03T13:14:53Z</time>
      </trkpt>
      <trkpt lat="46.59525" lon="9.76082">
        <ele>1735.8</ele>
        <time>2012-08-03T13:14:54Z</time>
      </trkpt>
      <trkpt lat="46.59519" lon="9.76079">
        <ele>1735.8</ele>
        <time>2012-08-03T13:14:55Z</time>
      </trkpt>
      <trkpt lat="46.59512" lon="9.76077">
        <ele>1734.84</ele>
        <time>2012-08-03T13:14:56Z</time>
      </trkpt>
      <trkpt lat="46.59506" lon="9.76076">
        <ele>1734.36</ele>
        <time>2012-08-03T13:14:57Z</time>
      </trkpt>
      <trkpt lat="46.595" lon="9.76078">
        <ele>1733.39</ele>
        <time>2012-08-03T13:14:58Z</time>
      </trkpt>
      <trkpt lat="46.59496" lon="9.76079">
        <ele>1732.43</ele>
        <time>2012-08-03T13:14:59Z</time>
      </trkpt>
      <trkpt lat="46.59492" lon="9.76078">
        <ele>1731.95</ele>
        <time>2012-08-03T13:15:00Z</time>
      </trkpt>
      <trkpt lat="46.59488" lon="9.76077">
        <ele>1731.47</ele>
        <time>2012-08-03T13:15:01Z</time>
      </trkpt>
      <trkpt lat="46.59486" lon="9.76076">
        <ele>1731.95</ele>
        <time>2012-08-03T13:15:02Z</time>
      </trkpt>
      <trkpt lat="46.59478" lon="9.76079">
        <ele>1730.99</ele>
        <time>2012-08-03T13:15:16Z</time>
      </trkpt>
      <trkpt lat="46.59473" lon="9.76085">
        <ele>1731.47</ele>
        <time>2012-08-03T13:15:33Z</time>
      </trkpt>
      <trkpt lat="46.59465" lon="9.76087">
        <ele>1731.47</ele>
        <time>2012-08-03T13:15:59Z</time>
      </trkpt>
      <trkpt lat="46.59461" lon="9.76087">
        <ele>1731.47</ele>
        <time>2012-08-03T13:16:25Z</time>
      </trkpt>
      <trkpt lat="46.59458" lon="9.76087">
        <ele>1730.99</ele>
        <time>2012-08-03T13:16:52Z</time>
      </trkpt>
      <trkpt lat="46.59455" lon="9.76087">
        <ele>1731.47</ele>
        <time>2012-08-03T13:17:17Z</time>
      </trkpt>
      <trkpt lat="46.59451" lon="9.76087">
        <ele>1731.95</ele>
        <time>2012-08-03T13:17:41Z</time>
      </trkpt>
      <trkpt lat="46.59452" lon="9.76085">
        <ele>1730.99</ele>
        <time>2012-08-03T13:18:09Z</time>
      </trkpt>
      <trkpt lat="46.59449" lon="9.76083">
        <ele>1731.47</ele>
        <time>2012-08-03T13:18:36Z</time>
      </trkpt>
      <trkpt lat="46.59451" lon="9.76085">
        <ele>1731.47</ele>
        <time>2012-08-03T13:19:05Z</time>
      </trkpt>
      <trkpt lat="46.5945" lon="9.76082">
        <ele>1730.99</ele>
        <time>2012-08-03T13:19:29Z</time>
      </trkpt>
      <trkpt lat="46.59448" lon="9.76081">
        <ele>1730.99</ele>
        <time>2012-08-03T13:19:55Z</time>
      </trkpt>
      <trkpt lat="46.59447" lon="9.7608">
        <ele>1730.99</ele>
        <time>2012-08-03T13:20:22Z</time>
      </trkpt>
      <trkpt lat="46.59449" lon="9.76081">
        <ele>1730.99</ele>
        <time>2012-08-03T13:20:45Z</time>
      </trkpt>
      <trkpt lat="46.60334" lon="9.75495">
        <ele>1619</ele>
        <time>2012-08-03T13:27:57Z</time>
      </trkpt>
      <trkpt lat="46.60346" lon="9.75489">
        <ele>1618.04</ele>
        <time>2012-08-03T13:27:58Z</time>
      </trkpt>
      <trkpt lat="46.60354" lon="9.75485">
        <ele>1617.56</ele>
        <time>2012-08-03T13:27:59Z</time>
      </trkpt>
      <trkpt lat="46.60375" lon="9.75472">
        <ele>1616.11</ele>
        <time>2012-08-03T13:28:01Z</time>
      </trkpt>
      <trkpt lat="46.60374" lon="9.75468">
        <ele>1615.15</ele>
        <time>2012-08-03T13:28:02Z</time>
      </trkpt>
      <trkpt lat="46.60382" lon="9.7547">
        <ele>1614.19</ele>
        <time>2012-08-03T13:28:03Z</time>
      </trkpt>
      <trkpt lat="46.60402" lon="9.75486">
        <ele>1612.27</ele>
        <time>2012-08-03T13:28:06Z</time>
      </trkpt>
      <trkpt lat="46.60407" lon="9.75494">
        <ele>1612.27</ele>
        <time>2012-08-03T13:28:07Z</time>
      </trkpt>
      <trkpt lat="46.6041" lon="9.75502">
        <ele>1611.31</ele>
        <time>2012-08-03T13:28:08Z</time>
      </trkpt>
      <trkpt lat="46.60417" lon="9.75543">
        <ele>1607.94</ele>
        <time>2012-08-03T13:28:11Z</time>
      </trkpt>
      <trkpt lat="46.60423" lon="9.75558">
        <ele>1607.46</ele>
        <time>2012-08-03T13:28:12Z</time>
      </trkpt>
      <trkpt lat="46.60429" lon="9.75568">
        <ele>1606.02</ele>
        <time>2012-08-03T13:28:13Z</time>
      </trkpt>
      <trkpt lat="46.60437" lon="9.75576">
        <ele>1605.54</ele>
        <time>2012-08-03T13:28:14Z</time>
      </trkpt>
      <trkpt lat="46.60446" lon="9.75582">
        <ele>1604.58</ele>
        <time>2012-08-03T13:28:15Z</time>
      </trkpt>
      <trkpt lat="46.60457" lon="9.75587">
        <ele>1603.14</ele>
        <time>2012-08-03T13:28:16Z</time>
      </trkpt>
      <trkpt lat="46.6049" lon="9.75596">
        <ele>1599.77</ele>
        <time>2012-08-03T13:28:19Z</time>
      </trkpt>
      <trkpt lat="46.60506" lon="9.75597">
        <ele>1598.81</ele>
        <time>2012-08-03T13:28:20Z</time>
      </trkpt>
      <trkpt lat="46.6052" lon="9.75596">
        <ele>1597.85</ele>
        <time>2012-08-03T13:28:21Z</time>
      </trkpt>
      <trkpt lat="46.60551" lon="9.75587">
        <ele>1594.48</ele>
        <time>2012-08-03T13:28:24Z</time>
      </trkpt>
      <trkpt lat="46.60575" lon="9.75575">
        <ele>1591.12</ele>
        <time>2012-08-03T13:28:27Z</time>
      </trkpt>
      <trkpt lat="46.60598" lon="9.7556">
        <ele>1587.75</ele>
        <time>2012-08-03T13:28:30Z</time>
      </trkpt>
      <trkpt lat="46.60614" lon="9.75551">
        <ele>1585.83</ele>
        <time>2012-08-03T13:28:32Z</time>
      </trkpt>
      <trkpt lat="46.60622" lon="9.75549">
        <ele>1584.87</ele>
        <time>2012-08-03T13:28:33Z</time>
      </trkpt>
      <trkpt lat="46.60629" lon="9.75548">
        <ele>1583.43</ele>
        <time>2012-08-03T13:28:34Z</time>
      </trkpt>
      <trkpt lat="46.60636" lon="9.7555">
        <ele>1582.47</ele>
        <time>2012-08-03T13:28:35Z</time>
      </trkpt>
      <trkpt lat="46.60644" lon="9.75555">
        <ele>1581.51</ele>
        <time>2012-08-03T13:28:36Z</time>
      </trkpt>
      <trkpt lat="46.60653" lon="9.75562">
        <ele>1580.54</ele>
        <time>2012-08-03T13:28:37Z</time>
      </trkpt>
      <trkpt lat="46.60662" lon="9.75569">
        <ele>1579.1</ele>
        <time>2012-08-03T13:28:38Z</time>
      </trkpt>
      <trkpt lat="46.60693" lon="9.75597">
        <ele>1575.74</ele>
        <time>2012-08-03T13:28:41Z</time>
      </trkpt>
      <trkpt lat="46.60709" lon="9.7561">
        <ele>1574.78</ele>
        <time>2012-08-03T13:28:42Z</time>
      </trkpt>
      <trkpt lat="46.6072" lon="9.75622">
        <ele>1573.33</ele>
        <time>2012-08-03T13:28:43Z</time>
      </trkpt>
      <trkpt lat="46.60731" lon="9.75632">
        <ele>1572.37</ele>
        <time>2012-08-03T13:28:44Z</time>
      </trkpt>
      <trkpt lat="46.60743" lon="9.7564">
        <ele>1571.41</ele>
        <time>2012-08-03T13:28:45Z</time>
      </trkpt>
      <trkpt lat="46.60753" lon="9.75646">
        <ele>1569.49</ele>
        <time>2012-08-03T13:28:46Z</time>
      </trkpt>
      <trkpt lat="46.60764" lon="9.75649">
        <ele>1568.53</ele>
        <time>2012-08-03T13:28:47Z</time>
      </trkpt>
      <trkpt lat="46.60806" lon="9.75649">
        <ele>1564.68</ele>
        <time>2012-08-03T13:28:50Z</time>
      </trkpt>
      <trkpt lat="46.60852" lon="9.75653">
        <ele>1562.28</ele>
        <time>2012-08-03T13:28:53Z</time>
      </trkpt>
      <trkpt lat="46.60868" lon="9.7566">
        <ele>1561.8</ele>
        <time>2012-08-03T13:28:54Z</time>
      </trkpt>
      <trkpt lat="46.60882" lon="9.7567">
        <ele>1560.36</ele>
        <time>2012-08-03T13:28:55Z</time>
      </trkpt>
      <trkpt lat="46.60895" lon="9.75677">
        <ele>1558.92</ele>
        <time>2012-08-03T13:28:56Z</time>
      </trkpt>
      <trkpt lat="46.60917" lon="9.75687">
        <ele>1556.03</ele>
        <time>2012-08-03T13:28:58Z</time>
      </trkpt>
      <trkpt lat="46.60951" lon="9.75694">
        <ele>1553.63</ele>
        <time>2012-08-03T13:29:00Z</time>
      </trkpt>
      <trkpt lat="46.60965" lon="9.75697">
        <ele>1551.71</ele>
        <time>2012-08-03T13:29:01Z</time>
      </trkpt>
      <trkpt lat="46.60998" lon="9.75709">
        <ele>1548.34</ele>
        <time>2012-08-03T13:29:04Z</time>
      </trkpt>
      <trkpt lat="46.61007" lon="9.75717">
        <ele>1547.38</ele>
        <time>2012-08-03T13:29:05Z</time>
      </trkpt>
      <trkpt lat="46.61029" lon="9.75735">
        <ele>1544.01</ele>
        <time>2012-08-03T13:29:07Z</time>
      </trkpt>
      <trkpt lat="46.61038" lon="9.75742">
        <ele>1544.01</ele>
        <time>2012-08-03T13:29:08Z</time>
      </trkpt>
      <trkpt lat="46.61073" lon="9.75758">
        <ele>1540.65</ele>
        <time>2012-08-03T13:29:11Z</time>
      </trkpt>
      <trkpt lat="46.61098" lon="9.75766">
        <ele>1538.73</ele>
        <time>2012-08-03T13:29:13Z</time>
      </trkpt>
      <trkpt lat="46.61144" lon="9.75786">
        <ele>1534.88</ele>
        <time>2012-08-03T13:29:16Z</time>
      </trkpt>
      <trkpt lat="46.61163" lon="9.75797">
        <ele>1532.96</ele>
        <time>2012-08-03T13:29:17Z</time>
      </trkpt>
      <trkpt lat="46.61179" lon="9.75805">
        <ele>1531.04</ele>
        <time>2012-08-03T13:29:18Z</time>
      </trkpt>
      <trkpt lat="46.61211" lon="9.75824">
        <ele>1528.63</ele>
        <time>2012-08-03T13:29:20Z</time>
      </trkpt>
      <trkpt lat="46.61227" lon="9.75833">
        <ele>1526.71</ele>
        <time>2012-08-03T13:29:21Z</time>
      </trkpt>
      <trkpt lat="46.61243" lon="9.7584">
        <ele>1525.27</ele>
        <time>2012-08-03T13:29:22Z</time>
      </trkpt>
      <trkpt lat="46.61257" lon="9.75844">
        <ele>1523.83</ele>
        <time>2012-08-03T13:29:23Z</time>
      </trkpt>
      <trkpt lat="46.61273" lon="9.75845">
        <ele>1522.87</ele>
        <time>2012-08-03T13:29:24Z</time>
      </trkpt>
      <trkpt lat="46.61304" lon="9.7584">
        <ele>1519.02</ele>
        <time>2012-08-03T13:29:26Z</time>
      </trkpt>
      <trkpt lat="46.61324" lon="9.75836">
        <ele>1517.58</ele>
        <time>2012-08-03T13:29:27Z</time>
      </trkpt>
      <trkpt lat="46.6134" lon="9.75834">
        <ele>1516.62</ele>
        <time>2012-08-03T13:29:28Z</time>
      </trkpt>
      <trkpt lat="46.61356" lon="9.75836">
        <ele>1515.66</ele>
        <time>2012-08-03T13:29:29Z</time>
      </trkpt>
      <trkpt lat="46.61372" lon="9.75839">
        <ele>1515.66</ele>
        <time>2012-08-03T13:29:30Z</time>
      </trkpt>
      <trkpt lat="46.61407" lon="9.75848">
        <ele>1512.77</ele>
        <time>2012-08-03T13:29:32Z</time>
      </trkpt>
      <trkpt lat="46.61426" lon="9.75851">
        <ele>1511.33</ele>
        <time>2012-08-03T13:29:33Z</time>
      </trkpt>
      <trkpt lat="46.61445" lon="9.75855">
        <ele>1509.89</ele>
        <time>2012-08-03T13:29:34Z</time>
      </trkpt>
      <trkpt lat="46.61453" lon="9.75858">
        <ele>1509.41</ele>
        <time>2012-08-03T13:29:35Z</time>
      </trkpt>
      <trkpt lat="46.61459" lon="9.75864">
        <ele>1507.97</ele>
        <time>2012-08-03T13:29:36Z</time>
      </trkpt>
      <trkpt lat="46.61469" lon="9.75879">
        <ele>1505.56</ele>
        <time>2012-08-03T13:29:39Z</time>
      </trkpt>
      <trkpt lat="46.61479" lon="9.75881">
        <ele>1504.12</ele>
        <time>2012-08-03T13:29:40Z</time>
      </trkpt>
      <trkpt lat="46.615" lon="9.7588">
        <ele>1501.24</ele>
        <time>2012-08-03T13:29:42Z</time>
      </trkpt>
      <trkpt lat="46.61538" lon="9.75883">
        <ele>1506.04</ele>
        <time>2012-08-03T13:29:45Z</time>
      </trkpt>
      <trkpt lat="46.61551" lon="9.75882">
        <ele>1508.93</ele>
        <time>2012-08-03T13:29:46Z</time>
      </trkpt>
      <trkpt lat="46.61568" lon="9.75878">
        <ele>1511.81</ele>
        <time>2012-08-03T13:29:47Z</time>
      </trkpt>
      <trkpt lat="46.61632" lon="9.75861">
        <ele>1507.48</ele>
        <time>2012-08-03T13:29:51Z</time>
      </trkpt>
      <trkpt lat="46.61651" lon="9.75858">
        <ele>1506.04</ele>
        <time>2012-08-03T13:29:52Z</time>
      </trkpt>
      <trkpt lat="46.617" lon="9.7585">
        <ele>1502.68</ele>
        <time>2012-08-03T13:29:55Z</time>
      </trkpt>
      <trkpt lat="46.61712" lon="9.75849">
        <ele>1501.72</ele>
        <time>2012-08-03T13:29:56Z</time>
      </trkpt>
      <trkpt lat="46.61721" lon="9.75848">
        <ele>1501.24</ele>
        <time>2012-08-03T13:29:57Z</time>
      </trkpt>
      <trkpt lat="46.6174" lon="9.75853">
        <ele>1499.79</ele>
        <time>2012-08-03T13:29:58Z</time>
      </trkpt>
      <trkpt lat="46.61753" lon="9.75858">
        <ele>1499.79</ele>
        <time>2012-08-03T13:29:59Z</time>
      </trkpt>
      <trkpt lat="46.61767" lon="9.75863">
        <ele>1498.83</ele>
        <time>2012-08-03T13:30:00Z</time>
      </trkpt>
      <trkpt lat="46.61791" lon="9.75865">
        <ele>1495.95</ele>
        <time>2012-08-03T13:30:02Z</time>
      </trkpt>
      <trkpt lat="46.61835" lon="9.7585">
        <ele>1493.55</ele>
        <time>2012-08-03T13:30:06Z</time>
      </trkpt>
      <trkpt lat="46.61846" lon="9.75842">
        <ele>1493.06</ele>
        <time>2012-08-03T13:30:07Z</time>
      </trkpt>
      <trkpt lat="46.61859" lon="9.75831">
        <ele>1492.58</ele>
        <time>2012-08-03T13:30:08Z</time>
      </trkpt>
      <trkpt lat="46.61883" lon="9.75804">
        <ele>1491.14</ele>
        <time>2012-08-03T13:30:10Z</time>
      </trkpt>
      <trkpt lat="46.61899" lon="9.75743">
        <ele>1486.82</ele>
        <time>2012-08-03T13:30:14Z</time>
      </trkpt>
      <trkpt lat="46.61887" lon="9.75712">
        <ele>1493.06</ele>
        <time>2012-08-03T13:30:16Z</time>
      </trkpt>
      <trkpt lat="46.61874" lon="9.75685">
        <ele>1498.35</ele>
        <time>2012-08-03T13:30:18Z</time>
      </trkpt>
      <trkpt lat="46.61875" lon="9.75673">
        <ele>1500.76</ele>
        <time>2012-08-03T13:30:19Z</time>
      </trkpt>
      <trkpt lat="46.61935" lon="9.75615">
        <ele>1500.27</ele>
        <time>2012-08-03T13:30:25Z</time>
      </trkpt>
      <trkpt lat="46.61945" lon="9.75602">
        <ele>1499.31</ele>
        <time>2012-08-03T13:30:26Z</time>
      </trkpt>
      <trkpt lat="46.61965" lon="9.75571">
        <ele>1497.39</ele>
        <time>2012-08-03T13:30:28Z</time>
      </trkpt>
      <trkpt lat="46.61974" lon="9.75554">
        <ele>1496.43</ele>
        <time>2012-08-03T13:30:29Z</time>
      </trkpt>
      <trkpt lat="46.61985" lon="9.75519">
        <ele>1494.99</ele>
        <time>2012-08-03T13:30:31Z</time>
      </trkpt>
      <trkpt lat="46.61986" lon="9.75503">
        <ele>1492.58</ele>
        <time>2012-08-03T13:30:32Z</time>
      </trkpt>
      <trkpt lat="46.61993" lon="9.75475">
        <ele>1490.66</ele>
        <time>2012-08-03T13:30:34Z</time>
      </trkpt>
      <trkpt lat="46.62" lon="9.75463">
        <ele>1490.18</ele>
        <time>2012-08-03T13:30:35Z</time>
      </trkpt>
      <trkpt lat="46.62005" lon="9.75452">
        <ele>1489.22</ele>
        <time>2012-08-03T13:30:36Z</time>
      </trkpt>
      <trkpt lat="46.6202" lon="9.75432">
        <ele>1488.26</ele>
        <time>2012-08-03T13:30:38Z</time>
      </trkpt>
      <trkpt lat="46.62044" lon="9.75413">
        <ele>1486.34</ele>
        <time>2012-08-03T13:30:40Z</time>
      </trkpt>
      <trkpt lat="46.62071" lon="9.75392">
        <ele>1486.34</ele>
        <time>2012-08-03T13:30:42Z</time>
      </trkpt>
      <trkpt lat="46.62087" lon="9.75383">
        <ele>1484.89</ele>
        <time>2012-08-03T13:30:43Z</time>
      </trkpt>
      <trkpt lat="46.62103" lon="9.75373">
        <ele>1483.45</ele>
        <time>2012-08-03T13:30:44Z</time>
      </trkpt>
      <trkpt lat="46.62119" lon="9.75365">
        <ele>1482.97</ele>
        <time>2012-08-03T13:30:45Z</time>
      </trkpt>
      <trkpt lat="46.6216" lon="9.75351">
        <ele>1480.09</ele>
        <time>2012-08-03T13:30:47Z</time>
      </trkpt>
      <trkpt lat="46.61988" lon="9.75257">
        <ele>1477.2</ele>
        <time>2012-08-03T13:30:52Z</time>
      </trkpt>
      <trkpt lat="46.62038" lon="9.75227">
        <ele>1471.44</ele>
        <time>2012-08-03T13:30:56Z</time>
      </trkpt>
      <trkpt lat="46.62049" lon="9.75219">
        <ele>1468.07</ele>
        <time>2012-08-03T13:30:57Z</time>
      </trkpt>
      <trkpt lat="46.62061" lon="9.75212">
        <ele>1464.71</ele>
        <time>2012-08-03T13:30:58Z</time>
      </trkpt>
      <trkpt lat="46.62073" lon="9.75204">
        <ele>1460.38</ele>
        <time>2012-08-03T13:30:59Z</time>
      </trkpt>
      <trkpt lat="46.62095" lon="9.75185">
        <ele>1455.09</ele>
        <time>2012-08-03T13:31:01Z</time>
      </trkpt>
      <trkpt lat="46.62106" lon="9.75175">
        <ele>1451.73</ele>
        <time>2012-08-03T13:31:02Z</time>
      </trkpt>
      <trkpt lat="46.62117" lon="9.75164">
        <ele>1448.36</ele>
        <time>2012-08-03T13:31:03Z</time>
      </trkpt>
      <trkpt lat="46.62138" lon="9.75142">
        <ele>1444.04</ele>
        <time>2012-08-03T13:31:05Z</time>
      </trkpt>
      <trkpt lat="46.6216" lon="9.75121">
        <ele>1438.75</ele>
        <time>2012-08-03T13:31:07Z</time>
      </trkpt>
      <trkpt lat="46.62181" lon="9.75105">
        <ele>1434.42</ele>
        <time>2012-08-03T13:31:09Z</time>
      </trkpt>
      <trkpt lat="46.62191" lon="9.75098">
        <ele>1432.5</ele>
        <time>2012-08-03T13:31:10Z</time>
      </trkpt>
      <trkpt lat="46.62201" lon="9.75095">
        <ele>1430.1</ele>
        <time>2012-08-03T13:31:11Z</time>
      </trkpt>
      <trkpt lat="46.62211" lon="9.75093">
        <ele>1427.7</ele>
        <time>2012-08-03T13:31:12Z</time>
      </trkpt>
      <trkpt lat="46.62243" lon="9.7509">
        <ele>1423.37</ele>
        <time>2012-08-03T13:31:15Z</time>
      </trkpt>
      <trkpt lat="46.62269" lon="9.75087">
        <ele>1420</ele>
        <time>2012-08-03T13:31:17Z</time>
      </trkpt>
      <trkpt lat="46.62296" lon="9.75084">
        <ele>1416.64</ele>
        <time>2012-08-03T13:31:19Z</time>
      </trkpt>
      <trkpt lat="46.62324" lon="9.75083">
        <ele>1413.76</ele>
        <time>2012-08-03T13:31:21Z</time>
      </trkpt>
      <trkpt lat="46.62365" lon="9.75076">
        <ele>1409.43</ele>
        <time>2012-08-03T13:31:24Z</time>
      </trkpt>
      <trkpt lat="46.62405" lon="9.7506">
        <ele>1405.58</ele>
        <time>2012-08-03T13:31:27Z</time>
      </trkpt>
      <trkpt lat="46.62455" lon="9.75032">
        <ele>1401.74</ele>
        <time>2012-08-03T13:31:31Z</time>
      </trkpt>
      <trkpt lat="46.62517" lon="9.74996">
        <ele>1398.37</ele>
        <time>2012-08-03T13:31:36Z</time>
      </trkpt>
      <trkpt lat="46.62585" lon="9.74952">
        <ele>1395.49</ele>
        <time>2012-08-03T13:31:42Z</time>
      </trkpt>
      <trkpt lat="46.62595" lon="9.74943">
        <ele>1395.01</ele>
        <time>2012-08-03T13:31:43Z</time>
      </trkpt>
      <trkpt lat="46.6264" lon="9.74887">
        <ele>1393.09</ele>
        <time>2012-08-03T13:31:49Z</time>
      </trkpt>
      <trkpt lat="46.62646" lon="9.74882">
        <ele>1391.17</ele>
        <time>2012-08-03T13:31:50Z</time>
      </trkpt>
      <trkpt lat="46.62651" lon="9.74878">
        <ele>1390.68</ele>
        <time>2012-08-03T13:31:51Z</time>
      </trkpt>
      <trkpt lat="46.62656" lon="9.74876">
        <ele>1390.2</ele>
        <time>2012-08-03T13:31:52Z</time>
      </trkpt>
      <trkpt lat="46.62661" lon="9.74875">
        <ele>1390.68</ele>
        <time>2012-08-03T13:31:53Z</time>
      </trkpt>
      <trkpt lat="46.62671" lon="9.74876">
        <ele>1389.72</ele>
        <time>2012-08-03T13:31:55Z</time>
      </trkpt>
      <trkpt lat="46.62676" lon="9.74874">
        <ele>1389.24</ele>
        <time>2012-08-03T13:31:56Z</time>
      </trkpt>
      <trkpt lat="46.6268" lon="9.74869">
        <ele>1389.24</ele>
        <time>2012-08-03T13:31:57Z</time>
      </trkpt>
      <trkpt lat="46.62684" lon="9.74863">
        <ele>1389.24</ele>
        <time>2012-08-03T13:31:58Z</time>
      </trkpt>
      <trkpt lat="46.62687" lon="9.74856">
        <ele>1388.76</ele>
        <time>2012-08-03T13:31:59Z</time>
      </trkpt>
      <trkpt lat="46.62698" lon="9.74839">
        <ele>1388.28</ele>
        <time>2012-08-03T13:32:02Z</time>
      </trkpt>
      <trkpt lat="46.62703" lon="9.74835">
        <ele>1388.76</ele>
        <time>2012-08-03T13:32:03Z</time>
      </trkpt>
      <trkpt lat="46.62731" lon="9.7481">
        <ele>1386.36</ele>
        <time>2012-08-03T13:32:09Z</time>
      </trkpt>
      <trkpt lat="46.62741" lon="9.74796">
        <ele>1384.44</ele>
        <time>2012-08-03T13:32:11Z</time>
      </trkpt>
      <trkpt lat="46.62765" lon="9.7477">
        <ele>1381.55</ele>
        <time>2012-08-03T13:32:16Z</time>
      </trkpt>
      <trkpt lat="46.6277" lon="9.74763">
        <ele>1381.07</ele>
        <time>2012-08-03T13:32:17Z</time>
      </trkpt>
      <trkpt lat="46.6279" lon="9.7474">
        <ele>1379.15</ele>
        <time>2012-08-03T13:32:20Z</time>
      </trkpt>
      <trkpt lat="46.62795" lon="9.74731">
        <ele>1378.19</ele>
        <time>2012-08-03T13:32:21Z</time>
      </trkpt>
      <trkpt lat="46.628" lon="9.74722">
        <ele>1377.71</ele>
        <time>2012-08-03T13:32:22Z</time>
      </trkpt>
      <trkpt lat="46.62813" lon="9.74698">
        <ele>1375.78</ele>
        <time>2012-08-03T13:32:25Z</time>
      </trkpt>
      <trkpt lat="46.62841" lon="9.74635">
        <ele>1373.38</ele>
        <time>2012-08-03T13:32:33Z</time>
      </trkpt>
      <trkpt lat="46.6288" lon="9.74579">
        <ele>1372.9</ele>
        <time>2012-08-03T13:32:43Z</time>
      </trkpt>
      <trkpt lat="46.6288" lon="9.74562">
        <ele>1372.42</ele>
        <time>2012-08-03T13:59:35Z</time>
      </trkpt>
      <trkpt lat="46.62882" lon="9.74564">
        <ele>1372.42</ele>
        <time>2012-08-03T13:59:36Z</time>
      </trkpt>
      <trkpt lat="46.62878" lon="9.7456">
        <ele>1375.3</ele>
        <time>2012-08-03T13:59:52Z</time>
      </trkpt>
      <trkpt lat="46.62878" lon="9.7456">
        <ele>1371.94</ele>
        <time>2012-08-03T13:59:54Z</time>
      </trkpt>
      <trkpt lat="46.62878" lon="9.7456">
        <ele>1375.3</ele>
        <time>2012-08-03T13:59:56Z</time>
      </trkpt>
      <trkpt lat="46.62877" lon="9.74558">
        <ele>1378.67</ele>
        <time>2012-08-03T14:00:12Z</time>
      </trkpt>
      <trkpt lat="46.62877" lon="9.74558">
        <ele>1379.63</ele>
        <time>2012-08-03T14:00:16Z</time>
      </trkpt>
      <trkpt lat="46.62878" lon="9.74562">
        <ele>1382.03</ele>
        <time>2012-08-03T14:00:32Z</time>
      </trkpt>
      <trkpt lat="46.62882" lon="9.74559">
        <ele>1382.51</ele>
        <time>2012-08-03T14:00:34Z</time>
      </trkpt>
      <trkpt lat="46.62886" lon="9.74554">
        <ele>1382.03</ele>
        <time>2012-08-03T14:00:35Z</time>
      </trkpt>
      <trkpt lat="46.62901" lon="9.74542">
        <ele>1382.51</ele>
        <time>2012-08-03T14:00:39Z</time>
      </trkpt>
      <trkpt lat="46.62904" lon="9.74545">
        <ele>1381.55</ele>
        <time>2012-08-03T14:00:40Z</time>
      </trkpt>
      <trkpt lat="46.62921" lon="9.74577">
        <ele>1381.55</ele>
        <time>2012-08-03T14:00:45Z</time>
      </trkpt>
      <trkpt lat="46.62924" lon="9.74585">
        <ele>1381.55</ele>
        <time>2012-08-03T14:00:46Z</time>
      </trkpt>
      <trkpt lat="46.62929" lon="9.74601">
        <ele>1381.07</ele>
        <time>2012-08-03T14:00:48Z</time>
      </trkpt>
      <trkpt lat="46.62934" lon="9.74607">
        <ele>1380.59</ele>
        <time>2012-08-03T14:00:49Z</time>
      </trkpt>
      <trkpt lat="46.6294" lon="9.74611">
        <ele>1380.11</ele>
        <time>2012-08-03T14:00:50Z</time>
      </trkpt>
      <trkpt lat="46.62947" lon="9.74613">
        <ele>1380.59</ele>
        <time>2012-08-03T14:00:51Z</time>
      </trkpt>
      <trkpt lat="46.62954" lon="9.74616">
        <ele>1379.63</ele>
        <time>2012-08-03T14:00:52Z</time>
      </trkpt>
      <trkpt lat="46.62996" lon="9.74635">
        <ele>1378.67</ele>
        <time>2012-08-03T14:00:58Z</time>
      </trkpt>
      <trkpt lat="46.63002" lon="9.74635">
        <ele>1378.67</ele>
        <time>2012-08-03T14:00:59Z</time>
      </trkpt>
      <trkpt lat="46.63008" lon="9.74634">
        <ele>1378.67</ele>
        <time>2012-08-03T14:01:00Z</time>
      </trkpt>
      <trkpt lat="46.63013" lon="9.74631">
        <ele>1379.15</ele>
        <time>2012-08-03T14:01:01Z</time>
      </trkpt>
      <trkpt lat="46.63016" lon="9.74627">
        <ele>1379.15</ele>
        <time>2012-08-03T14:01:02Z</time>
      </trkpt>
      <trkpt lat="46.6302" lon="9.7462">
        <ele>1379.15</ele>
        <time>2012-08-03T14:01:03Z</time>
      </trkpt>
      <trkpt lat="46.63024" lon="9.74611">
        <ele>1379.15</ele>
        <time>2012-08-03T14:01:04Z</time>
      </trkpt>
      <trkpt lat="46.63036" lon="9.74579">
        <ele>1379.15</ele>
        <time>2012-08-03T14:01:07Z</time>
      </trkpt>
      <trkpt lat="46.6306" lon="9.74533">
        <ele>1379.63</ele>
        <time>2012-08-03T14:01:11Z</time>
      </trkpt>
      <trkpt lat="46.63068" lon="9.74523">
        <ele>1379.63</ele>
        <time>2012-08-03T14:01:12Z</time>
      </trkpt>
      <trkpt lat="46.63076" lon="9.74513">
        <ele>1379.63</ele>
        <time>2012-08-03T14:01:13Z</time>
      </trkpt>
      <trkpt lat="46.63109" lon="9.74477">
        <ele>1365.69</ele>
        <time>2012-08-03T14:01:17Z</time>
      </trkpt>
      <trkpt lat="46.63118" lon="9.74468">
        <ele>1379.15</ele>
        <time>2012-08-03T14:01:18Z</time>
      </trkpt>
      <trkpt lat="46.63127" lon="9.74459">
        <ele>1375.3</ele>
        <time>2012-08-03T14:01:19Z</time>
      </trkpt>
      <trkpt lat="46.63155" lon="9.74434">
        <ele>1379.63</ele>
        <time>2012-08-03T14:01:22Z</time>
      </trkpt>
      <trkpt lat="46.63165" lon="9.74428">
        <ele>1376.75</ele>
        <time>2012-08-03T14:01:23Z</time>
      </trkpt>
      <trkpt lat="46.63253" lon="9.74393">
        <ele>1373.38</ele>
        <time>2012-08-03T14:01:30Z</time>
      </trkpt>
      <trkpt lat="46.63268" lon="9.74387">
        <ele>1373.38</ele>
        <time>2012-08-03T14:01:32Z</time>
      </trkpt>
      <trkpt lat="46.63285" lon="9.7438">
        <ele>1376.26</ele>
        <time>2012-08-03T14:01:33Z</time>
      </trkpt>
      <trkpt lat="46.63307" lon="9.74368">
        <ele>1374.82</ele>
        <time>2012-08-03T14:01:35Z</time>
      </trkpt>
      <trkpt lat="46.63318" lon="9.7436">
        <ele>1374.82</ele>
        <time>2012-08-03T14:01:36Z</time>
      </trkpt>
      <trkpt lat="46.63329" lon="9.74351">
        <ele>1374.82</ele>
        <time>2012-08-03T14:01:37Z</time>
      </trkpt>
      <trkpt lat="46.63338" lon="9.7434">
        <ele>1375.3</ele>
        <time>2012-08-03T14:01:38Z</time>
      </trkpt>
      <trkpt lat="46.63347" lon="9.74328">
        <ele>1376.26</ele>
        <time>2012-08-03T14:01:39Z</time>
      </trkpt>
      <trkpt lat="46.63356" lon="9.74316">
        <ele>1377.23</ele>
        <time>2012-08-03T14:01:40Z</time>
      </trkpt>
      <trkpt lat="46.63363" lon="9.74302">
        <ele>1379.15</ele>
        <time>2012-08-03T14:01:41Z</time>
      </trkpt>
      <trkpt lat="46.63371" lon="9.74288">
        <ele>1375.78</ele>
        <time>2012-08-03T14:01:42Z</time>
      </trkpt>
      <trkpt lat="46.63386" lon="9.7426">
        <ele>1380.11</ele>
        <time>2012-08-03T14:01:44Z</time>
      </trkpt>
      <trkpt lat="46.63394" lon="9.74246">
        <ele>1383.47</ele>
        <time>2012-08-03T14:01:45Z</time>
      </trkpt>
      <trkpt lat="46.63402" lon="9.74231">
        <ele>1378.67</ele>
        <time>2012-08-03T14:01:46Z</time>
      </trkpt>
      <trkpt lat="46.63454" lon="9.74146">
        <ele>1378.67</ele>
        <time>2012-08-03T14:01:52Z</time>
      </trkpt>
      <trkpt lat="46.63463" lon="9.74129">
        <ele>1378.67</ele>
        <time>2012-08-03T14:01:53Z</time>
      </trkpt>
      <trkpt lat="46.63511" lon="9.74029">
        <ele>1375.78</ele>
        <time>2012-08-03T14:01:59Z</time>
      </trkpt>
      <trkpt lat="46.63567" lon="9.73954">
        <ele>1373.38</ele>
        <time>2012-08-03T14:02:04Z</time>
      </trkpt>
      <trkpt lat="46.63579" lon="9.73942">
        <ele>1372.42</ele>
        <time>2012-08-03T14:02:05Z</time>
      </trkpt>
      <trkpt lat="46.63591" lon="9.73929">
        <ele>1372.42</ele>
        <time>2012-08-03T14:02:06Z</time>
      </trkpt>
      <trkpt lat="46.63602" lon="9.73913">
        <ele>1372.42</ele>
        <time>2012-08-03T14:02:07Z</time>
      </trkpt>
      <trkpt lat="46.63613" lon="9.73895">
        <ele>1370.98</ele>
        <time>2012-08-03T14:02:08Z</time>
      </trkpt>
      <trkpt lat="46.63657" lon="9.73804">
        <ele>1367.61</ele>
        <time>2012-08-03T14:02:13Z</time>
      </trkpt>
      <trkpt lat="46.63688" lon="9.73733">
        <ele>1364.73</ele>
        <time>2012-08-03T14:02:17Z</time>
      </trkpt>
      <trkpt lat="46.63693" lon="9.73715">
        <ele>1364.73</ele>
        <time>2012-08-03T14:02:18Z</time>
      </trkpt>
      <trkpt lat="46.63697" lon="9.73695">
        <ele>1364.73</ele>
        <time>2012-08-03T14:02:19Z</time>
      </trkpt>
      <trkpt lat="46.63699" lon="9.73676">
        <ele>1364.73</ele>
        <time>2012-08-03T14:02:20Z</time>
      </trkpt>
      <trkpt lat="46.63701" lon="9.73656">
        <ele>1363.77</ele>
        <time>2012-08-03T14:02:21Z</time>
      </trkpt>
      <trkpt lat="46.63704" lon="9.73638">
        <ele>1363.77</ele>
        <time>2012-08-03T14:02:22Z</time>
      </trkpt>
      <trkpt lat="46.63708" lon="9.7362">
        <ele>1362.81</ele>
        <time>2012-08-03T14:02:23Z</time>
      </trkpt>
      <trkpt lat="46.63712" lon="9.736">
        <ele>1362.81</ele>
        <time>2012-08-03T14:02:24Z</time>
      </trkpt>
      <trkpt lat="46.6372" lon="9.7354">
        <ele>1359.44</ele>
        <time>2012-08-03T14:02:27Z</time>
      </trkpt>
      <trkpt lat="46.63725" lon="9.73505">
        <ele>1355.6</ele>
        <time>2012-08-03T14:02:29Z</time>
      </trkpt>
      <trkpt lat="46.63729" lon="9.73486">
        <ele>1355.12</ele>
        <time>2012-08-03T14:02:30Z</time>
      </trkpt>
      <trkpt lat="46.63736" lon="9.73467">
        <ele>1353.67</ele>
        <time>2012-08-03T14:02:31Z</time>
      </trkpt>
      <trkpt lat="46.6375" lon="9.73432">
        <ele>1349.83</ele>
        <time>2012-08-03T14:02:33Z</time>
      </trkpt>
      <trkpt lat="46.63756" lon="9.73415">
        <ele>1348.87</ele>
        <time>2012-08-03T14:02:34Z</time>
      </trkpt>
      <trkpt lat="46.6376" lon="9.73399">
        <ele>1346.94</ele>
        <time>2012-08-03T14:02:35Z</time>
      </trkpt>
      <trkpt lat="46.63763" lon="9.73383">
        <ele>1345.02</ele>
        <time>2012-08-03T14:02:36Z</time>
      </trkpt>
      <trkpt lat="46.63768" lon="9.73368">
        <ele>1344.06</ele>
        <time>2012-08-03T14:02:37Z</time>
      </trkpt>
      <trkpt lat="46.63774" lon="9.73354">
        <ele>1343.1</ele>
        <time>2012-08-03T14:02:38Z</time>
      </trkpt>
      <trkpt lat="46.6378" lon="9.7334">
        <ele>1341.66</ele>
        <time>2012-08-03T14:02:39Z</time>
      </trkpt>
      <trkpt lat="46.63788" lon="9.73326">
        <ele>1339.73</ele>
        <time>2012-08-03T14:02:40Z</time>
      </trkpt>
      <trkpt lat="46.63797" lon="9.73315">
        <ele>1338.77</ele>
        <time>2012-08-03T14:02:41Z</time>
      </trkpt>
      <trkpt lat="46.63809" lon="9.73305">
        <ele>1337.81</ele>
        <time>2012-08-03T14:02:42Z</time>
      </trkpt>
      <trkpt lat="46.6382" lon="9.73296">
        <ele>1336.85</ele>
        <time>2012-08-03T14:02:43Z</time>
      </trkpt>
      <trkpt lat="46.63835" lon="9.73282">
        <ele>1334.93</ele>
        <time>2012-08-03T14:02:44Z</time>
      </trkpt>
      <trkpt lat="46.63847" lon="9.73273">
        <ele>1333.49</ele>
        <time>2012-08-03T14:02:45Z</time>
      </trkpt>
      <trkpt lat="46.6386" lon="9.73265">
        <ele>1332.04</ele>
        <time>2012-08-03T14:02:46Z</time>
      </trkpt>
      <trkpt lat="46.63873" lon="9.73257">
        <ele>1329.64</ele>
        <time>2012-08-03T14:02:47Z</time>
      </trkpt>
      <trkpt lat="46.63891" lon="9.73244">
        <ele>1326.76</ele>
        <time>2012-08-03T14:02:49Z</time>
      </trkpt>
      <trkpt lat="46.63905" lon="9.73236">
        <ele>1324.83</ele>
        <time>2012-08-03T14:02:50Z</time>
      </trkpt>
      <trkpt lat="46.63914" lon="9.73235">
        <ele>1323.87</ele>
        <time>2012-08-03T14:02:51Z</time>
      </trkpt>
      <trkpt lat="46.63922" lon="9.73238">
        <ele>1322.91</ele>
        <time>2012-08-03T14:02:52Z</time>
      </trkpt>
      <trkpt lat="46.63952" lon="9.73246">
        <ele>1318.59</ele>
        <time>2012-08-03T14:02:55Z</time>
      </trkpt>
      <trkpt lat="46.63981" lon="9.73252">
        <ele>1315.22</ele>
        <time>2012-08-03T14:02:58Z</time>
      </trkpt>
      <trkpt lat="46.63997" lon="9.73262">
        <ele>1314.74</ele>
        <time>2012-08-03T14:02:59Z</time>
      </trkpt>
      <trkpt lat="46.64008" lon="9.7327">
        <ele>1313.3</ele>
        <time>2012-08-03T14:03:00Z</time>
      </trkpt>
      <trkpt lat="46.64018" lon="9.73278">
        <ele>1312.82</ele>
        <time>2012-08-03T14:03:01Z</time>
      </trkpt>
      <trkpt lat="46.64027" lon="9.73287">
        <ele>1311.86</ele>
        <time>2012-08-03T14:03:02Z</time>
      </trkpt>
      <trkpt lat="46.64032" lon="9.73294">
        <ele>1310.9</ele>
        <time>2012-08-03T14:03:03Z</time>
      </trkpt>
      <trkpt lat="46.64044" lon="9.73316">
        <ele>1309.93</ele>
        <time>2012-08-03T14:03:10Z</time>
      </trkpt>
      <trkpt lat="46.64052" lon="9.73344">
        <ele>1309.93</ele>
        <time>2012-08-03T14:03:33Z</time>
      </trkpt>
      <trkpt lat="46.64056" lon="9.73349">
        <ele>1308.97</ele>
        <time>2012-08-03T14:03:34Z</time>
      </trkpt>
      <trkpt lat="46.6406" lon="9.73352">
        <ele>1308.49</ele>
        <time>2012-08-03T14:03:35Z</time>
      </trkpt>
      <trkpt lat="46.64062" lon="9.73353">
        <ele>1308.49</ele>
        <time>2012-08-03T14:03:36Z</time>
      </trkpt>
      <trkpt lat="46.64069" lon="9.73356">
        <ele>1307.53</ele>
        <time>2012-08-03T14:03:46Z</time>
      </trkpt>
      <trkpt lat="46.64072" lon="9.73356">
        <ele>1308.01</ele>
        <time>2012-08-03T14:03:52Z</time>
      </trkpt>
      <trkpt lat="46.64077" lon="9.73355">
        <ele>1308.01</ele>
        <time>2012-08-03T14:03:53Z</time>
      </trkpt>
      <trkpt lat="46.64085" lon="9.73353">
        <ele>1307.53</ele>
        <time>2012-08-03T14:03:54Z</time>
      </trkpt>
      <trkpt lat="46.64094" lon="9.73349">
        <ele>1307.05</ele>
        <time>2012-08-03T14:03:55Z</time>
      </trkpt>
      <trkpt lat="46.64103" lon="9.73345">
        <ele>1306.09</ele>
        <time>2012-08-03T14:03:56Z</time>
      </trkpt>
      <trkpt lat="46.64112" lon="9.73341">
        <ele>1305.13</ele>
        <time>2012-08-03T14:03:57Z</time>
      </trkpt>
      <trkpt lat="46.64121" lon="9.7334">
        <ele>1304.17</ele>
        <time>2012-08-03T14:03:58Z</time>
      </trkpt>
      <trkpt lat="46.64131" lon="9.73341">
        <ele>1302.72</ele>
        <time>2012-08-03T14:03:59Z</time>
      </trkpt>
      <trkpt lat="46.6414" lon="9.73345">
        <ele>1302.24</ele>
        <time>2012-08-03T14:04:00Z</time>
      </trkpt>
      <trkpt lat="46.6415" lon="9.73352">
        <ele>1301.76</ele>
        <time>2012-08-03T14:04:01Z</time>
      </trkpt>
      <trkpt lat="46.6416" lon="9.7336">
        <ele>1300.8</ele>
        <time>2012-08-03T14:04:02Z</time>
      </trkpt>
      <trkpt lat="46.64171" lon="9.73368">
        <ele>1299.36</ele>
        <time>2012-08-03T14:04:03Z</time>
      </trkpt>
      <trkpt lat="46.64193" lon="9.73381">
        <ele>1295.99</ele>
        <time>2012-08-03T14:04:05Z</time>
      </trkpt>
      <trkpt lat="46.64205" lon="9.73384">
        <ele>1294.55</ele>
        <time>2012-08-03T14:04:06Z</time>
      </trkpt>
      <trkpt lat="46.64216" lon="9.73386">
        <ele>1293.59</ele>
        <time>2012-08-03T14:04:07Z</time>
      </trkpt>
      <trkpt lat="46.64226" lon="9.73386">
        <ele>1292.63</ele>
        <time>2012-08-03T14:04:08Z</time>
      </trkpt>
      <trkpt lat="46.64236" lon="9.73383">
        <ele>1291.67</ele>
        <time>2012-08-03T14:04:09Z</time>
      </trkpt>
      <trkpt lat="46.64247" lon="9.73377">
        <ele>1290.23</ele>
        <time>2012-08-03T14:04:10Z</time>
      </trkpt>
      <trkpt lat="46.64258" lon="9.73367">
        <ele>1289.27</ele>
        <time>2012-08-03T14:04:11Z</time>
      </trkpt>
      <trkpt lat="46.64268" lon="9.73354">
        <ele>1287.82</ele>
        <time>2012-08-03T14:04:12Z</time>
      </trkpt>
      <trkpt lat="46.64275" lon="9.7334">
        <ele>1286.38</ele>
        <time>2012-08-03T14:04:13Z</time>
      </trkpt>
      <trkpt lat="46.64282" lon="9.73324">
        <ele>1285.9</ele>
        <time>2012-08-03T14:04:14Z</time>
      </trkpt>
      <trkpt lat="46.64291" lon="9.73306">
        <ele>1284.46</ele>
        <time>2012-08-03T14:04:15Z</time>
      </trkpt>
      <trkpt lat="46.64308" lon="9.73271">
        <ele>1280.61</ele>
        <time>2012-08-03T14:04:17Z</time>
      </trkpt>
      <trkpt lat="46.64328" lon="9.73233">
        <ele>1277.25</ele>
        <time>2012-08-03T14:04:19Z</time>
      </trkpt>
      <trkpt lat="46.6434" lon="9.73212">
        <ele>1275.33</ele>
        <time>2012-08-03T14:04:20Z</time>
      </trkpt>
      <trkpt lat="46.64351" lon="9.73193">
        <ele>1273.88</ele>
        <time>2012-08-03T14:04:21Z</time>
      </trkpt>
      <trkpt lat="46.64372" lon="9.73155">
        <ele>1270.52</ele>
        <time>2012-08-03T14:04:23Z</time>
      </trkpt>
      <trkpt lat="46.64382" lon="9.73137">
        <ele>1268.6</ele>
        <time>2012-08-03T14:04:24Z</time>
      </trkpt>
      <trkpt lat="46.64391" lon="9.73118">
        <ele>1266.19</ele>
        <time>2012-08-03T14:04:25Z</time>
      </trkpt>
      <trkpt lat="46.64411" lon="9.73082">
        <ele>1261.39</ele>
        <time>2012-08-03T14:04:27Z</time>
      </trkpt>
      <trkpt lat="46.64425" lon="9.73057">
        <ele>1257.54</ele>
        <time>2012-08-03T14:04:28Z</time>
      </trkpt>
      <trkpt lat="46.64432" lon="9.73051">
        <ele>1257.06</ele>
        <time>2012-08-03T14:04:29Z</time>
      </trkpt>
      <trkpt lat="46.64458" lon="9.73029">
        <ele>1254.66</ele>
        <time>2012-08-03T14:04:31Z</time>
      </trkpt>
      <trkpt lat="46.64469" lon="9.73015">
        <ele>1252.74</ele>
        <time>2012-08-03T14:04:32Z</time>
      </trkpt>
      <trkpt lat="46.64479" lon="9.73">
        <ele>1251.29</ele>
        <time>2012-08-03T14:04:33Z</time>
      </trkpt>
      <trkpt lat="46.64488" lon="9.72984">
        <ele>1248.89</ele>
        <time>2012-08-03T14:04:34Z</time>
      </trkpt>
      <trkpt lat="46.64499" lon="9.72965">
        <ele>1245.53</ele>
        <time>2012-08-03T14:04:35Z</time>
      </trkpt>
      <trkpt lat="46.64504" lon="9.72955">
        <ele>1244.08</ele>
        <time>2012-08-03T14:04:36Z</time>
      </trkpt>
      <trkpt lat="46.64514" lon="9.72937">
        <ele>1241.2</ele>
        <time>2012-08-03T14:04:38Z</time>
      </trkpt>
      <trkpt lat="46.64517" lon="9.72932">
        <ele>1240.24</ele>
        <time>2012-08-03T14:04:39Z</time>
      </trkpt>
      <trkpt lat="46.64518" lon="9.72923">
        <ele>1239.76</ele>
        <time>2012-08-03T14:04:40Z</time>
      </trkpt>
      <trkpt lat="46.64508" lon="9.72907">
        <ele>1239.28</ele>
        <time>2012-08-03T14:04:44Z</time>
      </trkpt>
      <trkpt lat="46.64501" lon="9.72907">
        <ele>1238.8</ele>
        <time>2012-08-03T14:04:45Z</time>
      </trkpt>
      <trkpt lat="46.64493" lon="9.72909">
        <ele>1237.83</ele>
        <time>2012-08-03T14:04:46Z</time>
      </trkpt>
      <trkpt lat="46.64478" lon="9.72915">
        <ele>1235.91</ele>
        <time>2012-08-03T14:04:47Z</time>
      </trkpt>
      <trkpt lat="46.64473" lon="9.72921">
        <ele>1233.99</ele>
        <time>2012-08-03T14:04:48Z</time>
      </trkpt>
      <trkpt lat="46.64466" lon="9.72927">
        <ele>1232.55</ele>
        <time>2012-08-03T14:04:49Z</time>
      </trkpt>
      <trkpt lat="46.64458" lon="9.72933">
        <ele>1230.62</ele>
        <time>2012-08-03T14:04:50Z</time>
      </trkpt>
      <trkpt lat="46.64447" lon="9.72939">
        <ele>1229.18</ele>
        <time>2012-08-03T14:04:51Z</time>
      </trkpt>
      <trkpt lat="46.64438" lon="9.72939">
        <ele>1228.22</ele>
        <time>2012-08-03T14:04:52Z</time>
      </trkpt>
      <trkpt lat="46.64418" lon="9.72938">
        <ele>1226.78</ele>
        <time>2012-08-03T14:04:54Z</time>
      </trkpt>
      <trkpt lat="46.64411" lon="9.72945">
        <ele>1226.78</ele>
        <time>2012-08-03T14:04:55Z</time>
      </trkpt>
      <trkpt lat="46.64408" lon="9.7295">
        <ele>1227.26</ele>
        <time>2012-08-03T14:04:56Z</time>
      </trkpt>
      <trkpt lat="46.64405" lon="9.72951">
        <ele>1226.78</ele>
        <time>2012-08-03T14:04:57Z</time>
      </trkpt>
      <trkpt lat="46.64402" lon="9.72952">
        <ele>1226.78</ele>
        <time>2012-08-03T14:04:58Z</time>
      </trkpt>
      <trkpt lat="46.64485" lon="9.7294">
        <ele>1226.3</ele>
        <time>2012-08-03T14:04:59Z</time>
      </trkpt>
      <trkpt lat="46.64494" lon="9.72916">
        <ele>1224.86</ele>
        <time>2012-08-03T14:05:00Z</time>
      </trkpt>
      <trkpt lat="46.645" lon="9.72891">
        <ele>1222.93</ele>
        <time>2012-08-03T14:05:01Z</time>
      </trkpt>
      <trkpt lat="46.64506" lon="9.72868">
        <ele>1221.01</ele>
        <time>2012-08-03T14:05:02Z</time>
      </trkpt>
      <trkpt lat="46.6451" lon="9.72846">
        <ele>1218.13</ele>
        <time>2012-08-03T14:05:03Z</time>
      </trkpt>
      <trkpt lat="46.64523" lon="9.72801">
        <ele>1216.69</ele>
        <time>2012-08-03T14:05:05Z</time>
      </trkpt>
      <trkpt lat="46.64532" lon="9.72781">
        <ele>1213.8</ele>
        <time>2012-08-03T14:05:06Z</time>
      </trkpt>
      <trkpt lat="46.64542" lon="9.72763">
        <ele>1212.36</ele>
        <time>2012-08-03T14:05:07Z</time>
      </trkpt>
      <trkpt lat="46.64556" lon="9.72751">
        <ele>1211.4</ele>
        <time>2012-08-03T14:05:08Z</time>
      </trkpt>
      <trkpt lat="46.64566" lon="9.7273">
        <ele>1210.92</ele>
        <time>2012-08-03T14:05:09Z</time>
      </trkpt>
      <trkpt lat="46.64581" lon="9.72685">
        <ele>1208.03</ele>
        <time>2012-08-03T14:05:11Z</time>
      </trkpt>
      <trkpt lat="46.64589" lon="9.72663">
        <ele>1205.15</ele>
        <time>2012-08-03T14:05:12Z</time>
      </trkpt>
      <trkpt lat="46.64605" lon="9.72616">
        <ele>1202.75</ele>
        <time>2012-08-03T14:05:14Z</time>
      </trkpt>
      <trkpt lat="46.64618" lon="9.72569">
        <ele>1198.9</ele>
        <time>2012-08-03T14:05:16Z</time>
      </trkpt>
      <trkpt lat="46.64627" lon="9.72524">
        <ele>1195.54</ele>
        <time>2012-08-03T14:05:18Z</time>
      </trkpt>
      <trkpt lat="46.64633" lon="9.72503">
        <ele>1192.65</ele>
        <time>2012-08-03T14:05:19Z</time>
      </trkpt>
      <trkpt lat="46.64641" lon="9.72484">
        <ele>1191.21</ele>
        <time>2012-08-03T14:05:20Z</time>
      </trkpt>
      <trkpt lat="46.64652" lon="9.72465">
        <ele>1190.25</ele>
        <time>2012-08-03T14:05:21Z</time>
      </trkpt>
      <trkpt lat="46.64664" lon="9.72446">
        <ele>1189.77</ele>
        <time>2012-08-03T14:05:22Z</time>
      </trkpt>
      <trkpt lat="46.64694" lon="9.72411">
        <ele>1186.88</ele>
        <time>2012-08-03T14:05:24Z</time>
      </trkpt>
      <trkpt lat="46.64721" lon="9.72376">
        <ele>1183.04</ele>
        <time>2012-08-03T14:05:26Z</time>
      </trkpt>
      <trkpt lat="46.64732" lon="9.72356">
        <ele>1181.6</ele>
        <time>2012-08-03T14:05:27Z</time>
      </trkpt>
      <trkpt lat="46.64741" lon="9.72332">
        <ele>1180.64</ele>
        <time>2012-08-03T14:05:28Z</time>
      </trkpt>
      <trkpt lat="46.64749" lon="9.72307">
        <ele>1178.71</ele>
        <time>2012-08-03T14:05:29Z</time>
      </trkpt>
      <trkpt lat="46.64755" lon="9.72282">
        <ele>1176.79</ele>
        <time>2012-08-03T14:05:30Z</time>
      </trkpt>
      <trkpt lat="46.64768" lon="9.72238">
        <ele>1171.98</ele>
        <time>2012-08-03T14:05:32Z</time>
      </trkpt>
      <trkpt lat="46.64776" lon="9.72219">
        <ele>1170.54</ele>
        <time>2012-08-03T14:05:33Z</time>
      </trkpt>
      <trkpt lat="46.64785" lon="9.72202">
        <ele>1169.58</ele>
        <time>2012-08-03T14:05:34Z</time>
      </trkpt>
      <trkpt lat="46.64796" lon="9.72187">
        <ele>1167.66</ele>
        <time>2012-08-03T14:05:35Z</time>
      </trkpt>
      <trkpt lat="46.64808" lon="9.72174">
        <ele>1166.22</ele>
        <time>2012-08-03T14:05:36Z</time>
      </trkpt>
      <trkpt lat="46.64824" lon="9.72164">
        <ele>1165.74</ele>
        <time>2012-08-03T14:05:37Z</time>
      </trkpt>
      <trkpt lat="46.64841" lon="9.72158">
        <ele>1165.26</ele>
        <time>2012-08-03T14:05:38Z</time>
      </trkpt>
      <trkpt lat="46.64859" lon="9.72151">
        <ele>1163.81</ele>
        <time>2012-08-03T14:05:39Z</time>
      </trkpt>
      <trkpt lat="46.64877" lon="9.72141">
        <ele>1162.85</ele>
        <time>2012-08-03T14:05:40Z</time>
      </trkpt>
      <trkpt lat="46.64896" lon="9.72128">
        <ele>1162.85</ele>
        <time>2012-08-03T14:05:41Z</time>
      </trkpt>
      <trkpt lat="46.64915" lon="9.72111">
        <ele>1160.93</ele>
        <time>2012-08-03T14:05:42Z</time>
      </trkpt>
      <trkpt lat="46.64935" lon="9.72091">
        <ele>1159.01</ele>
        <time>2012-08-03T14:05:43Z</time>
      </trkpt>
      <trkpt lat="46.64973" lon="9.72053">
        <ele>1155.64</ele>
        <time>2012-08-03T14:05:45Z</time>
      </trkpt>
      <trkpt lat="46.65003" lon="9.72016">
        <ele>1152.28</ele>
        <time>2012-08-03T14:05:47Z</time>
      </trkpt>
      <trkpt lat="46.65018" lon="9.71999">
        <ele>1151.8</ele>
        <time>2012-08-03T14:05:48Z</time>
      </trkpt>
      <trkpt lat="46.65034" lon="9.71987">
        <ele>1151.8</ele>
        <time>2012-08-03T14:05:49Z</time>
      </trkpt>
      <trkpt lat="46.65052" lon="9.7198">
        <ele>1152.28</ele>
        <time>2012-08-03T14:05:50Z</time>
      </trkpt>
      <trkpt lat="46.65088" lon="9.71972">
        <ele>1150.35</ele>
        <time>2012-08-03T14:05:52Z</time>
      </trkpt>
      <trkpt lat="46.65105" lon="9.71966">
        <ele>1149.87</ele>
        <time>2012-08-03T14:05:53Z</time>
      </trkpt>
      <trkpt lat="46.6512" lon="9.71955">
        <ele>1149.39</ele>
        <time>2012-08-03T14:05:54Z</time>
      </trkpt>
      <trkpt lat="46.65133" lon="9.71939">
        <ele>1149.39</ele>
        <time>2012-08-03T14:05:55Z</time>
      </trkpt>
      <trkpt lat="46.65144" lon="9.7192">
        <ele>1148.91</ele>
        <time>2012-08-03T14:05:56Z</time>
      </trkpt>
      <trkpt lat="46.65152" lon="9.71899">
        <ele>1148.91</ele>
        <time>2012-08-03T14:05:57Z</time>
      </trkpt>
      <trkpt lat="46.65158" lon="9.71874">
        <ele>1148.43</ele>
        <time>2012-08-03T14:05:58Z</time>
      </trkpt>
      <trkpt lat="46.65163" lon="9.7185">
        <ele>1147.95</ele>
        <time>2012-08-03T14:05:59Z</time>
      </trkpt>
      <trkpt lat="46.65176" lon="9.7178">
        <ele>1144.59</ele>
        <time>2012-08-03T14:06:02Z</time>
      </trkpt>
      <trkpt lat="46.65184" lon="9.71758">
        <ele>1144.11</ele>
        <time>2012-08-03T14:06:03Z</time>
      </trkpt>
      <trkpt lat="46.65195" lon="9.71736">
        <ele>1142.66</ele>
        <time>2012-08-03T14:06:04Z</time>
      </trkpt>
      <trkpt lat="46.65209" lon="9.71715">
        <ele>1141.7</ele>
        <time>2012-08-03T14:06:05Z</time>
      </trkpt>
      <trkpt lat="46.65259" lon="9.71649">
        <ele>1138.34</ele>
        <time>2012-08-03T14:06:08Z</time>
      </trkpt>
      <trkpt lat="46.65312" lon="9.71571">
        <ele>1133.53</ele>
        <time>2012-08-03T14:06:12Z</time>
      </trkpt>
      <trkpt lat="46.65341" lon="9.71541">
        <ele>1130.65</ele>
        <time>2012-08-03T14:06:14Z</time>
      </trkpt>
      <trkpt lat="46.65357" lon="9.71531">
        <ele>1129.21</ele>
        <time>2012-08-03T14:06:15Z</time>
      </trkpt>
      <trkpt lat="46.65373" lon="9.71525">
        <ele>1128.24</ele>
        <time>2012-08-03T14:06:16Z</time>
      </trkpt>
      <trkpt lat="46.65419" lon="9.71512">
        <ele>1125.36</ele>
        <time>2012-08-03T14:06:19Z</time>
      </trkpt>
      <trkpt lat="46.65457" lon="9.715">
        <ele>1122.96</ele>
        <time>2012-08-03T14:06:21Z</time>
      </trkpt>
      <trkpt lat="46.65471" lon="9.71489">
        <ele>1122.96</ele>
        <time>2012-08-03T14:06:22Z</time>
      </trkpt>
      <trkpt lat="46.65484" lon="9.71476">
        <ele>1122.48</ele>
        <time>2012-08-03T14:06:23Z</time>
      </trkpt>
      <trkpt lat="46.65495" lon="9.71457">
        <ele>1122.96</ele>
        <time>2012-08-03T14:06:24Z</time>
      </trkpt>
      <trkpt lat="46.65573" lon="9.71303">
        <ele>1119.11</ele>
        <time>2012-08-03T14:06:31Z</time>
      </trkpt>
      <trkpt lat="46.65581" lon="9.71279">
        <ele>1119.59</ele>
        <time>2012-08-03T14:06:32Z</time>
      </trkpt>
      <trkpt lat="46.65588" lon="9.71254">
        <ele>1119.11</ele>
        <time>2012-08-03T14:06:33Z</time>
      </trkpt>
      <trkpt lat="46.65622" lon="9.71087">
        <ele>1115.75</ele>
        <time>2012-08-03T14:06:40Z</time>
      </trkpt>
      <trkpt lat="46.65637" lon="9.71041">
        <ele>1115.75</ele>
        <time>2012-08-03T14:06:42Z</time>
      </trkpt>
      <trkpt lat="46.65647" lon="9.70992">
        <ele>1115.75</ele>
        <time>2012-08-03T14:06:44Z</time>
      </trkpt>
      <trkpt lat="46.65655" lon="9.70967">
        <ele>1115.27</ele>
        <time>2012-08-03T14:06:45Z</time>
      </trkpt>
      <trkpt lat="46.65717" lon="9.70804">
        <ele>1111.9</ele>
        <time>2012-08-03T14:06:52Z</time>
      </trkpt>
      <trkpt lat="46.65731" lon="9.70757">
        <ele>1110.46</ele>
        <time>2012-08-03T14:06:54Z</time>
      </trkpt>
      <trkpt lat="46.65735" lon="9.70732">
        <ele>1110.46</ele>
        <time>2012-08-03T14:06:55Z</time>
      </trkpt>
      <trkpt lat="46.65742" lon="9.70683">
        <ele>1109.98</ele>
        <time>2012-08-03T14:06:57Z</time>
      </trkpt>
      <trkpt lat="46.65749" lon="9.7066">
        <ele>1109.5</ele>
        <time>2012-08-03T14:06:58Z</time>
      </trkpt>
      <trkpt lat="46.65758" lon="9.70638">
        <ele>1109.02</ele>
        <time>2012-08-03T14:06:59Z</time>
      </trkpt>
      <trkpt lat="46.65767" lon="9.70615">
        <ele>1109.02</ele>
        <time>2012-08-03T14:07:00Z</time>
      </trkpt>
      <trkpt lat="46.65773" lon="9.70592">
        <ele>1108.54</ele>
        <time>2012-08-03T14:07:01Z</time>
      </trkpt>
      <trkpt lat="46.65785" lon="9.70546">
        <ele>1108.06</ele>
        <time>2012-08-03T14:07:03Z</time>
      </trkpt>
      <trkpt lat="46.65795" lon="9.70524">
        <ele>1107.1</ele>
        <time>2012-08-03T14:07:04Z</time>
      </trkpt>
      <trkpt lat="46.65805" lon="9.70503">
        <ele>1107.58</ele>
        <time>2012-08-03T14:07:05Z</time>
      </trkpt>
      <trkpt lat="46.65813" lon="9.70481">
        <ele>1106.61</ele>
        <time>2012-08-03T14:07:06Z</time>
      </trkpt>
      <trkpt lat="46.65819" lon="9.70457">
        <ele>1105.17</ele>
        <time>2012-08-03T14:07:07Z</time>
      </trkpt>
      <trkpt lat="46.65826" lon="9.70435">
        <ele>1104.69</ele>
        <time>2012-08-03T14:07:08Z</time>
      </trkpt>
      <trkpt lat="46.65835" lon="9.70414">
        <ele>1105.17</ele>
        <time>2012-08-03T14:07:09Z</time>
      </trkpt>
      <trkpt lat="46.65854" lon="9.70372">
        <ele>1104.69</ele>
        <time>2012-08-03T14:07:11Z</time>
      </trkpt>
      <trkpt lat="46.65861" lon="9.70347">
        <ele>1104.69</ele>
        <time>2012-08-03T14:07:12Z</time>
      </trkpt>
      <trkpt lat="46.65873" lon="9.70298">
        <ele>1105.17</ele>
        <time>2012-08-03T14:07:14Z</time>
      </trkpt>
      <trkpt lat="46.65896" lon="9.70229">
        <ele>1103.73</ele>
        <time>2012-08-03T14:07:17Z</time>
      </trkpt>
      <trkpt lat="46.65956" lon="9.70102">
        <ele>1100.37</ele>
        <time>2012-08-03T14:07:23Z</time>
      </trkpt>
      <trkpt lat="46.65968" lon="9.70084">
        <ele>1100.37</ele>
        <time>2012-08-03T14:07:24Z</time>
      </trkpt>
      <trkpt lat="46.65982" lon="9.70068">
        <ele>1100.37</ele>
        <time>2012-08-03T14:07:25Z</time>
      </trkpt>
      <trkpt lat="46.65997" lon="9.70054">
        <ele>1101.81</ele>
        <time>2012-08-03T14:07:26Z</time>
      </trkpt>
      <trkpt lat="46.66013" lon="9.70039">
        <ele>1100.37</ele>
        <time>2012-08-03T14:07:27Z</time>
      </trkpt>
      <trkpt lat="46.66028" lon="9.70023">
        <ele>1100.37</ele>
        <time>2012-08-03T14:07:28Z</time>
      </trkpt>
      <trkpt lat="46.66042" lon="9.70006">
        <ele>1099.4</ele>
        <time>2012-08-03T14:07:29Z</time>
      </trkpt>
      <trkpt lat="46.66104" lon="9.69946">
        <ele>1096.52</ele>
        <time>2012-08-03T14:07:33Z</time>
      </trkpt>
      <trkpt lat="46.66194" lon="9.69856">
        <ele>1093.16</ele>
        <time>2012-08-03T14:07:39Z</time>
      </trkpt>
      <trkpt lat="46.66207" lon="9.69841">
        <ele>1091.71</ele>
        <time>2012-08-03T14:07:40Z</time>
      </trkpt>
      <trkpt lat="46.66218" lon="9.69824">
        <ele>1091.23</ele>
        <time>2012-08-03T14:07:41Z</time>
      </trkpt>
      <trkpt lat="46.66227" lon="9.69806">
        <ele>1090.75</ele>
        <time>2012-08-03T14:07:42Z</time>
      </trkpt>
      <trkpt lat="46.66235" lon="9.69787">
        <ele>1091.23</ele>
        <time>2012-08-03T14:07:43Z</time>
      </trkpt>
      <trkpt lat="46.66242" lon="9.69766">
        <ele>1091.23</ele>
        <time>2012-08-03T14:07:44Z</time>
      </trkpt>
      <trkpt lat="46.6626" lon="9.69729">
        <ele>1091.23</ele>
        <time>2012-08-03T14:07:46Z</time>
      </trkpt>
      <trkpt lat="46.66273" lon="9.69712">
        <ele>1090.27</ele>
        <time>2012-08-03T14:07:47Z</time>
      </trkpt>
      <trkpt lat="46.66387" lon="9.69577">
        <ele>1087.87</ele>
        <time>2012-08-03T14:07:55Z</time>
      </trkpt>
      <trkpt lat="46.66517" lon="9.69495">
        <ele>1086.91</ele>
        <time>2012-08-03T14:08:03Z</time>
      </trkpt>
      <trkpt lat="46.66622" lon="9.6946">
        <ele>1084.02</ele>
        <time>2012-08-03T14:08:09Z</time>
      </trkpt>
      <trkpt lat="46.66666" lon="9.69442">
        <ele>1081.62</ele>
        <time>2012-08-03T14:08:12Z</time>
      </trkpt>
      <trkpt lat="46.66679" lon="9.69431">
        <ele>1081.62</ele>
        <time>2012-08-03T14:08:13Z</time>
      </trkpt>
      <trkpt lat="46.66691" lon="9.69416">
        <ele>1082.58</ele>
        <time>2012-08-03T14:08:14Z</time>
      </trkpt>
      <trkpt lat="46.66701" lon="9.69399">
        <ele>1082.1</ele>
        <time>2012-08-03T14:08:15Z</time>
      </trkpt>
      <trkpt lat="46.66711" lon="9.69381">
        <ele>1082.1</ele>
        <time>2012-08-03T14:08:16Z</time>
      </trkpt>
      <trkpt lat="46.66722" lon="9.69365">
        <ele>1081.62</ele>
        <time>2012-08-03T14:08:17Z</time>
      </trkpt>
      <trkpt lat="46.66734" lon="9.6935">
        <ele>1081.14</ele>
        <time>2012-08-03T14:08:18Z</time>
      </trkpt>
      <trkpt lat="46.66759" lon="9.69319">
        <ele>1079.7</ele>
        <time>2012-08-03T14:08:20Z</time>
      </trkpt>
      <trkpt lat="46.6677" lon="9.69302">
        <ele>1080.18</ele>
        <time>2012-08-03T14:08:21Z</time>
      </trkpt>
      <trkpt lat="46.6678" lon="9.69282">
        <ele>1079.7</ele>
        <time>2012-08-03T14:08:22Z</time>
      </trkpt>
      <trkpt lat="46.66789" lon="9.69261">
        <ele>1079.22</ele>
        <time>2012-08-03T14:08:23Z</time>
      </trkpt>
      <trkpt lat="46.66796" lon="9.69239">
        <ele>1077.78</ele>
        <time>2012-08-03T14:08:24Z</time>
      </trkpt>
      <trkpt lat="46.66828" lon="9.69153">
        <ele>1074.41</ele>
        <time>2012-08-03T14:08:28Z</time>
      </trkpt>
      <trkpt lat="46.66839" lon="9.69135">
        <ele>1073.93</ele>
        <time>2012-08-03T14:08:29Z</time>
      </trkpt>
      <trkpt lat="46.66853" lon="9.69119">
        <ele>1072.97</ele>
        <time>2012-08-03T14:08:30Z</time>
      </trkpt>
      <trkpt lat="46.66868" lon="9.69106">
        <ele>1072.01</ele>
        <time>2012-08-03T14:08:31Z</time>
      </trkpt>
      <trkpt lat="46.66885" lon="9.69098">
        <ele>1071.53</ele>
        <time>2012-08-03T14:08:32Z</time>
      </trkpt>
      <trkpt lat="46.66904" lon="9.69092">
        <ele>1070.08</ele>
        <time>2012-08-03T14:08:33Z</time>
      </trkpt>
      <trkpt lat="46.6694" lon="9.6908">
        <ele>1066.24</ele>
        <time>2012-08-03T14:08:35Z</time>
      </trkpt>
      <trkpt lat="46.66957" lon="9.69073">
        <ele>1064.8</ele>
        <time>2012-08-03T14:08:36Z</time>
      </trkpt>
      <trkpt lat="46.66973" lon="9.69063">
        <ele>1063.84</ele>
        <time>2012-08-03T14:08:37Z</time>
      </trkpt>
      <trkpt lat="46.66988" lon="9.69049">
        <ele>1062.39</ele>
        <time>2012-08-03T14:08:38Z</time>
      </trkpt>
      <trkpt lat="46.67002" lon="9.69031">
        <ele>1061.43</ele>
        <time>2012-08-03T14:08:39Z</time>
      </trkpt>
      <trkpt lat="46.67013" lon="9.69011">
        <ele>1060.47</ele>
        <time>2012-08-03T14:08:40Z</time>
      </trkpt>
      <trkpt lat="46.67024" lon="9.6899">
        <ele>1059.99</ele>
        <time>2012-08-03T14:08:41Z</time>
      </trkpt>
      <trkpt lat="46.67054" lon="9.68921">
        <ele>1056.63</ele>
        <time>2012-08-03T14:08:44Z</time>
      </trkpt>
      <trkpt lat="46.67073" lon="9.68873">
        <ele>1053.74</ele>
        <time>2012-08-03T14:08:46Z</time>
      </trkpt>
      <trkpt lat="46.6711" lon="9.68774">
        <ele>1048.94</ele>
        <time>2012-08-03T14:08:50Z</time>
      </trkpt>
      <trkpt lat="46.67128" lon="9.68725">
        <ele>1045.09</ele>
        <time>2012-08-03T14:08:52Z</time>
      </trkpt>
      <trkpt lat="46.67159" lon="9.68655">
        <ele>1041.73</ele>
        <time>2012-08-03T14:08:55Z</time>
      </trkpt>
      <trkpt lat="46.67195" lon="9.68589">
        <ele>1038.36</ele>
        <time>2012-08-03T14:08:58Z</time>
      </trkpt>
      <trkpt lat="46.67206" lon="9.68566">
        <ele>1037.4</ele>
        <time>2012-08-03T14:08:59Z</time>
      </trkpt>
      <trkpt lat="46.67215" lon="9.68542">
        <ele>1037.4</ele>
        <time>2012-08-03T14:09:00Z</time>
      </trkpt>
      <trkpt lat="46.67222" lon="9.68517">
        <ele>1036.92</ele>
        <time>2012-08-03T14:09:01Z</time>
      </trkpt>
      <trkpt lat="46.67245" lon="9.68383">
        <ele>1040.28</ele>
        <time>2012-08-03T14:09:06Z</time>
      </trkpt>
      <trkpt lat="46.67258" lon="9.68279">
        <ele>1043.65</ele>
        <time>2012-08-03T14:09:10Z</time>
      </trkpt>
      <trkpt lat="46.67265" lon="9.682">
        <ele>1047.01</ele>
        <time>2012-08-03T14:09:13Z</time>
      </trkpt>
      <trkpt lat="46.67274" lon="9.67985">
        <ele>1049.9</ele>
        <time>2012-08-03T14:09:21Z</time>
      </trkpt>
      <trkpt lat="46.67278" lon="9.6788">
        <ele>1045.57</ele>
        <time>2012-08-03T14:09:25Z</time>
      </trkpt>
      <trkpt lat="46.67296" lon="9.67722">
        <ele>1038.84</ele>
        <time>2012-08-03T14:09:31Z</time>
      </trkpt>
      <trkpt lat="46.67298" lon="9.67708">
        <ele>1040.76</ele>
        <time>2012-08-03T14:09:32Z</time>
      </trkpt>
      <trkpt lat="46.67304" lon="9.67676">
        <ele>1042.21</ele>
        <time>2012-08-03T14:09:33Z</time>
      </trkpt>
      <trkpt lat="46.67316" lon="9.67616">
        <ele>1040.28</ele>
        <time>2012-08-03T14:09:35Z</time>
      </trkpt>
      <trkpt lat="46.67328" lon="9.67538">
        <ele>1036.92</ele>
        <time>2012-08-03T14:09:38Z</time>
      </trkpt>
      <trkpt lat="46.67329" lon="9.67512">
        <ele>1035.96</ele>
        <time>2012-08-03T14:09:39Z</time>
      </trkpt>
      <trkpt lat="46.67329" lon="9.67485">
        <ele>1035.48</ele>
        <time>2012-08-03T14:09:40Z</time>
      </trkpt>
      <trkpt lat="46.67326" lon="9.67459">
        <ele>1035</ele>
        <time>2012-08-03T14:09:41Z</time>
      </trkpt>
      <trkpt lat="46.67323" lon="9.67433">
        <ele>1034.04</ele>
        <time>2012-08-03T14:09:42Z</time>
      </trkpt>
      <trkpt lat="46.67307" lon="9.67302">
        <ele>1030.67</ele>
        <time>2012-08-03T14:09:47Z</time>
      </trkpt>
      <trkpt lat="46.67304" lon="9.67236">
        <ele>1026.83</ele>
        <time>2012-08-03T14:09:50Z</time>
      </trkpt>
      <trkpt lat="46.67306" lon="9.67216">
        <ele>1025.86</ele>
        <time>2012-08-03T14:09:51Z</time>
      </trkpt>
      <trkpt lat="46.6731" lon="9.67197">
        <ele>1025.38</ele>
        <time>2012-08-03T14:09:52Z</time>
      </trkpt>
      <trkpt lat="46.67317" lon="9.67179">
        <ele>1023.94</ele>
        <time>2012-08-03T14:09:53Z</time>
      </trkpt>
      <trkpt lat="46.67327" lon="9.67164">
        <ele>1022.98</ele>
        <time>2012-08-03T14:09:54Z</time>
      </trkpt>
      <trkpt lat="46.67339" lon="9.67154">
        <ele>1022.5</ele>
        <time>2012-08-03T14:09:55Z</time>
      </trkpt>
      <trkpt lat="46.67352" lon="9.67147">
        <ele>1021.06</ele>
        <time>2012-08-03T14:09:56Z</time>
      </trkpt>
      <trkpt lat="46.67366" lon="9.67145">
        <ele>1021.54</ele>
        <time>2012-08-03T14:09:57Z</time>
      </trkpt>
      <trkpt lat="46.67382" lon="9.67147">
        <ele>1020.58</ele>
        <time>2012-08-03T14:09:58Z</time>
      </trkpt>
      <trkpt lat="46.67398" lon="9.67152">
        <ele>1021.54</ele>
        <time>2012-08-03T14:09:59Z</time>
      </trkpt>
      <trkpt lat="46.67414" lon="9.67158">
        <ele>1020.58</ele>
        <time>2012-08-03T14:10:00Z</time>
      </trkpt>
      <trkpt lat="46.6743" lon="9.67164">
        <ele>1019.62</ele>
        <time>2012-08-03T14:10:01Z</time>
      </trkpt>
      <trkpt lat="46.67446" lon="9.67167">
        <ele>1018.65</ele>
        <time>2012-08-03T14:10:02Z</time>
      </trkpt>
      <trkpt lat="46.67461" lon="9.67166">
        <ele>1017.69</ele>
        <time>2012-08-03T14:10:03Z</time>
      </trkpt>
      <trkpt lat="46.67476" lon="9.67161">
        <ele>1017.21</ele>
        <time>2012-08-03T14:10:04Z</time>
      </trkpt>
      <trkpt lat="46.6749" lon="9.67152">
        <ele>1017.69</ele>
        <time>2012-08-03T14:10:05Z</time>
      </trkpt>
      <trkpt lat="46.67504" lon="9.6714">
        <ele>1017.21</ele>
        <time>2012-08-03T14:10:06Z</time>
      </trkpt>
      <trkpt lat="46.67516" lon="9.67125">
        <ele>1015.77</ele>
        <time>2012-08-03T14:10:07Z</time>
      </trkpt>
      <trkpt lat="46.67525" lon="9.67108">
        <ele>1014.81</ele>
        <time>2012-08-03T14:10:08Z</time>
      </trkpt>
      <trkpt lat="46.67533" lon="9.67087">
        <ele>1015.77</ele>
        <time>2012-08-03T14:10:09Z</time>
      </trkpt>
      <trkpt lat="46.67538" lon="9.67064">
        <ele>1015.77</ele>
        <time>2012-08-03T14:10:10Z</time>
      </trkpt>
      <trkpt lat="46.67541" lon="9.67039">
        <ele>1015.77</ele>
        <time>2012-08-03T14:10:11Z</time>
      </trkpt>
      <trkpt lat="46.6754" lon="9.67013">
        <ele>1015.77</ele>
        <time>2012-08-03T14:10:12Z</time>
      </trkpt>
      <trkpt lat="46.67538" lon="9.66986">
        <ele>1015.29</ele>
        <time>2012-08-03T14:10:13Z</time>
      </trkpt>
      <trkpt lat="46.67533" lon="9.6696">
        <ele>1015.29</ele>
        <time>2012-08-03T14:10:14Z</time>
      </trkpt>
      <trkpt lat="46.67525" lon="9.66935">
        <ele>1015.29</ele>
        <time>2012-08-03T14:10:15Z</time>
      </trkpt>
      <trkpt lat="46.67516" lon="9.66911">
        <ele>1014.81</ele>
        <time>2012-08-03T14:10:16Z</time>
      </trkpt>
      <trkpt lat="46.67482" lon="9.66819">
        <ele>1012.89</ele>
        <time>2012-08-03T14:10:20Z</time>
      </trkpt>
      <trkpt lat="46.67477" lon="9.66794">
        <ele>1011.93</ele>
        <time>2012-08-03T14:10:21Z</time>
      </trkpt>
      <trkpt lat="46.67455" lon="9.66652">
        <ele>1012.41</ele>
        <time>2012-08-03T14:10:27Z</time>
      </trkpt>
      <trkpt lat="46.67449" lon="9.66629">
        <ele>1012.89</ele>
        <time>2012-08-03T14:10:28Z</time>
      </trkpt>
      <trkpt lat="46.67397" lon="9.66503">
        <ele>1012.41</ele>
        <time>2012-08-03T14:10:34Z</time>
      </trkpt>
      <trkpt lat="46.67387" lon="9.66484">
        <ele>1012.89</ele>
        <time>2012-08-03T14:10:35Z</time>
      </trkpt>
      <trkpt lat="46.67329" lon="9.66399">
        <ele>1012.89</ele>
        <time>2012-08-03T14:10:40Z</time>
      </trkpt>
      <trkpt lat="46.6732" lon="9.66381">
        <ele>1012.41</ele>
        <time>2012-08-03T14:10:41Z</time>
      </trkpt>
      <trkpt lat="46.67312" lon="9.66362">
        <ele>1012.41</ele>
        <time>2012-08-03T14:10:42Z</time>
      </trkpt>
      <trkpt lat="46.67256" lon="9.66234">
        <ele>1011.44</ele>
        <time>2012-08-03T14:10:49Z</time>
      </trkpt>
      <trkpt lat="46.67227" lon="9.66185">
        <ele>1010.96</ele>
        <time>2012-08-03T14:10:52Z</time>
      </trkpt>
      <trkpt lat="46.6722" lon="9.66166">
        <ele>1010.48</ele>
        <time>2012-08-03T14:10:53Z</time>
      </trkpt>
      <trkpt lat="46.67213" lon="9.66145">
        <ele>1010</ele>
        <time>2012-08-03T14:10:54Z</time>
      </trkpt>
      <trkpt lat="46.67208" lon="9.66124">
        <ele>1009.52</ele>
        <time>2012-08-03T14:10:55Z</time>
      </trkpt>
      <trkpt lat="46.67204" lon="9.66102">
        <ele>1008.56</ele>
        <time>2012-08-03T14:10:56Z</time>
      </trkpt>
      <trkpt lat="46.67174" lon="9.65961">
        <ele>1005.2</ele>
        <time>2012-08-03T14:11:03Z</time>
      </trkpt>
      <trkpt lat="46.67167" lon="9.65944">
        <ele>1004.23</ele>
        <time>2012-08-03T14:11:04Z</time>
      </trkpt>
      <trkpt lat="46.67151" lon="9.65908">
        <ele>1003.27</ele>
        <time>2012-08-03T14:11:06Z</time>
      </trkpt>
      <trkpt lat="46.67132" lon="9.65846">
        <ele>1002.31</ele>
        <time>2012-08-03T14:11:09Z</time>
      </trkpt>
      <trkpt lat="46.67127" lon="9.65823">
        <ele>1002.31</ele>
        <time>2012-08-03T14:11:10Z</time>
      </trkpt>
      <trkpt lat="46.67124" lon="9.65799">
        <ele>1001.83</ele>
        <time>2012-08-03T14:11:11Z</time>
      </trkpt>
      <trkpt lat="46.67124" lon="9.65775">
        <ele>1001.83</ele>
        <time>2012-08-03T14:11:12Z</time>
      </trkpt>
      <trkpt lat="46.67124" lon="9.65751">
        <ele>1000.39</ele>
        <time>2012-08-03T14:11:13Z</time>
      </trkpt>
      <trkpt lat="46.67125" lon="9.65728">
        <ele>1000.87</ele>
        <time>2012-08-03T14:11:14Z</time>
      </trkpt>
      <trkpt lat="46.67123" lon="9.65606">
        <ele>999.91</ele>
        <time>2012-08-03T14:11:19Z</time>
      </trkpt>
      <trkpt lat="46.67118" lon="9.65583">
        <ele>999.43</ele>
        <time>2012-08-03T14:11:20Z</time>
      </trkpt>
      <trkpt lat="46.67111" lon="9.6556">
        <ele>999.43</ele>
        <time>2012-08-03T14:11:21Z</time>
      </trkpt>
      <trkpt lat="46.67103" lon="9.65538">
        <ele>999.43</ele>
        <time>2012-08-03T14:11:22Z</time>
      </trkpt>
      <trkpt lat="46.67094" lon="9.65516">
        <ele>998.95</ele>
        <time>2012-08-03T14:11:23Z</time>
      </trkpt>
      <trkpt lat="46.67068" lon="9.65453">
        <ele>997.51</ele>
        <time>2012-08-03T14:11:26Z</time>
      </trkpt>
      <trkpt lat="46.67035" lon="9.65367">
        <ele>995.58</ele>
        <time>2012-08-03T14:11:30Z</time>
      </trkpt>
      <trkpt lat="46.67024" lon="9.65323">
        <ele>992.22</ele>
        <time>2012-08-03T14:11:32Z</time>
      </trkpt>
      <trkpt lat="46.67019" lon="9.653">
        <ele>992.22</ele>
        <time>2012-08-03T14:11:33Z</time>
      </trkpt>
      <trkpt lat="46.66999" lon="9.65183">
        <ele>988.37</ele>
        <time>2012-08-03T14:11:38Z</time>
      </trkpt>
      <trkpt lat="46.66996" lon="9.65159">
        <ele>988.37</ele>
        <time>2012-08-03T14:11:39Z</time>
      </trkpt>
      <trkpt lat="46.66988" lon="9.65088">
        <ele>986.93</ele>
        <time>2012-08-03T14:11:42Z</time>
      </trkpt>
      <trkpt lat="46.66973" lon="9.6498">
        <ele>985.01</ele>
        <time>2012-08-03T14:11:47Z</time>
      </trkpt>
      <trkpt lat="46.66967" lon="9.6496">
        <ele>985.01</ele>
        <time>2012-08-03T14:11:48Z</time>
      </trkpt>
      <trkpt lat="46.66959" lon="9.6494">
        <ele>985.01</ele>
        <time>2012-08-03T14:11:49Z</time>
      </trkpt>
      <trkpt lat="46.66923" lon="9.64868">
        <ele>985.01</ele>
        <time>2012-08-03T14:11:53Z</time>
      </trkpt>
      <trkpt lat="46.66912" lon="9.64853">
        <ele>985.01</ele>
        <time>2012-08-03T14:11:54Z</time>
      </trkpt>
      <trkpt lat="46.66899" lon="9.6484">
        <ele>984.53</ele>
        <time>2012-08-03T14:11:55Z</time>
      </trkpt>
      <trkpt lat="46.66885" lon="9.64829">
        <ele>983.57</ele>
        <time>2012-08-03T14:11:56Z</time>
      </trkpt>
      <trkpt lat="46.66871" lon="9.64821">
        <ele>984.05</ele>
        <time>2012-08-03T14:11:57Z</time>
      </trkpt>
      <trkpt lat="46.66858" lon="9.64813">
        <ele>984.05</ele>
        <time>2012-08-03T14:11:58Z</time>
      </trkpt>
      <trkpt lat="46.66847" lon="9.64803">
        <ele>984.53</ele>
        <time>2012-08-03T14:11:59Z</time>
      </trkpt>
      <trkpt lat="46.66839" lon="9.64789">
        <ele>984.53</ele>
        <time>2012-08-03T14:12:00Z</time>
      </trkpt>
      <trkpt lat="46.66834" lon="9.64773">
        <ele>985.97</ele>
        <time>2012-08-03T14:12:01Z</time>
      </trkpt>
      <trkpt lat="46.66831" lon="9.64756">
        <ele>986.93</ele>
        <time>2012-08-03T14:12:02Z</time>
      </trkpt>
      <trkpt lat="46.6683" lon="9.64739">
        <ele>987.41</ele>
        <time>2012-08-03T14:12:03Z</time>
      </trkpt>
      <trkpt lat="46.66829" lon="9.64723">
        <ele>987.89</ele>
        <time>2012-08-03T14:12:04Z</time>
      </trkpt>
      <trkpt lat="46.66831" lon="9.64666">
        <ele>990.78</ele>
        <time>2012-08-03T14:12:08Z</time>
      </trkpt>
      <trkpt lat="46.66832" lon="9.64639">
        <ele>991.74</ele>
        <time>2012-08-03T14:12:10Z</time>
      </trkpt>
      <trkpt lat="46.66832" lon="9.64626">
        <ele>991.74</ele>
        <time>2012-08-03T14:12:11Z</time>
      </trkpt>
      <trkpt lat="46.66826" lon="9.6458">
        <ele>990.3</ele>
        <time>2012-08-03T14:12:14Z</time>
      </trkpt>
      <trkpt lat="46.66817" lon="9.64492">
        <ele>986.93</ele>
        <time>2012-08-03T14:12:20Z</time>
      </trkpt>
      <trkpt lat="46.66813" lon="9.644">
        <ele>984.53</ele>
        <time>2012-08-03T14:12:25Z</time>
      </trkpt>
      <trkpt lat="46.66839" lon="9.64236">
        <ele>982.12</ele>
        <time>2012-08-03T14:12:33Z</time>
      </trkpt>
      <trkpt lat="46.66852" lon="9.64085">
        <ele>978.28</ele>
        <time>2012-08-03T14:12:40Z</time>
      </trkpt>
      <trkpt lat="46.66834" lon="9.63881">
        <ele>977.8</ele>
        <time>2012-08-03T14:12:49Z</time>
      </trkpt>
      <trkpt lat="46.66781" lon="9.63679">
        <ele>979.72</ele>
        <time>2012-08-03T14:12:58Z</time>
      </trkpt>
      <trkpt lat="46.66774" lon="9.63619">
        <ele>983.09</ele>
        <time>2012-08-03T14:13:00Z</time>
      </trkpt>
      <trkpt lat="46.66773" lon="9.63607">
        <ele>983.09</ele>
        <time>2012-08-03T14:13:01Z</time>
      </trkpt>
      <trkpt lat="46.66752" lon="9.63469">
        <ele>986.93</ele>
        <time>2012-08-03T14:13:07Z</time>
      </trkpt>
      <trkpt lat="46.66738" lon="9.63398">
        <ele>988.37</ele>
        <time>2012-08-03T14:13:10Z</time>
      </trkpt>
      <trkpt lat="46.66704" lon="9.63238">
        <ele>992.22</ele>
        <time>2012-08-03T14:13:17Z</time>
      </trkpt>
      <trkpt lat="46.66701" lon="9.63215">
        <ele>994.14</ele>
        <time>2012-08-03T14:13:18Z</time>
      </trkpt>
      <trkpt lat="46.66695" lon="9.63193">
        <ele>995.58</ele>
        <time>2012-08-03T14:13:19Z</time>
      </trkpt>
      <trkpt lat="46.66687" lon="9.63173">
        <ele>996.54</ele>
        <time>2012-08-03T14:13:20Z</time>
      </trkpt>
      <trkpt lat="46.6667" lon="9.63137">
        <ele>999.91</ele>
        <time>2012-08-03T14:13:22Z</time>
      </trkpt>
      <trkpt lat="46.66654" lon="9.63098">
        <ele>999.43</ele>
        <time>2012-08-03T14:13:24Z</time>
      </trkpt>
      <trkpt lat="46.66649" lon="9.63079">
        <ele>1001.83</ele>
        <time>2012-08-03T14:13:25Z</time>
      </trkpt>
      <trkpt lat="46.66645" lon="9.6306">
        <ele>1003.27</ele>
        <time>2012-08-03T14:13:26Z</time>
      </trkpt>
      <trkpt lat="46.66643" lon="9.6304">
        <ele>1000.39</ele>
        <time>2012-08-03T14:13:27Z</time>
      </trkpt>
      <trkpt lat="46.66643" lon="9.63022">
        <ele>1001.83</ele>
        <time>2012-08-03T14:13:28Z</time>
      </trkpt>
      <trkpt lat="46.66644" lon="9.63005">
        <ele>1001.35</ele>
        <time>2012-08-03T14:13:29Z</time>
      </trkpt>
      <trkpt lat="46.66645" lon="9.62989">
        <ele>1001.83</ele>
        <time>2012-08-03T14:13:30Z</time>
      </trkpt>
      <trkpt lat="46.66652" lon="9.62939">
        <ele>1000.87</ele>
        <time>2012-08-03T14:13:34Z</time>
      </trkpt>
      <trkpt lat="46.66654" lon="9.62929">
        <ele>1000.87</ele>
        <time>2012-08-03T14:13:35Z</time>
      </trkpt>
      <trkpt lat="46.66659" lon="9.62921">
        <ele>1000.87</ele>
        <time>2012-08-03T14:13:36Z</time>
      </trkpt>
      <trkpt lat="46.66665" lon="9.62915">
        <ele>1000.87</ele>
        <time>2012-08-03T14:13:37Z</time>
      </trkpt>
      <trkpt lat="46.66672" lon="9.62908">
        <ele>1001.83</ele>
        <time>2012-08-03T14:13:38Z</time>
      </trkpt>
      <trkpt lat="46.66678" lon="9.629">
        <ele>1001.83</ele>
        <time>2012-08-03T14:13:39Z</time>
      </trkpt>
      <trkpt lat="46.66683" lon="9.62888">
        <ele>1002.79</ele>
        <time>2012-08-03T14:13:40Z</time>
      </trkpt>
      <trkpt lat="46.66687" lon="9.62874">
        <ele>1003.75</ele>
        <time>2012-08-03T14:13:41Z</time>
      </trkpt>
      <trkpt lat="46.66704" lon="9.62806">
        <ele>1007.12</ele>
        <time>2012-08-03T14:13:45Z</time>
      </trkpt>
      <trkpt lat="46.66711" lon="9.62791">
        <ele>1008.56</ele>
        <time>2012-08-03T14:13:46Z</time>
      </trkpt>
      <trkpt lat="46.66719" lon="9.62777">
        <ele>1008.56</ele>
        <time>2012-08-03T14:13:47Z</time>
      </trkpt>
      <trkpt lat="46.66744" lon="9.6274">
        <ele>1010.96</ele>
        <time>2012-08-03T14:13:50Z</time>
      </trkpt>
      <trkpt lat="46.66756" lon="9.62729">
        <ele>1012.41</ele>
        <time>2012-08-03T14:13:51Z</time>
      </trkpt>
      <trkpt lat="46.6677" lon="9.62719">
        <ele>1014.33</ele>
        <time>2012-08-03T14:13:52Z</time>
      </trkpt>
      <trkpt lat="46.66819" lon="9.62695">
        <ele>1018.17</ele>
        <time>2012-08-03T14:13:55Z</time>
      </trkpt>
      <trkpt lat="46.66837" lon="9.62691">
        <ele>1018.65</ele>
        <time>2012-08-03T14:13:56Z</time>
      </trkpt>
      <trkpt lat="46.66865" lon="9.62685">
        <ele>1018.17</ele>
        <time>2012-08-03T14:13:58Z</time>
      </trkpt>
      <trkpt lat="46.66876" lon="9.62678">
        <ele>1018.65</ele>
        <time>2012-08-03T14:13:59Z</time>
      </trkpt>
      <trkpt lat="46.66885" lon="9.62666">
        <ele>1019.13</ele>
        <time>2012-08-03T14:14:00Z</time>
      </trkpt>
      <trkpt lat="46.66891" lon="9.6265">
        <ele>1021.06</ele>
        <time>2012-08-03T14:14:01Z</time>
      </trkpt>
      <trkpt lat="46.66895" lon="9.6263">
        <ele>1022.98</ele>
        <time>2012-08-03T14:14:02Z</time>
      </trkpt>
      <trkpt lat="46.66897" lon="9.62609">
        <ele>1022.98</ele>
        <time>2012-08-03T14:14:03Z</time>
      </trkpt>
      <trkpt lat="46.66896" lon="9.62587">
        <ele>1023.94</ele>
        <time>2012-08-03T14:14:04Z</time>
      </trkpt>
      <trkpt lat="46.66891" lon="9.62565">
        <ele>1024.9</ele>
        <time>2012-08-03T14:14:05Z</time>
      </trkpt>
      <trkpt lat="46.66884" lon="9.62547">
        <ele>1025.86</ele>
        <time>2012-08-03T14:14:06Z</time>
      </trkpt>
      <trkpt lat="46.66876" lon="9.62532">
        <ele>1025.38</ele>
        <time>2012-08-03T14:14:07Z</time>
      </trkpt>
      <trkpt lat="46.66872" lon="9.62519">
        <ele>1025.38</ele>
        <time>2012-08-03T14:14:08Z</time>
      </trkpt>
      <trkpt lat="46.66872" lon="9.62508">
        <ele>1025.38</ele>
        <time>2012-08-03T14:14:09Z</time>
      </trkpt>
      <trkpt lat="46.66875" lon="9.62501">
        <ele>1025.38</ele>
        <time>2012-08-03T14:14:10Z</time>
      </trkpt>
      <trkpt lat="46.6688" lon="9.62498">
        <ele>1025.38</ele>
        <time>2012-08-03T14:14:11Z</time>
      </trkpt>
      <trkpt lat="46.66886" lon="9.62498">
        <ele>1028.27</ele>
        <time>2012-08-03T14:14:12Z</time>
      </trkpt>
      <trkpt lat="46.66892" lon="9.62503">
        <ele>1029.71</ele>
        <time>2012-08-03T14:14:13Z</time>
      </trkpt>
      <trkpt lat="46.66897" lon="9.62512">
        <ele>1031.63</ele>
        <time>2012-08-03T14:14:14Z</time>
      </trkpt>
      <trkpt lat="46.66903" lon="9.62523">
        <ele>1033.07</ele>
        <time>2012-08-03T14:14:15Z</time>
      </trkpt>
      <trkpt lat="46.66912" lon="9.62549">
        <ele>1035</ele>
        <time>2012-08-03T14:14:16Z</time>
      </trkpt>
      <trkpt lat="46.66917" lon="9.62576">
        <ele>1036.92</ele>
        <time>2012-08-03T14:14:17Z</time>
      </trkpt>
      <trkpt lat="46.66918" lon="9.62602">
        <ele>1039.32</ele>
        <time>2012-08-03T14:14:18Z</time>
      </trkpt>
      <trkpt lat="46.66918" lon="9.6263">
        <ele>1039.32</ele>
        <time>2012-08-03T14:14:19Z</time>
      </trkpt>
      <trkpt lat="46.66916" lon="9.62659">
        <ele>1040.28</ele>
        <time>2012-08-03T14:14:20Z</time>
      </trkpt>
      <trkpt lat="46.66909" lon="9.6271">
        <ele>1041.73</ele>
        <time>2012-08-03T14:14:22Z</time>
      </trkpt>
      <trkpt lat="46.66906" lon="9.62728">
        <ele>1041.73</ele>
        <time>2012-08-03T14:14:23Z</time>
      </trkpt>
      <trkpt lat="46.66903" lon="9.62744">
        <ele>1041.25</ele>
        <time>2012-08-03T14:14:24Z</time>
      </trkpt>
      <trkpt lat="46.66904" lon="9.62757">
        <ele>1042.21</ele>
        <time>2012-08-03T14:14:25Z</time>
      </trkpt>
      <trkpt lat="46.66908" lon="9.62767">
        <ele>1042.69</ele>
        <time>2012-08-03T14:14:26Z</time>
      </trkpt>
      <trkpt lat="46.66916" lon="9.62774">
        <ele>1043.65</ele>
        <time>2012-08-03T14:14:27Z</time>
      </trkpt>
      <trkpt lat="46.66929" lon="9.62778">
        <ele>1045.09</ele>
        <time>2012-08-03T14:14:28Z</time>
      </trkpt>
      <trkpt lat="46.66944" lon="9.62779">
        <ele>1047.49</ele>
        <time>2012-08-03T14:14:29Z</time>
      </trkpt>
      <trkpt lat="46.66958" lon="9.6278">
        <ele>1047.49</ele>
        <time>2012-08-03T14:14:30Z</time>
      </trkpt>
      <trkpt lat="46.6697" lon="9.62778">
        <ele>1048.45</ele>
        <time>2012-08-03T14:14:31Z</time>
      </trkpt>
      <trkpt lat="46.66982" lon="9.62768">
        <ele>1049.9</ele>
        <time>2012-08-03T14:14:32Z</time>
      </trkpt>
      <trkpt lat="46.66993" lon="9.62752">
        <ele>1051.82</ele>
        <time>2012-08-03T14:14:33Z</time>
      </trkpt>
      <trkpt lat="46.67004" lon="9.62735">
        <ele>1054.7</ele>
        <time>2012-08-03T14:14:34Z</time>
      </trkpt>
      <trkpt lat="46.67018" lon="9.62718">
        <ele>1056.63</ele>
        <time>2012-08-03T14:14:35Z</time>
      </trkpt>
      <trkpt lat="46.67034" lon="9.62707">
        <ele>1058.55</ele>
        <time>2012-08-03T14:14:36Z</time>
      </trkpt>
      <trkpt lat="46.67052" lon="9.62702">
        <ele>1059.99</ele>
        <time>2012-08-03T14:14:37Z</time>
      </trkpt>
      <trkpt lat="46.67071" lon="9.62704">
        <ele>1061.43</ele>
        <time>2012-08-03T14:14:38Z</time>
      </trkpt>
      <trkpt lat="46.6709" lon="9.62713">
        <ele>1064.32</ele>
        <time>2012-08-03T14:14:39Z</time>
      </trkpt>
      <trkpt lat="46.67109" lon="9.62726">
        <ele>1067.2</ele>
        <time>2012-08-03T14:14:40Z</time>
      </trkpt>
      <trkpt lat="46.67124" lon="9.62737">
        <ele>1067.68</ele>
        <time>2012-08-03T14:14:41Z</time>
      </trkpt>
      <trkpt lat="46.67141" lon="9.62757">
        <ele>1067.68</ele>
        <time>2012-08-03T14:14:42Z</time>
      </trkpt>
      <trkpt lat="46.67153" lon="9.62775">
        <ele>1069.6</ele>
        <time>2012-08-03T14:14:43Z</time>
      </trkpt>
      <trkpt lat="46.6716" lon="9.62796">
        <ele>1069.6</ele>
        <time>2012-08-03T14:14:44Z</time>
      </trkpt>
      <trkpt lat="46.67163" lon="9.6282">
        <ele>1072.49</ele>
        <time>2012-08-03T14:14:45Z</time>
      </trkpt>
      <trkpt lat="46.67167" lon="9.62843">
        <ele>1073.45</ele>
        <time>2012-08-03T14:14:46Z</time>
      </trkpt>
      <trkpt lat="46.67173" lon="9.62864">
        <ele>1074.89</ele>
        <time>2012-08-03T14:14:47Z</time>
      </trkpt>
      <trkpt lat="46.67182" lon="9.62885">
        <ele>1076.81</ele>
        <time>2012-08-03T14:14:48Z</time>
      </trkpt>
      <trkpt lat="46.67194" lon="9.62906">
        <ele>1078.74</ele>
        <time>2012-08-03T14:14:49Z</time>
      </trkpt>
      <trkpt lat="46.67205" lon="9.62928">
        <ele>1081.14</ele>
        <time>2012-08-03T14:14:50Z</time>
      </trkpt>
      <trkpt lat="46.67212" lon="9.62949">
        <ele>1080.66</ele>
        <time>2012-08-03T14:14:51Z</time>
      </trkpt>
      <trkpt lat="46.67216" lon="9.62968">
        <ele>1080.66</ele>
        <time>2012-08-03T14:14:52Z</time>
      </trkpt>
      <trkpt lat="46.67224" lon="9.63009">
        <ele>1080.66</ele>
        <time>2012-08-03T14:14:55Z</time>
      </trkpt>
      <trkpt lat="46.6723" lon="9.63017">
        <ele>1081.14</ele>
        <time>2012-08-03T14:14:56Z</time>
      </trkpt>
      <trkpt lat="46.67234" lon="9.63021">
        <ele>1081.14</ele>
        <time>2012-08-03T14:14:57Z</time>
      </trkpt>
      <trkpt lat="46.6724" lon="9.6302">
        <ele>1082.1</ele>
        <time>2012-08-03T14:14:58Z</time>
      </trkpt>
      <trkpt lat="46.67246" lon="9.63014">
        <ele>1082.58</ele>
        <time>2012-08-03T14:14:59Z</time>
      </trkpt>
      <trkpt lat="46.67252" lon="9.63005">
        <ele>1083.06</ele>
        <time>2012-08-03T14:15:00Z</time>
      </trkpt>
      <trkpt lat="46.67262" lon="9.62993">
        <ele>1083.06</ele>
        <time>2012-08-03T14:15:01Z</time>
      </trkpt>
      <trkpt lat="46.67266" lon="9.6298">
        <ele>1083.54</ele>
        <time>2012-08-03T14:15:02Z</time>
      </trkpt>
      <trkpt lat="46.67267" lon="9.62964">
        <ele>1084.02</ele>
        <time>2012-08-03T14:15:03Z</time>
      </trkpt>
      <trkpt lat="46.67265" lon="9.62945">
        <ele>1084.02</ele>
        <time>2012-08-03T14:15:04Z</time>
      </trkpt>
      <trkpt lat="46.67262" lon="9.62933">
        <ele>1084.99</ele>
        <time>2012-08-03T14:15:05Z</time>
      </trkpt>
      <trkpt lat="46.67232" lon="9.62813">
        <ele>1084.5</ele>
        <time>2012-08-03T14:15:11Z</time>
      </trkpt>
      <trkpt lat="46.67226" lon="9.62798">
        <ele>1086.43</ele>
        <time>2012-08-03T14:15:12Z</time>
      </trkpt>
      <trkpt lat="46.6722" lon="9.62786">
        <ele>1085.95</ele>
        <time>2012-08-03T14:15:13Z</time>
      </trkpt>
      <trkpt lat="46.67214" lon="9.62774">
        <ele>1086.43</ele>
        <time>2012-08-03T14:15:14Z</time>
      </trkpt>
      <trkpt lat="46.67207" lon="9.62764">
        <ele>1086.43</ele>
        <time>2012-08-03T14:15:15Z</time>
      </trkpt>
      <trkpt lat="46.67191" lon="9.62746">
        <ele>1087.39</ele>
        <time>2012-08-03T14:15:17Z</time>
      </trkpt>
      <trkpt lat="46.67164" lon="9.62715">
        <ele>1088.83</ele>
        <time>2012-08-03T14:15:20Z</time>
      </trkpt>
      <trkpt lat="46.67157" lon="9.627">
        <ele>1089.31</ele>
        <time>2012-08-03T14:15:21Z</time>
      </trkpt>
      <trkpt lat="46.67151" lon="9.62683">
        <ele>1090.27</ele>
        <time>2012-08-03T14:15:22Z</time>
      </trkpt>
      <trkpt lat="46.67146" lon="9.62664">
        <ele>1090.75</ele>
        <time>2012-08-03T14:15:23Z</time>
      </trkpt>
      <trkpt lat="46.67142" lon="9.62643">
        <ele>1091.71</ele>
        <time>2012-08-03T14:15:24Z</time>
      </trkpt>
      <trkpt lat="46.67122" lon="9.62482">
        <ele>1093.64</ele>
        <time>2012-08-03T14:15:33Z</time>
      </trkpt>
      <trkpt lat="46.6712" lon="9.62409">
        <ele>1094.6</ele>
        <time>2012-08-03T14:15:39Z</time>
      </trkpt>
      <trkpt lat="46.67115" lon="9.62393">
        <ele>1095.56</ele>
        <time>2012-08-03T14:15:40Z</time>
      </trkpt>
      <trkpt lat="46.67094" lon="9.62339">
        <ele>1098.44</ele>
        <time>2012-08-03T14:15:43Z</time>
      </trkpt>
      <trkpt lat="46.67089" lon="9.62317">
        <ele>1099.4</ele>
        <time>2012-08-03T14:15:44Z</time>
      </trkpt>
      <trkpt lat="46.67087" lon="9.62293">
        <ele>1098.92</ele>
        <time>2012-08-03T14:15:45Z</time>
      </trkpt>
      <trkpt lat="46.67087" lon="9.6227">
        <ele>1099.89</ele>
        <time>2012-08-03T14:15:46Z</time>
      </trkpt>
      <trkpt lat="46.67085" lon="9.62249">
        <ele>1099.89</ele>
        <time>2012-08-03T14:15:47Z</time>
      </trkpt>
      <trkpt lat="46.67081" lon="9.62229">
        <ele>1099.89</ele>
        <time>2012-08-03T14:15:48Z</time>
      </trkpt>
      <trkpt lat="46.67075" lon="9.6221">
        <ele>1099.4</ele>
        <time>2012-08-03T14:15:49Z</time>
      </trkpt>
      <trkpt lat="46.67066" lon="9.62193">
        <ele>1100.37</ele>
        <time>2012-08-03T14:15:50Z</time>
      </trkpt>
      <trkpt lat="46.67057" lon="9.62177">
        <ele>1099.89</ele>
        <time>2012-08-03T14:15:51Z</time>
      </trkpt>
      <trkpt lat="46.67046" lon="9.6216">
        <ele>1100.37</ele>
        <time>2012-08-03T14:15:52Z</time>
      </trkpt>
      <trkpt lat="46.67015" lon="9.62105">
        <ele>1091.23</ele>
        <time>2012-08-03T14:15:55Z</time>
      </trkpt>
      <trkpt lat="46.67004" lon="9.62085">
        <ele>1098.92</ele>
        <time>2012-08-03T14:15:56Z</time>
      </trkpt>
      <trkpt lat="46.66983" lon="9.62046">
        <ele>1103.73</ele>
        <time>2012-08-03T14:15:58Z</time>
      </trkpt>
      <trkpt lat="46.66974" lon="9.62028">
        <ele>1102.77</ele>
        <time>2012-08-03T14:15:59Z</time>
      </trkpt>
      <trkpt lat="46.66966" lon="9.62011">
        <ele>1101.81</ele>
        <time>2012-08-03T14:16:00Z</time>
      </trkpt>
      <trkpt lat="46.66962" lon="9.61992">
        <ele>1102.29</ele>
        <time>2012-08-03T14:16:01Z</time>
      </trkpt>
      <trkpt lat="46.66962" lon="9.61971">
        <ele>1102.29</ele>
        <time>2012-08-03T14:16:02Z</time>
      </trkpt>
      <trkpt lat="46.66966" lon="9.6195">
        <ele>1103.25</ele>
        <time>2012-08-03T14:16:03Z</time>
      </trkpt>
      <trkpt lat="46.6697" lon="9.61931">
        <ele>1102.29</ele>
        <time>2012-08-03T14:16:04Z</time>
      </trkpt>
      <trkpt lat="46.66972" lon="9.61911">
        <ele>1103.25</ele>
        <time>2012-08-03T14:16:05Z</time>
      </trkpt>
      <trkpt lat="46.66971" lon="9.6189">
        <ele>1103.73</ele>
        <time>2012-08-03T14:16:06Z</time>
      </trkpt>
      <trkpt lat="46.66966" lon="9.6187">
        <ele>1104.21</ele>
        <time>2012-08-03T14:16:07Z</time>
      </trkpt>
      <trkpt lat="46.66957" lon="9.61853">
        <ele>1104.21</ele>
        <time>2012-08-03T14:16:08Z</time>
      </trkpt>
      <trkpt lat="46.66945" lon="9.61837">
        <ele>1106.13</ele>
        <time>2012-08-03T14:16:09Z</time>
      </trkpt>
      <trkpt lat="46.66933" lon="9.61822">
        <ele>1105.65</ele>
        <time>2012-08-03T14:16:10Z</time>
      </trkpt>
      <trkpt lat="46.66914" lon="9.61796">
        <ele>1104.21</ele>
        <time>2012-08-03T14:16:12Z</time>
      </trkpt>
      <trkpt lat="46.66909" lon="9.61781">
        <ele>1103.25</ele>
        <time>2012-08-03T14:16:13Z</time>
      </trkpt>
      <trkpt lat="46.66908" lon="9.61764">
        <ele>1104.69</ele>
        <time>2012-08-03T14:16:14Z</time>
      </trkpt>
      <trkpt lat="46.66911" lon="9.61745">
        <ele>1107.1</ele>
        <time>2012-08-03T14:16:15Z</time>
      </trkpt>
      <trkpt lat="46.66914" lon="9.61725">
        <ele>1107.58</ele>
        <time>2012-08-03T14:16:16Z</time>
      </trkpt>
      <trkpt lat="46.66914" lon="9.61703">
        <ele>1108.06</ele>
        <time>2012-08-03T14:16:17Z</time>
      </trkpt>
      <trkpt lat="46.66913" lon="9.6168">
        <ele>1108.06</ele>
        <time>2012-08-03T14:16:18Z</time>
      </trkpt>
      <trkpt lat="46.66914" lon="9.61659">
        <ele>1108.54</ele>
        <time>2012-08-03T14:16:19Z</time>
      </trkpt>
      <trkpt lat="46.66918" lon="9.61638">
        <ele>1108.06</ele>
        <time>2012-08-03T14:16:20Z</time>
      </trkpt>
      <trkpt lat="46.66926" lon="9.61617">
        <ele>1109.5</ele>
        <time>2012-08-03T14:16:21Z</time>
      </trkpt>
      <trkpt lat="46.66935" lon="9.61597">
        <ele>1110.46</ele>
        <time>2012-08-03T14:16:22Z</time>
      </trkpt>
      <trkpt lat="46.66945" lon="9.61576">
        <ele>1110.94</ele>
        <time>2012-08-03T14:16:23Z</time>
      </trkpt>
      <trkpt lat="46.66965" lon="9.61534">
        <ele>1110.46</ele>
        <time>2012-08-03T14:16:25Z</time>
      </trkpt>
      <trkpt lat="46.66972" lon="9.6151">
        <ele>1110.94</ele>
        <time>2012-08-03T14:16:26Z</time>
      </trkpt>
      <trkpt lat="46.66976" lon="9.61484">
        <ele>1112.38</ele>
        <time>2012-08-03T14:16:27Z</time>
      </trkpt>
      <trkpt lat="46.66979" lon="9.61458">
        <ele>1112.86</ele>
        <time>2012-08-03T14:16:28Z</time>
      </trkpt>
      <trkpt lat="46.66983" lon="9.61431">
        <ele>1112.86</ele>
        <time>2012-08-03T14:16:29Z</time>
      </trkpt>
      <trkpt lat="46.6699" lon="9.61405">
        <ele>1112.86</ele>
        <time>2012-08-03T14:16:30Z</time>
      </trkpt>
      <trkpt lat="46.67012" lon="9.6133">
        <ele>1112.86</ele>
        <time>2012-08-03T14:16:33Z</time>
      </trkpt>
      <trkpt lat="46.67015" lon="9.61305">
        <ele>1113.34</ele>
        <time>2012-08-03T14:16:34Z</time>
      </trkpt>
      <trkpt lat="46.67017" lon="9.61278">
        <ele>1113.82</ele>
        <time>2012-08-03T14:16:35Z</time>
      </trkpt>
      <trkpt lat="46.67016" lon="9.6125">
        <ele>1114.31</ele>
        <time>2012-08-03T14:16:36Z</time>
      </trkpt>
      <trkpt lat="46.67014" lon="9.61222">
        <ele>1114.79</ele>
        <time>2012-08-03T14:16:37Z</time>
      </trkpt>
      <trkpt lat="46.67012" lon="9.61158">
        <ele>1111.9</ele>
        <time>2012-08-03T14:16:40Z</time>
      </trkpt>
      <trkpt lat="46.67016" lon="9.61139">
        <ele>1112.86</ele>
        <time>2012-08-03T14:16:41Z</time>
      </trkpt>
      <trkpt lat="46.6702" lon="9.61121">
        <ele>1112.38</ele>
        <time>2012-08-03T14:16:42Z</time>
      </trkpt>
      <trkpt lat="46.67022" lon="9.61103">
        <ele>1112.38</ele>
        <time>2012-08-03T14:16:43Z</time>
      </trkpt>
      <trkpt lat="46.67022" lon="9.61083">
        <ele>1113.34</ele>
        <time>2012-08-03T14:16:44Z</time>
      </trkpt>
      <trkpt lat="46.67022" lon="9.61046">
        <ele>1113.34</ele>
        <time>2012-08-03T14:16:46Z</time>
      </trkpt>
      <trkpt lat="46.67025" lon="9.61032">
        <ele>1111.42</ele>
        <time>2012-08-03T14:16:47Z</time>
      </trkpt>
      <trkpt lat="46.6703" lon="9.6102">
        <ele>1111.9</ele>
        <time>2012-08-03T14:16:48Z</time>
      </trkpt>
      <trkpt lat="46.67039" lon="9.61009">
        <ele>1112.86</ele>
        <time>2012-08-03T14:16:49Z</time>
      </trkpt>
      <trkpt lat="46.6705" lon="9.60998">
        <ele>1113.82</ele>
        <time>2012-08-03T14:16:50Z</time>
      </trkpt>
      <trkpt lat="46.67062" lon="9.60983">
        <ele>1114.31</ele>
        <time>2012-08-03T14:16:51Z</time>
      </trkpt>
      <trkpt lat="46.67075" lon="9.60969">
        <ele>1115.27</ele>
        <time>2012-08-03T14:16:52Z</time>
      </trkpt>
      <trkpt lat="46.67088" lon="9.60959">
        <ele>1115.75</ele>
        <time>2012-08-03T14:16:53Z</time>
      </trkpt>
      <trkpt lat="46.67101" lon="9.6095">
        <ele>1116.23</ele>
        <time>2012-08-03T14:16:54Z</time>
      </trkpt>
      <trkpt lat="46.67111" lon="9.6094">
        <ele>1116.23</ele>
        <time>2012-08-03T14:16:55Z</time>
      </trkpt>
      <trkpt lat="46.67119" lon="9.60926">
        <ele>1116.23</ele>
        <time>2012-08-03T14:16:56Z</time>
      </trkpt>
      <trkpt lat="46.67125" lon="9.60911">
        <ele>1116.71</ele>
        <time>2012-08-03T14:16:57Z</time>
      </trkpt>
      <trkpt lat="46.67129" lon="9.60897">
        <ele>1116.71</ele>
        <time>2012-08-03T14:16:58Z</time>
      </trkpt>
      <trkpt lat="46.67131" lon="9.60884">
        <ele>1116.71</ele>
        <time>2012-08-03T14:16:59Z</time>
      </trkpt>
      <trkpt lat="46.67127" lon="9.60813">
        <ele>1118.63</ele>
        <time>2012-08-03T14:17:06Z</time>
      </trkpt>
      <trkpt lat="46.67119" lon="9.60809">
        <ele>1118.63</ele>
        <time>2012-08-03T14:17:07Z</time>
      </trkpt>
      <trkpt lat="46.67113" lon="9.60804">
        <ele>1119.11</ele>
        <time>2012-08-03T14:17:08Z</time>
      </trkpt>
      <trkpt lat="46.67108" lon="9.60798">
        <ele>1119.59</ele>
        <time>2012-08-03T14:17:09Z</time>
      </trkpt>
      <trkpt lat="46.67102" lon="9.60793">
        <ele>1120.07</ele>
        <time>2012-08-03T14:17:10Z</time>
      </trkpt>
      <trkpt lat="46.67096" lon="9.60789">
        <ele>1120.07</ele>
        <time>2012-08-03T14:17:11Z</time>
      </trkpt>
      <trkpt lat="46.67091" lon="9.60786">
        <ele>1120.55</ele>
        <time>2012-08-03T14:17:12Z</time>
      </trkpt>
      <trkpt lat="46.67067" lon="9.60774">
        <ele>1121.52</ele>
        <time>2012-08-03T14:17:16Z</time>
      </trkpt>
      <trkpt lat="46.67061" lon="9.6077">
        <ele>1121.52</ele>
        <time>2012-08-03T14:17:17Z</time>
      </trkpt>
      <trkpt lat="46.67056" lon="9.60764">
        <ele>1122</ele>
        <time>2012-08-03T14:17:18Z</time>
      </trkpt>
      <trkpt lat="46.67052" lon="9.60756">
        <ele>1122.48</ele>
        <time>2012-08-03T14:17:19Z</time>
      </trkpt>
      <trkpt lat="46.67048" lon="9.60748">
        <ele>1122.48</ele>
        <time>2012-08-03T14:17:20Z</time>
      </trkpt>
      <trkpt lat="46.67045" lon="9.6074">
        <ele>1122.96</ele>
        <time>2012-08-03T14:17:21Z</time>
      </trkpt>
      <trkpt lat="46.67042" lon="9.60731">
        <ele>1122.96</ele>
        <time>2012-08-03T14:17:22Z</time>
      </trkpt>
      <trkpt lat="46.6704" lon="9.60722">
        <ele>1122.96</ele>
        <time>2012-08-03T14:17:23Z</time>
      </trkpt>
      <trkpt lat="46.6703" lon="9.6068">
        <ele>1123.92</ele>
        <time>2012-08-03T14:17:28Z</time>
      </trkpt>
      <trkpt lat="46.66909" lon="9.60209">
        <ele>1143.63</ele>
        <time>2012-08-03T14:18:45Z</time>
      </trkpt>
      <trkpt lat="46.66901" lon="9.60127">
        <ele>1144.59</ele>
        <time>2012-08-03T14:18:50Z</time>
      </trkpt>
      <trkpt lat="46.66902" lon="9.60112">
        <ele>1145.55</ele>
        <time>2012-08-03T14:18:51Z</time>
      </trkpt>
      <trkpt lat="46.66904" lon="9.60096">
        <ele>1146.99</ele>
        <time>2012-08-03T14:18:52Z</time>
      </trkpt>
      <trkpt lat="46.6691" lon="9.60036">
        <ele>1148.43</ele>
        <time>2012-08-03T14:18:56Z</time>
      </trkpt>
      <trkpt lat="46.66909" lon="9.60021">
        <ele>1147.95</ele>
        <time>2012-08-03T14:18:57Z</time>
      </trkpt>
      <trkpt lat="46.66907" lon="9.60005">
        <ele>1147.95</ele>
        <time>2012-08-03T14:18:58Z</time>
      </trkpt>
      <trkpt lat="46.66904" lon="9.59989">
        <ele>1147.47</ele>
        <time>2012-08-03T14:18:59Z</time>
      </trkpt>
      <trkpt lat="46.66901" lon="9.59972">
        <ele>1147.95</ele>
        <time>2012-08-03T14:19:00Z</time>
      </trkpt>
      <trkpt lat="46.6687" lon="9.59827">
        <ele>1149.39</ele>
        <time>2012-08-03T14:19:08Z</time>
      </trkpt>
      <trkpt lat="46.66859" lon="9.59772">
        <ele>1147.47</ele>
        <time>2012-08-03T14:19:11Z</time>
      </trkpt>
      <trkpt lat="46.66857" lon="9.59755">
        <ele>1146.99</ele>
        <time>2012-08-03T14:19:12Z</time>
      </trkpt>
      <trkpt lat="46.66857" lon="9.59739">
        <ele>1146.99</ele>
        <time>2012-08-03T14:19:13Z</time>
      </trkpt>
      <trkpt lat="46.66858" lon="9.59724">
        <ele>1146.51</ele>
        <time>2012-08-03T14:19:14Z</time>
      </trkpt>
      <trkpt lat="46.6686" lon="9.59709">
        <ele>1146.99</ele>
        <time>2012-08-03T14:19:15Z</time>
      </trkpt>
      <trkpt lat="46.66864" lon="9.59694">
        <ele>1147.95</ele>
        <time>2012-08-03T14:19:16Z</time>
      </trkpt>
      <trkpt lat="46.66867" lon="9.5968">
        <ele>1148.43</ele>
        <time>2012-08-03T14:19:17Z</time>
      </trkpt>
      <trkpt lat="46.6688" lon="9.59637">
        <ele>1150.84</ele>
        <time>2012-08-03T14:19:20Z</time>
      </trkpt>
      <trkpt lat="46.66896" lon="9.5958">
        <ele>1152.76</ele>
        <time>2012-08-03T14:19:24Z</time>
      </trkpt>
      <trkpt lat="46.66907" lon="9.59539">
        <ele>1154.2</ele>
        <time>2012-08-03T14:19:27Z</time>
      </trkpt>
      <trkpt lat="46.66932" lon="9.59453">
        <ele>1152.76</ele>
        <time>2012-08-03T14:19:33Z</time>
      </trkpt>
      <trkpt lat="46.66937" lon="9.59441">
        <ele>1152.76</ele>
        <time>2012-08-03T14:19:34Z</time>
      </trkpt>
      <trkpt lat="46.66944" lon="9.59431">
        <ele>1151.8</ele>
        <time>2012-08-03T14:19:35Z</time>
      </trkpt>
      <trkpt lat="46.66952" lon="9.59422">
        <ele>1151.8</ele>
        <time>2012-08-03T14:19:36Z</time>
      </trkpt>
      <trkpt lat="46.66962" lon="9.59414">
        <ele>1152.76</ele>
        <time>2012-08-03T14:19:37Z</time>
      </trkpt>
      <trkpt lat="46.66973" lon="9.59405">
        <ele>1153.24</ele>
        <time>2012-08-03T14:19:38Z</time>
      </trkpt>
      <trkpt lat="46.67035" lon="9.59346">
        <ele>1155.64</ele>
        <time>2012-08-03T14:19:43Z</time>
      </trkpt>
      <trkpt lat="46.67046" lon="9.59329">
        <ele>1157.08</ele>
        <time>2012-08-03T14:19:44Z</time>
      </trkpt>
      <trkpt lat="46.67057" lon="9.5931">
        <ele>1158.53</ele>
        <time>2012-08-03T14:19:45Z</time>
      </trkpt>
      <trkpt lat="46.67086" lon="9.59244">
        <ele>1161.89</ele>
        <time>2012-08-03T14:19:48Z</time>
      </trkpt>
      <trkpt lat="46.67093" lon="9.59222">
        <ele>1162.37</ele>
        <time>2012-08-03T14:19:49Z</time>
      </trkpt>
      <trkpt lat="46.67098" lon="9.59199">
        <ele>1162.85</ele>
        <time>2012-08-03T14:19:50Z</time>
      </trkpt>
      <trkpt lat="46.671" lon="9.59176">
        <ele>1164.77</ele>
        <time>2012-08-03T14:19:51Z</time>
      </trkpt>
      <trkpt lat="46.67099" lon="9.59151">
        <ele>1165.26</ele>
        <time>2012-08-03T14:19:52Z</time>
      </trkpt>
      <trkpt lat="46.67095" lon="9.59128">
        <ele>1166.7</ele>
        <time>2012-08-03T14:19:53Z</time>
      </trkpt>
      <trkpt lat="46.67088" lon="9.59106">
        <ele>1167.66</ele>
        <time>2012-08-03T14:19:54Z</time>
      </trkpt>
      <trkpt lat="46.6708" lon="9.59088">
        <ele>1169.1</ele>
        <time>2012-08-03T14:19:55Z</time>
      </trkpt>
      <trkpt lat="46.67072" lon="9.59071">
        <ele>1169.58</ele>
        <time>2012-08-03T14:19:56Z</time>
      </trkpt>
      <trkpt lat="46.67065" lon="9.59053">
        <ele>1171.02</ele>
        <time>2012-08-03T14:19:57Z</time>
      </trkpt>
      <trkpt lat="46.6706" lon="9.59034">
        <ele>1171.5</ele>
        <time>2012-08-03T14:19:58Z</time>
      </trkpt>
      <trkpt lat="46.67057" lon="9.59013">
        <ele>1172.47</ele>
        <time>2012-08-03T14:19:59Z</time>
      </trkpt>
      <trkpt lat="46.67056" lon="9.58992">
        <ele>1173.43</ele>
        <time>2012-08-03T14:20:00Z</time>
      </trkpt>
      <trkpt lat="46.67057" lon="9.5897">
        <ele>1173.43</ele>
        <time>2012-08-03T14:20:01Z</time>
      </trkpt>
      <trkpt lat="46.67057" lon="9.58948">
        <ele>1174.87</ele>
        <time>2012-08-03T14:20:02Z</time>
      </trkpt>
      <trkpt lat="46.67055" lon="9.58927">
        <ele>1175.83</ele>
        <time>2012-08-03T14:20:03Z</time>
      </trkpt>
      <trkpt lat="46.67052" lon="9.58906">
        <ele>1176.31</ele>
        <time>2012-08-03T14:20:04Z</time>
      </trkpt>
      <trkpt lat="46.67047" lon="9.58886">
        <ele>1176.79</ele>
        <time>2012-08-03T14:20:05Z</time>
      </trkpt>
      <trkpt lat="46.67042" lon="9.58867">
        <ele>1177.75</ele>
        <time>2012-08-03T14:20:06Z</time>
      </trkpt>
      <trkpt lat="46.67038" lon="9.58846">
        <ele>1178.23</ele>
        <time>2012-08-03T14:20:07Z</time>
      </trkpt>
      <trkpt lat="46.67035" lon="9.58825">
        <ele>1179.67</ele>
        <time>2012-08-03T14:20:08Z</time>
      </trkpt>
      <trkpt lat="46.67028" lon="9.58761">
        <ele>1182.56</ele>
        <time>2012-08-03T14:20:11Z</time>
      </trkpt>
      <trkpt lat="46.67024" lon="9.5874">
        <ele>1183.04</ele>
        <time>2012-08-03T14:20:12Z</time>
      </trkpt>
      <trkpt lat="46.67017" lon="9.5872">
        <ele>1184.48</ele>
        <time>2012-08-03T14:20:13Z</time>
      </trkpt>
      <trkpt lat="46.66981" lon="9.58626">
        <ele>1187.85</ele>
        <time>2012-08-03T14:20:18Z</time>
      </trkpt>
      <trkpt lat="46.66969" lon="9.58588">
        <ele>1189.77</ele>
        <time>2012-08-03T14:20:20Z</time>
      </trkpt>
      <trkpt lat="46.66965" lon="9.58568">
        <ele>1189.77</ele>
        <time>2012-08-03T14:20:21Z</time>
      </trkpt>
      <trkpt lat="46.66963" lon="9.58548">
        <ele>1190.73</ele>
        <time>2012-08-03T14:20:22Z</time>
      </trkpt>
      <trkpt lat="46.66964" lon="9.58527">
        <ele>1191.21</ele>
        <time>2012-08-03T14:20:23Z</time>
      </trkpt>
      <trkpt lat="46.66967" lon="9.58507">
        <ele>1192.17</ele>
        <time>2012-08-03T14:20:24Z</time>
      </trkpt>
      <trkpt lat="46.66971" lon="9.58488">
        <ele>1193.13</ele>
        <time>2012-08-03T14:20:25Z</time>
      </trkpt>
      <trkpt lat="46.66977" lon="9.58469">
        <ele>1195.06</ele>
        <time>2012-08-03T14:20:26Z</time>
      </trkpt>
      <trkpt lat="46.66989" lon="9.58433">
        <ele>1198.42</ele>
        <time>2012-08-03T14:20:28Z</time>
      </trkpt>
      <trkpt lat="46.67005" lon="9.584">
        <ele>1199.86</ele>
        <time>2012-08-03T14:20:30Z</time>
      </trkpt>
      <trkpt lat="46.67014" lon="9.58385">
        <ele>1200.82</ele>
        <time>2012-08-03T14:20:31Z</time>
      </trkpt>
      <trkpt lat="46.67024" lon="9.58372">
        <ele>1201.79</ele>
        <time>2012-08-03T14:20:32Z</time>
      </trkpt>
      <trkpt lat="46.67058" lon="9.58335">
        <ele>1203.23</ele>
        <time>2012-08-03T14:20:35Z</time>
      </trkpt>
      <trkpt lat="46.67107" lon="9.58281">
        <ele>1207.55</ele>
        <time>2012-08-03T14:20:39Z</time>
      </trkpt>
      <trkpt lat="46.67119" lon="9.58266">
        <ele>1207.55</ele>
        <time>2012-08-03T14:20:40Z</time>
      </trkpt>
      <trkpt lat="46.67129" lon="9.58249">
        <ele>1209.96</ele>
        <time>2012-08-03T14:20:41Z</time>
      </trkpt>
      <trkpt lat="46.67139" lon="9.5823">
        <ele>1210.44</ele>
        <time>2012-08-03T14:20:42Z</time>
      </trkpt>
      <trkpt lat="46.67166" lon="9.58172">
        <ele>1213.8</ele>
        <time>2012-08-03T14:20:45Z</time>
      </trkpt>
      <trkpt lat="46.67211" lon="9.58099">
        <ele>1217.65</ele>
        <time>2012-08-03T14:20:49Z</time>
      </trkpt>
      <trkpt lat="46.67247" lon="9.58045">
        <ele>1220.53</ele>
        <time>2012-08-03T14:20:52Z</time>
      </trkpt>
      <trkpt lat="46.67303" lon="9.57987">
        <ele>1224.38</ele>
        <time>2012-08-03T14:20:56Z</time>
      </trkpt>
      <trkpt lat="46.67332" lon="9.57959">
        <ele>1227.74</ele>
        <time>2012-08-03T14:20:58Z</time>
      </trkpt>
      <trkpt lat="46.67377" lon="9.57917">
        <ele>1230.62</ele>
        <time>2012-08-03T14:21:01Z</time>
      </trkpt>
      <trkpt lat="46.67409" lon="9.57891">
        <ele>1233.99</ele>
        <time>2012-08-03T14:21:03Z</time>
      </trkpt>
      <trkpt lat="46.67443" lon="9.57869">
        <ele>1235.43</ele>
        <time>2012-08-03T14:21:05Z</time>
      </trkpt>
      <trkpt lat="46.67491" lon="9.57847">
        <ele>1236.87</ele>
        <time>2012-08-03T14:21:08Z</time>
      </trkpt>
      <trkpt lat="46.67521" lon="9.57839">
        <ele>1237.83</ele>
        <time>2012-08-03T14:21:10Z</time>
      </trkpt>
      <trkpt lat="46.67535" lon="9.5783">
        <ele>1239.28</ele>
        <time>2012-08-03T14:21:11Z</time>
      </trkpt>
      <trkpt lat="46.67548" lon="9.57817">
        <ele>1239.76</ele>
        <time>2012-08-03T14:21:12Z</time>
      </trkpt>
      <trkpt lat="46.67559" lon="9.57799">
        <ele>1241.2</ele>
        <time>2012-08-03T14:21:13Z</time>
      </trkpt>
      <trkpt lat="46.67567" lon="9.57777">
        <ele>1242.16</ele>
        <time>2012-08-03T14:21:14Z</time>
      </trkpt>
      <trkpt lat="46.67573" lon="9.57753">
        <ele>1244.56</ele>
        <time>2012-08-03T14:21:15Z</time>
      </trkpt>
      <trkpt lat="46.67578" lon="9.57726">
        <ele>1246.01</ele>
        <time>2012-08-03T14:21:16Z</time>
      </trkpt>
      <trkpt lat="46.67593" lon="9.57651">
        <ele>1247.45</ele>
        <time>2012-08-03T14:21:19Z</time>
      </trkpt>
      <trkpt lat="46.67602" lon="9.57628">
        <ele>1249.37</ele>
        <time>2012-08-03T14:21:20Z</time>
      </trkpt>
      <trkpt lat="46.67613" lon="9.57606">
        <ele>1251.77</ele>
        <time>2012-08-03T14:21:21Z</time>
      </trkpt>
      <trkpt lat="46.67638" lon="9.57565">
        <ele>1255.62</ele>
        <time>2012-08-03T14:21:23Z</time>
      </trkpt>
      <trkpt lat="46.67687" lon="9.57481">
        <ele>1260.43</ele>
        <time>2012-08-03T14:21:27Z</time>
      </trkpt>
      <trkpt lat="46.6773" lon="9.57392">
        <ele>1263.31</ele>
        <time>2012-08-03T14:21:31Z</time>
      </trkpt>
      <trkpt lat="46.67759" lon="9.57325">
        <ele>1268.12</ele>
        <time>2012-08-03T14:21:34Z</time>
      </trkpt>
      <trkpt lat="46.67768" lon="9.57302">
        <ele>1268.12</ele>
        <time>2012-08-03T14:21:35Z</time>
      </trkpt>
      <trkpt lat="46.67796" lon="9.57235">
        <ele>1271.96</ele>
        <time>2012-08-03T14:21:38Z</time>
      </trkpt>
      <trkpt lat="46.67834" lon="9.57144">
        <ele>1274.36</ele>
        <time>2012-08-03T14:21:42Z</time>
      </trkpt>
      <trkpt lat="46.67855" lon="9.57103">
        <ele>1277.73</ele>
        <time>2012-08-03T14:21:44Z</time>
      </trkpt>
      <trkpt lat="46.67908" lon="9.57032">
        <ele>1281.09</ele>
        <time>2012-08-03T14:21:48Z</time>
      </trkpt>
      <trkpt lat="46.67949" lon="9.56983">
        <ele>1284.46</ele>
        <time>2012-08-03T14:21:51Z</time>
      </trkpt>
      <trkpt lat="46.67989" lon="9.56936">
        <ele>1286.38</ele>
        <time>2012-08-03T14:21:54Z</time>
      </trkpt>
      <trkpt lat="46.68104" lon="9.56762">
        <ele>1285.42</ele>
        <time>2012-08-03T14:22:04Z</time>
      </trkpt>
      <trkpt lat="46.68145" lon="9.56686">
        <ele>1286.86</ele>
        <time>2012-08-03T14:22:09Z</time>
      </trkpt>
      <trkpt lat="46.6817" lon="9.56636">
        <ele>1285.9</ele>
        <time>2012-08-03T14:22:13Z</time>
      </trkpt>
      <trkpt lat="46.68175" lon="9.56624">
        <ele>1285.9</ele>
        <time>2012-08-03T14:22:14Z</time>
      </trkpt>
      <trkpt lat="46.68182" lon="9.56601">
        <ele>1286.86</ele>
        <time>2012-08-03T14:22:16Z</time>
      </trkpt>
      <trkpt lat="46.68188" lon="9.5659">
        <ele>1287.82</ele>
        <time>2012-08-03T14:22:17Z</time>
      </trkpt>
      <trkpt lat="46.68196" lon="9.5658">
        <ele>1288.78</ele>
        <time>2012-08-03T14:22:18Z</time>
      </trkpt>
      <trkpt lat="46.68229" lon="9.56545">
        <ele>1289.27</ele>
        <time>2012-08-03T14:22:24Z</time>
      </trkpt>
      <trkpt lat="46.68246" lon="9.56526">
        <ele>1290.71</ele>
        <time>2012-08-03T14:22:30Z</time>
      </trkpt>
      <trkpt lat="46.68279" lon="9.56489">
        <ele>1293.59</ele>
        <time>2012-08-03T14:22:42Z</time>
      </trkpt>
      <trkpt lat="46.68289" lon="9.56474">
        <ele>1295.03</ele>
        <time>2012-08-03T14:22:46Z</time>
      </trkpt>
      <trkpt lat="46.68292" lon="9.5647">
        <ele>1295.03</ele>
        <time>2012-08-03T14:22:47Z</time>
      </trkpt>
      <trkpt lat="46.683" lon="9.56464">
        <ele>1295.99</ele>
        <time>2012-08-03T14:22:49Z</time>
      </trkpt>
      <trkpt lat="46.68348" lon="9.56436">
        <ele>1299.36</ele>
        <time>2012-08-03T14:22:58Z</time>
      </trkpt>
      <trkpt lat="46.68378" lon="9.5641">
        <ele>1303.2</ele>
        <time>2012-08-03T14:23:03Z</time>
      </trkpt>
      <trkpt lat="46.68387" lon="9.564">
        <ele>1303.69</ele>
        <time>2012-08-03T14:23:05Z</time>
      </trkpt>
      <trkpt lat="46.68414" lon="9.56374">
        <ele>1306.09</ele>
        <time>2012-08-03T14:23:10Z</time>
      </trkpt>
      <trkpt lat="46.68433" lon="9.56358">
        <ele>1309.45</ele>
        <time>2012-08-03T14:23:13Z</time>
      </trkpt>
      <trkpt lat="46.6844" lon="9.56352">
        <ele>1309.93</ele>
        <time>2012-08-03T14:23:14Z</time>
      </trkpt>
      <trkpt lat="46.68463" lon="9.5634">
        <ele>1311.86</ele>
        <time>2012-08-03T14:23:17Z</time>
      </trkpt>
      <trkpt lat="46.68471" lon="9.56338">
        <ele>1312.34</ele>
        <time>2012-08-03T14:23:18Z</time>
      </trkpt>
      <trkpt lat="46.68499" lon="9.56336">
        <ele>1316.18</ele>
        <time>2012-08-03T14:23:21Z</time>
      </trkpt>
      <trkpt lat="46.68508" lon="9.56334">
        <ele>1315.7</ele>
        <time>2012-08-03T14:23:22Z</time>
      </trkpt>
      <trkpt lat="46.68534" lon="9.56332">
        <ele>1317.14</ele>
        <time>2012-08-03T14:23:25Z</time>
      </trkpt>
      <trkpt lat="46.68571" lon="9.5633">
        <ele>1320.51</ele>
        <time>2012-08-03T14:23:29Z</time>
      </trkpt>
      <trkpt lat="46.6858" lon="9.56329">
        <ele>1320.51</ele>
        <time>2012-08-03T14:23:30Z</time>
      </trkpt>
      <trkpt lat="46.68612" lon="9.56327">
        <ele>1324.35</ele>
        <time>2012-08-03T14:23:33Z</time>
      </trkpt>
      <trkpt lat="46.68658" lon="9.56323">
        <ele>1328.68</ele>
        <time>2012-08-03T14:23:37Z</time>
      </trkpt>
      <trkpt lat="46.68692" lon="9.56321">
        <ele>1332.04</ele>
        <time>2012-08-03T14:23:40Z</time>
      </trkpt>
      <trkpt lat="46.68738" lon="9.56318">
        <ele>1335.41</ele>
        <time>2012-08-03T14:23:44Z</time>
      </trkpt>
      <trkpt lat="46.68773" lon="9.56316">
        <ele>1338.77</ele>
        <time>2012-08-03T14:23:47Z</time>
      </trkpt>
      <trkpt lat="46.68808" lon="9.56314">
        <ele>1342.62</ele>
        <time>2012-08-03T14:23:50Z</time>
      </trkpt>
      <trkpt lat="46.68843" lon="9.56309">
        <ele>1346.46</ele>
        <time>2012-08-03T14:23:53Z</time>
      </trkpt>
      <trkpt lat="46.68866" lon="9.56302">
        <ele>1348.87</ele>
        <time>2012-08-03T14:23:55Z</time>
      </trkpt>
      <trkpt lat="46.68876" lon="9.56296">
        <ele>1349.83</ele>
        <time>2012-08-03T14:23:56Z</time>
      </trkpt>
      <trkpt lat="46.68887" lon="9.56288">
        <ele>1351.27</ele>
        <time>2012-08-03T14:23:57Z</time>
      </trkpt>
      <trkpt lat="46.68924" lon="9.56257">
        <ele>1355.12</ele>
        <time>2012-08-03T14:24:01Z</time>
      </trkpt>
      <trkpt lat="46.68953" lon="9.56233">
        <ele>1358.48</ele>
        <time>2012-08-03T14:24:04Z</time>
      </trkpt>
      <trkpt lat="46.68993" lon="9.56197">
        <ele>1361.84</ele>
        <time>2012-08-03T14:24:08Z</time>
      </trkpt>
      <trkpt lat="46.69025" lon="9.5617">
        <ele>1365.21</ele>
        <time>2012-08-03T14:24:11Z</time>
      </trkpt>
      <trkpt lat="46.6906" lon="9.56141">
        <ele>1369.54</ele>
        <time>2012-08-03T14:24:14Z</time>
      </trkpt>
      <trkpt lat="46.69073" lon="9.5613">
        <ele>1371.46</ele>
        <time>2012-08-03T14:24:15Z</time>
      </trkpt>
      <trkpt lat="46.69103" lon="9.56105">
        <ele>1374.34</ele>
        <time>2012-08-03T14:24:17Z</time>
      </trkpt>
      <trkpt lat="46.69153" lon="9.56064">
        <ele>1377.71</ele>
        <time>2012-08-03T14:24:21Z</time>
      </trkpt>
      <trkpt lat="46.69199" lon="9.56028">
        <ele>1381.55</ele>
        <time>2012-08-03T14:24:25Z</time>
      </trkpt>
      <trkpt lat="46.69238" lon="9.56006">
        <ele>1384.92</ele>
        <time>2012-08-03T14:24:28Z</time>
      </trkpt>
      <trkpt lat="46.69269" lon="9.55995">
        <ele>1387.8</ele>
        <time>2012-08-03T14:24:30Z</time>
      </trkpt>
      <trkpt lat="46.69301" lon="9.55983">
        <ele>1391.17</ele>
        <time>2012-08-03T14:24:32Z</time>
      </trkpt>
      <trkpt lat="46.6935" lon="9.55966">
        <ele>1394.05</ele>
        <time>2012-08-03T14:24:35Z</time>
      </trkpt>
      <trkpt lat="46.694" lon="9.55948">
        <ele>1399.82</ele>
        <time>2012-08-03T14:24:38Z</time>
      </trkpt>
      <trkpt lat="46.69467" lon="9.55923">
        <ele>1403.18</ele>
        <time>2012-08-03T14:24:42Z</time>
      </trkpt>
      <trkpt lat="46.69517" lon="9.55906">
        <ele>1407.51</ele>
        <time>2012-08-03T14:24:45Z</time>
      </trkpt>
      <trkpt lat="46.69568" lon="9.55886">
        <ele>1411.35</ele>
        <time>2012-08-03T14:24:48Z</time>
      </trkpt>
      <trkpt lat="46.6962" lon="9.55868">
        <ele>1414.72</ele>
        <time>2012-08-03T14:24:51Z</time>
      </trkpt>
      <trkpt lat="46.69637" lon="9.55862">
        <ele>1414.24</ele>
        <time>2012-08-03T14:24:52Z</time>
      </trkpt>
      <trkpt lat="46.69672" lon="9.5585">
        <ele>1416.16</ele>
        <time>2012-08-03T14:24:54Z</time>
      </trkpt>
      <trkpt lat="46.69891" lon="9.55793">
        <ele>1416.64</ele>
        <time>2012-08-03T14:25:07Z</time>
      </trkpt>
      <trkpt lat="46.69908" lon="9.55797">
        <ele>1417.6</ele>
        <time>2012-08-03T14:25:08Z</time>
      </trkpt>
      <trkpt lat="46.69924" lon="9.55802">
        <ele>1417.6</ele>
        <time>2012-08-03T14:25:09Z</time>
      </trkpt>
      <trkpt lat="46.70099" lon="9.55869">
        <ele>1420.49</ele>
        <time>2012-08-03T14:25:19Z</time>
      </trkpt>
      <trkpt lat="46.70302" lon="9.55944">
        <ele>1419.52</ele>
        <time>2012-08-03T14:25:29Z</time>
      </trkpt>
      <trkpt lat="46.70365" lon="9.55968">
        <ele>1421.93</ele>
        <time>2012-08-03T14:25:32Z</time>
      </trkpt>
      <trkpt lat="46.70515" lon="9.56023">
        <ele>1417.6</ele>
        <time>2012-08-03T14:25:39Z</time>
      </trkpt>
      <trkpt lat="46.70535" lon="9.5603">
        <ele>1417.6</ele>
        <time>2012-08-03T14:25:40Z</time>
      </trkpt>
      <trkpt lat="46.70593" lon="9.56043">
        <ele>1416.64</ele>
        <time>2012-08-03T14:25:43Z</time>
      </trkpt>
      <trkpt lat="46.70613" lon="9.56039">
        <ele>1417.6</ele>
        <time>2012-08-03T14:25:44Z</time>
      </trkpt>
      <trkpt lat="46.70734" lon="9.55991">
        <ele>1419.04</ele>
        <time>2012-08-03T14:25:50Z</time>
      </trkpt>
      <trkpt lat="46.70856" lon="9.55945">
        <ele>1422.41</ele>
        <time>2012-08-03T14:25:56Z</time>
      </trkpt>
      <trkpt lat="46.70875" lon="9.55937">
        <ele>1422.41</ele>
        <time>2012-08-03T14:25:57Z</time>
      </trkpt>
      <trkpt lat="46.70955" lon="9.55918">
        <ele>1423.85</ele>
        <time>2012-08-03T14:26:01Z</time>
      </trkpt>
      <trkpt lat="46.70997" lon="9.55922">
        <ele>1427.21</ele>
        <time>2012-08-03T14:26:03Z</time>
      </trkpt>
      <trkpt lat="46.71017" lon="9.55924">
        <ele>1426.73</ele>
        <time>2012-08-03T14:26:04Z</time>
      </trkpt>
      <trkpt lat="46.7114" lon="9.55939">
        <ele>1430.1</ele>
        <time>2012-08-03T14:26:10Z</time>
      </trkpt>
      <trkpt lat="46.7116" lon="9.55941">
        <ele>1430.1</ele>
        <time>2012-08-03T14:26:11Z</time>
      </trkpt>
      <trkpt lat="46.71299" lon="9.55958">
        <ele>1426.73</ele>
        <time>2012-08-03T14:26:18Z</time>
      </trkpt>
      <trkpt lat="46.71317" lon="9.5596">
        <ele>1426.73</ele>
        <time>2012-08-03T14:26:19Z</time>
      </trkpt>
      <trkpt lat="46.71361" lon="9.55963">
        <ele>1425.77</ele>
        <time>2012-08-03T14:26:22Z</time>
      </trkpt>
      <trkpt lat="46.71376" lon="9.55961">
        <ele>1426.73</ele>
        <time>2012-08-03T14:26:23Z</time>
      </trkpt>
      <trkpt lat="46.7139" lon="9.55953">
        <ele>1426.73</ele>
        <time>2012-08-03T14:26:24Z</time>
      </trkpt>
      <trkpt lat="46.71403" lon="9.55941">
        <ele>1427.21</ele>
        <time>2012-08-03T14:26:25Z</time>
      </trkpt>
      <trkpt lat="46.71417" lon="9.55928">
        <ele>1427.21</ele>
        <time>2012-08-03T14:26:26Z</time>
      </trkpt>
      <trkpt lat="46.71454" lon="9.55892">
        <ele>1425.29</ele>
        <time>2012-08-03T14:26:29Z</time>
      </trkpt>
      <trkpt lat="46.71467" lon="9.55885">
        <ele>1425.29</ele>
        <time>2012-08-03T14:26:30Z</time>
      </trkpt>
      <trkpt lat="46.71481" lon="9.55883">
        <ele>1426.25</ele>
        <time>2012-08-03T14:26:31Z</time>
      </trkpt>
      <trkpt lat="46.71496" lon="9.55884">
        <ele>1426.73</ele>
        <time>2012-08-03T14:26:32Z</time>
      </trkpt>
      <trkpt lat="46.71512" lon="9.55886">
        <ele>1428.66</ele>
        <time>2012-08-03T14:26:33Z</time>
      </trkpt>
      <trkpt lat="46.71598" lon="9.55894">
        <ele>1432.02</ele>
        <time>2012-08-03T14:26:38Z</time>
      </trkpt>
      <trkpt lat="46.71703" lon="9.55906">
        <ele>1434.91</ele>
        <time>2012-08-03T14:26:44Z</time>
      </trkpt>
      <trkpt lat="46.71737" lon="9.55909">
        <ele>1435.87</ele>
        <time>2012-08-03T14:26:46Z</time>
      </trkpt>
      <trkpt lat="46.71789" lon="9.55916">
        <ele>1438.27</ele>
        <time>2012-08-03T14:26:49Z</time>
      </trkpt>
      <trkpt lat="46.71871" lon="9.55923">
        <ele>1438.75</ele>
        <time>2012-08-03T14:26:54Z</time>
      </trkpt>
      <trkpt lat="46.71885" lon="9.55918">
        <ele>1439.23</ele>
        <time>2012-08-03T14:26:55Z</time>
      </trkpt>
      <trkpt lat="46.719" lon="9.55909">
        <ele>1440.67</ele>
        <time>2012-08-03T14:26:56Z</time>
      </trkpt>
      <trkpt lat="46.71913" lon="9.55898">
        <ele>1440.67</ele>
        <time>2012-08-03T14:26:57Z</time>
      </trkpt>
      <trkpt lat="46.71927" lon="9.55889">
        <ele>1439.71</ele>
        <time>2012-08-03T14:26:58Z</time>
      </trkpt>
      <trkpt lat="46.71941" lon="9.55882">
        <ele>1440.19</ele>
        <time>2012-08-03T14:26:59Z</time>
      </trkpt>
      <trkpt lat="46.71955" lon="9.55879">
        <ele>1440.67</ele>
        <time>2012-08-03T14:27:00Z</time>
      </trkpt>
      <trkpt lat="46.72063" lon="9.55873">
        <ele>1442.6</ele>
        <time>2012-08-03T14:27:08Z</time>
      </trkpt>
      <trkpt lat="46.72146" lon="9.55872">
        <ele>1444.04</ele>
        <time>2012-08-03T14:27:14Z</time>
      </trkpt>
      <trkpt lat="46.72158" lon="9.55875">
        <ele>1444.52</ele>
        <time>2012-08-03T14:27:15Z</time>
      </trkpt>
      <trkpt lat="46.72168" lon="9.55878">
        <ele>1443.56</ele>
        <time>2012-08-03T14:27:16Z</time>
      </trkpt>
      <trkpt lat="46.72175" lon="9.55882">
        <ele>1442.6</ele>
        <time>2012-08-03T14:27:17Z</time>
      </trkpt>
      <trkpt lat="46.7218" lon="9.55886">
        <ele>1442.6</ele>
        <time>2012-08-03T14:27:18Z</time>
      </trkpt>
      <trkpt lat="46.7219" lon="9.55891">
        <ele>1442.6</ele>
        <time>2012-08-03T14:27:20Z</time>
      </trkpt>
      <trkpt lat="46.72194" lon="9.55891">
        <ele>1443.08</ele>
        <time>2012-08-03T14:27:21Z</time>
      </trkpt>
      <trkpt lat="46.72195" lon="9.55891">
        <ele>1442.6</ele>
        <time>2012-08-03T14:27:29Z</time>
      </trkpt>
      <trkpt lat="46.72193" lon="9.55892">
        <ele>1442.11</ele>
        <time>2012-08-03T14:27:41Z</time>
      </trkpt>
      <trkpt lat="46.72196" lon="9.55893">
        <ele>1443.08</ele>
        <time>2012-08-03T14:28:11Z</time>
      </trkpt>
      <trkpt lat="46.72196" lon="9.55891">
        <ele>1443.08</ele>
        <time>2012-08-03T14:28:34Z</time>
      </trkpt>
      <trkpt lat="46.72193" lon="9.55888">
        <ele>1443.56</ele>
        <time>2012-08-03T14:28:45Z</time>
      </trkpt>
      <trkpt lat="46.72193" lon="9.55884">
        <ele>1444.04</ele>
        <time>2012-08-03T14:28:46Z</time>
      </trkpt>
      <trkpt lat="46.72191" lon="9.5588">
        <ele>1443.56</ele>
        <time>2012-08-03T14:28:47Z</time>
      </trkpt>
      <trkpt lat="46.72186" lon="9.55878">
        <ele>1443.56</ele>
        <time>2012-08-03T14:28:48Z</time>
      </trkpt>
      <trkpt lat="46.72179" lon="9.55875">
        <ele>1444.52</ele>
        <time>2012-08-03T14:28:49Z</time>
      </trkpt>
      <trkpt lat="46.7217" lon="9.55872">
        <ele>1445</ele>
        <time>2012-08-03T14:28:50Z</time>
      </trkpt>
      <trkpt lat="46.72132" lon="9.55864">
        <ele>1445.96</ele>
        <time>2012-08-03T14:28:53Z</time>
      </trkpt>
      <trkpt lat="46.72036" lon="9.55868">
        <ele>1442.6</ele>
        <time>2012-08-03T14:28:59Z</time>
      </trkpt>
      <trkpt lat="46.7197" lon="9.5587">
        <ele>1442.11</ele>
        <time>2012-08-03T14:29:03Z</time>
      </trkpt>
      <trkpt lat="46.71938" lon="9.55875">
        <ele>1441.15</ele>
        <time>2012-08-03T14:29:05Z</time>
      </trkpt>
      <trkpt lat="46.71922" lon="9.55883">
        <ele>1440.67</ele>
        <time>2012-08-03T14:29:06Z</time>
      </trkpt>
      <trkpt lat="46.71906" lon="9.55894">
        <ele>1441.15</ele>
        <time>2012-08-03T14:29:07Z</time>
      </trkpt>
      <trkpt lat="46.71891" lon="9.55905">
        <ele>1440.19</ele>
        <time>2012-08-03T14:29:08Z</time>
      </trkpt>
      <trkpt lat="46.71874" lon="9.55913">
        <ele>1440.19</ele>
        <time>2012-08-03T14:29:09Z</time>
      </trkpt>
      <trkpt lat="46.71857" lon="9.55916">
        <ele>1439.23</ele>
        <time>2012-08-03T14:29:10Z</time>
      </trkpt>
      <trkpt lat="46.71839" lon="9.55915">
        <ele>1439.71</ele>
        <time>2012-08-03T14:29:11Z</time>
      </trkpt>
      <trkpt lat="46.71738" lon="9.559">
        <ele>1436.83</ele>
        <time>2012-08-03T14:29:16Z</time>
      </trkpt>
      <trkpt lat="46.71551" lon="9.5588">
        <ele>1432.5</ele>
        <time>2012-08-03T14:29:24Z</time>
      </trkpt>
      <trkpt lat="46.71493" lon="9.55874">
        <ele>1428.18</ele>
        <time>2012-08-03T14:29:27Z</time>
      </trkpt>
      <trkpt lat="46.71464" lon="9.55876">
        <ele>1427.21</ele>
        <time>2012-08-03T14:29:29Z</time>
      </trkpt>
      <trkpt lat="46.71448" lon="9.55885">
        <ele>1428.66</ele>
        <time>2012-08-03T14:29:30Z</time>
      </trkpt>
      <trkpt lat="46.71432" lon="9.55898">
        <ele>1429.62</ele>
        <time>2012-08-03T14:29:31Z</time>
      </trkpt>
      <trkpt lat="46.71416" lon="9.55913">
        <ele>1430.1</ele>
        <time>2012-08-03T14:29:32Z</time>
      </trkpt>
      <trkpt lat="46.714" lon="9.55928">
        <ele>1429.62</ele>
        <time>2012-08-03T14:29:33Z</time>
      </trkpt>
      <trkpt lat="46.71372" lon="9.55952">
        <ele>1427.7</ele>
        <time>2012-08-03T14:29:35Z</time>
      </trkpt>
      <trkpt lat="46.71357" lon="9.55958">
        <ele>1428.18</ele>
        <time>2012-08-03T14:29:36Z</time>
      </trkpt>
      <trkpt lat="46.71339" lon="9.55958">
        <ele>1428.66</ele>
        <time>2012-08-03T14:29:37Z</time>
      </trkpt>
      <trkpt lat="46.71281" lon="9.5595">
        <ele>1431.54</ele>
        <time>2012-08-03T14:29:40Z</time>
      </trkpt>
      <trkpt lat="46.71261" lon="9.55947">
        <ele>1431.54</ele>
        <time>2012-08-03T14:29:41Z</time>
      </trkpt>
      <trkpt lat="46.71095" lon="9.55928">
        <ele>1430.1</ele>
        <time>2012-08-03T14:29:49Z</time>
      </trkpt>
      <trkpt lat="46.70966" lon="9.55913">
        <ele>1426.73</ele>
        <time>2012-08-03T14:29:55Z</time>
      </trkpt>
      <trkpt lat="46.70945" lon="9.55912">
        <ele>1426.73</ele>
        <time>2012-08-03T14:29:56Z</time>
      </trkpt>
      <trkpt lat="46.70904" lon="9.55919">
        <ele>1426.25</ele>
        <time>2012-08-03T14:29:58Z</time>
      </trkpt>
      <trkpt lat="46.70708" lon="9.55995">
        <ele>1423.37</ele>
        <time>2012-08-03T14:30:06Z</time>
      </trkpt>
      <trkpt lat="46.70638" lon="9.56023">
        <ele>1419.52</ele>
        <time>2012-08-03T14:30:09Z</time>
      </trkpt>
      <trkpt lat="46.70599" lon="9.56036">
        <ele>1417.6</ele>
        <time>2012-08-03T14:30:11Z</time>
      </trkpt>
      <trkpt lat="46.70578" lon="9.56036">
        <ele>1417.12</ele>
        <time>2012-08-03T14:30:12Z</time>
      </trkpt>
      <trkpt lat="46.70558" lon="9.56032">
        <ele>1418.08</ele>
        <time>2012-08-03T14:30:13Z</time>
      </trkpt>
      <trkpt lat="46.70536" lon="9.56025">
        <ele>1418.08</ele>
        <time>2012-08-03T14:30:14Z</time>
      </trkpt>
      <trkpt lat="46.70515" lon="9.56016">
        <ele>1419.52</ele>
        <time>2012-08-03T14:30:15Z</time>
      </trkpt>
      <trkpt lat="46.70493" lon="9.56007">
        <ele>1419.52</ele>
        <time>2012-08-03T14:30:16Z</time>
      </trkpt>
      <trkpt lat="46.70402" lon="9.55973">
        <ele>1422.41</ele>
        <time>2012-08-03T14:30:20Z</time>
      </trkpt>
      <trkpt lat="46.70197" lon="9.55898">
        <ele>1425.29</ele>
        <time>2012-08-03T14:30:29Z</time>
      </trkpt>
      <trkpt lat="46.70009" lon="9.55826">
        <ele>1424.81</ele>
        <time>2012-08-03T14:30:37Z</time>
      </trkpt>
      <trkpt lat="46.69969" lon="9.55812">
        <ele>1420.49</ele>
        <time>2012-08-03T14:30:39Z</time>
      </trkpt>
      <trkpt lat="46.69014" lon="9.56178">
        <ele>1362.81</ele>
        <time>2012-08-03T14:39:12Z</time>
      </trkpt>
      <trkpt lat="46.69028" lon="9.56168">
        <ele>1363.77</ele>
        <time>2012-08-03T14:39:13Z</time>
      </trkpt>
      <trkpt lat="46.69056" lon="9.56146">
        <ele>1366.65</ele>
        <time>2012-08-03T14:39:16Z</time>
      </trkpt>
      <trkpt lat="46.69087" lon="9.56119">
        <ele>1370.5</ele>
        <time>2012-08-03T14:39:19Z</time>
      </trkpt>
      <trkpt lat="46.69108" lon="9.561">
        <ele>1373.38</ele>
        <time>2012-08-03T14:39:21Z</time>
      </trkpt>
      <trkpt lat="46.69141" lon="9.5607">
        <ele>1376.75</ele>
        <time>2012-08-03T14:39:24Z</time>
      </trkpt>
      <trkpt lat="46.69178" lon="9.5604">
        <ele>1380.59</ele>
        <time>2012-08-03T14:39:27Z</time>
      </trkpt>
      <trkpt lat="46.69218" lon="9.56012">
        <ele>1383.96</ele>
        <time>2012-08-03T14:39:30Z</time>
      </trkpt>
      <trkpt lat="46.69264" lon="9.55992">
        <ele>1389.72</ele>
        <time>2012-08-03T14:39:33Z</time>
      </trkpt>
      <trkpt lat="46.69323" lon="9.55971">
        <ele>1393.09</ele>
        <time>2012-08-03T14:39:37Z</time>
      </trkpt>
      <trkpt lat="46.69364" lon="9.55957">
        <ele>1399.34</ele>
        <time>2012-08-03T14:39:40Z</time>
      </trkpt>
      <trkpt lat="46.69409" lon="9.55941">
        <ele>1403.18</ele>
        <time>2012-08-03T14:39:43Z</time>
      </trkpt>
      <trkpt lat="46.69442" lon="9.5593">
        <ele>1407.03</ele>
        <time>2012-08-03T14:39:45Z</time>
      </trkpt>
      <trkpt lat="46.69495" lon="9.55911">
        <ele>1410.87</ele>
        <time>2012-08-03T14:39:48Z</time>
      </trkpt>
      <trkpt lat="46.69576" lon="9.55879">
        <ele>1414.72</ele>
        <time>2012-08-03T14:39:54Z</time>
      </trkpt>
      <trkpt lat="46.69588" lon="9.55874">
        <ele>1415.2</ele>
        <time>2012-08-03T14:39:55Z</time>
      </trkpt>
      <trkpt lat="46.69601" lon="9.55871">
        <ele>1416.64</ele>
        <time>2012-08-03T14:39:56Z</time>
      </trkpt>
      <trkpt lat="46.69669" lon="9.55849">
        <ele>1420.49</ele>
        <time>2012-08-03T14:40:01Z</time>
      </trkpt>
      <trkpt lat="46.69697" lon="9.55838">
        <ele>1423.85</ele>
        <time>2012-08-03T14:40:03Z</time>
      </trkpt>
      <trkpt lat="46.69711" lon="9.55833">
        <ele>1423.37</ele>
        <time>2012-08-03T14:40:04Z</time>
      </trkpt>
      <trkpt lat="46.69859" lon="9.55789">
        <ele>1425.77</ele>
        <time>2012-08-03T14:40:13Z</time>
      </trkpt>
      <trkpt lat="46.69876" lon="9.55789">
        <ele>1425.29</ele>
        <time>2012-08-03T14:40:14Z</time>
      </trkpt>
      <trkpt lat="46.69893" lon="9.55791">
        <ele>1425.77</ele>
        <time>2012-08-03T14:40:15Z</time>
      </trkpt>
      <trkpt lat="46.6991" lon="9.55796">
        <ele>1426.25</ele>
        <time>2012-08-03T14:40:16Z</time>
      </trkpt>
      <trkpt lat="46.69927" lon="9.55802">
        <ele>1426.25</ele>
        <time>2012-08-03T14:40:17Z</time>
      </trkpt>
      <trkpt lat="46.70121" lon="9.55875">
        <ele>1428.66</ele>
        <time>2012-08-03T14:40:28Z</time>
      </trkpt>
      <trkpt lat="46.70356" lon="9.55961">
        <ele>1427.7</ele>
        <time>2012-08-03T14:40:40Z</time>
      </trkpt>
      <trkpt lat="46.70454" lon="9.55997">
        <ele>1426.25</ele>
        <time>2012-08-03T14:40:45Z</time>
      </trkpt>
      <trkpt lat="46.70585" lon="9.5604">
        <ele>1424.33</ele>
        <time>2012-08-03T14:40:52Z</time>
      </trkpt>
      <trkpt lat="46.70604" lon="9.56039">
        <ele>1423.85</ele>
        <time>2012-08-03T14:40:53Z</time>
      </trkpt>
      <trkpt lat="46.70623" lon="9.56034">
        <ele>1424.33</ele>
        <time>2012-08-03T14:40:54Z</time>
      </trkpt>
      <trkpt lat="46.70794" lon="9.55966">
        <ele>1427.21</ele>
        <time>2012-08-03T14:41:03Z</time>
      </trkpt>
      <trkpt lat="46.7085" lon="9.55943">
        <ele>1429.14</ele>
        <time>2012-08-03T14:41:06Z</time>
      </trkpt>
      <trkpt lat="46.70924" lon="9.55917">
        <ele>1430.1</ele>
        <time>2012-08-03T14:41:10Z</time>
      </trkpt>
      <trkpt lat="46.70942" lon="9.55914">
        <ele>1431.54</ele>
        <time>2012-08-03T14:41:11Z</time>
      </trkpt>
      <trkpt lat="46.70962" lon="9.55915">
        <ele>1431.54</ele>
        <time>2012-08-03T14:41:12Z</time>
      </trkpt>
      <trkpt lat="46.71002" lon="9.55919">
        <ele>1434.91</ele>
        <time>2012-08-03T14:41:14Z</time>
      </trkpt>
      <trkpt lat="46.7116" lon="9.55938">
        <ele>1438.27</ele>
        <time>2012-08-03T14:41:22Z</time>
      </trkpt>
      <trkpt lat="46.7136" lon="9.5596">
        <ele>1435.39</ele>
        <time>2012-08-03T14:41:33Z</time>
      </trkpt>
      <trkpt lat="46.71375" lon="9.55956">
        <ele>1434.91</ele>
        <time>2012-08-03T14:41:34Z</time>
      </trkpt>
      <trkpt lat="46.7139" lon="9.55947">
        <ele>1435.39</ele>
        <time>2012-08-03T14:41:35Z</time>
      </trkpt>
      <trkpt lat="46.71458" lon="9.55886">
        <ele>1434.91</ele>
        <time>2012-08-03T14:41:40Z</time>
      </trkpt>
      <trkpt lat="46.71472" lon="9.5588">
        <ele>1435.39</ele>
        <time>2012-08-03T14:41:41Z</time>
      </trkpt>
      <trkpt lat="46.71486" lon="9.55878">
        <ele>1435.87</ele>
        <time>2012-08-03T14:41:42Z</time>
      </trkpt>
      <trkpt lat="46.71502" lon="9.55879">
        <ele>1436.83</ele>
        <time>2012-08-03T14:41:43Z</time>
      </trkpt>
      <trkpt lat="46.71519" lon="9.55881">
        <ele>1435.39</ele>
        <time>2012-08-03T14:41:44Z</time>
      </trkpt>
      <trkpt lat="46.71553" lon="9.55886">
        <ele>1439.23</ele>
        <time>2012-08-03T14:41:46Z</time>
      </trkpt>
      <trkpt lat="46.71657" lon="9.55895">
        <ele>1443.08</ele>
        <time>2012-08-03T14:41:52Z</time>
      </trkpt>
      <trkpt lat="46.71743" lon="9.55905">
        <ele>1444.04</ele>
        <time>2012-08-03T14:41:57Z</time>
      </trkpt>
      <trkpt lat="46.71778" lon="9.55909">
        <ele>1445.96</ele>
        <time>2012-08-03T14:41:59Z</time>
      </trkpt>
      <trkpt lat="46.71877" lon="9.55918">
        <ele>1446.44</ele>
        <time>2012-08-03T14:42:05Z</time>
      </trkpt>
      <trkpt lat="46.71893" lon="9.5591">
        <ele>1446.92</ele>
        <time>2012-08-03T14:42:06Z</time>
      </trkpt>
      <trkpt lat="46.71908" lon="9.559">
        <ele>1447.4</ele>
        <time>2012-08-03T14:42:07Z</time>
      </trkpt>
      <trkpt lat="46.71921" lon="9.55889">
        <ele>1447.88</ele>
        <time>2012-08-03T14:42:08Z</time>
      </trkpt>
      <trkpt lat="46.71934" lon="9.55881">
        <ele>1447.88</ele>
        <time>2012-08-03T14:42:09Z</time>
      </trkpt>
      <trkpt lat="46.71949" lon="9.55876">
        <ele>1448.84</ele>
        <time>2012-08-03T14:42:10Z</time>
      </trkpt>
      <trkpt lat="46.71963" lon="9.55874">
        <ele>1448.36</ele>
        <time>2012-08-03T14:42:11Z</time>
      </trkpt>
      <trkpt lat="46.71977" lon="9.55873">
        <ele>1449.32</ele>
        <time>2012-08-03T14:42:12Z</time>
      </trkpt>
      <trkpt lat="46.72075" lon="9.55869">
        <ele>1451.73</ele>
        <time>2012-08-03T14:42:19Z</time>
      </trkpt>
      <trkpt lat="46.72186" lon="9.55881">
        <ele>1452.21</ele>
        <time>2012-08-03T14:42:28Z</time>
      </trkpt>
      <trkpt lat="46.72197" lon="9.55886">
        <ele>1455.57</ele>
        <time>2012-08-03T14:42:29Z</time>
      </trkpt>
      <trkpt lat="46.72223" lon="9.55891">
        <ele>1454.61</ele>
        <time>2012-08-03T14:42:31Z</time>
      </trkpt>
      <trkpt lat="46.7225" lon="9.55891">
        <ele>1456.05</ele>
        <time>2012-08-03T14:42:33Z</time>
      </trkpt>
      <trkpt lat="46.72263" lon="9.55888">
        <ele>1456.05</ele>
        <time>2012-08-03T14:42:34Z</time>
      </trkpt>
      <trkpt lat="46.72276" lon="9.55885">
        <ele>1457.02</ele>
        <time>2012-08-03T14:42:35Z</time>
      </trkpt>
      <trkpt lat="46.72288" lon="9.5588">
        <ele>1457.98</ele>
        <time>2012-08-03T14:42:36Z</time>
      </trkpt>
      <trkpt lat="46.72299" lon="9.55873">
        <ele>1458.94</ele>
        <time>2012-08-03T14:42:37Z</time>
      </trkpt>
      <trkpt lat="46.72311" lon="9.55866">
        <ele>1459.9</ele>
        <time>2012-08-03T14:42:38Z</time>
      </trkpt>
      <trkpt lat="46.72352" lon="9.55832">
        <ele>1463.74</ele>
        <time>2012-08-03T14:42:42Z</time>
      </trkpt>
      <trkpt lat="46.72392" lon="9.55802">
        <ele>1465.19</ele>
        <time>2012-08-03T14:42:46Z</time>
      </trkpt>
      <trkpt lat="46.72402" lon="9.55797">
        <ele>1466.63</ele>
        <time>2012-08-03T14:42:47Z</time>
      </trkpt>
      <trkpt lat="46.72412" lon="9.55794">
        <ele>1466.15</ele>
        <time>2012-08-03T14:42:48Z</time>
      </trkpt>
      <trkpt lat="46.72462" lon="9.55786">
        <ele>1468.07</ele>
        <time>2012-08-03T14:42:53Z</time>
      </trkpt>
      <trkpt lat="46.72483" lon="9.55783">
        <ele>1469.51</ele>
        <time>2012-08-03T14:42:55Z</time>
      </trkpt>
      <trkpt lat="46.72554" lon="9.55774">
        <ele>1469.99</ele>
        <time>2012-08-03T14:43:04Z</time>
      </trkpt>
      <trkpt lat="46.72628" lon="9.55771">
        <ele>1470.47</ele>
        <time>2012-08-03T14:43:13Z</time>
      </trkpt>
      <trkpt lat="46.7272" lon="9.55785">
        <ele>1470.47</ele>
        <time>2012-08-03T14:43:25Z</time>
      </trkpt>
      <trkpt lat="46.72838" lon="9.55766">
        <ele>1469.99</ele>
        <time>2012-08-03T14:43:39Z</time>
      </trkpt>
      <trkpt lat="46.72882" lon="9.55745">
        <ele>1471.44</ele>
        <time>2012-08-03T14:43:45Z</time>
      </trkpt>
      <trkpt lat="46.72933" lon="9.55719">
        <ele>1472.4</ele>
        <time>2012-08-03T14:43:51Z</time>
      </trkpt>
      <trkpt lat="46.73002" lon="9.55635">
        <ele>1475.28</ele>
        <time>2012-08-03T14:44:00Z</time>
      </trkpt>
      <trkpt lat="46.73043" lon="9.5557">
        <ele>1473.36</ele>
        <time>2012-08-03T14:44:07Z</time>
      </trkpt>
      <trkpt lat="46.73082" lon="9.55512">
        <ele>1475.28</ele>
        <time>2012-08-03T14:44:16Z</time>
      </trkpt>
      <trkpt lat="46.73119" lon="9.55453">
        <ele>1476.72</ele>
        <time>2012-08-03T14:44:21Z</time>
      </trkpt>
      <trkpt lat="46.73156" lon="9.55396">
        <ele>1479.13</ele>
        <time>2012-08-03T14:44:25Z</time>
      </trkpt>
      <trkpt lat="46.73167" lon="9.55382">
        <ele>1479.13</ele>
        <time>2012-08-03T14:44:26Z</time>
      </trkpt>
      <trkpt lat="46.7318" lon="9.5537">
        <ele>1479.13</ele>
        <time>2012-08-03T14:44:27Z</time>
      </trkpt>
      <trkpt lat="46.73194" lon="9.55361">
        <ele>1480.09</ele>
        <time>2012-08-03T14:44:28Z</time>
      </trkpt>
      <trkpt lat="46.73265" lon="9.5531">
        <ele>1482.97</ele>
        <time>2012-08-03T14:44:33Z</time>
      </trkpt>
      <trkpt lat="46.73392" lon="9.55202">
        <ele>1485.37</ele>
        <time>2012-08-03T14:44:42Z</time>
      </trkpt>
      <trkpt lat="46.73419" lon="9.55189">
        <ele>1482.97</ele>
        <time>2012-08-03T14:44:44Z</time>
      </trkpt>
      <trkpt lat="46.73433" lon="9.55188">
        <ele>1482.97</ele>
        <time>2012-08-03T14:44:45Z</time>
      </trkpt>
      <trkpt lat="46.73447" lon="9.55191">
        <ele>1483.45</ele>
        <time>2012-08-03T14:44:46Z</time>
      </trkpt>
      <trkpt lat="46.73461" lon="9.55198">
        <ele>1482.97</ele>
        <time>2012-08-03T14:44:47Z</time>
      </trkpt>
      <trkpt lat="46.73473" lon="9.55206">
        <ele>1481.53</ele>
        <time>2012-08-03T14:44:48Z</time>
      </trkpt>
      <trkpt lat="46.73486" lon="9.55215">
        <ele>1481.53</ele>
        <time>2012-08-03T14:44:49Z</time>
      </trkpt>
      <trkpt lat="46.73499" lon="9.55221">
        <ele>1482.01</ele>
        <time>2012-08-03T14:44:50Z</time>
      </trkpt>
      <trkpt lat="46.73513" lon="9.55223">
        <ele>1482.97</ele>
        <time>2012-08-03T14:44:51Z</time>
      </trkpt>
      <trkpt lat="46.73528" lon="9.55223">
        <ele>1482.97</ele>
        <time>2012-08-03T14:44:52Z</time>
      </trkpt>
      <trkpt lat="46.73556" lon="9.55222">
        <ele>1483.45</ele>
        <time>2012-08-03T14:44:54Z</time>
      </trkpt>
      <trkpt lat="46.7357" lon="9.55224">
        <ele>1483.93</ele>
        <time>2012-08-03T14:44:55Z</time>
      </trkpt>
      <trkpt lat="46.73585" lon="9.55229">
        <ele>1484.89</ele>
        <time>2012-08-03T14:44:56Z</time>
      </trkpt>
      <trkpt lat="46.73598" lon="9.55235">
        <ele>1484.41</ele>
        <time>2012-08-03T14:44:57Z</time>
      </trkpt>
      <trkpt lat="46.73612" lon="9.55242">
        <ele>1484.41</ele>
        <time>2012-08-03T14:44:58Z</time>
      </trkpt>
      <trkpt lat="46.73718" lon="9.55271">
        <ele>1485.37</ele>
        <time>2012-08-03T14:45:05Z</time>
      </trkpt>
      <trkpt lat="46.73733" lon="9.55277">
        <ele>1484.89</ele>
        <time>2012-08-03T14:45:06Z</time>
      </trkpt>
      <trkpt lat="46.73804" lon="9.55302">
        <ele>1484.41</ele>
        <time>2012-08-03T14:45:11Z</time>
      </trkpt>
      <trkpt lat="46.73818" lon="9.55303">
        <ele>1484.41</ele>
        <time>2012-08-03T14:45:12Z</time>
      </trkpt>
      <trkpt lat="46.73832" lon="9.55302">
        <ele>1484.89</ele>
        <time>2012-08-03T14:45:13Z</time>
      </trkpt>
      <trkpt lat="46.73889" lon="9.55296">
        <ele>1484.89</ele>
        <time>2012-08-03T14:45:17Z</time>
      </trkpt>
      <trkpt lat="46.73903" lon="9.553">
        <ele>1485.85</ele>
        <time>2012-08-03T14:45:18Z</time>
      </trkpt>
      <trkpt lat="46.73916" lon="9.55308">
        <ele>1485.37</ele>
        <time>2012-08-03T14:45:19Z</time>
      </trkpt>
      <trkpt lat="46.73926" lon="9.55322">
        <ele>1485.85</ele>
        <time>2012-08-03T14:45:20Z</time>
      </trkpt>
      <trkpt lat="46.73933" lon="9.55339">
        <ele>1484.89</ele>
        <time>2012-08-03T14:45:21Z</time>
      </trkpt>
      <trkpt lat="46.73938" lon="9.55358">
        <ele>1485.37</ele>
        <time>2012-08-03T14:45:22Z</time>
      </trkpt>
      <trkpt lat="46.73939" lon="9.55379">
        <ele>1485.37</ele>
        <time>2012-08-03T14:45:23Z</time>
      </trkpt>
      <trkpt lat="46.73937" lon="9.554">
        <ele>1485.37</ele>
        <time>2012-08-03T14:45:24Z</time>
      </trkpt>
      <trkpt lat="46.73933" lon="9.5542">
        <ele>1485.37</ele>
        <time>2012-08-03T14:45:25Z</time>
      </trkpt>
      <trkpt lat="46.73929" lon="9.55441">
        <ele>1484.89</ele>
        <time>2012-08-03T14:45:26Z</time>
      </trkpt>
      <trkpt lat="46.7392" lon="9.55501">
        <ele>1483.45</ele>
        <time>2012-08-03T14:45:29Z</time>
      </trkpt>
      <trkpt lat="46.73919" lon="9.5552">
        <ele>1483.45</ele>
        <time>2012-08-03T14:45:30Z</time>
      </trkpt>
      <trkpt lat="46.73922" lon="9.55539">
        <ele>1483.93</ele>
        <time>2012-08-03T14:45:31Z</time>
      </trkpt>
      <trkpt lat="46.73927" lon="9.55556">
        <ele>1483.93</ele>
        <time>2012-08-03T14:45:32Z</time>
      </trkpt>
      <trkpt lat="46.73934" lon="9.55572">
        <ele>1483.93</ele>
        <time>2012-08-03T14:45:33Z</time>
      </trkpt>
      <trkpt lat="46.73943" lon="9.55586">
        <ele>1484.41</ele>
        <time>2012-08-03T14:45:34Z</time>
      </trkpt>
      <trkpt lat="46.73954" lon="9.55596">
        <ele>1484.41</ele>
        <time>2012-08-03T14:45:35Z</time>
      </trkpt>
      <trkpt lat="46.73966" lon="9.55604">
        <ele>1483.93</ele>
        <time>2012-08-03T14:45:36Z</time>
      </trkpt>
      <trkpt lat="46.73979" lon="9.55608">
        <ele>1484.41</ele>
        <time>2012-08-03T14:45:37Z</time>
      </trkpt>
      <trkpt lat="46.73992" lon="9.55609">
        <ele>1484.41</ele>
        <time>2012-08-03T14:45:38Z</time>
      </trkpt>
      <trkpt lat="46.74005" lon="9.55606">
        <ele>1484.89</ele>
        <time>2012-08-03T14:45:39Z</time>
      </trkpt>
      <trkpt lat="46.74018" lon="9.55601">
        <ele>1485.85</ele>
        <time>2012-08-03T14:45:40Z</time>
      </trkpt>
      <trkpt lat="46.7403" lon="9.55593">
        <ele>1486.82</ele>
        <time>2012-08-03T14:45:41Z</time>
      </trkpt>
      <trkpt lat="46.74041" lon="9.55584">
        <ele>1485.85</ele>
        <time>2012-08-03T14:45:42Z</time>
      </trkpt>
      <trkpt lat="46.741" lon="9.55551">
        <ele>1486.34</ele>
        <time>2012-08-03T14:45:47Z</time>
      </trkpt>
      <trkpt lat="46.74113" lon="9.55548">
        <ele>1487.3</ele>
        <time>2012-08-03T14:45:48Z</time>
      </trkpt>
      <trkpt lat="46.74126" lon="9.55546">
        <ele>1487.3</ele>
        <time>2012-08-03T14:45:49Z</time>
      </trkpt>
      <trkpt lat="46.7414" lon="9.55547">
        <ele>1487.78</ele>
        <time>2012-08-03T14:45:50Z</time>
      </trkpt>
      <trkpt lat="46.74153" lon="9.5555">
        <ele>1487.3</ele>
        <time>2012-08-03T14:45:51Z</time>
      </trkpt>
      <trkpt lat="46.74165" lon="9.55554">
        <ele>1487.78</ele>
        <time>2012-08-03T14:45:52Z</time>
      </trkpt>
      <trkpt lat="46.74245" lon="9.55583">
        <ele>1487.3</ele>
        <time>2012-08-03T14:45:59Z</time>
      </trkpt>
      <trkpt lat="46.74339" lon="9.55626">
        <ele>1488.26</ele>
        <time>2012-08-03T14:46:09Z</time>
      </trkpt>
      <trkpt lat="46.74389" lon="9.55667">
        <ele>1488.26</ele>
        <time>2012-08-03T14:46:15Z</time>
      </trkpt>
      <trkpt lat="46.74398" lon="9.55671">
        <ele>1489.22</ele>
        <time>2012-08-03T14:46:16Z</time>
      </trkpt>
      <trkpt lat="46.74408" lon="9.55673">
        <ele>1489.22</ele>
        <time>2012-08-03T14:46:17Z</time>
      </trkpt>
      <trkpt lat="46.74419" lon="9.55673">
        <ele>1489.22</ele>
        <time>2012-08-03T14:46:18Z</time>
      </trkpt>
      <trkpt lat="46.74429" lon="9.55671">
        <ele>1490.18</ele>
        <time>2012-08-03T14:46:19Z</time>
      </trkpt>
      <trkpt lat="46.74438" lon="9.55667">
        <ele>1490.66</ele>
        <time>2012-08-03T14:46:20Z</time>
      </trkpt>
      <trkpt lat="46.74447" lon="9.55661">
        <ele>1490.18</ele>
        <time>2012-08-03T14:46:21Z</time>
      </trkpt>
      <trkpt lat="46.74455" lon="9.55656">
        <ele>1491.14</ele>
        <time>2012-08-03T14:46:22Z</time>
      </trkpt>
      <trkpt lat="46.74472" lon="9.55646">
        <ele>1492.58</ele>
        <time>2012-08-03T14:46:24Z</time>
      </trkpt>
      <trkpt lat="46.74481" lon="9.55643">
        <ele>1493.55</ele>
        <time>2012-08-03T14:46:25Z</time>
      </trkpt>
      <trkpt lat="46.74489" lon="9.55641">
        <ele>1493.06</ele>
        <time>2012-08-03T14:46:26Z</time>
      </trkpt>
      <trkpt lat="46.7452" lon="9.55637">
        <ele>1495.47</ele>
        <time>2012-08-03T14:46:30Z</time>
      </trkpt>
      <trkpt lat="46.74527" lon="9.55634">
        <ele>1495.95</ele>
        <time>2012-08-03T14:46:31Z</time>
      </trkpt>
      <trkpt lat="46.74534" lon="9.5563">
        <ele>1496.91</ele>
        <time>2012-08-03T14:46:32Z</time>
      </trkpt>
      <trkpt lat="46.74575" lon="9.55598">
        <ele>1500.27</ele>
        <time>2012-08-03T14:46:37Z</time>
      </trkpt>
      <trkpt lat="46.74608" lon="9.55571">
        <ele>1503.64</ele>
        <time>2012-08-03T14:46:41Z</time>
      </trkpt>
      <trkpt lat="46.74628" lon="9.55557">
        <ele>1506.52</ele>
        <time>2012-08-03T14:46:44Z</time>
      </trkpt>
      <trkpt lat="46.74635" lon="9.55554">
        <ele>1507</ele>
        <time>2012-08-03T14:46:45Z</time>
      </trkpt>
      <trkpt lat="46.74643" lon="9.55551">
        <ele>1506.52</ele>
        <time>2012-08-03T14:46:46Z</time>
      </trkpt>
      <trkpt lat="46.74651" lon="9.5555">
        <ele>1507.48</ele>
        <time>2012-08-03T14:46:47Z</time>
      </trkpt>
      <trkpt lat="46.7466" lon="9.5555">
        <ele>1508.45</ele>
        <time>2012-08-03T14:46:48Z</time>
      </trkpt>
      <trkpt lat="46.74668" lon="9.55551">
        <ele>1509.41</ele>
        <time>2012-08-03T14:46:49Z</time>
      </trkpt>
      <trkpt lat="46.74676" lon="9.55554">
        <ele>1510.37</ele>
        <time>2012-08-03T14:46:50Z</time>
      </trkpt>
      <trkpt lat="46.74684" lon="9.55557">
        <ele>1510.37</ele>
        <time>2012-08-03T14:46:51Z</time>
      </trkpt>
      <trkpt lat="46.74692" lon="9.55561">
        <ele>1512.29</ele>
        <time>2012-08-03T14:46:52Z</time>
      </trkpt>
      <trkpt lat="46.74701" lon="9.55565">
        <ele>1512.29</ele>
        <time>2012-08-03T14:46:53Z</time>
      </trkpt>
      <trkpt lat="46.7473" lon="9.55577">
        <ele>1514.69</ele>
        <time>2012-08-03T14:46:56Z</time>
      </trkpt>
      <trkpt lat="46.74787" lon="9.55591">
        <ele>1516.62</ele>
        <time>2012-08-03T14:47:02Z</time>
      </trkpt>
      <trkpt lat="46.74826" lon="9.55599">
        <ele>1518.06</ele>
        <time>2012-08-03T14:47:06Z</time>
      </trkpt>
      <trkpt lat="46.74866" lon="9.55604">
        <ele>1520.94</ele>
        <time>2012-08-03T14:47:10Z</time>
      </trkpt>
      <trkpt lat="46.74933" lon="9.55597">
        <ele>1521.9</ele>
        <time>2012-08-03T14:47:19Z</time>
      </trkpt>
      <trkpt lat="46.7494" lon="9.55596">
        <ele>1523.35</ele>
        <time>2012-08-03T14:47:27Z</time>
      </trkpt>
      <trkpt lat="46.74972" lon="9.55593">
        <ele>1525.75</ele>
        <time>2012-08-03T14:47:32Z</time>
      </trkpt>
      <trkpt lat="46.75014" lon="9.55606">
        <ele>1529.11</ele>
        <time>2012-08-03T14:47:37Z</time>
      </trkpt>
      <trkpt lat="46.75023" lon="9.55609">
        <ele>1529.59</ele>
        <time>2012-08-03T14:47:38Z</time>
      </trkpt>
      <trkpt lat="46.7506" lon="9.55626">
        <ele>1532.48</ele>
        <time>2012-08-03T14:47:42Z</time>
      </trkpt>
      <trkpt lat="46.75097" lon="9.55651">
        <ele>1536.8</ele>
        <time>2012-08-03T14:47:46Z</time>
      </trkpt>
      <trkpt lat="46.75125" lon="9.55683">
        <ele>1539.21</ele>
        <time>2012-08-03T14:47:49Z</time>
      </trkpt>
      <trkpt lat="46.75134" lon="9.55694">
        <ele>1538.25</ele>
        <time>2012-08-03T14:47:50Z</time>
      </trkpt>
      <trkpt lat="46.75145" lon="9.55703">
        <ele>1539.21</ele>
        <time>2012-08-03T14:47:51Z</time>
      </trkpt>
      <trkpt lat="46.75158" lon="9.55707">
        <ele>1539.21</ele>
        <time>2012-08-03T14:47:52Z</time>
      </trkpt>
      <trkpt lat="46.75172" lon="9.55706">
        <ele>1540.17</ele>
        <time>2012-08-03T14:47:53Z</time>
      </trkpt>
      <trkpt lat="46.75186" lon="9.55701">
        <ele>1540.65</ele>
        <time>2012-08-03T14:47:54Z</time>
      </trkpt>
      <trkpt lat="46.75199" lon="9.55695">
        <ele>1539.69</ele>
        <time>2012-08-03T14:47:55Z</time>
      </trkpt>
      <trkpt lat="46.75222" lon="9.55684">
        <ele>1537.29</ele>
        <time>2012-08-03T14:47:58Z</time>
      </trkpt>
      <trkpt lat="46.75243" lon="9.55686">
        <ele>1538.25</ele>
        <time>2012-08-03T14:48:03Z</time>
      </trkpt>
      <trkpt lat="46.7525" lon="9.55692">
        <ele>1539.21</ele>
        <time>2012-08-03T14:48:04Z</time>
      </trkpt>
      <trkpt lat="46.75258" lon="9.557">
        <ele>1539.69</ele>
        <time>2012-08-03T14:48:05Z</time>
      </trkpt>
      <trkpt lat="46.75265" lon="9.5571">
        <ele>1539.69</ele>
        <time>2012-08-03T14:48:06Z</time>
      </trkpt>
      <trkpt lat="46.75272" lon="9.55722">
        <ele>1540.65</ele>
        <time>2012-08-03T14:48:07Z</time>
      </trkpt>
      <trkpt lat="46.75278" lon="9.55735">
        <ele>1540.17</ele>
        <time>2012-08-03T14:48:08Z</time>
      </trkpt>
      <trkpt lat="46.75301" lon="9.55779">
        <ele>1542.09</ele>
        <time>2012-08-03T14:48:11Z</time>
      </trkpt>
      <trkpt lat="46.75336" lon="9.5584">
        <ele>1544.98</ele>
        <time>2012-08-03T14:48:15Z</time>
      </trkpt>
      <trkpt lat="46.75347" lon="9.55853">
        <ele>1545.46</ele>
        <time>2012-08-03T14:48:16Z</time>
      </trkpt>
      <trkpt lat="46.75359" lon="9.55864">
        <ele>1544.98</ele>
        <time>2012-08-03T14:48:17Z</time>
      </trkpt>
      <trkpt lat="46.75524" lon="9.55992">
        <ele>1542.09</ele>
        <time>2012-08-03T14:48:29Z</time>
      </trkpt>
      <trkpt lat="46.75549" lon="9.56022">
        <ele>1540.17</ele>
        <time>2012-08-03T14:48:31Z</time>
      </trkpt>
      <trkpt lat="46.75561" lon="9.5604">
        <ele>1539.21</ele>
        <time>2012-08-03T14:48:32Z</time>
      </trkpt>
      <trkpt lat="46.75572" lon="9.56057">
        <ele>1536.32</ele>
        <time>2012-08-03T14:48:33Z</time>
      </trkpt>
      <trkpt lat="46.75594" lon="9.5609">
        <ele>1533.44</ele>
        <time>2012-08-03T14:48:35Z</time>
      </trkpt>
      <trkpt lat="46.7562" lon="9.56113">
        <ele>1530.08</ele>
        <time>2012-08-03T14:48:37Z</time>
      </trkpt>
      <trkpt lat="46.75636" lon="9.56119">
        <ele>1529.59</ele>
        <time>2012-08-03T14:48:38Z</time>
      </trkpt>
      <trkpt lat="46.75652" lon="9.56122">
        <ele>1527.19</ele>
        <time>2012-08-03T14:48:39Z</time>
      </trkpt>
      <trkpt lat="46.75667" lon="9.56125">
        <ele>1523.83</ele>
        <time>2012-08-03T14:48:40Z</time>
      </trkpt>
      <trkpt lat="46.75693" lon="9.56126">
        <ele>1520.94</ele>
        <time>2012-08-03T14:48:42Z</time>
      </trkpt>
      <trkpt lat="46.75707" lon="9.56122">
        <ele>1519.02</ele>
        <time>2012-08-03T14:48:43Z</time>
      </trkpt>
      <trkpt lat="46.75747" lon="9.56107">
        <ele>1515.66</ele>
        <time>2012-08-03T14:48:46Z</time>
      </trkpt>
      <trkpt lat="46.75771" lon="9.56096">
        <ele>1512.77</ele>
        <time>2012-08-03T14:48:48Z</time>
      </trkpt>
      <trkpt lat="46.75783" lon="9.5609">
        <ele>1511.81</ele>
        <time>2012-08-03T14:48:49Z</time>
      </trkpt>
      <trkpt lat="46.75794" lon="9.56081">
        <ele>1509.41</ele>
        <time>2012-08-03T14:48:50Z</time>
      </trkpt>
      <trkpt lat="46.75804" lon="9.5607">
        <ele>1509.89</ele>
        <time>2012-08-03T14:48:51Z</time>
      </trkpt>
      <trkpt lat="46.75844" lon="9.56024">
        <ele>1506.04</ele>
        <time>2012-08-03T14:48:55Z</time>
      </trkpt>
      <trkpt lat="46.75893" lon="9.5596">
        <ele>1501.72</ele>
        <time>2012-08-03T14:49:00Z</time>
      </trkpt>
      <trkpt lat="46.75926" lon="9.55904">
        <ele>1497.39</ele>
        <time>2012-08-03T14:49:04Z</time>
      </trkpt>
      <trkpt lat="46.75935" lon="9.55891">
        <ele>1497.39</ele>
        <time>2012-08-03T14:49:05Z</time>
      </trkpt>
      <trkpt lat="46.7596" lon="9.55852">
        <ele>1494.03</ele>
        <time>2012-08-03T14:49:08Z</time>
      </trkpt>
      <trkpt lat="46.75968" lon="9.5584">
        <ele>1494.03</ele>
        <time>2012-08-03T14:49:09Z</time>
      </trkpt>
      <trkpt lat="46.76" lon="9.5579">
        <ele>1491.62</ele>
        <time>2012-08-03T14:49:13Z</time>
      </trkpt>
      <trkpt lat="46.76007" lon="9.55776">
        <ele>1490.18</ele>
        <time>2012-08-03T14:49:14Z</time>
      </trkpt>
      <trkpt lat="46.76013" lon="9.55762">
        <ele>1489.7</ele>
        <time>2012-08-03T14:49:15Z</time>
      </trkpt>
      <trkpt lat="46.76044" lon="9.55668">
        <ele>1486.34</ele>
        <time>2012-08-03T14:49:21Z</time>
      </trkpt>
      <trkpt lat="46.76049" lon="9.55653">
        <ele>1486.82</ele>
        <time>2012-08-03T14:49:22Z</time>
      </trkpt>
      <trkpt lat="46.76055" lon="9.55639">
        <ele>1483.45</ele>
        <time>2012-08-03T14:49:23Z</time>
      </trkpt>
      <trkpt lat="46.76062" lon="9.55626">
        <ele>1483.93</ele>
        <time>2012-08-03T14:49:24Z</time>
      </trkpt>
      <trkpt lat="46.7607" lon="9.55614">
        <ele>1482.97</ele>
        <time>2012-08-03T14:49:25Z</time>
      </trkpt>
      <trkpt lat="46.76079" lon="9.55603">
        <ele>1481.53</ele>
        <time>2012-08-03T14:49:26Z</time>
      </trkpt>
      <trkpt lat="46.76089" lon="9.55593">
        <ele>1481.53</ele>
        <time>2012-08-03T14:49:27Z</time>
      </trkpt>
      <trkpt lat="46.76109" lon="9.55569">
        <ele>1480.09</ele>
        <time>2012-08-03T14:49:29Z</time>
      </trkpt>
      <trkpt lat="46.76118" lon="9.55556">
        <ele>1477.2</ele>
        <time>2012-08-03T14:49:30Z</time>
      </trkpt>
      <trkpt lat="46.76127" lon="9.55541">
        <ele>1477.68</ele>
        <time>2012-08-03T14:49:31Z</time>
      </trkpt>
      <trkpt lat="46.76143" lon="9.55511">
        <ele>1473.36</ele>
        <time>2012-08-03T14:49:33Z</time>
      </trkpt>
      <trkpt lat="46.76159" lon="9.55488">
        <ele>1469.99</ele>
        <time>2012-08-03T14:49:35Z</time>
      </trkpt>
      <trkpt lat="46.76169" lon="9.55482">
        <ele>1469.51</ele>
        <time>2012-08-03T14:49:36Z</time>
      </trkpt>
      <trkpt lat="46.76182" lon="9.5548">
        <ele>1467.59</ele>
        <time>2012-08-03T14:49:37Z</time>
      </trkpt>
      <trkpt lat="46.76237" lon="9.55476">
        <ele>1463.74</ele>
        <time>2012-08-03T14:49:41Z</time>
      </trkpt>
      <trkpt lat="46.76266" lon="9.55473">
        <ele>1459.42</ele>
        <time>2012-08-03T14:49:43Z</time>
      </trkpt>
      <trkpt lat="46.76295" lon="9.55471">
        <ele>1457.5</ele>
        <time>2012-08-03T14:49:45Z</time>
      </trkpt>
      <trkpt lat="46.76349" lon="9.55469">
        <ele>1453.65</ele>
        <time>2012-08-03T14:49:48Z</time>
      </trkpt>
      <trkpt lat="46.76367" lon="9.55465">
        <ele>1451.73</ele>
        <time>2012-08-03T14:49:49Z</time>
      </trkpt>
      <trkpt lat="46.76384" lon="9.55458">
        <ele>1450.29</ele>
        <time>2012-08-03T14:49:50Z</time>
      </trkpt>
      <trkpt lat="46.76418" lon="9.55443">
        <ele>1445</ele>
        <time>2012-08-03T14:49:52Z</time>
      </trkpt>
      <trkpt lat="46.76445" lon="9.55436">
        <ele>1440.19</ele>
        <time>2012-08-03T14:49:54Z</time>
      </trkpt>
      <trkpt lat="46.76458" lon="9.55436">
        <ele>1437.31</ele>
        <time>2012-08-03T14:49:55Z</time>
      </trkpt>
      <trkpt lat="46.7647" lon="9.55441">
        <ele>1435.87</ele>
        <time>2012-08-03T14:49:56Z</time>
      </trkpt>
      <trkpt lat="46.76481" lon="9.55449">
        <ele>1434.91</ele>
        <time>2012-08-03T14:49:57Z</time>
      </trkpt>
      <trkpt lat="46.76491" lon="9.5546">
        <ele>1433.46</ele>
        <time>2012-08-03T14:49:58Z</time>
      </trkpt>
      <trkpt lat="46.76502" lon="9.55468">
        <ele>1432.02</ele>
        <time>2012-08-03T14:49:59Z</time>
      </trkpt>
      <trkpt lat="46.76512" lon="9.55473">
        <ele>1431.06</ele>
        <time>2012-08-03T14:50:00Z</time>
      </trkpt>
      <trkpt lat="46.76524" lon="9.55471">
        <ele>1431.06</ele>
        <time>2012-08-03T14:50:01Z</time>
      </trkpt>
      <trkpt lat="46.76538" lon="9.55463">
        <ele>1431.06</ele>
        <time>2012-08-03T14:50:02Z</time>
      </trkpt>
      <trkpt lat="46.76554" lon="9.55455">
        <ele>1429.62</ele>
        <time>2012-08-03T14:50:03Z</time>
      </trkpt>
      <trkpt lat="46.76569" lon="9.55451">
        <ele>1427.7</ele>
        <time>2012-08-03T14:50:04Z</time>
      </trkpt>
      <trkpt lat="46.76584" lon="9.5545">
        <ele>1425.29</ele>
        <time>2012-08-03T14:50:05Z</time>
      </trkpt>
      <trkpt lat="46.76615" lon="9.55446">
        <ele>1422.41</ele>
        <time>2012-08-03T14:50:07Z</time>
      </trkpt>
      <trkpt lat="46.76634" lon="9.55435">
        <ele>1421.45</ele>
        <time>2012-08-03T14:50:08Z</time>
      </trkpt>
      <trkpt lat="46.76653" lon="9.5542">
        <ele>1420</ele>
        <time>2012-08-03T14:50:09Z</time>
      </trkpt>
      <trkpt lat="46.76685" lon="9.55394">
        <ele>1415.2</ele>
        <time>2012-08-03T14:50:11Z</time>
      </trkpt>
      <trkpt lat="46.76699" lon="9.55386">
        <ele>1412.79</ele>
        <time>2012-08-03T14:50:12Z</time>
      </trkpt>
      <trkpt lat="46.76714" lon="9.55381">
        <ele>1412.31</ele>
        <time>2012-08-03T14:50:13Z</time>
      </trkpt>
      <trkpt lat="46.76729" lon="9.5538">
        <ele>1410.87</ele>
        <time>2012-08-03T14:50:14Z</time>
      </trkpt>
      <trkpt lat="46.76744" lon="9.5538">
        <ele>1409.43</ele>
        <time>2012-08-03T14:50:15Z</time>
      </trkpt>
      <trkpt lat="46.76758" lon="9.55382">
        <ele>1407.51</ele>
        <time>2012-08-03T14:50:16Z</time>
      </trkpt>
      <trkpt lat="46.76772" lon="9.55387">
        <ele>1405.58</ele>
        <time>2012-08-03T14:50:17Z</time>
      </trkpt>
      <trkpt lat="46.76786" lon="9.55394">
        <ele>1404.14</ele>
        <time>2012-08-03T14:50:18Z</time>
      </trkpt>
      <trkpt lat="46.76799" lon="9.55405">
        <ele>1403.18</ele>
        <time>2012-08-03T14:50:19Z</time>
      </trkpt>
      <trkpt lat="46.76813" lon="9.55418">
        <ele>1400.78</ele>
        <time>2012-08-03T14:50:20Z</time>
      </trkpt>
      <trkpt lat="46.76825" lon="9.55431">
        <ele>1397.41</ele>
        <time>2012-08-03T14:50:21Z</time>
      </trkpt>
      <trkpt lat="46.76849" lon="9.55457">
        <ele>1393.09</ele>
        <time>2012-08-03T14:50:23Z</time>
      </trkpt>
      <trkpt lat="46.76872" lon="9.55482">
        <ele>1388.76</ele>
        <time>2012-08-03T14:50:25Z</time>
      </trkpt>
      <trkpt lat="46.76881" lon="9.55494">
        <ele>1387.32</ele>
        <time>2012-08-03T14:50:26Z</time>
      </trkpt>
      <trkpt lat="46.76888" lon="9.5551">
        <ele>1386.36</ele>
        <time>2012-08-03T14:50:27Z</time>
      </trkpt>
      <trkpt lat="46.76893" lon="9.55527">
        <ele>1385.88</ele>
        <time>2012-08-03T14:50:28Z</time>
      </trkpt>
      <trkpt lat="46.76894" lon="9.55562">
        <ele>1382.03</ele>
        <time>2012-08-03T14:50:30Z</time>
      </trkpt>
      <trkpt lat="46.76894" lon="9.55576">
        <ele>1381.55</ele>
        <time>2012-08-03T14:50:31Z</time>
      </trkpt>
      <trkpt lat="46.76895" lon="9.55588">
        <ele>1380.11</ele>
        <time>2012-08-03T14:50:32Z</time>
      </trkpt>
      <trkpt lat="46.76897" lon="9.55595">
        <ele>1379.63</ele>
        <time>2012-08-03T14:50:33Z</time>
      </trkpt>
      <trkpt lat="46.769" lon="9.55599">
        <ele>1380.11</ele>
        <time>2012-08-03T14:50:34Z</time>
      </trkpt>
      <trkpt lat="46.76905" lon="9.55599">
        <ele>1379.63</ele>
        <time>2012-08-03T14:50:35Z</time>
      </trkpt>
      <trkpt lat="46.7691" lon="9.55594">
        <ele>1379.63</ele>
        <time>2012-08-03T14:50:36Z</time>
      </trkpt>
      <trkpt lat="46.76917" lon="9.55586">
        <ele>1379.15</ele>
        <time>2012-08-03T14:50:37Z</time>
      </trkpt>
      <trkpt lat="46.76923" lon="9.55575">
        <ele>1378.67</ele>
        <time>2012-08-03T14:50:38Z</time>
      </trkpt>
      <trkpt lat="46.76937" lon="9.55551">
        <ele>1376.75</ele>
        <time>2012-08-03T14:50:40Z</time>
      </trkpt>
      <trkpt lat="46.76947" lon="9.55539">
        <ele>1375.78</ele>
        <time>2012-08-03T14:50:41Z</time>
      </trkpt>
      <trkpt lat="46.76958" lon="9.55528">
        <ele>1374.82</ele>
        <time>2012-08-03T14:50:42Z</time>
      </trkpt>
      <trkpt lat="46.76969" lon="9.55519">
        <ele>1373.86</ele>
        <time>2012-08-03T14:50:43Z</time>
      </trkpt>
      <trkpt lat="46.7698" lon="9.55512">
        <ele>1372.42</ele>
        <time>2012-08-03T14:50:44Z</time>
      </trkpt>
      <trkpt lat="46.76992" lon="9.55506">
        <ele>1368.57</ele>
        <time>2012-08-03T14:50:45Z</time>
      </trkpt>
      <trkpt lat="46.77004" lon="9.55499">
        <ele>1368.57</ele>
        <time>2012-08-03T14:50:46Z</time>
      </trkpt>
      <trkpt lat="46.77055" lon="9.55463">
        <ele>1364.25</ele>
        <time>2012-08-03T14:50:50Z</time>
      </trkpt>
      <trkpt lat="46.77092" lon="9.55424">
        <ele>1361.36</ele>
        <time>2012-08-03T14:50:53Z</time>
      </trkpt>
      <trkpt lat="46.77107" lon="9.5541">
        <ele>1357.04</ele>
        <time>2012-08-03T14:50:54Z</time>
      </trkpt>
      <trkpt lat="46.77148" lon="9.55377">
        <ele>1355.12</ele>
        <time>2012-08-03T14:50:57Z</time>
      </trkpt>
      <trkpt lat="46.77161" lon="9.55368">
        <ele>1351.75</ele>
        <time>2012-08-03T14:50:58Z</time>
      </trkpt>
      <trkpt lat="46.77176" lon="9.55358">
        <ele>1349.35</ele>
        <time>2012-08-03T14:50:59Z</time>
      </trkpt>
      <trkpt lat="46.77236" lon="9.5532">
        <ele>1345.02</ele>
        <time>2012-08-03T14:51:03Z</time>
      </trkpt>
      <trkpt lat="46.77246" lon="9.55313">
        <ele>1344.06</ele>
        <time>2012-08-03T14:51:04Z</time>
      </trkpt>
      <trkpt lat="46.77282" lon="9.5529">
        <ele>1341.18</ele>
        <time>2012-08-03T14:51:06Z</time>
      </trkpt>
      <trkpt lat="46.77297" lon="9.5528">
        <ele>1338.77</ele>
        <time>2012-08-03T14:51:07Z</time>
      </trkpt>
      <trkpt lat="46.77312" lon="9.55271">
        <ele>1335.89</ele>
        <time>2012-08-03T14:51:08Z</time>
      </trkpt>
      <trkpt lat="46.77326" lon="9.55262">
        <ele>1331.56</ele>
        <time>2012-08-03T14:51:09Z</time>
      </trkpt>
      <trkpt lat="46.77372" lon="9.55233">
        <ele>1327.72</ele>
        <time>2012-08-03T14:51:12Z</time>
      </trkpt>
      <trkpt lat="46.77416" lon="9.55201">
        <ele>1324.35</ele>
        <time>2012-08-03T14:51:15Z</time>
      </trkpt>
      <trkpt lat="46.77444" lon="9.55174">
        <ele>1320.99</ele>
        <time>2012-08-03T14:51:17Z</time>
      </trkpt>
      <trkpt lat="46.77472" lon="9.55148">
        <ele>1313.78</ele>
        <time>2012-08-03T14:51:19Z</time>
      </trkpt>
      <trkpt lat="46.77512" lon="9.55111">
        <ele>1309.45</ele>
        <time>2012-08-03T14:51:22Z</time>
      </trkpt>
      <trkpt lat="46.77525" lon="9.55097">
        <ele>1312.34</ele>
        <time>2012-08-03T14:51:23Z</time>
      </trkpt>
      <trkpt lat="46.77537" lon="9.55082">
        <ele>1308.01</ele>
        <time>2012-08-03T14:51:24Z</time>
      </trkpt>
      <trkpt lat="46.7756" lon="9.55051">
        <ele>1304.65</ele>
        <time>2012-08-03T14:51:26Z</time>
      </trkpt>
      <trkpt lat="46.77572" lon="9.55035">
        <ele>1300.32</ele>
        <time>2012-08-03T14:51:27Z</time>
      </trkpt>
      <trkpt lat="46.77585" lon="9.55018">
        <ele>1299.84</ele>
        <time>2012-08-03T14:51:28Z</time>
      </trkpt>
      <trkpt lat="46.77591" lon="9.5501">
        <ele>1299.36</ele>
        <time>2012-08-03T14:51:29Z</time>
      </trkpt>
      <trkpt lat="46.77605" lon="9.54988">
        <ele>1297.92</ele>
        <time>2012-08-03T14:51:30Z</time>
      </trkpt>
      <trkpt lat="46.77613" lon="9.5497">
        <ele>1294.55</ele>
        <time>2012-08-03T14:51:31Z</time>
      </trkpt>
      <trkpt lat="46.7762" lon="9.54953">
        <ele>1295.03</ele>
        <time>2012-08-03T14:51:32Z</time>
      </trkpt>
      <trkpt lat="46.77632" lon="9.54922">
        <ele>1291.67</ele>
        <time>2012-08-03T14:51:34Z</time>
      </trkpt>
      <trkpt lat="46.77642" lon="9.54889">
        <ele>1288.78</ele>
        <time>2012-08-03T14:51:36Z</time>
      </trkpt>
      <trkpt lat="46.77648" lon="9.54869">
        <ele>1285.42</ele>
        <time>2012-08-03T14:51:37Z</time>
      </trkpt>
      <trkpt lat="46.7765" lon="9.54858">
        <ele>1284.46</ele>
        <time>2012-08-03T14:51:38Z</time>
      </trkpt>
      <trkpt lat="46.7765" lon="9.54844">
        <ele>1283.02</ele>
        <time>2012-08-03T14:51:39Z</time>
      </trkpt>
      <trkpt lat="46.77647" lon="9.5483">
        <ele>1283.02</ele>
        <time>2012-08-03T14:51:40Z</time>
      </trkpt>
      <trkpt lat="46.77642" lon="9.54817">
        <ele>1281.57</ele>
        <time>2012-08-03T14:51:41Z</time>
      </trkpt>
      <trkpt lat="46.77637" lon="9.54805">
        <ele>1280.61</ele>
        <time>2012-08-03T14:51:42Z</time>
      </trkpt>
      <trkpt lat="46.77626" lon="9.54781">
        <ele>1277.73</ele>
        <time>2012-08-03T14:51:44Z</time>
      </trkpt>
      <trkpt lat="46.77614" lon="9.54744">
        <ele>1274.36</ele>
        <time>2012-08-03T14:51:47Z</time>
      </trkpt>
      <trkpt lat="46.77613" lon="9.54732">
        <ele>1273.88</ele>
        <time>2012-08-03T14:51:48Z</time>
      </trkpt>
      <trkpt lat="46.77615" lon="9.5472">
        <ele>1272.44</ele>
        <time>2012-08-03T14:51:49Z</time>
      </trkpt>
      <trkpt lat="46.7762" lon="9.54709">
        <ele>1271.96</ele>
        <time>2012-08-03T14:51:50Z</time>
      </trkpt>
      <trkpt lat="46.77626" lon="9.54698">
        <ele>1271.48</ele>
        <time>2012-08-03T14:51:51Z</time>
      </trkpt>
      <trkpt lat="46.77634" lon="9.54685">
        <ele>1270.52</ele>
        <time>2012-08-03T14:51:52Z</time>
      </trkpt>
      <trkpt lat="46.77668" lon="9.54628">
        <ele>1266.67</ele>
        <time>2012-08-03T14:51:56Z</time>
      </trkpt>
      <trkpt lat="46.777" lon="9.54576">
        <ele>1262.83</ele>
        <time>2012-08-03T14:52:00Z</time>
      </trkpt>
      <trkpt lat="46.77725" lon="9.54525">
        <ele>1259.46</ele>
        <time>2012-08-03T14:52:04Z</time>
      </trkpt>
      <trkpt lat="46.77738" lon="9.54483">
        <ele>1256.58</ele>
        <time>2012-08-03T14:52:07Z</time>
      </trkpt>
      <trkpt lat="46.77747" lon="9.54454">
        <ele>1253.22</ele>
        <time>2012-08-03T14:52:09Z</time>
      </trkpt>
      <trkpt lat="46.77761" lon="9.54412">
        <ele>1249.85</ele>
        <time>2012-08-03T14:52:12Z</time>
      </trkpt>
      <trkpt lat="46.77765" lon="9.54402">
        <ele>1248.41</ele>
        <time>2012-08-03T14:52:13Z</time>
      </trkpt>
      <trkpt lat="46.77769" lon="9.54396">
        <ele>1246.97</ele>
        <time>2012-08-03T14:52:14Z</time>
      </trkpt>
      <trkpt lat="46.77772" lon="9.54393">
        <ele>1246.49</ele>
        <time>2012-08-03T14:52:15Z</time>
      </trkpt>
      <trkpt lat="46.77774" lon="9.5439">
        <ele>1246.49</ele>
        <time>2012-08-03T14:52:16Z</time>
      </trkpt>
      <trkpt lat="46.77777" lon="9.54388">
        <ele>1246.01</ele>
        <time>2012-08-03T14:52:17Z</time>
      </trkpt>
      <trkpt lat="46.7778" lon="9.54386">
        <ele>1246.49</ele>
        <time>2012-08-03T14:52:18Z</time>
      </trkpt>
      <trkpt lat="46.77784" lon="9.54384">
        <ele>1246.01</ele>
        <time>2012-08-03T14:52:19Z</time>
      </trkpt>
      <trkpt lat="46.77789" lon="9.54383">
        <ele>1246.49</ele>
        <time>2012-08-03T14:52:20Z</time>
      </trkpt>
      <trkpt lat="46.77796" lon="9.54382">
        <ele>1246.49</ele>
        <time>2012-08-03T14:52:21Z</time>
      </trkpt>
      <trkpt lat="46.77803" lon="9.54381">
        <ele>1246.01</ele>
        <time>2012-08-03T14:52:22Z</time>
      </trkpt>
      <trkpt lat="46.77907" lon="9.54365">
        <ele>1246.49</ele>
        <time>2012-08-03T14:52:32Z</time>
      </trkpt>
      <trkpt lat="46.7802" lon="9.54346">
        <ele>1243.12</ele>
        <time>2012-08-03T14:52:42Z</time>
      </trkpt>
      <trkpt lat="46.78111" lon="9.5433">
        <ele>1241.2</ele>
        <time>2012-08-03T14:52:50Z</time>
      </trkpt>
      <trkpt lat="46.78121" lon="9.54326">
        <ele>1240.24</ele>
        <time>2012-08-03T14:52:51Z</time>
      </trkpt>
      <trkpt lat="46.78131" lon="9.5432">
        <ele>1239.76</ele>
        <time>2012-08-03T14:52:52Z</time>
      </trkpt>
      <trkpt lat="46.7821" lon="9.54266">
        <ele>1236.87</ele>
        <time>2012-08-03T14:53:00Z</time>
      </trkpt>
      <trkpt lat="46.78229" lon="9.54252">
        <ele>1235.91</ele>
        <time>2012-08-03T14:53:02Z</time>
      </trkpt>
      <trkpt lat="46.78249" lon="9.54238">
        <ele>1231.11</ele>
        <time>2012-08-03T14:53:04Z</time>
      </trkpt>
      <trkpt lat="46.78259" lon="9.54231">
        <ele>1234.95</ele>
        <time>2012-08-03T14:53:05Z</time>
      </trkpt>
      <trkpt lat="46.78269" lon="9.54224">
        <ele>1228.7</ele>
        <time>2012-08-03T14:53:06Z</time>
      </trkpt>
      <trkpt lat="46.7828" lon="9.54217">
        <ele>1228.7</ele>
        <time>2012-08-03T14:53:07Z</time>
      </trkpt>
      <trkpt lat="46.78301" lon="9.54202">
        <ele>1233.03</ele>
        <time>2012-08-03T14:53:09Z</time>
      </trkpt>
      <trkpt lat="46.78312" lon="9.54195">
        <ele>1233.03</ele>
        <time>2012-08-03T14:53:10Z</time>
      </trkpt>
      <trkpt lat="46.78323" lon="9.5419">
        <ele>1231.59</ele>
        <time>2012-08-03T14:53:11Z</time>
      </trkpt>
      <trkpt lat="46.78334" lon="9.54186">
        <ele>1232.07</ele>
        <time>2012-08-03T14:53:12Z</time>
      </trkpt>
      <trkpt lat="46.78366" lon="9.54176">
        <ele>1228.22</ele>
        <time>2012-08-03T14:53:15Z</time>
      </trkpt>
      <trkpt lat="46.78376" lon="9.54171">
        <ele>1227.26</ele>
        <time>2012-08-03T14:53:16Z</time>
      </trkpt>
      <trkpt lat="46.78385" lon="9.54165">
        <ele>1228.22</ele>
        <time>2012-08-03T14:53:17Z</time>
      </trkpt>
      <trkpt lat="46.78394" lon="9.54156">
        <ele>1227.74</ele>
        <time>2012-08-03T14:53:18Z</time>
      </trkpt>
      <trkpt lat="46.78403" lon="9.54148">
        <ele>1227.26</ele>
        <time>2012-08-03T14:53:19Z</time>
      </trkpt>
      <trkpt lat="46.78413" lon="9.5414">
        <ele>1225.82</ele>
        <time>2012-08-03T14:53:20Z</time>
      </trkpt>
      <trkpt lat="46.78422" lon="9.54131">
        <ele>1226.3</ele>
        <time>2012-08-03T14:53:21Z</time>
      </trkpt>
      <trkpt lat="46.78448" lon="9.54099">
        <ele>1222.93</ele>
        <time>2012-08-03T14:53:24Z</time>
      </trkpt>
      <trkpt lat="46.78456" lon="9.54087">
        <ele>1227.26</ele>
        <time>2012-08-03T14:53:25Z</time>
      </trkpt>
      <trkpt lat="46.78462" lon="9.54074">
        <ele>1226.78</ele>
        <time>2012-08-03T14:53:26Z</time>
      </trkpt>
      <trkpt lat="46.78495" lon="9.54006">
        <ele>1222.93</ele>
        <time>2012-08-03T14:53:31Z</time>
      </trkpt>
      <trkpt lat="46.78501" lon="9.53992">
        <ele>1225.82</ele>
        <time>2012-08-03T14:53:32Z</time>
      </trkpt>
      <trkpt lat="46.78553" lon="9.53838">
        <ele>1227.26</ele>
        <time>2012-08-03T14:53:41Z</time>
      </trkpt>
      <trkpt lat="46.78566" lon="9.53803">
        <ele>1223.42</ele>
        <time>2012-08-03T14:53:43Z</time>
      </trkpt>
      <trkpt lat="46.78573" lon="9.53787">
        <ele>1222.93</ele>
        <time>2012-08-03T14:53:44Z</time>
      </trkpt>
      <trkpt lat="46.78582" lon="9.53773">
        <ele>1222.93</ele>
        <time>2012-08-03T14:53:45Z</time>
      </trkpt>
      <trkpt lat="46.78593" lon="9.53761">
        <ele>1222.45</ele>
        <time>2012-08-03T14:53:46Z</time>
      </trkpt>
      <trkpt lat="46.78605" lon="9.53751">
        <ele>1220.53</ele>
        <time>2012-08-03T14:53:47Z</time>
      </trkpt>
      <trkpt lat="46.78618" lon="9.53745">
        <ele>1220.53</ele>
        <time>2012-08-03T14:53:48Z</time>
      </trkpt>
      <trkpt lat="46.78631" lon="9.53741">
        <ele>1221.01</ele>
        <time>2012-08-03T14:53:49Z</time>
      </trkpt>
      <trkpt lat="46.78645" lon="9.53738">
        <ele>1222.93</ele>
        <time>2012-08-03T14:53:50Z</time>
      </trkpt>
      <trkpt lat="46.78658" lon="9.53736">
        <ele>1221.49</ele>
        <time>2012-08-03T14:53:51Z</time>
      </trkpt>
      <trkpt lat="46.78719" lon="9.53724">
        <ele>1224.38</ele>
        <time>2012-08-03T14:53:56Z</time>
      </trkpt>
      <trkpt lat="46.78731" lon="9.53719">
        <ele>1224.86</ele>
        <time>2012-08-03T14:53:57Z</time>
      </trkpt>
      <trkpt lat="46.78743" lon="9.53711">
        <ele>1224.86</ele>
        <time>2012-08-03T14:53:58Z</time>
      </trkpt>
      <trkpt lat="46.7879" lon="9.53681">
        <ele>1221.01</ele>
        <time>2012-08-03T14:54:02Z</time>
      </trkpt>
      <trkpt lat="46.78802" lon="9.53672">
        <ele>1224.38</ele>
        <time>2012-08-03T14:54:03Z</time>
      </trkpt>
      <trkpt lat="46.78897" lon="9.53562">
        <ele>1225.34</ele>
        <time>2012-08-03T14:54:12Z</time>
      </trkpt>
      <trkpt lat="46.78909" lon="9.53553">
        <ele>1226.3</ele>
        <time>2012-08-03T14:54:13Z</time>
      </trkpt>
      <trkpt lat="46.78933" lon="9.53539">
        <ele>1216.69</ele>
        <time>2012-08-03T14:54:15Z</time>
      </trkpt>
      <trkpt lat="46.78946" lon="9.53532">
        <ele>1224.86</ele>
        <time>2012-08-03T14:54:16Z</time>
      </trkpt>
      <trkpt lat="46.78972" lon="9.53517">
        <ele>1220.53</ele>
        <time>2012-08-03T14:54:18Z</time>
      </trkpt>
      <trkpt lat="46.78985" lon="9.53508">
        <ele>1222.45</ele>
        <time>2012-08-03T14:54:19Z</time>
      </trkpt>
      <trkpt lat="46.78998" lon="9.53496">
        <ele>1221.97</ele>
        <time>2012-08-03T14:54:20Z</time>
      </trkpt>
      <trkpt lat="46.7901" lon="9.53484">
        <ele>1221.49</ele>
        <time>2012-08-03T14:54:21Z</time>
      </trkpt>
      <trkpt lat="46.79022" lon="9.53469">
        <ele>1220.53</ele>
        <time>2012-08-03T14:54:22Z</time>
      </trkpt>
      <trkpt lat="46.79033" lon="9.53453">
        <ele>1220.05</ele>
        <time>2012-08-03T14:54:23Z</time>
      </trkpt>
      <trkpt lat="46.79044" lon="9.53436">
        <ele>1218.61</ele>
        <time>2012-08-03T14:54:24Z</time>
      </trkpt>
      <trkpt lat="46.79056" lon="9.53419">
        <ele>1222.45</ele>
        <time>2012-08-03T14:54:25Z</time>
      </trkpt>
      <trkpt lat="46.79068" lon="9.53402">
        <ele>1217.17</ele>
        <time>2012-08-03T14:54:26Z</time>
      </trkpt>
      <trkpt lat="46.79082" lon="9.53387">
        <ele>1215.24</ele>
        <time>2012-08-03T14:54:27Z</time>
      </trkpt>
      <trkpt lat="46.79096" lon="9.53376">
        <ele>1214.76</ele>
        <time>2012-08-03T14:54:28Z</time>
      </trkpt>
      <trkpt lat="46.79112" lon="9.53367">
        <ele>1212.84</ele>
        <time>2012-08-03T14:54:29Z</time>
      </trkpt>
      <trkpt lat="46.79128" lon="9.5336">
        <ele>1214.76</ele>
        <time>2012-08-03T14:54:30Z</time>
      </trkpt>
      <trkpt lat="46.79145" lon="9.53354">
        <ele>1213.32</ele>
        <time>2012-08-03T14:54:31Z</time>
      </trkpt>
      <trkpt lat="46.79226" lon="9.53331">
        <ele>1211.88</ele>
        <time>2012-08-03T14:54:36Z</time>
      </trkpt>
      <trkpt lat="46.7924" lon="9.53322">
        <ele>1211.4</ele>
        <time>2012-08-03T14:54:37Z</time>
      </trkpt>
      <trkpt lat="46.79253" lon="9.5331">
        <ele>1211.88</ele>
        <time>2012-08-03T14:54:38Z</time>
      </trkpt>
      <trkpt lat="46.79278" lon="9.53281">
        <ele>1209</ele>
        <time>2012-08-03T14:54:40Z</time>
      </trkpt>
      <trkpt lat="46.79305" lon="9.53253">
        <ele>1206.11</ele>
        <time>2012-08-03T14:54:42Z</time>
      </trkpt>
      <trkpt lat="46.7932" lon="9.53244">
        <ele>1206.11</ele>
        <time>2012-08-03T14:54:43Z</time>
      </trkpt>
      <trkpt lat="46.79336" lon="9.53236">
        <ele>1204.67</ele>
        <time>2012-08-03T14:54:44Z</time>
      </trkpt>
      <trkpt lat="46.79353" lon="9.53231">
        <ele>1204.67</ele>
        <time>2012-08-03T14:54:45Z</time>
      </trkpt>
      <trkpt lat="46.7937" lon="9.53226">
        <ele>1200.82</ele>
        <time>2012-08-03T14:54:46Z</time>
      </trkpt>
      <trkpt lat="46.79422" lon="9.53212">
        <ele>1199.86</ele>
        <time>2012-08-03T14:54:49Z</time>
      </trkpt>
      <trkpt lat="46.7944" lon="9.53208">
        <ele>1196.02</ele>
        <time>2012-08-03T14:54:50Z</time>
      </trkpt>
      <trkpt lat="46.79459" lon="9.53203">
        <ele>1196.5</ele>
        <time>2012-08-03T14:54:51Z</time>
      </trkpt>
      <trkpt lat="46.79514" lon="9.53193">
        <ele>1192.65</ele>
        <time>2012-08-03T14:54:54Z</time>
      </trkpt>
      <trkpt lat="46.79571" lon="9.53188">
        <ele>1188.81</ele>
        <time>2012-08-03T14:54:57Z</time>
      </trkpt>
      <trkpt lat="46.79646" lon="9.53186">
        <ele>1184</ele>
        <time>2012-08-03T14:55:01Z</time>
      </trkpt>
      <trkpt lat="46.79665" lon="9.53186">
        <ele>1184</ele>
        <time>2012-08-03T14:55:02Z</time>
      </trkpt>
      <trkpt lat="46.7972" lon="9.53184">
        <ele>1178.71</ele>
        <time>2012-08-03T14:55:05Z</time>
      </trkpt>
      <trkpt lat="46.79737" lon="9.53183">
        <ele>1180.16</ele>
        <time>2012-08-03T14:55:06Z</time>
      </trkpt>
      <trkpt lat="46.79806" lon="9.53166">
        <ele>1176.79</ele>
        <time>2012-08-03T14:55:10Z</time>
      </trkpt>
      <trkpt lat="46.79841" lon="9.53155">
        <ele>1175.83</ele>
        <time>2012-08-03T14:55:12Z</time>
      </trkpt>
      <trkpt lat="46.79876" lon="9.5315">
        <ele>1171.02</ele>
        <time>2012-08-03T14:55:14Z</time>
      </trkpt>
      <trkpt lat="46.79893" lon="9.53147">
        <ele>1174.87</ele>
        <time>2012-08-03T14:55:15Z</time>
      </trkpt>
      <trkpt lat="46.79927" lon="9.53144">
        <ele>1169.1</ele>
        <time>2012-08-03T14:55:17Z</time>
      </trkpt>
      <trkpt lat="46.79943" lon="9.53142">
        <ele>1171.02</ele>
        <time>2012-08-03T14:55:18Z</time>
      </trkpt>
      <trkpt lat="46.79976" lon="9.53142">
        <ele>1167.18</ele>
        <time>2012-08-03T14:55:20Z</time>
      </trkpt>
      <trkpt lat="46.79991" lon="9.53145">
        <ele>1166.22</ele>
        <time>2012-08-03T14:55:21Z</time>
      </trkpt>
      <trkpt lat="46.80005" lon="9.53148">
        <ele>1164.29</ele>
        <time>2012-08-03T14:55:22Z</time>
      </trkpt>
      <trkpt lat="46.80017" lon="9.53147">
        <ele>1163.33</ele>
        <time>2012-08-03T14:55:23Z</time>
      </trkpt>
      <trkpt lat="46.80029" lon="9.53141">
        <ele>1162.85</ele>
        <time>2012-08-03T14:55:24Z</time>
      </trkpt>
      <trkpt lat="46.80038" lon="9.53128">
        <ele>1162.85</ele>
        <time>2012-08-03T14:55:25Z</time>
      </trkpt>
      <trkpt lat="46.80046" lon="9.5311">
        <ele>1163.33</ele>
        <time>2012-08-03T14:55:26Z</time>
      </trkpt>
      <trkpt lat="46.80053" lon="9.53091">
        <ele>1162.85</ele>
        <time>2012-08-03T14:55:27Z</time>
      </trkpt>
      <trkpt lat="46.80067" lon="9.53061">
        <ele>1160.45</ele>
        <time>2012-08-03T14:55:29Z</time>
      </trkpt>
      <trkpt lat="46.80076" lon="9.53051">
        <ele>1159.97</ele>
        <time>2012-08-03T14:55:30Z</time>
      </trkpt>
      <trkpt lat="46.80088" lon="9.53045">
        <ele>1158.53</ele>
        <time>2012-08-03T14:55:31Z</time>
      </trkpt>
      <trkpt lat="46.80101" lon="9.53045">
        <ele>1158.53</ele>
        <time>2012-08-03T14:55:32Z</time>
      </trkpt>
      <trkpt lat="46.80116" lon="9.53048">
        <ele>1159.49</ele>
        <time>2012-08-03T14:55:33Z</time>
      </trkpt>
      <trkpt lat="46.80199" lon="9.5305">
        <ele>1154.2</ele>
        <time>2012-08-03T14:55:38Z</time>
      </trkpt>
      <trkpt lat="46.80216" lon="9.5305">
        <ele>1159.97</ele>
        <time>2012-08-03T14:55:39Z</time>
      </trkpt>
      <trkpt lat="46.80283" lon="9.53063">
        <ele>1156.12</ele>
        <time>2012-08-03T14:55:43Z</time>
      </trkpt>
      <trkpt lat="46.80298" lon="9.5307">
        <ele>1153.24</ele>
        <time>2012-08-03T14:55:44Z</time>
      </trkpt>
      <trkpt lat="46.80312" lon="9.53079">
        <ele>1154.68</ele>
        <time>2012-08-03T14:55:45Z</time>
      </trkpt>
      <trkpt lat="46.80374" lon="9.53126">
        <ele>1152.28</ele>
        <time>2012-08-03T14:55:50Z</time>
      </trkpt>
      <trkpt lat="46.80383" lon="9.53137">
        <ele>1151.32</ele>
        <time>2012-08-03T14:55:51Z</time>
      </trkpt>
      <trkpt lat="46.80389" lon="9.53148">
        <ele>1149.87</ele>
        <time>2012-08-03T14:55:52Z</time>
      </trkpt>
      <trkpt lat="46.80415" lon="9.53197">
        <ele>1146.99</ele>
        <time>2012-08-03T14:55:58Z</time>
      </trkpt>
      <trkpt lat="46.8042" lon="9.53202">
        <ele>1146.51</ele>
        <time>2012-08-03T14:55:59Z</time>
      </trkpt>
      <trkpt lat="46.80426" lon="9.53205">
        <ele>1146.03</ele>
        <time>2012-08-03T14:56:00Z</time>
      </trkpt>
      <trkpt lat="46.80432" lon="9.53206">
        <ele>1146.03</ele>
        <time>2012-08-03T14:56:01Z</time>
      </trkpt>
      <trkpt lat="46.80439" lon="9.53206">
        <ele>1146.03</ele>
        <time>2012-08-03T14:56:02Z</time>
      </trkpt>
      <trkpt lat="46.80446" lon="9.53205">
        <ele>1145.55</ele>
        <time>2012-08-03T14:56:03Z</time>
      </trkpt>
      <trkpt lat="46.80453" lon="9.53201">
        <ele>1145.07</ele>
        <time>2012-08-03T14:56:04Z</time>
      </trkpt>
      <trkpt lat="46.8046" lon="9.53195">
        <ele>1145.07</ele>
        <time>2012-08-03T14:56:05Z</time>
      </trkpt>
      <trkpt lat="46.80466" lon="9.53186">
        <ele>1144.59</ele>
        <time>2012-08-03T14:56:06Z</time>
      </trkpt>
      <trkpt lat="46.8047" lon="9.53177">
        <ele>1144.11</ele>
        <time>2012-08-03T14:56:07Z</time>
      </trkpt>
      <trkpt lat="46.80474" lon="9.53169">
        <ele>1142.66</ele>
        <time>2012-08-03T14:56:08Z</time>
      </trkpt>
      <trkpt lat="46.80484" lon="9.53142">
        <ele>1140.74</ele>
        <time>2012-08-03T14:56:11Z</time>
      </trkpt>
      <trkpt lat="46.80489" lon="9.53134">
        <ele>1140.74</ele>
        <time>2012-08-03T14:56:12Z</time>
      </trkpt>
      <trkpt lat="46.80494" lon="9.53127">
        <ele>1140.26</ele>
        <time>2012-08-03T14:56:13Z</time>
      </trkpt>
      <trkpt lat="46.80501" lon="9.53121">
        <ele>1139.78</ele>
        <time>2012-08-03T14:56:14Z</time>
      </trkpt>
      <trkpt lat="46.80509" lon="9.53117">
        <ele>1139.3</ele>
        <time>2012-08-03T14:56:15Z</time>
      </trkpt>
      <trkpt lat="46.80518" lon="9.53116">
        <ele>1138.82</ele>
        <time>2012-08-03T14:56:16Z</time>
      </trkpt>
      <trkpt lat="46.80526" lon="9.53116">
        <ele>1138.82</ele>
        <time>2012-08-03T14:56:17Z</time>
      </trkpt>
      <trkpt lat="46.80543" lon="9.53126">
        <ele>1138.34</ele>
        <time>2012-08-03T14:56:19Z</time>
      </trkpt>
      <trkpt lat="46.8055" lon="9.53134">
        <ele>1137.86</ele>
        <time>2012-08-03T14:56:20Z</time>
      </trkpt>
      <trkpt lat="46.80556" lon="9.53143">
        <ele>1137.38</ele>
        <time>2012-08-03T14:56:21Z</time>
      </trkpt>
      <trkpt lat="46.80561" lon="9.53153">
        <ele>1136.9</ele>
        <time>2012-08-03T14:56:22Z</time>
      </trkpt>
      <trkpt lat="46.80565" lon="9.53164">
        <ele>1136.9</ele>
        <time>2012-08-03T14:56:23Z</time>
      </trkpt>
      <trkpt lat="46.80569" lon="9.53173">
        <ele>1136.42</ele>
        <time>2012-08-03T14:56:24Z</time>
      </trkpt>
      <trkpt lat="46.806" lon="9.53248">
        <ele>1135.45</ele>
        <time>2012-08-03T14:56:32Z</time>
      </trkpt>
      <trkpt lat="46.80605" lon="9.53254">
        <ele>1135.94</ele>
        <time>2012-08-03T14:56:33Z</time>
      </trkpt>
      <trkpt lat="46.8061" lon="9.5326">
        <ele>1135.45</ele>
        <time>2012-08-03T14:56:34Z</time>
      </trkpt>
      <trkpt lat="46.80617" lon="9.53265">
        <ele>1135.94</ele>
        <time>2012-08-03T14:56:35Z</time>
      </trkpt>
      <trkpt lat="46.80624" lon="9.53267">
        <ele>1135.94</ele>
        <time>2012-08-03T14:56:36Z</time>
      </trkpt>
      <trkpt lat="46.80631" lon="9.53267">
        <ele>1135.94</ele>
        <time>2012-08-03T14:56:37Z</time>
      </trkpt>
      <trkpt lat="46.80637" lon="9.53266">
        <ele>1135.94</ele>
        <time>2012-08-03T14:56:38Z</time>
      </trkpt>
      <trkpt lat="46.80642" lon="9.53264">
        <ele>1135.45</ele>
        <time>2012-08-03T14:56:39Z</time>
      </trkpt>
      <trkpt lat="46.80646" lon="9.53261">
        <ele>1134.97</ele>
        <time>2012-08-03T14:56:40Z</time>
      </trkpt>
      <trkpt lat="46.80649" lon="9.53258">
        <ele>1134.97</ele>
        <time>2012-08-03T14:56:41Z</time>
      </trkpt>
      <trkpt lat="46.80652" lon="9.53256">
        <ele>1134.97</ele>
        <time>2012-08-03T14:56:42Z</time>
      </trkpt>
      <trkpt lat="46.80654" lon="9.53253">
        <ele>1134.97</ele>
        <time>2012-08-03T14:56:43Z</time>
      </trkpt>
      <trkpt lat="46.80656" lon="9.5325">
        <ele>1135.45</ele>
        <time>2012-08-03T14:56:44Z</time>
      </trkpt>
      <trkpt lat="46.80683" lon="9.53214">
        <ele>1135.45</ele>
        <time>2012-08-03T14:56:55Z</time>
      </trkpt>
      <trkpt lat="46.80688" lon="9.53209">
        <ele>1135.94</ele>
        <time>2012-08-03T14:56:56Z</time>
      </trkpt>
      <trkpt lat="46.80695" lon="9.53205">
        <ele>1135.94</ele>
        <time>2012-08-03T14:56:57Z</time>
      </trkpt>
      <trkpt lat="46.80703" lon="9.53203">
        <ele>1136.42</ele>
        <time>2012-08-03T14:56:58Z</time>
      </trkpt>
      <trkpt lat="46.80712" lon="9.53202">
        <ele>1136.9</ele>
        <time>2012-08-03T14:56:59Z</time>
      </trkpt>
      <trkpt lat="46.80722" lon="9.53204">
        <ele>1136.42</ele>
        <time>2012-08-03T14:57:00Z</time>
      </trkpt>
      <trkpt lat="46.80733" lon="9.53209">
        <ele>1137.38</ele>
        <time>2012-08-03T14:57:01Z</time>
      </trkpt>
      <trkpt lat="46.80743" lon="9.53217">
        <ele>1138.34</ele>
        <time>2012-08-03T14:57:02Z</time>
      </trkpt>
      <trkpt lat="46.80753" lon="9.53225">
        <ele>1137.86</ele>
        <time>2012-08-03T14:57:03Z</time>
      </trkpt>
      <trkpt lat="46.80763" lon="9.53232">
        <ele>1138.34</ele>
        <time>2012-08-03T14:57:04Z</time>
      </trkpt>
      <trkpt lat="46.80774" lon="9.53236">
        <ele>1137.38</ele>
        <time>2012-08-03T14:57:05Z</time>
      </trkpt>
      <trkpt lat="46.80786" lon="9.53237">
        <ele>1136.42</ele>
        <time>2012-08-03T14:57:06Z</time>
      </trkpt>
      <trkpt lat="46.80797" lon="9.53235">
        <ele>1136.42</ele>
        <time>2012-08-03T14:57:07Z</time>
      </trkpt>
      <trkpt lat="46.80808" lon="9.53231">
        <ele>1136.42</ele>
        <time>2012-08-03T14:57:08Z</time>
      </trkpt>
      <trkpt lat="46.80819" lon="9.53227">
        <ele>1135.45</ele>
        <time>2012-08-03T14:57:09Z</time>
      </trkpt>
      <trkpt lat="46.80865" lon="9.53214">
        <ele>1135.45</ele>
        <time>2012-08-03T14:57:13Z</time>
      </trkpt>
      <trkpt lat="46.80876" lon="9.53213">
        <ele>1135.45</ele>
        <time>2012-08-03T14:57:14Z</time>
      </trkpt>
      <trkpt lat="46.80888" lon="9.53215">
        <ele>1134.97</ele>
        <time>2012-08-03T14:57:15Z</time>
      </trkpt>
      <trkpt lat="46.80899" lon="9.53218">
        <ele>1134.97</ele>
        <time>2012-08-03T14:57:16Z</time>
      </trkpt>
      <trkpt lat="46.80911" lon="9.53222">
        <ele>1134.97</ele>
        <time>2012-08-03T14:57:17Z</time>
      </trkpt>
      <trkpt lat="46.8102" lon="9.53261">
        <ele>1135.94</ele>
        <time>2012-08-03T14:57:26Z</time>
      </trkpt>
      <trkpt lat="46.81159" lon="9.53275">
        <ele>1134.01</ele>
        <time>2012-08-03T14:57:37Z</time>
      </trkpt>
      <trkpt lat="46.81341" lon="9.53292">
        <ele>1131.13</ele>
        <time>2012-08-03T14:57:51Z</time>
      </trkpt>
      <trkpt lat="46.81382" lon="9.53296">
        <ele>1127.28</ele>
        <time>2012-08-03T14:57:54Z</time>
      </trkpt>
      <trkpt lat="46.81436" lon="9.53301">
        <ele>1123.44</ele>
        <time>2012-08-03T14:57:58Z</time>
      </trkpt>
      <trkpt lat="46.81449" lon="9.53301">
        <ele>1122</ele>
        <time>2012-08-03T14:57:59Z</time>
      </trkpt>
      <trkpt lat="46.8146" lon="9.53299">
        <ele>1121.03</ele>
        <time>2012-08-03T14:58:00Z</time>
      </trkpt>
      <trkpt lat="46.81489" lon="9.53291">
        <ele>1116.71</ele>
        <time>2012-08-03T14:58:03Z</time>
      </trkpt>
      <trkpt lat="46.81498" lon="9.53294">
        <ele>1115.27</ele>
        <time>2012-08-03T14:58:04Z</time>
      </trkpt>
      <trkpt lat="46.81506" lon="9.53298">
        <ele>1114.79</ele>
        <time>2012-08-03T14:58:05Z</time>
      </trkpt>
      <trkpt lat="46.81513" lon="9.53303">
        <ele>1113.82</ele>
        <time>2012-08-03T14:58:06Z</time>
      </trkpt>
      <trkpt lat="46.8152" lon="9.53309">
        <ele>1113.34</ele>
        <time>2012-08-03T14:58:07Z</time>
      </trkpt>
      <trkpt lat="46.81527" lon="9.53317">
        <ele>1112.86</ele>
        <time>2012-08-03T14:58:08Z</time>
      </trkpt>
      <trkpt lat="46.81532" lon="9.53328">
        <ele>1110.94</ele>
        <time>2012-08-03T14:58:09Z</time>
      </trkpt>
      <trkpt lat="46.81535" lon="9.53346">
        <ele>1110.46</ele>
        <time>2012-08-03T14:58:10Z</time>
      </trkpt>
      <trkpt lat="46.81533" lon="9.5342">
        <ele>1106.61</ele>
        <time>2012-08-03T14:58:13Z</time>
      </trkpt>
      <trkpt lat="46.81538" lon="9.53436">
        <ele>1106.13</ele>
        <time>2012-08-03T14:58:14Z</time>
      </trkpt>
      <trkpt lat="46.81547" lon="9.53448">
        <ele>1104.69</ele>
        <time>2012-08-03T14:58:15Z</time>
      </trkpt>
      <trkpt lat="46.81558" lon="9.53457">
        <ele>1104.69</ele>
        <time>2012-08-03T14:58:16Z</time>
      </trkpt>
      <trkpt lat="46.8157" lon="9.53465">
        <ele>1103.25</ele>
        <time>2012-08-03T14:58:17Z</time>
      </trkpt>
      <trkpt lat="46.81608" lon="9.53489">
        <ele>1098.44</ele>
        <time>2012-08-03T14:58:20Z</time>
      </trkpt>
      <trkpt lat="46.81622" lon="9.53497">
        <ele>1097.96</ele>
        <time>2012-08-03T14:58:21Z</time>
      </trkpt>
      <trkpt lat="46.81648" lon="9.53514">
        <ele>1094.6</ele>
        <time>2012-08-03T14:58:23Z</time>
      </trkpt>
      <trkpt lat="46.81688" lon="9.53537">
        <ele>1091.23</ele>
        <time>2012-08-03T14:58:26Z</time>
      </trkpt>
      <trkpt lat="46.8173" lon="9.53564">
        <ele>1085.95</ele>
        <time>2012-08-03T14:58:29Z</time>
      </trkpt>
      <trkpt lat="46.81774" lon="9.53599">
        <ele>1082.58</ele>
        <time>2012-08-03T14:58:32Z</time>
      </trkpt>
      <trkpt lat="46.81805" lon="9.53625">
        <ele>1078.74</ele>
        <time>2012-08-03T14:58:34Z</time>
      </trkpt>
      <trkpt lat="46.81836" lon="9.53649">
        <ele>1075.37</ele>
        <time>2012-08-03T14:58:36Z</time>
      </trkpt>
      <trkpt lat="46.81868" lon="9.53673">
        <ele>1072.01</ele>
        <time>2012-08-03T14:58:38Z</time>
      </trkpt>
      <trkpt lat="46.81899" lon="9.53697">
        <ele>1067.2</ele>
        <time>2012-08-03T14:58:40Z</time>
      </trkpt>
      <trkpt lat="46.81929" lon="9.53723">
        <ele>1064.32</ele>
        <time>2012-08-03T14:58:42Z</time>
      </trkpt>
      <trkpt lat="46.81957" lon="9.53749">
        <ele>1060.47</ele>
        <time>2012-08-03T14:58:44Z</time>
      </trkpt>
      <trkpt lat="46.81987" lon="9.5377">
        <ele>1057.59</ele>
        <time>2012-08-03T14:58:46Z</time>
      </trkpt>
      <trkpt lat="46.82003" lon="9.53777">
        <ele>1056.63</ele>
        <time>2012-08-03T14:58:47Z</time>
      </trkpt>
      <trkpt lat="46.82037" lon="9.53789">
        <ele>1052.3</ele>
        <time>2012-08-03T14:58:49Z</time>
      </trkpt>
      <trkpt lat="46.82067" lon="9.53799">
        <ele>1047.97</ele>
        <time>2012-08-03T14:58:51Z</time>
      </trkpt>
      <trkpt lat="46.8208" lon="9.53805">
        <ele>1046.53</ele>
        <time>2012-08-03T14:58:52Z</time>
      </trkpt>
      <trkpt lat="46.82093" lon="9.53814">
        <ele>1043.17</ele>
        <time>2012-08-03T14:58:53Z</time>
      </trkpt>
      <trkpt lat="46.82104" lon="9.53825">
        <ele>1042.69</ele>
        <time>2012-08-03T14:58:54Z</time>
      </trkpt>
      <trkpt lat="46.82138" lon="9.53861">
        <ele>1038.84</ele>
        <time>2012-08-03T14:58:57Z</time>
      </trkpt>
      <trkpt lat="46.8216" lon="9.53884">
        <ele>1035.48</ele>
        <time>2012-08-03T14:58:59Z</time>
      </trkpt>
      <trkpt lat="46.82185" lon="9.53906">
        <ele>1033.07</ele>
        <time>2012-08-03T14:59:01Z</time>
      </trkpt>
      <trkpt lat="46.822" lon="9.53914">
        <ele>1033.07</ele>
        <time>2012-08-03T14:59:02Z</time>
      </trkpt>
      <trkpt lat="46.82251" lon="9.53935">
        <ele>1029.23</ele>
        <time>2012-08-03T14:59:05Z</time>
      </trkpt>
      <trkpt lat="46.82266" lon="9.53942">
        <ele>1026.34</ele>
        <time>2012-08-03T14:59:06Z</time>
      </trkpt>
      <trkpt lat="46.82296" lon="9.53956">
        <ele>1022.98</ele>
        <time>2012-08-03T14:59:08Z</time>
      </trkpt>
      <trkpt lat="46.82337" lon="9.53974">
        <ele>1018.65</ele>
        <time>2012-08-03T14:59:11Z</time>
      </trkpt>
      <trkpt lat="46.82372" lon="9.53986">
        <ele>1015.77</ele>
        <time>2012-08-03T14:59:14Z</time>
      </trkpt>
      <trkpt lat="46.82383" lon="9.53985">
        <ele>1014.33</ele>
        <time>2012-08-03T14:59:15Z</time>
      </trkpt>
      <trkpt lat="46.82393" lon="9.53982">
        <ele>1012.89</ele>
        <time>2012-08-03T14:59:16Z</time>
      </trkpt>
      <trkpt lat="46.82425" lon="9.53974">
        <ele>1010.96</ele>
        <time>2012-08-03T14:59:19Z</time>
      </trkpt>
      <trkpt lat="46.82437" lon="9.53977">
        <ele>1010.48</ele>
        <time>2012-08-03T14:59:20Z</time>
      </trkpt>
      <trkpt lat="46.8245" lon="9.53982">
        <ele>1010</ele>
        <time>2012-08-03T14:59:21Z</time>
      </trkpt>
      <trkpt lat="46.82461" lon="9.53989">
        <ele>1008.56</ele>
        <time>2012-08-03T14:59:22Z</time>
      </trkpt>
      <trkpt lat="46.82473" lon="9.53997">
        <ele>1007.6</ele>
        <time>2012-08-03T14:59:23Z</time>
      </trkpt>
      <trkpt lat="46.82484" lon="9.54006">
        <ele>1006.64</ele>
        <time>2012-08-03T14:59:24Z</time>
      </trkpt>
      <trkpt lat="46.82494" lon="9.54015">
        <ele>1005.2</ele>
        <time>2012-08-03T14:59:25Z</time>
      </trkpt>
      <trkpt lat="46.82505" lon="9.54022">
        <ele>1003.27</ele>
        <time>2012-08-03T14:59:26Z</time>
      </trkpt>
      <trkpt lat="46.82515" lon="9.54026">
        <ele>1002.31</ele>
        <time>2012-08-03T14:59:27Z</time>
      </trkpt>
      <trkpt lat="46.82526" lon="9.54026">
        <ele>1001.35</ele>
        <time>2012-08-03T14:59:28Z</time>
      </trkpt>
      <trkpt lat="46.82559" lon="9.54024">
        <ele>997.99</ele>
        <time>2012-08-03T14:59:31Z</time>
      </trkpt>
      <trkpt lat="46.82579" lon="9.54021">
        <ele>996.06</ele>
        <time>2012-08-03T14:59:33Z</time>
      </trkpt>
      <trkpt lat="46.82589" lon="9.54016">
        <ele>995.1</ele>
        <time>2012-08-03T14:59:34Z</time>
      </trkpt>
      <trkpt lat="46.82597" lon="9.54005">
        <ele>993.66</ele>
        <time>2012-08-03T14:59:35Z</time>
      </trkpt>
      <trkpt lat="46.82603" lon="9.53991">
        <ele>993.66</ele>
        <time>2012-08-03T14:59:36Z</time>
      </trkpt>
      <trkpt lat="46.82609" lon="9.53975">
        <ele>991.26</ele>
        <time>2012-08-03T14:59:37Z</time>
      </trkpt>
      <trkpt lat="46.82616" lon="9.5396">
        <ele>989.81</ele>
        <time>2012-08-03T14:59:38Z</time>
      </trkpt>
      <trkpt lat="46.82624" lon="9.53947">
        <ele>988.37</ele>
        <time>2012-08-03T14:59:39Z</time>
      </trkpt>
      <trkpt lat="46.82634" lon="9.53937">
        <ele>986.93</ele>
        <time>2012-08-03T14:59:40Z</time>
      </trkpt>
      <trkpt lat="46.82646" lon="9.53931">
        <ele>986.45</ele>
        <time>2012-08-03T14:59:41Z</time>
      </trkpt>
      <trkpt lat="46.82659" lon="9.53927">
        <ele>985.01</ele>
        <time>2012-08-03T14:59:42Z</time>
      </trkpt>
      <trkpt lat="46.82696" lon="9.53917">
        <ele>980.68</ele>
        <time>2012-08-03T14:59:45Z</time>
      </trkpt>
      <trkpt lat="46.82708" lon="9.53918">
        <ele>979.72</ele>
        <time>2012-08-03T14:59:46Z</time>
      </trkpt>
      <trkpt lat="46.8272" lon="9.53921">
        <ele>978.28</ele>
        <time>2012-08-03T14:59:47Z</time>
      </trkpt>
      <trkpt lat="46.82753" lon="9.5393">
        <ele>973.47</ele>
        <time>2012-08-03T14:59:50Z</time>
      </trkpt>
      <trkpt lat="46.82767" lon="9.53936">
        <ele>971.07</ele>
        <time>2012-08-03T14:59:52Z</time>
      </trkpt>
      <trkpt lat="46.82772" lon="9.53941">
        <ele>970.59</ele>
        <time>2012-08-03T14:59:53Z</time>
      </trkpt>
      <trkpt lat="46.82774" lon="9.5395">
        <ele>970.59</ele>
        <time>2012-08-03T14:59:54Z</time>
      </trkpt>
      <trkpt lat="46.82772" lon="9.53959">
        <ele>970.11</ele>
        <time>2012-08-03T14:59:55Z</time>
      </trkpt>
      <trkpt lat="46.82767" lon="9.53966">
        <ele>969.63</ele>
        <time>2012-08-03T14:59:56Z</time>
      </trkpt>
      <trkpt lat="46.82759" lon="9.53967">
        <ele>969.63</ele>
        <time>2012-08-03T14:59:57Z</time>
      </trkpt>
      <trkpt lat="46.82751" lon="9.53965">
        <ele>969.63</ele>
        <time>2012-08-03T14:59:58Z</time>
      </trkpt>
      <trkpt lat="46.82743" lon="9.53961">
        <ele>969.15</ele>
        <time>2012-08-03T14:59:59Z</time>
      </trkpt>
      <trkpt lat="46.82726" lon="9.53955">
        <ele>969.63</ele>
        <time>2012-08-03T15:00:01Z</time>
      </trkpt>
      <trkpt lat="46.82717" lon="9.53954">
        <ele>968.18</ele>
        <time>2012-08-03T15:00:02Z</time>
      </trkpt>
      <trkpt lat="46.82694" lon="9.53955">
        <ele>966.74</ele>
        <time>2012-08-03T15:00:05Z</time>
      </trkpt>
      <trkpt lat="46.82688" lon="9.53959">
        <ele>966.26</ele>
        <time>2012-08-03T15:00:06Z</time>
      </trkpt>
      <trkpt lat="46.82684" lon="9.53968">
        <ele>965.78</ele>
        <time>2012-08-03T15:00:07Z</time>
      </trkpt>
      <trkpt lat="46.82683" lon="9.53979">
        <ele>965.3</ele>
        <time>2012-08-03T15:00:08Z</time>
      </trkpt>
      <trkpt lat="46.82686" lon="9.53989">
        <ele>964.34</ele>
        <time>2012-08-03T15:00:09Z</time>
      </trkpt>
      <trkpt lat="46.82693" lon="9.53995">
        <ele>963.86</ele>
        <time>2012-08-03T15:00:10Z</time>
      </trkpt>
      <trkpt lat="46.82702" lon="9.53997">
        <ele>964.34</ele>
        <time>2012-08-03T15:00:11Z</time>
      </trkpt>
      <trkpt lat="46.82712" lon="9.53995">
        <ele>964.34</ele>
        <time>2012-08-03T15:00:12Z</time>
      </trkpt>
      <trkpt lat="46.82723" lon="9.53994">
        <ele>963.38</ele>
        <time>2012-08-03T15:00:13Z</time>
      </trkpt>
      <trkpt lat="46.82736" lon="9.53995">
        <ele>962.9</ele>
        <time>2012-08-03T15:00:14Z</time>
      </trkpt>
      <trkpt lat="46.8275" lon="9.54001">
        <ele>961.94</ele>
        <time>2012-08-03T15:00:15Z</time>
      </trkpt>
      <trkpt lat="46.82763" lon="9.5401">
        <ele>960.98</ele>
        <time>2012-08-03T15:00:16Z</time>
      </trkpt>
      <trkpt lat="46.82776" lon="9.54019">
        <ele>960.98</ele>
        <time>2012-08-03T15:00:17Z</time>
      </trkpt>
      <trkpt lat="46.82802" lon="9.54037">
        <ele>957.61</ele>
        <time>2012-08-03T15:00:19Z</time>
      </trkpt>
      <trkpt lat="46.82815" lon="9.54041">
        <ele>956.65</ele>
        <time>2012-08-03T15:00:20Z</time>
      </trkpt>
      <trkpt lat="46.82828" lon="9.5404">
        <ele>956.17</ele>
        <time>2012-08-03T15:00:21Z</time>
      </trkpt>
      <trkpt lat="46.82842" lon="9.54035">
        <ele>954.73</ele>
        <time>2012-08-03T15:00:22Z</time>
      </trkpt>
      <trkpt lat="46.82856" lon="9.54024">
        <ele>954.25</ele>
        <time>2012-08-03T15:00:23Z</time>
      </trkpt>
      <trkpt lat="46.82869" lon="9.54009">
        <ele>953.77</ele>
        <time>2012-08-03T15:00:24Z</time>
      </trkpt>
      <trkpt lat="46.82881" lon="9.53993">
        <ele>952.8</ele>
        <time>2012-08-03T15:00:25Z</time>
      </trkpt>
      <trkpt lat="46.82893" lon="9.53979">
        <ele>949.44</ele>
        <time>2012-08-03T15:00:26Z</time>
      </trkpt>
      <trkpt lat="46.82916" lon="9.53953">
        <ele>945.59</ele>
        <time>2012-08-03T15:00:28Z</time>
      </trkpt>
      <trkpt lat="46.8295" lon="9.53916">
        <ele>941.75</ele>
        <time>2012-08-03T15:00:31Z</time>
      </trkpt>
      <trkpt lat="46.82963" lon="9.53909">
        <ele>940.31</ele>
        <time>2012-08-03T15:00:32Z</time>
      </trkpt>
      <trkpt lat="46.82976" lon="9.53905">
        <ele>938.86</ele>
        <time>2012-08-03T15:00:33Z</time>
      </trkpt>
      <trkpt lat="46.82989" lon="9.53904">
        <ele>937.42</ele>
        <time>2012-08-03T15:00:34Z</time>
      </trkpt>
      <trkpt lat="46.83002" lon="9.53902">
        <ele>937.42</ele>
        <time>2012-08-03T15:00:35Z</time>
      </trkpt>
      <trkpt lat="46.83014" lon="9.53897">
        <ele>935.98</ele>
        <time>2012-08-03T15:00:36Z</time>
      </trkpt>
      <trkpt lat="46.83026" lon="9.5389">
        <ele>934.54</ele>
        <time>2012-08-03T15:00:37Z</time>
      </trkpt>
      <trkpt lat="46.83036" lon="9.5388">
        <ele>932.62</ele>
        <time>2012-08-03T15:00:38Z</time>
      </trkpt>
      <trkpt lat="46.83045" lon="9.53871">
        <ele>932.14</ele>
        <time>2012-08-03T15:00:39Z</time>
      </trkpt>
      <trkpt lat="46.83053" lon="9.53863">
        <ele>931.17</ele>
        <time>2012-08-03T15:00:40Z</time>
      </trkpt>
      <trkpt lat="46.83061" lon="9.53857">
        <ele>930.21</ele>
        <time>2012-08-03T15:00:41Z</time>
      </trkpt>
      <trkpt lat="46.8307" lon="9.53856">
        <ele>930.21</ele>
        <time>2012-08-03T15:00:42Z</time>
      </trkpt>
      <trkpt lat="46.8308" lon="9.53857">
        <ele>930.21</ele>
        <time>2012-08-03T15:00:43Z</time>
      </trkpt>
      <trkpt lat="46.83091" lon="9.5386">
        <ele>928.77</ele>
        <time>2012-08-03T15:00:44Z</time>
      </trkpt>
      <trkpt lat="46.83103" lon="9.5386">
        <ele>929.25</ele>
        <time>2012-08-03T15:00:45Z</time>
      </trkpt>
      <trkpt lat="46.83117" lon="9.53857">
        <ele>927.81</ele>
        <time>2012-08-03T15:00:46Z</time>
      </trkpt>
      <trkpt lat="46.8313" lon="9.53853">
        <ele>926.37</ele>
        <time>2012-08-03T15:00:47Z</time>
      </trkpt>
      <trkpt lat="46.83154" lon="9.53844">
        <ele>923</ele>
        <time>2012-08-03T15:00:49Z</time>
      </trkpt>
      <trkpt lat="46.83177" lon="9.53833">
        <ele>922.04</ele>
        <time>2012-08-03T15:00:51Z</time>
      </trkpt>
      <trkpt lat="46.83216" lon="9.53812">
        <ele>917.72</ele>
        <time>2012-08-03T15:00:54Z</time>
      </trkpt>
      <trkpt lat="46.83228" lon="9.53804">
        <ele>917.24</ele>
        <time>2012-08-03T15:00:55Z</time>
      </trkpt>
      <trkpt lat="46.83241" lon="9.53797">
        <ele>916.27</ele>
        <time>2012-08-03T15:00:56Z</time>
      </trkpt>
      <trkpt lat="46.83266" lon="9.53791">
        <ele>913.39</ele>
        <time>2012-08-03T15:00:58Z</time>
      </trkpt>
      <trkpt lat="46.83278" lon="9.53792">
        <ele>912.91</ele>
        <time>2012-08-03T15:00:59Z</time>
      </trkpt>
      <trkpt lat="46.83288" lon="9.53796">
        <ele>911.95</ele>
        <time>2012-08-03T15:01:00Z</time>
      </trkpt>
      <trkpt lat="46.83296" lon="9.53804">
        <ele>910.03</ele>
        <time>2012-08-03T15:01:01Z</time>
      </trkpt>
      <trkpt lat="46.83303" lon="9.53812">
        <ele>909.54</ele>
        <time>2012-08-03T15:01:02Z</time>
      </trkpt>
      <trkpt lat="46.8331" lon="9.53819">
        <ele>908.58</ele>
        <time>2012-08-03T15:01:03Z</time>
      </trkpt>
      <trkpt lat="46.83317" lon="9.53824">
        <ele>908.1</ele>
        <time>2012-08-03T15:01:04Z</time>
      </trkpt>
      <trkpt lat="46.83325" lon="9.53827">
        <ele>907.62</ele>
        <time>2012-08-03T15:01:05Z</time>
      </trkpt>
      <trkpt lat="46.83333" lon="9.53827">
        <ele>907.14</ele>
        <time>2012-08-03T15:01:06Z</time>
      </trkpt>
      <trkpt lat="46.83341" lon="9.53825">
        <ele>907.14</ele>
        <time>2012-08-03T15:01:07Z</time>
      </trkpt>
      <trkpt lat="46.83347" lon="9.53823">
        <ele>906.18</ele>
        <time>2012-08-03T15:01:08Z</time>
      </trkpt>
      <trkpt lat="46.83376" lon="9.53802">
        <ele>902.82</ele>
        <time>2012-08-03T15:01:11Z</time>
      </trkpt>
      <trkpt lat="46.83381" lon="9.53799">
        <ele>902.33</ele>
        <time>2012-08-03T15:01:12Z</time>
      </trkpt>
      <trkpt lat="46.83387" lon="9.53798">
        <ele>901.37</ele>
        <time>2012-08-03T15:01:13Z</time>
      </trkpt>
      <trkpt lat="46.83393" lon="9.53798">
        <ele>900.89</ele>
        <time>2012-08-03T15:01:14Z</time>
      </trkpt>
      <trkpt lat="46.83399" lon="9.53801">
        <ele>900.41</ele>
        <time>2012-08-03T15:01:15Z</time>
      </trkpt>
      <trkpt lat="46.83408" lon="9.53809">
        <ele>900.41</ele>
        <time>2012-08-03T15:01:16Z</time>
      </trkpt>
      <trkpt lat="46.83418" lon="9.53819">
        <ele>899.45</ele>
        <time>2012-08-03T15:01:17Z</time>
      </trkpt>
      <trkpt lat="46.83467" lon="9.5385">
        <ele>896.57</ele>
        <time>2012-08-03T15:01:21Z</time>
      </trkpt>
      <trkpt lat="46.83494" lon="9.53861">
        <ele>893.68</ele>
        <time>2012-08-03T15:01:23Z</time>
      </trkpt>
      <trkpt lat="46.83517" lon="9.53867">
        <ele>890.32</ele>
        <time>2012-08-03T15:01:25Z</time>
      </trkpt>
      <trkpt lat="46.83533" lon="9.53867">
        <ele>888.4</ele>
        <time>2012-08-03T15:01:26Z</time>
      </trkpt>
      <trkpt lat="46.83558" lon="9.53864">
        <ele>885.51</ele>
        <time>2012-08-03T15:01:28Z</time>
      </trkpt>
      <trkpt lat="46.8357" lon="9.53859">
        <ele>884.07</ele>
        <time>2012-08-03T15:01:29Z</time>
      </trkpt>
      <trkpt lat="46.83581" lon="9.53851">
        <ele>883.11</ele>
        <time>2012-08-03T15:01:30Z</time>
      </trkpt>
      <trkpt lat="46.83601" lon="9.53836">
        <ele>879.26</ele>
        <time>2012-08-03T15:01:32Z</time>
      </trkpt>
      <trkpt lat="46.83611" lon="9.53832">
        <ele>878.78</ele>
        <time>2012-08-03T15:01:33Z</time>
      </trkpt>
      <trkpt lat="46.83622" lon="9.53832">
        <ele>877.34</ele>
        <time>2012-08-03T15:01:34Z</time>
      </trkpt>
      <trkpt lat="46.83632" lon="9.53835">
        <ele>876.38</ele>
        <time>2012-08-03T15:01:35Z</time>
      </trkpt>
      <trkpt lat="46.83641" lon="9.5384">
        <ele>874.94</ele>
        <time>2012-08-03T15:01:36Z</time>
      </trkpt>
      <trkpt lat="46.8365" lon="9.53844">
        <ele>873.98</ele>
        <time>2012-08-03T15:01:37Z</time>
      </trkpt>
      <trkpt lat="46.83661" lon="9.53846">
        <ele>873.5</ele>
        <time>2012-08-03T15:01:38Z</time>
      </trkpt>
      <trkpt lat="46.83672" lon="9.53843">
        <ele>873.01</ele>
        <time>2012-08-03T15:01:39Z</time>
      </trkpt>
      <trkpt lat="46.83684" lon="9.53837">
        <ele>871.57</ele>
        <time>2012-08-03T15:01:40Z</time>
      </trkpt>
      <trkpt lat="46.83732" lon="9.53805">
        <ele>867.25</ele>
        <time>2012-08-03T15:01:44Z</time>
      </trkpt>
      <trkpt lat="46.83758" lon="9.53792">
        <ele>866.77</ele>
        <time>2012-08-03T15:01:46Z</time>
      </trkpt>
      <trkpt lat="46.83811" lon="9.53763">
        <ele>863.88</ele>
        <time>2012-08-03T15:01:50Z</time>
      </trkpt>
      <trkpt lat="46.8385" lon="9.53737">
        <ele>859.08</ele>
        <time>2012-08-03T15:01:53Z</time>
      </trkpt>
      <trkpt lat="46.83873" lon="9.53718">
        <ele>857.15</ele>
        <time>2012-08-03T15:01:55Z</time>
      </trkpt>
      <trkpt lat="46.83883" lon="9.53706">
        <ele>854.75</ele>
        <time>2012-08-03T15:01:56Z</time>
      </trkpt>
      <trkpt lat="46.83923" lon="9.53649">
        <ele>851.38</ele>
        <time>2012-08-03T15:02:00Z</time>
      </trkpt>
      <trkpt lat="46.83938" lon="9.53617">
        <ele>847.54</ele>
        <time>2012-08-03T15:02:02Z</time>
      </trkpt>
      <trkpt lat="46.83952" lon="9.53587">
        <ele>844.66</ele>
        <time>2012-08-03T15:02:04Z</time>
      </trkpt>
      <trkpt lat="46.83961" lon="9.53572">
        <ele>843.21</ele>
        <time>2012-08-03T15:02:05Z</time>
      </trkpt>
      <trkpt lat="46.83973" lon="9.5356">
        <ele>842.25</ele>
        <time>2012-08-03T15:02:06Z</time>
      </trkpt>
      <trkpt lat="46.83986" lon="9.5355">
        <ele>841.29</ele>
        <time>2012-08-03T15:02:07Z</time>
      </trkpt>
      <trkpt lat="46.84013" lon="9.53531">
        <ele>837.45</ele>
        <time>2012-08-03T15:02:09Z</time>
      </trkpt>
      <trkpt lat="46.84037" lon="9.53512">
        <ele>833.6</ele>
        <time>2012-08-03T15:02:11Z</time>
      </trkpt>
      <trkpt lat="46.8406" lon="9.53497">
        <ele>830.72</ele>
        <time>2012-08-03T15:02:13Z</time>
      </trkpt>
      <trkpt lat="46.84094" lon="9.53469">
        <ele>826.87</ele>
        <time>2012-08-03T15:02:16Z</time>
      </trkpt>
      <trkpt lat="46.84112" lon="9.53446">
        <ele>823.99</ele>
        <time>2012-08-03T15:02:18Z</time>
      </trkpt>
      <trkpt lat="46.84134" lon="9.53417">
        <ele>820.62</ele>
        <time>2012-08-03T15:02:21Z</time>
      </trkpt>
      <trkpt lat="46.84145" lon="9.534">
        <ele>818.7</ele>
        <time>2012-08-03T15:02:23Z</time>
      </trkpt>
      <trkpt lat="46.84149" lon="9.53396">
        <ele>818.22</ele>
        <time>2012-08-03T15:02:24Z</time>
      </trkpt>
      <trkpt lat="46.84155" lon="9.53395">
        <ele>818.22</ele>
        <time>2012-08-03T15:02:25Z</time>
      </trkpt>
      <trkpt lat="46.84148" lon="9.53401">
        <ele>816.78</ele>
        <time>2012-08-03T15:02:29Z</time>
      </trkpt>
      <trkpt lat="46.84131" lon="9.53428">
        <ele>814.85</ele>
        <time>2012-08-03T15:02:31Z</time>
      </trkpt>
      <trkpt lat="46.84123" lon="9.53444">
        <ele>813.41</ele>
        <time>2012-08-03T15:02:32Z</time>
      </trkpt>
      <trkpt lat="46.84116" lon="9.5346">
        <ele>811.97</ele>
        <time>2012-08-03T15:02:33Z</time>
      </trkpt>
      <trkpt lat="46.84089" lon="9.53518">
        <ele>810.05</ele>
        <time>2012-08-03T15:02:36Z</time>
      </trkpt>
      <trkpt lat="46.8408" lon="9.53531">
        <ele>809.09</ele>
        <time>2012-08-03T15:02:37Z</time>
      </trkpt>
      <trkpt lat="46.84053" lon="9.53562">
        <ele>807.16</ele>
        <time>2012-08-03T15:02:40Z</time>
      </trkpt>
      <trkpt lat="46.84046" lon="9.53575">
        <ele>806.68</ele>
        <time>2012-08-03T15:02:41Z</time>
      </trkpt>
      <trkpt lat="46.8402" lon="9.5363">
        <ele>802.36</ele>
        <time>2012-08-03T15:02:45Z</time>
      </trkpt>
      <trkpt lat="46.84014" lon="9.53645">
        <ele>801.88</ele>
        <time>2012-08-03T15:02:46Z</time>
      </trkpt>
      <trkpt lat="46.84011" lon="9.53661">
        <ele>800.92</ele>
        <time>2012-08-03T15:02:47Z</time>
      </trkpt>
      <trkpt lat="46.84009" lon="9.53679">
        <ele>800.44</ele>
        <time>2012-08-03T15:02:48Z</time>
      </trkpt>
      <trkpt lat="46.84008" lon="9.53697">
        <ele>798.51</ele>
        <time>2012-08-03T15:02:49Z</time>
      </trkpt>
      <trkpt lat="46.84009" lon="9.53716">
        <ele>797.07</ele>
        <time>2012-08-03T15:02:50Z</time>
      </trkpt>
      <trkpt lat="46.84011" lon="9.53752">
        <ele>794.19</ele>
        <time>2012-08-03T15:02:52Z</time>
      </trkpt>
      <trkpt lat="46.84008" lon="9.53806">
        <ele>790.34</ele>
        <time>2012-08-03T15:02:55Z</time>
      </trkpt>
      <trkpt lat="46.84" lon="9.53856">
        <ele>786.5</ele>
        <time>2012-08-03T15:02:58Z</time>
      </trkpt>
      <trkpt lat="46.83996" lon="9.5387">
        <ele>785.05</ele>
        <time>2012-08-03T15:02:59Z</time>
      </trkpt>
      <trkpt lat="46.83988" lon="9.53889">
        <ele>783.13</ele>
        <time>2012-08-03T15:03:01Z</time>
      </trkpt>
      <trkpt lat="46.83988" lon="9.53897">
        <ele>783.61</ele>
        <time>2012-08-03T15:03:02Z</time>
      </trkpt>
      <trkpt lat="46.83991" lon="9.53904">
        <ele>783.61</ele>
        <time>2012-08-03T15:03:03Z</time>
      </trkpt>
      <trkpt lat="46.83996" lon="9.53906">
        <ele>784.09</ele>
        <time>2012-08-03T15:03:04Z</time>
      </trkpt>
      <trkpt lat="46.84003" lon="9.53905">
        <ele>783.61</ele>
        <time>2012-08-03T15:03:05Z</time>
      </trkpt>
      <trkpt lat="46.84009" lon="9.53899">
        <ele>783.61</ele>
        <time>2012-08-03T15:03:06Z</time>
      </trkpt>
      <trkpt lat="46.84016" lon="9.53891">
        <ele>784.09</ele>
        <time>2012-08-03T15:03:07Z</time>
      </trkpt>
      <trkpt lat="46.84023" lon="9.53879">
        <ele>784.57</ele>
        <time>2012-08-03T15:03:08Z</time>
      </trkpt>
      <trkpt lat="46.84031" lon="9.53861">
        <ele>785.53</ele>
        <time>2012-08-03T15:03:09Z</time>
      </trkpt>
      <trkpt lat="46.84038" lon="9.53836">
        <ele>785.53</ele>
        <time>2012-08-03T15:03:10Z</time>
      </trkpt>
      <trkpt lat="46.84045" lon="9.53811">
        <ele>785.53</ele>
        <time>2012-08-03T15:03:11Z</time>
      </trkpt>
      <trkpt lat="46.84051" lon="9.53786">
        <ele>781.21</ele>
        <time>2012-08-03T15:03:12Z</time>
      </trkpt>
      <trkpt lat="46.84063" lon="9.53741">
        <ele>774.96</ele>
        <time>2012-08-03T15:03:14Z</time>
      </trkpt>
      <trkpt lat="46.84072" lon="9.5372">
        <ele>773.52</ele>
        <time>2012-08-03T15:03:15Z</time>
      </trkpt>
      <trkpt lat="46.84086" lon="9.53699">
        <ele>775.92</ele>
        <time>2012-08-03T15:03:16Z</time>
      </trkpt>
      <trkpt lat="46.84121" lon="9.53657">
        <ele>772.08</ele>
        <time>2012-08-03T15:03:18Z</time>
      </trkpt>
      <trkpt lat="46.84138" lon="9.53639">
        <ele>769.19</ele>
        <time>2012-08-03T15:03:19Z</time>
      </trkpt>
      <trkpt lat="46.84156" lon="9.53624">
        <ele>764.39</ele>
        <time>2012-08-03T15:03:20Z</time>
      </trkpt>
      <trkpt lat="46.8419" lon="9.53602">
        <ele>761.02</ele>
        <time>2012-08-03T15:03:22Z</time>
      </trkpt>
      <trkpt lat="46.84204" lon="9.53588">
        <ele>758.14</ele>
        <time>2012-08-03T15:03:23Z</time>
      </trkpt>
      <trkpt lat="46.84216" lon="9.53572">
        <ele>754.77</ele>
        <time>2012-08-03T15:03:24Z</time>
      </trkpt>
      <trkpt lat="46.84237" lon="9.53543">
        <ele>750.93</ele>
        <time>2012-08-03T15:03:26Z</time>
      </trkpt>
      <trkpt lat="46.84263" lon="9.53497">
        <ele>746.12</ele>
        <time>2012-08-03T15:03:29Z</time>
      </trkpt>
      <trkpt lat="46.8428" lon="9.53465">
        <ele>741.79</ele>
        <time>2012-08-03T15:03:31Z</time>
      </trkpt>
      <trkpt lat="46.84307" lon="9.53415">
        <ele>737.95</ele>
        <time>2012-08-03T15:03:34Z</time>
      </trkpt>
      <trkpt lat="46.84324" lon="9.53379">
        <ele>733.62</ele>
        <time>2012-08-03T15:03:36Z</time>
      </trkpt>
      <trkpt lat="46.8434" lon="9.53342">
        <ele>732.66</ele>
        <time>2012-08-03T15:03:38Z</time>
      </trkpt>
      <trkpt lat="46.84353" lon="9.53301">
        <ele>726.89</ele>
        <time>2012-08-03T15:03:40Z</time>
      </trkpt>
      <trkpt lat="46.84366" lon="9.5326">
        <ele>723.53</ele>
        <time>2012-08-03T15:03:42Z</time>
      </trkpt>
      <trkpt lat="46.84379" lon="9.53221">
        <ele>719.68</ele>
        <time>2012-08-03T15:03:44Z</time>
      </trkpt>
      <trkpt lat="46.84399" lon="9.53164">
        <ele>715.84</ele>
        <time>2012-08-03T15:03:47Z</time>
      </trkpt>
      <trkpt lat="46.84408" lon="9.53149">
        <ele>714.4</ele>
        <time>2012-08-03T15:03:48Z</time>
      </trkpt>
      <trkpt lat="46.84419" lon="9.53136">
        <ele>712.95</ele>
        <time>2012-08-03T15:03:49Z</time>
      </trkpt>
      <trkpt lat="46.84452" lon="9.53107">
        <ele>709.11</ele>
        <time>2012-08-03T15:03:52Z</time>
      </trkpt>
      <trkpt lat="46.8447" lon="9.53087">
        <ele>707.19</ele>
        <time>2012-08-03T15:03:54Z</time>
      </trkpt>
      <trkpt lat="46.84477" lon="9.53076">
        <ele>706.23</ele>
        <time>2012-08-03T15:03:55Z</time>
      </trkpt>
      <trkpt lat="46.84487" lon="9.53054">
        <ele>703.34</ele>
        <time>2012-08-03T15:03:57Z</time>
      </trkpt>
      <trkpt lat="46.84492" lon="9.53048">
        <ele>701.9</ele>
        <time>2012-08-03T15:03:58Z</time>
      </trkpt>
      <trkpt lat="46.84498" lon="9.5305">
        <ele>701.9</ele>
        <time>2012-08-03T15:03:59Z</time>
      </trkpt>
      <trkpt lat="46.84503" lon="9.53056">
        <ele>701.42</ele>
        <time>2012-08-03T15:04:00Z</time>
      </trkpt>
      <trkpt lat="46.84504" lon="9.53067">
        <ele>700.94</ele>
        <time>2012-08-03T15:04:01Z</time>
      </trkpt>
      <trkpt lat="46.84502" lon="9.53079">
        <ele>700.94</ele>
        <time>2012-08-03T15:04:02Z</time>
      </trkpt>
      <trkpt lat="46.84501" lon="9.5309">
        <ele>699.98</ele>
        <time>2012-08-03T15:04:03Z</time>
      </trkpt>
      <trkpt lat="46.845" lon="9.53102">
        <ele>699.5</ele>
        <time>2012-08-03T15:04:04Z</time>
      </trkpt>
      <trkpt lat="46.84501" lon="9.53114">
        <ele>699.02</ele>
        <time>2012-08-03T15:04:05Z</time>
      </trkpt>
      <trkpt lat="46.84503" lon="9.53126">
        <ele>698.53</ele>
        <time>2012-08-03T15:04:06Z</time>
      </trkpt>
      <trkpt lat="46.84508" lon="9.53137">
        <ele>697.57</ele>
        <time>2012-08-03T15:04:07Z</time>
      </trkpt>
      <trkpt lat="46.84514" lon="9.53145">
        <ele>696.61</ele>
        <time>2012-08-03T15:04:08Z</time>
      </trkpt>
      <trkpt lat="46.84522" lon="9.53148">
        <ele>696.13</ele>
        <time>2012-08-03T15:04:09Z</time>
      </trkpt>
      <trkpt lat="46.8453" lon="9.53148">
        <ele>695.17</ele>
        <time>2012-08-03T15:04:10Z</time>
      </trkpt>
      <trkpt lat="46.84538" lon="9.53144">
        <ele>695.17</ele>
        <time>2012-08-03T15:04:11Z</time>
      </trkpt>
      <trkpt lat="46.84545" lon="9.53137">
        <ele>693.73</ele>
        <time>2012-08-03T15:04:12Z</time>
      </trkpt>
      <trkpt lat="46.84551" lon="9.53128">
        <ele>693.25</ele>
        <time>2012-08-03T15:04:13Z</time>
      </trkpt>
      <trkpt lat="46.84555" lon="9.53116">
        <ele>693.73</ele>
        <time>2012-08-03T15:04:14Z</time>
      </trkpt>
      <trkpt lat="46.84559" lon="9.53102">
        <ele>692.29</ele>
        <time>2012-08-03T15:04:15Z</time>
      </trkpt>
      <trkpt lat="46.84572" lon="9.5306">
        <ele>688.92</ele>
        <time>2012-08-03T15:04:18Z</time>
      </trkpt>
      <trkpt lat="46.84573" lon="9.53046">
        <ele>687.96</ele>
        <time>2012-08-03T15:04:19Z</time>
      </trkpt>
      <trkpt lat="46.84572" lon="9.53033">
        <ele>687.48</ele>
        <time>2012-08-03T15:04:20Z</time>
      </trkpt>
      <trkpt lat="46.84569" lon="9.5302">
        <ele>687</ele>
        <time>2012-08-03T15:04:21Z</time>
      </trkpt>
      <trkpt lat="46.84565" lon="9.53008">
        <ele>685.08</ele>
        <time>2012-08-03T15:04:22Z</time>
      </trkpt>
      <trkpt lat="46.84554" lon="9.52972">
        <ele>681.71</ele>
        <time>2012-08-03T15:04:25Z</time>
      </trkpt>
      <trkpt lat="46.84551" lon="9.52959">
        <ele>680.75</ele>
        <time>2012-08-03T15:04:26Z</time>
      </trkpt>
      <trkpt lat="46.84551" lon="9.52945">
        <ele>680.27</ele>
        <time>2012-08-03T15:04:27Z</time>
      </trkpt>
      <trkpt lat="46.84552" lon="9.52931">
        <ele>679.31</ele>
        <time>2012-08-03T15:04:28Z</time>
      </trkpt>
      <trkpt lat="46.84553" lon="9.52917">
        <ele>678.35</ele>
        <time>2012-08-03T15:04:29Z</time>
      </trkpt>
      <trkpt lat="46.84557" lon="9.52856">
        <ele>674.5</ele>
        <time>2012-08-03T15:04:33Z</time>
      </trkpt>
      <trkpt lat="46.84556" lon="9.52787">
        <ele>670.66</ele>
        <time>2012-08-03T15:04:37Z</time>
      </trkpt>
      <trkpt lat="46.8455" lon="9.52739">
        <ele>666.81</ele>
        <time>2012-08-03T15:04:40Z</time>
      </trkpt>
      <trkpt lat="46.84546" lon="9.52712">
        <ele>663.45</ele>
        <time>2012-08-03T15:04:42Z</time>
      </trkpt>
      <trkpt lat="46.84543" lon="9.52679">
        <ele>659.6</ele>
        <time>2012-08-03T15:04:45Z</time>
      </trkpt>
      <trkpt lat="46.84545" lon="9.52672">
        <ele>658.16</ele>
        <time>2012-08-03T15:04:46Z</time>
      </trkpt>
      <trkpt lat="46.84548" lon="9.52668">
        <ele>657.68</ele>
        <time>2012-08-03T15:04:47Z</time>
      </trkpt>
      <trkpt lat="46.84552" lon="9.52667">
        <ele>657.68</ele>
        <time>2012-08-03T15:04:48Z</time>
      </trkpt>
      <trkpt lat="46.84557" lon="9.52669">
        <ele>657.2</ele>
        <time>2012-08-03T15:04:49Z</time>
      </trkpt>
      <trkpt lat="46.84562" lon="9.52673">
        <ele>656.72</ele>
        <time>2012-08-03T15:04:50Z</time>
      </trkpt>
      <trkpt lat="46.84567" lon="9.52679">
        <ele>655.76</ele>
        <time>2012-08-03T15:04:51Z</time>
      </trkpt>
      <trkpt lat="46.84572" lon="9.52685">
        <ele>655.76</ele>
        <time>2012-08-03T15:04:52Z</time>
      </trkpt>
      <trkpt lat="46.84603" lon="9.52724">
        <ele>651.43</ele>
        <time>2012-08-03T15:04:57Z</time>
      </trkpt>
      <trkpt lat="46.84618" lon="9.52745">
        <ele>649.99</ele>
        <time>2012-08-03T15:04:59Z</time>
      </trkpt>
      <trkpt lat="46.84625" lon="9.52758">
        <ele>649.03</ele>
        <time>2012-08-03T15:05:00Z</time>
      </trkpt>
      <trkpt lat="46.84631" lon="9.52771">
        <ele>648.07</ele>
        <time>2012-08-03T15:05:01Z</time>
      </trkpt>
      <trkpt lat="46.84636" lon="9.52785">
        <ele>647.1</ele>
        <time>2012-08-03T15:05:02Z</time>
      </trkpt>
      <trkpt lat="46.84641" lon="9.52798">
        <ele>646.14</ele>
        <time>2012-08-03T15:05:03Z</time>
      </trkpt>
      <trkpt lat="46.84654" lon="9.52838">
        <ele>643.26</ele>
        <time>2012-08-03T15:05:06Z</time>
      </trkpt>
      <trkpt lat="46.84673" lon="9.52889">
        <ele>639.41</ele>
        <time>2012-08-03T15:05:10Z</time>
      </trkpt>
      <trkpt lat="46.84685" lon="9.52911">
        <ele>637.97</ele>
        <time>2012-08-03T15:05:12Z</time>
      </trkpt>
      <trkpt lat="46.84691" lon="9.52921">
        <ele>637.01</ele>
        <time>2012-08-03T15:05:13Z</time>
      </trkpt>
      <trkpt lat="46.84698" lon="9.5293">
        <ele>635.57</ele>
        <time>2012-08-03T15:05:14Z</time>
      </trkpt>
      <trkpt lat="46.84706" lon="9.52936">
        <ele>635.09</ele>
        <time>2012-08-03T15:05:15Z</time>
      </trkpt>
      <trkpt lat="46.84714" lon="9.52939">
        <ele>633.17</ele>
        <time>2012-08-03T15:05:16Z</time>
      </trkpt>
      <trkpt lat="46.84721" lon="9.5294">
        <ele>632.68</ele>
        <time>2012-08-03T15:05:17Z</time>
      </trkpt>
      <trkpt lat="46.84727" lon="9.52939">
        <ele>631.24</ele>
        <time>2012-08-03T15:05:18Z</time>
      </trkpt>
      <trkpt lat="46.84731" lon="9.52937">
        <ele>630.76</ele>
        <time>2012-08-03T15:05:19Z</time>
      </trkpt>
      <trkpt lat="46.84734" lon="9.52935">
        <ele>630.76</ele>
        <time>2012-08-03T15:05:20Z</time>
      </trkpt>
      <trkpt lat="46.84757" lon="9.52924">
        <ele>627.4</ele>
        <time>2012-08-03T15:05:31Z</time>
      </trkpt>
      <trkpt lat="46.84759" lon="9.52922">
        <ele>626.92</ele>
        <time>2012-08-03T15:05:42Z</time>
      </trkpt>
      <trkpt lat="46.84762" lon="9.52922">
        <ele>626.92</ele>
        <time>2012-08-03T15:05:52Z</time>
      </trkpt>
      <trkpt lat="46.84764" lon="9.52924">
        <ele>626.92</ele>
        <time>2012-08-03T15:05:53Z</time>
      </trkpt>
      <trkpt lat="46.84767" lon="9.52926">
        <ele>626.92</ele>
        <time>2012-08-03T15:05:54Z</time>
      </trkpt>
      <trkpt lat="46.84768" lon="9.52929">
        <ele>626.92</ele>
        <time>2012-08-03T15:05:55Z</time>
      </trkpt>
      <trkpt lat="46.8477" lon="9.5293">
        <ele>626.44</ele>
        <time>2012-08-03T15:05:56Z</time>
      </trkpt>
      <trkpt lat="46.84772" lon="9.52935">
        <ele>626.44</ele>
        <time>2012-08-03T15:06:01Z</time>
      </trkpt>
      <trkpt lat="46.84786" lon="9.52955">
        <ele>626.92</ele>
        <time>2012-08-03T15:06:11Z</time>
      </trkpt>
      <trkpt lat="46.84789" lon="9.52954">
        <ele>626.92</ele>
        <time>2012-08-03T15:06:12Z</time>
      </trkpt>
      <trkpt lat="46.8479" lon="9.52952">
        <ele>626.92</ele>
        <time>2012-08-03T15:06:13Z</time>
      </trkpt>
      <trkpt lat="46.8479" lon="9.5295">
        <ele>626.44</ele>
        <time>2012-08-03T15:06:21Z</time>
      </trkpt>
      <trkpt lat="46.84789" lon="9.52948">
        <ele>626.44</ele>
        <time>2012-08-03T15:06:22Z</time>
      </trkpt>
      <trkpt lat="46.84787" lon="9.52945">
        <ele>626.44</ele>
        <time>2012-08-03T15:06:23Z</time>
      </trkpt>
      <trkpt lat="46.84785" lon="9.52943">
        <ele>626.44</ele>
        <time>2012-08-03T15:06:24Z</time>
      </trkpt>
      <trkpt lat="46.84783" lon="9.52941">
        <ele>625.96</ele>
        <time>2012-08-03T15:06:25Z</time>
      </trkpt>
      <trkpt lat="46.84769" lon="9.52911">
        <ele>624.51</ele>
        <time>2012-08-03T15:06:36Z</time>
      </trkpt>
      <trkpt lat="46.84771" lon="9.52839">
        <ele>623.55</ele>
        <time>2012-08-03T15:06:49Z</time>
      </trkpt>
      <trkpt lat="46.84771" lon="9.5283">
        <ele>624.99</ele>
        <time>2012-08-03T15:06:59Z</time>
      </trkpt>
      <trkpt lat="46.84766" lon="9.52831">
        <ele>624.03</ele>
        <time>2012-08-03T15:07:09Z</time>
      </trkpt>
      <trkpt lat="46.84766" lon="9.52826">
        <ele>624.03</ele>
        <time>2012-08-03T15:07:10Z</time>
      </trkpt>
      <trkpt lat="46.84765" lon="9.5282">
        <ele>624.51</ele>
        <time>2012-08-03T15:07:11Z</time>
      </trkpt>
      <trkpt lat="46.8475" lon="9.52755">
        <ele>569.24</ele>
        <time>2012-08-03T19:51:30Z</time>
      </trkpt>
      <trkpt lat="46.84748" lon="9.52759">
        <ele>569.72</ele>
        <time>2012-08-03T19:51:40Z</time>
      </trkpt>
      <trkpt lat="46.84748" lon="9.52759">
        <ele>568.76</ele>
        <time>2012-08-03T19:51:41Z</time>
      </trkpt>
      <trkpt lat="46.84749" lon="9.52758">
        <ele>572.12</ele>
        <time>2012-08-03T19:51:46Z</time>
      </trkpt>
      <trkpt lat="46.84749" lon="9.52757">
        <ele>567.32</ele>
        <time>2012-08-03T19:51:47Z</time>
      </trkpt>
      <trkpt lat="46.84749" lon="9.52757">
        <ele>570.2</ele>
        <time>2012-08-03T19:51:48Z</time>
      </trkpt>
      <trkpt lat="46.8475" lon="9.52757">
        <ele>567.32</ele>
        <time>2012-08-03T19:51:51Z</time>
      </trkpt>
      <trkpt lat="46.8475" lon="9.52754">
        <ele>569.72</ele>
        <time>2012-08-03T19:52:05Z</time>
      </trkpt>
      <trkpt lat="46.8475" lon="9.52755">
        <ele>569.24</ele>
        <time>2012-08-03T19:52:07Z</time>
      </trkpt>
      <trkpt lat="46.84749" lon="9.52752">
        <ele>565.87</ele>
        <time>2012-08-03T19:52:12Z</time>
      </trkpt>
      <trkpt lat="46.84749" lon="9.52752">
        <ele>571.16</ele>
        <time>2012-08-03T19:52:13Z</time>
      </trkpt>
      <trkpt lat="46.84749" lon="9.52752">
        <ele>569.72</ele>
        <time>2012-08-03T19:52:14Z</time>
      </trkpt>
      <trkpt lat="46.84749" lon="9.52753">
        <ele>567.8</ele>
        <time>2012-08-03T19:52:15Z</time>
      </trkpt>
      <trkpt lat="46.84749" lon="9.52753">
        <ele>569.72</ele>
        <time>2012-08-03T19:52:16Z</time>
      </trkpt>
      <trkpt lat="46.84744" lon="9.52744">
        <ele>569.72</ele>
        <time>2012-08-03T19:52:41Z</time>
      </trkpt>
      <trkpt lat="46.84743" lon="9.52745">
        <ele>567.32</ele>
        <time>2012-08-03T19:52:47Z</time>
      </trkpt>
      <trkpt lat="46.84743" lon="9.52745">
        <ele>570.68</ele>
        <time>2012-08-03T19:52:48Z</time>
      </trkpt>
      <trkpt lat="46.84743" lon="9.52748">
        <ele>570.68</ele>
        <time>2012-08-03T19:53:06Z</time>
      </trkpt>
      <trkpt lat="46.84744" lon="9.52745">
        <ele>569.72</ele>
        <time>2012-08-03T19:53:25Z</time>
      </trkpt>
    </trkseg>
  </trk>
</gpx>